<?xml version="1.0" encoding="UTF-8" standalone="no" ?>
<gpx xmlns="http://www.topografix.com/GPX/1/1" xmlns:xsi="http://www.w3.org/2001/XMLSchema-instance" xsi:schemaLocation="http://www.topografix.com/GPX/1/1 http://www.topografix.com/GPX/1/1/gpx.xsd" version="1.1" creator="VisuGPX - https://www.visugpx.com">
  <metadata>
    <name>SO-NE-St Léger St Pazanne Machecoul St Philbert La Chevrolière Pont St Martin Le Breuil Les Couets</name>
    <desc><![CDATA[SO-NE-St Léger St Pazanne Machecoul St Philbert La Chevrolière Pont St Martin Le Breuil Les Couets]]></desc>
  </metadata>
  <trk>
    <name><![CDATA[2021-03-28 13:35 +02:00]]></name>
    <extensions>
      <line xmlns="http://www.topografix.com/GPX/gpx_style/0/2">
        <color>0000FF</color>
        <width>4</width>
      </line>
    </extensions>
    <trkseg>
      <trkpt lat="47.16772" lon="-1.62648">
        <ele>21.5</ele>
        <time>2021-05-15T01:31:29.000Z</time>
      </trkpt>
      <trkpt lat="47.16772" lon="-1.62648">
        <ele>21.5</ele>
        <time>2021-05-15T01:31:29.000Z</time>
      </trkpt>
      <trkpt lat="47.16779" lon="-1.62657">
        <ele>21.5</ele>
        <time>2021-05-15T01:31:33.980Z</time>
      </trkpt>
      <trkpt lat="47.16777" lon="-1.62671">
        <ele>21.7</ele>
        <time>2021-05-15T01:31:35.331Z</time>
      </trkpt>
      <trkpt lat="47.16766" lon="-1.62678">
        <ele>21.9</ele>
        <time>2021-05-15T01:31:36.996Z</time>
      </trkpt>
      <trkpt lat="47.16754" lon="-1.62671">
        <ele>22</ele>
        <time>2021-05-15T01:31:37.994Z</time>
      </trkpt>
      <trkpt lat="47.16744" lon="-1.62674">
        <ele>22</ele>
        <time>2021-05-15T01:31:38.784Z</time>
      </trkpt>
      <trkpt lat="47.16733" lon="-1.62682">
        <ele>22</ele>
        <time>2021-05-15T01:31:42.539Z</time>
      </trkpt>
      <trkpt lat="47.16723" lon="-1.6269">
        <ele>22</ele>
        <time>2021-05-15T01:31:43.420Z</time>
      </trkpt>
      <trkpt lat="47.16717" lon="-1.62701">
        <ele>22.2</ele>
        <time>2021-05-15T01:31:44.751Z</time>
      </trkpt>
      <trkpt lat="47.16722" lon="-1.62717">
        <ele>22.5</ele>
        <time>2021-05-15T01:31:46.414Z</time>
      </trkpt>
      <trkpt lat="47.16728" lon="-1.62729">
        <ele>22.7</ele>
        <time>2021-05-15T01:31:47.820Z</time>
      </trkpt>
      <trkpt lat="47.16736" lon="-1.62741">
        <ele>22.9</ele>
        <time>2021-05-15T01:31:48.705Z</time>
      </trkpt>
      <trkpt lat="47.16745" lon="-1.62753">
        <ele>23</ele>
        <time>2021-05-15T01:31:50.392Z</time>
      </trkpt>
      <trkpt lat="47.16755" lon="-1.62764">
        <ele>22.8</ele>
        <time>2021-05-15T01:31:51.358Z</time>
      </trkpt>
      <trkpt lat="47.16765" lon="-1.62774">
        <ele>22.7</ele>
        <time>2021-05-15T01:31:53.037Z</time>
      </trkpt>
      <trkpt lat="47.16782" lon="-1.62788">
        <ele>22.7</ele>
        <time>2021-05-15T01:31:54.600Z</time>
      </trkpt>
      <trkpt lat="47.16793" lon="-1.62798">
        <ele>22.8</ele>
        <time>2021-05-15T01:31:56.396Z</time>
      </trkpt>
      <trkpt lat="47.16803" lon="-1.62807">
        <ele>23</ele>
        <time>2021-05-15T01:31:58.024Z</time>
      </trkpt>
      <trkpt lat="47.16813" lon="-1.62816">
        <ele>23.2</ele>
        <time>2021-05-15T01:32:01.727Z</time>
      </trkpt>
      <trkpt lat="47.16823" lon="-1.62825">
        <ele>23.6</ele>
        <time>2021-05-15T01:32:03.356Z</time>
      </trkpt>
      <trkpt lat="47.16833" lon="-1.62834">
        <ele>24</ele>
        <time>2021-05-15T01:32:04.984Z</time>
      </trkpt>
      <trkpt lat="47.16842" lon="-1.62844">
        <ele>24.3</ele>
        <time>2021-05-15T01:32:08.652Z</time>
      </trkpt>
      <trkpt lat="47.16852" lon="-1.62854">
        <ele>24.5</ele>
        <time>2021-05-15T01:32:10.331Z</time>
      </trkpt>
      <trkpt lat="47.16861" lon="-1.62863">
        <ele>24.7</ele>
        <time>2021-05-15T01:32:13.974Z</time>
      </trkpt>
      <trkpt lat="47.1687" lon="-1.62874">
        <ele>25</ele>
        <time>2021-05-15T01:32:15.599Z</time>
      </trkpt>
      <trkpt lat="47.16877" lon="-1.62887">
        <ele>25.3</ele>
        <time>2021-05-15T01:32:17.165Z</time>
      </trkpt>
      <trkpt lat="47.16886" lon="-1.62909">
        <ele>25.8</ele>
        <time>2021-05-15T01:32:19.589Z</time>
      </trkpt>
      <trkpt lat="47.16889" lon="-1.62925">
        <ele>26</ele>
        <time>2021-05-15T01:32:23.257Z</time>
      </trkpt>
      <trkpt lat="47.16891" lon="-1.62942">
        <ele>26.1</ele>
        <time>2021-05-15T01:32:24.886Z</time>
      </trkpt>
      <trkpt lat="47.16892" lon="-1.62959">
        <ele>26.2</ele>
        <time>2021-05-15T01:32:26.497Z</time>
      </trkpt>
      <trkpt lat="47.1689" lon="-1.62984">
        <ele>26.3</ele>
        <time>2021-05-15T01:32:28.874Z</time>
      </trkpt>
      <trkpt lat="47.16889" lon="-1.63001">
        <ele>26.3</ele>
        <time>2021-05-15T01:32:30.485Z</time>
      </trkpt>
      <trkpt lat="47.16888" lon="-1.63017">
        <ele>26.5</ele>
        <time>2021-05-15T01:32:34.130Z</time>
      </trkpt>
      <trkpt lat="47.16888" lon="-1.63034">
        <ele>26.6</ele>
        <time>2021-05-15T01:32:35.735Z</time>
      </trkpt>
      <trkpt lat="47.16888" lon="-1.63051">
        <ele>26.7</ele>
        <time>2021-05-15T01:32:37.340Z</time>
      </trkpt>
      <trkpt lat="47.1689" lon="-1.63076">
        <ele>26.9</ele>
        <time>2021-05-15T01:32:39.717Z</time>
      </trkpt>
      <trkpt lat="47.16894" lon="-1.63101">
        <ele>27.5</ele>
        <time>2021-05-15T01:32:42.142Z</time>
      </trkpt>
      <trkpt lat="47.16898" lon="-1.63117">
        <ele>27.9</ele>
        <time>2021-05-15T01:32:43.751Z</time>
      </trkpt>
      <trkpt lat="47.16902" lon="-1.63132">
        <ele>28.4</ele>
        <time>2021-05-15T01:32:47.398Z</time>
      </trkpt>
      <trkpt lat="47.16906" lon="-1.63146">
        <ele>29</ele>
        <time>2021-05-15T01:32:48.832Z</time>
      </trkpt>
      <trkpt lat="47.16912" lon="-1.63161">
        <ele>29.6</ele>
        <time>2021-05-15T01:32:50.475Z</time>
      </trkpt>
      <trkpt lat="47.16919" lon="-1.63175">
        <ele>30</ele>
        <time>2021-05-15T01:32:52.116Z</time>
      </trkpt>
      <trkpt lat="47.16925" lon="-1.63187">
        <ele>30</ele>
        <time>2021-05-15T01:32:55.729Z</time>
      </trkpt>
      <trkpt lat="47.16932" lon="-1.63199">
        <ele>30.1</ele>
        <time>2021-05-15T01:32:57.222Z</time>
      </trkpt>
      <trkpt lat="47.16939" lon="-1.63211">
        <ele>30.3</ele>
        <time>2021-05-15T01:33:00.857Z</time>
      </trkpt>
      <trkpt lat="47.16947" lon="-1.63221">
        <ele>30.5</ele>
        <time>2021-05-15T01:33:01.670Z</time>
      </trkpt>
      <trkpt lat="47.16955" lon="-1.63231">
        <ele>30.7</ele>
        <time>2021-05-15T01:33:03.128Z</time>
      </trkpt>
      <trkpt lat="47.16962" lon="-1.63241">
        <ele>31</ele>
        <time>2021-05-15T01:33:04.483Z</time>
      </trkpt>
      <trkpt lat="47.16969" lon="-1.63252">
        <ele>31.2</ele>
        <time>2021-05-15T01:33:05.906Z</time>
      </trkpt>
      <trkpt lat="47.16962" lon="-1.63268">
        <ele>30.6</ele>
        <time>2021-05-15T01:33:06.906Z</time>
      </trkpt>
      <trkpt lat="47.16955" lon="-1.6328">
        <ele>30.2</ele>
        <time>2021-05-15T01:33:08.399Z</time>
      </trkpt>
      <trkpt lat="47.16948" lon="-1.63293">
        <ele>29.8</ele>
        <time>2021-05-15T01:33:09.965Z</time>
      </trkpt>
      <trkpt lat="47.16936" lon="-1.63311">
        <ele>29.4</ele>
        <time>2021-05-15T01:33:11.262Z</time>
      </trkpt>
      <trkpt lat="47.16927" lon="-1.63323">
        <ele>29.2</ele>
        <time>2021-05-15T01:33:12.949Z</time>
      </trkpt>
      <trkpt lat="47.16918" lon="-1.63336">
        <ele>29</ele>
        <time>2021-05-15T01:33:14.701Z</time>
      </trkpt>
      <trkpt lat="47.1691" lon="-1.63349">
        <ele>28.9</ele>
        <time>2021-05-15T01:33:18.422Z</time>
      </trkpt>
      <trkpt lat="47.16902" lon="-1.63362">
        <ele>29</ele>
        <time>2021-05-15T01:33:20.077Z</time>
      </trkpt>
      <trkpt lat="47.1689" lon="-1.63381">
        <ele>29.1</ele>
        <time>2021-05-15T01:33:22.526Z</time>
      </trkpt>
      <trkpt lat="47.16881" lon="-1.63394">
        <ele>29.3</ele>
        <time>2021-05-15T01:33:23.502Z</time>
      </trkpt>
      <trkpt lat="47.16874" lon="-1.63406">
        <ele>29.5</ele>
        <time>2021-05-15T01:33:24.995Z</time>
      </trkpt>
      <trkpt lat="47.16866" lon="-1.6342">
        <ele>29.8</ele>
        <time>2021-05-15T01:33:26.721Z</time>
      </trkpt>
      <trkpt lat="47.16859" lon="-1.63433">
        <ele>30</ele>
        <time>2021-05-15T01:33:30.389Z</time>
      </trkpt>
      <trkpt lat="47.16852" lon="-1.63446">
        <ele>30.1</ele>
        <time>2021-05-15T01:33:31.955Z</time>
      </trkpt>
      <trkpt lat="47.16844" lon="-1.63459">
        <ele>30.2</ele>
        <time>2021-05-15T01:33:35.676Z</time>
      </trkpt>
      <trkpt lat="47.16836" lon="-1.63473">
        <ele>30.3</ele>
        <time>2021-05-15T01:33:37.403Z</time>
      </trkpt>
      <trkpt lat="47.16828" lon="-1.63486">
        <ele>30.1</ele>
        <time>2021-05-15T01:33:39.059Z</time>
      </trkpt>
      <trkpt lat="47.1682" lon="-1.63499">
        <ele>30</ele>
        <time>2021-05-15T01:33:40.714Z</time>
      </trkpt>
      <trkpt lat="47.16813" lon="-1.63512">
        <ele>30</ele>
        <time>2021-05-15T01:33:42.280Z</time>
      </trkpt>
      <trkpt lat="47.16805" lon="-1.63526">
        <ele>29.9</ele>
        <time>2021-05-15T01:33:43.242Z</time>
      </trkpt>
      <trkpt lat="47.16797" lon="-1.63539">
        <ele>29.8</ele>
        <time>2021-05-15T01:33:44.898Z</time>
      </trkpt>
      <trkpt lat="47.16789" lon="-1.63552">
        <ele>29.7</ele>
        <time>2021-05-15T01:33:46.553Z</time>
      </trkpt>
      <trkpt lat="47.16782" lon="-1.63565">
        <ele>29.5</ele>
        <time>2021-05-15T01:33:48.119Z</time>
      </trkpt>
      <trkpt lat="47.16774" lon="-1.63578">
        <ele>29.3</ele>
        <time>2021-05-15T01:33:49.775Z</time>
      </trkpt>
      <trkpt lat="47.16766" lon="-1.63591">
        <ele>29.1</ele>
        <time>2021-05-15T01:33:53.496Z</time>
      </trkpt>
      <trkpt lat="47.16759" lon="-1.63604">
        <ele>28.9</ele>
        <time>2021-05-15T01:33:54.368Z</time>
      </trkpt>
      <trkpt lat="47.16752" lon="-1.63616">
        <ele>28.6</ele>
        <time>2021-05-15T01:33:55.861Z</time>
      </trkpt>
      <trkpt lat="47.16745" lon="-1.6363">
        <ele>28.5</ele>
        <time>2021-05-15T01:33:57.502Z</time>
      </trkpt>
      <trkpt lat="47.16749" lon="-1.63644">
        <ele>28.3</ele>
        <time>2021-05-15T01:33:58.301Z</time>
      </trkpt>
      <trkpt lat="47.16761" lon="-1.63646">
        <ele>28.4</ele>
        <time>2021-05-15T01:34:02.036Z</time>
      </trkpt>
      <trkpt lat="47.16772" lon="-1.63651">
        <ele>28.5</ele>
        <time>2021-05-15T01:34:03.635Z</time>
      </trkpt>
      <trkpt lat="47.16785" lon="-1.63655">
        <ele>28.6</ele>
        <time>2021-05-15T01:34:05.480Z</time>
      </trkpt>
      <trkpt lat="47.16797" lon="-1.63659">
        <ele>28.7</ele>
        <time>2021-05-15T01:34:07.189Z</time>
      </trkpt>
      <trkpt lat="47.1681" lon="-1.63664">
        <ele>28.8</ele>
        <time>2021-05-15T01:34:09.055Z</time>
      </trkpt>
      <trkpt lat="47.16822" lon="-1.63669">
        <ele>28.8</ele>
        <time>2021-05-15T01:34:10.787Z</time>
      </trkpt>
      <trkpt lat="47.16835" lon="-1.63673">
        <ele>28.9</ele>
        <time>2021-05-15T01:34:14.653Z</time>
      </trkpt>
      <trkpt lat="47.16848" lon="-1.63678">
        <ele>28.9</ele>
        <time>2021-05-15T01:34:16.519Z</time>
      </trkpt>
      <trkpt lat="47.1686" lon="-1.63682">
        <ele>28.9</ele>
        <time>2021-05-15T01:34:18.228Z</time>
      </trkpt>
      <trkpt lat="47.16873" lon="-1.63687">
        <ele>28.9</ele>
        <time>2021-05-15T01:34:20.094Z</time>
      </trkpt>
      <trkpt lat="47.16886" lon="-1.63692">
        <ele>28.9</ele>
        <time>2021-05-15T01:34:21.960Z</time>
      </trkpt>
      <trkpt lat="47.16898" lon="-1.63696">
        <ele>28.9</ele>
        <time>2021-05-15T01:34:23.669Z</time>
      </trkpt>
      <trkpt lat="47.16911" lon="-1.63701">
        <ele>29</ele>
        <time>2021-05-15T01:34:25.535Z</time>
      </trkpt>
      <trkpt lat="47.16924" lon="-1.63706">
        <ele>29</ele>
        <time>2021-05-15T01:34:27.401Z</time>
      </trkpt>
      <trkpt lat="47.16936" lon="-1.63712">
        <ele>29.1</ele>
        <time>2021-05-15T01:34:29.162Z</time>
      </trkpt>
      <trkpt lat="47.16949" lon="-1.63716">
        <ele>29.2</ele>
        <time>2021-05-15T01:34:31.006Z</time>
      </trkpt>
      <trkpt lat="47.16969" lon="-1.63724">
        <ele>29.4</ele>
        <time>2021-05-15T01:34:32.714Z</time>
      </trkpt>
      <trkpt lat="47.16982" lon="-1.63728">
        <ele>29.6</ele>
        <time>2021-05-15T01:34:34.558Z</time>
      </trkpt>
      <trkpt lat="47.16994" lon="-1.63733">
        <ele>29.7</ele>
        <time>2021-05-15T01:34:36.290Z</time>
      </trkpt>
      <trkpt lat="47.17007" lon="-1.63738">
        <ele>29.9</ele>
        <time>2021-05-15T01:34:38.156Z</time>
      </trkpt>
      <trkpt lat="47.1702" lon="-1.63743">
        <ele>29.9</ele>
        <time>2021-05-15T01:34:40.023Z</time>
      </trkpt>
      <trkpt lat="47.17032" lon="-1.63748">
        <ele>30</ele>
        <time>2021-05-15T01:34:41.755Z</time>
      </trkpt>
      <trkpt lat="47.17044" lon="-1.63753">
        <ele>30</ele>
        <time>2021-05-15T01:34:43.487Z</time>
      </trkpt>
      <trkpt lat="47.17055" lon="-1.63763">
        <ele>30.1</ele>
        <time>2021-05-15T01:34:45.283Z</time>
      </trkpt>
      <trkpt lat="47.17064" lon="-1.63776">
        <ele>30.1</ele>
        <time>2021-05-15T01:34:47.035Z</time>
      </trkpt>
      <trkpt lat="47.17071" lon="-1.63794">
        <ele>30.1</ele>
        <time>2021-05-15T01:34:48.992Z</time>
      </trkpt>
      <trkpt lat="47.17076" lon="-1.63811">
        <ele>30.1</ele>
        <time>2021-05-15T01:34:52.780Z</time>
      </trkpt>
      <trkpt lat="47.17084" lon="-1.63835">
        <ele>30</ele>
        <time>2021-05-15T01:34:55.304Z</time>
      </trkpt>
      <trkpt lat="47.1709" lon="-1.63851">
        <ele>30</ele>
        <time>2021-05-15T01:34:57.029Z</time>
      </trkpt>
      <trkpt lat="47.17095" lon="-1.63868">
        <ele>29.9</ele>
        <time>2021-05-15T01:34:58.778Z</time>
      </trkpt>
      <trkpt lat="47.17101" lon="-1.63884">
        <ele>29.7</ele>
        <time>2021-05-15T01:35:00.503Z</time>
      </trkpt>
      <trkpt lat="47.17107" lon="-1.639">
        <ele>29.5</ele>
        <time>2021-05-15T01:35:02.228Z</time>
      </trkpt>
      <trkpt lat="47.17113" lon="-1.63915">
        <ele>29.3</ele>
        <time>2021-05-15T01:35:03.871Z</time>
      </trkpt>
      <trkpt lat="47.17119" lon="-1.63929">
        <ele>29.3</ele>
        <time>2021-05-15T01:35:05.434Z</time>
      </trkpt>
      <trkpt lat="47.17128" lon="-1.6394">
        <ele>29.2</ele>
        <time>2021-05-15T01:35:07.059Z</time>
      </trkpt>
      <trkpt lat="47.17138" lon="-1.63951">
        <ele>29.1</ele>
        <time>2021-05-15T01:35:08.793Z</time>
      </trkpt>
      <trkpt lat="47.1714" lon="-1.63966">
        <ele>29.2</ele>
        <time>2021-05-15T01:35:10.236Z</time>
      </trkpt>
      <trkpt lat="47.17139" lon="-1.63982">
        <ele>29.4</ele>
        <time>2021-05-15T01:35:11.753Z</time>
      </trkpt>
      <trkpt lat="47.17138" lon="-1.64">
        <ele>29.7</ele>
        <time>2021-05-15T01:35:13.458Z</time>
      </trkpt>
      <trkpt lat="47.17136" lon="-1.64018">
        <ele>29.8</ele>
        <time>2021-05-15T01:35:15.180Z</time>
      </trkpt>
      <trkpt lat="47.17135" lon="-1.64036">
        <ele>29.9</ele>
        <time>2021-05-15T01:35:16.886Z</time>
      </trkpt>
      <trkpt lat="47.17133" lon="-1.64054">
        <ele>29.9</ele>
        <time>2021-05-15T01:35:18.607Z</time>
      </trkpt>
      <trkpt lat="47.17131" lon="-1.64073">
        <ele>30</ele>
        <time>2021-05-15T01:35:20.423Z</time>
      </trkpt>
      <trkpt lat="47.17129" lon="-1.64092">
        <ele>30.1</ele>
        <time>2021-05-15T01:35:22.238Z</time>
      </trkpt>
      <trkpt lat="47.17127" lon="-1.64111">
        <ele>30.2</ele>
        <time>2021-05-15T01:35:24.053Z</time>
      </trkpt>
      <trkpt lat="47.17124" lon="-1.6413">
        <ele>30.3</ele>
        <time>2021-05-15T01:35:25.895Z</time>
      </trkpt>
      <trkpt lat="47.17122" lon="-1.64148">
        <ele>30.4</ele>
        <time>2021-05-15T01:35:26.854Z</time>
      </trkpt>
      <trkpt lat="47.1712" lon="-1.64168">
        <ele>30.4</ele>
        <time>2021-05-15T01:35:30.776Z</time>
      </trkpt>
      <trkpt lat="47.17119" lon="-1.64187">
        <ele>30.4</ele>
        <time>2021-05-15T01:35:32.576Z</time>
      </trkpt>
      <trkpt lat="47.17116" lon="-1.64205">
        <ele>30.4</ele>
        <time>2021-05-15T01:35:36.364Z</time>
      </trkpt>
      <trkpt lat="47.17114" lon="-1.64224">
        <ele>30.4</ele>
        <time>2021-05-15T01:35:38.180Z</time>
      </trkpt>
      <trkpt lat="47.17112" lon="-1.64243">
        <ele>30.3</ele>
        <time>2021-05-15T01:35:39.995Z</time>
      </trkpt>
      <trkpt lat="47.1711" lon="-1.64262">
        <ele>30.2</ele>
        <time>2021-05-15T01:35:41.810Z</time>
      </trkpt>
      <trkpt lat="47.17108" lon="-1.64281">
        <ele>30.1</ele>
        <time>2021-05-15T01:35:43.625Z</time>
      </trkpt>
      <trkpt lat="47.17106" lon="-1.643">
        <ele>29.9</ele>
        <time>2021-05-15T01:35:45.440Z</time>
      </trkpt>
      <trkpt lat="47.17104" lon="-1.6432">
        <ele>29.8</ele>
        <time>2021-05-15T01:35:47.349Z</time>
      </trkpt>
      <trkpt lat="47.17103" lon="-1.64339">
        <ele>29.8</ele>
        <time>2021-05-15T01:35:51.177Z</time>
      </trkpt>
      <trkpt lat="47.17101" lon="-1.64357">
        <ele>30</ele>
        <time>2021-05-15T01:35:52.136Z</time>
      </trkpt>
      <trkpt lat="47.17099" lon="-1.64377">
        <ele>30.2</ele>
        <time>2021-05-15T01:35:54.045Z</time>
      </trkpt>
      <trkpt lat="47.17097" lon="-1.64396">
        <ele>30.5</ele>
        <time>2021-05-15T01:35:55.860Z</time>
      </trkpt>
      <trkpt lat="47.17096" lon="-1.64417">
        <ele>30.7</ele>
        <time>2021-05-15T01:35:57.848Z</time>
      </trkpt>
      <trkpt lat="47.17094" lon="-1.64437">
        <ele>30.7</ele>
        <time>2021-05-15T01:35:59.756Z</time>
      </trkpt>
      <trkpt lat="47.17093" lon="-1.64457">
        <ele>30.8</ele>
        <time>2021-05-15T01:36:01.650Z</time>
      </trkpt>
      <trkpt lat="47.17092" lon="-1.64478">
        <ele>30.8</ele>
        <time>2021-05-15T01:36:03.637Z</time>
      </trkpt>
      <trkpt lat="47.17092" lon="-1.64498">
        <ele>30.8</ele>
        <time>2021-05-15T01:36:05.525Z</time>
      </trkpt>
      <trkpt lat="47.1709" lon="-1.64518">
        <ele>30.6</ele>
        <time>2021-05-15T01:36:07.434Z</time>
      </trkpt>
      <trkpt lat="47.17089" lon="-1.64538">
        <ele>30.4</ele>
        <time>2021-05-15T01:36:09.327Z</time>
      </trkpt>
      <trkpt lat="47.17089" lon="-1.64558">
        <ele>30.2</ele>
        <time>2021-05-15T01:36:11.216Z</time>
      </trkpt>
      <trkpt lat="47.17088" lon="-1.64579">
        <ele>29.9</ele>
        <time>2021-05-15T01:36:13.203Z</time>
      </trkpt>
      <trkpt lat="47.17088" lon="-1.64599">
        <ele>29.9</ele>
        <time>2021-05-15T01:36:15.091Z</time>
      </trkpt>
      <trkpt lat="47.17088" lon="-1.6462">
        <ele>29.9</ele>
        <time>2021-05-15T01:36:17.074Z</time>
      </trkpt>
      <trkpt lat="47.17089" lon="-1.6464">
        <ele>30</ele>
        <time>2021-05-15T01:36:18.967Z</time>
      </trkpt>
      <trkpt lat="47.17089" lon="-1.64661">
        <ele>30</ele>
        <time>2021-05-15T01:36:20.950Z</time>
      </trkpt>
      <trkpt lat="47.17089" lon="-1.64682">
        <ele>29.8</ele>
        <time>2021-05-15T01:36:22.933Z</time>
      </trkpt>
      <trkpt lat="47.17089" lon="-1.64704">
        <ele>29.6</ele>
        <time>2021-05-15T01:36:25.010Z</time>
      </trkpt>
      <trkpt lat="47.1709" lon="-1.64724">
        <ele>29.4</ele>
        <time>2021-05-15T01:36:28.919Z</time>
      </trkpt>
      <trkpt lat="47.17091" lon="-1.64744">
        <ele>29.2</ele>
        <time>2021-05-15T01:36:30.812Z</time>
      </trkpt>
      <trkpt lat="47.17091" lon="-1.64764">
        <ele>29.2</ele>
        <time>2021-05-15T01:36:32.700Z</time>
      </trkpt>
      <trkpt lat="47.17092" lon="-1.64784">
        <ele>29.3</ele>
        <time>2021-05-15T01:36:34.594Z</time>
      </trkpt>
      <trkpt lat="47.17093" lon="-1.64805">
        <ele>29.3</ele>
        <time>2021-05-15T01:36:36.581Z</time>
      </trkpt>
      <trkpt lat="47.17095" lon="-1.64826">
        <ele>29.4</ele>
        <time>2021-05-15T01:36:38.583Z</time>
      </trkpt>
      <trkpt lat="47.17097" lon="-1.64846">
        <ele>29.4</ele>
        <time>2021-05-15T01:36:40.492Z</time>
      </trkpt>
      <trkpt lat="47.17098" lon="-1.64867">
        <ele>29.4</ele>
        <time>2021-05-15T01:36:41.599Z</time>
      </trkpt>
      <trkpt lat="47.17099" lon="-1.64888">
        <ele>29.3</ele>
        <time>2021-05-15T01:36:43.587Z</time>
      </trkpt>
      <trkpt lat="47.17101" lon="-1.64908">
        <ele>29.3</ele>
        <time>2021-05-15T01:36:45.495Z</time>
      </trkpt>
      <trkpt lat="47.17102" lon="-1.64928">
        <ele>29.1</ele>
        <time>2021-05-15T01:36:47.388Z</time>
      </trkpt>
      <trkpt lat="47.17104" lon="-1.64947">
        <ele>29</ele>
        <time>2021-05-15T01:36:49.204Z</time>
      </trkpt>
      <trkpt lat="47.17105" lon="-1.64967">
        <ele>28.8</ele>
        <time>2021-05-15T01:36:51.097Z</time>
      </trkpt>
      <trkpt lat="47.17106" lon="-1.64986">
        <ele>28.6</ele>
        <time>2021-05-15T01:36:52.896Z</time>
      </trkpt>
      <trkpt lat="47.17108" lon="-1.65005">
        <ele>28.4</ele>
        <time>2021-05-15T01:36:56.737Z</time>
      </trkpt>
      <trkpt lat="47.17109" lon="-1.65024">
        <ele>28.5</ele>
        <time>2021-05-15T01:36:58.537Z</time>
      </trkpt>
      <trkpt lat="47.1711" lon="-1.65043">
        <ele>28.5</ele>
        <time>2021-05-15T01:37:00.336Z</time>
      </trkpt>
      <trkpt lat="47.17111" lon="-1.65062">
        <ele>28.6</ele>
        <time>2021-05-15T01:37:02.135Z</time>
      </trkpt>
      <trkpt lat="47.17112" lon="-1.6508">
        <ele>28.6</ele>
        <time>2021-05-15T01:37:03.840Z</time>
      </trkpt>
      <trkpt lat="47.17113" lon="-1.65098">
        <ele>28.8</ele>
        <time>2021-05-15T01:37:05.545Z</time>
      </trkpt>
      <trkpt lat="47.17114" lon="-1.65119">
        <ele>29.1</ele>
        <time>2021-05-15T01:37:07.533Z</time>
      </trkpt>
      <trkpt lat="47.17115" lon="-1.65141">
        <ele>29.3</ele>
        <time>2021-05-15T01:37:11.620Z</time>
      </trkpt>
      <trkpt lat="47.17117" lon="-1.6516">
        <ele>29.5</ele>
        <time>2021-05-15T01:37:13.436Z</time>
      </trkpt>
      <trkpt lat="47.17118" lon="-1.65181">
        <ele>29.5</ele>
        <time>2021-05-15T01:37:15.423Z</time>
      </trkpt>
      <trkpt lat="47.1712" lon="-1.65201">
        <ele>29.4</ele>
        <time>2021-05-15T01:37:17.332Z</time>
      </trkpt>
      <trkpt lat="47.17121" lon="-1.65221">
        <ele>29.3</ele>
        <time>2021-05-15T01:37:19.225Z</time>
      </trkpt>
      <trkpt lat="47.17123" lon="-1.65239">
        <ele>29.1</ele>
        <time>2021-05-15T01:37:20.947Z</time>
      </trkpt>
      <trkpt lat="47.17126" lon="-1.65258">
        <ele>29.1</ele>
        <time>2021-05-15T01:37:24.810Z</time>
      </trkpt>
      <trkpt lat="47.17131" lon="-1.65275">
        <ele>29.3</ele>
        <time>2021-05-15T01:37:26.559Z</time>
      </trkpt>
      <trkpt lat="47.17137" lon="-1.65292">
        <ele>29.5</ele>
        <time>2021-05-15T01:37:28.368Z</time>
      </trkpt>
      <trkpt lat="47.17137" lon="-1.65312">
        <ele>29.9</ele>
        <time>2021-05-15T01:37:30.256Z</time>
      </trkpt>
      <trkpt lat="47.17132" lon="-1.65329">
        <ele>30.3</ele>
        <time>2021-05-15T01:37:32.005Z</time>
      </trkpt>
      <trkpt lat="47.17123" lon="-1.65343">
        <ele>30.6</ele>
        <time>2021-05-15T01:37:33.824Z</time>
      </trkpt>
      <trkpt lat="47.17118" lon="-1.65361">
        <ele>30.9</ele>
        <time>2021-05-15T01:37:35.660Z</time>
      </trkpt>
      <trkpt lat="47.17119" lon="-1.65379">
        <ele>31</ele>
        <time>2021-05-15T01:37:39.415Z</time>
      </trkpt>
      <trkpt lat="47.17119" lon="-1.65397">
        <ele>31.2</ele>
        <time>2021-05-15T01:37:41.114Z</time>
      </trkpt>
      <trkpt lat="47.17119" lon="-1.65415">
        <ele>31.4</ele>
        <time>2021-05-15T01:37:44.866Z</time>
      </trkpt>
      <trkpt lat="47.17119" lon="-1.65432">
        <ele>31.4</ele>
        <time>2021-05-15T01:37:46.471Z</time>
      </trkpt>
      <trkpt lat="47.17119" lon="-1.65448">
        <ele>31.3</ele>
        <time>2021-05-15T01:37:50.113Z</time>
      </trkpt>
      <trkpt lat="47.17118" lon="-1.65463">
        <ele>31.3</ele>
        <time>2021-05-15T01:37:51.536Z</time>
      </trkpt>
      <trkpt lat="47.17116" lon="-1.6548">
        <ele>31.3</ele>
        <time>2021-05-15T01:37:55.240Z</time>
      </trkpt>
      <trkpt lat="47.17114" lon="-1.65495">
        <ele>31.3</ele>
        <time>2021-05-15T01:37:58.860Z</time>
      </trkpt>
      <trkpt lat="47.1711" lon="-1.6551">
        <ele>31.3</ele>
        <time>2021-05-15T01:38:00.381Z</time>
      </trkpt>
      <trkpt lat="47.17105" lon="-1.65523">
        <ele>31.3</ele>
        <time>2021-05-15T01:38:01.791Z</time>
      </trkpt>
      <trkpt lat="47.171" lon="-1.65536">
        <ele>31.3</ele>
        <time>2021-05-15T01:38:05.405Z</time>
      </trkpt>
      <trkpt lat="47.17093" lon="-1.65549">
        <ele>31.3</ele>
        <time>2021-05-15T01:38:06.971Z</time>
      </trkpt>
      <trkpt lat="47.17087" lon="-1.6556">
        <ele>31.3</ele>
        <time>2021-05-15T01:38:08.302Z</time>
      </trkpt>
      <trkpt lat="47.1708" lon="-1.65572">
        <ele>31.1</ele>
        <time>2021-05-15T01:38:09.134Z</time>
      </trkpt>
      <trkpt lat="47.17074" lon="-1.65584">
        <ele>30.9</ele>
        <time>2021-05-15T01:38:10.540Z</time>
      </trkpt>
      <trkpt lat="47.17067" lon="-1.65597">
        <ele>30.7</ele>
        <time>2021-05-15T01:38:12.106Z</time>
      </trkpt>
      <trkpt lat="47.17059" lon="-1.6561">
        <ele>30.6</ele>
        <time>2021-05-15T01:38:13.762Z</time>
      </trkpt>
      <trkpt lat="47.17051" lon="-1.65623">
        <ele>30.5</ele>
        <time>2021-05-15T01:38:15.417Z</time>
      </trkpt>
      <trkpt lat="47.17043" lon="-1.65638">
        <ele>30.5</ele>
        <time>2021-05-15T01:38:16.420Z</time>
      </trkpt>
      <trkpt lat="47.17035" lon="-1.65653">
        <ele>30.6</ele>
        <time>2021-05-15T01:38:18.220Z</time>
      </trkpt>
      <trkpt lat="47.17026" lon="-1.65669">
        <ele>30.7</ele>
        <time>2021-05-15T01:38:19.313Z</time>
      </trkpt>
      <trkpt lat="47.17019" lon="-1.65686">
        <ele>31</ele>
        <time>2021-05-15T01:38:21.189Z</time>
      </trkpt>
      <trkpt lat="47.17012" lon="-1.65704">
        <ele>31.3</ele>
        <time>2021-05-15T01:38:22.280Z</time>
      </trkpt>
      <trkpt lat="47.17007" lon="-1.65723">
        <ele>31.6</ele>
        <time>2021-05-15T01:38:24.204Z</time>
      </trkpt>
      <trkpt lat="47.17004" lon="-1.65743">
        <ele>31.9</ele>
        <time>2021-05-15T01:38:28.149Z</time>
      </trkpt>
      <trkpt lat="47.16997" lon="-1.65761">
        <ele>31.7</ele>
        <time>2021-05-15T01:38:30.107Z</time>
      </trkpt>
      <trkpt lat="47.16985" lon="-1.65771">
        <ele>31.5</ele>
        <time>2021-05-15T01:38:32.022Z</time>
      </trkpt>
      <trkpt lat="47.16973" lon="-1.65778">
        <ele>31.4</ele>
        <time>2021-05-15T01:38:33.021Z</time>
      </trkpt>
      <trkpt lat="47.16962" lon="-1.6579">
        <ele>31.3</ele>
        <time>2021-05-15T01:38:34.923Z</time>
      </trkpt>
      <trkpt lat="47.16953" lon="-1.65805">
        <ele>31.1</ele>
        <time>2021-05-15T01:38:35.975Z</time>
      </trkpt>
      <trkpt lat="47.16945" lon="-1.65822">
        <ele>30.8</ele>
        <time>2021-05-15T01:38:37.927Z</time>
      </trkpt>
      <trkpt lat="47.16937" lon="-1.65839">
        <ele>30.7</ele>
        <time>2021-05-15T01:38:39.880Z</time>
      </trkpt>
      <trkpt lat="47.16929" lon="-1.65855">
        <ele>30.7</ele>
        <time>2021-05-15T01:38:40.924Z</time>
      </trkpt>
      <trkpt lat="47.1692" lon="-1.65872">
        <ele>30.5</ele>
        <time>2021-05-15T01:38:42.959Z</time>
      </trkpt>
      <trkpt lat="47.16913" lon="-1.65887">
        <ele>30.3</ele>
        <time>2021-05-15T01:38:44.676Z</time>
      </trkpt>
      <trkpt lat="47.16905" lon="-1.65903">
        <ele>30.1</ele>
        <time>2021-05-15T01:38:46.552Z</time>
      </trkpt>
      <trkpt lat="47.16897" lon="-1.65919">
        <ele>30</ele>
        <time>2021-05-15T01:38:48.427Z</time>
      </trkpt>
      <trkpt lat="47.1689" lon="-1.65936">
        <ele>30.1</ele>
        <time>2021-05-15T01:38:50.303Z</time>
      </trkpt>
      <trkpt lat="47.16882" lon="-1.65953">
        <ele>30.3</ele>
        <time>2021-05-15T01:38:51.391Z</time>
      </trkpt>
      <trkpt lat="47.16875" lon="-1.6597">
        <ele>30.6</ele>
        <time>2021-05-15T01:38:53.268Z</time>
      </trkpt>
      <trkpt lat="47.16868" lon="-1.65989">
        <ele>31.2</ele>
        <time>2021-05-15T01:38:55.308Z</time>
      </trkpt>
      <trkpt lat="47.16863" lon="-1.66008">
        <ele>31.5</ele>
        <time>2021-05-15T01:38:57.232Z</time>
      </trkpt>
      <trkpt lat="47.16859" lon="-1.66027">
        <ele>31.5</ele>
        <time>2021-05-15T01:38:59.110Z</time>
      </trkpt>
      <trkpt lat="47.16854" lon="-1.66047">
        <ele>31.6</ele>
        <time>2021-05-15T01:39:01.122Z</time>
      </trkpt>
      <trkpt lat="47.16851" lon="-1.66067">
        <ele>31.5</ele>
        <time>2021-05-15T01:39:03.055Z</time>
      </trkpt>
      <trkpt lat="47.16848" lon="-1.66086">
        <ele>31.5</ele>
        <time>2021-05-15T01:39:04.897Z</time>
      </trkpt>
      <trkpt lat="47.16847" lon="-1.66106">
        <ele>31.8</ele>
        <time>2021-05-15T01:39:06.791Z</time>
      </trkpt>
      <trkpt lat="47.16845" lon="-1.66126">
        <ele>32.1</ele>
        <time>2021-05-15T01:39:08.699Z</time>
      </trkpt>
      <trkpt lat="47.16845" lon="-1.66146">
        <ele>32.3</ele>
        <time>2021-05-15T01:39:12.603Z</time>
      </trkpt>
      <trkpt lat="47.16845" lon="-1.66166">
        <ele>32.6</ele>
        <time>2021-05-15T01:39:14.492Z</time>
      </trkpt>
      <trkpt lat="47.16846" lon="-1.66185">
        <ele>32.4</ele>
        <time>2021-05-15T01:39:16.291Z</time>
      </trkpt>
      <trkpt lat="47.16848" lon="-1.66204">
        <ele>32.2</ele>
        <time>2021-05-15T01:39:17.302Z</time>
      </trkpt>
      <trkpt lat="47.16849" lon="-1.66224">
        <ele>32</ele>
        <time>2021-05-15T01:39:21.211Z</time>
      </trkpt>
      <trkpt lat="47.16851" lon="-1.66243">
        <ele>31.8</ele>
        <time>2021-05-15T01:39:23.026Z</time>
      </trkpt>
      <trkpt lat="47.16852" lon="-1.66262">
        <ele>31.8</ele>
        <time>2021-05-15T01:39:24.826Z</time>
      </trkpt>
      <trkpt lat="47.16853" lon="-1.66282">
        <ele>31.9</ele>
        <time>2021-05-15T01:39:26.719Z</time>
      </trkpt>
      <trkpt lat="47.16855" lon="-1.66301">
        <ele>31.9</ele>
        <time>2021-05-15T01:39:28.535Z</time>
      </trkpt>
      <trkpt lat="47.16856" lon="-1.6632">
        <ele>32</ele>
        <time>2021-05-15T01:39:30.334Z</time>
      </trkpt>
      <trkpt lat="47.16857" lon="-1.6634">
        <ele>32</ele>
        <time>2021-05-15T01:39:32.227Z</time>
      </trkpt>
      <trkpt lat="47.1686" lon="-1.66359">
        <ele>31.9</ele>
        <time>2021-05-15T01:39:33.253Z</time>
      </trkpt>
      <trkpt lat="47.16862" lon="-1.66379">
        <ele>31.8</ele>
        <time>2021-05-15T01:39:35.162Z</time>
      </trkpt>
      <trkpt lat="47.16864" lon="-1.66398">
        <ele>31.7</ele>
        <time>2021-05-15T01:39:36.977Z</time>
      </trkpt>
      <trkpt lat="47.16866" lon="-1.66418">
        <ele>31.6</ele>
        <time>2021-05-15T01:39:38.886Z</time>
      </trkpt>
      <trkpt lat="47.16868" lon="-1.66437">
        <ele>31.4</ele>
        <time>2021-05-15T01:39:40.701Z</time>
      </trkpt>
      <trkpt lat="47.1687" lon="-1.66456">
        <ele>31.2</ele>
        <time>2021-05-15T01:39:41.713Z</time>
      </trkpt>
      <trkpt lat="47.16872" lon="-1.66476">
        <ele>31.1</ele>
        <time>2021-05-15T01:39:43.621Z</time>
      </trkpt>
      <trkpt lat="47.16875" lon="-1.66495">
        <ele>31</ele>
        <time>2021-05-15T01:39:47.485Z</time>
      </trkpt>
      <trkpt lat="47.16876" lon="-1.66515">
        <ele>31.3</ele>
        <time>2021-05-15T01:39:49.378Z</time>
      </trkpt>
      <trkpt lat="47.16879" lon="-1.66535">
        <ele>31.7</ele>
        <time>2021-05-15T01:39:51.312Z</time>
      </trkpt>
      <trkpt lat="47.16882" lon="-1.66554">
        <ele>32.2</ele>
        <time>2021-05-15T01:39:53.154Z</time>
      </trkpt>
      <trkpt lat="47.16884" lon="-1.66574">
        <ele>32.6</ele>
        <time>2021-05-15T01:39:55.062Z</time>
      </trkpt>
      <trkpt lat="47.16887" lon="-1.66594">
        <ele>32.9</ele>
        <time>2021-05-15T01:39:56.996Z</time>
      </trkpt>
      <trkpt lat="47.16889" lon="-1.66613">
        <ele>32.8</ele>
        <time>2021-05-15T01:39:58.811Z</time>
      </trkpt>
      <trkpt lat="47.16891" lon="-1.66632">
        <ele>32.6</ele>
        <time>2021-05-15T01:40:00.627Z</time>
      </trkpt>
      <trkpt lat="47.16892" lon="-1.66651">
        <ele>32.4</ele>
        <time>2021-05-15T01:40:02.426Z</time>
      </trkpt>
      <trkpt lat="47.16892" lon="-1.6667">
        <ele>32.3</ele>
        <time>2021-05-15T01:40:04.220Z</time>
      </trkpt>
      <trkpt lat="47.16889" lon="-1.66689">
        <ele>32.2</ele>
        <time>2021-05-15T01:40:06.062Z</time>
      </trkpt>
      <trkpt lat="47.16885" lon="-1.66709">
        <ele>32.2</ele>
        <time>2021-05-15T01:40:08.030Z</time>
      </trkpt>
      <trkpt lat="47.1688" lon="-1.66727">
        <ele>32.1</ele>
        <time>2021-05-15T01:40:09.866Z</time>
      </trkpt>
      <trkpt lat="47.16873" lon="-1.66745">
        <ele>32</ele>
        <time>2021-05-15T01:40:10.957Z</time>
      </trkpt>
      <trkpt lat="47.16865" lon="-1.66761">
        <ele>32</ele>
        <time>2021-05-15T01:40:12.832Z</time>
      </trkpt>
      <trkpt lat="47.16857" lon="-1.66778">
        <ele>32</ele>
        <time>2021-05-15T01:40:14.784Z</time>
      </trkpt>
      <trkpt lat="47.16848" lon="-1.66795">
        <ele>32</ele>
        <time>2021-05-15T01:40:15.917Z</time>
      </trkpt>
      <trkpt lat="47.16839" lon="-1.66811">
        <ele>32</ele>
        <time>2021-05-15T01:40:17.878Z</time>
      </trkpt>
      <trkpt lat="47.16831" lon="-1.66828">
        <ele>32</ele>
        <time>2021-05-15T01:40:21.840Z</time>
      </trkpt>
      <trkpt lat="47.16822" lon="-1.66844">
        <ele>32</ele>
        <time>2021-05-15T01:40:23.801Z</time>
      </trkpt>
      <trkpt lat="47.16813" lon="-1.66861">
        <ele>32.1</ele>
        <time>2021-05-15T01:40:25.836Z</time>
      </trkpt>
      <trkpt lat="47.16805" lon="-1.66875">
        <ele>32.2</ele>
        <time>2021-05-15T01:40:27.562Z</time>
      </trkpt>
      <trkpt lat="47.16795" lon="-1.66889">
        <ele>32.3</ele>
        <time>2021-05-15T01:40:29.480Z</time>
      </trkpt>
      <trkpt lat="47.16785" lon="-1.669">
        <ele>32.5</ele>
        <time>2021-05-15T01:40:31.214Z</time>
      </trkpt>
      <trkpt lat="47.16773" lon="-1.66909">
        <ele>32.7</ele>
        <time>2021-05-15T01:40:33.085Z</time>
      </trkpt>
      <trkpt lat="47.1676" lon="-1.66915">
        <ele>32.9</ele>
        <time>2021-05-15T01:40:34.977Z</time>
      </trkpt>
      <trkpt lat="47.16748" lon="-1.66921">
        <ele>32.8</ele>
        <time>2021-05-15T01:40:38.774Z</time>
      </trkpt>
      <trkpt lat="47.16735" lon="-1.66924">
        <ele>32.5</ele>
        <time>2021-05-15T01:40:40.601Z</time>
      </trkpt>
      <trkpt lat="47.16721" lon="-1.66928">
        <ele>32.1</ele>
        <time>2021-05-15T01:40:42.582Z</time>
      </trkpt>
      <trkpt lat="47.16708" lon="-1.66934">
        <ele>31.7</ele>
        <time>2021-05-15T01:40:44.474Z</time>
      </trkpt>
      <trkpt lat="47.16694" lon="-1.6694">
        <ele>31.3</ele>
        <time>2021-05-15T01:40:45.602Z</time>
      </trkpt>
      <trkpt lat="47.16683" lon="-1.66951">
        <ele>30.9</ele>
        <time>2021-05-15T01:40:47.450Z</time>
      </trkpt>
      <trkpt lat="47.16673" lon="-1.66964">
        <ele>30.5</ele>
        <time>2021-05-15T01:40:48.482Z</time>
      </trkpt>
      <trkpt lat="47.16666" lon="-1.66982">
        <ele>30.2</ele>
        <time>2021-05-15T01:40:50.440Z</time>
      </trkpt>
      <trkpt lat="47.16661" lon="-1.67">
        <ele>30</ele>
        <time>2021-05-15T01:40:51.463Z</time>
      </trkpt>
      <trkpt lat="47.16658" lon="-1.67018">
        <ele>29.8</ele>
        <time>2021-05-15T01:40:53.213Z</time>
      </trkpt>
      <trkpt lat="47.16654" lon="-1.67035">
        <ele>29.6</ele>
        <time>2021-05-15T01:40:54.912Z</time>
      </trkpt>
      <trkpt lat="47.1665" lon="-1.67053">
        <ele>29.4</ele>
        <time>2021-05-15T01:40:56.700Z</time>
      </trkpt>
      <trkpt lat="47.16647" lon="-1.6707">
        <ele>29.2</ele>
        <time>2021-05-15T01:41:00.423Z</time>
      </trkpt>
      <trkpt lat="47.16643" lon="-1.67088">
        <ele>29</ele>
        <time>2021-05-15T01:41:02.211Z</time>
      </trkpt>
      <trkpt lat="47.1664" lon="-1.67105">
        <ele>29</ele>
        <time>2021-05-15T01:41:03.135Z</time>
      </trkpt>
      <trkpt lat="47.16636" lon="-1.67123">
        <ele>29</ele>
        <time>2021-05-15T01:41:04.923Z</time>
      </trkpt>
      <trkpt lat="47.16633" lon="-1.67139">
        <ele>29</ele>
        <time>2021-05-15T01:41:06.490Z</time>
      </trkpt>
      <trkpt lat="47.16629" lon="-1.67156">
        <ele>29</ele>
        <time>2021-05-15T01:41:08.188Z</time>
      </trkpt>
      <trkpt lat="47.16626" lon="-1.67172">
        <ele>29.1</ele>
        <time>2021-05-15T01:41:09.756Z</time>
      </trkpt>
      <trkpt lat="47.16623" lon="-1.67189">
        <ele>29.3</ele>
        <time>2021-05-15T01:41:11.414Z</time>
      </trkpt>
      <trkpt lat="47.1662" lon="-1.67205">
        <ele>29.5</ele>
        <time>2021-05-15T01:41:12.981Z</time>
      </trkpt>
      <trkpt lat="47.16616" lon="-1.67221">
        <ele>29.7</ele>
        <time>2021-05-15T01:41:14.591Z</time>
      </trkpt>
      <trkpt lat="47.16613" lon="-1.67236">
        <ele>29.8</ele>
        <time>2021-05-15T01:41:16.067Z</time>
      </trkpt>
      <trkpt lat="47.1661" lon="-1.67249">
        <ele>30</ele>
        <time>2021-05-15T01:41:19.690Z</time>
      </trkpt>
      <trkpt lat="47.16606" lon="-1.67267">
        <ele>29.9</ele>
        <time>2021-05-15T01:41:21.478Z</time>
      </trkpt>
      <trkpt lat="47.166" lon="-1.67283">
        <ele>29.9</ele>
        <time>2021-05-15T01:41:23.203Z</time>
      </trkpt>
      <trkpt lat="47.16594" lon="-1.67298">
        <ele>29.9</ele>
        <time>2021-05-15T01:41:24.847Z</time>
      </trkpt>
      <trkpt lat="47.16586" lon="-1.67314">
        <ele>30</ele>
        <time>2021-05-15T01:41:26.722Z</time>
      </trkpt>
      <trkpt lat="47.16579" lon="-1.6733">
        <ele>29.9</ele>
        <time>2021-05-15T01:41:27.723Z</time>
      </trkpt>
      <trkpt lat="47.16571" lon="-1.67346">
        <ele>29.7</ele>
        <time>2021-05-15T01:41:29.598Z</time>
      </trkpt>
      <trkpt lat="47.16564" lon="-1.67363">
        <ele>29.6</ele>
        <time>2021-05-15T01:41:31.475Z</time>
      </trkpt>
      <trkpt lat="47.16554" lon="-1.67377">
        <ele>29.5</ele>
        <time>2021-05-15T01:41:35.405Z</time>
      </trkpt>
      <trkpt lat="47.16544" lon="-1.67391">
        <ele>29.4</ele>
        <time>2021-05-15T01:41:37.322Z</time>
      </trkpt>
      <trkpt lat="47.16535" lon="-1.67405">
        <ele>29.3</ele>
        <time>2021-05-15T01:41:39.142Z</time>
      </trkpt>
      <trkpt lat="47.16526" lon="-1.67419">
        <ele>29.3</ele>
        <time>2021-05-15T01:41:40.961Z</time>
      </trkpt>
      <trkpt lat="47.16517" lon="-1.67433">
        <ele>29.4</ele>
        <time>2021-05-15T01:41:42.780Z</time>
      </trkpt>
      <trkpt lat="47.16508" lon="-1.67448">
        <ele>29.5</ele>
        <time>2021-05-15T01:41:44.669Z</time>
      </trkpt>
      <trkpt lat="47.165" lon="-1.67464">
        <ele>29.6</ele>
        <time>2021-05-15T01:41:46.545Z</time>
      </trkpt>
      <trkpt lat="47.16491" lon="-1.67479">
        <ele>29.7</ele>
        <time>2021-05-15T01:41:48.434Z</time>
      </trkpt>
      <trkpt lat="47.16483" lon="-1.67494">
        <ele>29.8</ele>
        <time>2021-05-15T01:41:50.234Z</time>
      </trkpt>
      <trkpt lat="47.16474" lon="-1.67509">
        <ele>29.7</ele>
        <time>2021-05-15T01:41:52.123Z</time>
      </trkpt>
      <trkpt lat="47.16466" lon="-1.67523">
        <ele>29.5</ele>
        <time>2021-05-15T01:41:53.085Z</time>
      </trkpt>
      <trkpt lat="47.16458" lon="-1.67537">
        <ele>29.3</ele>
        <time>2021-05-15T01:41:54.812Z</time>
      </trkpt>
      <trkpt lat="47.1645" lon="-1.67551">
        <ele>29</ele>
        <time>2021-05-15T01:41:56.539Z</time>
      </trkpt>
      <trkpt lat="47.16442" lon="-1.67566">
        <ele>28.8</ele>
        <time>2021-05-15T01:41:58.339Z</time>
      </trkpt>
      <trkpt lat="47.16434" lon="-1.67581">
        <ele>28.4</ele>
        <time>2021-05-15T01:42:00.139Z</time>
      </trkpt>
      <trkpt lat="47.16426" lon="-1.67598">
        <ele>28.4</ele>
        <time>2021-05-15T01:42:02.091Z</time>
      </trkpt>
      <trkpt lat="47.16419" lon="-1.67614">
        <ele>28.4</ele>
        <time>2021-05-15T01:42:03.888Z</time>
      </trkpt>
      <trkpt lat="47.16411" lon="-1.67629">
        <ele>28.5</ele>
        <time>2021-05-15T01:42:05.688Z</time>
      </trkpt>
      <trkpt lat="47.16404" lon="-1.67645">
        <ele>28.6</ele>
        <time>2021-05-15T01:42:07.484Z</time>
      </trkpt>
      <trkpt lat="47.16397" lon="-1.67661">
        <ele>28.7</ele>
        <time>2021-05-15T01:42:09.281Z</time>
      </trkpt>
      <trkpt lat="47.16389" lon="-1.67676">
        <ele>28.5</ele>
        <time>2021-05-15T01:42:11.081Z</time>
      </trkpt>
      <trkpt lat="47.16381" lon="-1.67692">
        <ele>28</ele>
        <time>2021-05-15T01:42:12.956Z</time>
      </trkpt>
      <trkpt lat="47.16373" lon="-1.67706">
        <ele>27.5</ele>
        <time>2021-05-15T01:42:14.683Z</time>
      </trkpt>
      <trkpt lat="47.16366" lon="-1.6772">
        <ele>27</ele>
        <time>2021-05-15T01:42:16.324Z</time>
      </trkpt>
      <trkpt lat="47.16358" lon="-1.67736">
        <ele>26.3</ele>
        <time>2021-05-15T01:42:20.217Z</time>
      </trkpt>
      <trkpt lat="47.16351" lon="-1.67751">
        <ele>25.6</ele>
        <time>2021-05-15T01:42:23.982Z</time>
      </trkpt>
      <trkpt lat="47.16342" lon="-1.67764">
        <ele>25.4</ele>
        <time>2021-05-15T01:42:24.958Z</time>
      </trkpt>
      <trkpt lat="47.16335" lon="-1.67778">
        <ele>25.4</ele>
        <time>2021-05-15T01:42:26.599Z</time>
      </trkpt>
      <trkpt lat="47.16327" lon="-1.67792">
        <ele>25.6</ele>
        <time>2021-05-15T01:42:28.325Z</time>
      </trkpt>
      <trkpt lat="47.16319" lon="-1.67807">
        <ele>25.8</ele>
        <time>2021-05-15T01:42:30.126Z</time>
      </trkpt>
      <trkpt lat="47.1631" lon="-1.6782">
        <ele>25.9</ele>
        <time>2021-05-15T01:42:31.878Z</time>
      </trkpt>
      <trkpt lat="47.16302" lon="-1.67834">
        <ele>26</ele>
        <time>2021-05-15T01:42:33.604Z</time>
      </trkpt>
      <trkpt lat="47.16294" lon="-1.67848">
        <ele>26.4</ele>
        <time>2021-05-15T01:42:35.331Z</time>
      </trkpt>
      <trkpt lat="47.16286" lon="-1.67862">
        <ele>26.7</ele>
        <time>2021-05-15T01:42:37.058Z</time>
      </trkpt>
      <trkpt lat="47.16279" lon="-1.67875">
        <ele>27</ele>
        <time>2021-05-15T01:42:38.624Z</time>
      </trkpt>
      <trkpt lat="47.16271" lon="-1.67889">
        <ele>27.3</ele>
        <time>2021-05-15T01:42:40.351Z</time>
      </trkpt>
      <trkpt lat="47.16264" lon="-1.67904">
        <ele>27.7</ele>
        <time>2021-05-15T01:42:42.069Z</time>
      </trkpt>
      <trkpt lat="47.16256" lon="-1.67917">
        <ele>28</ele>
        <time>2021-05-15T01:42:43.725Z</time>
      </trkpt>
      <trkpt lat="47.16248" lon="-1.67932">
        <ele>28</ele>
        <time>2021-05-15T01:42:47.553Z</time>
      </trkpt>
      <trkpt lat="47.16241" lon="-1.67946">
        <ele>27.9</ele>
        <time>2021-05-15T01:42:51.265Z</time>
      </trkpt>
      <trkpt lat="47.16233" lon="-1.67958">
        <ele>27.9</ele>
        <time>2021-05-15T01:42:52.852Z</time>
      </trkpt>
      <trkpt lat="47.16226" lon="-1.67972">
        <ele>27.9</ele>
        <time>2021-05-15T01:42:54.493Z</time>
      </trkpt>
      <trkpt lat="47.16221" lon="-1.67987">
        <ele>27.9</ele>
        <time>2021-05-15T01:42:56.070Z</time>
      </trkpt>
      <trkpt lat="47.1621" lon="-1.67997">
        <ele>28</ele>
        <time>2021-05-15T01:42:57.866Z</time>
      </trkpt>
      <trkpt lat="47.16197" lon="-1.68002">
        <ele>28</ele>
        <time>2021-05-15T01:42:58.906Z</time>
      </trkpt>
      <trkpt lat="47.16189" lon="-1.68015">
        <ele>27.9</ele>
        <time>2021-05-15T01:43:00.562Z</time>
      </trkpt>
      <trkpt lat="47.1618" lon="-1.68028">
        <ele>27.7</ele>
        <time>2021-05-15T01:43:02.314Z</time>
      </trkpt>
      <trkpt lat="47.16171" lon="-1.68041">
        <ele>27.5</ele>
        <time>2021-05-15T01:43:04.066Z</time>
      </trkpt>
      <trkpt lat="47.16163" lon="-1.68053">
        <ele>27.4</ele>
        <time>2021-05-15T01:43:07.745Z</time>
      </trkpt>
      <trkpt lat="47.16155" lon="-1.68067">
        <ele>27.2</ele>
        <time>2021-05-15T01:43:08.707Z</time>
      </trkpt>
      <trkpt lat="47.16148" lon="-1.68082">
        <ele>27</ele>
        <time>2021-05-15T01:43:10.425Z</time>
      </trkpt>
      <trkpt lat="47.16143" lon="-1.68098">
        <ele>27</ele>
        <time>2021-05-15T01:43:12.088Z</time>
      </trkpt>
      <trkpt lat="47.16139" lon="-1.68116">
        <ele>26.9</ele>
        <time>2021-05-15T01:43:13.876Z</time>
      </trkpt>
      <trkpt lat="47.16135" lon="-1.68133">
        <ele>26.8</ele>
        <time>2021-05-15T01:43:14.822Z</time>
      </trkpt>
      <trkpt lat="47.16131" lon="-1.6815">
        <ele>26.7</ele>
        <time>2021-05-15T01:43:16.521Z</time>
      </trkpt>
      <trkpt lat="47.16127" lon="-1.68168">
        <ele>26.5</ele>
        <time>2021-05-15T01:43:18.309Z</time>
      </trkpt>
      <trkpt lat="47.16122" lon="-1.68186">
        <ele>26.5</ele>
        <time>2021-05-15T01:43:20.145Z</time>
      </trkpt>
      <trkpt lat="47.16119" lon="-1.68204">
        <ele>26.4</ele>
        <time>2021-05-15T01:43:21.895Z</time>
      </trkpt>
      <trkpt lat="47.16115" lon="-1.68222">
        <ele>26.4</ele>
        <time>2021-05-15T01:43:23.684Z</time>
      </trkpt>
      <trkpt lat="47.16111" lon="-1.6824">
        <ele>26.3</ele>
        <time>2021-05-15T01:43:25.472Z</time>
      </trkpt>
      <trkpt lat="47.16107" lon="-1.68258">
        <ele>26.1</ele>
        <time>2021-05-15T01:43:27.260Z</time>
      </trkpt>
      <trkpt lat="47.16104" lon="-1.68278">
        <ele>25.7</ele>
        <time>2021-05-15T01:43:31.206Z</time>
      </trkpt>
      <trkpt lat="47.161" lon="-1.68299">
        <ele>25.1</ele>
        <time>2021-05-15T01:43:32.353Z</time>
      </trkpt>
      <trkpt lat="47.16096" lon="-1.6832">
        <ele>24.6</ele>
        <time>2021-05-15T01:43:33.500Z</time>
      </trkpt>
      <trkpt lat="47.16092" lon="-1.68341">
        <ele>24.3</ele>
        <time>2021-05-15T01:43:35.560Z</time>
      </trkpt>
      <trkpt lat="47.16088" lon="-1.6836">
        <ele>24.4</ele>
        <time>2021-05-15T01:43:37.438Z</time>
      </trkpt>
      <trkpt lat="47.16084" lon="-1.68378">
        <ele>24.5</ele>
        <time>2021-05-15T01:43:39.226Z</time>
      </trkpt>
      <trkpt lat="47.1608" lon="-1.68397">
        <ele>24.7</ele>
        <time>2021-05-15T01:43:40.273Z</time>
      </trkpt>
      <trkpt lat="47.16076" lon="-1.68416">
        <ele>24.8</ele>
        <time>2021-05-15T01:43:42.151Z</time>
      </trkpt>
      <trkpt lat="47.16072" lon="-1.68435">
        <ele>24.7</ele>
        <time>2021-05-15T01:43:44.029Z</time>
      </trkpt>
      <trkpt lat="47.16069" lon="-1.68454">
        <ele>24.7</ele>
        <time>2021-05-15T01:43:45.871Z</time>
      </trkpt>
      <trkpt lat="47.16065" lon="-1.68471">
        <ele>24.6</ele>
        <time>2021-05-15T01:43:47.570Z</time>
      </trkpt>
      <trkpt lat="47.16062" lon="-1.6849">
        <ele>24.5</ele>
        <time>2021-05-15T01:43:49.412Z</time>
      </trkpt>
      <trkpt lat="47.1606" lon="-1.68508">
        <ele>24.5</ele>
        <time>2021-05-15T01:43:51.134Z</time>
      </trkpt>
      <trkpt lat="47.16057" lon="-1.68527">
        <ele>24.5</ele>
        <time>2021-05-15T01:43:52.976Z</time>
      </trkpt>
      <trkpt lat="47.16054" lon="-1.68545">
        <ele>24.5</ele>
        <time>2021-05-15T01:43:54.726Z</time>
      </trkpt>
      <trkpt lat="47.16052" lon="-1.68563">
        <ele>24.5</ele>
        <time>2021-05-15T01:43:55.686Z</time>
      </trkpt>
      <trkpt lat="47.16049" lon="-1.68581">
        <ele>24.6</ele>
        <time>2021-05-15T01:43:57.436Z</time>
      </trkpt>
      <trkpt lat="47.16047" lon="-1.68601">
        <ele>24.6</ele>
        <time>2021-05-15T01:43:59.345Z</time>
      </trkpt>
      <trkpt lat="47.16045" lon="-1.6862">
        <ele>24.6</ele>
        <time>2021-05-15T01:44:01.160Z</time>
      </trkpt>
      <trkpt lat="47.16044" lon="-1.68639">
        <ele>24.6</ele>
        <time>2021-05-15T01:44:02.960Z</time>
      </trkpt>
      <trkpt lat="47.16044" lon="-1.68658">
        <ele>24.6</ele>
        <time>2021-05-15T01:44:06.784Z</time>
      </trkpt>
      <trkpt lat="47.16044" lon="-1.68675">
        <ele>24.5</ele>
        <time>2021-05-15T01:44:08.389Z</time>
      </trkpt>
      <trkpt lat="47.16044" lon="-1.68693">
        <ele>24.3</ele>
        <time>2021-05-15T01:44:10.089Z</time>
      </trkpt>
      <trkpt lat="47.16046" lon="-1.68712">
        <ele>24.1</ele>
        <time>2021-05-15T01:44:11.904Z</time>
      </trkpt>
      <trkpt lat="47.16048" lon="-1.6873">
        <ele>24</ele>
        <time>2021-05-15T01:44:13.627Z</time>
      </trkpt>
      <trkpt lat="47.16051" lon="-1.68747">
        <ele>23.9</ele>
        <time>2021-05-15T01:44:17.350Z</time>
      </trkpt>
      <trkpt lat="47.16055" lon="-1.68764">
        <ele>23.8</ele>
        <time>2021-05-15T01:44:19.048Z</time>
      </trkpt>
      <trkpt lat="47.1606" lon="-1.68781">
        <ele>23.8</ele>
        <time>2021-05-15T01:44:20.798Z</time>
      </trkpt>
      <trkpt lat="47.16064" lon="-1.68798">
        <ele>23.7</ele>
        <time>2021-05-15T01:44:24.548Z</time>
      </trkpt>
      <trkpt lat="47.16069" lon="-1.68815">
        <ele>23.7</ele>
        <time>2021-05-15T01:44:26.297Z</time>
      </trkpt>
      <trkpt lat="47.16074" lon="-1.68831">
        <ele>23.7</ele>
        <time>2021-05-15T01:44:27.960Z</time>
      </trkpt>
      <trkpt lat="47.16078" lon="-1.68848">
        <ele>23.6</ele>
        <time>2021-05-15T01:44:28.907Z</time>
      </trkpt>
      <trkpt lat="47.16083" lon="-1.68864">
        <ele>23.6</ele>
        <time>2021-05-15T01:44:32.633Z</time>
      </trkpt>
      <trkpt lat="47.16088" lon="-1.68881">
        <ele>23.5</ele>
        <time>2021-05-15T01:44:33.607Z</time>
      </trkpt>
      <trkpt lat="47.16093" lon="-1.68897">
        <ele>23.4</ele>
        <time>2021-05-15T01:44:35.270Z</time>
      </trkpt>
      <trkpt lat="47.16098" lon="-1.68914">
        <ele>23.4</ele>
        <time>2021-05-15T01:44:36.244Z</time>
      </trkpt>
      <trkpt lat="47.16103" lon="-1.68932">
        <ele>23.8</ele>
        <time>2021-05-15T01:44:38.080Z</time>
      </trkpt>
      <trkpt lat="47.16108" lon="-1.6895">
        <ele>24.3</ele>
        <time>2021-05-15T01:44:39.917Z</time>
      </trkpt>
      <trkpt lat="47.16114" lon="-1.68969">
        <ele>24.8</ele>
        <time>2021-05-15T01:44:41.019Z</time>
      </trkpt>
      <trkpt lat="47.16119" lon="-1.68988">
        <ele>25.2</ele>
        <time>2021-05-15T01:44:42.943Z</time>
      </trkpt>
      <trkpt lat="47.16125" lon="-1.69007">
        <ele>25.4</ele>
        <time>2021-05-15T01:44:44.045Z</time>
      </trkpt>
      <trkpt lat="47.1613" lon="-1.69027">
        <ele>25.1</ele>
        <time>2021-05-15T01:44:46.057Z</time>
      </trkpt>
      <trkpt lat="47.16134" lon="-1.69049">
        <ele>24.7</ele>
        <time>2021-05-15T01:44:48.207Z</time>
      </trkpt>
      <trkpt lat="47.16138" lon="-1.69071">
        <ele>24.2</ele>
        <time>2021-05-15T01:44:49.323Z</time>
      </trkpt>
      <trkpt lat="47.16141" lon="-1.69092">
        <ele>23.9</ele>
        <time>2021-05-15T01:44:51.349Z</time>
      </trkpt>
      <trkpt lat="47.16143" lon="-1.69114">
        <ele>23.5</ele>
        <time>2021-05-15T01:44:53.445Z</time>
      </trkpt>
      <trkpt lat="47.16144" lon="-1.69136">
        <ele>23.2</ele>
        <time>2021-05-15T01:44:54.507Z</time>
      </trkpt>
      <trkpt lat="47.16144" lon="-1.69158">
        <ele>22.9</ele>
        <time>2021-05-15T01:44:56.585Z</time>
      </trkpt>
      <trkpt lat="47.16144" lon="-1.6918">
        <ele>22.5</ele>
        <time>2021-05-15T01:44:58.662Z</time>
      </trkpt>
      <trkpt lat="47.16143" lon="-1.69202">
        <ele>22</ele>
        <time>2021-05-15T01:44:59.725Z</time>
      </trkpt>
      <trkpt lat="47.16142" lon="-1.69224">
        <ele>21.5</ele>
        <time>2021-05-15T01:45:01.807Z</time>
      </trkpt>
      <trkpt lat="47.1614" lon="-1.69246">
        <ele>21.1</ele>
        <time>2021-05-15T01:45:02.880Z</time>
      </trkpt>
      <trkpt lat="47.16138" lon="-1.69266">
        <ele>21.3</ele>
        <time>2021-05-15T01:45:04.789Z</time>
      </trkpt>
      <trkpt lat="47.16135" lon="-1.69288">
        <ele>21.6</ele>
        <time>2021-05-15T01:45:06.908Z</time>
      </trkpt>
      <trkpt lat="47.16132" lon="-1.69308">
        <ele>21.8</ele>
        <time>2021-05-15T01:45:10.853Z</time>
      </trkpt>
      <trkpt lat="47.16129" lon="-1.69327">
        <ele>22</ele>
        <time>2021-05-15T01:45:12.695Z</time>
      </trkpt>
      <trkpt lat="47.16126" lon="-1.69347">
        <ele>22.4</ele>
        <time>2021-05-15T01:45:16.641Z</time>
      </trkpt>
      <trkpt lat="47.16122" lon="-1.69367">
        <ele>22.7</ele>
        <time>2021-05-15T01:45:18.609Z</time>
      </trkpt>
      <trkpt lat="47.1612" lon="-1.69386">
        <ele>23.1</ele>
        <time>2021-05-15T01:45:20.425Z</time>
      </trkpt>
      <trkpt lat="47.16118" lon="-1.69406">
        <ele>23.6</ele>
        <time>2021-05-15T01:45:22.334Z</time>
      </trkpt>
      <trkpt lat="47.16117" lon="-1.69425">
        <ele>23.9</ele>
        <time>2021-05-15T01:45:26.162Z</time>
      </trkpt>
      <trkpt lat="47.16116" lon="-1.69444">
        <ele>24</ele>
        <time>2021-05-15T01:45:27.961Z</time>
      </trkpt>
      <trkpt lat="47.16115" lon="-1.69464">
        <ele>24.1</ele>
        <time>2021-05-15T01:45:29.855Z</time>
      </trkpt>
      <trkpt lat="47.16113" lon="-1.69483">
        <ele>24.2</ele>
        <time>2021-05-15T01:45:33.697Z</time>
      </trkpt>
      <trkpt lat="47.16112" lon="-1.69503">
        <ele>24.4</ele>
        <time>2021-05-15T01:45:35.590Z</time>
      </trkpt>
      <trkpt lat="47.16111" lon="-1.69522">
        <ele>24.5</ele>
        <time>2021-05-15T01:45:37.390Z</time>
      </trkpt>
      <trkpt lat="47.16109" lon="-1.69542">
        <ele>24.7</ele>
        <time>2021-05-15T01:45:39.299Z</time>
      </trkpt>
      <trkpt lat="47.16108" lon="-1.69562">
        <ele>24.8</ele>
        <time>2021-05-15T01:45:41.193Z</time>
      </trkpt>
      <trkpt lat="47.16106" lon="-1.69582">
        <ele>25</ele>
        <time>2021-05-15T01:45:43.101Z</time>
      </trkpt>
      <trkpt lat="47.16105" lon="-1.69602">
        <ele>25.4</ele>
        <time>2021-05-15T01:45:44.995Z</time>
      </trkpt>
      <trkpt lat="47.16104" lon="-1.69623">
        <ele>25.8</ele>
        <time>2021-05-15T01:45:46.983Z</time>
      </trkpt>
      <trkpt lat="47.16103" lon="-1.69642">
        <ele>26.2</ele>
        <time>2021-05-15T01:45:48.783Z</time>
      </trkpt>
      <trkpt lat="47.16102" lon="-1.69661">
        <ele>26.7</ele>
        <time>2021-05-15T01:45:50.582Z</time>
      </trkpt>
      <trkpt lat="47.161" lon="-1.6968">
        <ele>26.9</ele>
        <time>2021-05-15T01:45:52.398Z</time>
      </trkpt>
      <trkpt lat="47.16099" lon="-1.69699">
        <ele>27.1</ele>
        <time>2021-05-15T01:45:54.197Z</time>
      </trkpt>
      <trkpt lat="47.16098" lon="-1.69718">
        <ele>27.3</ele>
        <time>2021-05-15T01:45:55.997Z</time>
      </trkpt>
      <trkpt lat="47.16096" lon="-1.69738">
        <ele>27.6</ele>
        <time>2021-05-15T01:45:57.906Z</time>
      </trkpt>
      <trkpt lat="47.16095" lon="-1.69757">
        <ele>27.7</ele>
        <time>2021-05-15T01:45:59.705Z</time>
      </trkpt>
      <trkpt lat="47.16094" lon="-1.69777">
        <ele>27.7</ele>
        <time>2021-05-15T01:46:01.599Z</time>
      </trkpt>
      <trkpt lat="47.16092" lon="-1.69797">
        <ele>27.8</ele>
        <time>2021-05-15T01:46:03.508Z</time>
      </trkpt>
      <trkpt lat="47.16091" lon="-1.69816">
        <ele>27.8</ele>
        <time>2021-05-15T01:46:05.307Z</time>
      </trkpt>
      <trkpt lat="47.16089" lon="-1.69836">
        <ele>27.8</ele>
        <time>2021-05-15T01:46:09.230Z</time>
      </trkpt>
      <trkpt lat="47.16088" lon="-1.69855">
        <ele>27.1</ele>
        <time>2021-05-15T01:46:11.030Z</time>
      </trkpt>
      <trkpt lat="47.16087" lon="-1.69875">
        <ele>26.5</ele>
        <time>2021-05-15T01:46:12.923Z</time>
      </trkpt>
      <trkpt lat="47.16085" lon="-1.69894">
        <ele>25.8</ele>
        <time>2021-05-15T01:46:13.935Z</time>
      </trkpt>
      <trkpt lat="47.16084" lon="-1.69915">
        <ele>25.1</ele>
        <time>2021-05-15T01:46:17.931Z</time>
      </trkpt>
      <trkpt lat="47.16082" lon="-1.69934">
        <ele>25.1</ele>
        <time>2021-05-15T01:46:18.943Z</time>
      </trkpt>
      <trkpt lat="47.16081" lon="-1.69953">
        <ele>25.1</ele>
        <time>2021-05-15T01:46:20.742Z</time>
      </trkpt>
      <trkpt lat="47.16079" lon="-1.69974">
        <ele>25.2</ele>
        <time>2021-05-15T01:46:22.744Z</time>
      </trkpt>
      <trkpt lat="47.16078" lon="-1.69994">
        <ele>25.3</ele>
        <time>2021-05-15T01:46:24.638Z</time>
      </trkpt>
      <trkpt lat="47.16077" lon="-1.70014">
        <ele>25.4</ele>
        <time>2021-05-15T01:46:26.532Z</time>
      </trkpt>
      <trkpt lat="47.16076" lon="-1.70034">
        <ele>25.7</ele>
        <time>2021-05-15T01:46:28.426Z</time>
      </trkpt>
      <trkpt lat="47.16074" lon="-1.70054">
        <ele>25.9</ele>
        <time>2021-05-15T01:46:30.335Z</time>
      </trkpt>
      <trkpt lat="47.16073" lon="-1.70075">
        <ele>26.1</ele>
        <time>2021-05-15T01:46:32.322Z</time>
      </trkpt>
      <trkpt lat="47.16071" lon="-1.70095">
        <ele>26.2</ele>
        <time>2021-05-15T01:46:34.231Z</time>
      </trkpt>
      <trkpt lat="47.16068" lon="-1.70114">
        <ele>26.4</ele>
        <time>2021-05-15T01:46:36.073Z</time>
      </trkpt>
      <trkpt lat="47.16064" lon="-1.70133">
        <ele>26.6</ele>
        <time>2021-05-15T01:46:37.952Z</time>
      </trkpt>
      <trkpt lat="47.16058" lon="-1.70151">
        <ele>26.6</ele>
        <time>2021-05-15T01:46:39.845Z</time>
      </trkpt>
      <trkpt lat="47.16052" lon="-1.70168">
        <ele>26.6</ele>
        <time>2021-05-15T01:46:43.680Z</time>
      </trkpt>
      <trkpt lat="47.16045" lon="-1.70184">
        <ele>26.4</ele>
        <time>2021-05-15T01:46:45.477Z</time>
      </trkpt>
      <trkpt lat="47.16037" lon="-1.70201">
        <ele>26.3</ele>
        <time>2021-05-15T01:46:47.429Z</time>
      </trkpt>
      <trkpt lat="47.16031" lon="-1.70217">
        <ele>26.1</ele>
        <time>2021-05-15T01:46:49.155Z</time>
      </trkpt>
      <trkpt lat="47.16024" lon="-1.70232">
        <ele>26.1</ele>
        <time>2021-05-15T01:46:50.873Z</time>
      </trkpt>
      <trkpt lat="47.16017" lon="-1.70248">
        <ele>26</ele>
        <time>2021-05-15T01:46:52.669Z</time>
      </trkpt>
      <trkpt lat="47.1601" lon="-1.70262">
        <ele>26.1</ele>
        <time>2021-05-15T01:46:54.311Z</time>
      </trkpt>
      <trkpt lat="47.16003" lon="-1.70278">
        <ele>26.3</ele>
        <time>2021-05-15T01:46:56.107Z</time>
      </trkpt>
      <trkpt lat="47.15997" lon="-1.70293">
        <ele>26.5</ele>
        <time>2021-05-15T01:46:57.751Z</time>
      </trkpt>
      <trkpt lat="47.1599" lon="-1.70309">
        <ele>26.5</ele>
        <time>2021-05-15T01:46:59.547Z</time>
      </trkpt>
      <trkpt lat="47.15982" lon="-1.70326">
        <ele>26.5</ele>
        <time>2021-05-15T01:47:00.635Z</time>
      </trkpt>
      <trkpt lat="47.15975" lon="-1.70341">
        <ele>26.3</ele>
        <time>2021-05-15T01:47:02.353Z</time>
      </trkpt>
      <trkpt lat="47.15968" lon="-1.70357">
        <ele>25.9</ele>
        <time>2021-05-15T01:47:04.150Z</time>
      </trkpt>
      <trkpt lat="47.15961" lon="-1.70373">
        <ele>25.6</ele>
        <time>2021-05-15T01:47:05.946Z</time>
      </trkpt>
      <trkpt lat="47.15954" lon="-1.70389">
        <ele>25.3</ele>
        <time>2021-05-15T01:47:07.743Z</time>
      </trkpt>
      <trkpt lat="47.15947" lon="-1.70406">
        <ele>25.1</ele>
        <time>2021-05-15T01:47:09.620Z</time>
      </trkpt>
      <trkpt lat="47.1594" lon="-1.70421">
        <ele>25</ele>
        <time>2021-05-15T01:47:11.338Z</time>
      </trkpt>
      <trkpt lat="47.15933" lon="-1.70437">
        <ele>24.9</ele>
        <time>2021-05-15T01:47:13.134Z</time>
      </trkpt>
      <trkpt lat="47.15926" lon="-1.70452">
        <ele>24.9</ele>
        <time>2021-05-15T01:47:14.092Z</time>
      </trkpt>
      <trkpt lat="47.15919" lon="-1.70467">
        <ele>25</ele>
        <time>2021-05-15T01:47:15.810Z</time>
      </trkpt>
      <trkpt lat="47.15911" lon="-1.70482">
        <ele>24.9</ele>
        <time>2021-05-15T01:47:19.638Z</time>
      </trkpt>
      <trkpt lat="47.15903" lon="-1.70498">
        <ele>24.7</ele>
        <time>2021-05-15T01:47:21.514Z</time>
      </trkpt>
      <trkpt lat="47.15896" lon="-1.70514">
        <ele>24.4</ele>
        <time>2021-05-15T01:47:23.311Z</time>
      </trkpt>
      <trkpt lat="47.15891" lon="-1.70532">
        <ele>24.2</ele>
        <time>2021-05-15T01:47:25.147Z</time>
      </trkpt>
      <trkpt lat="47.15885" lon="-1.70549">
        <ele>24.1</ele>
        <time>2021-05-15T01:47:26.155Z</time>
      </trkpt>
      <trkpt lat="47.1588" lon="-1.70566">
        <ele>24</ele>
        <time>2021-05-15T01:47:27.904Z</time>
      </trkpt>
      <trkpt lat="47.15875" lon="-1.70584">
        <ele>24</ele>
        <time>2021-05-15T01:47:29.740Z</time>
      </trkpt>
      <trkpt lat="47.1587" lon="-1.70601">
        <ele>23.9</ele>
        <time>2021-05-15T01:47:31.489Z</time>
      </trkpt>
      <trkpt lat="47.15866" lon="-1.70618">
        <ele>23.8</ele>
        <time>2021-05-15T01:47:33.188Z</time>
      </trkpt>
      <trkpt lat="47.1586" lon="-1.70636">
        <ele>23.8</ele>
        <time>2021-05-15T01:47:37.096Z</time>
      </trkpt>
      <trkpt lat="47.15854" lon="-1.70652">
        <ele>23.8</ele>
        <time>2021-05-15T01:47:38.822Z</time>
      </trkpt>
      <trkpt lat="47.15848" lon="-1.70668">
        <ele>23.8</ele>
        <time>2021-05-15T01:47:40.547Z</time>
      </trkpt>
      <trkpt lat="47.15842" lon="-1.70682">
        <ele>24.1</ele>
        <time>2021-05-15T01:47:42.110Z</time>
      </trkpt>
      <trkpt lat="47.15836" lon="-1.70697">
        <ele>24.3</ele>
        <time>2021-05-15T01:47:43.753Z</time>
      </trkpt>
      <trkpt lat="47.15829" lon="-1.70711">
        <ele>24.6</ele>
        <time>2021-05-15T01:47:45.395Z</time>
      </trkpt>
      <trkpt lat="47.15823" lon="-1.70726">
        <ele>24.7</ele>
        <time>2021-05-15T01:47:47.038Z</time>
      </trkpt>
      <trkpt lat="47.15816" lon="-1.7074">
        <ele>24.9</ele>
        <time>2021-05-15T01:47:48.679Z</time>
      </trkpt>
      <trkpt lat="47.15809" lon="-1.70754">
        <ele>25</ele>
        <time>2021-05-15T01:47:52.391Z</time>
      </trkpt>
      <trkpt lat="47.15803" lon="-1.70768">
        <ele>24.9</ele>
        <time>2021-05-15T01:47:53.953Z</time>
      </trkpt>
      <trkpt lat="47.15797" lon="-1.70783">
        <ele>24.9</ele>
        <time>2021-05-15T01:47:55.597Z</time>
      </trkpt>
      <trkpt lat="47.15789" lon="-1.70797">
        <ele>25</ele>
        <time>2021-05-15T01:47:57.324Z</time>
      </trkpt>
      <trkpt lat="47.15783" lon="-1.70811">
        <ele>25.2</ele>
        <time>2021-05-15T01:47:58.887Z</time>
      </trkpt>
      <trkpt lat="47.15776" lon="-1.70824">
        <ele>25.3</ele>
        <time>2021-05-15T01:48:00.453Z</time>
      </trkpt>
      <trkpt lat="47.15769" lon="-1.70838">
        <ele>25.6</ele>
        <time>2021-05-15T01:48:02.094Z</time>
      </trkpt>
      <trkpt lat="47.15762" lon="-1.70851">
        <ele>25.7</ele>
        <time>2021-05-15T01:48:03.660Z</time>
      </trkpt>
      <trkpt lat="47.15756" lon="-1.70864">
        <ele>25.9</ele>
        <time>2021-05-15T01:48:05.143Z</time>
      </trkpt>
      <trkpt lat="47.15748" lon="-1.70878">
        <ele>26</ele>
        <time>2021-05-15T01:48:06.870Z</time>
      </trkpt>
      <trkpt lat="47.15741" lon="-1.7089">
        <ele>25.9</ele>
        <time>2021-05-15T01:48:08.363Z</time>
      </trkpt>
      <trkpt lat="47.15733" lon="-1.70903">
        <ele>25.8</ele>
        <time>2021-05-15T01:48:10.019Z</time>
      </trkpt>
      <trkpt lat="47.15726" lon="-1.70916">
        <ele>25.7</ele>
        <time>2021-05-15T01:48:11.585Z</time>
      </trkpt>
      <trkpt lat="47.15719" lon="-1.70929">
        <ele>25.4</ele>
        <time>2021-05-15T01:48:13.151Z</time>
      </trkpt>
      <trkpt lat="47.15712" lon="-1.70943">
        <ele>25.2</ele>
        <time>2021-05-15T01:48:14.792Z</time>
      </trkpt>
      <trkpt lat="47.15705" lon="-1.70956">
        <ele>25</ele>
        <time>2021-05-15T01:48:15.665Z</time>
      </trkpt>
      <trkpt lat="47.15699" lon="-1.7097">
        <ele>24.9</ele>
        <time>2021-05-15T01:48:19.331Z</time>
      </trkpt>
      <trkpt lat="47.15693" lon="-1.70984">
        <ele>24.8</ele>
        <time>2021-05-15T01:48:20.202Z</time>
      </trkpt>
      <trkpt lat="47.15686" lon="-1.70998">
        <ele>24.8</ele>
        <time>2021-05-15T01:48:21.843Z</time>
      </trkpt>
      <trkpt lat="47.15679" lon="-1.71013">
        <ele>24.7</ele>
        <time>2021-05-15T01:48:23.561Z</time>
      </trkpt>
      <trkpt lat="47.15673" lon="-1.71026">
        <ele>24.6</ele>
        <time>2021-05-15T01:48:25.045Z</time>
      </trkpt>
      <trkpt lat="47.15666" lon="-1.71039">
        <ele>24.5</ele>
        <time>2021-05-15T01:48:26.611Z</time>
      </trkpt>
      <trkpt lat="47.15661" lon="-1.71052">
        <ele>24.4</ele>
        <time>2021-05-15T01:48:28.021Z</time>
      </trkpt>
      <trkpt lat="47.15655" lon="-1.71063">
        <ele>24.3</ele>
        <time>2021-05-15T01:48:29.353Z</time>
      </trkpt>
      <trkpt lat="47.15647" lon="-1.71069">
        <ele>24.4</ele>
        <time>2021-05-15T01:48:33.000Z</time>
      </trkpt>
      <trkpt lat="47.15636" lon="-1.71075">
        <ele>24.4</ele>
        <time>2021-05-15T01:48:33.908Z</time>
      </trkpt>
      <trkpt lat="47.15628" lon="-1.71089">
        <ele>24.5</ele>
        <time>2021-05-15T01:48:35.635Z</time>
      </trkpt>
      <trkpt lat="47.1562" lon="-1.71103">
        <ele>24.7</ele>
        <time>2021-05-15T01:48:37.362Z</time>
      </trkpt>
      <trkpt lat="47.15612" lon="-1.71118">
        <ele>24.8</ele>
        <time>2021-05-15T01:48:39.162Z</time>
      </trkpt>
      <trkpt lat="47.15605" lon="-1.71132">
        <ele>24.9</ele>
        <time>2021-05-15T01:48:40.803Z</time>
      </trkpt>
      <trkpt lat="47.15597" lon="-1.71145">
        <ele>25</ele>
        <time>2021-05-15T01:48:44.524Z</time>
      </trkpt>
      <trkpt lat="47.15589" lon="-1.71158">
        <ele>25</ele>
        <time>2021-05-15T01:48:46.180Z</time>
      </trkpt>
      <trkpt lat="47.15581" lon="-1.71171">
        <ele>25</ele>
        <time>2021-05-15T01:48:47.836Z</time>
      </trkpt>
      <trkpt lat="47.15573" lon="-1.71185">
        <ele>24.9</ele>
        <time>2021-05-15T01:48:49.563Z</time>
      </trkpt>
      <trkpt lat="47.15565" lon="-1.71199">
        <ele>24.8</ele>
        <time>2021-05-15T01:48:51.290Z</time>
      </trkpt>
      <trkpt lat="47.15556" lon="-1.71215">
        <ele>24.7</ele>
        <time>2021-05-15T01:48:52.382Z</time>
      </trkpt>
      <trkpt lat="47.15549" lon="-1.7123">
        <ele>24.6</ele>
        <time>2021-05-15T01:48:56.147Z</time>
      </trkpt>
      <trkpt lat="47.15543" lon="-1.71246">
        <ele>24.5</ele>
        <time>2021-05-15T01:48:57.873Z</time>
      </trkpt>
      <trkpt lat="47.15536" lon="-1.71262">
        <ele>24.5</ele>
        <time>2021-05-15T01:48:59.670Z</time>
      </trkpt>
      <trkpt lat="47.1553" lon="-1.71277">
        <ele>24.6</ele>
        <time>2021-05-15T01:49:01.313Z</time>
      </trkpt>
      <trkpt lat="47.15523" lon="-1.71293">
        <ele>24.6</ele>
        <time>2021-05-15T01:49:03.110Z</time>
      </trkpt>
      <trkpt lat="47.15516" lon="-1.71309">
        <ele>24.8</ele>
        <time>2021-05-15T01:49:04.907Z</time>
      </trkpt>
      <trkpt lat="47.15508" lon="-1.71324">
        <ele>24.9</ele>
        <time>2021-05-15T01:49:08.735Z</time>
      </trkpt>
      <trkpt lat="47.155" lon="-1.71339">
        <ele>25</ele>
        <time>2021-05-15T01:49:09.739Z</time>
      </trkpt>
      <trkpt lat="47.15491" lon="-1.71353">
        <ele>24.8</ele>
        <time>2021-05-15T01:49:11.558Z</time>
      </trkpt>
      <trkpt lat="47.15482" lon="-1.71367">
        <ele>24.6</ele>
        <time>2021-05-15T01:49:15.403Z</time>
      </trkpt>
      <trkpt lat="47.15472" lon="-1.71379">
        <ele>24.3</ele>
        <time>2021-05-15T01:49:17.195Z</time>
      </trkpt>
      <trkpt lat="47.15462" lon="-1.71392">
        <ele>24.1</ele>
        <time>2021-05-15T01:49:19.049Z</time>
      </trkpt>
      <trkpt lat="47.15452" lon="-1.71402">
        <ele>23.8</ele>
        <time>2021-05-15T01:49:19.985Z</time>
      </trkpt>
      <trkpt lat="47.15442" lon="-1.71412">
        <ele>23.6</ele>
        <time>2021-05-15T01:49:21.664Z</time>
      </trkpt>
      <trkpt lat="47.15432" lon="-1.71422">
        <ele>23.3</ele>
        <time>2021-05-15T01:49:23.344Z</time>
      </trkpt>
      <trkpt lat="47.15423" lon="-1.71431">
        <ele>23</ele>
        <time>2021-05-15T01:49:24.855Z</time>
      </trkpt>
      <trkpt lat="47.15413" lon="-1.71441">
        <ele>22.8</ele>
        <time>2021-05-15T01:49:26.535Z</time>
      </trkpt>
      <trkpt lat="47.15402" lon="-1.7145">
        <ele>22.8</ele>
        <time>2021-05-15T01:49:28.283Z</time>
      </trkpt>
      <trkpt lat="47.15391" lon="-1.71458">
        <ele>22.8</ele>
        <time>2021-05-15T01:49:29.233Z</time>
      </trkpt>
      <trkpt lat="47.15381" lon="-1.71467">
        <ele>22.8</ele>
        <time>2021-05-15T01:49:30.861Z</time>
      </trkpt>
      <trkpt lat="47.15371" lon="-1.71475">
        <ele>22.8</ele>
        <time>2021-05-15T01:49:32.442Z</time>
      </trkpt>
      <trkpt lat="47.15361" lon="-1.71485">
        <ele>22.8</ele>
        <time>2021-05-15T01:49:34.121Z</time>
      </trkpt>
      <trkpt lat="47.15351" lon="-1.71495">
        <ele>22.8</ele>
        <time>2021-05-15T01:49:35.057Z</time>
      </trkpt>
      <trkpt lat="47.15341" lon="-1.71506">
        <ele>23</ele>
        <time>2021-05-15T01:49:36.791Z</time>
      </trkpt>
      <trkpt lat="47.15331" lon="-1.71517">
        <ele>23.2</ele>
        <time>2021-05-15T01:49:38.526Z</time>
      </trkpt>
      <trkpt lat="47.15322" lon="-1.71528">
        <ele>23.2</ele>
        <time>2021-05-15T01:49:40.151Z</time>
      </trkpt>
      <trkpt lat="47.15312" lon="-1.71538">
        <ele>23.2</ele>
        <time>2021-05-15T01:49:41.831Z</time>
      </trkpt>
      <trkpt lat="47.15303" lon="-1.71549">
        <ele>23.2</ele>
        <time>2021-05-15T01:49:42.736Z</time>
      </trkpt>
      <trkpt lat="47.15293" lon="-1.71559">
        <ele>23</ele>
        <time>2021-05-15T01:49:44.416Z</time>
      </trkpt>
      <trkpt lat="47.15283" lon="-1.7157">
        <ele>22.8</ele>
        <time>2021-05-15T01:49:46.150Z</time>
      </trkpt>
      <trkpt lat="47.15273" lon="-1.71581">
        <ele>22.6</ele>
        <time>2021-05-15T01:49:47.884Z</time>
      </trkpt>
      <trkpt lat="47.15263" lon="-1.71593">
        <ele>22.6</ele>
        <time>2021-05-15T01:49:49.677Z</time>
      </trkpt>
      <trkpt lat="47.15254" lon="-1.71605">
        <ele>22.6</ele>
        <time>2021-05-15T01:49:51.364Z</time>
      </trkpt>
      <trkpt lat="47.15246" lon="-1.71618">
        <ele>22.8</ele>
        <time>2021-05-15T01:49:52.287Z</time>
      </trkpt>
      <trkpt lat="47.15235" lon="-1.71624">
        <ele>22.9</ele>
        <time>2021-05-15T01:49:53.916Z</time>
      </trkpt>
      <trkpt lat="47.15222" lon="-1.71619">
        <ele>22.7</ele>
        <time>2021-05-15T01:49:54.956Z</time>
      </trkpt>
      <trkpt lat="47.15212" lon="-1.71611">
        <ele>22.5</ele>
        <time>2021-05-15T01:49:56.537Z</time>
      </trkpt>
      <trkpt lat="47.152" lon="-1.71603">
        <ele>22.3</ele>
        <time>2021-05-15T01:49:58.367Z</time>
      </trkpt>
      <trkpt lat="47.15189" lon="-1.71596">
        <ele>22.2</ele>
        <time>2021-05-15T01:50:02.094Z</time>
      </trkpt>
      <trkpt lat="47.15178" lon="-1.71588">
        <ele>22.1</ele>
        <time>2021-05-15T01:50:03.043Z</time>
      </trkpt>
      <trkpt lat="47.15168" lon="-1.7158">
        <ele>22</ele>
        <time>2021-05-15T01:50:06.719Z</time>
      </trkpt>
      <trkpt lat="47.15157" lon="-1.71571">
        <ele>22</ele>
        <time>2021-05-15T01:50:07.693Z</time>
      </trkpt>
      <trkpt lat="47.15146" lon="-1.71562">
        <ele>22</ele>
        <time>2021-05-15T01:50:09.442Z</time>
      </trkpt>
      <trkpt lat="47.15135" lon="-1.71553">
        <ele>22</ele>
        <time>2021-05-15T01:50:11.190Z</time>
      </trkpt>
      <trkpt lat="47.15124" lon="-1.71545">
        <ele>22</ele>
        <time>2021-05-15T01:50:12.894Z</time>
      </trkpt>
      <trkpt lat="47.15113" lon="-1.71535">
        <ele>22</ele>
        <time>2021-05-15T01:50:14.690Z</time>
      </trkpt>
      <trkpt lat="47.15103" lon="-1.71526">
        <ele>22</ele>
        <time>2021-05-15T01:50:16.319Z</time>
      </trkpt>
      <trkpt lat="47.15092" lon="-1.71516">
        <ele>22</ele>
        <time>2021-05-15T01:50:20.144Z</time>
      </trkpt>
      <trkpt lat="47.15082" lon="-1.71506">
        <ele>22</ele>
        <time>2021-05-15T01:50:21.080Z</time>
      </trkpt>
      <trkpt lat="47.15071" lon="-1.71496">
        <ele>22.2</ele>
        <time>2021-05-15T01:50:24.905Z</time>
      </trkpt>
      <trkpt lat="47.15061" lon="-1.71485">
        <ele>22.4</ele>
        <time>2021-05-15T01:50:26.640Z</time>
      </trkpt>
      <trkpt lat="47.15051" lon="-1.71475">
        <ele>22.6</ele>
        <time>2021-05-15T01:50:28.319Z</time>
      </trkpt>
      <trkpt lat="47.15041" lon="-1.71465">
        <ele>22.7</ele>
        <time>2021-05-15T01:50:29.999Z</time>
      </trkpt>
      <trkpt lat="47.15031" lon="-1.71455">
        <ele>22.8</ele>
        <time>2021-05-15T01:50:31.678Z</time>
      </trkpt>
      <trkpt lat="47.15021" lon="-1.71445">
        <ele>22.9</ele>
        <time>2021-05-15T01:50:35.416Z</time>
      </trkpt>
      <trkpt lat="47.15011" lon="-1.71435">
        <ele>23</ele>
        <time>2021-05-15T01:50:37.095Z</time>
      </trkpt>
      <trkpt lat="47.15001" lon="-1.71426">
        <ele>23</ele>
        <time>2021-05-15T01:50:38.723Z</time>
      </trkpt>
      <trkpt lat="47.14991" lon="-1.71416">
        <ele>23.1</ele>
        <time>2021-05-15T01:50:40.403Z</time>
      </trkpt>
      <trkpt lat="47.14981" lon="-1.71406">
        <ele>23.2</ele>
        <time>2021-05-15T01:50:42.082Z</time>
      </trkpt>
      <trkpt lat="47.14971" lon="-1.71396">
        <ele>23.3</ele>
        <time>2021-05-15T01:50:43.762Z</time>
      </trkpt>
      <trkpt lat="47.14961" lon="-1.71386">
        <ele>23.5</ele>
        <time>2021-05-15T01:50:45.442Z</time>
      </trkpt>
      <trkpt lat="47.14951" lon="-1.71375">
        <ele>23.6</ele>
        <time>2021-05-15T01:50:47.176Z</time>
      </trkpt>
      <trkpt lat="47.14941" lon="-1.71365">
        <ele>23.7</ele>
        <time>2021-05-15T01:50:48.856Z</time>
      </trkpt>
      <trkpt lat="47.14932" lon="-1.71354">
        <ele>23.8</ele>
        <time>2021-05-15T01:50:50.481Z</time>
      </trkpt>
      <trkpt lat="47.14923" lon="-1.71343">
        <ele>23.9</ele>
        <time>2021-05-15T01:50:54.183Z</time>
      </trkpt>
      <trkpt lat="47.14914" lon="-1.71332">
        <ele>24.1</ele>
        <time>2021-05-15T01:50:55.808Z</time>
      </trkpt>
      <trkpt lat="47.14905" lon="-1.7132">
        <ele>24.4</ele>
        <time>2021-05-15T01:50:57.495Z</time>
      </trkpt>
      <trkpt lat="47.14896" lon="-1.71308">
        <ele>24.8</ele>
        <time>2021-05-15T01:51:01.238Z</time>
      </trkpt>
      <trkpt lat="47.14886" lon="-1.71298">
        <ele>25.1</ele>
        <time>2021-05-15T01:51:02.917Z</time>
      </trkpt>
      <trkpt lat="47.14876" lon="-1.71288">
        <ele>25.3</ele>
        <time>2021-05-15T01:51:04.597Z</time>
      </trkpt>
      <trkpt lat="47.14866" lon="-1.71279">
        <ele>25.5</ele>
        <time>2021-05-15T01:51:06.225Z</time>
      </trkpt>
      <trkpt lat="47.14856" lon="-1.71268">
        <ele>25.7</ele>
        <time>2021-05-15T01:51:07.960Z</time>
      </trkpt>
      <trkpt lat="47.14848" lon="-1.71253">
        <ele>26</ele>
        <time>2021-05-15T01:51:09.760Z</time>
      </trkpt>
      <trkpt lat="47.14841" lon="-1.71237">
        <ele>26</ele>
        <time>2021-05-15T01:51:11.557Z</time>
      </trkpt>
      <trkpt lat="47.14835" lon="-1.7122">
        <ele>26</ele>
        <time>2021-05-15T01:51:13.366Z</time>
      </trkpt>
      <trkpt lat="47.14829" lon="-1.71204">
        <ele>26</ele>
        <time>2021-05-15T01:51:15.092Z</time>
      </trkpt>
      <trkpt lat="47.14823" lon="-1.71188">
        <ele>26</ele>
        <time>2021-05-15T01:51:16.818Z</time>
      </trkpt>
      <trkpt lat="47.14817" lon="-1.71171">
        <ele>26</ele>
        <time>2021-05-15T01:51:18.627Z</time>
      </trkpt>
      <trkpt lat="47.14811" lon="-1.71154">
        <ele>25.9</ele>
        <time>2021-05-15T01:51:22.463Z</time>
      </trkpt>
      <trkpt lat="47.14804" lon="-1.71138">
        <ele>25.8</ele>
        <time>2021-05-15T01:51:24.260Z</time>
      </trkpt>
      <trkpt lat="47.14797" lon="-1.71122">
        <ele>25.7</ele>
        <time>2021-05-15T01:51:26.057Z</time>
      </trkpt>
      <trkpt lat="47.1479" lon="-1.71106">
        <ele>25.7</ele>
        <time>2021-05-15T01:51:27.854Z</time>
      </trkpt>
      <trkpt lat="47.14783" lon="-1.71091">
        <ele>25.6</ele>
        <time>2021-05-15T01:51:29.572Z</time>
      </trkpt>
      <trkpt lat="47.14777" lon="-1.71075">
        <ele>25.5</ele>
        <time>2021-05-15T01:51:31.298Z</time>
      </trkpt>
      <trkpt lat="47.14771" lon="-1.71059">
        <ele>25.4</ele>
        <time>2021-05-15T01:51:33.023Z</time>
      </trkpt>
      <trkpt lat="47.14766" lon="-1.71041">
        <ele>25.2</ele>
        <time>2021-05-15T01:51:34.860Z</time>
      </trkpt>
      <trkpt lat="47.1476" lon="-1.71025">
        <ele>25.1</ele>
        <time>2021-05-15T01:51:36.586Z</time>
      </trkpt>
      <trkpt lat="47.14756" lon="-1.71008">
        <ele>25</ele>
        <time>2021-05-15T01:51:37.532Z</time>
      </trkpt>
      <trkpt lat="47.14751" lon="-1.70993">
        <ele>25</ele>
        <time>2021-05-15T01:51:39.110Z</time>
      </trkpt>
      <trkpt lat="47.14743" lon="-1.70981">
        <ele>25.1</ele>
        <time>2021-05-15T01:51:40.697Z</time>
      </trkpt>
      <trkpt lat="47.14733" lon="-1.70987">
        <ele>25.4</ele>
        <time>2021-05-15T01:51:42.197Z</time>
      </trkpt>
      <trkpt lat="47.14725" lon="-1.71">
        <ele>25.6</ele>
        <time>2021-05-15T01:51:43.853Z</time>
      </trkpt>
      <trkpt lat="47.14717" lon="-1.71013">
        <ele>25.7</ele>
        <time>2021-05-15T01:51:45.509Z</time>
      </trkpt>
      <trkpt lat="47.14714" lon="-1.7103">
        <ele>25.6</ele>
        <time>2021-05-15T01:51:47.168Z</time>
      </trkpt>
      <trkpt lat="47.14713" lon="-1.71048">
        <ele>25.4</ele>
        <time>2021-05-15T01:51:48.119Z</time>
      </trkpt>
      <trkpt lat="47.14714" lon="-1.71066">
        <ele>25.3</ele>
        <time>2021-05-15T01:51:49.825Z</time>
      </trkpt>
      <trkpt lat="47.14717" lon="-1.71084">
        <ele>25.2</ele>
        <time>2021-05-15T01:51:51.575Z</time>
      </trkpt>
      <trkpt lat="47.14719" lon="-1.71103">
        <ele>25.3</ele>
        <time>2021-05-15T01:51:53.391Z</time>
      </trkpt>
      <trkpt lat="47.14721" lon="-1.71121">
        <ele>25.3</ele>
        <time>2021-05-15T01:51:55.114Z</time>
      </trkpt>
      <trkpt lat="47.14723" lon="-1.7114">
        <ele>25.4</ele>
        <time>2021-05-15T01:51:56.930Z</time>
      </trkpt>
      <trkpt lat="47.14726" lon="-1.71159">
        <ele>25.4</ele>
        <time>2021-05-15T01:51:58.772Z</time>
      </trkpt>
      <trkpt lat="47.14729" lon="-1.71177">
        <ele>25.5</ele>
        <time>2021-05-15T01:52:00.523Z</time>
      </trkpt>
      <trkpt lat="47.14733" lon="-1.71195">
        <ele>25.6</ele>
        <time>2021-05-15T01:52:02.311Z</time>
      </trkpt>
      <trkpt lat="47.14738" lon="-1.71212">
        <ele>25.7</ele>
        <time>2021-05-15T01:52:04.061Z</time>
      </trkpt>
      <trkpt lat="47.14742" lon="-1.7123">
        <ele>25.8</ele>
        <time>2021-05-15T01:52:05.849Z</time>
      </trkpt>
      <trkpt lat="47.14746" lon="-1.71247">
        <ele>25.9</ele>
        <time>2021-05-15T01:52:07.549Z</time>
      </trkpt>
      <trkpt lat="47.14751" lon="-1.71264">
        <ele>26</ele>
        <time>2021-05-15T01:52:09.298Z</time>
      </trkpt>
      <trkpt lat="47.14755" lon="-1.71281">
        <ele>26</ele>
        <time>2021-05-15T01:52:10.997Z</time>
      </trkpt>
      <trkpt lat="47.14759" lon="-1.71298">
        <ele>25.9</ele>
        <time>2021-05-15T01:52:12.696Z</time>
      </trkpt>
      <trkpt lat="47.14763" lon="-1.71315">
        <ele>25.9</ele>
        <time>2021-05-15T01:52:14.395Z</time>
      </trkpt>
      <trkpt lat="47.14766" lon="-1.71333">
        <ele>25.8</ele>
        <time>2021-05-15T01:52:16.146Z</time>
      </trkpt>
      <trkpt lat="47.14769" lon="-1.71351">
        <ele>25.8</ele>
        <time>2021-05-15T01:52:17.896Z</time>
      </trkpt>
      <trkpt lat="47.14772" lon="-1.71369">
        <ele>25.7</ele>
        <time>2021-05-15T01:52:21.685Z</time>
      </trkpt>
      <trkpt lat="47.14774" lon="-1.71387">
        <ele>25.7</ele>
        <time>2021-05-15T01:52:23.408Z</time>
      </trkpt>
      <trkpt lat="47.14777" lon="-1.71404">
        <ele>25.7</ele>
        <time>2021-05-15T01:52:27.131Z</time>
      </trkpt>
      <trkpt lat="47.14779" lon="-1.71422">
        <ele>25.7</ele>
        <time>2021-05-15T01:52:28.854Z</time>
      </trkpt>
      <trkpt lat="47.14782" lon="-1.71439">
        <ele>25.7</ele>
        <time>2021-05-15T01:52:30.513Z</time>
      </trkpt>
      <trkpt lat="47.14784" lon="-1.71457">
        <ele>25.8</ele>
        <time>2021-05-15T01:52:31.473Z</time>
      </trkpt>
      <trkpt lat="47.14787" lon="-1.71475">
        <ele>25.9</ele>
        <time>2021-05-15T01:52:35.262Z</time>
      </trkpt>
      <trkpt lat="47.1479" lon="-1.71494">
        <ele>26</ele>
        <time>2021-05-15T01:52:37.104Z</time>
      </trkpt>
      <trkpt lat="47.14792" lon="-1.71513">
        <ele>26.2</ele>
        <time>2021-05-15T01:52:38.920Z</time>
      </trkpt>
      <trkpt lat="47.14793" lon="-1.71531">
        <ele>26.4</ele>
        <time>2021-05-15T01:52:40.626Z</time>
      </trkpt>
      <trkpt lat="47.14793" lon="-1.71549">
        <ele>26.6</ele>
        <time>2021-05-15T01:52:42.326Z</time>
      </trkpt>
      <trkpt lat="47.14792" lon="-1.71568">
        <ele>26.8</ele>
        <time>2021-05-15T01:52:44.126Z</time>
      </trkpt>
      <trkpt lat="47.1479" lon="-1.71586">
        <ele>27</ele>
        <time>2021-05-15T01:52:45.849Z</time>
      </trkpt>
      <trkpt lat="47.14787" lon="-1.71603">
        <ele>27</ele>
        <time>2021-05-15T01:52:49.572Z</time>
      </trkpt>
      <trkpt lat="47.14785" lon="-1.71621">
        <ele>27</ele>
        <time>2021-05-15T01:52:50.532Z</time>
      </trkpt>
      <trkpt lat="47.14782" lon="-1.71639">
        <ele>27</ele>
        <time>2021-05-15T01:52:52.283Z</time>
      </trkpt>
      <trkpt lat="47.14779" lon="-1.71656">
        <ele>27</ele>
        <time>2021-05-15T01:52:56.006Z</time>
      </trkpt>
      <trkpt lat="47.14777" lon="-1.71674">
        <ele>26.9</ele>
        <time>2021-05-15T01:52:57.729Z</time>
      </trkpt>
      <trkpt lat="47.14774" lon="-1.71691">
        <ele>26.8</ele>
        <time>2021-05-15T01:52:59.387Z</time>
      </trkpt>
      <trkpt lat="47.14771" lon="-1.71709">
        <ele>26.6</ele>
        <time>2021-05-15T01:53:01.138Z</time>
      </trkpt>
      <trkpt lat="47.14768" lon="-1.71727">
        <ele>26.4</ele>
        <time>2021-05-15T01:53:02.888Z</time>
      </trkpt>
      <trkpt lat="47.14765" lon="-1.71744">
        <ele>26.1</ele>
        <time>2021-05-15T01:53:04.547Z</time>
      </trkpt>
      <trkpt lat="47.14761" lon="-1.71761">
        <ele>26</ele>
        <time>2021-05-15T01:53:06.246Z</time>
      </trkpt>
      <trkpt lat="47.14757" lon="-1.71776">
        <ele>26</ele>
        <time>2021-05-15T01:53:09.893Z</time>
      </trkpt>
      <trkpt lat="47.1475" lon="-1.71791">
        <ele>26</ele>
        <time>2021-05-15T01:53:11.612Z</time>
      </trkpt>
      <trkpt lat="47.14741" lon="-1.71803">
        <ele>26</ele>
        <time>2021-05-15T01:53:12.552Z</time>
      </trkpt>
      <trkpt lat="47.14731" lon="-1.71814">
        <ele>26.1</ele>
        <time>2021-05-15T01:53:14.286Z</time>
      </trkpt>
      <trkpt lat="47.14719" lon="-1.71822">
        <ele>26.1</ele>
        <time>2021-05-15T01:53:15.306Z</time>
      </trkpt>
      <trkpt lat="47.14707" lon="-1.71829">
        <ele>26</ele>
        <time>2021-05-15T01:53:17.099Z</time>
      </trkpt>
      <trkpt lat="47.14695" lon="-1.71836">
        <ele>26</ele>
        <time>2021-05-15T01:53:18.892Z</time>
      </trkpt>
      <trkpt lat="47.14683" lon="-1.71841">
        <ele>25.9</ele>
        <time>2021-05-15T01:53:20.624Z</time>
      </trkpt>
      <trkpt lat="47.1467" lon="-1.71847">
        <ele>25.8</ele>
        <time>2021-05-15T01:53:22.516Z</time>
      </trkpt>
      <trkpt lat="47.14658" lon="-1.71852">
        <ele>25.7</ele>
        <time>2021-05-15T01:53:24.248Z</time>
      </trkpt>
      <trkpt lat="47.14645" lon="-1.71855">
        <ele>25.5</ele>
        <time>2021-05-15T01:53:26.076Z</time>
      </trkpt>
      <trkpt lat="47.14632" lon="-1.71856">
        <ele>25.3</ele>
        <time>2021-05-15T01:53:27.884Z</time>
      </trkpt>
      <trkpt lat="47.14619" lon="-1.71856">
        <ele>25.2</ele>
        <time>2021-05-15T01:53:29.689Z</time>
      </trkpt>
      <trkpt lat="47.14606" lon="-1.71853">
        <ele>25</ele>
        <time>2021-05-15T01:53:30.707Z</time>
      </trkpt>
      <trkpt lat="47.14594" lon="-1.7185">
        <ele>24.9</ele>
        <time>2021-05-15T01:53:32.398Z</time>
      </trkpt>
      <trkpt lat="47.14582" lon="-1.71844">
        <ele>24.8</ele>
        <time>2021-05-15T01:53:34.158Z</time>
      </trkpt>
      <trkpt lat="47.1457" lon="-1.71839">
        <ele>24.6</ele>
        <time>2021-05-15T01:53:35.890Z</time>
      </trkpt>
      <trkpt lat="47.14558" lon="-1.71833">
        <ele>24.4</ele>
        <time>2021-05-15T01:53:36.871Z</time>
      </trkpt>
      <trkpt lat="47.14546" lon="-1.71827">
        <ele>24.1</ele>
        <time>2021-05-15T01:53:38.631Z</time>
      </trkpt>
      <trkpt lat="47.14534" lon="-1.71822">
        <ele>23.9</ele>
        <time>2021-05-15T01:53:40.364Z</time>
      </trkpt>
      <trkpt lat="47.14522" lon="-1.71816">
        <ele>23.6</ele>
        <time>2021-05-15T01:53:42.124Z</time>
      </trkpt>
      <trkpt lat="47.14509" lon="-1.7181">
        <ele>23.2</ele>
        <time>2021-05-15T01:53:43.178Z</time>
      </trkpt>
      <trkpt lat="47.14498" lon="-1.71804">
        <ele>23</ele>
        <time>2021-05-15T01:53:44.808Z</time>
      </trkpt>
      <trkpt lat="47.14486" lon="-1.71799">
        <ele>22.8</ele>
        <time>2021-05-15T01:53:46.540Z</time>
      </trkpt>
      <trkpt lat="47.14475" lon="-1.71793">
        <ele>22.7</ele>
        <time>2021-05-15T01:53:48.169Z</time>
      </trkpt>
      <trkpt lat="47.14464" lon="-1.71788">
        <ele>22.6</ele>
        <time>2021-05-15T01:53:49.768Z</time>
      </trkpt>
      <trkpt lat="47.14452" lon="-1.71784">
        <ele>22.4</ele>
        <time>2021-05-15T01:53:51.477Z</time>
      </trkpt>
      <trkpt lat="47.1444" lon="-1.71782">
        <ele>22.3</ele>
        <time>2021-05-15T01:53:53.154Z</time>
      </trkpt>
      <trkpt lat="47.14427" lon="-1.7178">
        <ele>22.1</ele>
        <time>2021-05-15T01:53:54.970Z</time>
      </trkpt>
      <trkpt lat="47.14414" lon="-1.7178">
        <ele>22</ele>
        <time>2021-05-15T01:53:56.775Z</time>
      </trkpt>
      <trkpt lat="47.14402" lon="-1.71782">
        <ele>21.8</ele>
        <time>2021-05-15T01:53:58.452Z</time>
      </trkpt>
      <trkpt lat="47.1439" lon="-1.71784">
        <ele>21.7</ele>
        <time>2021-05-15T01:53:59.387Z</time>
      </trkpt>
      <trkpt lat="47.14378" lon="-1.71787">
        <ele>21.5</ele>
        <time>2021-05-15T01:54:01.077Z</time>
      </trkpt>
      <trkpt lat="47.14366" lon="-1.71791">
        <ele>21.4</ele>
        <time>2021-05-15T01:54:02.029Z</time>
      </trkpt>
      <trkpt lat="47.14354" lon="-1.71795">
        <ele>21.2</ele>
        <time>2021-05-15T01:54:03.738Z</time>
      </trkpt>
      <trkpt lat="47.14342" lon="-1.71799">
        <ele>21.1</ele>
        <time>2021-05-15T01:54:05.447Z</time>
      </trkpt>
      <trkpt lat="47.1433" lon="-1.71803">
        <ele>21</ele>
        <time>2021-05-15T01:54:07.156Z</time>
      </trkpt>
      <trkpt lat="47.14317" lon="-1.71808">
        <ele>20.8</ele>
        <time>2021-05-15T01:54:09.022Z</time>
      </trkpt>
      <trkpt lat="47.14304" lon="-1.71812">
        <ele>20.6</ele>
        <time>2021-05-15T01:54:10.867Z</time>
      </trkpt>
      <trkpt lat="47.14291" lon="-1.71817">
        <ele>20.5</ele>
        <time>2021-05-15T01:54:12.733Z</time>
      </trkpt>
      <trkpt lat="47.14278" lon="-1.71821">
        <ele>20.3</ele>
        <time>2021-05-15T01:54:14.578Z</time>
      </trkpt>
      <trkpt lat="47.14265" lon="-1.71826">
        <ele>20.2</ele>
        <time>2021-05-15T01:54:15.617Z</time>
      </trkpt>
      <trkpt lat="47.14252" lon="-1.7183">
        <ele>20</ele>
        <time>2021-05-15T01:54:17.462Z</time>
      </trkpt>
      <trkpt lat="47.14239" lon="-1.71834">
        <ele>19.7</ele>
        <time>2021-05-15T01:54:19.306Z</time>
      </trkpt>
      <trkpt lat="47.14226" lon="-1.71839">
        <ele>19.3</ele>
        <time>2021-05-15T01:54:21.173Z</time>
      </trkpt>
      <trkpt lat="47.14213" lon="-1.71844">
        <ele>18.9</ele>
        <time>2021-05-15T01:54:23.039Z</time>
      </trkpt>
      <trkpt lat="47.14201" lon="-1.71847">
        <ele>18.6</ele>
        <time>2021-05-15T01:54:24.729Z</time>
      </trkpt>
      <trkpt lat="47.14188" lon="-1.71851">
        <ele>18.2</ele>
        <time>2021-05-15T01:54:25.757Z</time>
      </trkpt>
      <trkpt lat="47.14174" lon="-1.71855">
        <ele>17.9</ele>
        <time>2021-05-15T01:54:27.738Z</time>
      </trkpt>
      <trkpt lat="47.14161" lon="-1.7186">
        <ele>17.6</ele>
        <time>2021-05-15T01:54:29.604Z</time>
      </trkpt>
      <trkpt lat="47.14147" lon="-1.71865">
        <ele>17.2</ele>
        <time>2021-05-15T01:54:30.719Z</time>
      </trkpt>
      <trkpt lat="47.14133" lon="-1.71869">
        <ele>16.8</ele>
        <time>2021-05-15T01:54:31.822Z</time>
      </trkpt>
      <trkpt lat="47.14119" lon="-1.71874">
        <ele>16.4</ele>
        <time>2021-05-15T01:54:32.937Z</time>
      </trkpt>
      <trkpt lat="47.14104" lon="-1.7188">
        <ele>15.8</ele>
        <time>2021-05-15T01:54:35.096Z</time>
      </trkpt>
      <trkpt lat="47.14088" lon="-1.71885">
        <ele>15.3</ele>
        <time>2021-05-15T01:54:36.306Z</time>
      </trkpt>
      <trkpt lat="47.14073" lon="-1.7189">
        <ele>14.7</ele>
        <time>2021-05-15T01:54:37.410Z</time>
      </trkpt>
      <trkpt lat="47.14058" lon="-1.71894">
        <ele>14.3</ele>
        <time>2021-05-15T01:54:38.500Z</time>
      </trkpt>
      <trkpt lat="47.14043" lon="-1.71899">
        <ele>13.8</ele>
        <time>2021-05-15T01:54:40.636Z</time>
      </trkpt>
      <trkpt lat="47.14028" lon="-1.71904">
        <ele>13.5</ele>
        <time>2021-05-15T01:54:41.740Z</time>
      </trkpt>
      <trkpt lat="47.14013" lon="-1.71906">
        <ele>13.2</ele>
        <time>2021-05-15T01:54:42.810Z</time>
      </trkpt>
      <trkpt lat="47.13996" lon="-1.71902">
        <ele>12.9</ele>
        <time>2021-05-15T01:54:44.142Z</time>
      </trkpt>
      <trkpt lat="47.13979" lon="-1.719">
        <ele>12.4</ele>
        <time>2021-05-15T01:54:46.511Z</time>
      </trkpt>
      <trkpt lat="47.13966" lon="-1.71912">
        <ele>12.2</ele>
        <time>2021-05-15T01:54:47.611Z</time>
      </trkpt>
      <trkpt lat="47.13967" lon="-1.71933">
        <ele>12</ele>
        <time>2021-05-15T01:54:49.600Z</time>
      </trkpt>
      <trkpt lat="47.13964" lon="-1.71953">
        <ele>11.7</ele>
        <time>2021-05-15T01:54:51.535Z</time>
      </trkpt>
      <trkpt lat="47.13956" lon="-1.71967">
        <ele>11.3</ele>
        <time>2021-05-15T01:54:55.306Z</time>
      </trkpt>
      <trkpt lat="47.13944" lon="-1.71975">
        <ele>11</ele>
        <time>2021-05-15T01:54:57.136Z</time>
      </trkpt>
      <trkpt lat="47.13932" lon="-1.71982">
        <ele>10.6</ele>
        <time>2021-05-15T01:55:00.959Z</time>
      </trkpt>
      <trkpt lat="47.1392" lon="-1.71987">
        <ele>10.2</ele>
        <time>2021-05-15T01:55:02.691Z</time>
      </trkpt>
      <trkpt lat="47.13909" lon="-1.71994">
        <ele>10.3</ele>
        <time>2021-05-15T01:55:04.356Z</time>
      </trkpt>
      <trkpt lat="47.13898" lon="-1.72">
        <ele>10.7</ele>
        <time>2021-05-15T01:55:08.060Z</time>
      </trkpt>
      <trkpt lat="47.13887" lon="-1.72007">
        <ele>11.2</ele>
        <time>2021-05-15T01:55:09.725Z</time>
      </trkpt>
      <trkpt lat="47.13877" lon="-1.72016">
        <ele>11.6</ele>
        <time>2021-05-15T01:55:11.353Z</time>
      </trkpt>
      <trkpt lat="47.13868" lon="-1.72028">
        <ele>12.1</ele>
        <time>2021-05-15T01:55:13.041Z</time>
      </trkpt>
      <trkpt lat="47.13859" lon="-1.7204">
        <ele>12.6</ele>
        <time>2021-05-15T01:55:16.784Z</time>
      </trkpt>
      <trkpt lat="47.13851" lon="-1.72053">
        <ele>13</ele>
        <time>2021-05-15T01:55:18.440Z</time>
      </trkpt>
      <trkpt lat="47.13844" lon="-1.72066">
        <ele>13.4</ele>
        <time>2021-05-15T01:55:20.006Z</time>
      </trkpt>
      <trkpt lat="47.13836" lon="-1.72078">
        <ele>13.8</ele>
        <time>2021-05-15T01:55:23.686Z</time>
      </trkpt>
      <trkpt lat="47.13829" lon="-1.72091">
        <ele>14.1</ele>
        <time>2021-05-15T01:55:25.252Z</time>
      </trkpt>
      <trkpt lat="47.13821" lon="-1.72103">
        <ele>14.3</ele>
        <time>2021-05-15T01:55:28.931Z</time>
      </trkpt>
      <trkpt lat="47.13813" lon="-1.72115">
        <ele>14.5</ele>
        <time>2021-05-15T01:55:30.519Z</time>
      </trkpt>
      <trkpt lat="47.13806" lon="-1.72128">
        <ele>14.7</ele>
        <time>2021-05-15T01:55:32.085Z</time>
      </trkpt>
      <trkpt lat="47.13798" lon="-1.7214">
        <ele>14.8</ele>
        <time>2021-05-15T01:55:35.764Z</time>
      </trkpt>
      <trkpt lat="47.13791" lon="-1.72152">
        <ele>14.9</ele>
        <time>2021-05-15T01:55:37.258Z</time>
      </trkpt>
      <trkpt lat="47.13784" lon="-1.72165">
        <ele>15</ele>
        <time>2021-05-15T01:55:38.824Z</time>
      </trkpt>
      <trkpt lat="47.13776" lon="-1.72178">
        <ele>15</ele>
        <time>2021-05-15T01:55:42.545Z</time>
      </trkpt>
      <trkpt lat="47.1377" lon="-1.7219">
        <ele>15.1</ele>
        <time>2021-05-15T01:55:43.952Z</time>
      </trkpt>
      <trkpt lat="47.13762" lon="-1.72204">
        <ele>15.1</ele>
        <time>2021-05-15T01:55:47.724Z</time>
      </trkpt>
      <trkpt lat="47.13755" lon="-1.72216">
        <ele>15</ele>
        <time>2021-05-15T01:55:49.218Z</time>
      </trkpt>
      <trkpt lat="47.13749" lon="-1.72229">
        <ele>15</ele>
        <time>2021-05-15T01:55:50.702Z</time>
      </trkpt>
      <trkpt lat="47.13744" lon="-1.72242">
        <ele>15.1</ele>
        <time>2021-05-15T01:55:52.113Z</time>
      </trkpt>
      <trkpt lat="47.1374" lon="-1.72257">
        <ele>15.6</ele>
        <time>2021-05-15T01:55:55.760Z</time>
      </trkpt>
      <trkpt lat="47.13738" lon="-1.72272">
        <ele>16.3</ele>
        <time>2021-05-15T01:55:57.204Z</time>
      </trkpt>
      <trkpt lat="47.13736" lon="-1.72287">
        <ele>17</ele>
        <time>2021-05-15T01:56:00.824Z</time>
      </trkpt>
      <trkpt lat="47.13734" lon="-1.72302">
        <ele>17.6</ele>
        <time>2021-05-15T01:56:02.268Z</time>
      </trkpt>
      <trkpt lat="47.13732" lon="-1.72317">
        <ele>18.3</ele>
        <time>2021-05-15T01:56:05.888Z</time>
      </trkpt>
      <trkpt lat="47.1373" lon="-1.72332">
        <ele>18.9</ele>
        <time>2021-05-15T01:56:07.332Z</time>
      </trkpt>
      <trkpt lat="47.13728" lon="-1.72347">
        <ele>19.3</ele>
        <time>2021-05-15T01:56:10.953Z</time>
      </trkpt>
      <trkpt lat="47.13725" lon="-1.72361">
        <ele>19.7</ele>
        <time>2021-05-15T01:56:12.339Z</time>
      </trkpt>
      <trkpt lat="47.13721" lon="-1.72376">
        <ele>20</ele>
        <time>2021-05-15T01:56:15.986Z</time>
      </trkpt>
      <trkpt lat="47.13718" lon="-1.7239">
        <ele>20.4</ele>
        <time>2021-05-15T01:56:17.373Z</time>
      </trkpt>
      <trkpt lat="47.13714" lon="-1.72404">
        <ele>20.7</ele>
        <time>2021-05-15T01:56:18.807Z</time>
      </trkpt>
      <trkpt lat="47.1371" lon="-1.72418">
        <ele>21</ele>
        <time>2021-05-15T01:56:20.242Z</time>
      </trkpt>
      <trkpt lat="47.13706" lon="-1.72432">
        <ele>21.1</ele>
        <time>2021-05-15T01:56:21.677Z</time>
      </trkpt>
      <trkpt lat="47.13702" lon="-1.72446">
        <ele>21.2</ele>
        <time>2021-05-15T01:56:23.111Z</time>
      </trkpt>
      <trkpt lat="47.13698" lon="-1.7246">
        <ele>21.3</ele>
        <time>2021-05-15T01:56:24.546Z</time>
      </trkpt>
      <trkpt lat="47.13693" lon="-1.72475">
        <ele>21.5</ele>
        <time>2021-05-15T01:56:26.124Z</time>
      </trkpt>
      <trkpt lat="47.1369" lon="-1.7249">
        <ele>21.6</ele>
        <time>2021-05-15T01:56:27.601Z</time>
      </trkpt>
      <trkpt lat="47.13686" lon="-1.72506">
        <ele>21.8</ele>
        <time>2021-05-15T01:56:29.211Z</time>
      </trkpt>
      <trkpt lat="47.13683" lon="-1.72522">
        <ele>21.9</ele>
        <time>2021-05-15T01:56:30.779Z</time>
      </trkpt>
      <trkpt lat="47.13681" lon="-1.72539">
        <ele>22</ele>
        <time>2021-05-15T01:56:32.409Z</time>
      </trkpt>
      <trkpt lat="47.1368" lon="-1.72556">
        <ele>22.1</ele>
        <time>2021-05-15T01:56:34.021Z</time>
      </trkpt>
      <trkpt lat="47.13679" lon="-1.72571">
        <ele>22.1</ele>
        <time>2021-05-15T01:56:35.445Z</time>
      </trkpt>
      <trkpt lat="47.13679" lon="-1.72587">
        <ele>22.2</ele>
        <time>2021-05-15T01:56:36.957Z</time>
      </trkpt>
      <trkpt lat="47.13678" lon="-1.72602">
        <ele>22.3</ele>
        <time>2021-05-15T01:56:38.381Z</time>
      </trkpt>
      <trkpt lat="47.13677" lon="-1.72617">
        <ele>22.4</ele>
        <time>2021-05-15T01:56:39.804Z</time>
      </trkpt>
      <trkpt lat="47.13675" lon="-1.72633">
        <ele>22.6</ele>
        <time>2021-05-15T01:56:43.458Z</time>
      </trkpt>
      <trkpt lat="47.13673" lon="-1.72649">
        <ele>22.7</ele>
        <time>2021-05-15T01:56:44.995Z</time>
      </trkpt>
      <trkpt lat="47.1367" lon="-1.72664">
        <ele>22.9</ele>
        <time>2021-05-15T01:56:46.472Z</time>
      </trkpt>
      <trkpt lat="47.13668" lon="-1.72679">
        <ele>23</ele>
        <time>2021-05-15T01:56:47.916Z</time>
      </trkpt>
      <trkpt lat="47.13665" lon="-1.72695">
        <ele>22.9</ele>
        <time>2021-05-15T01:56:49.484Z</time>
      </trkpt>
      <trkpt lat="47.13664" lon="-1.7271">
        <ele>22.9</ele>
        <time>2021-05-15T01:56:50.908Z</time>
      </trkpt>
      <trkpt lat="47.13663" lon="-1.72724">
        <ele>22.9</ele>
        <time>2021-05-15T01:56:52.238Z</time>
      </trkpt>
      <trkpt lat="47.13661" lon="-1.72739">
        <ele>22.8</ele>
        <time>2021-05-15T01:56:53.682Z</time>
      </trkpt>
      <trkpt lat="47.1366" lon="-1.72755">
        <ele>22.6</ele>
        <time>2021-05-15T01:56:55.200Z</time>
      </trkpt>
      <trkpt lat="47.13659" lon="-1.72771">
        <ele>22.2</ele>
        <time>2021-05-15T01:56:56.718Z</time>
      </trkpt>
      <trkpt lat="47.13658" lon="-1.72787">
        <ele>21.8</ele>
        <time>2021-05-15T01:56:58.236Z</time>
      </trkpt>
      <trkpt lat="47.13657" lon="-1.72802">
        <ele>21.3</ele>
        <time>2021-05-15T01:56:59.029Z</time>
      </trkpt>
      <trkpt lat="47.13655" lon="-1.72819">
        <ele>20.8</ele>
        <time>2021-05-15T01:57:00.659Z</time>
      </trkpt>
      <trkpt lat="47.13654" lon="-1.72835">
        <ele>20.3</ele>
        <time>2021-05-15T01:57:01.505Z</time>
      </trkpt>
      <trkpt lat="47.13653" lon="-1.72852">
        <ele>19.7</ele>
        <time>2021-05-15T01:57:03.117Z</time>
      </trkpt>
      <trkpt lat="47.13651" lon="-1.7287">
        <ele>19</ele>
        <time>2021-05-15T01:57:04.840Z</time>
      </trkpt>
      <trkpt lat="47.13648" lon="-1.7289">
        <ele>18.2</ele>
        <time>2021-05-15T01:57:05.918Z</time>
      </trkpt>
      <trkpt lat="47.13646" lon="-1.72911">
        <ele>17.4</ele>
        <time>2021-05-15T01:57:07.921Z</time>
      </trkpt>
      <trkpt lat="47.13644" lon="-1.72933">
        <ele>16.6</ele>
        <time>2021-05-15T01:57:08.995Z</time>
      </trkpt>
      <trkpt lat="47.13643" lon="-1.72955">
        <ele>15.8</ele>
        <time>2021-05-15T01:57:10.058Z</time>
      </trkpt>
      <trkpt lat="47.13641" lon="-1.72977">
        <ele>14.9</ele>
        <time>2021-05-15T01:57:11.132Z</time>
      </trkpt>
      <trkpt lat="47.13639" lon="-1.73001">
        <ele>14</ele>
        <time>2021-05-15T01:57:12.352Z</time>
      </trkpt>
      <trkpt lat="47.13635" lon="-1.73025">
        <ele>13.6</ele>
        <time>2021-05-15T01:57:13.612Z</time>
      </trkpt>
      <trkpt lat="47.13625" lon="-1.73045">
        <ele>13</ele>
        <time>2021-05-15T01:57:14.881Z</time>
      </trkpt>
      <trkpt lat="47.13612" lon="-1.73058">
        <ele>12.3</ele>
        <time>2021-05-15T01:57:17.064Z</time>
      </trkpt>
      <trkpt lat="47.136" lon="-1.7307">
        <ele>11.8</ele>
        <time>2021-05-15T01:57:18.187Z</time>
      </trkpt>
      <trkpt lat="47.13587" lon="-1.7308">
        <ele>11.2</ele>
        <time>2021-05-15T01:57:20.225Z</time>
      </trkpt>
      <trkpt lat="47.13575" lon="-1.7309">
        <ele>11</ele>
        <time>2021-05-15T01:57:22.141Z</time>
      </trkpt>
      <trkpt lat="47.13565" lon="-1.73102">
        <ele>11.1</ele>
        <time>2021-05-15T01:57:23.933Z</time>
      </trkpt>
      <trkpt lat="47.13554" lon="-1.73113">
        <ele>11</ele>
        <time>2021-05-15T01:57:25.781Z</time>
      </trkpt>
      <trkpt lat="47.13544" lon="-1.73124">
        <ele>10.8</ele>
        <time>2021-05-15T01:57:26.748Z</time>
      </trkpt>
      <trkpt lat="47.13533" lon="-1.73135">
        <ele>10.5</ele>
        <time>2021-05-15T01:57:28.595Z</time>
      </trkpt>
      <trkpt lat="47.13523" lon="-1.73149">
        <ele>10.1</ele>
        <time>2021-05-15T01:57:29.664Z</time>
      </trkpt>
      <trkpt lat="47.13516" lon="-1.73165">
        <ele>9.8</ele>
        <time>2021-05-15T01:57:31.461Z</time>
      </trkpt>
      <trkpt lat="47.13513" lon="-1.73184">
        <ele>9.6</ele>
        <time>2021-05-15T01:57:33.304Z</time>
      </trkpt>
      <trkpt lat="47.1351" lon="-1.73205">
        <ele>9.5</ele>
        <time>2021-05-15T01:57:34.433Z</time>
      </trkpt>
      <trkpt lat="47.13507" lon="-1.73226">
        <ele>9.3</ele>
        <time>2021-05-15T01:57:36.461Z</time>
      </trkpt>
      <trkpt lat="47.13505" lon="-1.73248">
        <ele>9.2</ele>
        <time>2021-05-15T01:57:38.558Z</time>
      </trkpt>
      <trkpt lat="47.13503" lon="-1.73269">
        <ele>9.1</ele>
        <time>2021-05-15T01:57:39.674Z</time>
      </trkpt>
      <trkpt lat="47.13502" lon="-1.7329">
        <ele>9.1</ele>
        <time>2021-05-15T01:57:41.663Z</time>
      </trkpt>
      <trkpt lat="47.13505" lon="-1.73309">
        <ele>9.2</ele>
        <time>2021-05-15T01:57:43.505Z</time>
      </trkpt>
      <trkpt lat="47.1351" lon="-1.73328">
        <ele>9.5</ele>
        <time>2021-05-15T01:57:45.430Z</time>
      </trkpt>
      <trkpt lat="47.13515" lon="-1.73346">
        <ele>9.7</ele>
        <time>2021-05-15T01:57:49.289Z</time>
      </trkpt>
      <trkpt lat="47.1352" lon="-1.73363">
        <ele>9.9</ele>
        <time>2021-05-15T01:57:51.039Z</time>
      </trkpt>
      <trkpt lat="47.13527" lon="-1.7338">
        <ele>10.3</ele>
        <time>2021-05-15T01:57:54.934Z</time>
      </trkpt>
      <trkpt lat="47.13533" lon="-1.73395">
        <ele>10.7</ele>
        <time>2021-05-15T01:57:56.578Z</time>
      </trkpt>
      <trkpt lat="47.13538" lon="-1.73412">
        <ele>11.2</ele>
        <time>2021-05-15T01:57:58.328Z</time>
      </trkpt>
      <trkpt lat="47.13543" lon="-1.73429">
        <ele>11.5</ele>
        <time>2021-05-15T01:58:00.077Z</time>
      </trkpt>
      <trkpt lat="47.13548" lon="-1.73446">
        <ele>11.7</ele>
        <time>2021-05-15T01:58:01.827Z</time>
      </trkpt>
      <trkpt lat="47.13553" lon="-1.73463">
        <ele>12</ele>
        <time>2021-05-15T01:58:03.577Z</time>
      </trkpt>
      <trkpt lat="47.13558" lon="-1.73479">
        <ele>12.4</ele>
        <time>2021-05-15T01:58:07.303Z</time>
      </trkpt>
      <trkpt lat="47.13562" lon="-1.73496">
        <ele>12.7</ele>
        <time>2021-05-15T01:58:09.003Z</time>
      </trkpt>
      <trkpt lat="47.13567" lon="-1.73513">
        <ele>13</ele>
        <time>2021-05-15T01:58:10.752Z</time>
      </trkpt>
      <trkpt lat="47.13572" lon="-1.73531">
        <ele>13.1</ele>
        <time>2021-05-15T01:58:12.589Z</time>
      </trkpt>
      <trkpt lat="47.13577" lon="-1.73548">
        <ele>13.2</ele>
        <time>2021-05-15T01:58:13.564Z</time>
      </trkpt>
      <trkpt lat="47.13582" lon="-1.73565">
        <ele>13.3</ele>
        <time>2021-05-15T01:58:15.314Z</time>
      </trkpt>
      <trkpt lat="47.13589" lon="-1.73582">
        <ele>13.2</ele>
        <time>2021-05-15T01:58:17.191Z</time>
      </trkpt>
      <trkpt lat="47.13595" lon="-1.73599">
        <ele>12.7</ele>
        <time>2021-05-15T01:58:19.001Z</time>
      </trkpt>
      <trkpt lat="47.13602" lon="-1.73616">
        <ele>12.3</ele>
        <time>2021-05-15T01:58:20.878Z</time>
      </trkpt>
      <trkpt lat="47.13608" lon="-1.73634">
        <ele>11.8</ele>
        <time>2021-05-15T01:58:22.772Z</time>
      </trkpt>
      <trkpt lat="47.13614" lon="-1.73651">
        <ele>11.3</ele>
        <time>2021-05-15T01:58:24.581Z</time>
      </trkpt>
      <trkpt lat="47.13619" lon="-1.73669">
        <ele>10.8</ele>
        <time>2021-05-15T01:58:26.418Z</time>
      </trkpt>
      <trkpt lat="47.13626" lon="-1.73688">
        <ele>10.6</ele>
        <time>2021-05-15T01:58:28.459Z</time>
      </trkpt>
      <trkpt lat="47.1363" lon="-1.73707">
        <ele>10.3</ele>
        <time>2021-05-15T01:58:29.506Z</time>
      </trkpt>
      <trkpt lat="47.13634" lon="-1.73727">
        <ele>9.9</ele>
        <time>2021-05-15T01:58:31.476Z</time>
      </trkpt>
      <trkpt lat="47.13636" lon="-1.73747">
        <ele>9.4</ele>
        <time>2021-05-15T01:58:33.386Z</time>
      </trkpt>
      <trkpt lat="47.13639" lon="-1.73769">
        <ele>9.2</ele>
        <time>2021-05-15T01:58:34.477Z</time>
      </trkpt>
      <trkpt lat="47.1364" lon="-1.73793">
        <ele>9</ele>
        <time>2021-05-15T01:58:36.749Z</time>
      </trkpt>
      <trkpt lat="47.13641" lon="-1.73817">
        <ele>8.8</ele>
        <time>2021-05-15T01:58:39.020Z</time>
      </trkpt>
      <trkpt lat="47.13643" lon="-1.7384">
        <ele>8.8</ele>
        <time>2021-05-15T01:58:40.167Z</time>
      </trkpt>
      <trkpt lat="47.13644" lon="-1.73862">
        <ele>8.9</ele>
        <time>2021-05-15T01:58:42.250Z</time>
      </trkpt>
      <trkpt lat="47.13645" lon="-1.73884">
        <ele>9</ele>
        <time>2021-05-15T01:58:46.339Z</time>
      </trkpt>
      <trkpt lat="47.13646" lon="-1.73903">
        <ele>9.2</ele>
        <time>2021-05-15T01:58:50.168Z</time>
      </trkpt>
      <trkpt lat="47.13647" lon="-1.73921">
        <ele>9.5</ele>
        <time>2021-05-15T01:58:51.874Z</time>
      </trkpt>
      <trkpt lat="47.13648" lon="-1.73939">
        <ele>10.2</ele>
        <time>2021-05-15T01:58:55.630Z</time>
      </trkpt>
      <trkpt lat="47.13649" lon="-1.73957">
        <ele>11</ele>
        <time>2021-05-15T01:58:57.336Z</time>
      </trkpt>
      <trkpt lat="47.13649" lon="-1.73975">
        <ele>11.7</ele>
        <time>2021-05-15T01:59:01.088Z</time>
      </trkpt>
      <trkpt lat="47.13649" lon="-1.73993">
        <ele>12.4</ele>
        <time>2021-05-15T01:59:02.789Z</time>
      </trkpt>
      <trkpt lat="47.13647" lon="-1.74012">
        <ele>12.7</ele>
        <time>2021-05-15T01:59:06.631Z</time>
      </trkpt>
      <trkpt lat="47.13645" lon="-1.74031">
        <ele>12.6</ele>
        <time>2021-05-15T01:59:10.473Z</time>
      </trkpt>
      <trkpt lat="47.13643" lon="-1.74049">
        <ele>12.6</ele>
        <time>2021-05-15T01:59:12.196Z</time>
      </trkpt>
      <trkpt lat="47.13642" lon="-1.74068">
        <ele>12.6</ele>
        <time>2021-05-15T01:59:16.025Z</time>
      </trkpt>
      <trkpt lat="47.13642" lon="-1.74088">
        <ele>12.6</ele>
        <time>2021-05-15T01:59:17.915Z</time>
      </trkpt>
      <trkpt lat="47.13642" lon="-1.74107">
        <ele>12.6</ele>
        <time>2021-05-15T01:59:19.710Z</time>
      </trkpt>
      <trkpt lat="47.13644" lon="-1.74126">
        <ele>12.8</ele>
        <time>2021-05-15T01:59:21.526Z</time>
      </trkpt>
      <trkpt lat="47.13647" lon="-1.74145">
        <ele>13.1</ele>
        <time>2021-05-15T01:59:23.369Z</time>
      </trkpt>
      <trkpt lat="47.13651" lon="-1.74163">
        <ele>13.5</ele>
        <time>2021-05-15T01:59:25.158Z</time>
      </trkpt>
      <trkpt lat="47.13655" lon="-1.74181">
        <ele>13.6</ele>
        <time>2021-05-15T01:59:26.947Z</time>
      </trkpt>
      <trkpt lat="47.13659" lon="-1.742">
        <ele>13.5</ele>
        <time>2021-05-15T01:59:28.826Z</time>
      </trkpt>
      <trkpt lat="47.13663" lon="-1.74218">
        <ele>13.4</ele>
        <time>2021-05-15T01:59:30.615Z</time>
      </trkpt>
      <trkpt lat="47.13668" lon="-1.74236">
        <ele>13.4</ele>
        <time>2021-05-15T01:59:31.638Z</time>
      </trkpt>
      <trkpt lat="47.13672" lon="-1.74254">
        <ele>13</ele>
        <time>2021-05-15T01:59:33.427Z</time>
      </trkpt>
      <trkpt lat="47.13677" lon="-1.74271">
        <ele>12.6</ele>
        <time>2021-05-15T01:59:35.177Z</time>
      </trkpt>
      <trkpt lat="47.13684" lon="-1.74289">
        <ele>12.3</ele>
        <time>2021-05-15T01:59:36.268Z</time>
      </trkpt>
      <trkpt lat="47.1369" lon="-1.74307">
        <ele>11.9</ele>
        <time>2021-05-15T01:59:37.323Z</time>
      </trkpt>
      <trkpt lat="47.13694" lon="-1.74327">
        <ele>11.5</ele>
        <time>2021-05-15T01:59:39.293Z</time>
      </trkpt>
      <trkpt lat="47.13695" lon="-1.74348">
        <ele>10.9</ele>
        <time>2021-05-15T01:59:40.401Z</time>
      </trkpt>
      <trkpt lat="47.13696" lon="-1.7437">
        <ele>10.2</ele>
        <time>2021-05-15T01:59:42.484Z</time>
      </trkpt>
      <trkpt lat="47.13696" lon="-1.74393">
        <ele>9.5</ele>
        <time>2021-05-15T01:59:43.616Z</time>
      </trkpt>
      <trkpt lat="47.13697" lon="-1.74416">
        <ele>8.7</ele>
        <time>2021-05-15T01:59:44.753Z</time>
      </trkpt>
      <trkpt lat="47.13697" lon="-1.7444">
        <ele>8</ele>
        <time>2021-05-15T01:59:45.959Z</time>
      </trkpt>
      <trkpt lat="47.1369" lon="-1.74463">
        <ele>7</ele>
        <time>2021-05-15T01:59:47.286Z</time>
      </trkpt>
      <trkpt lat="47.13677" lon="-1.74478">
        <ele>5.7</ele>
        <time>2021-05-15T01:59:49.581Z</time>
      </trkpt>
      <trkpt lat="47.13665" lon="-1.74491">
        <ele>4.4</ele>
        <time>2021-05-15T01:59:50.734Z</time>
      </trkpt>
      <trkpt lat="47.13653" lon="-1.74503">
        <ele>3.8</ele>
        <time>2021-05-15T01:59:54.757Z</time>
      </trkpt>
      <trkpt lat="47.13642" lon="-1.74514">
        <ele>3.5</ele>
        <time>2021-05-15T01:59:56.604Z</time>
      </trkpt>
      <trkpt lat="47.13631" lon="-1.74525">
        <ele>3.2</ele>
        <time>2021-05-15T01:59:58.452Z</time>
      </trkpt>
      <trkpt lat="47.13621" lon="-1.74535">
        <ele>3.1</ele>
        <time>2021-05-15T02:00:00.132Z</time>
      </trkpt>
      <trkpt lat="47.1361" lon="-1.74547">
        <ele>3</ele>
        <time>2021-05-15T02:00:02.034Z</time>
      </trkpt>
      <trkpt lat="47.13598" lon="-1.74559">
        <ele>2.9</ele>
        <time>2021-05-15T02:00:03.157Z</time>
      </trkpt>
      <trkpt lat="47.13586" lon="-1.74572">
        <ele>3</ele>
        <time>2021-05-15T02:00:05.227Z</time>
      </trkpt>
      <trkpt lat="47.13574" lon="-1.74585">
        <ele>3.2</ele>
        <time>2021-05-15T02:00:06.381Z</time>
      </trkpt>
      <trkpt lat="47.13561" lon="-1.74598">
        <ele>3.5</ele>
        <time>2021-05-15T02:00:07.522Z</time>
      </trkpt>
      <trkpt lat="47.13549" lon="-1.74611">
        <ele>4</ele>
        <time>2021-05-15T02:00:09.592Z</time>
      </trkpt>
      <trkpt lat="47.13537" lon="-1.74622">
        <ele>4.7</ele>
        <time>2021-05-15T02:00:11.556Z</time>
      </trkpt>
      <trkpt lat="47.13526" lon="-1.74632">
        <ele>5.4</ele>
        <time>2021-05-15T02:00:13.352Z</time>
      </trkpt>
      <trkpt lat="47.13516" lon="-1.74642">
        <ele>6.2</ele>
        <time>2021-05-15T02:00:15.032Z</time>
      </trkpt>
      <trkpt lat="47.13507" lon="-1.74652">
        <ele>7</ele>
        <time>2021-05-15T02:00:16.599Z</time>
      </trkpt>
      <trkpt lat="47.135" lon="-1.74665">
        <ele>7.9</ele>
        <time>2021-05-15T02:00:20.267Z</time>
      </trkpt>
      <trkpt lat="47.13494" lon="-1.74679">
        <ele>8.4</ele>
        <time>2021-05-15T02:00:21.830Z</time>
      </trkpt>
      <trkpt lat="47.13489" lon="-1.74693">
        <ele>8.8</ele>
        <time>2021-05-15T02:00:23.324Z</time>
      </trkpt>
      <trkpt lat="47.13485" lon="-1.74708">
        <ele>9.1</ele>
        <time>2021-05-15T02:00:26.971Z</time>
      </trkpt>
      <trkpt lat="47.13478" lon="-1.74723">
        <ele>9.6</ele>
        <time>2021-05-15T02:00:30.736Z</time>
      </trkpt>
      <trkpt lat="47.1347" lon="-1.74735">
        <ele>10.2</ele>
        <time>2021-05-15T02:00:34.416Z</time>
      </trkpt>
      <trkpt lat="47.1346" lon="-1.74746">
        <ele>10.8</ele>
        <time>2021-05-15T02:00:38.193Z</time>
      </trkpt>
      <trkpt lat="47.1345" lon="-1.74754">
        <ele>11.4</ele>
        <time>2021-05-15T02:00:39.774Z</time>
      </trkpt>
      <trkpt lat="47.13439" lon="-1.7476">
        <ele>11.9</ele>
        <time>2021-05-15T02:00:41.403Z</time>
      </trkpt>
      <trkpt lat="47.13429" lon="-1.74768">
        <ele>12.4</ele>
        <time>2021-05-15T02:00:45.080Z</time>
      </trkpt>
      <trkpt lat="47.13419" lon="-1.74776">
        <ele>12.9</ele>
        <time>2021-05-15T02:00:45.960Z</time>
      </trkpt>
      <trkpt lat="47.13409" lon="-1.74786">
        <ele>13.2</ele>
        <time>2021-05-15T02:00:49.698Z</time>
      </trkpt>
      <trkpt lat="47.134" lon="-1.74797">
        <ele>13.4</ele>
        <time>2021-05-15T02:00:53.400Z</time>
      </trkpt>
      <trkpt lat="47.13392" lon="-1.74808">
        <ele>13.7</ele>
        <time>2021-05-15T02:00:54.921Z</time>
      </trkpt>
      <trkpt lat="47.13386" lon="-1.7482">
        <ele>14</ele>
        <time>2021-05-15T02:00:58.534Z</time>
      </trkpt>
      <trkpt lat="47.13381" lon="-1.74834">
        <ele>14.3</ele>
        <time>2021-05-15T02:01:00.028Z</time>
      </trkpt>
      <trkpt lat="47.13377" lon="-1.74849">
        <ele>14</ele>
        <time>2021-05-15T02:01:01.550Z</time>
      </trkpt>
      <trkpt lat="47.13374" lon="-1.74864">
        <ele>13.8</ele>
        <time>2021-05-15T02:01:03.028Z</time>
      </trkpt>
      <trkpt lat="47.13371" lon="-1.7488">
        <ele>13.6</ele>
        <time>2021-05-15T02:01:04.596Z</time>
      </trkpt>
      <trkpt lat="47.13366" lon="-1.74894">
        <ele>13.5</ele>
        <time>2021-05-15T02:01:08.231Z</time>
      </trkpt>
      <trkpt lat="47.13361" lon="-1.74909">
        <ele>13.5</ele>
        <time>2021-05-15T02:01:09.809Z</time>
      </trkpt>
      <trkpt lat="47.13356" lon="-1.74923">
        <ele>13.6</ele>
        <time>2021-05-15T02:01:13.445Z</time>
      </trkpt>
      <trkpt lat="47.1335" lon="-1.74936">
        <ele>14</ele>
        <time>2021-05-15T02:01:14.929Z</time>
      </trkpt>
      <trkpt lat="47.13344" lon="-1.74948">
        <ele>14.4</ele>
        <time>2021-05-15T02:01:16.336Z</time>
      </trkpt>
      <trkpt lat="47.13338" lon="-1.74962">
        <ele>14.7</ele>
        <time>2021-05-15T02:01:20.003Z</time>
      </trkpt>
      <trkpt lat="47.13332" lon="-1.74974">
        <ele>15</ele>
        <time>2021-05-15T02:01:21.410Z</time>
      </trkpt>
      <trkpt lat="47.13324" lon="-1.74985">
        <ele>15.2</ele>
        <time>2021-05-15T02:01:22.931Z</time>
      </trkpt>
      <trkpt lat="47.13317" lon="-1.74995">
        <ele>15.4</ele>
        <time>2021-05-15T02:01:23.687Z</time>
      </trkpt>
      <trkpt lat="47.13309" lon="-1.75004">
        <ele>15.6</ele>
        <time>2021-05-15T02:01:25.086Z</time>
      </trkpt>
      <trkpt lat="47.133" lon="-1.75013">
        <ele>15.9</ele>
        <time>2021-05-15T02:01:26.598Z</time>
      </trkpt>
      <trkpt lat="47.13292" lon="-1.7502">
        <ele>16.2</ele>
        <time>2021-05-15T02:01:30.222Z</time>
      </trkpt>
      <trkpt lat="47.13283" lon="-1.75026">
        <ele>16.6</ele>
        <time>2021-05-15T02:01:31.594Z</time>
      </trkpt>
      <trkpt lat="47.13275" lon="-1.75034">
        <ele>17</ele>
        <time>2021-05-15T02:01:35.207Z</time>
      </trkpt>
      <trkpt lat="47.13265" lon="-1.75041">
        <ele>17.4</ele>
        <time>2021-05-15T02:01:36.745Z</time>
      </trkpt>
      <trkpt lat="47.13256" lon="-1.75047">
        <ele>17.9</ele>
        <time>2021-05-15T02:01:38.117Z</time>
      </trkpt>
      <trkpt lat="47.13248" lon="-1.75055">
        <ele>18.4</ele>
        <time>2021-05-15T02:01:39.461Z</time>
      </trkpt>
      <trkpt lat="47.1324" lon="-1.75063">
        <ele>18.7</ele>
        <time>2021-05-15T02:01:43.073Z</time>
      </trkpt>
      <trkpt lat="47.13232" lon="-1.75071">
        <ele>19</ele>
        <time>2021-05-15T02:01:44.417Z</time>
      </trkpt>
      <trkpt lat="47.13223" lon="-1.7508">
        <ele>19.3</ele>
        <time>2021-05-15T02:01:45.929Z</time>
      </trkpt>
      <trkpt lat="47.13216" lon="-1.7509">
        <ele>19.3</ele>
        <time>2021-05-15T02:01:49.540Z</time>
      </trkpt>
      <trkpt lat="47.13209" lon="-1.75101">
        <ele>19.3</ele>
        <time>2021-05-15T02:01:50.964Z</time>
      </trkpt>
      <trkpt lat="47.13202" lon="-1.75112">
        <ele>19.2</ele>
        <time>2021-05-15T02:01:52.387Z</time>
      </trkpt>
      <trkpt lat="47.13196" lon="-1.75123">
        <ele>19.2</ele>
        <time>2021-05-15T02:01:56.001Z</time>
      </trkpt>
      <trkpt lat="47.1319" lon="-1.75135">
        <ele>19.1</ele>
        <time>2021-05-15T02:01:57.408Z</time>
      </trkpt>
      <trkpt lat="47.13183" lon="-1.75147">
        <ele>19</ele>
        <time>2021-05-15T02:01:58.901Z</time>
      </trkpt>
      <trkpt lat="47.13178" lon="-1.7516">
        <ele>18.9</ele>
        <time>2021-05-15T02:02:00.312Z</time>
      </trkpt>
      <trkpt lat="47.13172" lon="-1.75173">
        <ele>18.9</ele>
        <time>2021-05-15T02:02:01.797Z</time>
      </trkpt>
      <trkpt lat="47.13167" lon="-1.75186">
        <ele>18.8</ele>
        <time>2021-05-15T02:02:03.207Z</time>
      </trkpt>
      <trkpt lat="47.13162" lon="-1.752">
        <ele>18.7</ele>
        <time>2021-05-15T02:02:04.701Z</time>
      </trkpt>
      <trkpt lat="47.13159" lon="-1.75213">
        <ele>18.6</ele>
        <time>2021-05-15T02:02:05.998Z</time>
      </trkpt>
      <trkpt lat="47.13156" lon="-1.75228">
        <ele>18.4</ele>
        <time>2021-05-15T02:02:07.476Z</time>
      </trkpt>
      <trkpt lat="47.13153" lon="-1.75243">
        <ele>18.3</ele>
        <time>2021-05-15T02:02:11.105Z</time>
      </trkpt>
      <trkpt lat="47.13151" lon="-1.75258">
        <ele>18.3</ele>
        <time>2021-05-15T02:02:12.550Z</time>
      </trkpt>
      <trkpt lat="47.13149" lon="-1.75273">
        <ele>18.5</ele>
        <time>2021-05-15T02:02:13.994Z</time>
      </trkpt>
      <trkpt lat="47.13148" lon="-1.75288">
        <ele>18.7</ele>
        <time>2021-05-15T02:02:15.418Z</time>
      </trkpt>
      <trkpt lat="47.13145" lon="-1.75302">
        <ele>18.9</ele>
        <time>2021-05-15T02:02:16.805Z</time>
      </trkpt>
      <trkpt lat="47.1314" lon="-1.75317">
        <ele>19.1</ele>
        <time>2021-05-15T02:02:18.383Z</time>
      </trkpt>
      <trkpt lat="47.13137" lon="-1.75332">
        <ele>19.3</ele>
        <time>2021-05-15T02:02:22.013Z</time>
      </trkpt>
      <trkpt lat="47.13133" lon="-1.75347">
        <ele>19.8</ele>
        <time>2021-05-15T02:02:23.535Z</time>
      </trkpt>
      <trkpt lat="47.1313" lon="-1.75361">
        <ele>20.2</ele>
        <time>2021-05-15T02:02:24.922Z</time>
      </trkpt>
      <trkpt lat="47.13127" lon="-1.75376">
        <ele>20.5</ele>
        <time>2021-05-15T02:02:28.552Z</time>
      </trkpt>
      <trkpt lat="47.13125" lon="-1.75391">
        <ele>20.9</ele>
        <time>2021-05-15T02:02:29.996Z</time>
      </trkpt>
      <trkpt lat="47.13121" lon="-1.75403">
        <ele>21.1</ele>
        <time>2021-05-15T02:02:31.258Z</time>
      </trkpt>
      <trkpt lat="47.13117" lon="-1.75415">
        <ele>21.2</ele>
        <time>2021-05-15T02:02:34.896Z</time>
      </trkpt>
      <trkpt lat="47.13116" lon="-1.75429">
        <ele>21.4</ele>
        <time>2021-05-15T02:02:38.511Z</time>
      </trkpt>
      <trkpt lat="47.13116" lon="-1.75445">
        <ele>21.6</ele>
        <time>2021-05-15T02:02:40.022Z</time>
      </trkpt>
      <trkpt lat="47.13111" lon="-1.7546">
        <ele>21.7</ele>
        <time>2021-05-15T02:02:41.601Z</time>
      </trkpt>
      <trkpt lat="47.13109" lon="-1.75476">
        <ele>21.9</ele>
        <time>2021-05-15T02:02:43.138Z</time>
      </trkpt>
      <trkpt lat="47.13108" lon="-1.75492">
        <ele>22.1</ele>
        <time>2021-05-15T02:02:46.783Z</time>
      </trkpt>
      <trkpt lat="47.13106" lon="-1.75508">
        <ele>22.2</ele>
        <time>2021-05-15T02:02:48.320Z</time>
      </trkpt>
      <trkpt lat="47.13103" lon="-1.75523">
        <ele>22.2</ele>
        <time>2021-05-15T02:02:51.950Z</time>
      </trkpt>
      <trkpt lat="47.131" lon="-1.75538">
        <ele>22.3</ele>
        <time>2021-05-15T02:02:53.427Z</time>
      </trkpt>
      <trkpt lat="47.13098" lon="-1.75554">
        <ele>22.5</ele>
        <time>2021-05-15T02:02:54.964Z</time>
      </trkpt>
      <trkpt lat="47.13095" lon="-1.75569">
        <ele>22.8</ele>
        <time>2021-05-15T02:02:58.594Z</time>
      </trkpt>
      <trkpt lat="47.13092" lon="-1.75585">
        <ele>23</ele>
        <time>2021-05-15T02:03:00.162Z</time>
      </trkpt>
      <trkpt lat="47.13089" lon="-1.75601">
        <ele>23.4</ele>
        <time>2021-05-15T02:03:01.730Z</time>
      </trkpt>
      <trkpt lat="47.13086" lon="-1.75617">
        <ele>23.8</ele>
        <time>2021-05-15T02:03:03.298Z</time>
      </trkpt>
      <trkpt lat="47.13083" lon="-1.75632">
        <ele>24.2</ele>
        <time>2021-05-15T02:03:04.775Z</time>
      </trkpt>
      <trkpt lat="47.1308" lon="-1.75648">
        <ele>24.5</ele>
        <time>2021-05-15T02:03:06.343Z</time>
      </trkpt>
      <trkpt lat="47.13077" lon="-1.75664">
        <ele>24.9</ele>
        <time>2021-05-15T02:03:07.217Z</time>
      </trkpt>
      <trkpt lat="47.13074" lon="-1.7568">
        <ele>25.2</ele>
        <time>2021-05-15T02:03:10.886Z</time>
      </trkpt>
      <trkpt lat="47.13071" lon="-1.75696">
        <ele>25.6</ele>
        <time>2021-05-15T02:03:12.454Z</time>
      </trkpt>
      <trkpt lat="47.13067" lon="-1.75711">
        <ele>26</ele>
        <time>2021-05-15T02:03:13.977Z</time>
      </trkpt>
      <trkpt lat="47.13062" lon="-1.75725">
        <ele>26.3</ele>
        <time>2021-05-15T02:03:15.471Z</time>
      </trkpt>
      <trkpt lat="47.13057" lon="-1.75738">
        <ele>26.7</ele>
        <time>2021-05-15T02:03:19.084Z</time>
      </trkpt>
      <trkpt lat="47.1305" lon="-1.75751">
        <ele>27</ele>
        <time>2021-05-15T02:03:20.651Z</time>
      </trkpt>
      <trkpt lat="47.13043" lon="-1.75763">
        <ele>27.2</ele>
        <time>2021-05-15T02:03:22.144Z</time>
      </trkpt>
      <trkpt lat="47.13035" lon="-1.75775">
        <ele>27.3</ele>
        <time>2021-05-15T02:03:25.824Z</time>
      </trkpt>
      <trkpt lat="47.13027" lon="-1.75787">
        <ele>27.6</ele>
        <time>2021-05-15T02:03:26.708Z</time>
      </trkpt>
      <trkpt lat="47.1302" lon="-1.75798">
        <ele>27.9</ele>
        <time>2021-05-15T02:03:28.132Z</time>
      </trkpt>
      <trkpt lat="47.13013" lon="-1.75811">
        <ele>28.2</ele>
        <time>2021-05-15T02:03:31.800Z</time>
      </trkpt>
      <trkpt lat="47.13008" lon="-1.75824">
        <ele>28.6</ele>
        <time>2021-05-15T02:03:33.211Z</time>
      </trkpt>
      <trkpt lat="47.13007" lon="-1.75839">
        <ele>28.8</ele>
        <time>2021-05-15T02:03:34.635Z</time>
      </trkpt>
      <trkpt lat="47.13009" lon="-1.75856">
        <ele>28.8</ele>
        <time>2021-05-15T02:03:36.265Z</time>
      </trkpt>
      <trkpt lat="47.1301" lon="-1.75872">
        <ele>28.8</ele>
        <time>2021-05-15T02:03:37.783Z</time>
      </trkpt>
      <trkpt lat="47.13008" lon="-1.75887">
        <ele>28.9</ele>
        <time>2021-05-15T02:03:41.403Z</time>
      </trkpt>
      <trkpt lat="47.13005" lon="-1.75903">
        <ele>28.9</ele>
        <time>2021-05-15T02:03:42.972Z</time>
      </trkpt>
      <trkpt lat="47.13002" lon="-1.75918">
        <ele>29</ele>
        <time>2021-05-15T02:03:44.449Z</time>
      </trkpt>
      <trkpt lat="47.12999" lon="-1.75933">
        <ele>29.2</ele>
        <time>2021-05-15T02:03:45.926Z</time>
      </trkpt>
      <trkpt lat="47.12996" lon="-1.75948">
        <ele>29.4</ele>
        <time>2021-05-15T02:03:47.403Z</time>
      </trkpt>
      <trkpt lat="47.12993" lon="-1.75964">
        <ele>29.6</ele>
        <time>2021-05-15T02:03:48.971Z</time>
      </trkpt>
      <trkpt lat="47.1299" lon="-1.7598">
        <ele>29.8</ele>
        <time>2021-05-15T02:03:50.540Z</time>
      </trkpt>
      <trkpt lat="47.12988" lon="-1.75996">
        <ele>30</ele>
        <time>2021-05-15T02:03:54.193Z</time>
      </trkpt>
      <trkpt lat="47.12986" lon="-1.76012">
        <ele>30.1</ele>
        <time>2021-05-15T02:03:55.730Z</time>
      </trkpt>
      <trkpt lat="47.12985" lon="-1.76028">
        <ele>30.3</ele>
        <time>2021-05-15T02:03:57.248Z</time>
      </trkpt>
      <trkpt lat="47.12985" lon="-1.76044">
        <ele>30.5</ele>
        <time>2021-05-15T02:03:58.760Z</time>
      </trkpt>
      <trkpt lat="47.12984" lon="-1.76061">
        <ele>30.7</ele>
        <time>2021-05-15T02:04:00.373Z</time>
      </trkpt>
      <trkpt lat="47.12985" lon="-1.76076">
        <ele>30.9</ele>
        <time>2021-05-15T02:04:01.797Z</time>
      </trkpt>
      <trkpt lat="47.12986" lon="-1.76092">
        <ele>31</ele>
        <time>2021-05-15T02:04:03.315Z</time>
      </trkpt>
      <trkpt lat="47.12987" lon="-1.76108">
        <ele>31</ele>
        <time>2021-05-15T02:04:06.960Z</time>
      </trkpt>
      <trkpt lat="47.1299" lon="-1.76124">
        <ele>30.9</ele>
        <time>2021-05-15T02:04:08.528Z</time>
      </trkpt>
      <trkpt lat="47.12993" lon="-1.76139">
        <ele>30.9</ele>
        <time>2021-05-15T02:04:10.005Z</time>
      </trkpt>
      <trkpt lat="47.12997" lon="-1.76155">
        <ele>31</ele>
        <time>2021-05-15T02:04:11.616Z</time>
      </trkpt>
      <trkpt lat="47.13001" lon="-1.76171">
        <ele>30.9</ele>
        <time>2021-05-15T02:04:13.227Z</time>
      </trkpt>
      <trkpt lat="47.13006" lon="-1.76188">
        <ele>30.6</ele>
        <time>2021-05-15T02:04:14.977Z</time>
      </trkpt>
      <trkpt lat="47.13011" lon="-1.76205">
        <ele>30.3</ele>
        <time>2021-05-15T02:04:16.727Z</time>
      </trkpt>
      <trkpt lat="47.13015" lon="-1.76222">
        <ele>30.1</ele>
        <time>2021-05-15T02:04:18.426Z</time>
      </trkpt>
      <trkpt lat="47.13019" lon="-1.76239">
        <ele>29.9</ele>
        <time>2021-05-15T02:04:20.126Z</time>
      </trkpt>
      <trkpt lat="47.13023" lon="-1.76256">
        <ele>29.7</ele>
        <time>2021-05-15T02:04:21.825Z</time>
      </trkpt>
      <trkpt lat="47.13027" lon="-1.76274">
        <ele>29.8</ele>
        <time>2021-05-15T02:04:23.614Z</time>
      </trkpt>
      <trkpt lat="47.1303" lon="-1.76291">
        <ele>29.8</ele>
        <time>2021-05-15T02:04:25.274Z</time>
      </trkpt>
      <trkpt lat="47.13034" lon="-1.76308">
        <ele>29.9</ele>
        <time>2021-05-15T02:04:26.973Z</time>
      </trkpt>
      <trkpt lat="47.13037" lon="-1.76325">
        <ele>30</ele>
        <time>2021-05-15T02:04:28.633Z</time>
      </trkpt>
      <trkpt lat="47.13041" lon="-1.76343">
        <ele>29.9</ele>
        <time>2021-05-15T02:04:29.630Z</time>
      </trkpt>
      <trkpt lat="47.13044" lon="-1.76361">
        <ele>29.6</ele>
        <time>2021-05-15T02:04:31.381Z</time>
      </trkpt>
      <trkpt lat="47.13047" lon="-1.76379">
        <ele>29.4</ele>
        <time>2021-05-15T02:04:35.170Z</time>
      </trkpt>
      <trkpt lat="47.1305" lon="-1.76396">
        <ele>29.1</ele>
        <time>2021-05-15T02:04:36.095Z</time>
      </trkpt>
      <trkpt lat="47.13051" lon="-1.76414">
        <ele>28.8</ele>
        <time>2021-05-15T02:04:37.801Z</time>
      </trkpt>
      <trkpt lat="47.13052" lon="-1.76431">
        <ele>28.8</ele>
        <time>2021-05-15T02:04:39.414Z</time>
      </trkpt>
      <trkpt lat="47.13053" lon="-1.76449">
        <ele>28.9</ele>
        <time>2021-05-15T02:04:41.120Z</time>
      </trkpt>
      <trkpt lat="47.13054" lon="-1.76468">
        <ele>28.9</ele>
        <time>2021-05-15T02:04:42.920Z</time>
      </trkpt>
      <trkpt lat="47.13055" lon="-1.76486">
        <ele>29</ele>
        <time>2021-05-15T02:04:44.627Z</time>
      </trkpt>
      <trkpt lat="47.13056" lon="-1.76505">
        <ele>29.1</ele>
        <time>2021-05-15T02:04:46.427Z</time>
      </trkpt>
      <trkpt lat="47.13057" lon="-1.76524">
        <ele>29.5</ele>
        <time>2021-05-15T02:04:48.228Z</time>
      </trkpt>
      <trkpt lat="47.13059" lon="-1.76543">
        <ele>30</ele>
        <time>2021-05-15T02:04:50.045Z</time>
      </trkpt>
      <trkpt lat="47.13059" lon="-1.76561">
        <ele>30.4</ele>
        <time>2021-05-15T02:04:51.745Z</time>
      </trkpt>
      <trkpt lat="47.13061" lon="-1.76579">
        <ele>30.9</ele>
        <time>2021-05-15T02:04:53.469Z</time>
      </trkpt>
      <trkpt lat="47.13062" lon="-1.76597">
        <ele>31</ele>
        <time>2021-05-15T02:04:55.175Z</time>
      </trkpt>
      <trkpt lat="47.13064" lon="-1.76615">
        <ele>31.1</ele>
        <time>2021-05-15T02:04:56.898Z</time>
      </trkpt>
      <trkpt lat="47.13065" lon="-1.76632">
        <ele>31.1</ele>
        <time>2021-05-15T02:04:58.510Z</time>
      </trkpt>
      <trkpt lat="47.13068" lon="-1.76649">
        <ele>31.1</ele>
        <time>2021-05-15T02:05:00.170Z</time>
      </trkpt>
      <trkpt lat="47.1307" lon="-1.76666">
        <ele>31.2</ele>
        <time>2021-05-15T02:05:01.800Z</time>
      </trkpt>
      <trkpt lat="47.1307" lon="-1.76682">
        <ele>31</ele>
        <time>2021-05-15T02:05:03.312Z</time>
      </trkpt>
      <trkpt lat="47.13069" lon="-1.76699">
        <ele>30.9</ele>
        <time>2021-05-15T02:05:04.924Z</time>
      </trkpt>
      <trkpt lat="47.13067" lon="-1.76715">
        <ele>30.7</ele>
        <time>2021-05-15T02:05:06.461Z</time>
      </trkpt>
      <trkpt lat="47.13065" lon="-1.7673">
        <ele>30.6</ele>
        <time>2021-05-15T02:05:07.905Z</time>
      </trkpt>
      <trkpt lat="47.13063" lon="-1.76746">
        <ele>30.5</ele>
        <time>2021-05-15T02:05:09.442Z</time>
      </trkpt>
      <trkpt lat="47.13061" lon="-1.76762">
        <ele>30.5</ele>
        <time>2021-05-15T02:05:10.979Z</time>
      </trkpt>
      <trkpt lat="47.13059" lon="-1.76778">
        <ele>30.4</ele>
        <time>2021-05-15T02:05:12.516Z</time>
      </trkpt>
      <trkpt lat="47.13057" lon="-1.76795">
        <ele>30.3</ele>
        <time>2021-05-15T02:05:14.146Z</time>
      </trkpt>
      <trkpt lat="47.13055" lon="-1.76811">
        <ele>30.2</ele>
        <time>2021-05-15T02:05:15.683Z</time>
      </trkpt>
      <trkpt lat="47.13053" lon="-1.76827">
        <ele>30.1</ele>
        <time>2021-05-15T02:05:17.221Z</time>
      </trkpt>
      <trkpt lat="47.13052" lon="-1.76842">
        <ele>30</ele>
        <time>2021-05-15T02:05:18.645Z</time>
      </trkpt>
      <trkpt lat="47.13049" lon="-1.76858">
        <ele>30.1</ele>
        <time>2021-05-15T02:05:20.213Z</time>
      </trkpt>
      <trkpt lat="47.13048" lon="-1.76875">
        <ele>30.2</ele>
        <time>2021-05-15T02:05:21.825Z</time>
      </trkpt>
      <trkpt lat="47.13046" lon="-1.76891">
        <ele>30.3</ele>
        <time>2021-05-15T02:05:23.362Z</time>
      </trkpt>
      <trkpt lat="47.13044" lon="-1.76907">
        <ele>30.4</ele>
        <time>2021-05-15T02:05:24.899Z</time>
      </trkpt>
      <trkpt lat="47.13043" lon="-1.76924">
        <ele>30.5</ele>
        <time>2021-05-15T02:05:28.593Z</time>
      </trkpt>
      <trkpt lat="47.13042" lon="-1.7694">
        <ele>30.5</ele>
        <time>2021-05-15T02:05:30.111Z</time>
      </trkpt>
      <trkpt lat="47.13041" lon="-1.76955">
        <ele>30.5</ele>
        <time>2021-05-15T02:05:31.535Z</time>
      </trkpt>
      <trkpt lat="47.1304" lon="-1.76971">
        <ele>30.5</ele>
        <time>2021-05-15T02:05:33.053Z</time>
      </trkpt>
      <trkpt lat="47.13039" lon="-1.76987">
        <ele>30.5</ele>
        <time>2021-05-15T02:05:36.698Z</time>
      </trkpt>
      <trkpt lat="47.13038" lon="-1.77003">
        <ele>30.5</ele>
        <time>2021-05-15T02:05:37.544Z</time>
      </trkpt>
      <trkpt lat="47.13037" lon="-1.77018">
        <ele>30.5</ele>
        <time>2021-05-15T02:05:41.160Z</time>
      </trkpt>
      <trkpt lat="47.13036" lon="-1.77034">
        <ele>30.6</ele>
        <time>2021-05-15T02:05:42.678Z</time>
      </trkpt>
      <trkpt lat="47.13035" lon="-1.77049">
        <ele>30.7</ele>
        <time>2021-05-15T02:05:44.103Z</time>
      </trkpt>
      <trkpt lat="47.13034" lon="-1.77065">
        <ele>30.7</ele>
        <time>2021-05-15T02:05:47.748Z</time>
      </trkpt>
      <trkpt lat="47.13032" lon="-1.77081">
        <ele>30.8</ele>
        <time>2021-05-15T02:05:49.285Z</time>
      </trkpt>
      <trkpt lat="47.1303" lon="-1.77097">
        <ele>30.8</ele>
        <time>2021-05-15T02:05:50.822Z</time>
      </trkpt>
      <trkpt lat="47.13029" lon="-1.77113">
        <ele>30.8</ele>
        <time>2021-05-15T02:05:52.340Z</time>
      </trkpt>
      <trkpt lat="47.13027" lon="-1.77129">
        <ele>30.8</ele>
        <time>2021-05-15T02:05:53.877Z</time>
      </trkpt>
      <trkpt lat="47.13023" lon="-1.77154">
        <ele>30.9</ele>
        <time>2021-05-15T02:05:56.304Z</time>
      </trkpt>
      <trkpt lat="47.13019" lon="-1.77177">
        <ele>31.2</ele>
        <time>2021-05-15T02:05:58.547Z</time>
      </trkpt>
      <trkpt lat="47.13013" lon="-1.772">
        <ele>31.5</ele>
        <time>2021-05-15T02:06:00.874Z</time>
      </trkpt>
      <trkpt lat="47.13009" lon="-1.77215">
        <ele>31.6</ele>
        <time>2021-05-15T02:06:04.521Z</time>
      </trkpt>
      <trkpt lat="47.13005" lon="-1.77231">
        <ele>31.8</ele>
        <time>2021-05-15T02:06:06.132Z</time>
      </trkpt>
      <trkpt lat="47.13" lon="-1.77246">
        <ele>32</ele>
        <time>2021-05-15T02:06:07.710Z</time>
      </trkpt>
      <trkpt lat="47.12996" lon="-1.77262">
        <ele>32.1</ele>
        <time>2021-05-15T02:06:09.321Z</time>
      </trkpt>
      <trkpt lat="47.12991" lon="-1.77277">
        <ele>32.1</ele>
        <time>2021-05-15T02:06:10.899Z</time>
      </trkpt>
      <trkpt lat="47.12986" lon="-1.77293">
        <ele>32.3</ele>
        <time>2021-05-15T02:06:12.563Z</time>
      </trkpt>
      <trkpt lat="47.12981" lon="-1.77308">
        <ele>32.4</ele>
        <time>2021-05-15T02:06:14.141Z</time>
      </trkpt>
      <trkpt lat="47.12975" lon="-1.77323">
        <ele>32.5</ele>
        <time>2021-05-15T02:06:15.785Z</time>
      </trkpt>
      <trkpt lat="47.12969" lon="-1.77338">
        <ele>32.6</ele>
        <time>2021-05-15T02:06:17.429Z</time>
      </trkpt>
      <trkpt lat="47.12963" lon="-1.77353">
        <ele>32.7</ele>
        <time>2021-05-15T02:06:19.073Z</time>
      </trkpt>
      <trkpt lat="47.12957" lon="-1.77368">
        <ele>32.7</ele>
        <time>2021-05-15T02:06:20.717Z</time>
      </trkpt>
      <trkpt lat="47.12951" lon="-1.77383">
        <ele>32.8</ele>
        <time>2021-05-15T02:06:22.361Z</time>
      </trkpt>
      <trkpt lat="47.12945" lon="-1.77397">
        <ele>32.8</ele>
        <time>2021-05-15T02:06:23.925Z</time>
      </trkpt>
      <trkpt lat="47.1294" lon="-1.77411">
        <ele>33</ele>
        <time>2021-05-15T02:06:25.419Z</time>
      </trkpt>
      <trkpt lat="47.12934" lon="-1.77425">
        <ele>33</ele>
        <time>2021-05-15T02:06:26.982Z</time>
      </trkpt>
      <trkpt lat="47.12929" lon="-1.77441">
        <ele>33</ele>
        <time>2021-05-15T02:06:28.646Z</time>
      </trkpt>
      <trkpt lat="47.12923" lon="-1.77456">
        <ele>33</ele>
        <time>2021-05-15T02:06:30.290Z</time>
      </trkpt>
      <trkpt lat="47.12918" lon="-1.77472">
        <ele>33</ele>
        <time>2021-05-15T02:06:31.954Z</time>
      </trkpt>
      <trkpt lat="47.12914" lon="-1.77487">
        <ele>33</ele>
        <time>2021-05-15T02:06:33.476Z</time>
      </trkpt>
      <trkpt lat="47.1291" lon="-1.77502">
        <ele>33</ele>
        <time>2021-05-15T02:06:34.998Z</time>
      </trkpt>
      <trkpt lat="47.12906" lon="-1.77518">
        <ele>33.2</ele>
        <time>2021-05-15T02:06:38.691Z</time>
      </trkpt>
      <trkpt lat="47.129" lon="-1.77542">
        <ele>33.6</ele>
        <time>2021-05-15T02:06:41.107Z</time>
      </trkpt>
      <trkpt lat="47.12896" lon="-1.77558">
        <ele>33.9</ele>
        <time>2021-05-15T02:06:42.718Z</time>
      </trkpt>
      <trkpt lat="47.12892" lon="-1.77574">
        <ele>34.2</ele>
        <time>2021-05-15T02:06:44.328Z</time>
      </trkpt>
      <trkpt lat="47.12887" lon="-1.7759">
        <ele>34.4</ele>
        <time>2021-05-15T02:06:45.992Z</time>
      </trkpt>
      <trkpt lat="47.12883" lon="-1.77606">
        <ele>34.5</ele>
        <time>2021-05-15T02:06:47.603Z</time>
      </trkpt>
      <trkpt lat="47.12879" lon="-1.77622">
        <ele>34.7</ele>
        <time>2021-05-15T02:06:49.213Z</time>
      </trkpt>
      <trkpt lat="47.12875" lon="-1.77639">
        <ele>34.8</ele>
        <time>2021-05-15T02:06:50.913Z</time>
      </trkpt>
      <trkpt lat="47.12869" lon="-1.77664">
        <ele>35.1</ele>
        <time>2021-05-15T02:06:53.418Z</time>
      </trkpt>
      <trkpt lat="47.12865" lon="-1.77681">
        <ele>35.1</ele>
        <time>2021-05-15T02:06:55.117Z</time>
      </trkpt>
      <trkpt lat="47.12861" lon="-1.77698">
        <ele>35</ele>
        <time>2021-05-15T02:06:56.817Z</time>
      </trkpt>
      <trkpt lat="47.12857" lon="-1.77714">
        <ele>34.9</ele>
        <time>2021-05-15T02:06:58.428Z</time>
      </trkpt>
      <trkpt lat="47.12853" lon="-1.7773">
        <ele>34.8</ele>
        <time>2021-05-15T02:07:00.038Z</time>
      </trkpt>
      <trkpt lat="47.12849" lon="-1.77746">
        <ele>34.7</ele>
        <time>2021-05-15T02:07:01.649Z</time>
      </trkpt>
      <trkpt lat="47.12842" lon="-1.77769">
        <ele>34.4</ele>
        <time>2021-05-15T02:07:04.030Z</time>
      </trkpt>
      <trkpt lat="47.12837" lon="-1.77784">
        <ele>34.1</ele>
        <time>2021-05-15T02:07:05.608Z</time>
      </trkpt>
      <trkpt lat="47.12831" lon="-1.77798">
        <ele>33.8</ele>
        <time>2021-05-15T02:07:07.171Z</time>
      </trkpt>
      <trkpt lat="47.12822" lon="-1.7782">
        <ele>33.2</ele>
        <time>2021-05-15T02:07:09.597Z</time>
      </trkpt>
      <trkpt lat="47.12817" lon="-1.77835">
        <ele>32.8</ele>
        <time>2021-05-15T02:07:11.175Z</time>
      </trkpt>
      <trkpt lat="47.12809" lon="-1.77856">
        <ele>32.8</ele>
        <time>2021-05-15T02:07:13.449Z</time>
      </trkpt>
      <trkpt lat="47.12804" lon="-1.77871">
        <ele>32.8</ele>
        <time>2021-05-15T02:07:14.329Z</time>
      </trkpt>
      <trkpt lat="47.12799" lon="-1.77886">
        <ele>32.8</ele>
        <time>2021-05-15T02:07:15.907Z</time>
      </trkpt>
      <trkpt lat="47.12794" lon="-1.77901">
        <ele>32.9</ele>
        <time>2021-05-15T02:07:17.485Z</time>
      </trkpt>
      <trkpt lat="47.1279" lon="-1.77917">
        <ele>33</ele>
        <time>2021-05-15T02:07:19.096Z</time>
      </trkpt>
      <trkpt lat="47.12785" lon="-1.77931">
        <ele>33</ele>
        <time>2021-05-15T02:07:20.590Z</time>
      </trkpt>
      <trkpt lat="47.12781" lon="-1.77946">
        <ele>33.1</ele>
        <time>2021-05-15T02:07:21.438Z</time>
      </trkpt>
      <trkpt lat="47.12777" lon="-1.77962">
        <ele>33.2</ele>
        <time>2021-05-15T02:07:23.049Z</time>
      </trkpt>
      <trkpt lat="47.12771" lon="-1.77984">
        <ele>33.4</ele>
        <time>2021-05-15T02:07:25.289Z</time>
      </trkpt>
      <trkpt lat="47.12766" lon="-1.77999">
        <ele>33.6</ele>
        <time>2021-05-15T02:07:26.867Z</time>
      </trkpt>
      <trkpt lat="47.12761" lon="-1.78015">
        <ele>33.6</ele>
        <time>2021-05-15T02:07:28.531Z</time>
      </trkpt>
      <trkpt lat="47.12756" lon="-1.78031">
        <ele>33.5</ele>
        <time>2021-05-15T02:07:30.194Z</time>
      </trkpt>
      <trkpt lat="47.1275" lon="-1.78047">
        <ele>33.4</ele>
        <time>2021-05-15T02:07:31.920Z</time>
      </trkpt>
      <trkpt lat="47.12742" lon="-1.78061">
        <ele>33.3</ele>
        <time>2021-05-15T02:07:33.648Z</time>
      </trkpt>
      <trkpt lat="47.12734" lon="-1.78073">
        <ele>33.3</ele>
        <time>2021-05-15T02:07:35.235Z</time>
      </trkpt>
      <trkpt lat="47.12725" lon="-1.78086">
        <ele>33.2</ele>
        <time>2021-05-15T02:07:36.988Z</time>
      </trkpt>
      <trkpt lat="47.12716" lon="-1.78099">
        <ele>33</ele>
        <time>2021-05-15T02:07:38.740Z</time>
      </trkpt>
      <trkpt lat="47.12707" lon="-1.78111">
        <ele>32.9</ele>
        <time>2021-05-15T02:07:40.428Z</time>
      </trkpt>
      <trkpt lat="47.12699" lon="-1.78123">
        <ele>32.7</ele>
        <time>2021-05-15T02:07:42.016Z</time>
      </trkpt>
      <trkpt lat="47.12691" lon="-1.78134">
        <ele>32.5</ele>
        <time>2021-05-15T02:07:43.537Z</time>
      </trkpt>
      <trkpt lat="47.12682" lon="-1.78146">
        <ele>32.3</ele>
        <time>2021-05-15T02:07:45.225Z</time>
      </trkpt>
      <trkpt lat="47.12674" lon="-1.78158">
        <ele>32.1</ele>
        <time>2021-05-15T02:07:46.812Z</time>
      </trkpt>
      <trkpt lat="47.12665" lon="-1.78169">
        <ele>32</ele>
        <time>2021-05-15T02:07:47.718Z</time>
      </trkpt>
      <trkpt lat="47.12653" lon="-1.78186">
        <ele>31.9</ele>
        <time>2021-05-15T02:07:50.033Z</time>
      </trkpt>
      <trkpt lat="47.12644" lon="-1.78198">
        <ele>31.9</ele>
        <time>2021-05-15T02:07:51.720Z</time>
      </trkpt>
      <trkpt lat="47.12637" lon="-1.7821">
        <ele>31.8</ele>
        <time>2021-05-15T02:07:53.214Z</time>
      </trkpt>
      <trkpt lat="47.1263" lon="-1.78223">
        <ele>31.8</ele>
        <time>2021-05-15T02:07:54.780Z</time>
      </trkpt>
      <trkpt lat="47.12625" lon="-1.78238">
        <ele>31.6</ele>
        <time>2021-05-15T02:07:56.359Z</time>
      </trkpt>
      <trkpt lat="47.1262" lon="-1.78254">
        <ele>31.5</ele>
        <time>2021-05-15T02:07:58.022Z</time>
      </trkpt>
      <trkpt lat="47.12617" lon="-1.7827">
        <ele>31.4</ele>
        <time>2021-05-15T02:07:59.591Z</time>
      </trkpt>
      <trkpt lat="47.12613" lon="-1.78286">
        <ele>31.3</ele>
        <time>2021-05-15T02:08:01.201Z</time>
      </trkpt>
      <trkpt lat="47.1261" lon="-1.78301">
        <ele>31.3</ele>
        <time>2021-05-15T02:08:02.679Z</time>
      </trkpt>
      <trkpt lat="47.12606" lon="-1.78317">
        <ele>31.3</ele>
        <time>2021-05-15T02:08:04.289Z</time>
      </trkpt>
      <trkpt lat="47.12602" lon="-1.78334">
        <ele>31.3</ele>
        <time>2021-05-15T02:08:05.989Z</time>
      </trkpt>
      <trkpt lat="47.12598" lon="-1.7835">
        <ele>31.3</ele>
        <time>2021-05-15T02:08:06.887Z</time>
      </trkpt>
      <trkpt lat="47.12595" lon="-1.78366">
        <ele>31.2</ele>
        <time>2021-05-15T02:08:08.455Z</time>
      </trkpt>
      <trkpt lat="47.12591" lon="-1.78382">
        <ele>31.2</ele>
        <time>2021-05-15T02:08:10.065Z</time>
      </trkpt>
      <trkpt lat="47.12587" lon="-1.78399">
        <ele>31.1</ele>
        <time>2021-05-15T02:08:11.765Z</time>
      </trkpt>
      <trkpt lat="47.12583" lon="-1.78414">
        <ele>31</ele>
        <time>2021-05-15T02:08:13.288Z</time>
      </trkpt>
      <trkpt lat="47.12579" lon="-1.7843">
        <ele>30.7</ele>
        <time>2021-05-15T02:08:14.185Z</time>
      </trkpt>
      <trkpt lat="47.12576" lon="-1.78446">
        <ele>30.3</ele>
        <time>2021-05-15T02:08:15.753Z</time>
      </trkpt>
      <trkpt lat="47.12572" lon="-1.78462">
        <ele>30</ele>
        <time>2021-05-15T02:08:17.364Z</time>
      </trkpt>
      <trkpt lat="47.12568" lon="-1.78478">
        <ele>29.7</ele>
        <time>2021-05-15T02:08:18.975Z</time>
      </trkpt>
      <trkpt lat="47.12562" lon="-1.78503">
        <ele>29.2</ele>
        <time>2021-05-15T02:08:21.480Z</time>
      </trkpt>
      <trkpt lat="47.12558" lon="-1.78518">
        <ele>29.2</ele>
        <time>2021-05-15T02:08:22.328Z</time>
      </trkpt>
      <trkpt lat="47.12554" lon="-1.78534">
        <ele>29.1</ele>
        <time>2021-05-15T02:08:23.939Z</time>
      </trkpt>
      <trkpt lat="47.12551" lon="-1.7855">
        <ele>29</ele>
        <time>2021-05-15T02:08:25.507Z</time>
      </trkpt>
      <trkpt lat="47.12547" lon="-1.78566">
        <ele>29</ele>
        <time>2021-05-15T02:08:27.118Z</time>
      </trkpt>
      <trkpt lat="47.12543" lon="-1.78583">
        <ele>29</ele>
        <time>2021-05-15T02:08:28.817Z</time>
      </trkpt>
      <trkpt lat="47.12539" lon="-1.78599">
        <ele>28.7</ele>
        <time>2021-05-15T02:08:30.428Z</time>
      </trkpt>
      <trkpt lat="47.12535" lon="-1.78615">
        <ele>28.3</ele>
        <time>2021-05-15T02:08:32.039Z</time>
      </trkpt>
      <trkpt lat="47.1253" lon="-1.78631">
        <ele>28</ele>
        <time>2021-05-15T02:08:33.703Z</time>
      </trkpt>
      <trkpt lat="47.12525" lon="-1.78647">
        <ele>27.6</ele>
        <time>2021-05-15T02:08:34.629Z</time>
      </trkpt>
      <trkpt lat="47.1252" lon="-1.78661">
        <ele>27.2</ele>
        <time>2021-05-15T02:08:36.124Z</time>
      </trkpt>
      <trkpt lat="47.12514" lon="-1.78676">
        <ele>27</ele>
        <time>2021-05-15T02:08:37.768Z</time>
      </trkpt>
      <trkpt lat="47.12508" lon="-1.78691">
        <ele>27</ele>
        <time>2021-05-15T02:08:39.412Z</time>
      </trkpt>
      <trkpt lat="47.12503" lon="-1.78707">
        <ele>27</ele>
        <time>2021-05-15T02:08:41.076Z</time>
      </trkpt>
      <trkpt lat="47.12498" lon="-1.78723">
        <ele>27</ele>
        <time>2021-05-15T02:08:42.739Z</time>
      </trkpt>
      <trkpt lat="47.12494" lon="-1.78739">
        <ele>27</ele>
        <time>2021-05-15T02:08:44.350Z</time>
      </trkpt>
      <trkpt lat="47.1249" lon="-1.78754">
        <ele>27</ele>
        <time>2021-05-15T02:08:45.873Z</time>
      </trkpt>
      <trkpt lat="47.12487" lon="-1.7877">
        <ele>26.8</ele>
        <time>2021-05-15T02:08:47.441Z</time>
      </trkpt>
      <trkpt lat="47.12483" lon="-1.78787">
        <ele>26.6</ele>
        <time>2021-05-15T02:08:49.141Z</time>
      </trkpt>
      <trkpt lat="47.1248" lon="-1.78804">
        <ele>26.5</ele>
        <time>2021-05-15T02:08:50.800Z</time>
      </trkpt>
      <trkpt lat="47.12476" lon="-1.78821">
        <ele>26.4</ele>
        <time>2021-05-15T02:08:52.500Z</time>
      </trkpt>
      <trkpt lat="47.12473" lon="-1.78838">
        <ele>26.3</ele>
        <time>2021-05-15T02:08:54.160Z</time>
      </trkpt>
      <trkpt lat="47.12471" lon="-1.78855">
        <ele>26.3</ele>
        <time>2021-05-15T02:08:55.790Z</time>
      </trkpt>
      <trkpt lat="47.1247" lon="-1.78873">
        <ele>26.4</ele>
        <time>2021-05-15T02:08:57.496Z</time>
      </trkpt>
      <trkpt lat="47.12468" lon="-1.7889">
        <ele>26.4</ele>
        <time>2021-05-15T02:08:59.127Z</time>
      </trkpt>
      <trkpt lat="47.12467" lon="-1.78906">
        <ele>26.4</ele>
        <time>2021-05-15T02:08:59.973Z</time>
      </trkpt>
      <trkpt lat="47.12465" lon="-1.78922">
        <ele>26.4</ele>
        <time>2021-05-15T02:09:01.510Z</time>
      </trkpt>
      <trkpt lat="47.12461" lon="-1.78937">
        <ele>26.5</ele>
        <time>2021-05-15T02:09:03.032Z</time>
      </trkpt>
      <trkpt lat="47.12457" lon="-1.78953">
        <ele>26.5</ele>
        <time>2021-05-15T02:09:06.725Z</time>
      </trkpt>
      <trkpt lat="47.12454" lon="-1.78969">
        <ele>26.6</ele>
        <time>2021-05-15T02:09:08.293Z</time>
      </trkpt>
      <trkpt lat="47.12449" lon="-1.78985">
        <ele>26.6</ele>
        <time>2021-05-15T02:09:09.957Z</time>
      </trkpt>
      <trkpt lat="47.12445" lon="-1.79001">
        <ele>26.7</ele>
        <time>2021-05-15T02:09:11.568Z</time>
      </trkpt>
      <trkpt lat="47.12441" lon="-1.79016">
        <ele>27</ele>
        <time>2021-05-15T02:09:13.090Z</time>
      </trkpt>
      <trkpt lat="47.12438" lon="-1.79032">
        <ele>27.3</ele>
        <time>2021-05-15T02:09:14.659Z</time>
      </trkpt>
      <trkpt lat="47.12434" lon="-1.79049">
        <ele>27.7</ele>
        <time>2021-05-15T02:09:16.358Z</time>
      </trkpt>
      <trkpt lat="47.1243" lon="-1.79066">
        <ele>28.2</ele>
        <time>2021-05-15T02:09:18.058Z</time>
      </trkpt>
      <trkpt lat="47.12427" lon="-1.79082">
        <ele>28.6</ele>
        <time>2021-05-15T02:09:19.626Z</time>
      </trkpt>
      <trkpt lat="47.12425" lon="-1.79097">
        <ele>28.5</ele>
        <time>2021-05-15T02:09:21.071Z</time>
      </trkpt>
      <trkpt lat="47.12422" lon="-1.79112">
        <ele>28.5</ele>
        <time>2021-05-15T02:09:22.548Z</time>
      </trkpt>
      <trkpt lat="47.1242" lon="-1.79128">
        <ele>28.3</ele>
        <time>2021-05-15T02:09:24.085Z</time>
      </trkpt>
      <trkpt lat="47.12419" lon="-1.79144">
        <ele>28.2</ele>
        <time>2021-05-15T02:09:25.604Z</time>
      </trkpt>
      <trkpt lat="47.12419" lon="-1.7916">
        <ele>28</ele>
        <time>2021-05-15T02:09:27.116Z</time>
      </trkpt>
      <trkpt lat="47.1242" lon="-1.79177">
        <ele>27.6</ele>
        <time>2021-05-15T02:09:28.728Z</time>
      </trkpt>
      <trkpt lat="47.12422" lon="-1.79194">
        <ele>27.2</ele>
        <time>2021-05-15T02:09:30.358Z</time>
      </trkpt>
      <trkpt lat="47.12424" lon="-1.79211">
        <ele>26.7</ele>
        <time>2021-05-15T02:09:31.989Z</time>
      </trkpt>
      <trkpt lat="47.12425" lon="-1.79229">
        <ele>26.3</ele>
        <time>2021-05-15T02:09:33.695Z</time>
      </trkpt>
      <trkpt lat="47.12425" lon="-1.79246">
        <ele>25.9</ele>
        <time>2021-05-15T02:09:35.302Z</time>
      </trkpt>
      <trkpt lat="47.12423" lon="-1.79264">
        <ele>26</ele>
        <time>2021-05-15T02:09:37.025Z</time>
      </trkpt>
      <trkpt lat="47.12418" lon="-1.7928">
        <ele>26.3</ele>
        <time>2021-05-15T02:09:38.689Z</time>
      </trkpt>
      <trkpt lat="47.12412" lon="-1.79296">
        <ele>26.6</ele>
        <time>2021-05-15T02:09:40.415Z</time>
      </trkpt>
      <trkpt lat="47.12406" lon="-1.7931">
        <ele>26.8</ele>
        <time>2021-05-15T02:09:41.979Z</time>
      </trkpt>
      <trkpt lat="47.12399" lon="-1.79325">
        <ele>26.9</ele>
        <time>2021-05-15T02:09:43.698Z</time>
      </trkpt>
      <trkpt lat="47.12392" lon="-1.79339">
        <ele>27.1</ele>
        <time>2021-05-15T02:09:45.339Z</time>
      </trkpt>
      <trkpt lat="47.12385" lon="-1.79354">
        <ele>27.4</ele>
        <time>2021-05-15T02:09:47.058Z</time>
      </trkpt>
      <trkpt lat="47.12379" lon="-1.79368">
        <ele>27.8</ele>
        <time>2021-05-15T02:09:50.725Z</time>
      </trkpt>
      <trkpt lat="47.12373" lon="-1.79383">
        <ele>28.2</ele>
        <time>2021-05-15T02:09:52.369Z</time>
      </trkpt>
      <trkpt lat="47.12367" lon="-1.79398">
        <ele>28.7</ele>
        <time>2021-05-15T02:09:54.013Z</time>
      </trkpt>
      <trkpt lat="47.12362" lon="-1.79413">
        <ele>29.2</ele>
        <time>2021-05-15T02:09:55.592Z</time>
      </trkpt>
      <trkpt lat="47.12357" lon="-1.79429">
        <ele>29.1</ele>
        <time>2021-05-15T02:09:57.255Z</time>
      </trkpt>
      <trkpt lat="47.12353" lon="-1.79446">
        <ele>28.8</ele>
        <time>2021-05-15T02:09:58.955Z</time>
      </trkpt>
      <trkpt lat="47.12349" lon="-1.79463">
        <ele>28.5</ele>
        <time>2021-05-15T02:10:00.655Z</time>
      </trkpt>
      <trkpt lat="47.12347" lon="-1.79481">
        <ele>28.1</ele>
        <time>2021-05-15T02:10:02.378Z</time>
      </trkpt>
      <trkpt lat="47.12344" lon="-1.79498">
        <ele>27.8</ele>
        <time>2021-05-15T02:10:04.038Z</time>
      </trkpt>
      <trkpt lat="47.12341" lon="-1.79516">
        <ele>27.6</ele>
        <time>2021-05-15T02:10:05.789Z</time>
      </trkpt>
      <trkpt lat="47.1234" lon="-1.79534">
        <ele>27.5</ele>
        <time>2021-05-15T02:10:07.496Z</time>
      </trkpt>
      <trkpt lat="47.12337" lon="-1.7955">
        <ele>27.3</ele>
        <time>2021-05-15T02:10:09.064Z</time>
      </trkpt>
      <trkpt lat="47.12334" lon="-1.79566">
        <ele>27.2</ele>
        <time>2021-05-15T02:10:10.633Z</time>
      </trkpt>
      <trkpt lat="47.12329" lon="-1.79581">
        <ele>27.1</ele>
        <time>2021-05-15T02:10:12.211Z</time>
      </trkpt>
      <trkpt lat="47.12322" lon="-1.79592">
        <ele>27.1</ele>
        <time>2021-05-15T02:10:15.827Z</time>
      </trkpt>
      <trkpt lat="47.12311" lon="-1.79596">
        <ele>27.3</ele>
        <time>2021-05-15T02:10:16.704Z</time>
      </trkpt>
      <trkpt lat="47.12299" lon="-1.79596">
        <ele>27.4</ele>
        <time>2021-05-15T02:10:18.370Z</time>
      </trkpt>
      <trkpt lat="47.12288" lon="-1.79596">
        <ele>27.5</ele>
        <time>2021-05-15T02:10:19.898Z</time>
      </trkpt>
      <trkpt lat="47.12277" lon="-1.79596">
        <ele>27.7</ele>
        <time>2021-05-15T02:10:21.426Z</time>
      </trkpt>
      <trkpt lat="47.12267" lon="-1.79596">
        <ele>27.8</ele>
        <time>2021-05-15T02:10:22.814Z</time>
      </trkpt>
      <trkpt lat="47.12256" lon="-1.79596">
        <ele>27.9</ele>
        <time>2021-05-15T02:10:24.342Z</time>
      </trkpt>
      <trkpt lat="47.12244" lon="-1.79596">
        <ele>27.9</ele>
        <time>2021-05-15T02:10:26.009Z</time>
      </trkpt>
      <trkpt lat="47.12233" lon="-1.79596">
        <ele>27.6</ele>
        <time>2021-05-15T02:10:27.536Z</time>
      </trkpt>
      <trkpt lat="47.12222" lon="-1.79596">
        <ele>27.3</ele>
        <time>2021-05-15T02:10:29.064Z</time>
      </trkpt>
      <trkpt lat="47.12211" lon="-1.79595">
        <ele>27.1</ele>
        <time>2021-05-15T02:10:30.595Z</time>
      </trkpt>
      <trkpt lat="47.12199" lon="-1.79595">
        <ele>26.8</ele>
        <time>2021-05-15T02:10:34.323Z</time>
      </trkpt>
      <trkpt lat="47.12188" lon="-1.79595">
        <ele>26.5</ele>
        <time>2021-05-15T02:10:35.174Z</time>
      </trkpt>
      <trkpt lat="47.12176" lon="-1.79595">
        <ele>26.2</ele>
        <time>2021-05-15T02:10:36.841Z</time>
      </trkpt>
      <trkpt lat="47.12164" lon="-1.79594">
        <ele>26</ele>
        <time>2021-05-15T02:10:38.510Z</time>
      </trkpt>
      <trkpt lat="47.12153" lon="-1.79595">
        <ele>25.8</ele>
        <time>2021-05-15T02:10:40.041Z</time>
      </trkpt>
      <trkpt lat="47.12141" lon="-1.79596">
        <ele>25.7</ele>
        <time>2021-05-15T02:10:40.971Z</time>
      </trkpt>
      <trkpt lat="47.12129" lon="-1.79596">
        <ele>25.5</ele>
        <time>2021-05-15T02:10:42.637Z</time>
      </trkpt>
      <trkpt lat="47.12117" lon="-1.79598">
        <ele>25.4</ele>
        <time>2021-05-15T02:10:44.314Z</time>
      </trkpt>
      <trkpt lat="47.12105" lon="-1.79599">
        <ele>25.3</ele>
        <time>2021-05-15T02:10:45.984Z</time>
      </trkpt>
      <trkpt lat="47.12093" lon="-1.79604">
        <ele>25.1</ele>
        <time>2021-05-15T02:10:46.949Z</time>
      </trkpt>
      <trkpt lat="47.12082" lon="-1.79613">
        <ele>25</ele>
        <time>2021-05-15T02:10:50.737Z</time>
      </trkpt>
      <trkpt lat="47.12072" lon="-1.79623">
        <ele>24.9</ele>
        <time>2021-05-15T02:10:52.416Z</time>
      </trkpt>
      <trkpt lat="47.12061" lon="-1.79634">
        <ele>24.7</ele>
        <time>2021-05-15T02:10:53.446Z</time>
      </trkpt>
      <trkpt lat="47.12051" lon="-1.79644">
        <ele>24.6</ele>
        <time>2021-05-15T02:10:55.126Z</time>
      </trkpt>
      <trkpt lat="47.12041" lon="-1.79654">
        <ele>24.5</ele>
        <time>2021-05-15T02:10:56.806Z</time>
      </trkpt>
      <trkpt lat="47.12031" lon="-1.79664">
        <ele>24.4</ele>
        <time>2021-05-15T02:10:58.485Z</time>
      </trkpt>
      <trkpt lat="47.12021" lon="-1.79674">
        <ele>24.3</ele>
        <time>2021-05-15T02:11:00.165Z</time>
      </trkpt>
      <trkpt lat="47.12011" lon="-1.79685">
        <ele>24.3</ele>
        <time>2021-05-15T02:11:01.900Z</time>
      </trkpt>
      <trkpt lat="47.12001" lon="-1.79694">
        <ele>24.3</ele>
        <time>2021-05-15T02:11:03.529Z</time>
      </trkpt>
      <trkpt lat="47.11991" lon="-1.79704">
        <ele>24.3</ele>
        <time>2021-05-15T02:11:05.208Z</time>
      </trkpt>
      <trkpt lat="47.11981" lon="-1.79715">
        <ele>24.4</ele>
        <time>2021-05-15T02:11:06.175Z</time>
      </trkpt>
      <trkpt lat="47.11971" lon="-1.79725">
        <ele>24.4</ele>
        <time>2021-05-15T02:11:07.855Z</time>
      </trkpt>
      <trkpt lat="47.11962" lon="-1.79737">
        <ele>24.4</ele>
        <time>2021-05-15T02:11:09.542Z</time>
      </trkpt>
      <trkpt lat="47.11953" lon="-1.79749">
        <ele>24.4</ele>
        <time>2021-05-15T02:11:11.230Z</time>
      </trkpt>
      <trkpt lat="47.11944" lon="-1.79761">
        <ele>24.2</ele>
        <time>2021-05-15T02:11:12.918Z</time>
      </trkpt>
      <trkpt lat="47.11934" lon="-1.79772">
        <ele>24</ele>
        <time>2021-05-15T02:11:14.653Z</time>
      </trkpt>
      <trkpt lat="47.11925" lon="-1.79784">
        <ele>23.7</ele>
        <time>2021-05-15T02:11:15.593Z</time>
      </trkpt>
      <trkpt lat="47.11916" lon="-1.79796">
        <ele>23.4</ele>
        <time>2021-05-15T02:11:17.281Z</time>
      </trkpt>
      <trkpt lat="47.11907" lon="-1.79807">
        <ele>23.2</ele>
        <time>2021-05-15T02:11:20.983Z</time>
      </trkpt>
      <trkpt lat="47.11898" lon="-1.79818">
        <ele>23</ele>
        <time>2021-05-15T02:11:22.608Z</time>
      </trkpt>
      <trkpt lat="47.11888" lon="-1.79829">
        <ele>22.7</ele>
        <time>2021-05-15T02:11:23.575Z</time>
      </trkpt>
      <trkpt lat="47.11879" lon="-1.7984">
        <ele>22.6</ele>
        <time>2021-05-15T02:11:25.201Z</time>
      </trkpt>
      <trkpt lat="47.11869" lon="-1.7985">
        <ele>22.5</ele>
        <time>2021-05-15T02:11:26.881Z</time>
      </trkpt>
      <trkpt lat="47.1186" lon="-1.79861">
        <ele>22.5</ele>
        <time>2021-05-15T02:11:28.506Z</time>
      </trkpt>
      <trkpt lat="47.1185" lon="-1.79871">
        <ele>22.6</ele>
        <time>2021-05-15T02:11:30.186Z</time>
      </trkpt>
      <trkpt lat="47.11841" lon="-1.79882">
        <ele>22.6</ele>
        <time>2021-05-15T02:11:31.812Z</time>
      </trkpt>
      <trkpt lat="47.11832" lon="-1.79892">
        <ele>22.7</ele>
        <time>2021-05-15T02:11:33.379Z</time>
      </trkpt>
      <trkpt lat="47.11822" lon="-1.79903">
        <ele>23</ele>
        <time>2021-05-15T02:11:35.114Z</time>
      </trkpt>
      <trkpt lat="47.11813" lon="-1.79913">
        <ele>23.2</ele>
        <time>2021-05-15T02:11:36.681Z</time>
      </trkpt>
      <trkpt lat="47.11804" lon="-1.79923">
        <ele>23.3</ele>
        <time>2021-05-15T02:11:38.248Z</time>
      </trkpt>
      <trkpt lat="47.11794" lon="-1.79933">
        <ele>23.3</ele>
        <time>2021-05-15T02:11:39.928Z</time>
      </trkpt>
      <trkpt lat="47.11785" lon="-1.79943">
        <ele>23.3</ele>
        <time>2021-05-15T02:11:41.495Z</time>
      </trkpt>
      <trkpt lat="47.11777" lon="-1.79953">
        <ele>23.2</ele>
        <time>2021-05-15T02:11:42.953Z</time>
      </trkpt>
      <trkpt lat="47.11769" lon="-1.79963">
        <ele>23.2</ele>
        <time>2021-05-15T02:11:44.412Z</time>
      </trkpt>
      <trkpt lat="47.11763" lon="-1.79973">
        <ele>23.2</ele>
        <time>2021-05-15T02:11:48.051Z</time>
      </trkpt>
      <trkpt lat="47.11754" lon="-1.79979">
        <ele>23.2</ele>
        <time>2021-05-15T02:11:48.816Z</time>
      </trkpt>
      <trkpt lat="47.11742" lon="-1.79977">
        <ele>23.4</ele>
        <time>2021-05-15T02:11:50.493Z</time>
      </trkpt>
      <trkpt lat="47.11728" lon="-1.79975">
        <ele>23.7</ele>
        <time>2021-05-15T02:11:52.446Z</time>
      </trkpt>
      <trkpt lat="47.11715" lon="-1.79972">
        <ele>23.9</ele>
        <time>2021-05-15T02:11:54.274Z</time>
      </trkpt>
      <trkpt lat="47.11702" lon="-1.79971">
        <ele>24.1</ele>
        <time>2021-05-15T02:11:56.082Z</time>
      </trkpt>
      <trkpt lat="47.11689" lon="-1.79969">
        <ele>24.3</ele>
        <time>2021-05-15T02:11:57.897Z</time>
      </trkpt>
      <trkpt lat="47.11676" lon="-1.79967">
        <ele>24.5</ele>
        <time>2021-05-15T02:11:58.909Z</time>
      </trkpt>
      <trkpt lat="47.11664" lon="-1.79966">
        <ele>24.5</ele>
        <time>2021-05-15T02:12:00.578Z</time>
      </trkpt>
      <trkpt lat="47.11652" lon="-1.79963">
        <ele>24.3</ele>
        <time>2021-05-15T02:12:02.268Z</time>
      </trkpt>
      <trkpt lat="47.11639" lon="-1.79961">
        <ele>24</ele>
        <time>2021-05-15T02:12:04.084Z</time>
      </trkpt>
      <trkpt lat="47.11627" lon="-1.79959">
        <ele>23.8</ele>
        <time>2021-05-15T02:12:05.761Z</time>
      </trkpt>
      <trkpt lat="47.11615" lon="-1.79957">
        <ele>23.6</ele>
        <time>2021-05-15T02:12:06.695Z</time>
      </trkpt>
      <trkpt lat="47.11603" lon="-1.79956">
        <ele>23.3</ele>
        <time>2021-05-15T02:12:08.365Z</time>
      </trkpt>
      <trkpt lat="47.1159" lon="-1.79955">
        <ele>23.1</ele>
        <time>2021-05-15T02:12:10.173Z</time>
      </trkpt>
      <trkpt lat="47.11578" lon="-1.79954">
        <ele>22.9</ele>
        <time>2021-05-15T02:12:11.842Z</time>
      </trkpt>
      <trkpt lat="47.11566" lon="-1.79955">
        <ele>22.7</ele>
        <time>2021-05-15T02:12:13.511Z</time>
      </trkpt>
      <trkpt lat="47.11554" lon="-1.79959">
        <ele>22.5</ele>
        <time>2021-05-15T02:12:15.220Z</time>
      </trkpt>
      <trkpt lat="47.11542" lon="-1.79966">
        <ele>22.3</ele>
        <time>2021-05-15T02:12:17.013Z</time>
      </trkpt>
      <trkpt lat="47.11532" lon="-1.79974">
        <ele>22.2</ele>
        <time>2021-05-15T02:12:17.894Z</time>
      </trkpt>
      <trkpt lat="47.11522" lon="-1.79985">
        <ele>22.1</ele>
        <time>2021-05-15T02:12:21.671Z</time>
      </trkpt>
      <trkpt lat="47.11513" lon="-1.79996">
        <ele>22.1</ele>
        <time>2021-05-15T02:12:23.297Z</time>
      </trkpt>
      <trkpt lat="47.11503" lon="-1.80008">
        <ele>21.9</ele>
        <time>2021-05-15T02:12:25.090Z</time>
      </trkpt>
      <trkpt lat="47.11495" lon="-1.8002">
        <ele>21.6</ele>
        <time>2021-05-15T02:12:25.975Z</time>
      </trkpt>
      <trkpt lat="47.11486" lon="-1.80032">
        <ele>21.3</ele>
        <time>2021-05-15T02:12:27.663Z</time>
      </trkpt>
      <trkpt lat="47.11478" lon="-1.80043">
        <ele>21</ele>
        <time>2021-05-15T02:12:31.309Z</time>
      </trkpt>
      <trkpt lat="47.11469" lon="-1.80054">
        <ele>20.6</ele>
        <time>2021-05-15T02:12:32.215Z</time>
      </trkpt>
      <trkpt lat="47.11461" lon="-1.80066">
        <ele>20.3</ele>
        <time>2021-05-15T02:12:33.803Z</time>
      </trkpt>
      <trkpt lat="47.11452" lon="-1.80077">
        <ele>19.9</ele>
        <time>2021-05-15T02:12:35.429Z</time>
      </trkpt>
      <trkpt lat="47.11443" lon="-1.80088">
        <ele>19.6</ele>
        <time>2021-05-15T02:12:37.054Z</time>
      </trkpt>
      <trkpt lat="47.11434" lon="-1.801">
        <ele>19.5</ele>
        <time>2021-05-15T02:12:38.742Z</time>
      </trkpt>
      <trkpt lat="47.11426" lon="-1.80112">
        <ele>19.3</ele>
        <time>2021-05-15T02:12:40.330Z</time>
      </trkpt>
      <trkpt lat="47.11417" lon="-1.80124">
        <ele>19</ele>
        <time>2021-05-15T02:12:42.018Z</time>
      </trkpt>
      <trkpt lat="47.11407" lon="-1.80137">
        <ele>19</ele>
        <time>2021-05-15T02:12:43.872Z</time>
      </trkpt>
      <trkpt lat="47.11398" lon="-1.80149">
        <ele>19</ele>
        <time>2021-05-15T02:12:45.560Z</time>
      </trkpt>
      <trkpt lat="47.11389" lon="-1.8016">
        <ele>19</ele>
        <time>2021-05-15T02:12:46.466Z</time>
      </trkpt>
      <trkpt lat="47.11381" lon="-1.80172">
        <ele>19</ele>
        <time>2021-05-15T02:12:48.053Z</time>
      </trkpt>
      <trkpt lat="47.11371" lon="-1.80183">
        <ele>19</ele>
        <time>2021-05-15T02:12:49.788Z</time>
      </trkpt>
      <trkpt lat="47.11362" lon="-1.80195">
        <ele>18.9</ele>
        <time>2021-05-15T02:12:50.728Z</time>
      </trkpt>
      <trkpt lat="47.11353" lon="-1.80207">
        <ele>18.7</ele>
        <time>2021-05-15T02:12:52.416Z</time>
      </trkpt>
      <trkpt lat="47.11344" lon="-1.8022">
        <ele>18.5</ele>
        <time>2021-05-15T02:12:54.169Z</time>
      </trkpt>
      <trkpt lat="47.11335" lon="-1.80233">
        <ele>18.2</ele>
        <time>2021-05-15T02:12:55.922Z</time>
      </trkpt>
      <trkpt lat="47.11326" lon="-1.80245">
        <ele>17.8</ele>
        <time>2021-05-15T02:12:57.609Z</time>
      </trkpt>
      <trkpt lat="47.11317" lon="-1.80257">
        <ele>17.3</ele>
        <time>2021-05-15T02:12:59.297Z</time>
      </trkpt>
      <trkpt lat="47.11308" lon="-1.80269">
        <ele>16.9</ele>
        <time>2021-05-15T02:13:00.985Z</time>
      </trkpt>
      <trkpt lat="47.11299" lon="-1.80282">
        <ele>16.5</ele>
        <time>2021-05-15T02:13:01.962Z</time>
      </trkpt>
      <trkpt lat="47.11291" lon="-1.80296">
        <ele>16.2</ele>
        <time>2021-05-15T02:13:03.689Z</time>
      </trkpt>
      <trkpt lat="47.11282" lon="-1.80309">
        <ele>15.9</ele>
        <time>2021-05-15T02:13:05.442Z</time>
      </trkpt>
      <trkpt lat="47.11272" lon="-1.80322">
        <ele>15.6</ele>
        <time>2021-05-15T02:13:07.296Z</time>
      </trkpt>
      <trkpt lat="47.11263" lon="-1.80334">
        <ele>15.3</ele>
        <time>2021-05-15T02:13:08.984Z</time>
      </trkpt>
      <trkpt lat="47.11254" lon="-1.80346">
        <ele>15.4</ele>
        <time>2021-05-15T02:13:10.672Z</time>
      </trkpt>
      <trkpt lat="47.11244" lon="-1.80358">
        <ele>15.6</ele>
        <time>2021-05-15T02:13:11.671Z</time>
      </trkpt>
      <trkpt lat="47.11235" lon="-1.8037">
        <ele>16</ele>
        <time>2021-05-15T02:13:13.359Z</time>
      </trkpt>
      <trkpt lat="47.11227" lon="-1.80381">
        <ele>16.3</ele>
        <time>2021-05-15T02:13:14.881Z</time>
      </trkpt>
      <trkpt lat="47.11218" lon="-1.80392">
        <ele>16.5</ele>
        <time>2021-05-15T02:13:16.506Z</time>
      </trkpt>
      <trkpt lat="47.11209" lon="-1.80402">
        <ele>16.7</ele>
        <time>2021-05-15T02:13:18.073Z</time>
      </trkpt>
      <trkpt lat="47.11199" lon="-1.80412">
        <ele>16.9</ele>
        <time>2021-05-15T02:13:19.753Z</time>
      </trkpt>
      <trkpt lat="47.1119" lon="-1.80422">
        <ele>17</ele>
        <time>2021-05-15T02:13:21.320Z</time>
      </trkpt>
      <trkpt lat="47.1118" lon="-1.8043">
        <ele>17.1</ele>
        <time>2021-05-15T02:13:22.201Z</time>
      </trkpt>
      <trkpt lat="47.11169" lon="-1.80438">
        <ele>17.2</ele>
        <time>2021-05-15T02:13:23.906Z</time>
      </trkpt>
      <trkpt lat="47.11159" lon="-1.80445">
        <ele>17.4</ele>
        <time>2021-05-15T02:13:25.444Z</time>
      </trkpt>
      <trkpt lat="47.11149" lon="-1.80451">
        <ele>17.5</ele>
        <time>2021-05-15T02:13:29.082Z</time>
      </trkpt>
      <trkpt lat="47.11139" lon="-1.80458">
        <ele>17.7</ele>
        <time>2021-05-15T02:13:29.939Z</time>
      </trkpt>
      <trkpt lat="47.11129" lon="-1.80464">
        <ele>17.8</ele>
        <time>2021-05-15T02:13:33.577Z</time>
      </trkpt>
      <trkpt lat="47.1112" lon="-1.80471">
        <ele>17.8</ele>
        <time>2021-05-15T02:13:34.992Z</time>
      </trkpt>
      <trkpt lat="47.1111" lon="-1.80478">
        <ele>17.9</ele>
        <time>2021-05-15T02:13:36.530Z</time>
      </trkpt>
      <trkpt lat="47.111" lon="-1.80485">
        <ele>18</ele>
        <time>2021-05-15T02:13:38.068Z</time>
      </trkpt>
      <trkpt lat="47.11091" lon="-1.80491">
        <ele>18</ele>
        <time>2021-05-15T02:13:39.441Z</time>
      </trkpt>
      <trkpt lat="47.11081" lon="-1.80498">
        <ele>18</ele>
        <time>2021-05-15T02:13:40.979Z</time>
      </trkpt>
      <trkpt lat="47.11071" lon="-1.80504">
        <ele>18</ele>
        <time>2021-05-15T02:13:42.480Z</time>
      </trkpt>
      <trkpt lat="47.11061" lon="-1.8051">
        <ele>18.1</ele>
        <time>2021-05-15T02:13:43.980Z</time>
      </trkpt>
      <trkpt lat="47.11052" lon="-1.80516">
        <ele>18</ele>
        <time>2021-05-15T02:13:45.352Z</time>
      </trkpt>
      <trkpt lat="47.11042" lon="-1.80523">
        <ele>18</ele>
        <time>2021-05-15T02:13:46.891Z</time>
      </trkpt>
      <trkpt lat="47.11033" lon="-1.80529">
        <ele>17.9</ele>
        <time>2021-05-15T02:13:48.263Z</time>
      </trkpt>
      <trkpt lat="47.11023" lon="-1.80536">
        <ele>17.8</ele>
        <time>2021-05-15T02:13:49.801Z</time>
      </trkpt>
      <trkpt lat="47.11013" lon="-1.80543">
        <ele>17.6</ele>
        <time>2021-05-15T02:13:51.340Z</time>
      </trkpt>
      <trkpt lat="47.11003" lon="-1.80549">
        <ele>17.5</ele>
        <time>2021-05-15T02:13:52.840Z</time>
      </trkpt>
      <trkpt lat="47.10993" lon="-1.80556">
        <ele>17.2</ele>
        <time>2021-05-15T02:13:54.378Z</time>
      </trkpt>
      <trkpt lat="47.10982" lon="-1.80563">
        <ele>17</ele>
        <time>2021-05-15T02:13:56.043Z</time>
      </trkpt>
      <trkpt lat="47.10972" lon="-1.8057">
        <ele>16.8</ele>
        <time>2021-05-15T02:13:57.582Z</time>
      </trkpt>
      <trkpt lat="47.10961" lon="-1.80577">
        <ele>16.6</ele>
        <time>2021-05-15T02:13:59.246Z</time>
      </trkpt>
      <trkpt lat="47.10951" lon="-1.80584">
        <ele>16.4</ele>
        <time>2021-05-15T02:14:00.785Z</time>
      </trkpt>
      <trkpt lat="47.1094" lon="-1.80591">
        <ele>16.3</ele>
        <time>2021-05-15T02:14:01.712Z</time>
      </trkpt>
      <trkpt lat="47.1093" lon="-1.80597">
        <ele>16.2</ele>
        <time>2021-05-15T02:14:03.212Z</time>
      </trkpt>
      <trkpt lat="47.1092" lon="-1.80604">
        <ele>16</ele>
        <time>2021-05-15T02:14:04.751Z</time>
      </trkpt>
      <trkpt lat="47.10909" lon="-1.80611">
        <ele>16.1</ele>
        <time>2021-05-15T02:14:06.416Z</time>
      </trkpt>
      <trkpt lat="47.10899" lon="-1.80618">
        <ele>16.2</ele>
        <time>2021-05-15T02:14:07.954Z</time>
      </trkpt>
      <trkpt lat="47.10889" lon="-1.80625">
        <ele>16.3</ele>
        <time>2021-05-15T02:14:09.492Z</time>
      </trkpt>
      <trkpt lat="47.10879" lon="-1.80631">
        <ele>16.5</ele>
        <time>2021-05-15T02:14:10.992Z</time>
      </trkpt>
      <trkpt lat="47.10868" lon="-1.80636">
        <ele>16.6</ele>
        <time>2021-05-15T02:14:12.592Z</time>
      </trkpt>
      <trkpt lat="47.10858" lon="-1.80641">
        <ele>16.7</ele>
        <time>2021-05-15T02:14:14.059Z</time>
      </trkpt>
      <trkpt lat="47.10848" lon="-1.80644">
        <ele>16.8</ele>
        <time>2021-05-15T02:14:15.476Z</time>
      </trkpt>
      <trkpt lat="47.10836" lon="-1.80649">
        <ele>17</ele>
        <time>2021-05-15T02:14:17.208Z</time>
      </trkpt>
      <trkpt lat="47.10825" lon="-1.80652">
        <ele>17</ele>
        <time>2021-05-15T02:14:18.762Z</time>
      </trkpt>
      <trkpt lat="47.10813" lon="-1.80657">
        <ele>17</ele>
        <time>2021-05-15T02:14:19.727Z</time>
      </trkpt>
      <trkpt lat="47.108" lon="-1.80662">
        <ele>17</ele>
        <time>2021-05-15T02:14:21.594Z</time>
      </trkpt>
      <trkpt lat="47.10788" lon="-1.80666">
        <ele>17</ele>
        <time>2021-05-15T02:14:23.303Z</time>
      </trkpt>
      <trkpt lat="47.10776" lon="-1.80671">
        <ele>17</ele>
        <time>2021-05-15T02:14:25.035Z</time>
      </trkpt>
      <trkpt lat="47.10765" lon="-1.80675">
        <ele>17</ele>
        <time>2021-05-15T02:14:26.609Z</time>
      </trkpt>
      <trkpt lat="47.10753" lon="-1.80679">
        <ele>17</ele>
        <time>2021-05-15T02:14:28.318Z</time>
      </trkpt>
      <trkpt lat="47.10741" lon="-1.80681">
        <ele>17</ele>
        <time>2021-05-15T02:14:29.995Z</time>
      </trkpt>
      <trkpt lat="47.10729" lon="-1.80684">
        <ele>17</ele>
        <time>2021-05-15T02:14:31.685Z</time>
      </trkpt>
      <trkpt lat="47.10718" lon="-1.80685">
        <ele>17</ele>
        <time>2021-05-15T02:14:33.216Z</time>
      </trkpt>
      <trkpt lat="47.10706" lon="-1.80686">
        <ele>17</ele>
        <time>2021-05-15T02:14:34.885Z</time>
      </trkpt>
      <trkpt lat="47.10694" lon="-1.80688">
        <ele>17</ele>
        <time>2021-05-15T02:14:36.562Z</time>
      </trkpt>
      <trkpt lat="47.10682" lon="-1.80688">
        <ele>17</ele>
        <time>2021-05-15T02:14:38.229Z</time>
      </trkpt>
      <trkpt lat="47.10671" lon="-1.80689">
        <ele>17</ele>
        <time>2021-05-15T02:14:39.760Z</time>
      </trkpt>
      <trkpt lat="47.10659" lon="-1.80691">
        <ele>16.9</ele>
        <time>2021-05-15T02:14:41.437Z</time>
      </trkpt>
      <trkpt lat="47.10648" lon="-1.80692">
        <ele>16.9</ele>
        <time>2021-05-15T02:14:42.967Z</time>
      </trkpt>
      <trkpt lat="47.10637" lon="-1.80694">
        <ele>16.8</ele>
        <time>2021-05-15T02:14:44.507Z</time>
      </trkpt>
      <trkpt lat="47.10626" lon="-1.80697">
        <ele>16.6</ele>
        <time>2021-05-15T02:14:46.061Z</time>
      </trkpt>
      <trkpt lat="47.10614" lon="-1.80701">
        <ele>16.5</ele>
        <time>2021-05-15T02:14:47.769Z</time>
      </trkpt>
      <trkpt lat="47.10603" lon="-1.80706">
        <ele>16.3</ele>
        <time>2021-05-15T02:14:48.660Z</time>
      </trkpt>
      <trkpt lat="47.10593" lon="-1.80712">
        <ele>16</ele>
        <time>2021-05-15T02:14:50.161Z</time>
      </trkpt>
      <trkpt lat="47.10582" lon="-1.80719">
        <ele>15.8</ele>
        <time>2021-05-15T02:14:51.825Z</time>
      </trkpt>
      <trkpt lat="47.10573" lon="-1.80728">
        <ele>15.6</ele>
        <time>2021-05-15T02:14:53.337Z</time>
      </trkpt>
      <trkpt lat="47.10564" lon="-1.80738">
        <ele>15.5</ele>
        <time>2021-05-15T02:14:54.905Z</time>
      </trkpt>
      <trkpt lat="47.10556" lon="-1.80749">
        <ele>15.3</ele>
        <time>2021-05-15T02:14:56.426Z</time>
      </trkpt>
      <trkpt lat="47.10547" lon="-1.80759">
        <ele>15.4</ele>
        <time>2021-05-15T02:14:57.993Z</time>
      </trkpt>
      <trkpt lat="47.10538" lon="-1.80768">
        <ele>15.4</ele>
        <time>2021-05-15T02:14:59.505Z</time>
      </trkpt>
      <trkpt lat="47.10529" lon="-1.80779">
        <ele>15.3</ele>
        <time>2021-05-15T02:15:01.131Z</time>
      </trkpt>
      <trkpt lat="47.10521" lon="-1.80792">
        <ele>15.1</ele>
        <time>2021-05-15T02:15:02.054Z</time>
      </trkpt>
      <trkpt lat="47.10513" lon="-1.80804">
        <ele>14.9</ele>
        <time>2021-05-15T02:15:03.642Z</time>
      </trkpt>
      <trkpt lat="47.10502" lon="-1.80812">
        <ele>14.5</ele>
        <time>2021-05-15T02:15:05.347Z</time>
      </trkpt>
      <trkpt lat="47.10491" lon="-1.8082">
        <ele>14.3</ele>
        <time>2021-05-15T02:15:06.296Z</time>
      </trkpt>
      <trkpt lat="47.10482" lon="-1.80831">
        <ele>14.1</ele>
        <time>2021-05-15T02:15:07.922Z</time>
      </trkpt>
      <trkpt lat="47.10473" lon="-1.80843">
        <ele>14.1</ele>
        <time>2021-05-15T02:15:09.610Z</time>
      </trkpt>
      <trkpt lat="47.10466" lon="-1.80856">
        <ele>14.3</ele>
        <time>2021-05-15T02:15:11.177Z</time>
      </trkpt>
      <trkpt lat="47.10458" lon="-1.80869">
        <ele>14.4</ele>
        <time>2021-05-15T02:15:12.834Z</time>
      </trkpt>
      <trkpt lat="47.10451" lon="-1.80882">
        <ele>14.6</ele>
        <time>2021-05-15T02:15:16.502Z</time>
      </trkpt>
      <trkpt lat="47.10444" lon="-1.80895">
        <ele>14.7</ele>
        <time>2021-05-15T02:15:17.375Z</time>
      </trkpt>
      <trkpt lat="47.10436" lon="-1.80906">
        <ele>14.9</ele>
        <time>2021-05-15T02:15:21.022Z</time>
      </trkpt>
      <trkpt lat="47.10428" lon="-1.80917">
        <ele>15</ele>
        <time>2021-05-15T02:15:24.669Z</time>
      </trkpt>
      <trkpt lat="47.10421" lon="-1.80929">
        <ele>15.3</ele>
        <time>2021-05-15T02:15:26.163Z</time>
      </trkpt>
      <trkpt lat="47.10414" lon="-1.8094">
        <ele>15.5</ele>
        <time>2021-05-15T02:15:27.587Z</time>
      </trkpt>
      <trkpt lat="47.10406" lon="-1.80952">
        <ele>15.7</ele>
        <time>2021-05-15T02:15:29.174Z</time>
      </trkpt>
      <trkpt lat="47.10399" lon="-1.80964">
        <ele>15.9</ele>
        <time>2021-05-15T02:15:32.810Z</time>
      </trkpt>
      <trkpt lat="47.10392" lon="-1.80974">
        <ele>16.1</ele>
        <time>2021-05-15T02:15:34.166Z</time>
      </trkpt>
      <trkpt lat="47.10386" lon="-1.80985">
        <ele>16.3</ele>
        <time>2021-05-15T02:15:35.499Z</time>
      </trkpt>
      <trkpt lat="47.1038" lon="-1.80996">
        <ele>16.5</ele>
        <time>2021-05-15T02:15:36.831Z</time>
      </trkpt>
      <trkpt lat="47.10375" lon="-1.81009">
        <ele>16.7</ele>
        <time>2021-05-15T02:15:37.618Z</time>
      </trkpt>
      <trkpt lat="47.1037" lon="-1.81022">
        <ele>17</ele>
        <time>2021-05-15T02:15:39.029Z</time>
      </trkpt>
      <trkpt lat="47.10366" lon="-1.81034">
        <ele>17.2</ele>
        <time>2021-05-15T02:15:40.292Z</time>
      </trkpt>
      <trkpt lat="47.10359" lon="-1.81044">
        <ele>17.4</ele>
        <time>2021-05-15T02:15:41.648Z</time>
      </trkpt>
      <trkpt lat="47.10349" lon="-1.8104">
        <ele>17.1</ele>
        <time>2021-05-15T02:15:43.088Z</time>
      </trkpt>
      <trkpt lat="47.10342" lon="-1.81026">
        <ele>16.7</ele>
        <time>2021-05-15T02:15:44.003Z</time>
      </trkpt>
      <trkpt lat="47.10337" lon="-1.81015">
        <ele>16.4</ele>
        <time>2021-05-15T02:15:47.647Z</time>
      </trkpt>
      <trkpt lat="47.10329" lon="-1.81008">
        <ele>16</ele>
        <time>2021-05-15T02:15:48.368Z</time>
      </trkpt>
      <trkpt lat="47.10319" lon="-1.8101">
        <ele>15.7</ele>
        <time>2021-05-15T02:15:49.149Z</time>
      </trkpt>
      <trkpt lat="47.10306" lon="-1.8101">
        <ele>15.2</ele>
        <time>2021-05-15T02:15:50.954Z</time>
      </trkpt>
      <trkpt lat="47.10296" lon="-1.81008">
        <ele>14.8</ele>
        <time>2021-05-15T02:15:51.735Z</time>
      </trkpt>
      <trkpt lat="47.10286" lon="-1.81007">
        <ele>14.4</ele>
        <time>2021-05-15T02:15:53.127Z</time>
      </trkpt>
      <trkpt lat="47.10276" lon="-1.81006">
        <ele>14</ele>
        <time>2021-05-15T02:15:56.739Z</time>
      </trkpt>
      <trkpt lat="47.10266" lon="-1.81006">
        <ele>13.7</ele>
        <time>2021-05-15T02:16:00.351Z</time>
      </trkpt>
      <trkpt lat="47.10257" lon="-1.81009">
        <ele>13.4</ele>
        <time>2021-05-15T02:16:01.632Z</time>
      </trkpt>
      <trkpt lat="47.10247" lon="-1.81009">
        <ele>13</ele>
        <time>2021-05-15T02:16:03.021Z</time>
      </trkpt>
      <trkpt lat="47.10237" lon="-1.8101">
        <ele>12.7</ele>
        <time>2021-05-15T02:16:06.633Z</time>
      </trkpt>
      <trkpt lat="47.10225" lon="-1.8101">
        <ele>12.2</ele>
        <time>2021-05-15T02:16:07.561Z</time>
      </trkpt>
      <trkpt lat="47.10216" lon="-1.81006">
        <ele>11.8</ele>
        <time>2021-05-15T02:16:08.867Z</time>
      </trkpt>
      <trkpt lat="47.10206" lon="-1.81001">
        <ele>11.4</ele>
        <time>2021-05-15T02:16:10.334Z</time>
      </trkpt>
      <trkpt lat="47.10196" lon="-1.80996">
        <ele>11</ele>
        <time>2021-05-15T02:16:11.801Z</time>
      </trkpt>
      <trkpt lat="47.10186" lon="-1.80993">
        <ele>10.7</ele>
        <time>2021-05-15T02:16:12.591Z</time>
      </trkpt>
      <trkpt lat="47.10177" lon="-1.80988">
        <ele>10.3</ele>
        <time>2021-05-15T02:16:13.927Z</time>
      </trkpt>
      <trkpt lat="47.10169" lon="-1.80983">
        <ele>10.1</ele>
        <time>2021-05-15T02:16:14.600Z</time>
      </trkpt>
      <trkpt lat="47.1016" lon="-1.80978">
        <ele>10.1</ele>
        <time>2021-05-15T02:16:15.936Z</time>
      </trkpt>
      <trkpt lat="47.10151" lon="-1.80973">
        <ele>10.1</ele>
        <time>2021-05-15T02:16:17.273Z</time>
      </trkpt>
      <trkpt lat="47.10142" lon="-1.80972">
        <ele>10.2</ele>
        <time>2021-05-15T02:16:18.526Z</time>
      </trkpt>
      <trkpt lat="47.10132" lon="-1.80971">
        <ele>10.3</ele>
        <time>2021-05-15T02:16:19.302Z</time>
      </trkpt>
      <trkpt lat="47.10122" lon="-1.80972">
        <ele>10.4</ele>
        <time>2021-05-15T02:16:20.694Z</time>
      </trkpt>
      <trkpt lat="47.10112" lon="-1.80972">
        <ele>10.4</ele>
        <time>2021-05-15T02:16:21.468Z</time>
      </trkpt>
      <trkpt lat="47.10102" lon="-1.80972">
        <ele>10.5</ele>
        <time>2021-05-15T02:16:22.856Z</time>
      </trkpt>
      <trkpt lat="47.10092" lon="-1.80973">
        <ele>10.6</ele>
        <time>2021-05-15T02:16:24.248Z</time>
      </trkpt>
      <trkpt lat="47.10082" lon="-1.80973">
        <ele>10.7</ele>
        <time>2021-05-15T02:16:25.637Z</time>
      </trkpt>
      <trkpt lat="47.10073" lon="-1.80973">
        <ele>10.9</ele>
        <time>2021-05-15T02:16:26.887Z</time>
      </trkpt>
      <trkpt lat="47.10063" lon="-1.80972">
        <ele>11.2</ele>
        <time>2021-05-15T02:16:30.499Z</time>
      </trkpt>
      <trkpt lat="47.10054" lon="-1.80972">
        <ele>11.4</ele>
        <time>2021-05-15T02:16:31.749Z</time>
      </trkpt>
      <trkpt lat="47.10045" lon="-1.80973">
        <ele>11.6</ele>
        <time>2021-05-15T02:16:33.002Z</time>
      </trkpt>
      <trkpt lat="47.10035" lon="-1.80974">
        <ele>11.8</ele>
        <time>2021-05-15T02:16:34.394Z</time>
      </trkpt>
      <trkpt lat="47.10025" lon="-1.80976">
        <ele>12.1</ele>
        <time>2021-05-15T02:16:35.796Z</time>
      </trkpt>
      <trkpt lat="47.10015" lon="-1.80977">
        <ele>12.4</ele>
        <time>2021-05-15T02:16:39.408Z</time>
      </trkpt>
      <trkpt lat="47.10005" lon="-1.80978">
        <ele>12.6</ele>
        <time>2021-05-15T02:16:40.800Z</time>
      </trkpt>
      <trkpt lat="47.09995" lon="-1.80978">
        <ele>12.9</ele>
        <time>2021-05-15T02:16:42.189Z</time>
      </trkpt>
      <trkpt lat="47.09985" lon="-1.80978">
        <ele>13.3</ele>
        <time>2021-05-15T02:16:43.577Z</time>
      </trkpt>
      <trkpt lat="47.09975" lon="-1.80978">
        <ele>13.7</ele>
        <time>2021-05-15T02:16:47.189Z</time>
      </trkpt>
      <trkpt lat="47.09966" lon="-1.80978">
        <ele>14.1</ele>
        <time>2021-05-15T02:16:48.439Z</time>
      </trkpt>
      <trkpt lat="47.09956" lon="-1.80979">
        <ele>14.5</ele>
        <time>2021-05-15T02:16:49.831Z</time>
      </trkpt>
      <trkpt lat="47.09946" lon="-1.8098">
        <ele>14.9</ele>
        <time>2021-05-15T02:16:51.223Z</time>
      </trkpt>
      <trkpt lat="47.09937" lon="-1.80981">
        <ele>15.2</ele>
        <time>2021-05-15T02:16:54.866Z</time>
      </trkpt>
      <trkpt lat="47.09927" lon="-1.80982">
        <ele>15.6</ele>
        <time>2021-05-15T02:16:56.258Z</time>
      </trkpt>
      <trkpt lat="47.09917" lon="-1.80983">
        <ele>16</ele>
        <time>2021-05-15T02:16:57.650Z</time>
      </trkpt>
      <trkpt lat="47.09907" lon="-1.80984">
        <ele>16.1</ele>
        <time>2021-05-15T02:17:01.262Z</time>
      </trkpt>
      <trkpt lat="47.09897" lon="-1.80985">
        <ele>16.2</ele>
        <time>2021-05-15T02:17:02.654Z</time>
      </trkpt>
      <trkpt lat="47.09887" lon="-1.80985">
        <ele>16.3</ele>
        <time>2021-05-15T02:17:04.043Z</time>
      </trkpt>
      <trkpt lat="47.09877" lon="-1.80985">
        <ele>16.4</ele>
        <time>2021-05-15T02:17:07.654Z</time>
      </trkpt>
      <trkpt lat="47.09868" lon="-1.80986">
        <ele>16.5</ele>
        <time>2021-05-15T02:17:08.908Z</time>
      </trkpt>
      <trkpt lat="47.09858" lon="-1.80986">
        <ele>16.6</ele>
        <time>2021-05-15T02:17:10.296Z</time>
      </trkpt>
      <trkpt lat="47.09848" lon="-1.80986">
        <ele>16.7</ele>
        <time>2021-05-15T02:17:11.685Z</time>
      </trkpt>
      <trkpt lat="47.09838" lon="-1.80987">
        <ele>16.8</ele>
        <time>2021-05-15T02:17:13.077Z</time>
      </trkpt>
      <trkpt lat="47.09829" lon="-1.80988">
        <ele>16.9</ele>
        <time>2021-05-15T02:17:14.331Z</time>
      </trkpt>
      <trkpt lat="47.09819" lon="-1.80989">
        <ele>16.9</ele>
        <time>2021-05-15T02:17:15.723Z</time>
      </trkpt>
      <trkpt lat="47.09806" lon="-1.8099">
        <ele>16.9</ele>
        <time>2021-05-15T02:17:17.531Z</time>
      </trkpt>
      <trkpt lat="47.09797" lon="-1.8099">
        <ele>16.9</ele>
        <time>2021-05-15T02:17:18.781Z</time>
      </trkpt>
      <trkpt lat="47.09787" lon="-1.80989">
        <ele>16.9</ele>
        <time>2021-05-15T02:17:20.173Z</time>
      </trkpt>
      <trkpt lat="47.09777" lon="-1.80987">
        <ele>16.9</ele>
        <time>2021-05-15T02:17:21.574Z</time>
      </trkpt>
      <trkpt lat="47.09767" lon="-1.80986">
        <ele>17</ele>
        <time>2021-05-15T02:17:22.966Z</time>
      </trkpt>
      <trkpt lat="47.09756" lon="-1.80984">
        <ele>17</ele>
        <time>2021-05-15T02:17:24.506Z</time>
      </trkpt>
      <trkpt lat="47.09745" lon="-1.80981">
        <ele>16.9</ele>
        <time>2021-05-15T02:17:25.371Z</time>
      </trkpt>
      <trkpt lat="47.09734" lon="-1.80978">
        <ele>16.8</ele>
        <time>2021-05-15T02:17:26.925Z</time>
      </trkpt>
      <trkpt lat="47.09722" lon="-1.80976">
        <ele>16.7</ele>
        <time>2021-05-15T02:17:28.602Z</time>
      </trkpt>
      <trkpt lat="47.0971" lon="-1.80973">
        <ele>16.5</ele>
        <time>2021-05-15T02:17:29.544Z</time>
      </trkpt>
      <trkpt lat="47.09697" lon="-1.80971">
        <ele>16.4</ele>
        <time>2021-05-15T02:17:31.360Z</time>
      </trkpt>
      <trkpt lat="47.09684" lon="-1.80968">
        <ele>16.2</ele>
        <time>2021-05-15T02:17:33.187Z</time>
      </trkpt>
      <trkpt lat="47.09672" lon="-1.80965">
        <ele>16.1</ele>
        <time>2021-05-15T02:17:34.129Z</time>
      </trkpt>
      <trkpt lat="47.09659" lon="-1.80962">
        <ele>15.8</ele>
        <time>2021-05-15T02:17:35.957Z</time>
      </trkpt>
      <trkpt lat="47.09647" lon="-1.8096">
        <ele>15.4</ele>
        <time>2021-05-15T02:17:37.634Z</time>
      </trkpt>
      <trkpt lat="47.09635" lon="-1.80958">
        <ele>15</ele>
        <time>2021-05-15T02:17:39.311Z</time>
      </trkpt>
      <trkpt lat="47.09623" lon="-1.80955">
        <ele>14.6</ele>
        <time>2021-05-15T02:17:40.253Z</time>
      </trkpt>
      <trkpt lat="47.09612" lon="-1.80953">
        <ele>14.2</ele>
        <time>2021-05-15T02:17:41.792Z</time>
      </trkpt>
      <trkpt lat="47.096" lon="-1.8095">
        <ele>13.8</ele>
        <time>2021-05-15T02:17:43.483Z</time>
      </trkpt>
      <trkpt lat="47.09588" lon="-1.80944">
        <ele>13.2</ele>
        <time>2021-05-15T02:17:45.243Z</time>
      </trkpt>
      <trkpt lat="47.09576" lon="-1.80941">
        <ele>12.8</ele>
        <time>2021-05-15T02:17:46.934Z</time>
      </trkpt>
      <trkpt lat="47.09563" lon="-1.80939">
        <ele>12.6</ele>
        <time>2021-05-15T02:17:48.749Z</time>
      </trkpt>
      <trkpt lat="47.09551" lon="-1.80936">
        <ele>12.3</ele>
        <time>2021-05-15T02:17:50.440Z</time>
      </trkpt>
      <trkpt lat="47.09539" lon="-1.80933">
        <ele>12.1</ele>
        <time>2021-05-15T02:17:52.130Z</time>
      </trkpt>
      <trkpt lat="47.09527" lon="-1.8093">
        <ele>11.8</ele>
        <time>2021-05-15T02:17:53.821Z</time>
      </trkpt>
      <trkpt lat="47.09515" lon="-1.80928">
        <ele>11.6</ele>
        <time>2021-05-15T02:17:55.498Z</time>
      </trkpt>
      <trkpt lat="47.09502" lon="-1.80925">
        <ele>11.3</ele>
        <time>2021-05-15T02:17:57.326Z</time>
      </trkpt>
      <trkpt lat="47.0949" lon="-1.80925">
        <ele>11.2</ele>
        <time>2021-05-15T02:17:58.992Z</time>
      </trkpt>
      <trkpt lat="47.09478" lon="-1.80929">
        <ele>11.1</ele>
        <time>2021-05-15T02:18:00.701Z</time>
      </trkpt>
      <trkpt lat="47.09467" lon="-1.80935">
        <ele>11.2</ele>
        <time>2021-05-15T02:18:02.331Z</time>
      </trkpt>
      <trkpt lat="47.09456" lon="-1.80942">
        <ele>11.2</ele>
        <time>2021-05-15T02:18:06.058Z</time>
      </trkpt>
      <trkpt lat="47.09445" lon="-1.80948">
        <ele>11.2</ele>
        <time>2021-05-15T02:18:07.688Z</time>
      </trkpt>
      <trkpt lat="47.09434" lon="-1.80955">
        <ele>11.2</ele>
        <time>2021-05-15T02:18:09.353Z</time>
      </trkpt>
      <trkpt lat="47.09423" lon="-1.80961">
        <ele>11.2</ele>
        <time>2021-05-15T02:18:10.982Z</time>
      </trkpt>
      <trkpt lat="47.09412" lon="-1.80968">
        <ele>11</ele>
        <time>2021-05-15T02:18:12.647Z</time>
      </trkpt>
      <trkpt lat="47.09401" lon="-1.80975">
        <ele>10.7</ele>
        <time>2021-05-15T02:18:14.312Z</time>
      </trkpt>
      <trkpt lat="47.09389" lon="-1.80983">
        <ele>10.3</ele>
        <time>2021-05-15T02:18:15.332Z</time>
      </trkpt>
      <trkpt lat="47.09377" lon="-1.8099">
        <ele>9.9</ele>
        <time>2021-05-15T02:18:17.125Z</time>
      </trkpt>
      <trkpt lat="47.09364" lon="-1.80997">
        <ele>9.4</ele>
        <time>2021-05-15T02:18:18.196Z</time>
      </trkpt>
      <trkpt lat="47.09351" lon="-1.81004">
        <ele>8.9</ele>
        <time>2021-05-15T02:18:20.119Z</time>
      </trkpt>
      <trkpt lat="47.09338" lon="-1.81011">
        <ele>8.4</ele>
        <time>2021-05-15T02:18:21.191Z</time>
      </trkpt>
      <trkpt lat="47.09326" lon="-1.81019">
        <ele>8.1</ele>
        <time>2021-05-15T02:18:23.021Z</time>
      </trkpt>
      <trkpt lat="47.09314" lon="-1.81027">
        <ele>8.1</ele>
        <time>2021-05-15T02:18:24.851Z</time>
      </trkpt>
      <trkpt lat="47.09302" lon="-1.81034">
        <ele>8</ele>
        <time>2021-05-15T02:18:26.644Z</time>
      </trkpt>
      <trkpt lat="47.09289" lon="-1.81041">
        <ele>8</ele>
        <time>2021-05-15T02:18:27.716Z</time>
      </trkpt>
      <trkpt lat="47.09277" lon="-1.81048">
        <ele>7.9</ele>
        <time>2021-05-15T02:18:29.509Z</time>
      </trkpt>
      <trkpt lat="47.09266" lon="-1.81055">
        <ele>7.9</ele>
        <time>2021-05-15T02:18:31.174Z</time>
      </trkpt>
      <trkpt lat="47.09255" lon="-1.81062">
        <ele>7.8</ele>
        <time>2021-05-15T02:18:32.839Z</time>
      </trkpt>
      <trkpt lat="47.09244" lon="-1.8107">
        <ele>7.9</ele>
        <time>2021-05-15T02:18:33.788Z</time>
      </trkpt>
      <trkpt lat="47.09234" lon="-1.81079">
        <ele>8</ele>
        <time>2021-05-15T02:18:35.417Z</time>
      </trkpt>
      <trkpt lat="47.09227" lon="-1.81087">
        <ele>8</ele>
        <time>2021-05-15T02:18:39.075Z</time>
      </trkpt>
      <trkpt lat="47.09212" lon="-1.81084">
        <ele>8</ele>
        <time>2021-05-15T02:18:41.177Z</time>
      </trkpt>
      <trkpt lat="47.09201" lon="-1.81076">
        <ele>8.1</ele>
        <time>2021-05-15T02:18:42.127Z</time>
      </trkpt>
      <trkpt lat="47.09191" lon="-1.81066">
        <ele>8.2</ele>
        <time>2021-05-15T02:18:43.807Z</time>
      </trkpt>
      <trkpt lat="47.0918" lon="-1.81058">
        <ele>8.5</ele>
        <time>2021-05-15T02:18:45.512Z</time>
      </trkpt>
      <trkpt lat="47.0917" lon="-1.81053">
        <ele>8.7</ele>
        <time>2021-05-15T02:18:46.979Z</time>
      </trkpt>
      <trkpt lat="47.09162" lon="-1.81067">
        <ele>8.4</ele>
        <time>2021-05-15T02:18:48.707Z</time>
      </trkpt>
      <trkpt lat="47.09154" lon="-1.81083">
        <ele>8</ele>
        <time>2021-05-15T02:18:50.584Z</time>
      </trkpt>
      <trkpt lat="47.09144" lon="-1.81097">
        <ele>7.6</ele>
        <time>2021-05-15T02:18:51.653Z</time>
      </trkpt>
      <trkpt lat="47.09134" lon="-1.81107">
        <ele>7.3</ele>
        <time>2021-05-15T02:18:55.391Z</time>
      </trkpt>
      <trkpt lat="47.09122" lon="-1.81113">
        <ele>7.1</ele>
        <time>2021-05-15T02:18:57.151Z</time>
      </trkpt>
      <trkpt lat="47.09111" lon="-1.81115">
        <ele>7</ele>
        <time>2021-05-15T02:18:58.690Z</time>
      </trkpt>
      <trkpt lat="47.09098" lon="-1.81118">
        <ele>6.8</ele>
        <time>2021-05-15T02:19:00.518Z</time>
      </trkpt>
      <trkpt lat="47.09086" lon="-1.8112">
        <ele>6.7</ele>
        <time>2021-05-15T02:19:01.453Z</time>
      </trkpt>
      <trkpt lat="47.09074" lon="-1.81124">
        <ele>7</ele>
        <time>2021-05-15T02:19:03.161Z</time>
      </trkpt>
      <trkpt lat="47.09064" lon="-1.81132">
        <ele>7.4</ele>
        <time>2021-05-15T02:19:04.743Z</time>
      </trkpt>
      <trkpt lat="47.09056" lon="-1.81144">
        <ele>7.5</ele>
        <time>2021-05-15T02:19:05.628Z</time>
      </trkpt>
      <trkpt lat="47.0905" lon="-1.81157">
        <ele>7.6</ele>
        <time>2021-05-15T02:19:09.260Z</time>
      </trkpt>
      <trkpt lat="47.09046" lon="-1.81171">
        <ele>7.7</ele>
        <time>2021-05-15T02:19:12.879Z</time>
      </trkpt>
      <trkpt lat="47.09042" lon="-1.81185">
        <ele>7.9</ele>
        <time>2021-05-15T02:19:14.314Z</time>
      </trkpt>
      <trkpt lat="47.09038" lon="-1.81199">
        <ele>8.1</ele>
        <time>2021-05-15T02:19:15.750Z</time>
      </trkpt>
      <trkpt lat="47.09034" lon="-1.81213">
        <ele>8.2</ele>
        <time>2021-05-15T02:19:17.185Z</time>
      </trkpt>
      <trkpt lat="47.09029" lon="-1.81226">
        <ele>8.4</ele>
        <time>2021-05-15T02:19:20.799Z</time>
      </trkpt>
      <trkpt lat="47.09024" lon="-1.81239">
        <ele>8.7</ele>
        <time>2021-05-15T02:19:22.211Z</time>
      </trkpt>
      <trkpt lat="47.09018" lon="-1.8125">
        <ele>8.9</ele>
        <time>2021-05-15T02:19:23.544Z</time>
      </trkpt>
      <trkpt lat="47.09012" lon="-1.81261">
        <ele>9.3</ele>
        <time>2021-05-15T02:19:27.158Z</time>
      </trkpt>
      <trkpt lat="47.09005" lon="-1.81272">
        <ele>9.7</ele>
        <time>2021-05-15T02:19:28.582Z</time>
      </trkpt>
      <trkpt lat="47.08998" lon="-1.81281">
        <ele>10.1</ele>
        <time>2021-05-15T02:19:29.874Z</time>
      </trkpt>
      <trkpt lat="47.08991" lon="-1.81292">
        <ele>10.3</ele>
        <time>2021-05-15T02:19:33.490Z</time>
      </trkpt>
      <trkpt lat="47.08984" lon="-1.81302">
        <ele>10.4</ele>
        <time>2021-05-15T02:19:34.846Z</time>
      </trkpt>
      <trkpt lat="47.08976" lon="-1.81312">
        <ele>10.5</ele>
        <time>2021-05-15T02:19:36.305Z</time>
      </trkpt>
      <trkpt lat="47.08969" lon="-1.81322">
        <ele>10.5</ele>
        <time>2021-05-15T02:19:37.661Z</time>
      </trkpt>
      <trkpt lat="47.08961" lon="-1.81333">
        <ele>10.5</ele>
        <time>2021-05-15T02:19:39.183Z</time>
      </trkpt>
      <trkpt lat="47.08953" lon="-1.81343">
        <ele>10.6</ele>
        <time>2021-05-15T02:19:40.642Z</time>
      </trkpt>
      <trkpt lat="47.08945" lon="-1.81353">
        <ele>10.7</ele>
        <time>2021-05-15T02:19:42.101Z</time>
      </trkpt>
      <trkpt lat="47.08937" lon="-1.81363">
        <ele>10.9</ele>
        <time>2021-05-15T02:19:45.725Z</time>
      </trkpt>
      <trkpt lat="47.08928" lon="-1.81371">
        <ele>11.2</ele>
        <time>2021-05-15T02:19:47.186Z</time>
      </trkpt>
      <trkpt lat="47.08919" lon="-1.81381">
        <ele>11.5</ele>
        <time>2021-05-15T02:19:48.753Z</time>
      </trkpt>
      <trkpt lat="47.0891" lon="-1.81389">
        <ele>11.9</ele>
        <time>2021-05-15T02:19:50.214Z</time>
      </trkpt>
      <trkpt lat="47.08901" lon="-1.81399">
        <ele>12.1</ele>
        <time>2021-05-15T02:19:51.782Z</time>
      </trkpt>
      <trkpt lat="47.08893" lon="-1.81409">
        <ele>12.3</ele>
        <time>2021-05-15T02:19:55.406Z</time>
      </trkpt>
      <trkpt lat="47.08885" lon="-1.81419">
        <ele>12.3</ele>
        <time>2021-05-15T02:19:56.865Z</time>
      </trkpt>
      <trkpt lat="47.08878" lon="-1.81429">
        <ele>12.3</ele>
        <time>2021-05-15T02:19:58.221Z</time>
      </trkpt>
      <trkpt lat="47.0887" lon="-1.81439">
        <ele>12.3</ele>
        <time>2021-05-15T02:19:59.680Z</time>
      </trkpt>
      <trkpt lat="47.08862" lon="-1.81448">
        <ele>12.4</ele>
        <time>2021-05-15T02:20:01.079Z</time>
      </trkpt>
      <trkpt lat="47.08853" lon="-1.81456">
        <ele>12.5</ele>
        <time>2021-05-15T02:20:04.704Z</time>
      </trkpt>
      <trkpt lat="47.08845" lon="-1.81464">
        <ele>12.7</ele>
        <time>2021-05-15T02:20:06.048Z</time>
      </trkpt>
      <trkpt lat="47.08836" lon="-1.81472">
        <ele>12.9</ele>
        <time>2021-05-15T02:20:07.509Z</time>
      </trkpt>
      <trkpt lat="47.08827" lon="-1.81479">
        <ele>13.3</ele>
        <time>2021-05-15T02:20:08.924Z</time>
      </trkpt>
      <trkpt lat="47.08819" lon="-1.81486">
        <ele>13.7</ele>
        <time>2021-05-15T02:20:10.217Z</time>
      </trkpt>
      <trkpt lat="47.08811" lon="-1.81492">
        <ele>14.1</ele>
        <time>2021-05-15T02:20:13.864Z</time>
      </trkpt>
      <trkpt lat="47.088" lon="-1.81502">
        <ele>14.6</ele>
        <time>2021-05-15T02:20:15.660Z</time>
      </trkpt>
      <trkpt lat="47.08791" lon="-1.81509">
        <ele>14.9</ele>
        <time>2021-05-15T02:20:17.075Z</time>
      </trkpt>
      <trkpt lat="47.08783" lon="-1.81515">
        <ele>15.2</ele>
        <time>2021-05-15T02:20:18.322Z</time>
      </trkpt>
      <trkpt lat="47.08775" lon="-1.81523">
        <ele>15.4</ele>
        <time>2021-05-15T02:20:21.935Z</time>
      </trkpt>
      <trkpt lat="47.08767" lon="-1.8153">
        <ele>15.6</ele>
        <time>2021-05-15T02:20:23.228Z</time>
      </trkpt>
      <trkpt lat="47.08759" lon="-1.81537">
        <ele>15.8</ele>
        <time>2021-05-15T02:20:26.852Z</time>
      </trkpt>
      <trkpt lat="47.08751" lon="-1.81544">
        <ele>15.9</ele>
        <time>2021-05-15T02:20:28.145Z</time>
      </trkpt>
      <trkpt lat="47.08743" lon="-1.81553">
        <ele>16</ele>
        <time>2021-05-15T02:20:29.545Z</time>
      </trkpt>
      <trkpt lat="47.08737" lon="-1.81563">
        <ele>16</ele>
        <time>2021-05-15T02:20:33.184Z</time>
      </trkpt>
      <trkpt lat="47.08731" lon="-1.81574">
        <ele>16.1</ele>
        <time>2021-05-15T02:20:34.516Z</time>
      </trkpt>
      <trkpt lat="47.08726" lon="-1.81586">
        <ele>16.2</ele>
        <time>2021-05-15T02:20:35.847Z</time>
      </trkpt>
      <trkpt lat="47.08721" lon="-1.81598">
        <ele>16.4</ele>
        <time>2021-05-15T02:20:37.177Z</time>
      </trkpt>
      <trkpt lat="47.08716" lon="-1.81611">
        <ele>16.7</ele>
        <time>2021-05-15T02:20:38.589Z</time>
      </trkpt>
      <trkpt lat="47.08711" lon="-1.81624">
        <ele>16.9</ele>
        <time>2021-05-15T02:20:42.203Z</time>
      </trkpt>
      <trkpt lat="47.08707" lon="-1.81636">
        <ele>17</ele>
        <time>2021-05-15T02:20:43.466Z</time>
      </trkpt>
      <trkpt lat="47.087" lon="-1.81654">
        <ele>17.2</ele>
        <time>2021-05-15T02:20:45.427Z</time>
      </trkpt>
      <trkpt lat="47.08695" lon="-1.81666">
        <ele>17.3</ele>
        <time>2021-05-15T02:20:46.757Z</time>
      </trkpt>
      <trkpt lat="47.08689" lon="-1.81677">
        <ele>17.5</ele>
        <time>2021-05-15T02:20:48.090Z</time>
      </trkpt>
      <trkpt lat="47.0868" lon="-1.81685">
        <ele>17.7</ele>
        <time>2021-05-15T02:20:49.551Z</time>
      </trkpt>
      <trkpt lat="47.08671" lon="-1.8169">
        <ele>17.9</ele>
        <time>2021-05-15T02:20:50.887Z</time>
      </trkpt>
      <trkpt lat="47.08661" lon="-1.81695">
        <ele>18.1</ele>
        <time>2021-05-15T02:20:52.354Z</time>
      </trkpt>
      <trkpt lat="47.08652" lon="-1.81696">
        <ele>18.2</ele>
        <time>2021-05-15T02:20:55.997Z</time>
      </trkpt>
      <trkpt lat="47.08642" lon="-1.81695">
        <ele>18.3</ele>
        <time>2021-05-15T02:20:57.389Z</time>
      </trkpt>
      <trkpt lat="47.08633" lon="-1.81693">
        <ele>18.4</ele>
        <time>2021-05-15T02:20:58.653Z</time>
      </trkpt>
      <trkpt lat="47.08623" lon="-1.8169">
        <ele>18.5</ele>
        <time>2021-05-15T02:21:00.071Z</time>
      </trkpt>
      <trkpt lat="47.08613" lon="-1.81687">
        <ele>18.6</ele>
        <time>2021-05-15T02:21:03.686Z</time>
      </trkpt>
      <trkpt lat="47.08603" lon="-1.81685">
        <ele>18.8</ele>
        <time>2021-05-15T02:21:04.467Z</time>
      </trkpt>
      <trkpt lat="47.08593" lon="-1.81682">
        <ele>18.9</ele>
        <time>2021-05-15T02:21:05.884Z</time>
      </trkpt>
      <trkpt lat="47.08584" lon="-1.81679">
        <ele>19</ele>
        <time>2021-05-15T02:21:07.166Z</time>
      </trkpt>
      <trkpt lat="47.08574" lon="-1.81678">
        <ele>19</ele>
        <time>2021-05-15T02:21:08.558Z</time>
      </trkpt>
      <trkpt lat="47.08564" lon="-1.81676">
        <ele>19</ele>
        <time>2021-05-15T02:21:09.959Z</time>
      </trkpt>
      <trkpt lat="47.08554" lon="-1.81673">
        <ele>19</ele>
        <time>2021-05-15T02:21:11.377Z</time>
      </trkpt>
      <trkpt lat="47.08543" lon="-1.8167">
        <ele>19</ele>
        <time>2021-05-15T02:21:15.039Z</time>
      </trkpt>
      <trkpt lat="47.08533" lon="-1.81668">
        <ele>19</ele>
        <time>2021-05-15T02:21:16.440Z</time>
      </trkpt>
      <trkpt lat="47.08523" lon="-1.81666">
        <ele>19</ele>
        <time>2021-05-15T02:21:17.842Z</time>
      </trkpt>
      <trkpt lat="47.08513" lon="-1.81664">
        <ele>19.1</ele>
        <time>2021-05-15T02:21:19.244Z</time>
      </trkpt>
      <trkpt lat="47.08502" lon="-1.81663">
        <ele>19.1</ele>
        <time>2021-05-15T02:21:20.774Z</time>
      </trkpt>
      <trkpt lat="47.08492" lon="-1.81661">
        <ele>19.2</ele>
        <time>2021-05-15T02:21:22.176Z</time>
      </trkpt>
      <trkpt lat="47.08481" lon="-1.8166">
        <ele>19.4</ele>
        <time>2021-05-15T02:21:23.706Z</time>
      </trkpt>
      <trkpt lat="47.08471" lon="-1.81658">
        <ele>19.5</ele>
        <time>2021-05-15T02:21:25.108Z</time>
      </trkpt>
      <trkpt lat="47.08461" lon="-1.81657">
        <ele>19.6</ele>
        <time>2021-05-15T02:21:26.500Z</time>
      </trkpt>
      <trkpt lat="47.0845" lon="-1.81655">
        <ele>19.8</ele>
        <time>2021-05-15T02:21:28.039Z</time>
      </trkpt>
      <trkpt lat="47.08438" lon="-1.81653">
        <ele>19.9</ele>
        <time>2021-05-15T02:21:29.717Z</time>
      </trkpt>
      <trkpt lat="47.08428" lon="-1.81652">
        <ele>20.1</ele>
        <time>2021-05-15T02:21:31.109Z</time>
      </trkpt>
      <trkpt lat="47.08417" lon="-1.8165">
        <ele>20.2</ele>
        <time>2021-05-15T02:21:32.648Z</time>
      </trkpt>
      <trkpt lat="47.08406" lon="-1.81649">
        <ele>20.1</ele>
        <time>2021-05-15T02:21:34.179Z</time>
      </trkpt>
      <trkpt lat="47.08395" lon="-1.81648">
        <ele>20</ele>
        <time>2021-05-15T02:21:35.709Z</time>
      </trkpt>
      <trkpt lat="47.08384" lon="-1.81646">
        <ele>19.9</ele>
        <time>2021-05-15T02:21:37.249Z</time>
      </trkpt>
      <trkpt lat="47.08374" lon="-1.81644">
        <ele>19.8</ele>
        <time>2021-05-15T02:21:38.650Z</time>
      </trkpt>
      <trkpt lat="47.08363" lon="-1.81643">
        <ele>19.6</ele>
        <time>2021-05-15T02:21:40.181Z</time>
      </trkpt>
      <trkpt lat="47.08353" lon="-1.81641">
        <ele>19.5</ele>
        <time>2021-05-15T02:21:41.582Z</time>
      </trkpt>
      <trkpt lat="47.08342" lon="-1.8164">
        <ele>19.4</ele>
        <time>2021-05-15T02:21:43.113Z</time>
      </trkpt>
      <trkpt lat="47.08332" lon="-1.81638">
        <ele>19.4</ele>
        <time>2021-05-15T02:21:44.515Z</time>
      </trkpt>
      <trkpt lat="47.08321" lon="-1.81637">
        <ele>19.5</ele>
        <time>2021-05-15T02:21:46.045Z</time>
      </trkpt>
      <trkpt lat="47.08311" lon="-1.81636">
        <ele>19.6</ele>
        <time>2021-05-15T02:21:47.437Z</time>
      </trkpt>
      <trkpt lat="47.08301" lon="-1.81636">
        <ele>19.8</ele>
        <time>2021-05-15T02:21:48.211Z</time>
      </trkpt>
      <trkpt lat="47.0829" lon="-1.81636">
        <ele>19.9</ele>
        <time>2021-05-15T02:21:49.739Z</time>
      </trkpt>
      <trkpt lat="47.08279" lon="-1.81636">
        <ele>20</ele>
        <time>2021-05-15T02:21:53.388Z</time>
      </trkpt>
      <trkpt lat="47.08269" lon="-1.81635">
        <ele>20.2</ele>
        <time>2021-05-15T02:21:54.780Z</time>
      </trkpt>
      <trkpt lat="47.08258" lon="-1.81634">
        <ele>20.3</ele>
        <time>2021-05-15T02:21:56.311Z</time>
      </trkpt>
      <trkpt lat="47.08247" lon="-1.81633">
        <ele>20.4</ele>
        <time>2021-05-15T02:21:57.842Z</time>
      </trkpt>
      <trkpt lat="47.08236" lon="-1.81633">
        <ele>20.2</ele>
        <time>2021-05-15T02:21:59.369Z</time>
      </trkpt>
      <trkpt lat="47.08225" lon="-1.81632">
        <ele>20.1</ele>
        <time>2021-05-15T02:22:00.900Z</time>
      </trkpt>
      <trkpt lat="47.08214" lon="-1.81631">
        <ele>20</ele>
        <time>2021-05-15T02:22:01.753Z</time>
      </trkpt>
      <trkpt lat="47.08203" lon="-1.81631">
        <ele>19.9</ele>
        <time>2021-05-15T02:22:03.280Z</time>
      </trkpt>
      <trkpt lat="47.08192" lon="-1.81631">
        <ele>19.7</ele>
        <time>2021-05-15T02:22:04.808Z</time>
      </trkpt>
      <trkpt lat="47.08182" lon="-1.8163">
        <ele>19.6</ele>
        <time>2021-05-15T02:22:06.200Z</time>
      </trkpt>
      <trkpt lat="47.08171" lon="-1.8163">
        <ele>19.5</ele>
        <time>2021-05-15T02:22:07.728Z</time>
      </trkpt>
      <trkpt lat="47.0816" lon="-1.81629">
        <ele>19.6</ele>
        <time>2021-05-15T02:22:11.378Z</time>
      </trkpt>
      <trkpt lat="47.08149" lon="-1.81628">
        <ele>19.8</ele>
        <time>2021-05-15T02:22:12.909Z</time>
      </trkpt>
      <trkpt lat="47.08138" lon="-1.81627">
        <ele>20</ele>
        <time>2021-05-15T02:22:14.440Z</time>
      </trkpt>
      <trkpt lat="47.08127" lon="-1.81626">
        <ele>20.2</ele>
        <time>2021-05-15T02:22:15.970Z</time>
      </trkpt>
      <trkpt lat="47.08116" lon="-1.81624">
        <ele>20.4</ele>
        <time>2021-05-15T02:22:17.510Z</time>
      </trkpt>
      <trkpt lat="47.08105" lon="-1.81622">
        <ele>20.6</ele>
        <time>2021-05-15T02:22:19.049Z</time>
      </trkpt>
      <trkpt lat="47.08094" lon="-1.81619">
        <ele>20.8</ele>
        <time>2021-05-15T02:22:20.603Z</time>
      </trkpt>
      <trkpt lat="47.08083" lon="-1.81615">
        <ele>21</ele>
        <time>2021-05-15T02:22:22.177Z</time>
      </trkpt>
      <trkpt lat="47.08072" lon="-1.81611">
        <ele>21.5</ele>
        <time>2021-05-15T02:22:23.750Z</time>
      </trkpt>
      <trkpt lat="47.08062" lon="-1.81606">
        <ele>21.8</ele>
        <time>2021-05-15T02:22:25.218Z</time>
      </trkpt>
      <trkpt lat="47.08051" lon="-1.816">
        <ele>22.2</ele>
        <time>2021-05-15T02:22:26.847Z</time>
      </trkpt>
      <trkpt lat="47.08041" lon="-1.81594">
        <ele>22.6</ele>
        <time>2021-05-15T02:22:28.347Z</time>
      </trkpt>
      <trkpt lat="47.0803" lon="-1.81588">
        <ele>23</ele>
        <time>2021-05-15T02:22:29.977Z</time>
      </trkpt>
      <trkpt lat="47.08019" lon="-1.81582">
        <ele>23.3</ele>
        <time>2021-05-15T02:22:31.607Z</time>
      </trkpt>
      <trkpt lat="47.08008" lon="-1.81576">
        <ele>23.5</ele>
        <time>2021-05-15T02:22:33.236Z</time>
      </trkpt>
      <trkpt lat="47.07997" lon="-1.8157">
        <ele>23.4</ele>
        <time>2021-05-15T02:22:34.866Z</time>
      </trkpt>
      <trkpt lat="47.07986" lon="-1.81566">
        <ele>22.9</ele>
        <time>2021-05-15T02:22:36.440Z</time>
      </trkpt>
      <trkpt lat="47.07975" lon="-1.81563">
        <ele>22.5</ele>
        <time>2021-05-15T02:22:37.994Z</time>
      </trkpt>
      <trkpt lat="47.07963" lon="-1.8156">
        <ele>22.1</ele>
        <time>2021-05-15T02:22:39.684Z</time>
      </trkpt>
      <trkpt lat="47.07951" lon="-1.81559">
        <ele>21.7</ele>
        <time>2021-05-15T02:22:41.354Z</time>
      </trkpt>
      <trkpt lat="47.0794" lon="-1.81559">
        <ele>21.4</ele>
        <time>2021-05-15T02:22:42.881Z</time>
      </trkpt>
      <trkpt lat="47.07928" lon="-1.8156">
        <ele>21.1</ele>
        <time>2021-05-15T02:22:44.551Z</time>
      </trkpt>
      <trkpt lat="47.07917" lon="-1.8156">
        <ele>20.7</ele>
        <time>2021-05-15T02:22:46.078Z</time>
      </trkpt>
      <trkpt lat="47.07906" lon="-1.81561">
        <ele>20.4</ele>
        <time>2021-05-15T02:22:47.609Z</time>
      </trkpt>
      <trkpt lat="47.07894" lon="-1.81562">
        <ele>20.1</ele>
        <time>2021-05-15T02:22:49.278Z</time>
      </trkpt>
      <trkpt lat="47.07884" lon="-1.81562">
        <ele>19.8</ele>
        <time>2021-05-15T02:22:50.667Z</time>
      </trkpt>
      <trkpt lat="47.07873" lon="-1.81563">
        <ele>19.4</ele>
        <time>2021-05-15T02:22:52.198Z</time>
      </trkpt>
      <trkpt lat="47.07863" lon="-1.81563">
        <ele>19.1</ele>
        <time>2021-05-15T02:22:53.586Z</time>
      </trkpt>
      <trkpt lat="47.07852" lon="-1.81562">
        <ele>18.8</ele>
        <time>2021-05-15T02:22:57.237Z</time>
      </trkpt>
      <trkpt lat="47.07841" lon="-1.81561">
        <ele>18.5</ele>
        <time>2021-05-15T02:22:58.768Z</time>
      </trkpt>
      <trkpt lat="47.0783" lon="-1.81559">
        <ele>18.3</ele>
        <time>2021-05-15T02:23:00.307Z</time>
      </trkpt>
      <trkpt lat="47.07819" lon="-1.81557">
        <ele>18.5</ele>
        <time>2021-05-15T02:23:01.846Z</time>
      </trkpt>
      <trkpt lat="47.07808" lon="-1.81554">
        <ele>18.7</ele>
        <time>2021-05-15T02:23:03.400Z</time>
      </trkpt>
      <trkpt lat="47.07797" lon="-1.81553">
        <ele>18.8</ele>
        <time>2021-05-15T02:23:04.931Z</time>
      </trkpt>
      <trkpt lat="47.07787" lon="-1.81551">
        <ele>18.9</ele>
        <time>2021-05-15T02:23:06.332Z</time>
      </trkpt>
      <trkpt lat="47.07776" lon="-1.8155">
        <ele>19.1</ele>
        <time>2021-05-15T02:23:07.863Z</time>
      </trkpt>
      <trkpt lat="47.07764" lon="-1.8155">
        <ele>19.2</ele>
        <time>2021-05-15T02:23:09.530Z</time>
      </trkpt>
      <trkpt lat="47.07754" lon="-1.8155">
        <ele>19.4</ele>
        <time>2021-05-15T02:23:10.918Z</time>
      </trkpt>
      <trkpt lat="47.07743" lon="-1.81549">
        <ele>19.5</ele>
        <time>2021-05-15T02:23:12.449Z</time>
      </trkpt>
      <trkpt lat="47.07733" lon="-1.81548">
        <ele>19.6</ele>
        <time>2021-05-15T02:23:13.841Z</time>
      </trkpt>
      <trkpt lat="47.07722" lon="-1.81548">
        <ele>19.8</ele>
        <time>2021-05-15T02:23:15.369Z</time>
      </trkpt>
      <trkpt lat="47.07711" lon="-1.81547">
        <ele>19.9</ele>
        <time>2021-05-15T02:23:16.899Z</time>
      </trkpt>
      <trkpt lat="47.07701" lon="-1.81547">
        <ele>20</ele>
        <time>2021-05-15T02:23:18.288Z</time>
      </trkpt>
      <trkpt lat="47.0769" lon="-1.81546">
        <ele>20.2</ele>
        <time>2021-05-15T02:23:19.819Z</time>
      </trkpt>
      <trkpt lat="47.07679" lon="-1.81545">
        <ele>20.3</ele>
        <time>2021-05-15T02:23:21.349Z</time>
      </trkpt>
      <trkpt lat="47.07668" lon="-1.81544">
        <ele>20.5</ele>
        <time>2021-05-15T02:23:22.880Z</time>
      </trkpt>
      <trkpt lat="47.07657" lon="-1.81542">
        <ele>20.4</ele>
        <time>2021-05-15T02:23:24.419Z</time>
      </trkpt>
      <trkpt lat="47.07646" lon="-1.81539">
        <ele>20.3</ele>
        <time>2021-05-15T02:23:25.973Z</time>
      </trkpt>
      <trkpt lat="47.07636" lon="-1.81534">
        <ele>20.2</ele>
        <time>2021-05-15T02:23:27.440Z</time>
      </trkpt>
      <trkpt lat="47.07626" lon="-1.81528">
        <ele>20.2</ele>
        <time>2021-05-15T02:23:28.941Z</time>
      </trkpt>
      <trkpt lat="47.07617" lon="-1.8152">
        <ele>20.2</ele>
        <time>2021-05-15T02:23:30.402Z</time>
      </trkpt>
      <trkpt lat="47.07608" lon="-1.81511">
        <ele>20.2</ele>
        <time>2021-05-15T02:23:31.914Z</time>
      </trkpt>
      <trkpt lat="47.07599" lon="-1.81502">
        <ele>20.2</ele>
        <time>2021-05-15T02:23:33.426Z</time>
      </trkpt>
      <trkpt lat="47.0759" lon="-1.81492">
        <ele>20.2</ele>
        <time>2021-05-15T02:23:34.994Z</time>
      </trkpt>
      <trkpt lat="47.07581" lon="-1.81483">
        <ele>20.3</ele>
        <time>2021-05-15T02:23:36.506Z</time>
      </trkpt>
      <trkpt lat="47.07572" lon="-1.81474">
        <ele>20.5</ele>
        <time>2021-05-15T02:23:38.018Z</time>
      </trkpt>
      <trkpt lat="47.07563" lon="-1.81465">
        <ele>20.8</ele>
        <time>2021-05-15T02:23:39.530Z</time>
      </trkpt>
      <trkpt lat="47.07555" lon="-1.81457">
        <ele>21</ele>
        <time>2021-05-15T02:23:40.875Z</time>
      </trkpt>
      <trkpt lat="47.07545" lon="-1.81449">
        <ele>21.3</ele>
        <time>2021-05-15T02:23:42.456Z</time>
      </trkpt>
      <trkpt lat="47.07535" lon="-1.81443">
        <ele>21.4</ele>
        <time>2021-05-15T02:23:43.956Z</time>
      </trkpt>
      <trkpt lat="47.07524" lon="-1.81443">
        <ele>21.6</ele>
        <time>2021-05-15T02:23:45.484Z</time>
      </trkpt>
      <trkpt lat="47.07513" lon="-1.81447">
        <ele>21.8</ele>
        <time>2021-05-15T02:23:47.058Z</time>
      </trkpt>
      <trkpt lat="47.07503" lon="-1.81453">
        <ele>21.9</ele>
        <time>2021-05-15T02:23:48.558Z</time>
      </trkpt>
      <trkpt lat="47.07492" lon="-1.8146">
        <ele>22.1</ele>
        <time>2021-05-15T02:23:50.223Z</time>
      </trkpt>
      <trkpt lat="47.07482" lon="-1.81466">
        <ele>22.2</ele>
        <time>2021-05-15T02:23:51.724Z</time>
      </trkpt>
      <trkpt lat="47.07472" lon="-1.81472">
        <ele>22.3</ele>
        <time>2021-05-15T02:23:53.224Z</time>
      </trkpt>
      <trkpt lat="47.07462" lon="-1.81477">
        <ele>22.5</ele>
        <time>2021-05-15T02:23:54.691Z</time>
      </trkpt>
      <trkpt lat="47.0745" lon="-1.81481">
        <ele>22.6</ele>
        <time>2021-05-15T02:23:56.400Z</time>
      </trkpt>
      <trkpt lat="47.07439" lon="-1.81483">
        <ele>22.7</ele>
        <time>2021-05-15T02:23:57.258Z</time>
      </trkpt>
      <trkpt lat="47.07428" lon="-1.81484">
        <ele>22.9</ele>
        <time>2021-05-15T02:24:00.908Z</time>
      </trkpt>
      <trkpt lat="47.07417" lon="-1.81484">
        <ele>23</ele>
        <time>2021-05-15T02:24:02.436Z</time>
      </trkpt>
      <trkpt lat="47.07405" lon="-1.81485">
        <ele>22.9</ele>
        <time>2021-05-15T02:24:03.366Z</time>
      </trkpt>
      <trkpt lat="47.07394" lon="-1.81485">
        <ele>22.8</ele>
        <time>2021-05-15T02:24:07.015Z</time>
      </trkpt>
      <trkpt lat="47.07383" lon="-1.81485">
        <ele>22.7</ele>
        <time>2021-05-15T02:24:08.543Z</time>
      </trkpt>
      <trkpt lat="47.07372" lon="-1.81484">
        <ele>22.7</ele>
        <time>2021-05-15T02:24:12.194Z</time>
      </trkpt>
      <trkpt lat="47.07361" lon="-1.81482">
        <ele>22.6</ele>
        <time>2021-05-15T02:24:13.733Z</time>
      </trkpt>
      <trkpt lat="47.0735" lon="-1.81478">
        <ele>22.6</ele>
        <time>2021-05-15T02:24:17.405Z</time>
      </trkpt>
      <trkpt lat="47.07339" lon="-1.81473">
        <ele>22.7</ele>
        <time>2021-05-15T02:24:19.005Z</time>
      </trkpt>
      <trkpt lat="47.07328" lon="-1.81468">
        <ele>22.7</ele>
        <time>2021-05-15T02:24:19.896Z</time>
      </trkpt>
      <trkpt lat="47.07317" lon="-1.81462">
        <ele>22.5</ele>
        <time>2021-05-15T02:24:21.525Z</time>
      </trkpt>
      <trkpt lat="47.07307" lon="-1.81457">
        <ele>22.4</ele>
        <time>2021-05-15T02:24:25.152Z</time>
      </trkpt>
      <trkpt lat="47.07297" lon="-1.8145">
        <ele>22.2</ele>
        <time>2021-05-15T02:24:26.690Z</time>
      </trkpt>
      <trkpt lat="47.07288" lon="-1.81442">
        <ele>22.1</ele>
        <time>2021-05-15T02:24:28.152Z</time>
      </trkpt>
      <trkpt lat="47.07278" lon="-1.81433">
        <ele>21.9</ele>
        <time>2021-05-15T02:24:29.059Z</time>
      </trkpt>
      <trkpt lat="47.07269" lon="-1.81425">
        <ele>21.6</ele>
        <time>2021-05-15T02:24:32.684Z</time>
      </trkpt>
      <trkpt lat="47.0726" lon="-1.81417">
        <ele>21.4</ele>
        <time>2021-05-15T02:24:34.145Z</time>
      </trkpt>
      <trkpt lat="47.07251" lon="-1.81408">
        <ele>21</ele>
        <time>2021-05-15T02:24:35.657Z</time>
      </trkpt>
      <trkpt lat="47.07242" lon="-1.81399">
        <ele>21.3</ele>
        <time>2021-05-15T02:24:37.170Z</time>
      </trkpt>
      <trkpt lat="47.07233" lon="-1.81391">
        <ele>21.6</ele>
        <time>2021-05-15T02:24:38.631Z</time>
      </trkpt>
      <trkpt lat="47.07224" lon="-1.81382">
        <ele>21.9</ele>
        <time>2021-05-15T02:24:40.143Z</time>
      </trkpt>
      <trkpt lat="47.07215" lon="-1.81373">
        <ele>22.3</ele>
        <time>2021-05-15T02:24:41.655Z</time>
      </trkpt>
      <trkpt lat="47.07206" lon="-1.81364">
        <ele>22.6</ele>
        <time>2021-05-15T02:24:43.168Z</time>
      </trkpt>
      <trkpt lat="47.07196" lon="-1.81356">
        <ele>22.9</ele>
        <time>2021-05-15T02:24:44.749Z</time>
      </trkpt>
      <trkpt lat="47.07186" lon="-1.81349">
        <ele>23.3</ele>
        <time>2021-05-15T02:24:46.288Z</time>
      </trkpt>
      <trkpt lat="47.07176" lon="-1.81346">
        <ele>23.7</ele>
        <time>2021-05-15T02:24:49.903Z</time>
      </trkpt>
      <trkpt lat="47.07166" lon="-1.8135">
        <ele>24</ele>
        <time>2021-05-15T02:24:51.342Z</time>
      </trkpt>
      <trkpt lat="47.07157" lon="-1.81358">
        <ele>24.1</ele>
        <time>2021-05-15T02:24:52.803Z</time>
      </trkpt>
      <trkpt lat="47.07149" lon="-1.81368">
        <ele>24.1</ele>
        <time>2021-05-15T02:24:54.262Z</time>
      </trkpt>
      <trkpt lat="47.0714" lon="-1.81377">
        <ele>24.2</ele>
        <time>2021-05-15T02:24:55.775Z</time>
      </trkpt>
      <trkpt lat="47.07132" lon="-1.81387">
        <ele>24.1</ele>
        <time>2021-05-15T02:24:57.234Z</time>
      </trkpt>
      <trkpt lat="47.07124" lon="-1.81396">
        <ele>24.1</ele>
        <time>2021-05-15T02:24:58.634Z</time>
      </trkpt>
      <trkpt lat="47.07116" lon="-1.81406">
        <ele>24.1</ele>
        <time>2021-05-15T02:25:00.093Z</time>
      </trkpt>
      <trkpt lat="47.07108" lon="-1.81416">
        <ele>24</ele>
        <time>2021-05-15T02:25:03.717Z</time>
      </trkpt>
      <trkpt lat="47.071" lon="-1.81427">
        <ele>24.2</ele>
        <time>2021-05-15T02:25:05.239Z</time>
      </trkpt>
      <trkpt lat="47.07093" lon="-1.81437">
        <ele>24.5</ele>
        <time>2021-05-15T02:25:06.596Z</time>
      </trkpt>
      <trkpt lat="47.07085" lon="-1.81447">
        <ele>24.7</ele>
        <time>2021-05-15T02:25:08.055Z</time>
      </trkpt>
      <trkpt lat="47.07078" lon="-1.81458">
        <ele>25</ele>
        <time>2021-05-15T02:25:09.479Z</time>
      </trkpt>
      <trkpt lat="47.07071" lon="-1.8147">
        <ele>25.3</ele>
        <time>2021-05-15T02:25:10.973Z</time>
      </trkpt>
      <trkpt lat="47.07065" lon="-1.81482">
        <ele>25.6</ele>
        <time>2021-05-15T02:25:12.381Z</time>
      </trkpt>
      <trkpt lat="47.07058" lon="-1.81494">
        <ele>25.9</ele>
        <time>2021-05-15T02:25:13.876Z</time>
      </trkpt>
      <trkpt lat="47.07052" lon="-1.81506">
        <ele>26</ele>
        <time>2021-05-15T02:25:17.489Z</time>
      </trkpt>
      <trkpt lat="47.07047" lon="-1.81519">
        <ele>26.1</ele>
        <time>2021-05-15T02:25:21.103Z</time>
      </trkpt>
      <trkpt lat="47.07041" lon="-1.81532">
        <ele>26.2</ele>
        <time>2021-05-15T02:25:22.589Z</time>
      </trkpt>
      <trkpt lat="47.07035" lon="-1.81544">
        <ele>26.3</ele>
        <time>2021-05-15T02:25:23.997Z</time>
      </trkpt>
      <trkpt lat="47.0703" lon="-1.81557">
        <ele>26.4</ele>
        <time>2021-05-15T02:25:24.784Z</time>
      </trkpt>
      <trkpt lat="47.07025" lon="-1.81571">
        <ele>26.6</ele>
        <time>2021-05-15T02:25:28.420Z</time>
      </trkpt>
      <trkpt lat="47.07022" lon="-1.81586">
        <ele>26.7</ele>
        <time>2021-05-15T02:25:29.899Z</time>
      </trkpt>
      <trkpt lat="47.07017" lon="-1.816">
        <ele>26.6</ele>
        <time>2021-05-15T02:25:31.394Z</time>
      </trkpt>
      <trkpt lat="47.07013" lon="-1.81614">
        <ele>26.5</ele>
        <time>2021-05-15T02:25:32.830Z</time>
      </trkpt>
      <trkpt lat="47.0701" lon="-1.81629">
        <ele>26.3</ele>
        <time>2021-05-15T02:25:36.461Z</time>
      </trkpt>
      <trkpt lat="47.07006" lon="-1.81643">
        <ele>26.2</ele>
        <time>2021-05-15T02:25:37.897Z</time>
      </trkpt>
      <trkpt lat="47.07001" lon="-1.81657">
        <ele>26.1</ele>
        <time>2021-05-15T02:25:39.392Z</time>
      </trkpt>
      <trkpt lat="47.06997" lon="-1.81672">
        <ele>26.1</ele>
        <time>2021-05-15T02:25:40.916Z</time>
      </trkpt>
      <trkpt lat="47.06993" lon="-1.81686">
        <ele>26.2</ele>
        <time>2021-05-15T02:25:42.352Z</time>
      </trkpt>
      <trkpt lat="47.06988" lon="-1.817">
        <ele>26.3</ele>
        <time>2021-05-15T02:25:43.847Z</time>
      </trkpt>
      <trkpt lat="47.06983" lon="-1.81714">
        <ele>26.4</ele>
        <time>2021-05-15T02:25:45.342Z</time>
      </trkpt>
      <trkpt lat="47.06978" lon="-1.81728">
        <ele>26.5</ele>
        <time>2021-05-15T02:25:46.838Z</time>
      </trkpt>
      <trkpt lat="47.06973" lon="-1.81741">
        <ele>26.6</ele>
        <time>2021-05-15T02:25:48.250Z</time>
      </trkpt>
      <trkpt lat="47.06968" lon="-1.81754">
        <ele>26.8</ele>
        <time>2021-05-15T02:25:51.864Z</time>
      </trkpt>
      <trkpt lat="47.06963" lon="-1.81767">
        <ele>27.2</ele>
        <time>2021-05-15T02:25:53.276Z</time>
      </trkpt>
      <trkpt lat="47.06957" lon="-1.81779">
        <ele>27.6</ele>
        <time>2021-05-15T02:25:54.684Z</time>
      </trkpt>
      <trkpt lat="47.06952" lon="-1.81792">
        <ele>27.9</ele>
        <time>2021-05-15T02:25:56.097Z</time>
      </trkpt>
      <trkpt lat="47.06946" lon="-1.81805">
        <ele>28.4</ele>
        <time>2021-05-15T02:25:57.582Z</time>
      </trkpt>
      <trkpt lat="47.06941" lon="-1.81819">
        <ele>28.8</ele>
        <time>2021-05-15T02:25:59.077Z</time>
      </trkpt>
      <trkpt lat="47.06935" lon="-1.81832">
        <ele>29.3</ele>
        <time>2021-05-15T02:26:00.563Z</time>
      </trkpt>
      <trkpt lat="47.06929" lon="-1.81845">
        <ele>29.7</ele>
        <time>2021-05-15T02:26:02.048Z</time>
      </trkpt>
      <trkpt lat="47.06924" lon="-1.81857">
        <ele>30</ele>
        <time>2021-05-15T02:26:05.663Z</time>
      </trkpt>
      <trkpt lat="47.06919" lon="-1.8187">
        <ele>30.4</ele>
        <time>2021-05-15T02:26:07.075Z</time>
      </trkpt>
      <trkpt lat="47.06914" lon="-1.81883">
        <ele>30.6</ele>
        <time>2021-05-15T02:26:08.487Z</time>
      </trkpt>
      <trkpt lat="47.06908" lon="-1.81897">
        <ele>30.9</ele>
        <time>2021-05-15T02:26:12.154Z</time>
      </trkpt>
      <trkpt lat="47.06903" lon="-1.81911">
        <ele>31.1</ele>
        <time>2021-05-15T02:26:13.650Z</time>
      </trkpt>
      <trkpt lat="47.06898" lon="-1.81926">
        <ele>31.4</ele>
        <time>2021-05-15T02:26:15.229Z</time>
      </trkpt>
      <trkpt lat="47.06894" lon="-1.81942">
        <ele>31.7</ele>
        <time>2021-05-15T02:26:16.842Z</time>
      </trkpt>
      <trkpt lat="47.06893" lon="-1.81958">
        <ele>32</ele>
        <time>2021-05-15T02:26:18.361Z</time>
      </trkpt>
      <trkpt lat="47.06893" lon="-1.81973">
        <ele>32.3</ele>
        <time>2021-05-15T02:26:19.780Z</time>
      </trkpt>
      <trkpt lat="47.06894" lon="-1.81989">
        <ele>32.5</ele>
        <time>2021-05-15T02:26:21.300Z</time>
      </trkpt>
      <trkpt lat="47.06895" lon="-1.82004">
        <ele>32.8</ele>
        <time>2021-05-15T02:26:24.917Z</time>
      </trkpt>
      <trkpt lat="47.06896" lon="-1.8202">
        <ele>32.8</ele>
        <time>2021-05-15T02:26:26.436Z</time>
      </trkpt>
      <trkpt lat="47.06898" lon="-1.82034">
        <ele>32.9</ele>
        <time>2021-05-15T02:26:27.789Z</time>
      </trkpt>
      <trkpt lat="47.069" lon="-1.82049">
        <ele>32.9</ele>
        <time>2021-05-15T02:26:29.235Z</time>
      </trkpt>
      <trkpt lat="47.06901" lon="-1.82064">
        <ele>33</ele>
        <time>2021-05-15T02:26:30.661Z</time>
      </trkpt>
      <trkpt lat="47.06903" lon="-1.82079">
        <ele>33</ele>
        <time>2021-05-15T02:26:32.107Z</time>
      </trkpt>
      <trkpt lat="47.06904" lon="-1.82093">
        <ele>32.9</ele>
        <time>2021-05-15T02:26:32.849Z</time>
      </trkpt>
      <trkpt lat="47.06905" lon="-1.82108">
        <ele>32.8</ele>
        <time>2021-05-15T02:26:36.465Z</time>
      </trkpt>
      <trkpt lat="47.06905" lon="-1.82124">
        <ele>32.6</ele>
        <time>2021-05-15T02:26:37.979Z</time>
      </trkpt>
      <trkpt lat="47.06905" lon="-1.8214">
        <ele>32.5</ele>
        <time>2021-05-15T02:26:39.492Z</time>
      </trkpt>
      <trkpt lat="47.06905" lon="-1.82156">
        <ele>32.4</ele>
        <time>2021-05-15T02:26:43.135Z</time>
      </trkpt>
      <trkpt lat="47.06904" lon="-1.82172">
        <ele>32.4</ele>
        <time>2021-05-15T02:26:43.982Z</time>
      </trkpt>
      <trkpt lat="47.06904" lon="-1.82188">
        <ele>32.5</ele>
        <time>2021-05-15T02:26:47.626Z</time>
      </trkpt>
      <trkpt lat="47.06904" lon="-1.82204">
        <ele>32.7</ele>
        <time>2021-05-15T02:26:49.139Z</time>
      </trkpt>
      <trkpt lat="47.06903" lon="-1.8222">
        <ele>32.9</ele>
        <time>2021-05-15T02:26:50.659Z</time>
      </trkpt>
      <trkpt lat="47.06903" lon="-1.82236">
        <ele>33</ele>
        <time>2021-05-15T02:26:52.172Z</time>
      </trkpt>
      <trkpt lat="47.06902" lon="-1.82251">
        <ele>33.2</ele>
        <time>2021-05-15T02:26:53.598Z</time>
      </trkpt>
      <trkpt lat="47.06902" lon="-1.82266">
        <ele>33.2</ele>
        <time>2021-05-15T02:26:55.017Z</time>
      </trkpt>
      <trkpt lat="47.06901" lon="-1.82282">
        <ele>33.3</ele>
        <time>2021-05-15T02:26:58.663Z</time>
      </trkpt>
      <trkpt lat="47.069" lon="-1.82298">
        <ele>33.4</ele>
        <time>2021-05-15T02:27:00.183Z</time>
      </trkpt>
      <trkpt lat="47.06899" lon="-1.82313">
        <ele>33.5</ele>
        <time>2021-05-15T02:27:01.609Z</time>
      </trkpt>
      <trkpt lat="47.06897" lon="-1.82329">
        <ele>33.7</ele>
        <time>2021-05-15T02:27:03.147Z</time>
      </trkpt>
      <trkpt lat="47.06895" lon="-1.82345">
        <ele>34</ele>
        <time>2021-05-15T02:27:04.686Z</time>
      </trkpt>
      <trkpt lat="47.06893" lon="-1.82361">
        <ele>34.3</ele>
        <time>2021-05-15T02:27:06.225Z</time>
      </trkpt>
      <trkpt lat="47.06891" lon="-1.82378">
        <ele>34.6</ele>
        <time>2021-05-15T02:27:09.931Z</time>
      </trkpt>
      <trkpt lat="47.06888" lon="-1.82393">
        <ele>35</ele>
        <time>2021-05-15T02:27:11.410Z</time>
      </trkpt>
      <trkpt lat="47.06886" lon="-1.82409">
        <ele>35.3</ele>
        <time>2021-05-15T02:27:12.948Z</time>
      </trkpt>
      <trkpt lat="47.06883" lon="-1.82425">
        <ele>35.6</ele>
        <time>2021-05-15T02:27:14.518Z</time>
      </trkpt>
      <trkpt lat="47.0688" lon="-1.82441">
        <ele>35.7</ele>
        <time>2021-05-15T02:27:16.088Z</time>
      </trkpt>
      <trkpt lat="47.06879" lon="-1.82458">
        <ele>35.6</ele>
        <time>2021-05-15T02:27:17.702Z</time>
      </trkpt>
      <trkpt lat="47.0688" lon="-1.82475">
        <ele>35.5</ele>
        <time>2021-05-15T02:27:19.316Z</time>
      </trkpt>
      <trkpt lat="47.0688" lon="-1.82493">
        <ele>35.5</ele>
        <time>2021-05-15T02:27:21.019Z</time>
      </trkpt>
      <trkpt lat="47.06882" lon="-1.8251">
        <ele>35.3</ele>
        <time>2021-05-15T02:27:22.651Z</time>
      </trkpt>
      <trkpt lat="47.06883" lon="-1.82528">
        <ele>35.1</ele>
        <time>2021-05-15T02:27:24.359Z</time>
      </trkpt>
      <trkpt lat="47.06885" lon="-1.82545">
        <ele>35</ele>
        <time>2021-05-15T02:27:25.991Z</time>
      </trkpt>
      <trkpt lat="47.06886" lon="-1.82562">
        <ele>34.8</ele>
        <time>2021-05-15T02:27:27.605Z</time>
      </trkpt>
      <trkpt lat="47.06888" lon="-1.82579">
        <ele>34.7</ele>
        <time>2021-05-15T02:27:29.237Z</time>
      </trkpt>
      <trkpt lat="47.06889" lon="-1.82596">
        <ele>34.5</ele>
        <time>2021-05-15T02:27:30.851Z</time>
      </trkpt>
      <trkpt lat="47.06891" lon="-1.82613">
        <ele>34.3</ele>
        <time>2021-05-15T02:27:34.557Z</time>
      </trkpt>
      <trkpt lat="47.06892" lon="-1.8263">
        <ele>34.1</ele>
        <time>2021-05-15T02:27:36.171Z</time>
      </trkpt>
      <trkpt lat="47.06894" lon="-1.82647">
        <ele>34</ele>
        <time>2021-05-15T02:27:37.803Z</time>
      </trkpt>
      <trkpt lat="47.06895" lon="-1.82663">
        <ele>33.8</ele>
        <time>2021-05-15T02:27:38.650Z</time>
      </trkpt>
      <trkpt lat="47.06896" lon="-1.8268">
        <ele>34</ele>
        <time>2021-05-15T02:27:40.264Z</time>
      </trkpt>
      <trkpt lat="47.06895" lon="-1.82697">
        <ele>34.2</ele>
        <time>2021-05-15T02:27:41.878Z</time>
      </trkpt>
      <trkpt lat="47.06895" lon="-1.82714">
        <ele>34.5</ele>
        <time>2021-05-15T02:27:43.486Z</time>
      </trkpt>
      <trkpt lat="47.06895" lon="-1.82731">
        <ele>34.7</ele>
        <time>2021-05-15T02:27:45.094Z</time>
      </trkpt>
      <trkpt lat="47.06895" lon="-1.82748">
        <ele>35</ele>
        <time>2021-05-15T02:27:46.702Z</time>
      </trkpt>
      <trkpt lat="47.06895" lon="-1.82765">
        <ele>35</ele>
        <time>2021-05-15T02:27:48.310Z</time>
      </trkpt>
      <trkpt lat="47.06895" lon="-1.82782">
        <ele>35</ele>
        <time>2021-05-15T02:27:52.002Z</time>
      </trkpt>
      <trkpt lat="47.06896" lon="-1.82798">
        <ele>35</ele>
        <time>2021-05-15T02:27:53.522Z</time>
      </trkpt>
      <trkpt lat="47.06897" lon="-1.82814">
        <ele>35</ele>
        <time>2021-05-15T02:27:55.041Z</time>
      </trkpt>
      <trkpt lat="47.06898" lon="-1.82829">
        <ele>35</ele>
        <time>2021-05-15T02:27:56.467Z</time>
      </trkpt>
      <trkpt lat="47.06899" lon="-1.82846">
        <ele>34.8</ele>
        <time>2021-05-15T02:27:58.081Z</time>
      </trkpt>
      <trkpt lat="47.069" lon="-1.82862">
        <ele>34.6</ele>
        <time>2021-05-15T02:27:59.601Z</time>
      </trkpt>
      <trkpt lat="47.06901" lon="-1.82879">
        <ele>34.3</ele>
        <time>2021-05-15T02:28:01.215Z</time>
      </trkpt>
      <trkpt lat="47.06902" lon="-1.82895">
        <ele>34.1</ele>
        <time>2021-05-15T02:28:02.062Z</time>
      </trkpt>
      <trkpt lat="47.06902" lon="-1.82912">
        <ele>33.9</ele>
        <time>2021-05-15T02:28:03.670Z</time>
      </trkpt>
      <trkpt lat="47.06903" lon="-1.82928">
        <ele>33.9</ele>
        <time>2021-05-15T02:28:05.190Z</time>
      </trkpt>
      <trkpt lat="47.06904" lon="-1.82945">
        <ele>34.1</ele>
        <time>2021-05-15T02:28:08.885Z</time>
      </trkpt>
      <trkpt lat="47.06905" lon="-1.82961">
        <ele>34.3</ele>
        <time>2021-05-15T02:28:10.405Z</time>
      </trkpt>
      <trkpt lat="47.06905" lon="-1.82977">
        <ele>34.5</ele>
        <time>2021-05-15T02:28:11.918Z</time>
      </trkpt>
      <trkpt lat="47.06906" lon="-1.82994">
        <ele>34.7</ele>
        <time>2021-05-15T02:28:12.817Z</time>
      </trkpt>
      <trkpt lat="47.06909" lon="-1.83009">
        <ele>34.7</ele>
        <time>2021-05-15T02:28:14.296Z</time>
      </trkpt>
      <trkpt lat="47.06914" lon="-1.83023">
        <ele>34.7</ele>
        <time>2021-05-15T02:28:15.792Z</time>
      </trkpt>
      <trkpt lat="47.06911" lon="-1.83041">
        <ele>34.3</ele>
        <time>2021-05-15T02:28:17.545Z</time>
      </trkpt>
      <trkpt lat="47.069" lon="-1.83043">
        <ele>34</ele>
        <time>2021-05-15T02:28:19.084Z</time>
      </trkpt>
      <trkpt lat="47.06887" lon="-1.8304">
        <ele>33.6</ele>
        <time>2021-05-15T02:28:20.912Z</time>
      </trkpt>
      <trkpt lat="47.06876" lon="-1.83039">
        <ele>33.3</ele>
        <time>2021-05-15T02:28:21.764Z</time>
      </trkpt>
      <trkpt lat="47.06863" lon="-1.83037">
        <ele>33</ele>
        <time>2021-05-15T02:28:23.580Z</time>
      </trkpt>
      <trkpt lat="47.06851" lon="-1.83036">
        <ele>32.7</ele>
        <time>2021-05-15T02:28:25.249Z</time>
      </trkpt>
      <trkpt lat="47.06838" lon="-1.83035">
        <ele>32.3</ele>
        <time>2021-05-15T02:28:27.057Z</time>
      </trkpt>
      <trkpt lat="47.06826" lon="-1.83034">
        <ele>32.2</ele>
        <time>2021-05-15T02:28:28.726Z</time>
      </trkpt>
      <trkpt lat="47.06813" lon="-1.83034">
        <ele>32.1</ele>
        <time>2021-05-15T02:28:30.531Z</time>
      </trkpt>
      <trkpt lat="47.06801" lon="-1.83036">
        <ele>32.1</ele>
        <time>2021-05-15T02:28:32.209Z</time>
      </trkpt>
      <trkpt lat="47.06788" lon="-1.83037">
        <ele>32.1</ele>
        <time>2021-05-15T02:28:34.017Z</time>
      </trkpt>
      <trkpt lat="47.06776" lon="-1.83039">
        <ele>32</ele>
        <time>2021-05-15T02:28:35.694Z</time>
      </trkpt>
      <trkpt lat="47.06764" lon="-1.83041">
        <ele>32</ele>
        <time>2021-05-15T02:28:37.371Z</time>
      </trkpt>
      <trkpt lat="47.06751" lon="-1.83044">
        <ele>32</ele>
        <time>2021-05-15T02:28:39.199Z</time>
      </trkpt>
      <trkpt lat="47.06738" lon="-1.83045">
        <ele>32.1</ele>
        <time>2021-05-15T02:28:41.007Z</time>
      </trkpt>
      <trkpt lat="47.06726" lon="-1.83048">
        <ele>32.2</ele>
        <time>2021-05-15T02:28:42.697Z</time>
      </trkpt>
      <trkpt lat="47.06713" lon="-1.8305">
        <ele>32.3</ele>
        <time>2021-05-15T02:28:43.709Z</time>
      </trkpt>
      <trkpt lat="47.06701" lon="-1.83053">
        <ele>32.4</ele>
        <time>2021-05-15T02:28:47.454Z</time>
      </trkpt>
      <trkpt lat="47.06688" lon="-1.83055">
        <ele>32.5</ele>
        <time>2021-05-15T02:28:49.269Z</time>
      </trkpt>
      <trkpt lat="47.06676" lon="-1.83058">
        <ele>32.6</ele>
        <time>2021-05-15T02:28:50.960Z</time>
      </trkpt>
      <trkpt lat="47.06664" lon="-1.83061">
        <ele>32.7</ele>
        <time>2021-05-15T02:28:51.901Z</time>
      </trkpt>
      <trkpt lat="47.06652" lon="-1.83064">
        <ele>32.8</ele>
        <time>2021-05-15T02:28:53.592Z</time>
      </trkpt>
      <trkpt lat="47.0664" lon="-1.83067">
        <ele>32.9</ele>
        <time>2021-05-15T02:28:55.283Z</time>
      </trkpt>
      <trkpt lat="47.06627" lon="-1.8307">
        <ele>32.9</ele>
        <time>2021-05-15T02:28:57.110Z</time>
      </trkpt>
      <trkpt lat="47.06615" lon="-1.83073">
        <ele>33</ele>
        <time>2021-05-15T02:28:58.801Z</time>
      </trkpt>
      <trkpt lat="47.06603" lon="-1.83076">
        <ele>33</ele>
        <time>2021-05-15T02:29:00.491Z</time>
      </trkpt>
      <trkpt lat="47.0659" lon="-1.83079">
        <ele>33</ele>
        <time>2021-05-15T02:29:02.319Z</time>
      </trkpt>
      <trkpt lat="47.06578" lon="-1.83083">
        <ele>33</ele>
        <time>2021-05-15T02:29:06.077Z</time>
      </trkpt>
      <trkpt lat="47.06566" lon="-1.83087">
        <ele>33.1</ele>
        <time>2021-05-15T02:29:07.786Z</time>
      </trkpt>
      <trkpt lat="47.06554" lon="-1.83091">
        <ele>33.1</ele>
        <time>2021-05-15T02:29:09.495Z</time>
      </trkpt>
      <trkpt lat="47.06543" lon="-1.83096">
        <ele>33.2</ele>
        <time>2021-05-15T02:29:11.094Z</time>
      </trkpt>
      <trkpt lat="47.06532" lon="-1.83101">
        <ele>33.2</ele>
        <time>2021-05-15T02:29:12.693Z</time>
      </trkpt>
      <trkpt lat="47.0652" lon="-1.83105">
        <ele>33.1</ele>
        <time>2021-05-15T02:29:14.402Z</time>
      </trkpt>
      <trkpt lat="47.06509" lon="-1.8311">
        <ele>33.1</ele>
        <time>2021-05-15T02:29:16.002Z</time>
      </trkpt>
      <trkpt lat="47.06498" lon="-1.83114">
        <ele>33</ele>
        <time>2021-05-15T02:29:17.576Z</time>
      </trkpt>
      <trkpt lat="47.06486" lon="-1.83119">
        <ele>32.9</ele>
        <time>2021-05-15T02:29:19.308Z</time>
      </trkpt>
      <trkpt lat="47.06475" lon="-1.83124">
        <ele>32.9</ele>
        <time>2021-05-15T02:29:20.907Z</time>
      </trkpt>
      <trkpt lat="47.06464" lon="-1.83129">
        <ele>32.8</ele>
        <time>2021-05-15T02:29:22.506Z</time>
      </trkpt>
      <trkpt lat="47.06453" lon="-1.83134">
        <ele>32.7</ele>
        <time>2021-05-15T02:29:24.106Z</time>
      </trkpt>
      <trkpt lat="47.06442" lon="-1.83138">
        <ele>32.5</ele>
        <time>2021-05-15T02:29:25.680Z</time>
      </trkpt>
      <trkpt lat="47.0643" lon="-1.83143">
        <ele>32.4</ele>
        <time>2021-05-15T02:29:27.412Z</time>
      </trkpt>
      <trkpt lat="47.06419" lon="-1.83148">
        <ele>32.2</ele>
        <time>2021-05-15T02:29:29.011Z</time>
      </trkpt>
      <trkpt lat="47.06407" lon="-1.83153">
        <ele>32.3</ele>
        <time>2021-05-15T02:29:30.744Z</time>
      </trkpt>
      <trkpt lat="47.06396" lon="-1.83158">
        <ele>32.4</ele>
        <time>2021-05-15T02:29:32.343Z</time>
      </trkpt>
      <trkpt lat="47.06384" lon="-1.83162">
        <ele>32.4</ele>
        <time>2021-05-15T02:29:34.052Z</time>
      </trkpt>
      <trkpt lat="47.06373" lon="-1.83167">
        <ele>32.5</ele>
        <time>2021-05-15T02:29:35.651Z</time>
      </trkpt>
      <trkpt lat="47.06362" lon="-1.83173">
        <ele>32.7</ele>
        <time>2021-05-15T02:29:37.281Z</time>
      </trkpt>
      <trkpt lat="47.0635" lon="-1.83178">
        <ele>32.7</ele>
        <time>2021-05-15T02:29:39.013Z</time>
      </trkpt>
      <trkpt lat="47.06338" lon="-1.83182">
        <ele>32.8</ele>
        <time>2021-05-15T02:29:42.771Z</time>
      </trkpt>
      <trkpt lat="47.06327" lon="-1.83187">
        <ele>32.8</ele>
        <time>2021-05-15T02:29:44.371Z</time>
      </trkpt>
      <trkpt lat="47.06316" lon="-1.83191">
        <ele>32.9</ele>
        <time>2021-05-15T02:29:45.944Z</time>
      </trkpt>
      <trkpt lat="47.06304" lon="-1.83196">
        <ele>32.9</ele>
        <time>2021-05-15T02:29:49.720Z</time>
      </trkpt>
      <trkpt lat="47.06292" lon="-1.83199">
        <ele>32.9</ele>
        <time>2021-05-15T02:29:51.410Z</time>
      </trkpt>
      <trkpt lat="47.06281" lon="-1.83201">
        <ele>33</ele>
        <time>2021-05-15T02:29:52.950Z</time>
      </trkpt>
      <trkpt lat="47.0627" lon="-1.83203">
        <ele>33</ele>
        <time>2021-05-15T02:29:54.489Z</time>
      </trkpt>
      <trkpt lat="47.06258" lon="-1.83204">
        <ele>33.1</ele>
        <time>2021-05-15T02:29:56.158Z</time>
      </trkpt>
      <trkpt lat="47.06247" lon="-1.83204">
        <ele>33.1</ele>
        <time>2021-05-15T02:29:57.686Z</time>
      </trkpt>
      <trkpt lat="47.06235" lon="-1.83205">
        <ele>33.2</ele>
        <time>2021-05-15T02:29:59.355Z</time>
      </trkpt>
      <trkpt lat="47.06223" lon="-1.83206">
        <ele>33.4</ele>
        <time>2021-05-15T02:30:03.085Z</time>
      </trkpt>
      <trkpt lat="47.06212" lon="-1.83206">
        <ele>33.5</ele>
        <time>2021-05-15T02:30:04.613Z</time>
      </trkpt>
      <trkpt lat="47.06201" lon="-1.83207">
        <ele>33.6</ele>
        <time>2021-05-15T02:30:06.144Z</time>
      </trkpt>
      <trkpt lat="47.06189" lon="-1.83208">
        <ele>33.7</ele>
        <time>2021-05-15T02:30:07.813Z</time>
      </trkpt>
      <trkpt lat="47.06177" lon="-1.83208">
        <ele>33.9</ele>
        <time>2021-05-15T02:30:09.480Z</time>
      </trkpt>
      <trkpt lat="47.06166" lon="-1.83209">
        <ele>34</ele>
        <time>2021-05-15T02:30:11.010Z</time>
      </trkpt>
      <trkpt lat="47.06154" lon="-1.83209">
        <ele>34</ele>
        <time>2021-05-15T02:30:12.677Z</time>
      </trkpt>
      <trkpt lat="47.06143" lon="-1.8321">
        <ele>34</ele>
        <time>2021-05-15T02:30:14.207Z</time>
      </trkpt>
      <trkpt lat="47.06131" lon="-1.8321">
        <ele>34</ele>
        <time>2021-05-15T02:30:15.874Z</time>
      </trkpt>
      <trkpt lat="47.06119" lon="-1.83211">
        <ele>34</ele>
        <time>2021-05-15T02:30:17.543Z</time>
      </trkpt>
      <trkpt lat="47.06108" lon="-1.83211">
        <ele>34</ele>
        <time>2021-05-15T02:30:19.071Z</time>
      </trkpt>
      <trkpt lat="47.06097" lon="-1.83212">
        <ele>34</ele>
        <time>2021-05-15T02:30:20.602Z</time>
      </trkpt>
      <trkpt lat="47.06085" lon="-1.83213">
        <ele>34</ele>
        <time>2021-05-15T02:30:22.271Z</time>
      </trkpt>
      <trkpt lat="47.06073" lon="-1.83214">
        <ele>34</ele>
        <time>2021-05-15T02:30:23.940Z</time>
      </trkpt>
      <trkpt lat="47.06061" lon="-1.83214">
        <ele>34</ele>
        <time>2021-05-15T02:30:25.607Z</time>
      </trkpt>
      <trkpt lat="47.06049" lon="-1.83215">
        <ele>34</ele>
        <time>2021-05-15T02:30:27.276Z</time>
      </trkpt>
      <trkpt lat="47.06037" lon="-1.83215">
        <ele>34</ele>
        <time>2021-05-15T02:30:28.942Z</time>
      </trkpt>
      <trkpt lat="47.06026" lon="-1.83215">
        <ele>34</ele>
        <time>2021-05-15T02:30:30.470Z</time>
      </trkpt>
      <trkpt lat="47.06014" lon="-1.83217">
        <ele>34</ele>
        <time>2021-05-15T02:30:32.147Z</time>
      </trkpt>
      <trkpt lat="47.06002" lon="-1.83217">
        <ele>34</ele>
        <time>2021-05-15T02:30:33.814Z</time>
      </trkpt>
      <trkpt lat="47.05991" lon="-1.83218">
        <ele>33.9</ele>
        <time>2021-05-15T02:30:35.345Z</time>
      </trkpt>
      <trkpt lat="47.05979" lon="-1.83221">
        <ele>33.7</ele>
        <time>2021-05-15T02:30:37.035Z</time>
      </trkpt>
      <trkpt lat="47.05969" lon="-1.83229">
        <ele>33.5</ele>
        <time>2021-05-15T02:30:38.617Z</time>
      </trkpt>
      <trkpt lat="47.05961" lon="-1.8324">
        <ele>33.5</ele>
        <time>2021-05-15T02:30:40.139Z</time>
      </trkpt>
      <trkpt lat="47.05953" lon="-1.83252">
        <ele>33.4</ele>
        <time>2021-05-15T02:30:41.728Z</time>
      </trkpt>
      <trkpt lat="47.05945" lon="-1.83264">
        <ele>33.3</ele>
        <time>2021-05-15T02:30:43.316Z</time>
      </trkpt>
      <trkpt lat="47.05937" lon="-1.83276">
        <ele>33.2</ele>
        <time>2021-05-15T02:30:44.201Z</time>
      </trkpt>
      <trkpt lat="47.05929" lon="-1.83289">
        <ele>33.1</ele>
        <time>2021-05-15T02:30:45.859Z</time>
      </trkpt>
      <trkpt lat="47.05921" lon="-1.83301">
        <ele>33.1</ele>
        <time>2021-05-15T02:30:47.447Z</time>
      </trkpt>
      <trkpt lat="47.05913" lon="-1.83313">
        <ele>33</ele>
        <time>2021-05-15T02:30:49.036Z</time>
      </trkpt>
      <trkpt lat="47.05905" lon="-1.83325">
        <ele>33.1</ele>
        <time>2021-05-15T02:30:50.624Z</time>
      </trkpt>
      <trkpt lat="47.05897" lon="-1.83336">
        <ele>33.3</ele>
        <time>2021-05-15T02:30:52.147Z</time>
      </trkpt>
      <trkpt lat="47.0589" lon="-1.83347">
        <ele>33.5</ele>
        <time>2021-05-15T02:30:52.940Z</time>
      </trkpt>
      <trkpt lat="47.05882" lon="-1.83358">
        <ele>33.7</ele>
        <time>2021-05-15T02:30:56.587Z</time>
      </trkpt>
      <trkpt lat="47.05874" lon="-1.8337">
        <ele>34</ele>
        <time>2021-05-15T02:30:57.472Z</time>
      </trkpt>
      <trkpt lat="47.05866" lon="-1.83381">
        <ele>34.2</ele>
        <time>2021-05-15T02:30:58.995Z</time>
      </trkpt>
      <trkpt lat="47.05858" lon="-1.83393">
        <ele>34.4</ele>
        <time>2021-05-15T02:31:00.583Z</time>
      </trkpt>
      <trkpt lat="47.0585" lon="-1.83405">
        <ele>34.7</ele>
        <time>2021-05-15T02:31:02.172Z</time>
      </trkpt>
      <trkpt lat="47.05843" lon="-1.83417">
        <ele>34.9</ele>
        <time>2021-05-15T02:31:03.666Z</time>
      </trkpt>
      <trkpt lat="47.05835" lon="-1.83429">
        <ele>34.8</ele>
        <time>2021-05-15T02:31:07.346Z</time>
      </trkpt>
      <trkpt lat="47.05827" lon="-1.8344">
        <ele>34.7</ele>
        <time>2021-05-15T02:31:08.869Z</time>
      </trkpt>
      <trkpt lat="47.05819" lon="-1.83452">
        <ele>34.5</ele>
        <time>2021-05-15T02:31:10.457Z</time>
      </trkpt>
      <trkpt lat="47.05811" lon="-1.83464">
        <ele>34.5</ele>
        <time>2021-05-15T02:31:12.046Z</time>
      </trkpt>
      <trkpt lat="47.05802" lon="-1.83474">
        <ele>34.5</ele>
        <time>2021-05-15T02:31:13.614Z</time>
      </trkpt>
      <trkpt lat="47.05793" lon="-1.83485">
        <ele>34.5</ele>
        <time>2021-05-15T02:31:17.316Z</time>
      </trkpt>
      <trkpt lat="47.05785" lon="-1.83496">
        <ele>34.6</ele>
        <time>2021-05-15T02:31:18.838Z</time>
      </trkpt>
      <trkpt lat="47.05776" lon="-1.83507">
        <ele>34.7</ele>
        <time>2021-05-15T02:31:20.465Z</time>
      </trkpt>
      <trkpt lat="47.05767" lon="-1.83517">
        <ele>34.8</ele>
        <time>2021-05-15T02:31:22.032Z</time>
      </trkpt>
      <trkpt lat="47.05758" lon="-1.83527">
        <ele>34.9</ele>
        <time>2021-05-15T02:31:23.600Z</time>
      </trkpt>
      <trkpt lat="47.05749" lon="-1.83538">
        <ele>35</ele>
        <time>2021-05-15T02:31:27.303Z</time>
      </trkpt>
      <trkpt lat="47.05741" lon="-1.83548">
        <ele>35</ele>
        <time>2021-05-15T02:31:28.116Z</time>
      </trkpt>
      <trkpt lat="47.05733" lon="-1.83558">
        <ele>34.9</ele>
        <time>2021-05-15T02:31:31.740Z</time>
      </trkpt>
      <trkpt lat="47.05725" lon="-1.8357">
        <ele>35</ele>
        <time>2021-05-15T02:31:33.328Z</time>
      </trkpt>
      <trkpt lat="47.05718" lon="-1.83584">
        <ele>35</ele>
        <time>2021-05-15T02:31:34.972Z</time>
      </trkpt>
      <trkpt lat="47.05711" lon="-1.83597">
        <ele>35.1</ele>
        <time>2021-05-15T02:31:38.640Z</time>
      </trkpt>
      <trkpt lat="47.05703" lon="-1.83609">
        <ele>35.1</ele>
        <time>2021-05-15T02:31:40.229Z</time>
      </trkpt>
      <trkpt lat="47.05696" lon="-1.83622">
        <ele>35.2</ele>
        <time>2021-05-15T02:31:41.797Z</time>
      </trkpt>
      <trkpt lat="47.05689" lon="-1.83635">
        <ele>35.2</ele>
        <time>2021-05-15T02:31:43.365Z</time>
      </trkpt>
      <trkpt lat="47.05682" lon="-1.83648">
        <ele>35.1</ele>
        <time>2021-05-15T02:31:44.932Z</time>
      </trkpt>
      <trkpt lat="47.05675" lon="-1.83661">
        <ele>35.1</ele>
        <time>2021-05-15T02:31:46.500Z</time>
      </trkpt>
      <trkpt lat="47.05667" lon="-1.83674">
        <ele>35.2</ele>
        <time>2021-05-15T02:31:48.158Z</time>
      </trkpt>
      <trkpt lat="47.05659" lon="-1.83687">
        <ele>35.4</ele>
        <time>2021-05-15T02:31:49.815Z</time>
      </trkpt>
      <trkpt lat="47.05652" lon="-1.837">
        <ele>35.6</ele>
        <time>2021-05-15T02:31:51.383Z</time>
      </trkpt>
      <trkpt lat="47.05645" lon="-1.83713">
        <ele>35.7</ele>
        <time>2021-05-15T02:31:52.951Z</time>
      </trkpt>
      <trkpt lat="47.05638" lon="-1.83724">
        <ele>35.8</ele>
        <time>2021-05-15T02:31:54.375Z</time>
      </trkpt>
      <trkpt lat="47.05632" lon="-1.83736">
        <ele>35.9</ele>
        <time>2021-05-15T02:31:55.783Z</time>
      </trkpt>
      <trkpt lat="47.05625" lon="-1.83748">
        <ele>36</ele>
        <time>2021-05-15T02:31:57.278Z</time>
      </trkpt>
      <trkpt lat="47.05618" lon="-1.8376">
        <ele>35.9</ele>
        <time>2021-05-15T02:31:58.773Z</time>
      </trkpt>
      <trkpt lat="47.05612" lon="-1.83773">
        <ele>35.8</ele>
        <time>2021-05-15T02:32:00.259Z</time>
      </trkpt>
      <trkpt lat="47.05605" lon="-1.83785">
        <ele>35.7</ele>
        <time>2021-05-15T02:32:01.753Z</time>
      </trkpt>
      <trkpt lat="47.05599" lon="-1.83796">
        <ele>35.7</ele>
        <time>2021-05-15T02:32:03.087Z</time>
      </trkpt>
      <trkpt lat="47.05592" lon="-1.83808">
        <ele>35.8</ele>
        <time>2021-05-15T02:32:04.581Z</time>
      </trkpt>
      <trkpt lat="47.05585" lon="-1.83821">
        <ele>35.9</ele>
        <time>2021-05-15T02:32:06.149Z</time>
      </trkpt>
      <trkpt lat="47.05578" lon="-1.83833">
        <ele>35.9</ele>
        <time>2021-05-15T02:32:07.644Z</time>
      </trkpt>
      <trkpt lat="47.05571" lon="-1.83845">
        <ele>36</ele>
        <time>2021-05-15T02:32:09.139Z</time>
      </trkpt>
      <trkpt lat="47.05564" lon="-1.83857">
        <ele>36</ele>
        <time>2021-05-15T02:32:10.633Z</time>
      </trkpt>
      <trkpt lat="47.05557" lon="-1.83869">
        <ele>36</ele>
        <time>2021-05-15T02:32:12.128Z</time>
      </trkpt>
      <trkpt lat="47.0555" lon="-1.83882">
        <ele>36</ele>
        <time>2021-05-15T02:32:13.696Z</time>
      </trkpt>
      <trkpt lat="47.05543" lon="-1.83895">
        <ele>35.9</ele>
        <time>2021-05-15T02:32:15.264Z</time>
      </trkpt>
      <trkpt lat="47.05537" lon="-1.83907">
        <ele>35.8</ele>
        <time>2021-05-15T02:32:16.672Z</time>
      </trkpt>
      <trkpt lat="47.0553" lon="-1.8392">
        <ele>35.7</ele>
        <time>2021-05-15T02:32:18.240Z</time>
      </trkpt>
      <trkpt lat="47.05523" lon="-1.83932">
        <ele>35.5</ele>
        <time>2021-05-15T02:32:19.735Z</time>
      </trkpt>
      <trkpt lat="47.05516" lon="-1.83944">
        <ele>35.3</ele>
        <time>2021-05-15T02:32:20.568Z</time>
      </trkpt>
      <trkpt lat="47.0551" lon="-1.83956">
        <ele>35.2</ele>
        <time>2021-05-15T02:32:21.976Z</time>
      </trkpt>
      <trkpt lat="47.05503" lon="-1.83967">
        <ele>35.1</ele>
        <time>2021-05-15T02:32:23.400Z</time>
      </trkpt>
      <trkpt lat="47.05498" lon="-1.83979">
        <ele>35</ele>
        <time>2021-05-15T02:32:24.731Z</time>
      </trkpt>
      <trkpt lat="47.05492" lon="-1.83991">
        <ele>35.1</ele>
        <time>2021-05-15T02:32:28.345Z</time>
      </trkpt>
      <trkpt lat="47.05486" lon="-1.84002">
        <ele>35.2</ele>
        <time>2021-05-15T02:32:29.678Z</time>
      </trkpt>
      <trkpt lat="47.05479" lon="-1.84014">
        <ele>35.5</ele>
        <time>2021-05-15T02:32:31.173Z</time>
      </trkpt>
      <trkpt lat="47.05473" lon="-1.84026">
        <ele>35.7</ele>
        <time>2021-05-15T02:32:32.581Z</time>
      </trkpt>
      <trkpt lat="47.05467" lon="-1.84038">
        <ele>35.9</ele>
        <time>2021-05-15T02:32:33.989Z</time>
      </trkpt>
      <trkpt lat="47.05462" lon="-1.8405">
        <ele>36.1</ele>
        <time>2021-05-15T02:32:35.320Z</time>
      </trkpt>
      <trkpt lat="47.05455" lon="-1.84062">
        <ele>36.2</ele>
        <time>2021-05-15T02:32:36.815Z</time>
      </trkpt>
      <trkpt lat="47.05449" lon="-1.84073">
        <ele>36.3</ele>
        <time>2021-05-15T02:32:38.148Z</time>
      </trkpt>
      <trkpt lat="47.05444" lon="-1.84085">
        <ele>36.3</ele>
        <time>2021-05-15T02:32:39.479Z</time>
      </trkpt>
      <trkpt lat="47.05438" lon="-1.84097">
        <ele>36.4</ele>
        <time>2021-05-15T02:32:40.888Z</time>
      </trkpt>
      <trkpt lat="47.05432" lon="-1.84109">
        <ele>36.4</ele>
        <time>2021-05-15T02:32:42.296Z</time>
      </trkpt>
      <trkpt lat="47.05426" lon="-1.84121">
        <ele>36.5</ele>
        <time>2021-05-15T02:32:43.705Z</time>
      </trkpt>
      <trkpt lat="47.05419" lon="-1.84133">
        <ele>36.6</ele>
        <time>2021-05-15T02:32:47.341Z</time>
      </trkpt>
      <trkpt lat="47.05413" lon="-1.84145">
        <ele>36.7</ele>
        <time>2021-05-15T02:32:48.125Z</time>
      </trkpt>
      <trkpt lat="47.05407" lon="-1.84157">
        <ele>36.8</ele>
        <time>2021-05-15T02:32:49.534Z</time>
      </trkpt>
      <trkpt lat="47.05401" lon="-1.84169">
        <ele>36.8</ele>
        <time>2021-05-15T02:32:50.942Z</time>
      </trkpt>
      <trkpt lat="47.05394" lon="-1.84182">
        <ele>36.8</ele>
        <time>2021-05-15T02:32:52.510Z</time>
      </trkpt>
      <trkpt lat="47.05388" lon="-1.84194">
        <ele>36.9</ele>
        <time>2021-05-15T02:32:53.918Z</time>
      </trkpt>
      <trkpt lat="47.05382" lon="-1.84207">
        <ele>37</ele>
        <time>2021-05-15T02:32:55.404Z</time>
      </trkpt>
      <trkpt lat="47.05375" lon="-1.8422">
        <ele>37.1</ele>
        <time>2021-05-15T02:32:56.972Z</time>
      </trkpt>
      <trkpt lat="47.05369" lon="-1.84233">
        <ele>37.3</ele>
        <time>2021-05-15T02:32:58.458Z</time>
      </trkpt>
      <trkpt lat="47.05362" lon="-1.84246">
        <ele>37.6</ele>
        <time>2021-05-15T02:33:00.026Z</time>
      </trkpt>
      <trkpt lat="47.05355" lon="-1.84259">
        <ele>37.7</ele>
        <time>2021-05-15T02:33:01.593Z</time>
      </trkpt>
      <trkpt lat="47.05349" lon="-1.84271">
        <ele>37.7</ele>
        <time>2021-05-15T02:33:03.002Z</time>
      </trkpt>
      <trkpt lat="47.05343" lon="-1.84283">
        <ele>37.6</ele>
        <time>2021-05-15T02:33:04.410Z</time>
      </trkpt>
      <trkpt lat="47.05337" lon="-1.84296">
        <ele>37.5</ele>
        <time>2021-05-15T02:33:05.896Z</time>
      </trkpt>
      <trkpt lat="47.05331" lon="-1.84309">
        <ele>37.2</ele>
        <time>2021-05-15T02:33:07.382Z</time>
      </trkpt>
      <trkpt lat="47.05324" lon="-1.84322">
        <ele>37</ele>
        <time>2021-05-15T02:33:08.950Z</time>
      </trkpt>
      <trkpt lat="47.05317" lon="-1.84335">
        <ele>36.8</ele>
        <time>2021-05-15T02:33:10.517Z</time>
      </trkpt>
      <trkpt lat="47.05311" lon="-1.84348">
        <ele>36.7</ele>
        <time>2021-05-15T02:33:12.003Z</time>
      </trkpt>
      <trkpt lat="47.05304" lon="-1.84362">
        <ele>36.6</ele>
        <time>2021-05-15T02:33:13.646Z</time>
      </trkpt>
      <trkpt lat="47.05297" lon="-1.84374">
        <ele>36.6</ele>
        <time>2021-05-15T02:33:15.141Z</time>
      </trkpt>
      <trkpt lat="47.05291" lon="-1.84388">
        <ele>36.5</ele>
        <time>2021-05-15T02:33:16.706Z</time>
      </trkpt>
      <trkpt lat="47.05285" lon="-1.84401">
        <ele>36.4</ele>
        <time>2021-05-15T02:33:18.192Z</time>
      </trkpt>
      <trkpt lat="47.05278" lon="-1.84414">
        <ele>36.3</ele>
        <time>2021-05-15T02:33:19.760Z</time>
      </trkpt>
      <trkpt lat="47.05272" lon="-1.84426">
        <ele>36.3</ele>
        <time>2021-05-15T02:33:21.168Z</time>
      </trkpt>
      <trkpt lat="47.05265" lon="-1.84439">
        <ele>36.4</ele>
        <time>2021-05-15T02:33:22.736Z</time>
      </trkpt>
      <trkpt lat="47.05259" lon="-1.84453">
        <ele>36.5</ele>
        <time>2021-05-15T02:33:26.404Z</time>
      </trkpt>
      <trkpt lat="47.05252" lon="-1.84465">
        <ele>36.6</ele>
        <time>2021-05-15T02:33:27.898Z</time>
      </trkpt>
      <trkpt lat="47.05247" lon="-1.84477">
        <ele>36.8</ele>
        <time>2021-05-15T02:33:29.229Z</time>
      </trkpt>
      <trkpt lat="47.05241" lon="-1.8449">
        <ele>37.1</ele>
        <time>2021-05-15T02:33:30.715Z</time>
      </trkpt>
      <trkpt lat="47.05234" lon="-1.84502">
        <ele>37.4</ele>
        <time>2021-05-15T02:33:32.210Z</time>
      </trkpt>
      <trkpt lat="47.05228" lon="-1.84514">
        <ele>37.7</ele>
        <time>2021-05-15T02:33:33.618Z</time>
      </trkpt>
      <trkpt lat="47.05222" lon="-1.84525">
        <ele>37.9</ele>
        <time>2021-05-15T02:33:37.232Z</time>
      </trkpt>
      <trkpt lat="47.05216" lon="-1.84536">
        <ele>38.1</ele>
        <time>2021-05-15T02:33:38.566Z</time>
      </trkpt>
      <trkpt lat="47.05205" lon="-1.84545">
        <ele>38.3</ele>
        <time>2021-05-15T02:33:40.315Z</time>
      </trkpt>
      <trkpt lat="47.05194" lon="-1.84535">
        <ele>38.5</ele>
        <time>2021-05-15T02:33:41.316Z</time>
      </trkpt>
      <trkpt lat="47.05186" lon="-1.84524">
        <ele>38.6</ele>
        <time>2021-05-15T02:33:42.838Z</time>
      </trkpt>
      <trkpt lat="47.05177" lon="-1.84514">
        <ele>38.8</ele>
        <time>2021-05-15T02:33:44.406Z</time>
      </trkpt>
      <trkpt lat="47.05169" lon="-1.84502">
        <ele>38.9</ele>
        <time>2021-05-15T02:33:45.995Z</time>
      </trkpt>
      <trkpt lat="47.0516" lon="-1.8449">
        <ele>38.7</ele>
        <time>2021-05-15T02:33:46.935Z</time>
      </trkpt>
      <trkpt lat="47.05153" lon="-1.84478">
        <ele>38.4</ele>
        <time>2021-05-15T02:33:48.430Z</time>
      </trkpt>
      <trkpt lat="47.05145" lon="-1.84466">
        <ele>38.2</ele>
        <time>2021-05-15T02:33:50.019Z</time>
      </trkpt>
      <trkpt lat="47.05137" lon="-1.84454">
        <ele>38.1</ele>
        <time>2021-05-15T02:33:51.607Z</time>
      </trkpt>
      <trkpt lat="47.05129" lon="-1.84443">
        <ele>38.1</ele>
        <time>2021-05-15T02:33:53.130Z</time>
      </trkpt>
      <trkpt lat="47.05121" lon="-1.84431">
        <ele>38.2</ele>
        <time>2021-05-15T02:33:54.719Z</time>
      </trkpt>
      <trkpt lat="47.05112" lon="-1.84419">
        <ele>38.3</ele>
        <time>2021-05-15T02:33:56.407Z</time>
      </trkpt>
      <trkpt lat="47.05104" lon="-1.84408">
        <ele>38.5</ele>
        <time>2021-05-15T02:34:00.054Z</time>
      </trkpt>
      <trkpt lat="47.05094" lon="-1.84397">
        <ele>38.7</ele>
        <time>2021-05-15T02:34:01.021Z</time>
      </trkpt>
      <trkpt lat="47.05085" lon="-1.84386">
        <ele>39</ele>
        <time>2021-05-15T02:34:02.648Z</time>
      </trkpt>
      <trkpt lat="47.05075" lon="-1.84375">
        <ele>38.8</ele>
        <time>2021-05-15T02:34:04.384Z</time>
      </trkpt>
      <trkpt lat="47.05066" lon="-1.84364">
        <ele>38.6</ele>
        <time>2021-05-15T02:34:06.010Z</time>
      </trkpt>
      <trkpt lat="47.05056" lon="-1.84353">
        <ele>38.5</ele>
        <time>2021-05-15T02:34:07.746Z</time>
      </trkpt>
      <trkpt lat="47.05046" lon="-1.84343">
        <ele>38.4</ele>
        <time>2021-05-15T02:34:09.426Z</time>
      </trkpt>
      <trkpt lat="47.05037" lon="-1.84333">
        <ele>38.4</ele>
        <time>2021-05-15T02:34:10.994Z</time>
      </trkpt>
      <trkpt lat="47.05028" lon="-1.84323">
        <ele>38.4</ele>
        <time>2021-05-15T02:34:12.562Z</time>
      </trkpt>
      <trkpt lat="47.05018" lon="-1.84314">
        <ele>38.3</ele>
        <time>2021-05-15T02:34:14.191Z</time>
      </trkpt>
      <trkpt lat="47.05007" lon="-1.84307">
        <ele>38.1</ele>
        <time>2021-05-15T02:34:15.856Z</time>
      </trkpt>
      <trkpt lat="47.04997" lon="-1.843">
        <ele>38</ele>
        <time>2021-05-15T02:34:16.713Z</time>
      </trkpt>
      <trkpt lat="47.04987" lon="-1.84291">
        <ele>38</ele>
        <time>2021-05-15T02:34:20.417Z</time>
      </trkpt>
      <trkpt lat="47.04977" lon="-1.84283">
        <ele>38</ele>
        <time>2021-05-15T02:34:21.999Z</time>
      </trkpt>
      <trkpt lat="47.04967" lon="-1.84274">
        <ele>38</ele>
        <time>2021-05-15T02:34:23.628Z</time>
      </trkpt>
      <trkpt lat="47.04956" lon="-1.84264">
        <ele>38</ele>
        <time>2021-05-15T02:34:25.425Z</time>
      </trkpt>
      <trkpt lat="47.04947" lon="-1.84254">
        <ele>38</ele>
        <time>2021-05-15T02:34:26.993Z</time>
      </trkpt>
      <trkpt lat="47.04937" lon="-1.84243">
        <ele>38</ele>
        <time>2021-05-15T02:34:28.729Z</time>
      </trkpt>
      <trkpt lat="47.04928" lon="-1.84232">
        <ele>38</ele>
        <time>2021-05-15T02:34:32.431Z</time>
      </trkpt>
      <trkpt lat="47.04917" lon="-1.84222">
        <ele>38</ele>
        <time>2021-05-15T02:34:33.432Z</time>
      </trkpt>
      <trkpt lat="47.04906" lon="-1.84212">
        <ele>37.9</ele>
        <time>2021-05-15T02:34:35.229Z</time>
      </trkpt>
      <trkpt lat="47.04895" lon="-1.84202">
        <ele>37.9</ele>
        <time>2021-05-15T02:34:37.026Z</time>
      </trkpt>
      <trkpt lat="47.04884" lon="-1.84191">
        <ele>37.7</ele>
        <time>2021-05-15T02:34:38.875Z</time>
      </trkpt>
      <trkpt lat="47.04874" lon="-1.8418">
        <ele>37.6</ele>
        <time>2021-05-15T02:34:40.611Z</time>
      </trkpt>
      <trkpt lat="47.04863" lon="-1.84169">
        <ele>37.4</ele>
        <time>2021-05-15T02:34:42.459Z</time>
      </trkpt>
      <trkpt lat="47.04852" lon="-1.84157">
        <ele>37.2</ele>
        <time>2021-05-15T02:34:44.363Z</time>
      </trkpt>
      <trkpt lat="47.04842" lon="-1.84146">
        <ele>37.1</ele>
        <time>2021-05-15T02:34:46.098Z</time>
      </trkpt>
      <trkpt lat="47.04832" lon="-1.84134">
        <ele>37</ele>
        <time>2021-05-15T02:34:47.098Z</time>
      </trkpt>
      <trkpt lat="47.04821" lon="-1.84122">
        <ele>36.9</ele>
        <time>2021-05-15T02:34:49.001Z</time>
      </trkpt>
      <trkpt lat="47.04811" lon="-1.84109">
        <ele>36.9</ele>
        <time>2021-05-15T02:34:50.857Z</time>
      </trkpt>
      <trkpt lat="47.04801" lon="-1.84095">
        <ele>36.9</ele>
        <time>2021-05-15T02:34:52.776Z</time>
      </trkpt>
      <trkpt lat="47.04791" lon="-1.84082">
        <ele>37</ele>
        <time>2021-05-15T02:34:54.631Z</time>
      </trkpt>
      <trkpt lat="47.04781" lon="-1.84069">
        <ele>36.9</ele>
        <time>2021-05-15T02:34:56.487Z</time>
      </trkpt>
      <trkpt lat="47.0477" lon="-1.84055">
        <ele>36.8</ele>
        <time>2021-05-15T02:34:58.509Z</time>
      </trkpt>
      <trkpt lat="47.0476" lon="-1.84042">
        <ele>36.9</ele>
        <time>2021-05-15T02:35:00.364Z</time>
      </trkpt>
      <trkpt lat="47.04749" lon="-1.84029">
        <ele>37</ele>
        <time>2021-05-15T02:35:02.325Z</time>
      </trkpt>
      <trkpt lat="47.04739" lon="-1.84016">
        <ele>36.9</ele>
        <time>2021-05-15T02:35:03.359Z</time>
      </trkpt>
      <trkpt lat="47.04729" lon="-1.84003">
        <ele>36.7</ele>
        <time>2021-05-15T02:35:05.214Z</time>
      </trkpt>
      <trkpt lat="47.04718" lon="-1.83991">
        <ele>36.5</ele>
        <time>2021-05-15T02:35:07.118Z</time>
      </trkpt>
      <trkpt lat="47.04707" lon="-1.83978">
        <ele>36.1</ele>
        <time>2021-05-15T02:35:09.079Z</time>
      </trkpt>
      <trkpt lat="47.04696" lon="-1.83966">
        <ele>35.7</ele>
        <time>2021-05-15T02:35:10.140Z</time>
      </trkpt>
      <trkpt lat="47.04685" lon="-1.83953">
        <ele>35.2</ele>
        <time>2021-05-15T02:35:12.101Z</time>
      </trkpt>
      <trkpt lat="47.04675" lon="-1.8394">
        <ele>34.7</ele>
        <time>2021-05-15T02:35:15.977Z</time>
      </trkpt>
      <trkpt lat="47.04664" lon="-1.83927">
        <ele>34.3</ele>
        <time>2021-05-15T02:35:17.938Z</time>
      </trkpt>
      <trkpt lat="47.04654" lon="-1.83914">
        <ele>34.2</ele>
        <time>2021-05-15T02:35:18.972Z</time>
      </trkpt>
      <trkpt lat="47.04645" lon="-1.83901">
        <ele>34.4</ele>
        <time>2021-05-15T02:35:20.726Z</time>
      </trkpt>
      <trkpt lat="47.04636" lon="-1.83887">
        <ele>34.7</ele>
        <time>2021-05-15T02:35:22.547Z</time>
      </trkpt>
      <trkpt lat="47.04626" lon="-1.83873">
        <ele>35</ele>
        <time>2021-05-15T02:35:24.466Z</time>
      </trkpt>
      <trkpt lat="47.04617" lon="-1.8386">
        <ele>35.3</ele>
        <time>2021-05-15T02:35:26.220Z</time>
      </trkpt>
      <trkpt lat="47.04607" lon="-1.83847">
        <ele>35.6</ele>
        <time>2021-05-15T02:35:28.076Z</time>
      </trkpt>
      <trkpt lat="47.04596" lon="-1.83837">
        <ele>35.8</ele>
        <time>2021-05-15T02:35:29.873Z</time>
      </trkpt>
      <trkpt lat="47.04585" lon="-1.83828">
        <ele>35.9</ele>
        <time>2021-05-15T02:35:31.622Z</time>
      </trkpt>
      <trkpt lat="47.04574" lon="-1.83819">
        <ele>35.5</ele>
        <time>2021-05-15T02:35:33.371Z</time>
      </trkpt>
      <trkpt lat="47.04562" lon="-1.83812">
        <ele>35.2</ele>
        <time>2021-05-15T02:35:35.164Z</time>
      </trkpt>
      <trkpt lat="47.04551" lon="-1.83803">
        <ele>34.9</ele>
        <time>2021-05-15T02:35:36.139Z</time>
      </trkpt>
      <trkpt lat="47.04539" lon="-1.83795">
        <ele>34.5</ele>
        <time>2021-05-15T02:35:39.993Z</time>
      </trkpt>
      <trkpt lat="47.04527" lon="-1.83787">
        <ele>34.2</ele>
        <time>2021-05-15T02:35:41.823Z</time>
      </trkpt>
      <trkpt lat="47.04516" lon="-1.83778">
        <ele>33.9</ele>
        <time>2021-05-15T02:35:42.798Z</time>
      </trkpt>
      <trkpt lat="47.04504" lon="-1.8377">
        <ele>33.5</ele>
        <time>2021-05-15T02:35:46.652Z</time>
      </trkpt>
      <trkpt lat="47.04493" lon="-1.83761">
        <ele>33.4</ele>
        <time>2021-05-15T02:35:48.401Z</time>
      </trkpt>
      <trkpt lat="47.04482" lon="-1.83752">
        <ele>33.5</ele>
        <time>2021-05-15T02:35:50.150Z</time>
      </trkpt>
      <trkpt lat="47.04471" lon="-1.83743">
        <ele>33.7</ele>
        <time>2021-05-15T02:35:51.899Z</time>
      </trkpt>
      <trkpt lat="47.0446" lon="-1.83733">
        <ele>33.9</ele>
        <time>2021-05-15T02:35:52.900Z</time>
      </trkpt>
      <trkpt lat="47.04449" lon="-1.83724">
        <ele>34</ele>
        <time>2021-05-15T02:35:54.649Z</time>
      </trkpt>
      <trkpt lat="47.04438" lon="-1.83715">
        <ele>34.2</ele>
        <time>2021-05-15T02:35:56.398Z</time>
      </trkpt>
      <trkpt lat="47.04427" lon="-1.83707">
        <ele>34.3</ele>
        <time>2021-05-15T02:35:58.103Z</time>
      </trkpt>
      <trkpt lat="47.04415" lon="-1.83698">
        <ele>34.4</ele>
        <time>2021-05-15T02:35:59.146Z</time>
      </trkpt>
      <trkpt lat="47.04404" lon="-1.8369">
        <ele>34.2</ele>
        <time>2021-05-15T02:36:00.851Z</time>
      </trkpt>
      <trkpt lat="47.04392" lon="-1.83682">
        <ele>33.9</ele>
        <time>2021-05-15T02:36:02.682Z</time>
      </trkpt>
      <trkpt lat="47.0438" lon="-1.83675">
        <ele>33.7</ele>
        <time>2021-05-15T02:36:04.475Z</time>
      </trkpt>
      <trkpt lat="47.04367" lon="-1.83671">
        <ele>33.5</ele>
        <time>2021-05-15T02:36:06.320Z</time>
      </trkpt>
      <trkpt lat="47.04353" lon="-1.83667">
        <ele>33.2</ele>
        <time>2021-05-15T02:36:08.301Z</time>
      </trkpt>
      <trkpt lat="47.0434" lon="-1.83663">
        <ele>33.1</ele>
        <time>2021-05-15T02:36:10.145Z</time>
      </trkpt>
      <trkpt lat="47.04326" lon="-1.83661">
        <ele>33.1</ele>
        <time>2021-05-15T02:36:12.099Z</time>
      </trkpt>
      <trkpt lat="47.04313" lon="-1.83658">
        <ele>33.1</ele>
        <time>2021-05-15T02:36:15.950Z</time>
      </trkpt>
      <trkpt lat="47.04299" lon="-1.83655">
        <ele>33.2</ele>
        <time>2021-05-15T02:36:17.915Z</time>
      </trkpt>
      <trkpt lat="47.04286" lon="-1.83651">
        <ele>33.3</ele>
        <time>2021-05-15T02:36:21.781Z</time>
      </trkpt>
      <trkpt lat="47.04273" lon="-1.83647">
        <ele>33.4</ele>
        <time>2021-05-15T02:36:23.626Z</time>
      </trkpt>
      <trkpt lat="47.04261" lon="-1.83645">
        <ele>33.5</ele>
        <time>2021-05-15T02:36:25.303Z</time>
      </trkpt>
      <trkpt lat="47.04248" lon="-1.83641">
        <ele>33.6</ele>
        <time>2021-05-15T02:36:26.331Z</time>
      </trkpt>
      <trkpt lat="47.04235" lon="-1.83637">
        <ele>33.5</ele>
        <time>2021-05-15T02:36:28.176Z</time>
      </trkpt>
      <trkpt lat="47.04223" lon="-1.83631">
        <ele>33.4</ele>
        <time>2021-05-15T02:36:29.937Z</time>
      </trkpt>
      <trkpt lat="47.04212" lon="-1.83622">
        <ele>33.4</ele>
        <time>2021-05-15T02:36:31.686Z</time>
      </trkpt>
      <trkpt lat="47.04201" lon="-1.83617">
        <ele>33.3</ele>
        <time>2021-05-15T02:36:33.285Z</time>
      </trkpt>
      <trkpt lat="47.04182" lon="-1.83616">
        <ele>32.9</ele>
        <time>2021-05-15T02:36:35.925Z</time>
      </trkpt>
      <trkpt lat="47.0417" lon="-1.83612">
        <ele>32.7</ele>
        <time>2021-05-15T02:36:37.634Z</time>
      </trkpt>
      <trkpt lat="47.04158" lon="-1.83606">
        <ele>32.8</ele>
        <time>2021-05-15T02:36:39.395Z</time>
      </trkpt>
      <trkpt lat="47.04146" lon="-1.836">
        <ele>33</ele>
        <time>2021-05-15T02:36:41.156Z</time>
      </trkpt>
      <trkpt lat="47.04134" lon="-1.83594">
        <ele>33.3</ele>
        <time>2021-05-15T02:36:42.916Z</time>
      </trkpt>
      <trkpt lat="47.04122" lon="-1.83588">
        <ele>33.5</ele>
        <time>2021-05-15T02:36:44.677Z</time>
      </trkpt>
      <trkpt lat="47.0411" lon="-1.83583">
        <ele>33.7</ele>
        <time>2021-05-15T02:36:46.409Z</time>
      </trkpt>
      <trkpt lat="47.04098" lon="-1.83579">
        <ele>33.8</ele>
        <time>2021-05-15T02:36:48.118Z</time>
      </trkpt>
      <trkpt lat="47.04086" lon="-1.83575">
        <ele>34</ele>
        <time>2021-05-15T02:36:49.827Z</time>
      </trkpt>
      <trkpt lat="47.04073" lon="-1.83573">
        <ele>34</ele>
        <time>2021-05-15T02:36:53.669Z</time>
      </trkpt>
      <trkpt lat="47.04061" lon="-1.8357">
        <ele>34</ele>
        <time>2021-05-15T02:36:54.611Z</time>
      </trkpt>
      <trkpt lat="47.04048" lon="-1.83568">
        <ele>34</ele>
        <time>2021-05-15T02:36:58.452Z</time>
      </trkpt>
      <trkpt lat="47.04036" lon="-1.83566">
        <ele>34</ele>
        <time>2021-05-15T02:37:00.129Z</time>
      </trkpt>
      <trkpt lat="47.04024" lon="-1.83565">
        <ele>34</ele>
        <time>2021-05-15T02:37:01.799Z</time>
      </trkpt>
      <trkpt lat="47.04012" lon="-1.83564">
        <ele>34</ele>
        <time>2021-05-15T02:37:03.468Z</time>
      </trkpt>
      <trkpt lat="47.04" lon="-1.83562">
        <ele>34</ele>
        <time>2021-05-15T02:37:05.145Z</time>
      </trkpt>
      <trkpt lat="47.03981" lon="-1.83559">
        <ele>34</ele>
        <time>2021-05-15T02:37:07.799Z</time>
      </trkpt>
      <trkpt lat="47.03969" lon="-1.83557">
        <ele>34</ele>
        <time>2021-05-15T02:37:09.476Z</time>
      </trkpt>
      <trkpt lat="47.03957" lon="-1.83556">
        <ele>34</ele>
        <time>2021-05-15T02:37:11.146Z</time>
      </trkpt>
      <trkpt lat="47.03945" lon="-1.83555">
        <ele>34</ele>
        <time>2021-05-15T02:37:12.815Z</time>
      </trkpt>
      <trkpt lat="47.03932" lon="-1.83553">
        <ele>34</ele>
        <time>2021-05-15T02:37:14.630Z</time>
      </trkpt>
      <trkpt lat="47.0392" lon="-1.83551">
        <ele>34</ele>
        <time>2021-05-15T02:37:16.307Z</time>
      </trkpt>
      <trkpt lat="47.03907" lon="-1.8355">
        <ele>33.9</ele>
        <time>2021-05-15T02:37:18.115Z</time>
      </trkpt>
      <trkpt lat="47.03888" lon="-1.83547">
        <ele>33.7</ele>
        <time>2021-05-15T02:37:20.769Z</time>
      </trkpt>
      <trkpt lat="47.03869" lon="-1.83544">
        <ele>33.4</ele>
        <time>2021-05-15T02:37:22.289Z</time>
      </trkpt>
      <trkpt lat="47.03857" lon="-1.83542">
        <ele>33.3</ele>
        <time>2021-05-15T02:37:26.025Z</time>
      </trkpt>
      <trkpt lat="47.03844" lon="-1.83541">
        <ele>33.1</ele>
        <time>2021-05-15T02:37:27.032Z</time>
      </trkpt>
      <trkpt lat="47.03831" lon="-1.8354">
        <ele>33</ele>
        <time>2021-05-15T02:37:30.867Z</time>
      </trkpt>
      <trkpt lat="47.03812" lon="-1.83538">
        <ele>32.7</ele>
        <time>2021-05-15T02:37:33.513Z</time>
      </trkpt>
      <trkpt lat="47.03799" lon="-1.83537">
        <ele>32.5</ele>
        <time>2021-05-15T02:37:34.520Z</time>
      </trkpt>
      <trkpt lat="47.0378" lon="-1.83535">
        <ele>32.3</ele>
        <time>2021-05-15T02:37:37.166Z</time>
      </trkpt>
      <trkpt lat="47.03767" lon="-1.83535">
        <ele>32.1</ele>
        <time>2021-05-15T02:37:38.171Z</time>
      </trkpt>
      <trkpt lat="47.03755" lon="-1.83535">
        <ele>31.9</ele>
        <time>2021-05-15T02:37:39.838Z</time>
      </trkpt>
      <trkpt lat="47.03742" lon="-1.83535">
        <ele>31.9</ele>
        <time>2021-05-15T02:37:41.643Z</time>
      </trkpt>
      <trkpt lat="47.03723" lon="-1.83536">
        <ele>32</ele>
        <time>2021-05-15T02:37:44.284Z</time>
      </trkpt>
      <trkpt lat="47.03711" lon="-1.83536">
        <ele>32.1</ele>
        <time>2021-05-15T02:37:45.950Z</time>
      </trkpt>
      <trkpt lat="47.03699" lon="-1.83537">
        <ele>32.2</ele>
        <time>2021-05-15T02:37:47.620Z</time>
      </trkpt>
      <trkpt lat="47.03687" lon="-1.83537">
        <ele>32.3</ele>
        <time>2021-05-15T02:37:49.286Z</time>
      </trkpt>
      <trkpt lat="47.03669" lon="-1.83537">
        <ele>32.4</ele>
        <time>2021-05-15T02:37:51.786Z</time>
      </trkpt>
      <trkpt lat="47.03656" lon="-1.83537">
        <ele>32.3</ele>
        <time>2021-05-15T02:37:53.592Z</time>
      </trkpt>
      <trkpt lat="47.03643" lon="-1.83538">
        <ele>32.2</ele>
        <time>2021-05-15T02:37:55.399Z</time>
      </trkpt>
      <trkpt lat="47.03631" lon="-1.83538">
        <ele>32.1</ele>
        <time>2021-05-15T02:37:57.066Z</time>
      </trkpt>
      <trkpt lat="47.03619" lon="-1.83538">
        <ele>31.9</ele>
        <time>2021-05-15T02:37:58.733Z</time>
      </trkpt>
      <trkpt lat="47.03607" lon="-1.83539">
        <ele>31.8</ele>
        <time>2021-05-15T02:38:00.402Z</time>
      </trkpt>
      <trkpt lat="47.03595" lon="-1.83539">
        <ele>31.7</ele>
        <time>2021-05-15T02:38:02.068Z</time>
      </trkpt>
      <trkpt lat="47.03583" lon="-1.83539">
        <ele>31.5</ele>
        <time>2021-05-15T02:38:03.735Z</time>
      </trkpt>
      <trkpt lat="47.03571" lon="-1.83539">
        <ele>31.6</ele>
        <time>2021-05-15T02:38:05.402Z</time>
      </trkpt>
      <trkpt lat="47.03559" lon="-1.83539">
        <ele>31.7</ele>
        <time>2021-05-15T02:38:07.068Z</time>
      </trkpt>
      <trkpt lat="47.03546" lon="-1.83539">
        <ele>31.7</ele>
        <time>2021-05-15T02:38:08.074Z</time>
      </trkpt>
      <trkpt lat="47.03534" lon="-1.83539">
        <ele>31.8</ele>
        <time>2021-05-15T02:38:09.741Z</time>
      </trkpt>
      <trkpt lat="47.03521" lon="-1.83538">
        <ele>31.9</ele>
        <time>2021-05-15T02:38:11.549Z</time>
      </trkpt>
      <trkpt lat="47.03508" lon="-1.83537">
        <ele>32</ele>
        <time>2021-05-15T02:38:13.356Z</time>
      </trkpt>
      <trkpt lat="47.03495" lon="-1.83536">
        <ele>31.9</ele>
        <time>2021-05-15T02:38:15.164Z</time>
      </trkpt>
      <trkpt lat="47.03481" lon="-1.83534">
        <ele>31.8</ele>
        <time>2021-05-15T02:38:17.118Z</time>
      </trkpt>
      <trkpt lat="47.03469" lon="-1.83531">
        <ele>31.6</ele>
        <time>2021-05-15T02:38:18.809Z</time>
      </trkpt>
      <trkpt lat="47.03456" lon="-1.83528">
        <ele>31.5</ele>
        <time>2021-05-15T02:38:20.636Z</time>
      </trkpt>
      <trkpt lat="47.03443" lon="-1.83524">
        <ele>31.3</ele>
        <time>2021-05-15T02:38:21.664Z</time>
      </trkpt>
      <trkpt lat="47.0343" lon="-1.8352">
        <ele>31.2</ele>
        <time>2021-05-15T02:38:23.509Z</time>
      </trkpt>
      <trkpt lat="47.03417" lon="-1.83517">
        <ele>31</ele>
        <time>2021-05-15T02:38:25.336Z</time>
      </trkpt>
      <trkpt lat="47.03404" lon="-1.83513">
        <ele>30.8</ele>
        <time>2021-05-15T02:38:26.364Z</time>
      </trkpt>
      <trkpt lat="47.03391" lon="-1.83509">
        <ele>30.7</ele>
        <time>2021-05-15T02:38:28.209Z</time>
      </trkpt>
      <trkpt lat="47.03379" lon="-1.83506">
        <ele>30.5</ele>
        <time>2021-05-15T02:38:29.899Z</time>
      </trkpt>
      <trkpt lat="47.03367" lon="-1.83502">
        <ele>30.4</ele>
        <time>2021-05-15T02:38:31.608Z</time>
      </trkpt>
      <trkpt lat="47.03354" lon="-1.83499">
        <ele>30.2</ele>
        <time>2021-05-15T02:38:33.436Z</time>
      </trkpt>
      <trkpt lat="47.03342" lon="-1.83496">
        <ele>30</ele>
        <time>2021-05-15T02:38:35.127Z</time>
      </trkpt>
      <trkpt lat="47.0333" lon="-1.83492">
        <ele>29.8</ele>
        <time>2021-05-15T02:38:36.836Z</time>
      </trkpt>
      <trkpt lat="47.03317" lon="-1.83489">
        <ele>29.8</ele>
        <time>2021-05-15T02:38:38.663Z</time>
      </trkpt>
      <trkpt lat="47.03305" lon="-1.83485">
        <ele>29.7</ele>
        <time>2021-05-15T02:38:40.372Z</time>
      </trkpt>
      <trkpt lat="47.03293" lon="-1.83483">
        <ele>29.7</ele>
        <time>2021-05-15T02:38:42.050Z</time>
      </trkpt>
      <trkpt lat="47.03281" lon="-1.83479">
        <ele>29.7</ele>
        <time>2021-05-15T02:38:43.759Z</time>
      </trkpt>
      <trkpt lat="47.03269" lon="-1.83476">
        <ele>29.6</ele>
        <time>2021-05-15T02:38:45.449Z</time>
      </trkpt>
      <trkpt lat="47.03257" lon="-1.83472">
        <ele>29.6</ele>
        <time>2021-05-15T02:38:46.401Z</time>
      </trkpt>
      <trkpt lat="47.03245" lon="-1.83469">
        <ele>29.5</ele>
        <time>2021-05-15T02:38:48.092Z</time>
      </trkpt>
      <trkpt lat="47.03233" lon="-1.83466">
        <ele>29.3</ele>
        <time>2021-05-15T02:38:49.783Z</time>
      </trkpt>
      <trkpt lat="47.03221" lon="-1.83462">
        <ele>29</ele>
        <time>2021-05-15T02:38:51.492Z</time>
      </trkpt>
      <trkpt lat="47.03209" lon="-1.83459">
        <ele>28.8</ele>
        <time>2021-05-15T02:38:53.182Z</time>
      </trkpt>
      <trkpt lat="47.03197" lon="-1.83456">
        <ele>28.5</ele>
        <time>2021-05-15T02:38:54.873Z</time>
      </trkpt>
      <trkpt lat="47.03186" lon="-1.83453">
        <ele>28.2</ele>
        <time>2021-05-15T02:38:56.427Z</time>
      </trkpt>
      <trkpt lat="47.03176" lon="-1.83451">
        <ele>28</ele>
        <time>2021-05-15T02:38:57.828Z</time>
      </trkpt>
      <trkpt lat="47.03167" lon="-1.83457">
        <ele>28</ele>
        <time>2021-05-15T02:38:59.201Z</time>
      </trkpt>
      <trkpt lat="47.03162" lon="-1.8347">
        <ele>28.2</ele>
        <time>2021-05-15T02:39:02.816Z</time>
      </trkpt>
      <trkpt lat="47.03156" lon="-1.83483">
        <ele>28.5</ele>
        <time>2021-05-15T02:39:04.302Z</time>
      </trkpt>
      <trkpt lat="47.03144" lon="-1.83489">
        <ele>28.5</ele>
        <time>2021-05-15T02:39:08.099Z</time>
      </trkpt>
      <trkpt lat="47.03131" lon="-1.8349">
        <ele>28.3</ele>
        <time>2021-05-15T02:39:09.907Z</time>
      </trkpt>
      <trkpt lat="47.03119" lon="-1.83491">
        <ele>28.2</ele>
        <time>2021-05-15T02:39:11.576Z</time>
      </trkpt>
      <trkpt lat="47.03106" lon="-1.83493">
        <ele>28.1</ele>
        <time>2021-05-15T02:39:12.587Z</time>
      </trkpt>
      <trkpt lat="47.03094" lon="-1.83495">
        <ele>28</ele>
        <time>2021-05-15T02:39:14.265Z</time>
      </trkpt>
      <trkpt lat="47.03082" lon="-1.83496">
        <ele>27.9</ele>
        <time>2021-05-15T02:39:15.934Z</time>
      </trkpt>
      <trkpt lat="47.0307" lon="-1.83497">
        <ele>27.6</ele>
        <time>2021-05-15T02:39:16.864Z</time>
      </trkpt>
      <trkpt lat="47.03057" lon="-1.83499">
        <ele>27.3</ele>
        <time>2021-05-15T02:39:18.679Z</time>
      </trkpt>
      <trkpt lat="47.03045" lon="-1.835">
        <ele>27.1</ele>
        <time>2021-05-15T02:39:20.349Z</time>
      </trkpt>
      <trkpt lat="47.03032" lon="-1.83502">
        <ele>26.8</ele>
        <time>2021-05-15T02:39:22.164Z</time>
      </trkpt>
      <trkpt lat="47.03019" lon="-1.83503">
        <ele>26.5</ele>
        <time>2021-05-15T02:39:23.171Z</time>
      </trkpt>
      <trkpt lat="47.03007" lon="-1.83504">
        <ele>26.2</ele>
        <time>2021-05-15T02:39:24.840Z</time>
      </trkpt>
      <trkpt lat="47.02994" lon="-1.83506">
        <ele>25.9</ele>
        <time>2021-05-15T02:39:26.656Z</time>
      </trkpt>
      <trkpt lat="47.02982" lon="-1.83507">
        <ele>25.4</ele>
        <time>2021-05-15T02:39:28.325Z</time>
      </trkpt>
      <trkpt lat="47.02969" lon="-1.83508">
        <ele>25</ele>
        <time>2021-05-15T02:39:29.332Z</time>
      </trkpt>
      <trkpt lat="47.02956" lon="-1.8351">
        <ele>24.5</ele>
        <time>2021-05-15T02:39:31.148Z</time>
      </trkpt>
      <trkpt lat="47.02944" lon="-1.83511">
        <ele>24.1</ele>
        <time>2021-05-15T02:39:32.817Z</time>
      </trkpt>
      <trkpt lat="47.02932" lon="-1.83514">
        <ele>23.7</ele>
        <time>2021-05-15T02:39:34.508Z</time>
      </trkpt>
      <trkpt lat="47.02919" lon="-1.83516">
        <ele>23.3</ele>
        <time>2021-05-15T02:39:36.323Z</time>
      </trkpt>
      <trkpt lat="47.02907" lon="-1.83519">
        <ele>23.5</ele>
        <time>2021-05-15T02:39:40.068Z</time>
      </trkpt>
      <trkpt lat="47.02894" lon="-1.83522">
        <ele>23.9</ele>
        <time>2021-05-15T02:39:41.086Z</time>
      </trkpt>
      <trkpt lat="47.02883" lon="-1.83525">
        <ele>24.2</ele>
        <time>2021-05-15T02:39:44.748Z</time>
      </trkpt>
      <trkpt lat="47.02871" lon="-1.83528">
        <ele>24.6</ele>
        <time>2021-05-15T02:39:46.439Z</time>
      </trkpt>
      <trkpt lat="47.0286" lon="-1.83532">
        <ele>25</ele>
        <time>2021-05-15T02:39:48.012Z</time>
      </trkpt>
      <trkpt lat="47.02849" lon="-1.83537">
        <ele>25.4</ele>
        <time>2021-05-15T02:39:49.612Z</time>
      </trkpt>
      <trkpt lat="47.02838" lon="-1.83544">
        <ele>25.9</ele>
        <time>2021-05-15T02:39:53.339Z</time>
      </trkpt>
      <trkpt lat="47.02828" lon="-1.83551">
        <ele>26.3</ele>
        <time>2021-05-15T02:39:54.878Z</time>
      </trkpt>
      <trkpt lat="47.02819" lon="-1.8356">
        <ele>26.5</ele>
        <time>2021-05-15T02:39:55.721Z</time>
      </trkpt>
      <trkpt lat="47.02809" lon="-1.83569">
        <ele>26.8</ele>
        <time>2021-05-15T02:39:57.350Z</time>
      </trkpt>
      <trkpt lat="47.02801" lon="-1.83579">
        <ele>26.9</ele>
        <time>2021-05-15T02:40:00.975Z</time>
      </trkpt>
      <trkpt lat="47.02791" lon="-1.83588">
        <ele>27</ele>
        <time>2021-05-15T02:40:02.604Z</time>
      </trkpt>
      <trkpt lat="47.0278" lon="-1.83596">
        <ele>27.1</ele>
        <time>2021-05-15T02:40:04.309Z</time>
      </trkpt>
      <trkpt lat="47.0277" lon="-1.83603">
        <ele>27.1</ele>
        <time>2021-05-15T02:40:05.848Z</time>
      </trkpt>
      <trkpt lat="47.02758" lon="-1.83609">
        <ele>27</ele>
        <time>2021-05-15T02:40:07.609Z</time>
      </trkpt>
      <trkpt lat="47.02747" lon="-1.83614">
        <ele>26.9</ele>
        <time>2021-05-15T02:40:09.208Z</time>
      </trkpt>
      <trkpt lat="47.02735" lon="-1.83617">
        <ele>26.7</ele>
        <time>2021-05-15T02:40:10.898Z</time>
      </trkpt>
      <trkpt lat="47.02722" lon="-1.83618">
        <ele>26.5</ele>
        <time>2021-05-15T02:40:12.706Z</time>
      </trkpt>
      <trkpt lat="47.0271" lon="-1.83619">
        <ele>26.2</ele>
        <time>2021-05-15T02:40:14.376Z</time>
      </trkpt>
      <trkpt lat="47.02697" lon="-1.8362">
        <ele>26</ele>
        <time>2021-05-15T02:40:15.383Z</time>
      </trkpt>
      <trkpt lat="47.02685" lon="-1.83621">
        <ele>25.8</ele>
        <time>2021-05-15T02:40:17.052Z</time>
      </trkpt>
      <trkpt lat="47.02672" lon="-1.83621">
        <ele>25.6</ele>
        <time>2021-05-15T02:40:18.858Z</time>
      </trkpt>
      <trkpt lat="47.0266" lon="-1.83622">
        <ele>25.4</ele>
        <time>2021-05-15T02:40:20.527Z</time>
      </trkpt>
      <trkpt lat="47.02648" lon="-1.83623">
        <ele>25.3</ele>
        <time>2021-05-15T02:40:22.196Z</time>
      </trkpt>
      <trkpt lat="47.02635" lon="-1.83623">
        <ele>25.1</ele>
        <time>2021-05-15T02:40:24.002Z</time>
      </trkpt>
      <trkpt lat="47.02622" lon="-1.83625">
        <ele>25</ele>
        <time>2021-05-15T02:40:25.817Z</time>
      </trkpt>
      <trkpt lat="47.02609" lon="-1.83625">
        <ele>24.8</ele>
        <time>2021-05-15T02:40:27.622Z</time>
      </trkpt>
      <trkpt lat="47.02597" lon="-1.83626">
        <ele>24.7</ele>
        <time>2021-05-15T02:40:29.292Z</time>
      </trkpt>
      <trkpt lat="47.02585" lon="-1.83626">
        <ele>24.5</ele>
        <time>2021-05-15T02:40:30.958Z</time>
      </trkpt>
      <trkpt lat="47.02573" lon="-1.83627">
        <ele>24.5</ele>
        <time>2021-05-15T02:40:32.627Z</time>
      </trkpt>
      <trkpt lat="47.02561" lon="-1.83628">
        <ele>24.4</ele>
        <time>2021-05-15T02:40:34.297Z</time>
      </trkpt>
      <trkpt lat="47.0255" lon="-1.83629">
        <ele>24.4</ele>
        <time>2021-05-15T02:40:35.827Z</time>
      </trkpt>
      <trkpt lat="47.02538" lon="-1.83631">
        <ele>24.3</ele>
        <time>2021-05-15T02:40:37.505Z</time>
      </trkpt>
      <trkpt lat="47.02526" lon="-1.83633">
        <ele>24.3</ele>
        <time>2021-05-15T02:40:39.182Z</time>
      </trkpt>
      <trkpt lat="47.02514" lon="-1.83635">
        <ele>24.3</ele>
        <time>2021-05-15T02:40:40.859Z</time>
      </trkpt>
      <trkpt lat="47.02503" lon="-1.83638">
        <ele>24.3</ele>
        <time>2021-05-15T02:40:42.413Z</time>
      </trkpt>
      <trkpt lat="47.02491" lon="-1.8364">
        <ele>24.1</ele>
        <time>2021-05-15T02:40:44.090Z</time>
      </trkpt>
      <trkpt lat="47.02479" lon="-1.83643">
        <ele>23.8</ele>
        <time>2021-05-15T02:40:45.781Z</time>
      </trkpt>
      <trkpt lat="47.02468" lon="-1.83646">
        <ele>23.5</ele>
        <time>2021-05-15T02:40:46.647Z</time>
      </trkpt>
      <trkpt lat="47.02456" lon="-1.83649">
        <ele>23.2</ele>
        <time>2021-05-15T02:40:48.337Z</time>
      </trkpt>
      <trkpt lat="47.02444" lon="-1.83651">
        <ele>22.9</ele>
        <time>2021-05-15T02:40:50.015Z</time>
      </trkpt>
      <trkpt lat="47.02432" lon="-1.83653">
        <ele>22.5</ele>
        <time>2021-05-15T02:40:51.692Z</time>
      </trkpt>
      <trkpt lat="47.0242" lon="-1.83656">
        <ele>22.1</ele>
        <time>2021-05-15T02:40:53.382Z</time>
      </trkpt>
      <trkpt lat="47.02408" lon="-1.83658">
        <ele>22.1</ele>
        <time>2021-05-15T02:40:54.317Z</time>
      </trkpt>
      <trkpt lat="47.02395" lon="-1.83659">
        <ele>22.3</ele>
        <time>2021-05-15T02:40:58.152Z</time>
      </trkpt>
      <trkpt lat="47.02383" lon="-1.83659">
        <ele>22.4</ele>
        <time>2021-05-15T02:40:59.081Z</time>
      </trkpt>
      <trkpt lat="47.0237" lon="-1.83659">
        <ele>22.6</ele>
        <time>2021-05-15T02:41:00.886Z</time>
      </trkpt>
      <trkpt lat="47.02357" lon="-1.83658">
        <ele>22.7</ele>
        <time>2021-05-15T02:41:02.694Z</time>
      </trkpt>
      <trkpt lat="47.02345" lon="-1.83657">
        <ele>22.9</ele>
        <time>2021-05-15T02:41:04.363Z</time>
      </trkpt>
      <trkpt lat="47.02332" lon="-1.83657">
        <ele>23</ele>
        <time>2021-05-15T02:41:05.369Z</time>
      </trkpt>
      <trkpt lat="47.02319" lon="-1.83656">
        <ele>22.9</ele>
        <time>2021-05-15T02:41:07.177Z</time>
      </trkpt>
      <trkpt lat="47.02306" lon="-1.83655">
        <ele>22.9</ele>
        <time>2021-05-15T02:41:08.985Z</time>
      </trkpt>
      <trkpt lat="47.02293" lon="-1.83654">
        <ele>22.8</ele>
        <time>2021-05-15T02:41:10.793Z</time>
      </trkpt>
      <trkpt lat="47.0228" lon="-1.83653">
        <ele>22.7</ele>
        <time>2021-05-15T02:41:12.601Z</time>
      </trkpt>
      <trkpt lat="47.02267" lon="-1.83653">
        <ele>22.6</ele>
        <time>2021-05-15T02:41:14.406Z</time>
      </trkpt>
      <trkpt lat="47.02254" lon="-1.83651">
        <ele>22.5</ele>
        <time>2021-05-15T02:41:16.222Z</time>
      </trkpt>
      <trkpt lat="47.02241" lon="-1.8365">
        <ele>22.4</ele>
        <time>2021-05-15T02:41:17.229Z</time>
      </trkpt>
      <trkpt lat="47.02228" lon="-1.83649">
        <ele>22.5</ele>
        <time>2021-05-15T02:41:19.037Z</time>
      </trkpt>
      <trkpt lat="47.02215" lon="-1.83647">
        <ele>22.5</ele>
        <time>2021-05-15T02:41:20.852Z</time>
      </trkpt>
      <trkpt lat="47.02202" lon="-1.83644">
        <ele>22.5</ele>
        <time>2021-05-15T02:41:22.680Z</time>
      </trkpt>
      <trkpt lat="47.0219" lon="-1.83639">
        <ele>22.5</ele>
        <time>2021-05-15T02:41:24.412Z</time>
      </trkpt>
      <trkpt lat="47.02178" lon="-1.83634">
        <ele>22.5</ele>
        <time>2021-05-15T02:41:26.145Z</time>
      </trkpt>
      <trkpt lat="47.02165" lon="-1.83627">
        <ele>22.5</ele>
        <time>2021-05-15T02:41:27.216Z</time>
      </trkpt>
      <trkpt lat="47.02153" lon="-1.8362">
        <ele>22.3</ele>
        <time>2021-05-15T02:41:29.010Z</time>
      </trkpt>
      <trkpt lat="47.02141" lon="-1.83613">
        <ele>22.2</ele>
        <time>2021-05-15T02:41:30.803Z</time>
      </trkpt>
      <trkpt lat="47.02129" lon="-1.83605">
        <ele>21.9</ele>
        <time>2021-05-15T02:41:31.823Z</time>
      </trkpt>
      <trkpt lat="47.02116" lon="-1.83598">
        <ele>21.7</ele>
        <time>2021-05-15T02:41:33.747Z</time>
      </trkpt>
      <trkpt lat="47.02104" lon="-1.83591">
        <ele>21.4</ele>
        <time>2021-05-15T02:41:35.540Z</time>
      </trkpt>
      <trkpt lat="47.02092" lon="-1.83584">
        <ele>21.1</ele>
        <time>2021-05-15T02:41:37.334Z</time>
      </trkpt>
      <trkpt lat="47.0208" lon="-1.83576">
        <ele>20.7</ele>
        <time>2021-05-15T02:41:39.164Z</time>
      </trkpt>
      <trkpt lat="47.02068" lon="-1.83569">
        <ele>20.4</ele>
        <time>2021-05-15T02:41:40.958Z</time>
      </trkpt>
      <trkpt lat="47.02056" lon="-1.83563">
        <ele>20.2</ele>
        <time>2021-05-15T02:41:42.718Z</time>
      </trkpt>
      <trkpt lat="47.02044" lon="-1.83555">
        <ele>20</ele>
        <time>2021-05-15T02:41:44.549Z</time>
      </trkpt>
      <trkpt lat="47.02032" lon="-1.83548">
        <ele>19.9</ele>
        <time>2021-05-15T02:41:46.343Z</time>
      </trkpt>
      <trkpt lat="47.0202" lon="-1.8354">
        <ele>19.9</ele>
        <time>2021-05-15T02:41:48.173Z</time>
      </trkpt>
      <trkpt lat="47.02008" lon="-1.83533">
        <ele>19.9</ele>
        <time>2021-05-15T02:41:49.173Z</time>
      </trkpt>
      <trkpt lat="47.01997" lon="-1.83526">
        <ele>19.9</ele>
        <time>2021-05-15T02:41:50.838Z</time>
      </trkpt>
      <trkpt lat="47.01984" lon="-1.83518">
        <ele>19.6</ele>
        <time>2021-05-15T02:41:52.796Z</time>
      </trkpt>
      <trkpt lat="47.01972" lon="-1.83512">
        <ele>19.3</ele>
        <time>2021-05-15T02:41:54.556Z</time>
      </trkpt>
      <trkpt lat="47.01959" lon="-1.83505">
        <ele>19</ele>
        <time>2021-05-15T02:41:55.628Z</time>
      </trkpt>
      <trkpt lat="47.01946" lon="-1.83499">
        <ele>18.7</ele>
        <time>2021-05-15T02:41:57.521Z</time>
      </trkpt>
      <trkpt lat="47.01931" lon="-1.83497">
        <ele>18.3</ele>
        <time>2021-05-15T02:41:59.612Z</time>
      </trkpt>
      <trkpt lat="47.01916" lon="-1.83499">
        <ele>18</ele>
        <time>2021-05-15T02:42:00.682Z</time>
      </trkpt>
      <trkpt lat="47.01901" lon="-1.83503">
        <ele>17.4</ele>
        <time>2021-05-15T02:42:02.800Z</time>
      </trkpt>
      <trkpt lat="47.01885" lon="-1.83506">
        <ele>16.9</ele>
        <time>2021-05-15T02:42:03.985Z</time>
      </trkpt>
      <trkpt lat="47.01869" lon="-1.8351">
        <ele>16.3</ele>
        <time>2021-05-15T02:42:05.181Z</time>
      </trkpt>
      <trkpt lat="47.01853" lon="-1.83514">
        <ele>15.7</ele>
        <time>2021-05-15T02:42:07.436Z</time>
      </trkpt>
      <trkpt lat="47.01838" lon="-1.83517">
        <ele>15.2</ele>
        <time>2021-05-15T02:42:08.514Z</time>
      </trkpt>
      <trkpt lat="47.01823" lon="-1.83521">
        <ele>14.7</ele>
        <time>2021-05-15T02:42:10.631Z</time>
      </trkpt>
      <trkpt lat="47.01808" lon="-1.83524">
        <ele>14.3</ele>
        <time>2021-05-15T02:42:12.734Z</time>
      </trkpt>
      <trkpt lat="47.01794" lon="-1.83528">
        <ele>13.9</ele>
        <time>2021-05-15T02:42:14.714Z</time>
      </trkpt>
      <trkpt lat="47.0178" lon="-1.83531">
        <ele>13.5</ele>
        <time>2021-05-15T02:42:15.809Z</time>
      </trkpt>
      <trkpt lat="47.01766" lon="-1.83536">
        <ele>13</ele>
        <time>2021-05-15T02:42:17.810Z</time>
      </trkpt>
      <trkpt lat="47.01754" lon="-1.83544">
        <ele>12.6</ele>
        <time>2021-05-15T02:42:19.641Z</time>
      </trkpt>
      <trkpt lat="47.01743" lon="-1.83555">
        <ele>12.3</ele>
        <time>2021-05-15T02:42:21.490Z</time>
      </trkpt>
      <trkpt lat="47.01734" lon="-1.83567">
        <ele>12</ele>
        <time>2021-05-15T02:42:23.179Z</time>
      </trkpt>
      <trkpt lat="47.01727" lon="-1.83581">
        <ele>11.8</ele>
        <time>2021-05-15T02:42:24.823Z</time>
      </trkpt>
      <trkpt lat="47.01721" lon="-1.83595">
        <ele>11.6</ele>
        <time>2021-05-15T02:42:28.491Z</time>
      </trkpt>
      <trkpt lat="47.01713" lon="-1.83609">
        <ele>11.4</ele>
        <time>2021-05-15T02:42:30.220Z</time>
      </trkpt>
      <trkpt lat="47.01706" lon="-1.83624">
        <ele>11.2</ele>
        <time>2021-05-15T02:42:31.179Z</time>
      </trkpt>
      <trkpt lat="47.01699" lon="-1.83637">
        <ele>11.1</ele>
        <time>2021-05-15T02:42:32.748Z</time>
      </trkpt>
      <trkpt lat="47.0169" lon="-1.83652">
        <ele>11</ele>
        <time>2021-05-15T02:42:34.640Z</time>
      </trkpt>
      <trkpt lat="47.01682" lon="-1.83664">
        <ele>11</ele>
        <time>2021-05-15T02:42:36.229Z</time>
      </trkpt>
      <trkpt lat="47.01673" lon="-1.83677">
        <ele>10.8</ele>
        <time>2021-05-15T02:42:37.983Z</time>
      </trkpt>
      <trkpt lat="47.01664" lon="-1.83689">
        <ele>10.5</ele>
        <time>2021-05-15T02:42:39.672Z</time>
      </trkpt>
      <trkpt lat="47.01654" lon="-1.83701">
        <ele>10.3</ele>
        <time>2021-05-15T02:42:41.467Z</time>
      </trkpt>
      <trkpt lat="47.01644" lon="-1.83713">
        <ele>10.2</ele>
        <time>2021-05-15T02:42:43.261Z</time>
      </trkpt>
      <trkpt lat="47.01634" lon="-1.83725">
        <ele>10.1</ele>
        <time>2021-05-15T02:42:45.056Z</time>
      </trkpt>
      <trkpt lat="47.01624" lon="-1.83736">
        <ele>10.2</ele>
        <time>2021-05-15T02:42:46.792Z</time>
      </trkpt>
      <trkpt lat="47.01615" lon="-1.83747">
        <ele>10.3</ele>
        <time>2021-05-15T02:42:47.698Z</time>
      </trkpt>
      <trkpt lat="47.01605" lon="-1.83759">
        <ele>10.5</ele>
        <time>2021-05-15T02:42:49.493Z</time>
      </trkpt>
      <trkpt lat="47.01596" lon="-1.83771">
        <ele>10.7</ele>
        <time>2021-05-15T02:42:51.182Z</time>
      </trkpt>
      <trkpt lat="47.01586" lon="-1.83782">
        <ele>10.9</ele>
        <time>2021-05-15T02:42:52.149Z</time>
      </trkpt>
      <trkpt lat="47.01576" lon="-1.83793">
        <ele>10.9</ele>
        <time>2021-05-15T02:42:53.885Z</time>
      </trkpt>
      <trkpt lat="47.01567" lon="-1.83805">
        <ele>10.8</ele>
        <time>2021-05-15T02:42:55.574Z</time>
      </trkpt>
      <trkpt lat="47.01557" lon="-1.83818">
        <ele>10.7</ele>
        <time>2021-05-15T02:42:57.430Z</time>
      </trkpt>
      <trkpt lat="47.01548" lon="-1.8383">
        <ele>10.6</ele>
        <time>2021-05-15T02:42:59.119Z</time>
      </trkpt>
      <trkpt lat="47.01538" lon="-1.83841">
        <ele>10.3</ele>
        <time>2021-05-15T02:43:00.855Z</time>
      </trkpt>
      <trkpt lat="47.0153" lon="-1.83854">
        <ele>10</ele>
        <time>2021-05-15T02:43:02.513Z</time>
      </trkpt>
      <trkpt lat="47.01521" lon="-1.83867">
        <ele>9.5</ele>
        <time>2021-05-15T02:43:04.268Z</time>
      </trkpt>
      <trkpt lat="47.01512" lon="-1.83882">
        <ele>9.1</ele>
        <time>2021-05-15T02:43:06.160Z</time>
      </trkpt>
      <trkpt lat="47.01504" lon="-1.83894">
        <ele>8.6</ele>
        <time>2021-05-15T02:43:07.749Z</time>
      </trkpt>
      <trkpt lat="47.01495" lon="-1.83907">
        <ele>8.2</ele>
        <time>2021-05-15T02:43:08.726Z</time>
      </trkpt>
      <trkpt lat="47.01486" lon="-1.8392">
        <ele>7.9</ele>
        <time>2021-05-15T02:43:10.481Z</time>
      </trkpt>
      <trkpt lat="47.01478" lon="-1.83933">
        <ele>7.7</ele>
        <time>2021-05-15T02:43:12.139Z</time>
      </trkpt>
      <trkpt lat="47.01469" lon="-1.83947">
        <ele>7.5</ele>
        <time>2021-05-15T02:43:13.961Z</time>
      </trkpt>
      <trkpt lat="47.0146" lon="-1.83961">
        <ele>7.4</ele>
        <time>2021-05-15T02:43:15.783Z</time>
      </trkpt>
      <trkpt lat="47.01451" lon="-1.83974">
        <ele>7.4</ele>
        <time>2021-05-15T02:43:16.760Z</time>
      </trkpt>
      <trkpt lat="47.01441" lon="-1.83989">
        <ele>7.5</ele>
        <time>2021-05-15T02:43:18.747Z</time>
      </trkpt>
      <trkpt lat="47.01432" lon="-1.84003">
        <ele>7.6</ele>
        <time>2021-05-15T02:43:19.762Z</time>
      </trkpt>
      <trkpt lat="47.01422" lon="-1.84018">
        <ele>7.5</ele>
        <time>2021-05-15T02:43:21.748Z</time>
      </trkpt>
      <trkpt lat="47.01413" lon="-1.84032">
        <ele>7.2</ele>
        <time>2021-05-15T02:43:23.570Z</time>
      </trkpt>
      <trkpt lat="47.01403" lon="-1.84046">
        <ele>6.7</ele>
        <time>2021-05-15T02:43:24.640Z</time>
      </trkpt>
      <trkpt lat="47.01394" lon="-1.84059">
        <ele>6.2</ele>
        <time>2021-05-15T02:43:26.394Z</time>
      </trkpt>
      <trkpt lat="47.01385" lon="-1.84073">
        <ele>5.8</ele>
        <time>2021-05-15T02:43:28.216Z</time>
      </trkpt>
      <trkpt lat="47.01375" lon="-1.84085">
        <ele>5.5</ele>
        <time>2021-05-15T02:43:30.011Z</time>
      </trkpt>
      <trkpt lat="47.01365" lon="-1.84097">
        <ele>5.4</ele>
        <time>2021-05-15T02:43:31.805Z</time>
      </trkpt>
      <trkpt lat="47.01355" lon="-1.84109">
        <ele>5.4</ele>
        <time>2021-05-15T02:43:32.805Z</time>
      </trkpt>
      <trkpt lat="47.01344" lon="-1.84121">
        <ele>5.5</ele>
        <time>2021-05-15T02:43:34.709Z</time>
      </trkpt>
      <trkpt lat="47.01334" lon="-1.84132">
        <ele>5.6</ele>
        <time>2021-05-15T02:43:38.487Z</time>
      </trkpt>
      <trkpt lat="47.01324" lon="-1.84143">
        <ele>5.6</ele>
        <time>2021-05-15T02:43:40.223Z</time>
      </trkpt>
      <trkpt lat="47.01314" lon="-1.84154">
        <ele>5.5</ele>
        <time>2021-05-15T02:43:41.959Z</time>
      </trkpt>
      <trkpt lat="47.01304" lon="-1.84165">
        <ele>5.3</ele>
        <time>2021-05-15T02:43:43.695Z</time>
      </trkpt>
      <trkpt lat="47.01294" lon="-1.84176">
        <ele>5.1</ele>
        <time>2021-05-15T02:43:45.431Z</time>
      </trkpt>
      <trkpt lat="47.01284" lon="-1.84186">
        <ele>4.8</ele>
        <time>2021-05-15T02:43:47.112Z</time>
      </trkpt>
      <trkpt lat="47.01274" lon="-1.84197">
        <ele>4.6</ele>
        <time>2021-05-15T02:43:48.848Z</time>
      </trkpt>
      <trkpt lat="47.01265" lon="-1.84208">
        <ele>4.4</ele>
        <time>2021-05-15T02:43:49.755Z</time>
      </trkpt>
      <trkpt lat="47.01255" lon="-1.84218">
        <ele>4.1</ele>
        <time>2021-05-15T02:43:51.436Z</time>
      </trkpt>
      <trkpt lat="47.01245" lon="-1.8423">
        <ele>4.1</ele>
        <time>2021-05-15T02:43:53.230Z</time>
      </trkpt>
      <trkpt lat="47.01234" lon="-1.84241">
        <ele>4.4</ele>
        <time>2021-05-15T02:43:55.079Z</time>
      </trkpt>
      <trkpt lat="47.01225" lon="-1.84251">
        <ele>4.6</ele>
        <time>2021-05-15T02:43:56.647Z</time>
      </trkpt>
      <trkpt lat="47.01215" lon="-1.84262">
        <ele>4.8</ele>
        <time>2021-05-15T02:43:58.383Z</time>
      </trkpt>
      <trkpt lat="47.01205" lon="-1.84273">
        <ele>5</ele>
        <time>2021-05-15T02:44:00.119Z</time>
      </trkpt>
      <trkpt lat="47.01196" lon="-1.84286">
        <ele>5.1</ele>
        <time>2021-05-15T02:44:01.874Z</time>
      </trkpt>
      <trkpt lat="47.01188" lon="-1.843">
        <ele>5.3</ele>
        <time>2021-05-15T02:44:02.837Z</time>
      </trkpt>
      <trkpt lat="47.01181" lon="-1.84315">
        <ele>5.5</ele>
        <time>2021-05-15T02:44:06.604Z</time>
      </trkpt>
      <trkpt lat="47.01176" lon="-1.84331">
        <ele>5.7</ele>
        <time>2021-05-15T02:44:08.271Z</time>
      </trkpt>
      <trkpt lat="47.01172" lon="-1.84346">
        <ele>5.8</ele>
        <time>2021-05-15T02:44:09.796Z</time>
      </trkpt>
      <trkpt lat="47.01168" lon="-1.84362">
        <ele>6</ele>
        <time>2021-05-15T02:44:11.410Z</time>
      </trkpt>
      <trkpt lat="47.01163" lon="-1.84377">
        <ele>5.9</ele>
        <time>2021-05-15T02:44:12.991Z</time>
      </trkpt>
      <trkpt lat="47.01159" lon="-1.84393">
        <ele>5.8</ele>
        <time>2021-05-15T02:44:13.890Z</time>
      </trkpt>
      <trkpt lat="47.01156" lon="-1.84409">
        <ele>5.7</ele>
        <time>2021-05-15T02:44:17.561Z</time>
      </trkpt>
      <trkpt lat="47.01151" lon="-1.84426">
        <ele>5.7</ele>
        <time>2021-05-15T02:44:19.314Z</time>
      </trkpt>
      <trkpt lat="47.01147" lon="-1.84442">
        <ele>5.7</ele>
        <time>2021-05-15T02:44:20.928Z</time>
      </trkpt>
      <trkpt lat="47.01143" lon="-1.84459">
        <ele>5.7</ele>
        <time>2021-05-15T02:44:22.631Z</time>
      </trkpt>
      <trkpt lat="47.01138" lon="-1.84476">
        <ele>5.8</ele>
        <time>2021-05-15T02:44:24.384Z</time>
      </trkpt>
      <trkpt lat="47.01134" lon="-1.84494">
        <ele>5.9</ele>
        <time>2021-05-15T02:44:25.383Z</time>
      </trkpt>
      <trkpt lat="47.01129" lon="-1.84511">
        <ele>5.9</ele>
        <time>2021-05-15T02:44:29.174Z</time>
      </trkpt>
      <trkpt lat="47.01124" lon="-1.84526">
        <ele>5.7</ele>
        <time>2021-05-15T02:44:30.055Z</time>
      </trkpt>
      <trkpt lat="47.01117" lon="-1.8454">
        <ele>5.5</ele>
        <time>2021-05-15T02:44:31.699Z</time>
      </trkpt>
      <trkpt lat="47.0111" lon="-1.84554">
        <ele>5.4</ele>
        <time>2021-05-15T02:44:33.343Z</time>
      </trkpt>
      <trkpt lat="47.01101" lon="-1.84566">
        <ele>5.2</ele>
        <time>2021-05-15T02:44:35.033Z</time>
      </trkpt>
      <trkpt lat="47.01092" lon="-1.84577">
        <ele>5.1</ele>
        <time>2021-05-15T02:44:35.939Z</time>
      </trkpt>
      <trkpt lat="47.01082" lon="-1.84587">
        <ele>5</ele>
        <time>2021-05-15T02:44:37.620Z</time>
      </trkpt>
      <trkpt lat="47.01073" lon="-1.84599">
        <ele>5.1</ele>
        <time>2021-05-15T02:44:39.309Z</time>
      </trkpt>
      <trkpt lat="47.01064" lon="-1.84609">
        <ele>5.1</ele>
        <time>2021-05-15T02:44:40.877Z</time>
      </trkpt>
      <trkpt lat="47.01054" lon="-1.8462">
        <ele>5.2</ele>
        <time>2021-05-15T02:44:44.656Z</time>
      </trkpt>
      <trkpt lat="47.01046" lon="-1.8463">
        <ele>5.4</ele>
        <time>2021-05-15T02:44:45.469Z</time>
      </trkpt>
      <trkpt lat="47.01036" lon="-1.84641">
        <ele>5.5</ele>
        <time>2021-05-15T02:44:47.205Z</time>
      </trkpt>
      <trkpt lat="47.01027" lon="-1.8465">
        <ele>5.7</ele>
        <time>2021-05-15T02:44:48.718Z</time>
      </trkpt>
      <trkpt lat="47.01017" lon="-1.84658">
        <ele>5.8</ele>
        <time>2021-05-15T02:44:50.300Z</time>
      </trkpt>
      <trkpt lat="47.01007" lon="-1.84665">
        <ele>6</ele>
        <time>2021-05-15T02:44:51.839Z</time>
      </trkpt>
      <trkpt lat="47.00997" lon="-1.84672">
        <ele>5.9</ele>
        <time>2021-05-15T02:44:53.378Z</time>
      </trkpt>
      <trkpt lat="47.00986" lon="-1.84678">
        <ele>5.6</ele>
        <time>2021-05-15T02:44:55.008Z</time>
      </trkpt>
      <trkpt lat="47.00976" lon="-1.84683">
        <ele>5.3</ele>
        <time>2021-05-15T02:44:56.475Z</time>
      </trkpt>
      <trkpt lat="47.00965" lon="-1.84689">
        <ele>5</ele>
        <time>2021-05-15T02:44:58.105Z</time>
      </trkpt>
      <trkpt lat="47.00955" lon="-1.84695">
        <ele>4.8</ele>
        <time>2021-05-15T02:44:59.605Z</time>
      </trkpt>
      <trkpt lat="47.00944" lon="-1.84701">
        <ele>4.5</ele>
        <time>2021-05-15T02:45:01.235Z</time>
      </trkpt>
      <trkpt lat="47.00934" lon="-1.84707">
        <ele>4.3</ele>
        <time>2021-05-15T02:45:02.736Z</time>
      </trkpt>
      <trkpt lat="47.00924" lon="-1.84712">
        <ele>4.1</ele>
        <time>2021-05-15T02:45:04.203Z</time>
      </trkpt>
      <trkpt lat="47.00914" lon="-1.84717">
        <ele>4</ele>
        <time>2021-05-15T02:45:05.670Z</time>
      </trkpt>
      <trkpt lat="47.00904" lon="-1.84723">
        <ele>4</ele>
        <time>2021-05-15T02:45:07.171Z</time>
      </trkpt>
      <trkpt lat="47.00894" lon="-1.8473">
        <ele>4</ele>
        <time>2021-05-15T02:45:08.028Z</time>
      </trkpt>
      <trkpt lat="47.00885" lon="-1.84741">
        <ele>4</ele>
        <time>2021-05-15T02:45:11.731Z</time>
      </trkpt>
      <trkpt lat="47.00873" lon="-1.8475">
        <ele>4</ele>
        <time>2021-05-15T02:45:13.603Z</time>
      </trkpt>
      <trkpt lat="47.00864" lon="-1.84757">
        <ele>3.9</ele>
        <time>2021-05-15T02:45:15.018Z</time>
      </trkpt>
      <trkpt lat="47.00855" lon="-1.84763">
        <ele>3.8</ele>
        <time>2021-05-15T02:45:16.391Z</time>
      </trkpt>
      <trkpt lat="47.00845" lon="-1.8477">
        <ele>3.8</ele>
        <time>2021-05-15T02:45:17.930Z</time>
      </trkpt>
      <trkpt lat="47.00835" lon="-1.84776">
        <ele>3.7</ele>
        <time>2021-05-15T02:45:19.430Z</time>
      </trkpt>
      <trkpt lat="47.00825" lon="-1.84783">
        <ele>3.5</ele>
        <time>2021-05-15T02:45:20.969Z</time>
      </trkpt>
      <trkpt lat="47.00814" lon="-1.84789">
        <ele>3.3</ele>
        <time>2021-05-15T02:45:22.599Z</time>
      </trkpt>
      <trkpt lat="47.00804" lon="-1.84795">
        <ele>3.1</ele>
        <time>2021-05-15T02:45:24.100Z</time>
      </trkpt>
      <trkpt lat="47.00794" lon="-1.84802">
        <ele>2.9</ele>
        <time>2021-05-15T02:45:25.639Z</time>
      </trkpt>
      <trkpt lat="47.00783" lon="-1.84808">
        <ele>2.7</ele>
        <time>2021-05-15T02:45:27.269Z</time>
      </trkpt>
      <trkpt lat="47.00773" lon="-1.84813">
        <ele>2.5</ele>
        <time>2021-05-15T02:45:30.895Z</time>
      </trkpt>
      <trkpt lat="47.00762" lon="-1.84818">
        <ele>2.3</ele>
        <time>2021-05-15T02:45:32.495Z</time>
      </trkpt>
      <trkpt lat="47.00751" lon="-1.84824">
        <ele>2.1</ele>
        <time>2021-05-15T02:45:34.125Z</time>
      </trkpt>
      <trkpt lat="47.00741" lon="-1.84829">
        <ele>2.2</ele>
        <time>2021-05-15T02:45:35.592Z</time>
      </trkpt>
      <trkpt lat="47.00731" lon="-1.84834">
        <ele>2.2</ele>
        <time>2021-05-15T02:45:37.059Z</time>
      </trkpt>
      <trkpt lat="47.00721" lon="-1.8484">
        <ele>2.3</ele>
        <time>2021-05-15T02:45:38.560Z</time>
      </trkpt>
      <trkpt lat="47.0071" lon="-1.84846">
        <ele>2.5</ele>
        <time>2021-05-15T02:45:40.190Z</time>
      </trkpt>
      <trkpt lat="47.007" lon="-1.84851">
        <ele>2.6</ele>
        <time>2021-05-15T02:45:41.657Z</time>
      </trkpt>
      <trkpt lat="47.0069" lon="-1.84856">
        <ele>2.7</ele>
        <time>2021-05-15T02:45:43.124Z</time>
      </trkpt>
      <trkpt lat="47.00679" lon="-1.84861">
        <ele>2.9</ele>
        <time>2021-05-15T02:45:44.724Z</time>
      </trkpt>
      <trkpt lat="47.00668" lon="-1.84867">
        <ele>3</ele>
        <time>2021-05-15T02:45:46.354Z</time>
      </trkpt>
      <trkpt lat="47.00657" lon="-1.84872">
        <ele>3.1</ele>
        <time>2021-05-15T02:45:47.953Z</time>
      </trkpt>
      <trkpt lat="47.00646" lon="-1.84878">
        <ele>3.2</ele>
        <time>2021-05-15T02:45:48.861Z</time>
      </trkpt>
      <trkpt lat="47.00636" lon="-1.84884">
        <ele>3.4</ele>
        <time>2021-05-15T02:45:50.362Z</time>
      </trkpt>
      <trkpt lat="47.00626" lon="-1.84891">
        <ele>3.5</ele>
        <time>2021-05-15T02:45:51.901Z</time>
      </trkpt>
      <trkpt lat="47.00617" lon="-1.84899">
        <ele>3.6</ele>
        <time>2021-05-15T02:45:53.362Z</time>
      </trkpt>
      <trkpt lat="47.00608" lon="-1.84907">
        <ele>3.7</ele>
        <time>2021-05-15T02:45:54.824Z</time>
      </trkpt>
      <trkpt lat="47.00599" lon="-1.84916">
        <ele>3.8</ele>
        <time>2021-05-15T02:45:56.337Z</time>
      </trkpt>
      <trkpt lat="47.0059" lon="-1.84925">
        <ele>3.7</ele>
        <time>2021-05-15T02:45:57.850Z</time>
      </trkpt>
      <trkpt lat="47.00582" lon="-1.84936">
        <ele>3.5</ele>
        <time>2021-05-15T02:45:59.373Z</time>
      </trkpt>
      <trkpt lat="47.00574" lon="-1.84947">
        <ele>3.2</ele>
        <time>2021-05-15T02:46:00.896Z</time>
      </trkpt>
      <trkpt lat="47.00567" lon="-1.84958">
        <ele>3</ele>
        <time>2021-05-15T02:46:02.321Z</time>
      </trkpt>
      <trkpt lat="47.00559" lon="-1.84968">
        <ele>2.8</ele>
        <time>2021-05-15T02:46:03.781Z</time>
      </trkpt>
      <trkpt lat="47.00551" lon="-1.84979">
        <ele>2.7</ele>
        <time>2021-05-15T02:46:05.304Z</time>
      </trkpt>
      <trkpt lat="47.00542" lon="-1.8499">
        <ele>2.6</ele>
        <time>2021-05-15T02:46:06.931Z</time>
      </trkpt>
      <trkpt lat="47.00534" lon="-1.85001">
        <ele>2.6</ele>
        <time>2021-05-15T02:46:07.779Z</time>
      </trkpt>
      <trkpt lat="47.00525" lon="-1.85012">
        <ele>2.7</ele>
        <time>2021-05-15T02:46:09.407Z</time>
      </trkpt>
      <trkpt lat="47.00516" lon="-1.85023">
        <ele>2.8</ele>
        <time>2021-05-15T02:46:11.034Z</time>
      </trkpt>
      <trkpt lat="47.00508" lon="-1.85033">
        <ele>2.9</ele>
        <time>2021-05-15T02:46:12.494Z</time>
      </trkpt>
      <trkpt lat="47.00499" lon="-1.85044">
        <ele>3</ele>
        <time>2021-05-15T02:46:14.121Z</time>
      </trkpt>
      <trkpt lat="47.00491" lon="-1.85053">
        <ele>3</ele>
        <time>2021-05-15T02:46:15.521Z</time>
      </trkpt>
      <trkpt lat="47.00482" lon="-1.85062">
        <ele>3.1</ele>
        <time>2021-05-15T02:46:19.164Z</time>
      </trkpt>
      <trkpt lat="47.00473" lon="-1.85071">
        <ele>3</ele>
        <time>2021-05-15T02:46:20.677Z</time>
      </trkpt>
      <trkpt lat="47.00463" lon="-1.85079">
        <ele>3</ele>
        <time>2021-05-15T02:46:22.259Z</time>
      </trkpt>
      <trkpt lat="47.00453" lon="-1.85088">
        <ele>3</ele>
        <time>2021-05-15T02:46:23.889Z</time>
      </trkpt>
      <trkpt lat="47.00444" lon="-1.85095">
        <ele>2.9</ele>
        <time>2021-05-15T02:46:25.304Z</time>
      </trkpt>
      <trkpt lat="47.00434" lon="-1.85103">
        <ele>2.8</ele>
        <time>2021-05-15T02:46:26.886Z</time>
      </trkpt>
      <trkpt lat="47.00425" lon="-1.8511">
        <ele>2.7</ele>
        <time>2021-05-15T02:46:28.300Z</time>
      </trkpt>
      <trkpt lat="47.00417" lon="-1.85118">
        <ele>2.6</ele>
        <time>2021-05-15T02:46:31.913Z</time>
      </trkpt>
      <trkpt lat="47.00407" lon="-1.85125">
        <ele>2.6</ele>
        <time>2021-05-15T02:46:33.452Z</time>
      </trkpt>
      <trkpt lat="47.00398" lon="-1.85134">
        <ele>2.5</ele>
        <time>2021-05-15T02:46:34.965Z</time>
      </trkpt>
      <trkpt lat="47.00389" lon="-1.85141">
        <ele>2.5</ele>
        <time>2021-05-15T02:46:36.380Z</time>
      </trkpt>
      <trkpt lat="47.0038" lon="-1.85149">
        <ele>2.6</ele>
        <time>2021-05-15T02:46:37.841Z</time>
      </trkpt>
      <trkpt lat="47.00371" lon="-1.85156">
        <ele>2.6</ele>
        <time>2021-05-15T02:46:39.256Z</time>
      </trkpt>
      <trkpt lat="47.00363" lon="-1.85163">
        <ele>2.7</ele>
        <time>2021-05-15T02:46:40.550Z</time>
      </trkpt>
      <trkpt lat="47.00354" lon="-1.85171">
        <ele>2.7</ele>
        <time>2021-05-15T02:46:42.011Z</time>
      </trkpt>
      <trkpt lat="47.00345" lon="-1.85178">
        <ele>2.7</ele>
        <time>2021-05-15T02:46:43.426Z</time>
      </trkpt>
      <trkpt lat="47.00336" lon="-1.85185">
        <ele>2.8</ele>
        <time>2021-05-15T02:46:44.841Z</time>
      </trkpt>
      <trkpt lat="47.00327" lon="-1.85193">
        <ele>2.7</ele>
        <time>2021-05-15T02:46:46.303Z</time>
      </trkpt>
      <trkpt lat="47.00318" lon="-1.85201">
        <ele>2.6</ele>
        <time>2021-05-15T02:46:47.117Z</time>
      </trkpt>
      <trkpt lat="47.00309" lon="-1.85209">
        <ele>2.5</ele>
        <time>2021-05-15T02:46:48.579Z</time>
      </trkpt>
      <trkpt lat="47.003" lon="-1.85217">
        <ele>2.5</ele>
        <time>2021-05-15T02:46:50.040Z</time>
      </trkpt>
      <trkpt lat="47.00291" lon="-1.85224">
        <ele>2.5</ele>
        <time>2021-05-15T02:46:51.455Z</time>
      </trkpt>
      <trkpt lat="47.00282" lon="-1.85232">
        <ele>2.6</ele>
        <time>2021-05-15T02:46:52.917Z</time>
      </trkpt>
      <trkpt lat="47.00273" lon="-1.8524">
        <ele>2.7</ele>
        <time>2021-05-15T02:46:54.379Z</time>
      </trkpt>
      <trkpt lat="47.00264" lon="-1.85248">
        <ele>2.8</ele>
        <time>2021-05-15T02:46:55.840Z</time>
      </trkpt>
      <trkpt lat="47.00255" lon="-1.85256">
        <ele>2.9</ele>
        <time>2021-05-15T02:46:57.302Z</time>
      </trkpt>
      <trkpt lat="47.00245" lon="-1.85264">
        <ele>3</ele>
        <time>2021-05-15T02:46:58.884Z</time>
      </trkpt>
      <trkpt lat="47.00237" lon="-1.85272">
        <ele>3</ele>
        <time>2021-05-15T02:47:00.229Z</time>
      </trkpt>
      <trkpt lat="47.00228" lon="-1.85281">
        <ele>3</ele>
        <time>2021-05-15T02:47:01.742Z</time>
      </trkpt>
      <trkpt lat="47.0022" lon="-1.85291">
        <ele>3</ele>
        <time>2021-05-15T02:47:03.202Z</time>
      </trkpt>
      <trkpt lat="47.00213" lon="-1.85302">
        <ele>3</ele>
        <time>2021-05-15T02:47:03.996Z</time>
      </trkpt>
      <trkpt lat="47.00206" lon="-1.85313">
        <ele>3</ele>
        <time>2021-05-15T02:47:05.421Z</time>
      </trkpt>
      <trkpt lat="47.002" lon="-1.85325">
        <ele>3</ele>
        <time>2021-05-15T02:47:06.830Z</time>
      </trkpt>
      <trkpt lat="47.00195" lon="-1.85338">
        <ele>2.9</ele>
        <time>2021-05-15T02:47:08.243Z</time>
      </trkpt>
      <trkpt lat="47.00189" lon="-1.8535">
        <ele>2.8</ele>
        <time>2021-05-15T02:47:09.653Z</time>
      </trkpt>
      <trkpt lat="47.00183" lon="-1.85363">
        <ele>2.6</ele>
        <time>2021-05-15T02:47:11.139Z</time>
      </trkpt>
      <trkpt lat="47.00177" lon="-1.85376">
        <ele>2.5</ele>
        <time>2021-05-15T02:47:12.626Z</time>
      </trkpt>
      <trkpt lat="47.00171" lon="-1.85388">
        <ele>2.3</ele>
        <time>2021-05-15T02:47:14.036Z</time>
      </trkpt>
      <trkpt lat="47.00165" lon="-1.854">
        <ele>2.2</ele>
        <time>2021-05-15T02:47:15.445Z</time>
      </trkpt>
      <trkpt lat="47.00158" lon="-1.85411">
        <ele>2.3</ele>
        <time>2021-05-15T02:47:16.870Z</time>
      </trkpt>
      <trkpt lat="47.00151" lon="-1.85422">
        <ele>2.4</ele>
        <time>2021-05-15T02:47:18.295Z</time>
      </trkpt>
      <trkpt lat="47.00144" lon="-1.85432">
        <ele>2.6</ele>
        <time>2021-05-15T02:47:19.652Z</time>
      </trkpt>
      <trkpt lat="47.00137" lon="-1.85439">
        <ele>2.8</ele>
        <time>2021-05-15T02:47:20.308Z</time>
      </trkpt>
      <trkpt lat="47.0013" lon="-1.85447">
        <ele>2.9</ele>
        <time>2021-05-15T02:47:21.540Z</time>
      </trkpt>
      <trkpt lat="47.00119" lon="-1.85452">
        <ele>3.1</ele>
        <time>2021-05-15T02:47:22.431Z</time>
      </trkpt>
      <trkpt lat="47.0011" lon="-1.85452">
        <ele>3.2</ele>
        <time>2021-05-15T02:47:23.681Z</time>
      </trkpt>
      <trkpt lat="47.00098" lon="-1.85445">
        <ele>3.4</ele>
        <time>2021-05-15T02:47:25.475Z</time>
      </trkpt>
      <trkpt lat="47.00089" lon="-1.85438">
        <ele>3.6</ele>
        <time>2021-05-15T02:47:26.890Z</time>
      </trkpt>
      <trkpt lat="47.00081" lon="-1.85429">
        <ele>3.8</ele>
        <time>2021-05-15T02:47:30.502Z</time>
      </trkpt>
      <trkpt lat="47.00073" lon="-1.85419">
        <ele>3.9</ele>
        <time>2021-05-15T02:47:31.962Z</time>
      </trkpt>
      <trkpt lat="47.00066" lon="-1.85408">
        <ele>3.7</ele>
        <time>2021-05-15T02:47:33.387Z</time>
      </trkpt>
      <trkpt lat="47.00057" lon="-1.85397">
        <ele>3.6</ele>
        <time>2021-05-15T02:47:35.014Z</time>
      </trkpt>
      <trkpt lat="47.00049" lon="-1.85386">
        <ele>3.5</ele>
        <time>2021-05-15T02:47:38.662Z</time>
      </trkpt>
      <trkpt lat="47.0004" lon="-1.85377">
        <ele>3.5</ele>
        <time>2021-05-15T02:47:39.505Z</time>
      </trkpt>
      <trkpt lat="47.00029" lon="-1.85371">
        <ele>3.5</ele>
        <time>2021-05-15T02:47:41.135Z</time>
      </trkpt>
      <trkpt lat="47.00017" lon="-1.85368">
        <ele>3.5</ele>
        <time>2021-05-15T02:47:42.077Z</time>
      </trkpt>
      <trkpt lat="47.00005" lon="-1.85367">
        <ele>3.6</ele>
        <time>2021-05-15T02:47:43.746Z</time>
      </trkpt>
      <trkpt lat="46.99993" lon="-1.85365">
        <ele>3.6</ele>
        <time>2021-05-15T02:47:45.423Z</time>
      </trkpt>
      <trkpt lat="46.99983" lon="-1.85358">
        <ele>3.7</ele>
        <time>2021-05-15T02:47:46.962Z</time>
      </trkpt>
      <trkpt lat="46.99975" lon="-1.85344">
        <ele>3.9</ele>
        <time>2021-05-15T02:47:50.736Z</time>
      </trkpt>
      <trkpt lat="46.99968" lon="-1.85329">
        <ele>4</ele>
        <time>2021-05-15T02:47:52.457Z</time>
      </trkpt>
      <trkpt lat="46.99961" lon="-1.85315">
        <ele>4.1</ele>
        <time>2021-05-15T02:47:56.171Z</time>
      </trkpt>
      <trkpt lat="46.99953" lon="-1.85301">
        <ele>4.2</ele>
        <time>2021-05-15T02:47:57.901Z</time>
      </trkpt>
      <trkpt lat="46.99945" lon="-1.85287">
        <ele>4.2</ele>
        <time>2021-05-15T02:47:59.631Z</time>
      </trkpt>
      <trkpt lat="46.99938" lon="-1.85272">
        <ele>4.2</ele>
        <time>2021-05-15T02:48:01.353Z</time>
      </trkpt>
      <trkpt lat="46.9993" lon="-1.85258">
        <ele>4.1</ele>
        <time>2021-05-15T02:48:05.126Z</time>
      </trkpt>
      <trkpt lat="46.99923" lon="-1.85242">
        <ele>4.2</ele>
        <time>2021-05-15T02:48:06.927Z</time>
      </trkpt>
      <trkpt lat="46.99918" lon="-1.85224">
        <ele>4.3</ele>
        <time>2021-05-15T02:48:07.952Z</time>
      </trkpt>
      <trkpt lat="46.99915" lon="-1.85206">
        <ele>4.5</ele>
        <time>2021-05-15T02:48:09.707Z</time>
      </trkpt>
      <trkpt lat="46.99912" lon="-1.85188">
        <ele>4.6</ele>
        <time>2021-05-15T02:48:11.462Z</time>
      </trkpt>
      <trkpt lat="46.9991" lon="-1.8517">
        <ele>4.7</ele>
        <time>2021-05-15T02:48:13.190Z</time>
      </trkpt>
      <trkpt lat="46.99907" lon="-1.85152">
        <ele>4.4</ele>
        <time>2021-05-15T02:48:14.945Z</time>
      </trkpt>
      <trkpt lat="46.99905" lon="-1.85135">
        <ele>4</ele>
        <time>2021-05-15T02:48:16.579Z</time>
      </trkpt>
      <trkpt lat="46.99903" lon="-1.85117">
        <ele>3.6</ele>
        <time>2021-05-15T02:48:18.306Z</time>
      </trkpt>
      <trkpt lat="46.99901" lon="-1.85099">
        <ele>3.3</ele>
        <time>2021-05-15T02:48:20.034Z</time>
      </trkpt>
      <trkpt lat="46.999" lon="-1.8508">
        <ele>3</ele>
        <time>2021-05-15T02:48:21.839Z</time>
      </trkpt>
      <trkpt lat="46.99898" lon="-1.85061">
        <ele>3</ele>
        <time>2021-05-15T02:48:22.853Z</time>
      </trkpt>
      <trkpt lat="46.99897" lon="-1.85042">
        <ele>3</ele>
        <time>2021-05-15T02:48:26.686Z</time>
      </trkpt>
      <trkpt lat="46.99896" lon="-1.85024">
        <ele>3</ele>
        <time>2021-05-15T02:48:28.397Z</time>
      </trkpt>
      <trkpt lat="46.99895" lon="-1.85006">
        <ele>3</ele>
        <time>2021-05-15T02:48:30.107Z</time>
      </trkpt>
      <trkpt lat="46.99895" lon="-1.84988">
        <ele>3.1</ele>
        <time>2021-05-15T02:48:31.812Z</time>
      </trkpt>
      <trkpt lat="46.99894" lon="-1.84969">
        <ele>3.4</ele>
        <time>2021-05-15T02:48:33.617Z</time>
      </trkpt>
      <trkpt lat="46.99893" lon="-1.84951">
        <ele>3.6</ele>
        <time>2021-05-15T02:48:37.376Z</time>
      </trkpt>
      <trkpt lat="46.99892" lon="-1.84933">
        <ele>3.8</ele>
        <time>2021-05-15T02:48:39.087Z</time>
      </trkpt>
      <trkpt lat="46.99891" lon="-1.84914">
        <ele>4</ele>
        <time>2021-05-15T02:48:40.892Z</time>
      </trkpt>
      <trkpt lat="46.99888" lon="-1.84896">
        <ele>4</ele>
        <time>2021-05-15T02:48:44.685Z</time>
      </trkpt>
      <trkpt lat="46.99887" lon="-1.84877">
        <ele>4</ele>
        <time>2021-05-15T02:48:46.490Z</time>
      </trkpt>
      <trkpt lat="46.99885" lon="-1.84858">
        <ele>4</ele>
        <time>2021-05-15T02:48:48.311Z</time>
      </trkpt>
      <trkpt lat="46.99882" lon="-1.8484">
        <ele>4</ele>
        <time>2021-05-15T02:48:50.066Z</time>
      </trkpt>
      <trkpt lat="46.99878" lon="-1.84822">
        <ele>3.9</ele>
        <time>2021-05-15T02:48:51.859Z</time>
      </trkpt>
      <trkpt lat="46.99874" lon="-1.84804">
        <ele>3.8</ele>
        <time>2021-05-15T02:48:53.652Z</time>
      </trkpt>
      <trkpt lat="46.99868" lon="-1.84785">
        <ele>3.8</ele>
        <time>2021-05-15T02:48:55.635Z</time>
      </trkpt>
      <trkpt lat="46.99862" lon="-1.84768">
        <ele>3.7</ele>
        <time>2021-05-15T02:48:57.448Z</time>
      </trkpt>
      <trkpt lat="46.99856" lon="-1.84752">
        <ele>3.7</ele>
        <time>2021-05-15T02:48:59.178Z</time>
      </trkpt>
      <trkpt lat="46.99849" lon="-1.84734">
        <ele>3.6</ele>
        <time>2021-05-15T02:49:01.141Z</time>
      </trkpt>
      <trkpt lat="46.99843" lon="-1.84717">
        <ele>3.4</ele>
        <time>2021-05-15T02:49:02.954Z</time>
      </trkpt>
      <trkpt lat="46.99836" lon="-1.84699">
        <ele>3.3</ele>
        <time>2021-05-15T02:49:04.916Z</time>
      </trkpt>
      <trkpt lat="46.99829" lon="-1.84683">
        <ele>3.2</ele>
        <time>2021-05-15T02:49:06.717Z</time>
      </trkpt>
      <trkpt lat="46.99823" lon="-1.84665">
        <ele>3</ele>
        <time>2021-05-15T02:49:08.614Z</time>
      </trkpt>
      <trkpt lat="46.99817" lon="-1.84648">
        <ele>2.8</ele>
        <time>2021-05-15T02:49:09.625Z</time>
      </trkpt>
      <trkpt lat="46.99812" lon="-1.8463">
        <ele>2.6</ele>
        <time>2021-05-15T02:49:13.487Z</time>
      </trkpt>
      <trkpt lat="46.99807" lon="-1.84612">
        <ele>2.3</ele>
        <time>2021-05-15T02:49:15.328Z</time>
      </trkpt>
      <trkpt lat="46.99803" lon="-1.84594">
        <ele>2.1</ele>
        <time>2021-05-15T02:49:17.122Z</time>
      </trkpt>
      <trkpt lat="46.99799" lon="-1.84575">
        <ele>2.1</ele>
        <time>2021-05-15T02:49:19.005Z</time>
      </trkpt>
      <trkpt lat="46.99795" lon="-1.84557">
        <ele>2.3</ele>
        <time>2021-05-15T02:49:20.798Z</time>
      </trkpt>
      <trkpt lat="46.99792" lon="-1.84538">
        <ele>2.5</ele>
        <time>2021-05-15T02:49:22.645Z</time>
      </trkpt>
      <trkpt lat="46.99788" lon="-1.84518">
        <ele>2.8</ele>
        <time>2021-05-15T02:49:24.620Z</time>
      </trkpt>
      <trkpt lat="46.99784" lon="-1.84499">
        <ele>3</ele>
        <time>2021-05-15T02:49:26.503Z</time>
      </trkpt>
      <trkpt lat="46.99781" lon="-1.8448">
        <ele>3</ele>
        <time>2021-05-15T02:49:28.350Z</time>
      </trkpt>
      <trkpt lat="46.99778" lon="-1.84461">
        <ele>3</ele>
        <time>2021-05-15T02:49:29.380Z</time>
      </trkpt>
      <trkpt lat="46.99774" lon="-1.84441">
        <ele>3</ele>
        <time>2021-05-15T02:49:31.354Z</time>
      </trkpt>
      <trkpt lat="46.9977" lon="-1.84422">
        <ele>3</ele>
        <time>2021-05-15T02:49:35.254Z</time>
      </trkpt>
      <trkpt lat="46.99767" lon="-1.84403">
        <ele>2.9</ele>
        <time>2021-05-15T02:49:37.101Z</time>
      </trkpt>
      <trkpt lat="46.99763" lon="-1.84383">
        <ele>2.7</ele>
        <time>2021-05-15T02:49:38.201Z</time>
      </trkpt>
      <trkpt lat="46.9976" lon="-1.84363">
        <ele>2.4</ele>
        <time>2021-05-15T02:49:40.141Z</time>
      </trkpt>
      <trkpt lat="46.99757" lon="-1.84344">
        <ele>2.2</ele>
        <time>2021-05-15T02:49:41.988Z</time>
      </trkpt>
      <trkpt lat="46.99754" lon="-1.84324">
        <ele>2.2</ele>
        <time>2021-05-15T02:49:43.928Z</time>
      </trkpt>
      <trkpt lat="46.99752" lon="-1.84304">
        <ele>2.4</ele>
        <time>2021-05-15T02:49:45.842Z</time>
      </trkpt>
      <trkpt lat="46.9975" lon="-1.84284">
        <ele>2.6</ele>
        <time>2021-05-15T02:49:47.757Z</time>
      </trkpt>
      <trkpt lat="46.99748" lon="-1.84265">
        <ele>2.8</ele>
        <time>2021-05-15T02:49:49.578Z</time>
      </trkpt>
      <trkpt lat="46.99746" lon="-1.84246">
        <ele>3</ele>
        <time>2021-05-15T02:49:51.399Z</time>
      </trkpt>
      <trkpt lat="46.99743" lon="-1.84227">
        <ele>3.3</ele>
        <time>2021-05-15T02:49:53.246Z</time>
      </trkpt>
      <trkpt lat="46.9974" lon="-1.84208">
        <ele>3.4</ele>
        <time>2021-05-15T02:49:55.094Z</time>
      </trkpt>
      <trkpt lat="46.99734" lon="-1.84192">
        <ele>3.6</ele>
        <time>2021-05-15T02:49:56.057Z</time>
      </trkpt>
      <trkpt lat="46.99723" lon="-1.84181">
        <ele>3.6</ele>
        <time>2021-05-15T02:49:59.927Z</time>
      </trkpt>
      <trkpt lat="46.99711" lon="-1.84175">
        <ele>3.5</ele>
        <time>2021-05-15T02:50:01.688Z</time>
      </trkpt>
      <trkpt lat="46.99699" lon="-1.84169">
        <ele>3.4</ele>
        <time>2021-05-15T02:50:03.449Z</time>
      </trkpt>
      <trkpt lat="46.99688" lon="-1.84162">
        <ele>3.1</ele>
        <time>2021-05-15T02:50:04.377Z</time>
      </trkpt>
      <trkpt lat="46.99677" lon="-1.84152">
        <ele>2.8</ele>
        <time>2021-05-15T02:50:06.174Z</time>
      </trkpt>
      <trkpt lat="46.99667" lon="-1.84141">
        <ele>2.4</ele>
        <time>2021-05-15T02:50:07.910Z</time>
      </trkpt>
      <trkpt lat="46.99657" lon="-1.8413">
        <ele>2.3</ele>
        <time>2021-05-15T02:50:09.646Z</time>
      </trkpt>
      <trkpt lat="46.99648" lon="-1.84117">
        <ele>2.2</ele>
        <time>2021-05-15T02:50:11.401Z</time>
      </trkpt>
      <trkpt lat="46.9964" lon="-1.84102">
        <ele>2</ele>
        <time>2021-05-15T02:50:13.205Z</time>
      </trkpt>
      <trkpt lat="46.99632" lon="-1.84087">
        <ele>1.9</ele>
        <time>2021-05-15T02:50:15.008Z</time>
      </trkpt>
      <trkpt lat="46.99626" lon="-1.84072">
        <ele>2</ele>
        <time>2021-05-15T02:50:18.724Z</time>
      </trkpt>
      <trkpt lat="46.99621" lon="-1.84056">
        <ele>2.2</ele>
        <time>2021-05-15T02:50:20.391Z</time>
      </trkpt>
      <trkpt lat="46.99616" lon="-1.84039">
        <ele>2.4</ele>
        <time>2021-05-15T02:50:22.145Z</time>
      </trkpt>
      <trkpt lat="46.99613" lon="-1.84021">
        <ele>2.6</ele>
        <time>2021-05-15T02:50:23.900Z</time>
      </trkpt>
      <trkpt lat="46.9961" lon="-1.84003">
        <ele>2.7</ele>
        <time>2021-05-15T02:50:25.655Z</time>
      </trkpt>
      <trkpt lat="46.99607" lon="-1.83985">
        <ele>2.7</ele>
        <time>2021-05-15T02:50:27.410Z</time>
      </trkpt>
      <trkpt lat="46.99604" lon="-1.83966">
        <ele>2.8</ele>
        <time>2021-05-15T02:50:29.258Z</time>
      </trkpt>
      <trkpt lat="46.99599" lon="-1.83948">
        <ele>2.8</ele>
        <time>2021-05-15T02:50:30.283Z</time>
      </trkpt>
      <trkpt lat="46.99591" lon="-1.83932">
        <ele>2.9</ele>
        <time>2021-05-15T02:50:32.162Z</time>
      </trkpt>
      <trkpt lat="46.9958" lon="-1.83922">
        <ele>3</ele>
        <time>2021-05-15T02:50:33.960Z</time>
      </trkpt>
      <trkpt lat="46.99568" lon="-1.83915">
        <ele>2.8</ele>
        <time>2021-05-15T02:50:35.754Z</time>
      </trkpt>
      <trkpt lat="46.99556" lon="-1.83908">
        <ele>2.7</ele>
        <time>2021-05-15T02:50:37.547Z</time>
      </trkpt>
      <trkpt lat="46.99545" lon="-1.83901">
        <ele>2.6</ele>
        <time>2021-05-15T02:50:39.213Z</time>
      </trkpt>
      <trkpt lat="46.99532" lon="-1.83895">
        <ele>2.5</ele>
        <time>2021-05-15T02:50:41.105Z</time>
      </trkpt>
      <trkpt lat="46.99521" lon="-1.83888">
        <ele>2.5</ele>
        <time>2021-05-15T02:50:44.833Z</time>
      </trkpt>
      <trkpt lat="46.99509" lon="-1.83881">
        <ele>2.5</ele>
        <time>2021-05-15T02:50:46.627Z</time>
      </trkpt>
      <trkpt lat="46.99497" lon="-1.83874">
        <ele>2.5</ele>
        <time>2021-05-15T02:50:48.420Z</time>
      </trkpt>
      <trkpt lat="46.99486" lon="-1.83865">
        <ele>2.7</ele>
        <time>2021-05-15T02:50:52.209Z</time>
      </trkpt>
      <trkpt lat="46.99477" lon="-1.83852">
        <ele>2.8</ele>
        <time>2021-05-15T02:50:53.963Z</time>
      </trkpt>
      <trkpt lat="46.99469" lon="-1.83837">
        <ele>3</ele>
        <time>2021-05-15T02:50:55.767Z</time>
      </trkpt>
      <trkpt lat="46.99462" lon="-1.83821">
        <ele>3.3</ele>
        <time>2021-05-15T02:50:57.568Z</time>
      </trkpt>
      <trkpt lat="46.99455" lon="-1.83805">
        <ele>3.7</ele>
        <time>2021-05-15T02:50:59.368Z</time>
      </trkpt>
      <trkpt lat="46.99446" lon="-1.83789">
        <ele>4.1</ele>
        <time>2021-05-15T02:51:00.463Z</time>
      </trkpt>
      <trkpt lat="46.99437" lon="-1.83776">
        <ele>4.4</ele>
        <time>2021-05-15T02:51:02.217Z</time>
      </trkpt>
      <trkpt lat="46.99426" lon="-1.83768">
        <ele>4.6</ele>
        <time>2021-05-15T02:51:03.923Z</time>
      </trkpt>
      <trkpt lat="46.99413" lon="-1.8376">
        <ele>4.8</ele>
        <time>2021-05-15T02:51:05.881Z</time>
      </trkpt>
      <trkpt lat="46.99402" lon="-1.83754">
        <ele>4.9</ele>
        <time>2021-05-15T02:51:07.511Z</time>
      </trkpt>
      <trkpt lat="46.99391" lon="-1.83747">
        <ele>5</ele>
        <time>2021-05-15T02:51:08.439Z</time>
      </trkpt>
      <trkpt lat="46.99379" lon="-1.8374">
        <ele>5</ele>
        <time>2021-05-15T02:51:12.262Z</time>
      </trkpt>
      <trkpt lat="46.99368" lon="-1.83733">
        <ele>5</ele>
        <time>2021-05-15T02:51:13.928Z</time>
      </trkpt>
      <trkpt lat="46.99356" lon="-1.83726">
        <ele>5</ele>
        <time>2021-05-15T02:51:15.721Z</time>
      </trkpt>
      <trkpt lat="46.99345" lon="-1.8372">
        <ele>5</ele>
        <time>2021-05-15T02:51:17.351Z</time>
      </trkpt>
      <trkpt lat="46.99333" lon="-1.83712">
        <ele>5</ele>
        <time>2021-05-15T02:51:19.182Z</time>
      </trkpt>
      <trkpt lat="46.99321" lon="-1.83705">
        <ele>4.9</ele>
        <time>2021-05-15T02:51:20.976Z</time>
      </trkpt>
      <trkpt lat="46.9931" lon="-1.83697">
        <ele>4.9</ele>
        <time>2021-05-15T02:51:24.731Z</time>
      </trkpt>
      <trkpt lat="46.99299" lon="-1.83688">
        <ele>4.9</ele>
        <time>2021-05-15T02:51:26.481Z</time>
      </trkpt>
      <trkpt lat="46.99288" lon="-1.83678">
        <ele>4.9</ele>
        <time>2021-05-15T02:51:28.278Z</time>
      </trkpt>
      <trkpt lat="46.99278" lon="-1.83667">
        <ele>5</ele>
        <time>2021-05-15T02:51:30.014Z</time>
      </trkpt>
      <trkpt lat="46.99268" lon="-1.83657">
        <ele>5.1</ele>
        <time>2021-05-15T02:51:31.695Z</time>
      </trkpt>
      <trkpt lat="46.9926" lon="-1.83645">
        <ele>5.2</ele>
        <time>2021-05-15T02:51:33.285Z</time>
      </trkpt>
      <trkpt lat="46.99251" lon="-1.83634">
        <ele>5.4</ele>
        <time>2021-05-15T02:51:36.988Z</time>
      </trkpt>
      <trkpt lat="46.99242" lon="-1.83623">
        <ele>5.4</ele>
        <time>2021-05-15T02:51:37.895Z</time>
      </trkpt>
      <trkpt lat="46.99233" lon="-1.83612">
        <ele>5.3</ele>
        <time>2021-05-15T02:51:39.522Z</time>
      </trkpt>
      <trkpt lat="46.99223" lon="-1.83601">
        <ele>5.2</ele>
        <time>2021-05-15T02:51:41.258Z</time>
      </trkpt>
      <trkpt lat="46.99214" lon="-1.83589">
        <ele>5.1</ele>
        <time>2021-05-15T02:51:42.948Z</time>
      </trkpt>
      <trkpt lat="46.99205" lon="-1.83577">
        <ele>4.9</ele>
        <time>2021-05-15T02:51:43.889Z</time>
      </trkpt>
      <trkpt lat="46.99196" lon="-1.83566">
        <ele>4.6</ele>
        <time>2021-05-15T02:51:47.592Z</time>
      </trkpt>
      <trkpt lat="46.99187" lon="-1.83555">
        <ele>4.2</ele>
        <time>2021-05-15T02:51:48.499Z</time>
      </trkpt>
      <trkpt lat="46.99178" lon="-1.83544">
        <ele>3.9</ele>
        <time>2021-05-15T02:51:50.126Z</time>
      </trkpt>
      <trkpt lat="46.99169" lon="-1.83533">
        <ele>3.5</ele>
        <time>2021-05-15T02:51:51.753Z</time>
      </trkpt>
      <trkpt lat="46.9916" lon="-1.83523">
        <ele>3.2</ele>
        <time>2021-05-15T02:51:52.627Z</time>
      </trkpt>
      <trkpt lat="46.99149" lon="-1.83517">
        <ele>2.9</ele>
        <time>2021-05-15T02:51:54.257Z</time>
      </trkpt>
      <trkpt lat="46.99142" lon="-1.83504">
        <ele>2.7</ele>
        <time>2021-05-15T02:51:55.131Z</time>
      </trkpt>
      <trkpt lat="46.99148" lon="-1.83488">
        <ele>2.8</ele>
        <time>2021-05-15T02:51:58.905Z</time>
      </trkpt>
      <trkpt lat="46.99154" lon="-1.83472">
        <ele>2.8</ele>
        <time>2021-05-15T02:52:00.634Z</time>
      </trkpt>
      <trkpt lat="46.99158" lon="-1.83454">
        <ele>2.9</ele>
        <time>2021-05-15T02:52:02.428Z</time>
      </trkpt>
      <trkpt lat="46.99162" lon="-1.83436">
        <ele>2.9</ele>
        <time>2021-05-15T02:52:04.221Z</time>
      </trkpt>
      <trkpt lat="46.99166" lon="-1.83418">
        <ele>3</ele>
        <time>2021-05-15T02:52:08.044Z</time>
      </trkpt>
      <trkpt lat="46.9917" lon="-1.83399">
        <ele>3.1</ele>
        <time>2021-05-15T02:52:09.928Z</time>
      </trkpt>
      <trkpt lat="46.99174" lon="-1.8338">
        <ele>3.2</ele>
        <time>2021-05-15T02:52:11.812Z</time>
      </trkpt>
      <trkpt lat="46.99178" lon="-1.83361">
        <ele>3.3</ele>
        <time>2021-05-15T02:52:15.712Z</time>
      </trkpt>
      <trkpt lat="46.99182" lon="-1.83342">
        <ele>3.4</ele>
        <time>2021-05-15T02:52:16.761Z</time>
      </trkpt>
      <trkpt lat="46.99186" lon="-1.83323">
        <ele>3.4</ele>
        <time>2021-05-15T02:52:18.645Z</time>
      </trkpt>
      <trkpt lat="46.99191" lon="-1.83304">
        <ele>3.3</ele>
        <time>2021-05-15T02:52:22.586Z</time>
      </trkpt>
      <trkpt lat="46.99195" lon="-1.83284">
        <ele>3.3</ele>
        <time>2021-05-15T02:52:24.560Z</time>
      </trkpt>
      <trkpt lat="46.99199" lon="-1.83265">
        <ele>3.3</ele>
        <time>2021-05-15T02:52:26.444Z</time>
      </trkpt>
      <trkpt lat="46.99204" lon="-1.83244">
        <ele>3.4</ele>
        <time>2021-05-15T02:52:28.551Z</time>
      </trkpt>
      <trkpt lat="46.99208" lon="-1.83224">
        <ele>3.6</ele>
        <time>2021-05-15T02:52:30.525Z</time>
      </trkpt>
      <trkpt lat="46.99213" lon="-1.83205">
        <ele>3.9</ele>
        <time>2021-05-15T02:52:32.455Z</time>
      </trkpt>
      <trkpt lat="46.99218" lon="-1.83185">
        <ele>4.1</ele>
        <time>2021-05-15T02:52:34.472Z</time>
      </trkpt>
      <trkpt lat="46.99222" lon="-1.83165">
        <ele>4.3</ele>
        <time>2021-05-15T02:52:36.447Z</time>
      </trkpt>
      <trkpt lat="46.99226" lon="-1.83146">
        <ele>3.8</ele>
        <time>2021-05-15T02:52:38.330Z</time>
      </trkpt>
      <trkpt lat="46.9923" lon="-1.83127">
        <ele>3.3</ele>
        <time>2021-05-15T02:52:40.214Z</time>
      </trkpt>
      <trkpt lat="46.99234" lon="-1.83106">
        <ele>2.7</ele>
        <time>2021-05-15T02:52:42.280Z</time>
      </trkpt>
      <trkpt lat="46.99238" lon="-1.83087">
        <ele>2.1</ele>
        <time>2021-05-15T02:52:44.163Z</time>
      </trkpt>
      <trkpt lat="46.99242" lon="-1.83068">
        <ele>2.2</ele>
        <time>2021-05-15T02:52:46.047Z</time>
      </trkpt>
      <trkpt lat="46.99247" lon="-1.83049">
        <ele>2.4</ele>
        <time>2021-05-15T02:52:47.976Z</time>
      </trkpt>
      <trkpt lat="46.99251" lon="-1.8303">
        <ele>2.6</ele>
        <time>2021-05-15T02:52:49.860Z</time>
      </trkpt>
      <trkpt lat="46.99255" lon="-1.83011">
        <ele>2.9</ele>
        <time>2021-05-15T02:52:51.743Z</time>
      </trkpt>
      <trkpt lat="46.9926" lon="-1.82993">
        <ele>3.1</ele>
        <time>2021-05-15T02:52:53.584Z</time>
      </trkpt>
      <trkpt lat="46.99264" lon="-1.82974">
        <ele>3.3</ele>
        <time>2021-05-15T02:52:55.468Z</time>
      </trkpt>
      <trkpt lat="46.99268" lon="-1.82956">
        <ele>3.5</ele>
        <time>2021-05-15T02:52:57.261Z</time>
      </trkpt>
      <trkpt lat="46.99273" lon="-1.82936">
        <ele>3.8</ele>
        <time>2021-05-15T02:52:59.279Z</time>
      </trkpt>
      <trkpt lat="46.99277" lon="-1.82918">
        <ele>4</ele>
        <time>2021-05-15T02:53:01.073Z</time>
      </trkpt>
      <trkpt lat="46.99281" lon="-1.829">
        <ele>3.9</ele>
        <time>2021-05-15T02:53:02.866Z</time>
      </trkpt>
      <trkpt lat="46.99285" lon="-1.82881">
        <ele>3.8</ele>
        <time>2021-05-15T02:53:04.750Z</time>
      </trkpt>
      <trkpt lat="46.99289" lon="-1.82862">
        <ele>3.7</ele>
        <time>2021-05-15T02:53:06.633Z</time>
      </trkpt>
      <trkpt lat="46.99293" lon="-1.82844">
        <ele>3.6</ele>
        <time>2021-05-15T02:53:08.426Z</time>
      </trkpt>
      <trkpt lat="46.99297" lon="-1.82826">
        <ele>3.5</ele>
        <time>2021-05-15T02:53:10.220Z</time>
      </trkpt>
      <trkpt lat="46.99301" lon="-1.82809">
        <ele>3.4</ele>
        <time>2021-05-15T02:53:11.923Z</time>
      </trkpt>
      <trkpt lat="46.99304" lon="-1.8279">
        <ele>3.3</ele>
        <time>2021-05-15T02:53:13.771Z</time>
      </trkpt>
      <trkpt lat="46.99308" lon="-1.82771">
        <ele>3.2</ele>
        <time>2021-05-15T02:53:15.654Z</time>
      </trkpt>
      <trkpt lat="46.99311" lon="-1.82753">
        <ele>3</ele>
        <time>2021-05-15T02:53:16.632Z</time>
      </trkpt>
      <trkpt lat="46.99315" lon="-1.82734">
        <ele>3.2</ele>
        <time>2021-05-15T02:53:18.516Z</time>
      </trkpt>
      <trkpt lat="46.9932" lon="-1.82716">
        <ele>3.4</ele>
        <time>2021-05-15T02:53:20.357Z</time>
      </trkpt>
      <trkpt lat="46.99324" lon="-1.82697">
        <ele>3.6</ele>
        <time>2021-05-15T02:53:22.241Z</time>
      </trkpt>
      <trkpt lat="46.99328" lon="-1.82679">
        <ele>3.9</ele>
        <time>2021-05-15T02:53:24.034Z</time>
      </trkpt>
      <trkpt lat="46.99333" lon="-1.82661">
        <ele>3.9</ele>
        <time>2021-05-15T02:53:25.875Z</time>
      </trkpt>
      <trkpt lat="46.99337" lon="-1.82642">
        <ele>3.7</ele>
        <time>2021-05-15T02:53:27.759Z</time>
      </trkpt>
      <trkpt lat="46.99343" lon="-1.82624">
        <ele>3.6</ele>
        <time>2021-05-15T02:53:29.657Z</time>
      </trkpt>
      <trkpt lat="46.9935" lon="-1.82608">
        <ele>3.5</ele>
        <time>2021-05-15T02:53:31.457Z</time>
      </trkpt>
      <trkpt lat="46.99357" lon="-1.82593">
        <ele>3.4</ele>
        <time>2021-05-15T02:53:35.225Z</time>
      </trkpt>
      <trkpt lat="46.99362" lon="-1.82576">
        <ele>3.4</ele>
        <time>2021-05-15T02:53:36.978Z</time>
      </trkpt>
      <trkpt lat="46.99363" lon="-1.82557">
        <ele>3.6</ele>
        <time>2021-05-15T02:53:38.783Z</time>
      </trkpt>
      <trkpt lat="46.9936" lon="-1.8254">
        <ele>3.7</ele>
        <time>2021-05-15T02:53:40.447Z</time>
      </trkpt>
      <trkpt lat="46.99354" lon="-1.82521">
        <ele>3.8</ele>
        <time>2021-05-15T02:53:42.430Z</time>
      </trkpt>
      <trkpt lat="46.99351" lon="-1.82504">
        <ele>4</ele>
        <time>2021-05-15T02:53:44.094Z</time>
      </trkpt>
      <trkpt lat="46.99345" lon="-1.82488">
        <ele>4.2</ele>
        <time>2021-05-15T02:53:45.823Z</time>
      </trkpt>
      <trkpt lat="46.99341" lon="-1.82471">
        <ele>4.4</ele>
        <time>2021-05-15T02:53:47.527Z</time>
      </trkpt>
      <trkpt lat="46.99337" lon="-1.82452">
        <ele>4.6</ele>
        <time>2021-05-15T02:53:49.410Z</time>
      </trkpt>
      <trkpt lat="46.99333" lon="-1.82435">
        <ele>4.8</ele>
        <time>2021-05-15T02:53:51.114Z</time>
      </trkpt>
      <trkpt lat="46.99328" lon="-1.82416">
        <ele>4.9</ele>
        <time>2021-05-15T02:53:53.043Z</time>
      </trkpt>
      <trkpt lat="46.99324" lon="-1.82397">
        <ele>4.9</ele>
        <time>2021-05-15T02:53:54.927Z</time>
      </trkpt>
      <trkpt lat="46.99322" lon="-1.82378">
        <ele>4.8</ele>
        <time>2021-05-15T02:53:56.748Z</time>
      </trkpt>
      <trkpt lat="46.9932" lon="-1.82359">
        <ele>4.7</ele>
        <time>2021-05-15T02:54:00.594Z</time>
      </trkpt>
      <trkpt lat="46.99317" lon="-1.82342">
        <ele>4.6</ele>
        <time>2021-05-15T02:54:02.257Z</time>
      </trkpt>
      <trkpt lat="46.99314" lon="-1.82324">
        <ele>4.6</ele>
        <time>2021-05-15T02:54:06.050Z</time>
      </trkpt>
      <trkpt lat="46.9931" lon="-1.82306">
        <ele>4.5</ele>
        <time>2021-05-15T02:54:07.844Z</time>
      </trkpt>
      <trkpt lat="46.99307" lon="-1.82289">
        <ele>4.5</ele>
        <time>2021-05-15T02:54:09.507Z</time>
      </trkpt>
      <trkpt lat="46.99303" lon="-1.82272">
        <ele>4.5</ele>
        <time>2021-05-15T02:54:10.456Z</time>
      </trkpt>
      <trkpt lat="46.99298" lon="-1.82255">
        <ele>4.6</ele>
        <time>2021-05-15T02:54:12.210Z</time>
      </trkpt>
      <trkpt lat="46.99293" lon="-1.82239">
        <ele>4.6</ele>
        <time>2021-05-15T02:54:13.877Z</time>
      </trkpt>
      <trkpt lat="46.99287" lon="-1.82224">
        <ele>4.8</ele>
        <time>2021-05-15T02:54:17.593Z</time>
      </trkpt>
      <trkpt lat="46.9928" lon="-1.82215">
        <ele>4.8</ele>
        <time>2021-05-15T02:54:18.313Z</time>
      </trkpt>
      <trkpt lat="46.99267" lon="-1.82216">
        <ele>4.6</ele>
        <time>2021-05-15T02:54:20.121Z</time>
      </trkpt>
      <trkpt lat="46.99256" lon="-1.82218">
        <ele>4.5</ele>
        <time>2021-05-15T02:54:21.660Z</time>
      </trkpt>
      <trkpt lat="46.99244" lon="-1.82219">
        <ele>4.3</ele>
        <time>2021-05-15T02:54:23.330Z</time>
      </trkpt>
      <trkpt lat="46.99232" lon="-1.82219">
        <ele>4.1</ele>
        <time>2021-05-15T02:54:24.996Z</time>
      </trkpt>
      <trkpt lat="46.99221" lon="-1.82216">
        <ele>4</ele>
        <time>2021-05-15T02:54:26.550Z</time>
      </trkpt>
      <trkpt lat="46.9921" lon="-1.82212">
        <ele>3.9</ele>
        <time>2021-05-15T02:54:27.427Z</time>
      </trkpt>
      <trkpt lat="46.99199" lon="-1.82208">
        <ele>3.9</ele>
        <time>2021-05-15T02:54:29.001Z</time>
      </trkpt>
      <trkpt lat="46.99188" lon="-1.82203">
        <ele>3.9</ele>
        <time>2021-05-15T02:54:30.600Z</time>
      </trkpt>
      <trkpt lat="46.99177" lon="-1.82199">
        <ele>3.9</ele>
        <time>2021-05-15T02:54:34.273Z</time>
      </trkpt>
      <trkpt lat="46.99165" lon="-1.82193">
        <ele>4</ele>
        <time>2021-05-15T02:54:38.070Z</time>
      </trkpt>
      <trkpt lat="46.99154" lon="-1.82188">
        <ele>4</ele>
        <time>2021-05-15T02:54:39.669Z</time>
      </trkpt>
      <trkpt lat="46.99143" lon="-1.82185">
        <ele>3.9</ele>
        <time>2021-05-15T02:54:43.331Z</time>
      </trkpt>
      <trkpt lat="46.99133" lon="-1.82183">
        <ele>3.8</ele>
        <time>2021-05-15T02:54:44.733Z</time>
      </trkpt>
      <trkpt lat="46.99121" lon="-1.82185">
        <ele>3.5</ele>
        <time>2021-05-15T02:54:46.410Z</time>
      </trkpt>
      <trkpt lat="46.9911" lon="-1.82187">
        <ele>3.2</ele>
        <time>2021-05-15T02:54:47.268Z</time>
      </trkpt>
      <trkpt lat="46.99098" lon="-1.82188">
        <ele>3</ele>
        <time>2021-05-15T02:54:48.937Z</time>
      </trkpt>
      <trkpt lat="46.99089" lon="-1.8218">
        <ele>3</ele>
        <time>2021-05-15T02:54:49.751Z</time>
      </trkpt>
      <trkpt lat="46.99087" lon="-1.82164">
        <ele>3.1</ele>
        <time>2021-05-15T02:54:51.292Z</time>
      </trkpt>
      <trkpt lat="46.99085" lon="-1.82147">
        <ele>3.3</ele>
        <time>2021-05-15T02:54:52.927Z</time>
      </trkpt>
      <trkpt lat="46.99082" lon="-1.82128">
        <ele>3.5</ele>
        <time>2021-05-15T02:54:54.774Z</time>
      </trkpt>
      <trkpt lat="46.9908" lon="-1.8211">
        <ele>3.7</ele>
        <time>2021-05-15T02:54:55.737Z</time>
      </trkpt>
      <trkpt lat="46.99079" lon="-1.8209">
        <ele>3.9</ele>
        <time>2021-05-15T02:54:57.636Z</time>
      </trkpt>
      <trkpt lat="46.99078" lon="-1.82072">
        <ele>3.9</ele>
        <time>2021-05-15T02:54:58.590Z</time>
      </trkpt>
      <trkpt lat="46.99079" lon="-1.82054">
        <ele>3.7</ele>
        <time>2021-05-15T02:55:00.300Z</time>
      </trkpt>
      <trkpt lat="46.9908" lon="-1.82035">
        <ele>3.4</ele>
        <time>2021-05-15T02:55:04.133Z</time>
      </trkpt>
      <trkpt lat="46.9908" lon="-1.82016">
        <ele>3.2</ele>
        <time>2021-05-15T02:55:05.933Z</time>
      </trkpt>
      <trkpt lat="46.99081" lon="-1.81998">
        <ele>3</ele>
        <time>2021-05-15T02:55:07.644Z</time>
      </trkpt>
      <trkpt lat="46.99083" lon="-1.8198">
        <ele>2.8</ele>
        <time>2021-05-15T02:55:09.372Z</time>
      </trkpt>
      <trkpt lat="46.99084" lon="-1.81962">
        <ele>2.6</ele>
        <time>2021-05-15T02:55:10.325Z</time>
      </trkpt>
      <trkpt lat="46.99086" lon="-1.81943">
        <ele>2.4</ele>
        <time>2021-05-15T02:55:12.146Z</time>
      </trkpt>
      <trkpt lat="46.99088" lon="-1.81925">
        <ele>2.2</ele>
        <time>2021-05-15T02:55:13.874Z</time>
      </trkpt>
      <trkpt lat="46.9909" lon="-1.81907">
        <ele>2.4</ele>
        <time>2021-05-15T02:55:15.601Z</time>
      </trkpt>
      <trkpt lat="46.99092" lon="-1.81888">
        <ele>2.9</ele>
        <time>2021-05-15T02:55:19.448Z</time>
      </trkpt>
      <trkpt lat="46.99096" lon="-1.8187">
        <ele>3.3</ele>
        <time>2021-05-15T02:55:21.241Z</time>
      </trkpt>
      <trkpt lat="46.991" lon="-1.81853">
        <ele>3.8</ele>
        <time>2021-05-15T02:55:22.945Z</time>
      </trkpt>
      <trkpt lat="46.99104" lon="-1.81835">
        <ele>4.2</ele>
        <time>2021-05-15T02:55:24.738Z</time>
      </trkpt>
      <trkpt lat="46.9911" lon="-1.81819">
        <ele>4.3</ele>
        <time>2021-05-15T02:55:26.468Z</time>
      </trkpt>
      <trkpt lat="46.99119" lon="-1.81805">
        <ele>4.4</ele>
        <time>2021-05-15T02:55:28.290Z</time>
      </trkpt>
      <trkpt lat="46.99129" lon="-1.81793">
        <ele>4.5</ele>
        <time>2021-05-15T02:55:30.085Z</time>
      </trkpt>
      <trkpt lat="46.99138" lon="-1.8178">
        <ele>4.7</ele>
        <time>2021-05-15T02:55:31.062Z</time>
      </trkpt>
      <trkpt lat="46.99147" lon="-1.81768">
        <ele>4.8</ele>
        <time>2021-05-15T02:55:32.752Z</time>
      </trkpt>
      <trkpt lat="46.99156" lon="-1.81757">
        <ele>4.9</ele>
        <time>2021-05-15T02:55:34.379Z</time>
      </trkpt>
      <trkpt lat="46.99165" lon="-1.81746">
        <ele>4.9</ele>
        <time>2021-05-15T02:55:36.007Z</time>
      </trkpt>
      <trkpt lat="46.99175" lon="-1.81734">
        <ele>4.9</ele>
        <time>2021-05-15T02:55:37.801Z</time>
      </trkpt>
      <trkpt lat="46.99184" lon="-1.81723">
        <ele>4.9</ele>
        <time>2021-05-15T02:55:39.429Z</time>
      </trkpt>
      <trkpt lat="46.99187" lon="-1.81708">
        <ele>4.7</ele>
        <time>2021-05-15T02:55:43.060Z</time>
      </trkpt>
      <trkpt lat="46.99177" lon="-1.81697">
        <ele>4.5</ele>
        <time>2021-05-15T02:55:44.796Z</time>
      </trkpt>
      <trkpt lat="46.99167" lon="-1.81687">
        <ele>4.2</ele>
        <time>2021-05-15T02:55:46.477Z</time>
      </trkpt>
      <trkpt lat="46.99157" lon="-1.81677">
        <ele>4</ele>
        <time>2021-05-15T02:55:48.158Z</time>
      </trkpt>
      <trkpt lat="46.99147" lon="-1.81666">
        <ele>3.8</ele>
        <time>2021-05-15T02:55:49.895Z</time>
      </trkpt>
      <trkpt lat="46.99137" lon="-1.81656">
        <ele>3.9</ele>
        <time>2021-05-15T02:55:51.576Z</time>
      </trkpt>
      <trkpt lat="46.99128" lon="-1.81645">
        <ele>4.1</ele>
        <time>2021-05-15T02:55:53.203Z</time>
      </trkpt>
      <trkpt lat="46.99119" lon="-1.81635">
        <ele>4.1</ele>
        <time>2021-05-15T02:55:54.771Z</time>
      </trkpt>
      <trkpt lat="46.99111" lon="-1.81623">
        <ele>4.2</ele>
        <time>2021-05-15T02:55:56.361Z</time>
      </trkpt>
      <trkpt lat="46.99103" lon="-1.81612">
        <ele>4.2</ele>
        <time>2021-05-15T02:55:57.884Z</time>
      </trkpt>
      <trkpt lat="46.99099" lon="-1.81597">
        <ele>4.3</ele>
        <time>2021-05-15T02:56:01.533Z</time>
      </trkpt>
      <trkpt lat="46.9911" lon="-1.81588">
        <ele>4.9</ele>
        <time>2021-05-15T02:56:02.507Z</time>
      </trkpt>
      <trkpt lat="46.99124" lon="-1.81587">
        <ele>5.4</ele>
        <time>2021-05-15T02:56:04.454Z</time>
      </trkpt>
      <trkpt lat="46.99137" lon="-1.81588">
        <ele>5.8</ele>
        <time>2021-05-15T02:56:06.262Z</time>
      </trkpt>
      <trkpt lat="46.99149" lon="-1.8159">
        <ele>6.2</ele>
        <time>2021-05-15T02:56:07.939Z</time>
      </trkpt>
      <trkpt lat="46.99162" lon="-1.81591">
        <ele>6.6</ele>
        <time>2021-05-15T02:56:08.947Z</time>
      </trkpt>
      <trkpt lat="46.99175" lon="-1.81593">
        <ele>6.9</ele>
        <time>2021-05-15T02:56:12.788Z</time>
      </trkpt>
      <trkpt lat="46.99189" lon="-1.81595">
        <ele>7.3</ele>
        <time>2021-05-15T02:56:16.752Z</time>
      </trkpt>
      <trkpt lat="46.99202" lon="-1.81597">
        <ele>7.6</ele>
        <time>2021-05-15T02:56:18.567Z</time>
      </trkpt>
      <trkpt lat="46.99216" lon="-1.81599">
        <ele>8</ele>
        <time>2021-05-15T02:56:20.520Z</time>
      </trkpt>
      <trkpt lat="46.99229" lon="-1.81601">
        <ele>8.3</ele>
        <time>2021-05-15T02:56:22.336Z</time>
      </trkpt>
      <trkpt lat="46.99241" lon="-1.81601">
        <ele>8.7</ele>
        <time>2021-05-15T02:56:24.002Z</time>
      </trkpt>
      <trkpt lat="46.9925" lon="-1.8159">
        <ele>9.6</ele>
        <time>2021-05-15T02:56:25.630Z</time>
      </trkpt>
      <trkpt lat="46.99251" lon="-1.81574">
        <ele>10.2</ele>
        <time>2021-05-15T02:56:27.152Z</time>
      </trkpt>
      <trkpt lat="46.99249" lon="-1.81557">
        <ele>10.6</ele>
        <time>2021-05-15T02:56:28.786Z</time>
      </trkpt>
      <trkpt lat="46.99247" lon="-1.81539">
        <ele>10.9</ele>
        <time>2021-05-15T02:56:30.514Z</time>
      </trkpt>
      <trkpt lat="46.99244" lon="-1.81519">
        <ele>11.3</ele>
        <time>2021-05-15T02:56:31.594Z</time>
      </trkpt>
      <trkpt lat="46.99241" lon="-1.815">
        <ele>11.6</ele>
        <time>2021-05-15T02:56:32.624Z</time>
      </trkpt>
      <trkpt lat="46.99237" lon="-1.81481">
        <ele>11</ele>
        <time>2021-05-15T02:56:34.507Z</time>
      </trkpt>
      <trkpt lat="46.99234" lon="-1.81461">
        <ele>10.5</ele>
        <time>2021-05-15T02:56:36.447Z</time>
      </trkpt>
      <trkpt lat="46.99232" lon="-1.81441">
        <ele>10</ele>
        <time>2021-05-15T02:56:40.375Z</time>
      </trkpt>
      <trkpt lat="46.9923" lon="-1.81422">
        <ele>9.6</ele>
        <time>2021-05-15T02:56:42.196Z</time>
      </trkpt>
      <trkpt lat="46.99227" lon="-1.81402">
        <ele>9.2</ele>
        <time>2021-05-15T02:56:43.277Z</time>
      </trkpt>
      <trkpt lat="46.99224" lon="-1.81383">
        <ele>8.8</ele>
        <time>2021-05-15T02:56:45.125Z</time>
      </trkpt>
      <trkpt lat="46.99222" lon="-1.81364">
        <ele>8.5</ele>
        <time>2021-05-15T02:56:46.946Z</time>
      </trkpt>
      <trkpt lat="46.9922" lon="-1.81346">
        <ele>8.1</ele>
        <time>2021-05-15T02:56:48.673Z</time>
      </trkpt>
      <trkpt lat="46.99218" lon="-1.81326">
        <ele>7.5</ele>
        <time>2021-05-15T02:56:49.740Z</time>
      </trkpt>
      <trkpt lat="46.99215" lon="-1.81307">
        <ele>6.7</ele>
        <time>2021-05-15T02:56:53.609Z</time>
      </trkpt>
      <trkpt lat="46.99212" lon="-1.81288">
        <ele>5.9</ele>
        <time>2021-05-15T02:56:55.456Z</time>
      </trkpt>
      <trkpt lat="46.99209" lon="-1.81269">
        <ele>5.2</ele>
        <time>2021-05-15T02:56:57.304Z</time>
      </trkpt>
      <trkpt lat="46.99206" lon="-1.81249">
        <ele>4.5</ele>
        <time>2021-05-15T02:56:59.244Z</time>
      </trkpt>
      <trkpt lat="46.99204" lon="-1.8123">
        <ele>4.7</ele>
        <time>2021-05-15T02:57:00.258Z</time>
      </trkpt>
      <trkpt lat="46.99201" lon="-1.81211">
        <ele>4.9</ele>
        <time>2021-05-15T02:57:04.127Z</time>
      </trkpt>
      <trkpt lat="46.99199" lon="-1.81192">
        <ele>5</ele>
        <time>2021-05-15T02:57:05.948Z</time>
      </trkpt>
      <trkpt lat="46.99196" lon="-1.81172">
        <ele>5.3</ele>
        <time>2021-05-15T02:57:07.888Z</time>
      </trkpt>
      <trkpt lat="46.99193" lon="-1.81152">
        <ele>5.2</ele>
        <time>2021-05-15T02:57:09.828Z</time>
      </trkpt>
      <trkpt lat="46.9919" lon="-1.81132">
        <ele>5.1</ele>
        <time>2021-05-15T02:57:10.908Z</time>
      </trkpt>
      <trkpt lat="46.99188" lon="-1.81114">
        <ele>5</ele>
        <time>2021-05-15T02:57:12.636Z</time>
      </trkpt>
      <trkpt lat="46.99185" lon="-1.81095">
        <ele>4.9</ele>
        <time>2021-05-15T02:57:16.505Z</time>
      </trkpt>
      <trkpt lat="46.99182" lon="-1.81076">
        <ele>4.8</ele>
        <time>2021-05-15T02:57:18.352Z</time>
      </trkpt>
      <trkpt lat="46.99179" lon="-1.81058">
        <ele>4.9</ele>
        <time>2021-05-15T02:57:20.107Z</time>
      </trkpt>
      <trkpt lat="46.99177" lon="-1.8104">
        <ele>4.9</ele>
        <time>2021-05-15T02:57:21.835Z</time>
      </trkpt>
      <trkpt lat="46.99174" lon="-1.81022">
        <ele>5</ele>
        <time>2021-05-15T02:57:23.590Z</time>
      </trkpt>
      <trkpt lat="46.99172" lon="-1.81003">
        <ele>5</ele>
        <time>2021-05-15T02:57:25.412Z</time>
      </trkpt>
      <trkpt lat="46.99169" lon="-1.80984">
        <ele>4.8</ele>
        <time>2021-05-15T02:57:27.259Z</time>
      </trkpt>
      <trkpt lat="46.99167" lon="-1.80966">
        <ele>4.6</ele>
        <time>2021-05-15T02:57:28.987Z</time>
      </trkpt>
      <trkpt lat="46.99164" lon="-1.80949">
        <ele>4.4</ele>
        <time>2021-05-15T02:57:32.713Z</time>
      </trkpt>
      <trkpt lat="46.99162" lon="-1.80931">
        <ele>4.1</ele>
        <time>2021-05-15T02:57:34.441Z</time>
      </trkpt>
      <trkpt lat="46.99162" lon="-1.80913">
        <ele>3.9</ele>
        <time>2021-05-15T02:57:38.196Z</time>
      </trkpt>
      <trkpt lat="46.99166" lon="-1.80895">
        <ele>4</ele>
        <time>2021-05-15T02:57:39.989Z</time>
      </trkpt>
      <trkpt lat="46.99178" lon="-1.80884">
        <ele>4</ele>
        <time>2021-05-15T02:57:41.955Z</time>
      </trkpt>
      <trkpt lat="46.99191" lon="-1.80876">
        <ele>4</ele>
        <time>2021-05-15T02:57:43.913Z</time>
      </trkpt>
      <trkpt lat="46.99203" lon="-1.80868">
        <ele>4</ele>
        <time>2021-05-15T02:57:45.744Z</time>
      </trkpt>
      <trkpt lat="46.99217" lon="-1.80859">
        <ele>4</ele>
        <time>2021-05-15T02:57:47.867Z</time>
      </trkpt>
      <trkpt lat="46.99229" lon="-1.80851">
        <ele>4</ele>
        <time>2021-05-15T02:57:49.697Z</time>
      </trkpt>
      <trkpt lat="46.99242" lon="-1.80843">
        <ele>4</ele>
        <time>2021-05-15T02:57:50.788Z</time>
      </trkpt>
      <trkpt lat="46.99255" lon="-1.80835">
        <ele>3.9</ele>
        <time>2021-05-15T02:57:52.746Z</time>
      </trkpt>
      <trkpt lat="46.99268" lon="-1.80827">
        <ele>3.9</ele>
        <time>2021-05-15T02:57:56.714Z</time>
      </trkpt>
      <trkpt lat="46.99281" lon="-1.80819">
        <ele>3.9</ele>
        <time>2021-05-15T02:57:57.805Z</time>
      </trkpt>
      <trkpt lat="46.99293" lon="-1.80811">
        <ele>3.9</ele>
        <time>2021-05-15T02:57:59.636Z</time>
      </trkpt>
      <trkpt lat="46.99306" lon="-1.80801">
        <ele>4</ele>
        <time>2021-05-15T02:58:00.772Z</time>
      </trkpt>
      <trkpt lat="46.99319" lon="-1.80793">
        <ele>4.1</ele>
        <time>2021-05-15T02:58:02.730Z</time>
      </trkpt>
      <trkpt lat="46.99332" lon="-1.80784">
        <ele>4.2</ele>
        <time>2021-05-15T02:58:04.727Z</time>
      </trkpt>
      <trkpt lat="46.99344" lon="-1.80776">
        <ele>4.4</ele>
        <time>2021-05-15T02:58:06.557Z</time>
      </trkpt>
      <trkpt lat="46.99357" lon="-1.80769">
        <ele>4.6</ele>
        <time>2021-05-15T02:58:08.481Z</time>
      </trkpt>
      <trkpt lat="46.9937" lon="-1.8076">
        <ele>4.8</ele>
        <time>2021-05-15T02:58:10.477Z</time>
      </trkpt>
      <trkpt lat="46.99383" lon="-1.80752">
        <ele>5</ele>
        <time>2021-05-15T02:58:12.435Z</time>
      </trkpt>
      <trkpt lat="46.99396" lon="-1.80744">
        <ele>4.9</ele>
        <time>2021-05-15T02:58:14.393Z</time>
      </trkpt>
      <trkpt lat="46.99409" lon="-1.80736">
        <ele>4.8</ele>
        <time>2021-05-15T02:58:16.352Z</time>
      </trkpt>
      <trkpt lat="46.99422" lon="-1.80728">
        <ele>4.7</ele>
        <time>2021-05-15T02:58:18.310Z</time>
      </trkpt>
      <trkpt lat="46.99434" lon="-1.8072">
        <ele>4.4</ele>
        <time>2021-05-15T02:58:20.140Z</time>
      </trkpt>
      <trkpt lat="46.99447" lon="-1.80713">
        <ele>4.2</ele>
        <time>2021-05-15T02:58:22.064Z</time>
      </trkpt>
      <trkpt lat="46.99459" lon="-1.80705">
        <ele>4</ele>
        <time>2021-05-15T02:58:23.894Z</time>
      </trkpt>
      <trkpt lat="46.99469" lon="-1.80696">
        <ele>3.7</ele>
        <time>2021-05-15T02:58:25.524Z</time>
      </trkpt>
      <trkpt lat="46.99475" lon="-1.80682">
        <ele>3.5</ele>
        <time>2021-05-15T02:58:27.090Z</time>
      </trkpt>
      <trkpt lat="46.99481" lon="-1.80667">
        <ele>3.2</ele>
        <time>2021-05-15T02:58:30.806Z</time>
      </trkpt>
      <trkpt lat="46.99492" lon="-1.80658">
        <ele>3.1</ele>
        <time>2021-05-15T02:58:31.781Z</time>
      </trkpt>
      <trkpt lat="46.99505" lon="-1.80654">
        <ele>3</ele>
        <time>2021-05-15T02:58:33.625Z</time>
      </trkpt>
      <trkpt lat="46.99517" lon="-1.80644">
        <ele>3.1</ele>
        <time>2021-05-15T02:58:35.542Z</time>
      </trkpt>
      <trkpt lat="46.99528" lon="-1.80633">
        <ele>3.1</ele>
        <time>2021-05-15T02:58:37.392Z</time>
      </trkpt>
      <trkpt lat="46.99539" lon="-1.8062">
        <ele>3.3</ele>
        <time>2021-05-15T02:58:39.354Z</time>
      </trkpt>
      <trkpt lat="46.9955" lon="-1.80607">
        <ele>3.4</ele>
        <time>2021-05-15T02:58:41.316Z</time>
      </trkpt>
      <trkpt lat="46.9956" lon="-1.80594">
        <ele>3.6</ele>
        <time>2021-05-15T02:58:45.192Z</time>
      </trkpt>
      <trkpt lat="46.99571" lon="-1.8058">
        <ele>3.9</ele>
        <time>2021-05-15T02:58:46.319Z</time>
      </trkpt>
      <trkpt lat="46.99581" lon="-1.80566">
        <ele>4</ele>
        <time>2021-05-15T02:58:48.239Z</time>
      </trkpt>
      <trkpt lat="46.99592" lon="-1.80553">
        <ele>4</ele>
        <time>2021-05-15T02:58:50.201Z</time>
      </trkpt>
      <trkpt lat="46.99603" lon="-1.80539">
        <ele>3.9</ele>
        <time>2021-05-15T02:58:52.224Z</time>
      </trkpt>
      <trkpt lat="46.99613" lon="-1.80525">
        <ele>3.8</ele>
        <time>2021-05-15T02:58:54.145Z</time>
      </trkpt>
      <trkpt lat="46.99624" lon="-1.80511">
        <ele>3.6</ele>
        <time>2021-05-15T02:58:56.168Z</time>
      </trkpt>
      <trkpt lat="46.99635" lon="-1.80498">
        <ele>3.4</ele>
        <time>2021-05-15T02:58:58.130Z</time>
      </trkpt>
      <trkpt lat="46.99646" lon="-1.80484">
        <ele>3.1</ele>
        <time>2021-05-15T02:59:00.153Z</time>
      </trkpt>
      <trkpt lat="46.99656" lon="-1.8047">
        <ele>2.8</ele>
        <time>2021-05-15T02:59:02.073Z</time>
      </trkpt>
      <trkpt lat="46.99667" lon="-1.80457">
        <ele>2.5</ele>
        <time>2021-05-15T02:59:06.045Z</time>
      </trkpt>
      <trkpt lat="46.99677" lon="-1.80444">
        <ele>2.3</ele>
        <time>2021-05-15T02:59:07.901Z</time>
      </trkpt>
      <trkpt lat="46.99688" lon="-1.8043">
        <ele>2.1</ele>
        <time>2021-05-15T02:59:09.028Z</time>
      </trkpt>
      <trkpt lat="46.99698" lon="-1.80416">
        <ele>2</ele>
        <time>2021-05-15T02:59:10.948Z</time>
      </trkpt>
      <trkpt lat="46.99708" lon="-1.80403">
        <ele>2.1</ele>
        <time>2021-05-15T02:59:12.804Z</time>
      </trkpt>
      <trkpt lat="46.99718" lon="-1.8039">
        <ele>2.1</ele>
        <time>2021-05-15T02:59:14.660Z</time>
      </trkpt>
      <trkpt lat="46.99728" lon="-1.80377">
        <ele>2.1</ele>
        <time>2021-05-15T02:59:16.516Z</time>
      </trkpt>
      <trkpt lat="46.99738" lon="-1.80364">
        <ele>2.1</ele>
        <time>2021-05-15T02:59:20.392Z</time>
      </trkpt>
      <trkpt lat="46.99748" lon="-1.80351">
        <ele>2</ele>
        <time>2021-05-15T02:59:22.248Z</time>
      </trkpt>
      <trkpt lat="46.99758" lon="-1.80338">
        <ele>2.1</ele>
        <time>2021-05-15T02:59:24.105Z</time>
      </trkpt>
      <trkpt lat="46.99769" lon="-1.80324">
        <ele>2.3</ele>
        <time>2021-05-15T02:59:26.127Z</time>
      </trkpt>
      <trkpt lat="46.99779" lon="-1.80311">
        <ele>2.6</ele>
        <time>2021-05-15T02:59:27.984Z</time>
      </trkpt>
      <trkpt lat="46.99789" lon="-1.80298">
        <ele>2.9</ele>
        <time>2021-05-15T02:59:29.840Z</time>
      </trkpt>
      <trkpt lat="46.99799" lon="-1.80284">
        <ele>3.2</ele>
        <time>2021-05-15T02:59:31.760Z</time>
      </trkpt>
      <trkpt lat="46.99809" lon="-1.80271">
        <ele>3.5</ele>
        <time>2021-05-15T02:59:33.616Z</time>
      </trkpt>
      <trkpt lat="46.99819" lon="-1.80258">
        <ele>3.7</ele>
        <time>2021-05-15T02:59:35.472Z</time>
      </trkpt>
      <trkpt lat="46.99829" lon="-1.80244">
        <ele>4</ele>
        <time>2021-05-15T02:59:37.392Z</time>
      </trkpt>
      <trkpt lat="46.99839" lon="-1.8023">
        <ele>3.9</ele>
        <time>2021-05-15T02:59:39.312Z</time>
      </trkpt>
      <trkpt lat="46.99847" lon="-1.80215">
        <ele>3.8</ele>
        <time>2021-05-15T02:59:41.116Z</time>
      </trkpt>
      <trkpt lat="46.99856" lon="-1.80199">
        <ele>3.6</ele>
        <time>2021-05-15T02:59:43.081Z</time>
      </trkpt>
      <trkpt lat="46.99864" lon="-1.80183">
        <ele>3.3</ele>
        <time>2021-05-15T02:59:44.960Z</time>
      </trkpt>
      <trkpt lat="46.99873" lon="-1.80166">
        <ele>3.1</ele>
        <time>2021-05-15T02:59:46.998Z</time>
      </trkpt>
      <trkpt lat="46.99881" lon="-1.80149">
        <ele>3</ele>
        <time>2021-05-15T02:59:48.954Z</time>
      </trkpt>
      <trkpt lat="46.99889" lon="-1.80132">
        <ele>2.9</ele>
        <time>2021-05-15T02:59:50.911Z</time>
      </trkpt>
      <trkpt lat="46.99897" lon="-1.80115">
        <ele>2.9</ele>
        <time>2021-05-15T02:59:52.867Z</time>
      </trkpt>
      <trkpt lat="46.99906" lon="-1.80097">
        <ele>3</ele>
        <time>2021-05-15T02:59:54.981Z</time>
      </trkpt>
      <trkpt lat="46.99914" lon="-1.8008">
        <ele>3.1</ele>
        <time>2021-05-15T02:59:56.937Z</time>
      </trkpt>
      <trkpt lat="46.99922" lon="-1.80063">
        <ele>3.4</ele>
        <time>2021-05-15T02:59:58.894Z</time>
      </trkpt>
      <trkpt lat="46.9993" lon="-1.80047">
        <ele>3.6</ele>
        <time>2021-05-15T03:00:00.773Z</time>
      </trkpt>
      <trkpt lat="46.99938" lon="-1.80031">
        <ele>3.9</ele>
        <time>2021-05-15T03:00:04.669Z</time>
      </trkpt>
      <trkpt lat="46.99947" lon="-1.80016">
        <ele>4.2</ele>
        <time>2021-05-15T03:00:06.561Z</time>
      </trkpt>
      <trkpt lat="46.99957" lon="-1.80002">
        <ele>4.5</ele>
        <time>2021-05-15T03:00:08.481Z</time>
      </trkpt>
      <trkpt lat="46.99969" lon="-1.7999">
        <ele>4.5</ele>
        <time>2021-05-15T03:00:09.605Z</time>
      </trkpt>
      <trkpt lat="46.99981" lon="-1.7998">
        <ele>4.5</ele>
        <time>2021-05-15T03:00:11.522Z</time>
      </trkpt>
      <trkpt lat="46.99993" lon="-1.79971">
        <ele>4.4</ele>
        <time>2021-05-15T03:00:13.394Z</time>
      </trkpt>
      <trkpt lat="47.00005" lon="-1.79962">
        <ele>4.4</ele>
        <time>2021-05-15T03:00:15.266Z</time>
      </trkpt>
      <trkpt lat="47.00017" lon="-1.79952">
        <ele>4.3</ele>
        <time>2021-05-15T03:00:19.196Z</time>
      </trkpt>
      <trkpt lat="47.00029" lon="-1.79943">
        <ele>4.1</ele>
        <time>2021-05-15T03:00:21.068Z</time>
      </trkpt>
      <trkpt lat="47.00042" lon="-1.79934">
        <ele>3.9</ele>
        <time>2021-05-15T03:00:23.065Z</time>
      </trkpt>
      <trkpt lat="47.00054" lon="-1.79925">
        <ele>3.7</ele>
        <time>2021-05-15T03:00:24.936Z</time>
      </trkpt>
      <trkpt lat="47.00067" lon="-1.79916">
        <ele>3.4</ele>
        <time>2021-05-15T03:00:26.933Z</time>
      </trkpt>
      <trkpt lat="47.00079" lon="-1.79906">
        <ele>3.1</ele>
        <time>2021-05-15T03:00:28.001Z</time>
      </trkpt>
      <trkpt lat="47.00091" lon="-1.79896">
        <ele>3.3</ele>
        <time>2021-05-15T03:00:29.918Z</time>
      </trkpt>
      <trkpt lat="47.00102" lon="-1.79884">
        <ele>3.7</ele>
        <time>2021-05-15T03:00:31.822Z</time>
      </trkpt>
      <trkpt lat="47.00113" lon="-1.79871">
        <ele>4.1</ele>
        <time>2021-05-15T03:00:33.784Z</time>
      </trkpt>
      <trkpt lat="47.00122" lon="-1.79857">
        <ele>4.4</ele>
        <time>2021-05-15T03:00:35.606Z</time>
      </trkpt>
      <trkpt lat="47.0013" lon="-1.79841">
        <ele>4.7</ele>
        <time>2021-05-15T03:00:37.485Z</time>
      </trkpt>
      <trkpt lat="47.00138" lon="-1.79824">
        <ele>5</ele>
        <time>2021-05-15T03:00:39.442Z</time>
      </trkpt>
      <trkpt lat="47.00144" lon="-1.79806">
        <ele>5.3</ele>
        <time>2021-05-15T03:00:41.339Z</time>
      </trkpt>
      <trkpt lat="47.0015" lon="-1.79788">
        <ele>5.5</ele>
        <time>2021-05-15T03:00:43.237Z</time>
      </trkpt>
      <trkpt lat="47.00156" lon="-1.7977">
        <ele>5.7</ele>
        <time>2021-05-15T03:00:45.135Z</time>
      </trkpt>
      <trkpt lat="47.00162" lon="-1.79751">
        <ele>5.9</ele>
        <time>2021-05-15T03:00:47.118Z</time>
      </trkpt>
      <trkpt lat="47.00167" lon="-1.79732">
        <ele>6</ele>
        <time>2021-05-15T03:00:49.047Z</time>
      </trkpt>
      <trkpt lat="47.00172" lon="-1.79713">
        <ele>5.9</ele>
        <time>2021-05-15T03:00:52.987Z</time>
      </trkpt>
      <trkpt lat="47.00177" lon="-1.79695">
        <ele>5.7</ele>
        <time>2021-05-15T03:00:54.828Z</time>
      </trkpt>
      <trkpt lat="47.00183" lon="-1.79677">
        <ele>5.5</ele>
        <time>2021-05-15T03:00:56.726Z</time>
      </trkpt>
      <trkpt lat="47.00189" lon="-1.79658">
        <ele>5</ele>
        <time>2021-05-15T03:00:57.831Z</time>
      </trkpt>
      <trkpt lat="47.00194" lon="-1.7964">
        <ele>4.6</ele>
        <time>2021-05-15T03:00:59.671Z</time>
      </trkpt>
      <trkpt lat="47.002" lon="-1.79621">
        <ele>4.1</ele>
        <time>2021-05-15T03:01:01.655Z</time>
      </trkpt>
      <trkpt lat="47.00205" lon="-1.79603">
        <ele>3.8</ele>
        <time>2021-05-15T03:01:05.517Z</time>
      </trkpt>
      <trkpt lat="47.00211" lon="-1.79584">
        <ele>3.5</ele>
        <time>2021-05-15T03:01:07.500Z</time>
      </trkpt>
      <trkpt lat="47.00216" lon="-1.79565">
        <ele>3.5</ele>
        <time>2021-05-15T03:01:11.441Z</time>
      </trkpt>
      <trkpt lat="47.00221" lon="-1.79546">
        <ele>3.5</ele>
        <time>2021-05-15T03:01:13.370Z</time>
      </trkpt>
      <trkpt lat="47.00227" lon="-1.79527">
        <ele>3.5</ele>
        <time>2021-05-15T03:01:15.353Z</time>
      </trkpt>
      <trkpt lat="47.00233" lon="-1.79509">
        <ele>3.4</ele>
        <time>2021-05-15T03:01:17.251Z</time>
      </trkpt>
      <trkpt lat="47.00238" lon="-1.7949">
        <ele>3.5</ele>
        <time>2021-05-15T03:01:19.180Z</time>
      </trkpt>
      <trkpt lat="47.00243" lon="-1.79472">
        <ele>3.8</ele>
        <time>2021-05-15T03:01:21.021Z</time>
      </trkpt>
      <trkpt lat="47.00249" lon="-1.79453">
        <ele>4.1</ele>
        <time>2021-05-15T03:01:23.004Z</time>
      </trkpt>
      <trkpt lat="47.00254" lon="-1.79434">
        <ele>4.6</ele>
        <time>2021-05-15T03:01:24.932Z</time>
      </trkpt>
      <trkpt lat="47.0026" lon="-1.79416">
        <ele>5.1</ele>
        <time>2021-05-15T03:01:26.830Z</time>
      </trkpt>
      <trkpt lat="47.00265" lon="-1.79398">
        <ele>5.3</ele>
        <time>2021-05-15T03:01:28.671Z</time>
      </trkpt>
      <trkpt lat="47.00271" lon="-1.79379">
        <ele>5.5</ele>
        <time>2021-05-15T03:01:30.654Z</time>
      </trkpt>
      <trkpt lat="47.00276" lon="-1.7936">
        <ele>5.6</ele>
        <time>2021-05-15T03:01:32.583Z</time>
      </trkpt>
      <trkpt lat="47.0028" lon="-1.7934">
        <ele>5.6</ele>
        <time>2021-05-15T03:01:34.557Z</time>
      </trkpt>
      <trkpt lat="47.00284" lon="-1.7932">
        <ele>5.7</ele>
        <time>2021-05-15T03:01:36.531Z</time>
      </trkpt>
      <trkpt lat="47.00287" lon="-1.793">
        <ele>5.8</ele>
        <time>2021-05-15T03:01:38.470Z</time>
      </trkpt>
      <trkpt lat="47.0029" lon="-1.7928">
        <ele>5.9</ele>
        <time>2021-05-15T03:01:40.410Z</time>
      </trkpt>
      <trkpt lat="47.00292" lon="-1.7926">
        <ele>5.9</ele>
        <time>2021-05-15T03:01:42.324Z</time>
      </trkpt>
      <trkpt lat="47.00296" lon="-1.79241">
        <ele>5.7</ele>
        <time>2021-05-15T03:01:46.224Z</time>
      </trkpt>
      <trkpt lat="47.00299" lon="-1.79221">
        <ele>5.3</ele>
        <time>2021-05-15T03:01:48.164Z</time>
      </trkpt>
      <trkpt lat="47.00302" lon="-1.79201">
        <ele>4.9</ele>
        <time>2021-05-15T03:01:49.244Z</time>
      </trkpt>
      <trkpt lat="47.00306" lon="-1.79181">
        <ele>4.6</ele>
        <time>2021-05-15T03:01:51.218Z</time>
      </trkpt>
      <trkpt lat="47.00309" lon="-1.79161">
        <ele>4.3</ele>
        <time>2021-05-15T03:01:53.158Z</time>
      </trkpt>
      <trkpt lat="47.00314" lon="-1.79142">
        <ele>4.2</ele>
        <time>2021-05-15T03:01:55.086Z</time>
      </trkpt>
      <trkpt lat="47.00319" lon="-1.79122">
        <ele>4.2</ele>
        <time>2021-05-15T03:01:57.104Z</time>
      </trkpt>
      <trkpt lat="47.00324" lon="-1.79104">
        <ele>4.1</ele>
        <time>2021-05-15T03:01:58.945Z</time>
      </trkpt>
      <trkpt lat="47.0033" lon="-1.79085">
        <ele>4</ele>
        <time>2021-05-15T03:02:00.928Z</time>
      </trkpt>
      <trkpt lat="47.00335" lon="-1.79066">
        <ele>4</ele>
        <time>2021-05-15T03:02:02.857Z</time>
      </trkpt>
      <trkpt lat="47.00341" lon="-1.79047">
        <ele>4</ele>
        <time>2021-05-15T03:02:04.840Z</time>
      </trkpt>
      <trkpt lat="47.00346" lon="-1.79028">
        <ele>4.1</ele>
        <time>2021-05-15T03:02:06.769Z</time>
      </trkpt>
      <trkpt lat="47.0035" lon="-1.79009">
        <ele>4.2</ele>
        <time>2021-05-15T03:02:08.652Z</time>
      </trkpt>
      <trkpt lat="47.00355" lon="-1.78989">
        <ele>4.4</ele>
        <time>2021-05-15T03:02:12.676Z</time>
      </trkpt>
      <trkpt lat="47.00359" lon="-1.7897">
        <ele>4.6</ele>
        <time>2021-05-15T03:02:14.560Z</time>
      </trkpt>
      <trkpt lat="47.00363" lon="-1.78951">
        <ele>4.7</ele>
        <time>2021-05-15T03:02:16.443Z</time>
      </trkpt>
      <trkpt lat="47.00367" lon="-1.78933">
        <ele>4.9</ele>
        <time>2021-05-15T03:02:18.236Z</time>
      </trkpt>
      <trkpt lat="47.00371" lon="-1.78915">
        <ele>5</ele>
        <time>2021-05-15T03:02:20.029Z</time>
      </trkpt>
      <trkpt lat="47.00375" lon="-1.78896">
        <ele>4.8</ele>
        <time>2021-05-15T03:02:21.912Z</time>
      </trkpt>
      <trkpt lat="47.00379" lon="-1.78877">
        <ele>4.5</ele>
        <time>2021-05-15T03:02:23.795Z</time>
      </trkpt>
      <trkpt lat="47.00383" lon="-1.78857">
        <ele>4.3</ele>
        <time>2021-05-15T03:02:25.769Z</time>
      </trkpt>
      <trkpt lat="47.00387" lon="-1.78838">
        <ele>4.1</ele>
        <time>2021-05-15T03:02:27.653Z</time>
      </trkpt>
      <trkpt lat="47.00391" lon="-1.78819">
        <ele>3.9</ele>
        <time>2021-05-15T03:02:29.536Z</time>
      </trkpt>
      <trkpt lat="47.00394" lon="-1.78799">
        <ele>3.9</ele>
        <time>2021-05-15T03:02:31.475Z</time>
      </trkpt>
      <trkpt lat="47.00398" lon="-1.78779">
        <ele>3.9</ele>
        <time>2021-05-15T03:02:33.449Z</time>
      </trkpt>
      <trkpt lat="47.00401" lon="-1.78759">
        <ele>3.8</ele>
        <time>2021-05-15T03:02:35.389Z</time>
      </trkpt>
      <trkpt lat="47.00403" lon="-1.78738">
        <ele>3.9</ele>
        <time>2021-05-15T03:02:36.508Z</time>
      </trkpt>
      <trkpt lat="47.00406" lon="-1.78718">
        <ele>4</ele>
        <time>2021-05-15T03:02:40.458Z</time>
      </trkpt>
      <trkpt lat="47.00409" lon="-1.78698">
        <ele>4</ele>
        <time>2021-05-15T03:02:41.539Z</time>
      </trkpt>
      <trkpt lat="47.00412" lon="-1.78678">
        <ele>4</ele>
        <time>2021-05-15T03:02:43.478Z</time>
      </trkpt>
      <trkpt lat="47.00415" lon="-1.78658">
        <ele>4</ele>
        <time>2021-05-15T03:02:45.418Z</time>
      </trkpt>
      <trkpt lat="47.00418" lon="-1.78638">
        <ele>4</ele>
        <time>2021-05-15T03:02:47.357Z</time>
      </trkpt>
      <trkpt lat="47.0042" lon="-1.78618">
        <ele>4.1</ele>
        <time>2021-05-15T03:02:49.272Z</time>
      </trkpt>
      <trkpt lat="47.00422" lon="-1.78598">
        <ele>4.1</ele>
        <time>2021-05-15T03:02:51.186Z</time>
      </trkpt>
      <trkpt lat="47.00425" lon="-1.78578">
        <ele>4.1</ele>
        <time>2021-05-15T03:02:52.267Z</time>
      </trkpt>
      <trkpt lat="47.00428" lon="-1.78558">
        <ele>4</ele>
        <time>2021-05-15T03:02:54.206Z</time>
      </trkpt>
      <trkpt lat="47.00431" lon="-1.78538">
        <ele>3.8</ele>
        <time>2021-05-15T03:02:56.146Z</time>
      </trkpt>
      <trkpt lat="47.00434" lon="-1.78517">
        <ele>3.6</ele>
        <time>2021-05-15T03:02:58.178Z</time>
      </trkpt>
      <trkpt lat="47.00437" lon="-1.78497">
        <ele>3.5</ele>
        <time>2021-05-15T03:03:00.117Z</time>
      </trkpt>
      <trkpt lat="47.0044" lon="-1.78477">
        <ele>3.6</ele>
        <time>2021-05-15T03:03:02.057Z</time>
      </trkpt>
      <trkpt lat="47.00444" lon="-1.78457">
        <ele>3.7</ele>
        <time>2021-05-15T03:03:04.031Z</time>
      </trkpt>
      <trkpt lat="47.00448" lon="-1.78438">
        <ele>3.8</ele>
        <time>2021-05-15T03:03:05.914Z</time>
      </trkpt>
      <trkpt lat="47.00452" lon="-1.78419">
        <ele>3.8</ele>
        <time>2021-05-15T03:03:07.797Z</time>
      </trkpt>
      <trkpt lat="47.00457" lon="-1.78399">
        <ele>4</ele>
        <time>2021-05-15T03:03:09.814Z</time>
      </trkpt>
      <trkpt lat="47.00461" lon="-1.78381">
        <ele>4.1</ele>
        <time>2021-05-15T03:03:11.607Z</time>
      </trkpt>
      <trkpt lat="47.00465" lon="-1.78362">
        <ele>4.2</ele>
        <time>2021-05-15T03:03:12.657Z</time>
      </trkpt>
      <trkpt lat="47.0047" lon="-1.78344">
        <ele>4.3</ele>
        <time>2021-05-15T03:03:14.497Z</time>
      </trkpt>
      <trkpt lat="47.00475" lon="-1.78326">
        <ele>4.3</ele>
        <time>2021-05-15T03:03:16.338Z</time>
      </trkpt>
      <trkpt lat="47.0048" lon="-1.78307">
        <ele>4</ele>
        <time>2021-05-15T03:03:18.267Z</time>
      </trkpt>
      <trkpt lat="47.00485" lon="-1.78288">
        <ele>3.7</ele>
        <time>2021-05-15T03:03:20.196Z</time>
      </trkpt>
      <trkpt lat="47.00489" lon="-1.7827">
        <ele>3.4</ele>
        <time>2021-05-15T03:03:21.989Z</time>
      </trkpt>
      <trkpt lat="47.00494" lon="-1.78251">
        <ele>3</ele>
        <time>2021-05-15T03:03:23.918Z</time>
      </trkpt>
      <trkpt lat="47.00499" lon="-1.78233">
        <ele>3.2</ele>
        <time>2021-05-15T03:03:25.758Z</time>
      </trkpt>
      <trkpt lat="47.00503" lon="-1.78214">
        <ele>3.4</ele>
        <time>2021-05-15T03:03:27.642Z</time>
      </trkpt>
      <trkpt lat="47.00507" lon="-1.78197">
        <ele>3.6</ele>
        <time>2021-05-15T03:03:29.345Z</time>
      </trkpt>
      <trkpt lat="47.00512" lon="-1.78179">
        <ele>3.8</ele>
        <time>2021-05-15T03:03:31.185Z</time>
      </trkpt>
      <trkpt lat="47.00516" lon="-1.7816">
        <ele>3.7</ele>
        <time>2021-05-15T03:03:33.069Z</time>
      </trkpt>
      <trkpt lat="47.00522" lon="-1.7814">
        <ele>3.4</ele>
        <time>2021-05-15T03:03:35.138Z</time>
      </trkpt>
      <trkpt lat="47.00526" lon="-1.78121">
        <ele>3.1</ele>
        <time>2021-05-15T03:03:37.021Z</time>
      </trkpt>
      <trkpt lat="47.00531" lon="-1.781">
        <ele>2.8</ele>
        <time>2021-05-15T03:03:39.128Z</time>
      </trkpt>
      <trkpt lat="47.00536" lon="-1.7808">
        <ele>2.5</ele>
        <time>2021-05-15T03:03:41.145Z</time>
      </trkpt>
      <trkpt lat="47.0054" lon="-1.7806">
        <ele>2.4</ele>
        <time>2021-05-15T03:03:43.119Z</time>
      </trkpt>
      <trkpt lat="47.00545" lon="-1.78041">
        <ele>2.2</ele>
        <time>2021-05-15T03:03:45.048Z</time>
      </trkpt>
      <trkpt lat="47.0055" lon="-1.78021">
        <ele>2.1</ele>
        <time>2021-05-15T03:03:47.065Z</time>
      </trkpt>
      <trkpt lat="47.00555" lon="-1.78003">
        <ele>2</ele>
        <time>2021-05-15T03:03:48.906Z</time>
      </trkpt>
      <trkpt lat="47.0056" lon="-1.77984">
        <ele>2.1</ele>
        <time>2021-05-15T03:03:50.835Z</time>
      </trkpt>
      <trkpt lat="47.00564" lon="-1.77964">
        <ele>2.3</ele>
        <time>2021-05-15T03:03:52.809Z</time>
      </trkpt>
      <trkpt lat="47.00569" lon="-1.77945">
        <ele>2.5</ele>
        <time>2021-05-15T03:03:53.883Z</time>
      </trkpt>
      <trkpt lat="47.00574" lon="-1.77925">
        <ele>2.8</ele>
        <time>2021-05-15T03:03:57.908Z</time>
      </trkpt>
      <trkpt lat="47.00579" lon="-1.77906">
        <ele>3</ele>
        <time>2021-05-15T03:03:58.982Z</time>
      </trkpt>
      <trkpt lat="47.00584" lon="-1.77886">
        <ele>3</ele>
        <time>2021-05-15T03:04:03.007Z</time>
      </trkpt>
      <trkpt lat="47.00588" lon="-1.77867">
        <ele>3.1</ele>
        <time>2021-05-15T03:04:04.890Z</time>
      </trkpt>
      <trkpt lat="47.00593" lon="-1.77847">
        <ele>3.2</ele>
        <time>2021-05-15T03:04:06.014Z</time>
      </trkpt>
      <trkpt lat="47.00598" lon="-1.77828">
        <ele>3.5</ele>
        <time>2021-05-15T03:04:09.955Z</time>
      </trkpt>
      <trkpt lat="47.00603" lon="-1.77809">
        <ele>3.9</ele>
        <time>2021-05-15T03:04:11.883Z</time>
      </trkpt>
      <trkpt lat="47.00608" lon="-1.7779">
        <ele>4.3</ele>
        <time>2021-05-15T03:04:13.812Z</time>
      </trkpt>
      <trkpt lat="47.00613" lon="-1.77771">
        <ele>4.7</ele>
        <time>2021-05-15T03:04:15.741Z</time>
      </trkpt>
      <trkpt lat="47.00617" lon="-1.77752">
        <ele>5</ele>
        <time>2021-05-15T03:04:17.624Z</time>
      </trkpt>
      <trkpt lat="47.00621" lon="-1.77732">
        <ele>5.5</ele>
        <time>2021-05-15T03:04:19.598Z</time>
      </trkpt>
      <trkpt lat="47.00626" lon="-1.77713">
        <ele>6.1</ele>
        <time>2021-05-15T03:04:23.539Z</time>
      </trkpt>
      <trkpt lat="47.00631" lon="-1.77695">
        <ele>6.7</ele>
        <time>2021-05-15T03:04:25.379Z</time>
      </trkpt>
      <trkpt lat="47.00636" lon="-1.77675">
        <ele>7.4</ele>
        <time>2021-05-15T03:04:27.397Z</time>
      </trkpt>
      <trkpt lat="47.0064" lon="-1.77656">
        <ele>7.6</ele>
        <time>2021-05-15T03:04:29.280Z</time>
      </trkpt>
      <trkpt lat="47.00645" lon="-1.77637">
        <ele>7.6</ele>
        <time>2021-05-15T03:04:31.209Z</time>
      </trkpt>
      <trkpt lat="47.00649" lon="-1.77618">
        <ele>7.7</ele>
        <time>2021-05-15T03:04:35.108Z</time>
      </trkpt>
      <trkpt lat="47.00654" lon="-1.77598">
        <ele>7.7</ele>
        <time>2021-05-15T03:04:37.126Z</time>
      </trkpt>
      <trkpt lat="47.00659" lon="-1.7758">
        <ele>7.8</ele>
        <time>2021-05-15T03:04:38.966Z</time>
      </trkpt>
      <trkpt lat="47.00663" lon="-1.7756">
        <ele>7.6</ele>
        <time>2021-05-15T03:04:40.940Z</time>
      </trkpt>
      <trkpt lat="47.00668" lon="-1.77541">
        <ele>7.5</ele>
        <time>2021-05-15T03:04:44.881Z</time>
      </trkpt>
      <trkpt lat="47.00673" lon="-1.77523">
        <ele>7.4</ele>
        <time>2021-05-15T03:04:45.906Z</time>
      </trkpt>
      <trkpt lat="47.00679" lon="-1.77504">
        <ele>7.3</ele>
        <time>2021-05-15T03:04:49.898Z</time>
      </trkpt>
      <trkpt lat="47.00686" lon="-1.77487">
        <ele>7.5</ele>
        <time>2021-05-15T03:04:51.778Z</time>
      </trkpt>
      <trkpt lat="47.00692" lon="-1.7747">
        <ele>7.7</ele>
        <time>2021-05-15T03:04:53.591Z</time>
      </trkpt>
      <trkpt lat="47.00699" lon="-1.77453">
        <ele>8</ele>
        <time>2021-05-15T03:04:57.489Z</time>
      </trkpt>
      <trkpt lat="47.00705" lon="-1.77437">
        <ele>8.3</ele>
        <time>2021-05-15T03:04:59.218Z</time>
      </trkpt>
      <trkpt lat="47.00711" lon="-1.7742">
        <ele>8.6</ele>
        <time>2021-05-15T03:05:01.031Z</time>
      </trkpt>
      <trkpt lat="47.00717" lon="-1.77404">
        <ele>9.1</ele>
        <time>2021-05-15T03:05:04.804Z</time>
      </trkpt>
      <trkpt lat="47.00724" lon="-1.77387">
        <ele>9.8</ele>
        <time>2021-05-15T03:05:06.685Z</time>
      </trkpt>
      <trkpt lat="47.00732" lon="-1.77371">
        <ele>10.4</ele>
        <time>2021-05-15T03:05:08.564Z</time>
      </trkpt>
      <trkpt lat="47.00741" lon="-1.77355">
        <ele>11.2</ele>
        <time>2021-05-15T03:05:10.528Z</time>
      </trkpt>
      <trkpt lat="47.00751" lon="-1.77339">
        <ele>11.9</ele>
        <time>2021-05-15T03:05:12.583Z</time>
      </trkpt>
      <trkpt lat="47.00762" lon="-1.77326">
        <ele>12.5</ele>
        <time>2021-05-15T03:05:14.545Z</time>
      </trkpt>
      <trkpt lat="47.00774" lon="-1.77315">
        <ele>13</ele>
        <time>2021-05-15T03:05:16.511Z</time>
      </trkpt>
      <trkpt lat="47.00787" lon="-1.77306">
        <ele>13.4</ele>
        <time>2021-05-15T03:05:18.507Z</time>
      </trkpt>
      <trkpt lat="47.00799" lon="-1.77299">
        <ele>13.8</ele>
        <time>2021-05-15T03:05:20.301Z</time>
      </trkpt>
      <trkpt lat="47.0081" lon="-1.77291">
        <ele>14.1</ele>
        <time>2021-05-15T03:05:22.006Z</time>
      </trkpt>
      <trkpt lat="47.00822" lon="-1.77285">
        <ele>14.4</ele>
        <time>2021-05-15T03:05:25.803Z</time>
      </trkpt>
      <trkpt lat="47.00835" lon="-1.77278">
        <ele>14.6</ele>
        <time>2021-05-15T03:05:27.726Z</time>
      </trkpt>
      <trkpt lat="47.00847" lon="-1.77271">
        <ele>14.3</ele>
        <time>2021-05-15T03:05:29.520Z</time>
      </trkpt>
      <trkpt lat="47.00859" lon="-1.77262">
        <ele>14</ele>
        <time>2021-05-15T03:05:31.392Z</time>
      </trkpt>
      <trkpt lat="47.0087" lon="-1.77252">
        <ele>13.7</ele>
        <time>2021-05-15T03:05:33.189Z</time>
      </trkpt>
      <trkpt lat="47.00881" lon="-1.77242">
        <ele>13.2</ele>
        <time>2021-05-15T03:05:34.987Z</time>
      </trkpt>
      <trkpt lat="47.00892" lon="-1.77232">
        <ele>12.8</ele>
        <time>2021-05-15T03:05:36.784Z</time>
      </trkpt>
      <trkpt lat="47.00903" lon="-1.7722">
        <ele>12.4</ele>
        <time>2021-05-15T03:05:38.688Z</time>
      </trkpt>
      <trkpt lat="47.00913" lon="-1.77209">
        <ele>12.1</ele>
        <time>2021-05-15T03:05:40.424Z</time>
      </trkpt>
      <trkpt lat="47.00924" lon="-1.77198">
        <ele>12.1</ele>
        <time>2021-05-15T03:05:42.273Z</time>
      </trkpt>
      <trkpt lat="47.00933" lon="-1.77188">
        <ele>12.1</ele>
        <time>2021-05-15T03:05:43.841Z</time>
      </trkpt>
      <trkpt lat="47.00942" lon="-1.77179">
        <ele>12.3</ele>
        <time>2021-05-15T03:05:47.484Z</time>
      </trkpt>
      <trkpt lat="47.00951" lon="-1.7717">
        <ele>12.4</ele>
        <time>2021-05-15T03:05:48.997Z</time>
      </trkpt>
      <trkpt lat="47.00958" lon="-1.77161">
        <ele>12.6</ele>
        <time>2021-05-15T03:05:50.290Z</time>
      </trkpt>
      <trkpt lat="47.00967" lon="-1.77153">
        <ele>12.7</ele>
        <time>2021-05-15T03:05:51.752Z</time>
      </trkpt>
      <trkpt lat="47.00977" lon="-1.77142">
        <ele>12.9</ele>
        <time>2021-05-15T03:05:53.488Z</time>
      </trkpt>
      <trkpt lat="47.00988" lon="-1.77131">
        <ele>13</ele>
        <time>2021-05-15T03:05:55.337Z</time>
      </trkpt>
      <trkpt lat="47.01" lon="-1.77119">
        <ele>13</ele>
        <time>2021-05-15T03:05:59.361Z</time>
      </trkpt>
      <trkpt lat="47.01011" lon="-1.77108">
        <ele>13.1</ele>
        <time>2021-05-15T03:06:01.210Z</time>
      </trkpt>
      <trkpt lat="47.01021" lon="-1.77096">
        <ele>13.2</ele>
        <time>2021-05-15T03:06:03.004Z</time>
      </trkpt>
      <trkpt lat="47.01032" lon="-1.77085">
        <ele>13.4</ele>
        <time>2021-05-15T03:06:04.854Z</time>
      </trkpt>
      <trkpt lat="47.01042" lon="-1.77073">
        <ele>13.6</ele>
        <time>2021-05-15T03:06:06.648Z</time>
      </trkpt>
      <trkpt lat="47.01052" lon="-1.77062">
        <ele>13.9</ele>
        <time>2021-05-15T03:06:08.384Z</time>
      </trkpt>
      <trkpt lat="47.01063" lon="-1.7705">
        <ele>14.2</ele>
        <time>2021-05-15T03:06:10.288Z</time>
      </trkpt>
      <trkpt lat="47.01072" lon="-1.77038">
        <ele>14.4</ele>
        <time>2021-05-15T03:06:11.977Z</time>
      </trkpt>
      <trkpt lat="47.01082" lon="-1.77027">
        <ele>14.7</ele>
        <time>2021-05-15T03:06:13.713Z</time>
      </trkpt>
      <trkpt lat="47.01092" lon="-1.77015">
        <ele>14.9</ele>
        <time>2021-05-15T03:06:17.537Z</time>
      </trkpt>
      <trkpt lat="47.01101" lon="-1.77004">
        <ele>15.2</ele>
        <time>2021-05-15T03:06:19.165Z</time>
      </trkpt>
      <trkpt lat="47.01111" lon="-1.76992">
        <ele>15.4</ele>
        <time>2021-05-15T03:06:20.959Z</time>
      </trkpt>
      <trkpt lat="47.01121" lon="-1.76981">
        <ele>15.6</ele>
        <time>2021-05-15T03:06:22.695Z</time>
      </trkpt>
      <trkpt lat="47.01131" lon="-1.76969">
        <ele>15.7</ele>
        <time>2021-05-15T03:06:24.490Z</time>
      </trkpt>
      <trkpt lat="47.0114" lon="-1.76957">
        <ele>15.8</ele>
        <time>2021-05-15T03:06:26.179Z</time>
      </trkpt>
      <trkpt lat="47.0115" lon="-1.76945">
        <ele>15.9</ele>
        <time>2021-05-15T03:06:30.003Z</time>
      </trkpt>
      <trkpt lat="47.0116" lon="-1.76934">
        <ele>16</ele>
        <time>2021-05-15T03:06:33.781Z</time>
      </trkpt>
      <trkpt lat="47.01169" lon="-1.76923">
        <ele>16</ele>
        <time>2021-05-15T03:06:35.408Z</time>
      </trkpt>
      <trkpt lat="47.01179" lon="-1.76912">
        <ele>16.2</ele>
        <time>2021-05-15T03:06:37.144Z</time>
      </trkpt>
      <trkpt lat="47.01189" lon="-1.76901">
        <ele>16.5</ele>
        <time>2021-05-15T03:06:38.880Z</time>
      </trkpt>
      <trkpt lat="47.012" lon="-1.76891">
        <ele>16.7</ele>
        <time>2021-05-15T03:06:40.678Z</time>
      </trkpt>
      <trkpt lat="47.0121" lon="-1.76881">
        <ele>16.9</ele>
        <time>2021-05-15T03:06:44.416Z</time>
      </trkpt>
      <trkpt lat="47.01221" lon="-1.76872">
        <ele>17.2</ele>
        <time>2021-05-15T03:06:46.165Z</time>
      </trkpt>
      <trkpt lat="47.01232" lon="-1.76864">
        <ele>17.4</ele>
        <time>2021-05-15T03:06:47.870Z</time>
      </trkpt>
      <trkpt lat="47.01244" lon="-1.76856">
        <ele>17.7</ele>
        <time>2021-05-15T03:06:49.701Z</time>
      </trkpt>
      <trkpt lat="47.01255" lon="-1.76847">
        <ele>17.9</ele>
        <time>2021-05-15T03:06:51.450Z</time>
      </trkpt>
      <trkpt lat="47.01266" lon="-1.76837">
        <ele>18.1</ele>
        <time>2021-05-15T03:06:55.277Z</time>
      </trkpt>
      <trkpt lat="47.01276" lon="-1.76827">
        <ele>18.3</ele>
        <time>2021-05-15T03:06:56.958Z</time>
      </trkpt>
      <trkpt lat="47.01286" lon="-1.76816">
        <ele>18.4</ele>
        <time>2021-05-15T03:06:58.694Z</time>
      </trkpt>
      <trkpt lat="47.01295" lon="-1.76803">
        <ele>18.5</ele>
        <time>2021-05-15T03:07:00.448Z</time>
      </trkpt>
      <trkpt lat="47.01304" lon="-1.7679">
        <ele>18.6</ele>
        <time>2021-05-15T03:07:02.202Z</time>
      </trkpt>
      <trkpt lat="47.01313" lon="-1.76776">
        <ele>18.8</ele>
        <time>2021-05-15T03:07:06.049Z</time>
      </trkpt>
      <trkpt lat="47.0132" lon="-1.76763">
        <ele>18.8</ele>
        <time>2021-05-15T03:07:07.618Z</time>
      </trkpt>
      <trkpt lat="47.01328" lon="-1.76749">
        <ele>18.9</ele>
        <time>2021-05-15T03:07:09.348Z</time>
      </trkpt>
      <trkpt lat="47.01336" lon="-1.76736">
        <ele>18.9</ele>
        <time>2021-05-15T03:07:13.070Z</time>
      </trkpt>
      <trkpt lat="47.01343" lon="-1.76721">
        <ele>18.8</ele>
        <time>2021-05-15T03:07:14.792Z</time>
      </trkpt>
      <trkpt lat="47.0135" lon="-1.76707">
        <ele>18.7</ele>
        <time>2021-05-15T03:07:16.436Z</time>
      </trkpt>
      <trkpt lat="47.01356" lon="-1.76691">
        <ele>18.6</ele>
        <time>2021-05-15T03:07:18.165Z</time>
      </trkpt>
      <trkpt lat="47.01361" lon="-1.76674">
        <ele>18.4</ele>
        <time>2021-05-15T03:07:19.918Z</time>
      </trkpt>
      <trkpt lat="47.01365" lon="-1.76657">
        <ele>18.4</ele>
        <time>2021-05-15T03:07:21.621Z</time>
      </trkpt>
      <trkpt lat="47.01369" lon="-1.76639">
        <ele>18.4</ele>
        <time>2021-05-15T03:07:23.413Z</time>
      </trkpt>
      <trkpt lat="47.01373" lon="-1.76621">
        <ele>18.5</ele>
        <time>2021-05-15T03:07:25.206Z</time>
      </trkpt>
      <trkpt lat="47.01376" lon="-1.76603">
        <ele>18.5</ele>
        <time>2021-05-15T03:07:26.961Z</time>
      </trkpt>
      <trkpt lat="47.0138" lon="-1.76586">
        <ele>18.6</ele>
        <time>2021-05-15T03:07:28.664Z</time>
      </trkpt>
      <trkpt lat="47.01384" lon="-1.76568">
        <ele>18.7</ele>
        <time>2021-05-15T03:07:30.456Z</time>
      </trkpt>
      <trkpt lat="47.01388" lon="-1.7655">
        <ele>18.9</ele>
        <time>2021-05-15T03:07:31.455Z</time>
      </trkpt>
      <trkpt lat="47.01392" lon="-1.76531">
        <ele>19.1</ele>
        <time>2021-05-15T03:07:33.338Z</time>
      </trkpt>
      <trkpt lat="47.01396" lon="-1.76513">
        <ele>19.4</ele>
        <time>2021-05-15T03:07:35.131Z</time>
      </trkpt>
      <trkpt lat="47.01401" lon="-1.76495">
        <ele>19.6</ele>
        <time>2021-05-15T03:07:36.971Z</time>
      </trkpt>
      <trkpt lat="47.01406" lon="-1.76477">
        <ele>19.7</ele>
        <time>2021-05-15T03:07:40.834Z</time>
      </trkpt>
      <trkpt lat="47.01413" lon="-1.7646">
        <ele>19.9</ele>
        <time>2021-05-15T03:07:41.882Z</time>
      </trkpt>
      <trkpt lat="47.01421" lon="-1.76444">
        <ele>20.1</ele>
        <time>2021-05-15T03:07:43.760Z</time>
      </trkpt>
      <trkpt lat="47.01429" lon="-1.76426">
        <ele>20.3</ele>
        <time>2021-05-15T03:07:45.795Z</time>
      </trkpt>
      <trkpt lat="47.01437" lon="-1.76409">
        <ele>20.5</ele>
        <time>2021-05-15T03:07:47.751Z</time>
      </trkpt>
      <trkpt lat="47.01445" lon="-1.76391">
        <ele>20.6</ele>
        <time>2021-05-15T03:07:48.884Z</time>
      </trkpt>
      <trkpt lat="47.01454" lon="-1.76373">
        <ele>20.7</ele>
        <time>2021-05-15T03:07:50.998Z</time>
      </trkpt>
      <trkpt lat="47.01462" lon="-1.76356">
        <ele>20.7</ele>
        <time>2021-05-15T03:07:52.088Z</time>
      </trkpt>
      <trkpt lat="47.0147" lon="-1.76339">
        <ele>20.7</ele>
        <time>2021-05-15T03:07:54.044Z</time>
      </trkpt>
      <trkpt lat="47.01478" lon="-1.76322">
        <ele>20.4</ele>
        <time>2021-05-15T03:07:56.000Z</time>
      </trkpt>
      <trkpt lat="47.01486" lon="-1.76305">
        <ele>20.1</ele>
        <time>2021-05-15T03:07:57.956Z</time>
      </trkpt>
      <trkpt lat="47.01485" lon="-1.76313">
        <ele>20.3</ele>
        <time>2021-05-15T03:08:00.926Z</time>
      </trkpt>
      <trkpt lat="47.01485" lon="-1.76313">
        <ele>20.3</ele>
        <time>2021-05-15T03:08:00.926Z</time>
      </trkpt>
      <trkpt lat="47.01478" lon="-1.76294">
        <ele>19.7</ele>
        <time>2021-05-15T03:08:02.971Z</time>
      </trkpt>
      <trkpt lat="47.01471" lon="-1.76276">
        <ele>19</ele>
        <time>2021-05-15T03:08:04.064Z</time>
      </trkpt>
      <trkpt lat="47.01464" lon="-1.76258">
        <ele>18.4</ele>
        <time>2021-05-15T03:08:06.027Z</time>
      </trkpt>
      <trkpt lat="47.01457" lon="-1.7624">
        <ele>17.7</ele>
        <time>2021-05-15T03:08:07.989Z</time>
      </trkpt>
      <trkpt lat="47.0145" lon="-1.76222">
        <ele>17.2</ele>
        <time>2021-05-15T03:08:09.082Z</time>
      </trkpt>
      <trkpt lat="47.01443" lon="-1.76204">
        <ele>16.7</ele>
        <time>2021-05-15T03:08:11.044Z</time>
      </trkpt>
      <trkpt lat="47.01436" lon="-1.76186">
        <ele>16.3</ele>
        <time>2021-05-15T03:08:12.137Z</time>
      </trkpt>
      <trkpt lat="47.01429" lon="-1.76168">
        <ele>16</ele>
        <time>2021-05-15T03:08:14.100Z</time>
      </trkpt>
      <trkpt lat="47.01422" lon="-1.76149">
        <ele>15.4</ele>
        <time>2021-05-15T03:08:15.239Z</time>
      </trkpt>
      <trkpt lat="47.01414" lon="-1.76131">
        <ele>14.8</ele>
        <time>2021-05-15T03:08:17.274Z</time>
      </trkpt>
      <trkpt lat="47.01407" lon="-1.76113">
        <ele>14.4</ele>
        <time>2021-05-15T03:08:18.367Z</time>
      </trkpt>
      <trkpt lat="47.014" lon="-1.76096">
        <ele>13.9</ele>
        <time>2021-05-15T03:08:20.247Z</time>
      </trkpt>
      <trkpt lat="47.01394" lon="-1.76079">
        <ele>13.5</ele>
        <time>2021-05-15T03:08:22.060Z</time>
      </trkpt>
      <trkpt lat="47.01387" lon="-1.76062">
        <ele>13.7</ele>
        <time>2021-05-15T03:08:23.941Z</time>
      </trkpt>
      <trkpt lat="47.0138" lon="-1.76044">
        <ele>13.9</ele>
        <time>2021-05-15T03:08:25.903Z</time>
      </trkpt>
      <trkpt lat="47.01373" lon="-1.76027">
        <ele>14</ele>
        <time>2021-05-15T03:08:27.783Z</time>
      </trkpt>
      <trkpt lat="47.01366" lon="-1.76009">
        <ele>14.2</ele>
        <time>2021-05-15T03:08:29.745Z</time>
      </trkpt>
      <trkpt lat="47.0136" lon="-1.75992">
        <ele>14.2</ele>
        <time>2021-05-15T03:08:31.558Z</time>
      </trkpt>
      <trkpt lat="47.01353" lon="-1.75976">
        <ele>13.9</ele>
        <time>2021-05-15T03:08:33.358Z</time>
      </trkpt>
      <trkpt lat="47.01347" lon="-1.75959">
        <ele>13.4</ele>
        <time>2021-05-15T03:08:34.368Z</time>
      </trkpt>
      <trkpt lat="47.0134" lon="-1.75942">
        <ele>12.9</ele>
        <time>2021-05-15T03:08:36.249Z</time>
      </trkpt>
      <trkpt lat="47.01333" lon="-1.75925">
        <ele>12.3</ele>
        <time>2021-05-15T03:08:37.297Z</time>
      </trkpt>
      <trkpt lat="47.01326" lon="-1.75908">
        <ele>12.2</ele>
        <time>2021-05-15T03:08:39.177Z</time>
      </trkpt>
      <trkpt lat="47.01319" lon="-1.7589">
        <ele>12.3</ele>
        <time>2021-05-15T03:08:41.139Z</time>
      </trkpt>
      <trkpt lat="47.01312" lon="-1.75872">
        <ele>12.5</ele>
        <time>2021-05-15T03:08:42.233Z</time>
      </trkpt>
      <trkpt lat="47.01305" lon="-1.75854">
        <ele>12.7</ele>
        <time>2021-05-15T03:08:44.195Z</time>
      </trkpt>
      <trkpt lat="47.01297" lon="-1.75835">
        <ele>12.9</ele>
        <time>2021-05-15T03:08:46.309Z</time>
      </trkpt>
      <trkpt lat="47.0129" lon="-1.75817">
        <ele>13.4</ele>
        <time>2021-05-15T03:08:47.403Z</time>
      </trkpt>
      <trkpt lat="47.01282" lon="-1.75799">
        <ele>14.1</ele>
        <time>2021-05-15T03:08:51.444Z</time>
      </trkpt>
      <trkpt lat="47.01275" lon="-1.75781">
        <ele>14.7</ele>
        <time>2021-05-15T03:08:53.406Z</time>
      </trkpt>
      <trkpt lat="47.01268" lon="-1.75765">
        <ele>15.2</ele>
        <time>2021-05-15T03:08:57.235Z</time>
      </trkpt>
      <trkpt lat="47.01262" lon="-1.75747">
        <ele>15.7</ele>
        <time>2021-05-15T03:09:01.147Z</time>
      </trkpt>
      <trkpt lat="47.01256" lon="-1.75728">
        <ele>15.9</ele>
        <time>2021-05-15T03:09:05.138Z</time>
      </trkpt>
      <trkpt lat="47.0125" lon="-1.75712">
        <ele>16</ele>
        <time>2021-05-15T03:09:06.867Z</time>
      </trkpt>
      <trkpt lat="47.01244" lon="-1.75697">
        <ele>16.2</ele>
        <time>2021-05-15T03:09:13.219Z</time>
      </trkpt>
      <trkpt lat="47.01237" lon="-1.7568">
        <ele>16.5</ele>
        <time>2021-05-15T03:09:15.100Z</time>
      </trkpt>
      <trkpt lat="47.01229" lon="-1.75664">
        <ele>16.7</ele>
        <time>2021-05-15T03:09:16.979Z</time>
      </trkpt>
      <trkpt lat="47.01221" lon="-1.75646">
        <ele>16.8</ele>
        <time>2021-05-15T03:09:21.020Z</time>
      </trkpt>
      <trkpt lat="47.01214" lon="-1.75629">
        <ele>16.8</ele>
        <time>2021-05-15T03:09:22.900Z</time>
      </trkpt>
      <trkpt lat="47.01207" lon="-1.75612">
        <ele>16.9</ele>
        <time>2021-05-15T03:09:24.781Z</time>
      </trkpt>
      <trkpt lat="47.01201" lon="-1.75597">
        <ele>16.9</ele>
        <time>2021-05-15T03:09:28.496Z</time>
      </trkpt>
      <trkpt lat="47.01195" lon="-1.75583">
        <ele>17</ele>
        <time>2021-05-15T03:09:30.062Z</time>
      </trkpt>
      <trkpt lat="47.01189" lon="-1.75568">
        <ele>16.8</ele>
        <time>2021-05-15T03:09:33.777Z</time>
      </trkpt>
      <trkpt lat="47.01183" lon="-1.7555">
        <ele>16.4</ele>
        <time>2021-05-15T03:09:34.834Z</time>
      </trkpt>
      <trkpt lat="47.01176" lon="-1.75532">
        <ele>16</ele>
        <time>2021-05-15T03:09:35.928Z</time>
      </trkpt>
      <trkpt lat="47.01169" lon="-1.75514">
        <ele>15.5</ele>
        <time>2021-05-15T03:09:37.890Z</time>
      </trkpt>
      <trkpt lat="47.01162" lon="-1.75497">
        <ele>15</ele>
        <time>2021-05-15T03:09:38.938Z</time>
      </trkpt>
      <trkpt lat="47.01156" lon="-1.75481">
        <ele>15</ele>
        <time>2021-05-15T03:09:40.667Z</time>
      </trkpt>
      <trkpt lat="47.0115" lon="-1.75465">
        <ele>15</ele>
        <time>2021-05-15T03:09:42.396Z</time>
      </trkpt>
      <trkpt lat="47.01143" lon="-1.75448">
        <ele>15</ele>
        <time>2021-05-15T03:09:44.277Z</time>
      </trkpt>
      <trkpt lat="47.01137" lon="-1.75432">
        <ele>15</ele>
        <time>2021-05-15T03:09:46.006Z</time>
      </trkpt>
      <trkpt lat="47.01131" lon="-1.75417">
        <ele>15</ele>
        <time>2021-05-15T03:09:47.653Z</time>
      </trkpt>
      <trkpt lat="47.01125" lon="-1.754">
        <ele>14.8</ele>
        <time>2021-05-15T03:09:49.465Z</time>
      </trkpt>
      <trkpt lat="47.01119" lon="-1.75385">
        <ele>14.7</ele>
        <time>2021-05-15T03:09:53.181Z</time>
      </trkpt>
      <trkpt lat="47.01113" lon="-1.75371">
        <ele>14.6</ele>
        <time>2021-05-15T03:09:54.747Z</time>
      </trkpt>
      <trkpt lat="47.01106" lon="-1.75355">
        <ele>14.6</ele>
        <time>2021-05-15T03:09:56.547Z</time>
      </trkpt>
      <trkpt lat="47.011" lon="-1.75339">
        <ele>14.6</ele>
        <time>2021-05-15T03:09:58.276Z</time>
      </trkpt>
      <trkpt lat="47.01093" lon="-1.75323">
        <ele>14.8</ele>
        <time>2021-05-15T03:10:00.076Z</time>
      </trkpt>
      <trkpt lat="47.01088" lon="-1.75308">
        <ele>14.9</ele>
        <time>2021-05-15T03:10:01.657Z</time>
      </trkpt>
      <trkpt lat="47.01081" lon="-1.75292">
        <ele>15</ele>
        <time>2021-05-15T03:10:03.457Z</time>
      </trkpt>
      <trkpt lat="47.01074" lon="-1.75274">
        <ele>15.1</ele>
        <time>2021-05-15T03:10:04.551Z</time>
      </trkpt>
      <trkpt lat="47.01068" lon="-1.75259">
        <ele>15.2</ele>
        <time>2021-05-15T03:10:06.198Z</time>
      </trkpt>
      <trkpt lat="47.01062" lon="-1.75243">
        <ele>15.2</ele>
        <time>2021-05-15T03:10:07.927Z</time>
      </trkpt>
      <trkpt lat="47.01057" lon="-1.75227">
        <ele>15</ele>
        <time>2021-05-15T03:10:11.655Z</time>
      </trkpt>
      <trkpt lat="47.01052" lon="-1.7521">
        <ele>14.9</ele>
        <time>2021-05-15T03:10:13.409Z</time>
      </trkpt>
      <trkpt lat="47.01049" lon="-1.75192">
        <ele>14.7</ele>
        <time>2021-05-15T03:10:15.163Z</time>
      </trkpt>
      <trkpt lat="47.01047" lon="-1.75174">
        <ele>14.5</ele>
        <time>2021-05-15T03:10:18.935Z</time>
      </trkpt>
      <trkpt lat="47.01046" lon="-1.75155">
        <ele>14.4</ele>
        <time>2021-05-15T03:10:20.739Z</time>
      </trkpt>
      <trkpt lat="47.01045" lon="-1.75137">
        <ele>14.5</ele>
        <time>2021-05-15T03:10:22.450Z</time>
      </trkpt>
      <trkpt lat="47.01045" lon="-1.75118">
        <ele>14.5</ele>
        <time>2021-05-15T03:10:24.249Z</time>
      </trkpt>
      <trkpt lat="47.01045" lon="-1.75101">
        <ele>14.5</ele>
        <time>2021-05-15T03:10:25.146Z</time>
      </trkpt>
      <trkpt lat="47.01045" lon="-1.75083">
        <ele>14.5</ele>
        <time>2021-05-15T03:10:26.850Z</time>
      </trkpt>
      <trkpt lat="47.01045" lon="-1.75064">
        <ele>14.8</ele>
        <time>2021-05-15T03:10:28.650Z</time>
      </trkpt>
      <trkpt lat="47.01045" lon="-1.75047">
        <ele>15.1</ele>
        <time>2021-05-15T03:10:30.259Z</time>
      </trkpt>
      <trkpt lat="47.01044" lon="-1.75028">
        <ele>15.5</ele>
        <time>2021-05-15T03:10:32.064Z</time>
      </trkpt>
      <trkpt lat="47.01043" lon="-1.7501">
        <ele>15.8</ele>
        <time>2021-05-15T03:10:33.774Z</time>
      </trkpt>
      <trkpt lat="47.01043" lon="-1.74993">
        <ele>16</ele>
        <time>2021-05-15T03:10:35.384Z</time>
      </trkpt>
      <trkpt lat="47.01043" lon="-1.74974">
        <ele>16.2</ele>
        <time>2021-05-15T03:10:37.183Z</time>
      </trkpt>
      <trkpt lat="47.01043" lon="-1.74955">
        <ele>16.3</ele>
        <time>2021-05-15T03:10:38.186Z</time>
      </trkpt>
      <trkpt lat="47.01043" lon="-1.74937">
        <ele>16.4</ele>
        <time>2021-05-15T03:10:39.890Z</time>
      </trkpt>
      <trkpt lat="47.01042" lon="-1.74919">
        <ele>16.5</ele>
        <time>2021-05-15T03:10:41.601Z</time>
      </trkpt>
      <trkpt lat="47.01042" lon="-1.74901">
        <ele>16.3</ele>
        <time>2021-05-15T03:10:42.550Z</time>
      </trkpt>
      <trkpt lat="47.01042" lon="-1.74884">
        <ele>16.1</ele>
        <time>2021-05-15T03:10:44.160Z</time>
      </trkpt>
      <trkpt lat="47.01042" lon="-1.74866">
        <ele>15.9</ele>
        <time>2021-05-15T03:10:45.865Z</time>
      </trkpt>
      <trkpt lat="47.01042" lon="-1.74848">
        <ele>15.7</ele>
        <time>2021-05-15T03:10:47.569Z</time>
      </trkpt>
      <trkpt lat="47.01042" lon="-1.7483">
        <ele>15.5</ele>
        <time>2021-05-15T03:10:49.274Z</time>
      </trkpt>
      <trkpt lat="47.01042" lon="-1.74812">
        <ele>15.2</ele>
        <time>2021-05-15T03:10:53.029Z</time>
      </trkpt>
      <trkpt lat="47.01041" lon="-1.74794">
        <ele>15</ele>
        <time>2021-05-15T03:10:54.739Z</time>
      </trkpt>
      <trkpt lat="47.0104" lon="-1.74776">
        <ele>14.8</ele>
        <time>2021-05-15T03:10:58.498Z</time>
      </trkpt>
      <trkpt lat="47.01039" lon="-1.74758">
        <ele>14.6</ele>
        <time>2021-05-15T03:11:02.257Z</time>
      </trkpt>
      <trkpt lat="47.01039" lon="-1.7474">
        <ele>14.6</ele>
        <time>2021-05-15T03:11:03.962Z</time>
      </trkpt>
      <trkpt lat="47.01039" lon="-1.74722">
        <ele>14.8</ele>
        <time>2021-05-15T03:11:05.666Z</time>
      </trkpt>
      <trkpt lat="47.01039" lon="-1.74703">
        <ele>15.1</ele>
        <time>2021-05-15T03:11:07.465Z</time>
      </trkpt>
      <trkpt lat="47.01038" lon="-1.74684">
        <ele>15.3</ele>
        <time>2021-05-15T03:11:09.270Z</time>
      </trkpt>
      <trkpt lat="47.01038" lon="-1.74665">
        <ele>15.5</ele>
        <time>2021-05-15T03:11:11.069Z</time>
      </trkpt>
      <trkpt lat="47.01038" lon="-1.74646">
        <ele>15.5</ele>
        <time>2021-05-15T03:11:12.072Z</time>
      </trkpt>
      <trkpt lat="47.01038" lon="-1.74628">
        <ele>15.5</ele>
        <time>2021-05-15T03:11:13.776Z</time>
      </trkpt>
      <trkpt lat="47.01038" lon="-1.7461">
        <ele>15.5</ele>
        <time>2021-05-15T03:11:15.481Z</time>
      </trkpt>
      <trkpt lat="47.01037" lon="-1.74592">
        <ele>15.4</ele>
        <time>2021-05-15T03:11:17.191Z</time>
      </trkpt>
      <trkpt lat="47.01038" lon="-1.74573">
        <ele>15.6</ele>
        <time>2021-05-15T03:11:18.996Z</time>
      </trkpt>
      <trkpt lat="47.0104" lon="-1.74554">
        <ele>15.8</ele>
        <time>2021-05-15T03:11:20.816Z</time>
      </trkpt>
      <trkpt lat="47.01043" lon="-1.74537">
        <ele>16.1</ele>
        <time>2021-05-15T03:11:21.743Z</time>
      </trkpt>
      <trkpt lat="47.01049" lon="-1.7452">
        <ele>16.3</ele>
        <time>2021-05-15T03:11:23.555Z</time>
      </trkpt>
      <trkpt lat="47.01055" lon="-1.74504">
        <ele>16.6</ele>
        <time>2021-05-15T03:11:24.519Z</time>
      </trkpt>
      <trkpt lat="47.01061" lon="-1.74488">
        <ele>16.8</ele>
        <time>2021-05-15T03:11:26.248Z</time>
      </trkpt>
      <trkpt lat="47.01066" lon="-1.74472">
        <ele>16.9</ele>
        <time>2021-05-15T03:11:27.915Z</time>
      </trkpt>
      <trkpt lat="47.01072" lon="-1.74456">
        <ele>16.9</ele>
        <time>2021-05-15T03:11:29.644Z</time>
      </trkpt>
      <trkpt lat="47.01077" lon="-1.74439">
        <ele>17</ele>
        <time>2021-05-15T03:11:33.435Z</time>
      </trkpt>
      <trkpt lat="47.01081" lon="-1.74421">
        <ele>17</ele>
        <time>2021-05-15T03:11:34.434Z</time>
      </trkpt>
      <trkpt lat="47.01086" lon="-1.74403">
        <ele>17.1</ele>
        <time>2021-05-15T03:11:38.297Z</time>
      </trkpt>
      <trkpt lat="47.0109" lon="-1.74384">
        <ele>17.3</ele>
        <time>2021-05-15T03:11:40.180Z</time>
      </trkpt>
      <trkpt lat="47.01095" lon="-1.74366">
        <ele>17.5</ele>
        <time>2021-05-15T03:11:41.205Z</time>
      </trkpt>
      <trkpt lat="47.01099" lon="-1.74349">
        <ele>17.6</ele>
        <time>2021-05-15T03:11:42.908Z</time>
      </trkpt>
      <trkpt lat="47.01104" lon="-1.74331">
        <ele>17.9</ele>
        <time>2021-05-15T03:11:46.771Z</time>
      </trkpt>
      <trkpt lat="47.01109" lon="-1.74313">
        <ele>18.5</ele>
        <time>2021-05-15T03:11:48.611Z</time>
      </trkpt>
      <trkpt lat="47.01113" lon="-1.74295">
        <ele>19</ele>
        <time>2021-05-15T03:11:50.404Z</time>
      </trkpt>
      <trkpt lat="47.01118" lon="-1.74277">
        <ele>19.3</ele>
        <time>2021-05-15T03:11:52.245Z</time>
      </trkpt>
      <trkpt lat="47.01122" lon="-1.7426">
        <ele>19.5</ele>
        <time>2021-05-15T03:11:53.948Z</time>
      </trkpt>
      <trkpt lat="47.01127" lon="-1.74244">
        <ele>19.3</ele>
        <time>2021-05-15T03:11:55.614Z</time>
      </trkpt>
      <trkpt lat="47.0113" lon="-1.74227">
        <ele>19</ele>
        <time>2021-05-15T03:11:59.340Z</time>
      </trkpt>
      <trkpt lat="47.01134" lon="-1.7421">
        <ele>18.6</ele>
        <time>2021-05-15T03:12:01.043Z</time>
      </trkpt>
      <trkpt lat="47.01138" lon="-1.74193">
        <ele>18.2</ele>
        <time>2021-05-15T03:12:02.746Z</time>
      </trkpt>
      <trkpt lat="47.01143" lon="-1.74175">
        <ele>17.7</ele>
        <time>2021-05-15T03:12:04.587Z</time>
      </trkpt>
      <trkpt lat="47.01148" lon="-1.74158">
        <ele>17.5</ele>
        <time>2021-05-15T03:12:06.340Z</time>
      </trkpt>
      <trkpt lat="47.01152" lon="-1.74141">
        <ele>17.5</ele>
        <time>2021-05-15T03:12:08.043Z</time>
      </trkpt>
      <trkpt lat="47.01156" lon="-1.74124">
        <ele>17.5</ele>
        <time>2021-05-15T03:12:09.746Z</time>
      </trkpt>
      <trkpt lat="47.0116" lon="-1.74107">
        <ele>17.7</ele>
        <time>2021-05-15T03:12:11.449Z</time>
      </trkpt>
      <trkpt lat="47.01164" lon="-1.74091">
        <ele>17.9</ele>
        <time>2021-05-15T03:12:15.144Z</time>
      </trkpt>
      <trkpt lat="47.01167" lon="-1.74076">
        <ele>18.2</ele>
        <time>2021-05-15T03:12:18.774Z</time>
      </trkpt>
      <trkpt lat="47.0117" lon="-1.74061">
        <ele>18.5</ele>
        <time>2021-05-15T03:12:20.255Z</time>
      </trkpt>
      <trkpt lat="47.01173" lon="-1.74046">
        <ele>18.8</ele>
        <time>2021-05-15T03:12:23.886Z</time>
      </trkpt>
      <trkpt lat="47.01176" lon="-1.74031">
        <ele>19.1</ele>
        <time>2021-05-15T03:12:27.516Z</time>
      </trkpt>
      <trkpt lat="47.01179" lon="-1.74016">
        <ele>19.4</ele>
        <time>2021-05-15T03:12:31.147Z</time>
      </trkpt>
      <trkpt lat="47.01182" lon="-1.74">
        <ele>19.6</ele>
        <time>2021-05-15T03:12:34.818Z</time>
      </trkpt>
      <trkpt lat="47.01187" lon="-1.73981">
        <ele>19.6</ele>
        <time>2021-05-15T03:12:36.747Z</time>
      </trkpt>
      <trkpt lat="47.01193" lon="-1.73962">
        <ele>19.5</ele>
        <time>2021-05-15T03:12:38.729Z</time>
      </trkpt>
      <trkpt lat="47.01198" lon="-1.73943">
        <ele>19.5</ele>
        <time>2021-05-15T03:12:39.804Z</time>
      </trkpt>
      <trkpt lat="47.01201" lon="-1.73925">
        <ele>19.5</ele>
        <time>2021-05-15T03:12:41.559Z</time>
      </trkpt>
      <trkpt lat="47.01204" lon="-1.73908">
        <ele>19.7</ele>
        <time>2021-05-15T03:12:42.485Z</time>
      </trkpt>
      <trkpt lat="47.01206" lon="-1.7389">
        <ele>19.8</ele>
        <time>2021-05-15T03:12:44.212Z</time>
      </trkpt>
      <trkpt lat="47.01207" lon="-1.7387">
        <ele>20.1</ele>
        <time>2021-05-15T03:12:45.270Z</time>
      </trkpt>
      <trkpt lat="47.01208" lon="-1.73852">
        <ele>20.3</ele>
        <time>2021-05-15T03:12:46.223Z</time>
      </trkpt>
      <trkpt lat="47.01209" lon="-1.73835">
        <ele>20.5</ele>
        <time>2021-05-15T03:12:47.123Z</time>
      </trkpt>
      <trkpt lat="47.0121" lon="-1.73817">
        <ele>20.4</ele>
        <time>2021-05-15T03:12:48.076Z</time>
      </trkpt>
      <trkpt lat="47.01211" lon="-1.738">
        <ele>20.3</ele>
        <time>2021-05-15T03:12:49.692Z</time>
      </trkpt>
      <trkpt lat="47.01212" lon="-1.73783">
        <ele>20.2</ele>
        <time>2021-05-15T03:12:51.307Z</time>
      </trkpt>
      <trkpt lat="47.01213" lon="-1.73766">
        <ele>20.2</ele>
        <time>2021-05-15T03:12:52.923Z</time>
      </trkpt>
      <trkpt lat="47.01213" lon="-1.73748">
        <ele>20.1</ele>
        <time>2021-05-15T03:12:53.873Z</time>
      </trkpt>
      <trkpt lat="47.01214" lon="-1.7373">
        <ele>20</ele>
        <time>2021-05-15T03:12:57.632Z</time>
      </trkpt>
      <trkpt lat="47.01216" lon="-1.73712">
        <ele>19.8</ele>
        <time>2021-05-15T03:12:58.594Z</time>
      </trkpt>
      <trkpt lat="47.01217" lon="-1.73694">
        <ele>19.7</ele>
        <time>2021-05-15T03:13:00.304Z</time>
      </trkpt>
      <trkpt lat="47.01217" lon="-1.73677">
        <ele>19.5</ele>
        <time>2021-05-15T03:13:01.914Z</time>
      </trkpt>
      <trkpt lat="47.01218" lon="-1.73658">
        <ele>19.4</ele>
        <time>2021-05-15T03:13:03.719Z</time>
      </trkpt>
      <trkpt lat="47.01218" lon="-1.73641">
        <ele>19.5</ele>
        <time>2021-05-15T03:13:07.411Z</time>
      </trkpt>
      <trkpt lat="47.01219" lon="-1.73624">
        <ele>19.6</ele>
        <time>2021-05-15T03:13:11.107Z</time>
      </trkpt>
      <trkpt lat="47.01219" lon="-1.73607">
        <ele>19.6</ele>
        <time>2021-05-15T03:13:12.717Z</time>
      </trkpt>
      <trkpt lat="47.0122" lon="-1.7359">
        <ele>19.7</ele>
        <time>2021-05-15T03:13:14.333Z</time>
      </trkpt>
      <trkpt lat="47.01221" lon="-1.73573">
        <ele>20</ele>
        <time>2021-05-15T03:13:15.948Z</time>
      </trkpt>
      <trkpt lat="47.01222" lon="-1.73557">
        <ele>20.4</ele>
        <time>2021-05-15T03:13:19.595Z</time>
      </trkpt>
      <trkpt lat="47.01223" lon="-1.7354">
        <ele>20.9</ele>
        <time>2021-05-15T03:13:21.211Z</time>
      </trkpt>
      <trkpt lat="47.01224" lon="-1.73524">
        <ele>21.3</ele>
        <time>2021-05-15T03:13:22.732Z</time>
      </trkpt>
      <trkpt lat="47.01224" lon="-1.73508">
        <ele>21.8</ele>
        <time>2021-05-15T03:13:24.247Z</time>
      </trkpt>
      <trkpt lat="47.01224" lon="-1.73495">
        <ele>22</ele>
        <time>2021-05-15T03:13:24.933Z</time>
      </trkpt>
      <trkpt lat="47.01216" lon="-1.73485">
        <ele>21.9</ele>
        <time>2021-05-15T03:13:26.393Z</time>
      </trkpt>
      <trkpt lat="47.01206" lon="-1.73482">
        <ele>21.9</ele>
        <time>2021-05-15T03:13:27.811Z</time>
      </trkpt>
      <trkpt lat="47.01194" lon="-1.73479">
        <ele>21.9</ele>
        <time>2021-05-15T03:13:29.501Z</time>
      </trkpt>
      <trkpt lat="47.01182" lon="-1.73477">
        <ele>21.9</ele>
        <time>2021-05-15T03:13:31.179Z</time>
      </trkpt>
      <trkpt lat="47.0117" lon="-1.73473">
        <ele>22</ele>
        <time>2021-05-15T03:13:34.937Z</time>
      </trkpt>
      <trkpt lat="47.01158" lon="-1.73469">
        <ele>21.8</ele>
        <time>2021-05-15T03:13:35.889Z</time>
      </trkpt>
      <trkpt lat="47.01146" lon="-1.73467">
        <ele>21.5</ele>
        <time>2021-05-15T03:13:37.566Z</time>
      </trkpt>
      <trkpt lat="47.01134" lon="-1.73464">
        <ele>21.2</ele>
        <time>2021-05-15T03:13:39.257Z</time>
      </trkpt>
      <trkpt lat="47.01122" lon="-1.73459">
        <ele>20.9</ele>
        <time>2021-05-15T03:13:40.989Z</time>
      </trkpt>
      <trkpt lat="47.0111" lon="-1.73454">
        <ele>20.6</ele>
        <time>2021-05-15T03:13:42.722Z</time>
      </trkpt>
      <trkpt lat="47.01101" lon="-1.73441">
        <ele>20.4</ele>
        <time>2021-05-15T03:13:44.476Z</time>
      </trkpt>
      <trkpt lat="47.01106" lon="-1.73426">
        <ele>20.5</ele>
        <time>2021-05-15T03:13:46.057Z</time>
      </trkpt>
      <trkpt lat="47.01112" lon="-1.73414">
        <ele>20.7</ele>
        <time>2021-05-15T03:13:46.842Z</time>
      </trkpt>
      <trkpt lat="47.01118" lon="-1.73401">
        <ele>20.8</ele>
        <time>2021-05-15T03:13:48.329Z</time>
      </trkpt>
      <trkpt lat="47.01124" lon="-1.73388">
        <ele>21</ele>
        <time>2021-05-15T03:13:49.816Z</time>
      </trkpt>
      <trkpt lat="47.0113" lon="-1.73372">
        <ele>21.1</ele>
        <time>2021-05-15T03:13:51.545Z</time>
      </trkpt>
      <trkpt lat="47.01136" lon="-1.73356">
        <ele>21.3</ele>
        <time>2021-05-15T03:13:53.274Z</time>
      </trkpt>
      <trkpt lat="47.01144" lon="-1.73341">
        <ele>21.5</ele>
        <time>2021-05-15T03:13:57.105Z</time>
      </trkpt>
      <trkpt lat="47.01151" lon="-1.73324">
        <ele>21.6</ele>
        <time>2021-05-15T03:13:58.153Z</time>
      </trkpt>
      <trkpt lat="47.01158" lon="-1.73309">
        <ele>21.8</ele>
        <time>2021-05-15T03:14:01.920Z</time>
      </trkpt>
      <trkpt lat="47.01164" lon="-1.73294">
        <ele>21.9</ele>
        <time>2021-05-15T03:14:03.567Z</time>
      </trkpt>
      <trkpt lat="47.01171" lon="-1.73279">
        <ele>21.9</ele>
        <time>2021-05-15T03:14:04.526Z</time>
      </trkpt>
      <trkpt lat="47.01177" lon="-1.73264">
        <ele>21.9</ele>
        <time>2021-05-15T03:14:08.241Z</time>
      </trkpt>
      <trkpt lat="47.01184" lon="-1.73248">
        <ele>21.8</ele>
        <time>2021-05-15T03:14:10.042Z</time>
      </trkpt>
      <trkpt lat="47.0119" lon="-1.73232">
        <ele>21.4</ele>
        <time>2021-05-15T03:14:11.771Z</time>
      </trkpt>
      <trkpt lat="47.01197" lon="-1.73216">
        <ele>20.9</ele>
        <time>2021-05-15T03:14:13.571Z</time>
      </trkpt>
      <trkpt lat="47.01204" lon="-1.732">
        <ele>20.4</ele>
        <time>2021-05-15T03:14:15.371Z</time>
      </trkpt>
      <trkpt lat="47.01211" lon="-1.73184">
        <ele>19.8</ele>
        <time>2021-05-15T03:14:17.171Z</time>
      </trkpt>
      <trkpt lat="47.01218" lon="-1.73169">
        <ele>19.2</ele>
        <time>2021-05-15T03:14:18.893Z</time>
      </trkpt>
      <trkpt lat="47.01225" lon="-1.73154">
        <ele>19.1</ele>
        <time>2021-05-15T03:14:20.614Z</time>
      </trkpt>
      <trkpt lat="47.01232" lon="-1.73139">
        <ele>19.2</ele>
        <time>2021-05-15T03:14:22.335Z</time>
      </trkpt>
      <trkpt lat="47.01238" lon="-1.73124">
        <ele>19.3</ele>
        <time>2021-05-15T03:14:23.982Z</time>
      </trkpt>
      <trkpt lat="47.01244" lon="-1.73108">
        <ele>19.5</ele>
        <time>2021-05-15T03:14:25.711Z</time>
      </trkpt>
      <trkpt lat="47.01252" lon="-1.73093">
        <ele>19.8</ele>
        <time>2021-05-15T03:14:26.716Z</time>
      </trkpt>
      <trkpt lat="47.01258" lon="-1.73078">
        <ele>20.1</ele>
        <time>2021-05-15T03:14:30.431Z</time>
      </trkpt>
      <trkpt lat="47.01265" lon="-1.73063">
        <ele>20.3</ele>
        <time>2021-05-15T03:14:32.152Z</time>
      </trkpt>
      <trkpt lat="47.01272" lon="-1.73048">
        <ele>20.5</ele>
        <time>2021-05-15T03:14:33.873Z</time>
      </trkpt>
      <trkpt lat="47.01279" lon="-1.73033">
        <ele>20.8</ele>
        <time>2021-05-15T03:14:35.595Z</time>
      </trkpt>
      <trkpt lat="47.01286" lon="-1.73018">
        <ele>21.1</ele>
        <time>2021-05-15T03:14:37.316Z</time>
      </trkpt>
      <trkpt lat="47.01292" lon="-1.73003">
        <ele>21.4</ele>
        <time>2021-05-15T03:14:38.963Z</time>
      </trkpt>
      <trkpt lat="47.01298" lon="-1.72988">
        <ele>21.7</ele>
        <time>2021-05-15T03:14:40.610Z</time>
      </trkpt>
      <trkpt lat="47.01305" lon="-1.72973">
        <ele>21.9</ele>
        <time>2021-05-15T03:14:42.331Z</time>
      </trkpt>
      <trkpt lat="47.01312" lon="-1.72957">
        <ele>22.1</ele>
        <time>2021-05-15T03:14:44.131Z</time>
      </trkpt>
      <trkpt lat="47.01318" lon="-1.72942">
        <ele>22.4</ele>
        <time>2021-05-15T03:14:45.778Z</time>
      </trkpt>
      <trkpt lat="47.01325" lon="-1.72927">
        <ele>22.7</ele>
        <time>2021-05-15T03:14:47.499Z</time>
      </trkpt>
      <trkpt lat="47.01332" lon="-1.72912">
        <ele>22.9</ele>
        <time>2021-05-15T03:14:49.220Z</time>
      </trkpt>
      <trkpt lat="47.01338" lon="-1.72897">
        <ele>22.7</ele>
        <time>2021-05-15T03:14:50.867Z</time>
      </trkpt>
      <trkpt lat="47.01345" lon="-1.72883">
        <ele>22.5</ele>
        <time>2021-05-15T03:14:54.580Z</time>
      </trkpt>
      <trkpt lat="47.01351" lon="-1.72868">
        <ele>22.4</ele>
        <time>2021-05-15T03:14:56.227Z</time>
      </trkpt>
      <trkpt lat="47.01357" lon="-1.72852">
        <ele>22.3</ele>
        <time>2021-05-15T03:14:57.956Z</time>
      </trkpt>
      <trkpt lat="47.01363" lon="-1.72838">
        <ele>22.4</ele>
        <time>2021-05-15T03:14:59.522Z</time>
      </trkpt>
      <trkpt lat="47.0137" lon="-1.72823">
        <ele>22.6</ele>
        <time>2021-05-15T03:15:01.243Z</time>
      </trkpt>
      <trkpt lat="47.01377" lon="-1.72808">
        <ele>23</ele>
        <time>2021-05-15T03:15:02.965Z</time>
      </trkpt>
      <trkpt lat="47.01384" lon="-1.72792">
        <ele>23.4</ele>
        <time>2021-05-15T03:15:04.765Z</time>
      </trkpt>
      <trkpt lat="47.0139" lon="-1.72777">
        <ele>23.8</ele>
        <time>2021-05-15T03:15:08.480Z</time>
      </trkpt>
      <trkpt lat="47.01396" lon="-1.72763">
        <ele>24.2</ele>
        <time>2021-05-15T03:15:10.046Z</time>
      </trkpt>
      <trkpt lat="47.01403" lon="-1.72748">
        <ele>24.7</ele>
        <time>2021-05-15T03:15:11.767Z</time>
      </trkpt>
      <trkpt lat="47.01409" lon="-1.72733">
        <ele>25</ele>
        <time>2021-05-15T03:15:13.414Z</time>
      </trkpt>
      <trkpt lat="47.01415" lon="-1.72719">
        <ele>25.3</ele>
        <time>2021-05-15T03:15:14.980Z</time>
      </trkpt>
      <trkpt lat="47.01421" lon="-1.72704">
        <ele>25.6</ele>
        <time>2021-05-15T03:15:16.626Z</time>
      </trkpt>
      <trkpt lat="47.01428" lon="-1.72689">
        <ele>26</ele>
        <time>2021-05-15T03:15:18.348Z</time>
      </trkpt>
      <trkpt lat="47.01435" lon="-1.72675">
        <ele>26.5</ele>
        <time>2021-05-15T03:15:19.991Z</time>
      </trkpt>
      <trkpt lat="47.01441" lon="-1.7266">
        <ele>26.7</ele>
        <time>2021-05-15T03:15:21.638Z</time>
      </trkpt>
      <trkpt lat="47.01448" lon="-1.72645">
        <ele>26.6</ele>
        <time>2021-05-15T03:15:22.597Z</time>
      </trkpt>
      <trkpt lat="47.01455" lon="-1.72631">
        <ele>26.4</ele>
        <time>2021-05-15T03:15:24.241Z</time>
      </trkpt>
      <trkpt lat="47.01461" lon="-1.72617">
        <ele>26</ele>
        <time>2021-05-15T03:15:27.909Z</time>
      </trkpt>
      <trkpt lat="47.01466" lon="-1.72604">
        <ele>25.7</ele>
        <time>2021-05-15T03:15:29.322Z</time>
      </trkpt>
      <trkpt lat="47.01472" lon="-1.7259">
        <ele>25.2</ele>
        <time>2021-05-15T03:15:30.888Z</time>
      </trkpt>
      <trkpt lat="47.01477" lon="-1.72576">
        <ele>25</ele>
        <time>2021-05-15T03:15:34.525Z</time>
      </trkpt>
      <trkpt lat="47.01483" lon="-1.72561">
        <ele>24.9</ele>
        <time>2021-05-15T03:15:36.172Z</time>
      </trkpt>
      <trkpt lat="47.01489" lon="-1.72545">
        <ele>24.7</ele>
        <time>2021-05-15T03:15:39.944Z</time>
      </trkpt>
      <trkpt lat="47.01497" lon="-1.72528">
        <ele>24.4</ele>
        <time>2021-05-15T03:15:41.900Z</time>
      </trkpt>
      <trkpt lat="47.01504" lon="-1.72513">
        <ele>24.2</ele>
        <time>2021-05-15T03:15:45.667Z</time>
      </trkpt>
      <trkpt lat="47.01511" lon="-1.72497">
        <ele>24.3</ele>
        <time>2021-05-15T03:15:47.468Z</time>
      </trkpt>
      <trkpt lat="47.01518" lon="-1.72482">
        <ele>24.6</ele>
        <time>2021-05-15T03:15:49.189Z</time>
      </trkpt>
      <trkpt lat="47.01524" lon="-1.72467">
        <ele>24.9</ele>
        <time>2021-05-15T03:15:50.835Z</time>
      </trkpt>
      <trkpt lat="47.01531" lon="-1.72452">
        <ele>25.1</ele>
        <time>2021-05-15T03:15:52.557Z</time>
      </trkpt>
      <trkpt lat="47.01537" lon="-1.72436">
        <ele>25.3</ele>
        <time>2021-05-15T03:15:54.286Z</time>
      </trkpt>
      <trkpt lat="47.01544" lon="-1.72422">
        <ele>25.5</ele>
        <time>2021-05-15T03:15:55.930Z</time>
      </trkpt>
      <trkpt lat="47.0155" lon="-1.72407">
        <ele>25.8</ele>
        <time>2021-05-15T03:15:57.576Z</time>
      </trkpt>
      <trkpt lat="47.01557" lon="-1.72393">
        <ele>26.1</ele>
        <time>2021-05-15T03:15:59.220Z</time>
      </trkpt>
      <trkpt lat="47.01563" lon="-1.72378">
        <ele>26.3</ele>
        <time>2021-05-15T03:16:02.936Z</time>
      </trkpt>
      <trkpt lat="47.01569" lon="-1.72364">
        <ele>26.6</ele>
        <time>2021-05-15T03:16:04.501Z</time>
      </trkpt>
      <trkpt lat="47.01576" lon="-1.72348">
        <ele>26.8</ele>
        <time>2021-05-15T03:16:08.330Z</time>
      </trkpt>
      <trkpt lat="47.01583" lon="-1.72332">
        <ele>27</ele>
        <time>2021-05-15T03:16:10.130Z</time>
      </trkpt>
      <trkpt lat="47.0159" lon="-1.72317">
        <ele>26.8</ele>
        <time>2021-05-15T03:16:11.089Z</time>
      </trkpt>
      <trkpt lat="47.01596" lon="-1.72303">
        <ele>26.7</ele>
        <time>2021-05-15T03:16:12.655Z</time>
      </trkpt>
      <trkpt lat="47.01602" lon="-1.72288">
        <ele>26.6</ele>
        <time>2021-05-15T03:16:14.302Z</time>
      </trkpt>
      <trkpt lat="47.01609" lon="-1.72272">
        <ele>26.5</ele>
        <time>2021-05-15T03:16:16.102Z</time>
      </trkpt>
      <trkpt lat="47.01616" lon="-1.72256">
        <ele>26.4</ele>
        <time>2021-05-15T03:16:19.930Z</time>
      </trkpt>
      <trkpt lat="47.01621" lon="-1.7224">
        <ele>26.6</ele>
        <time>2021-05-15T03:16:21.597Z</time>
      </trkpt>
      <trkpt lat="47.01626" lon="-1.72224">
        <ele>27</ele>
        <time>2021-05-15T03:16:23.264Z</time>
      </trkpt>
      <trkpt lat="47.01631" lon="-1.72209">
        <ele>27.3</ele>
        <time>2021-05-15T03:16:26.939Z</time>
      </trkpt>
      <trkpt lat="47.01636" lon="-1.72193">
        <ele>27.7</ele>
        <time>2021-05-15T03:16:28.606Z</time>
      </trkpt>
      <trkpt lat="47.01641" lon="-1.72177">
        <ele>28.2</ele>
        <time>2021-05-15T03:16:30.273Z</time>
      </trkpt>
      <trkpt lat="47.01646" lon="-1.72161">
        <ele>28.6</ele>
        <time>2021-05-15T03:16:31.939Z</time>
      </trkpt>
      <trkpt lat="47.01652" lon="-1.72145">
        <ele>29</ele>
        <time>2021-05-15T03:16:32.902Z</time>
      </trkpt>
      <trkpt lat="47.01658" lon="-1.72128">
        <ele>29.4</ele>
        <time>2021-05-15T03:16:36.741Z</time>
      </trkpt>
      <trkpt lat="47.01665" lon="-1.72111">
        <ele>29.7</ele>
        <time>2021-05-15T03:16:38.622Z</time>
      </trkpt>
      <trkpt lat="47.0167" lon="-1.72095">
        <ele>29.9</ele>
        <time>2021-05-15T03:16:40.288Z</time>
      </trkpt>
      <trkpt lat="47.01676" lon="-1.72079">
        <ele>30.1</ele>
        <time>2021-05-15T03:16:42.017Z</time>
      </trkpt>
      <trkpt lat="47.01682" lon="-1.72063">
        <ele>30</ele>
        <time>2021-05-15T03:16:42.981Z</time>
      </trkpt>
      <trkpt lat="47.01688" lon="-1.72048">
        <ele>29.9</ele>
        <time>2021-05-15T03:16:46.696Z</time>
      </trkpt>
      <trkpt lat="47.01692" lon="-1.72032">
        <ele>29.9</ele>
        <time>2021-05-15T03:16:48.310Z</time>
      </trkpt>
      <trkpt lat="47.01697" lon="-1.72017">
        <ele>29.9</ele>
        <time>2021-05-15T03:16:49.891Z</time>
      </trkpt>
      <trkpt lat="47.01701" lon="-1.72002">
        <ele>29.8</ele>
        <time>2021-05-15T03:16:53.539Z</time>
      </trkpt>
      <trkpt lat="47.01706" lon="-1.71987">
        <ele>30.1</ele>
        <time>2021-05-15T03:16:55.120Z</time>
      </trkpt>
      <trkpt lat="47.01711" lon="-1.71972">
        <ele>30.4</ele>
        <time>2021-05-15T03:16:56.701Z</time>
      </trkpt>
      <trkpt lat="47.01716" lon="-1.71957">
        <ele>30.6</ele>
        <time>2021-05-15T03:16:58.282Z</time>
      </trkpt>
      <trkpt lat="47.01721" lon="-1.71941">
        <ele>30.8</ele>
        <time>2021-05-15T03:16:59.210Z</time>
      </trkpt>
      <trkpt lat="47.01726" lon="-1.71925">
        <ele>30.9</ele>
        <time>2021-05-15T03:17:02.939Z</time>
      </trkpt>
      <trkpt lat="47.01732" lon="-1.71907">
        <ele>31.3</ele>
        <time>2021-05-15T03:17:06.851Z</time>
      </trkpt>
      <trkpt lat="47.01738" lon="-1.71891">
        <ele>31.7</ele>
        <time>2021-05-15T03:17:08.580Z</time>
      </trkpt>
      <trkpt lat="47.01743" lon="-1.71876">
        <ele>32</ele>
        <time>2021-05-15T03:17:12.256Z</time>
      </trkpt>
      <trkpt lat="47.01749" lon="-1.7186">
        <ele>32.4</ele>
        <time>2021-05-15T03:17:13.985Z</time>
      </trkpt>
      <trkpt lat="47.01754" lon="-1.71844">
        <ele>32.6</ele>
        <time>2021-05-15T03:17:17.713Z</time>
      </trkpt>
      <trkpt lat="47.01759" lon="-1.71828">
        <ele>32.7</ele>
        <time>2021-05-15T03:17:19.380Z</time>
      </trkpt>
      <trkpt lat="47.01765" lon="-1.71813">
        <ele>32.5</ele>
        <time>2021-05-15T03:17:21.026Z</time>
      </trkpt>
      <trkpt lat="47.0177" lon="-1.71797">
        <ele>32.4</ele>
        <time>2021-05-15T03:17:22.693Z</time>
      </trkpt>
      <trkpt lat="47.01776" lon="-1.71781">
        <ele>32.3</ele>
        <time>2021-05-15T03:17:24.422Z</time>
      </trkpt>
      <trkpt lat="47.01781" lon="-1.71765">
        <ele>32.2</ele>
        <time>2021-05-15T03:17:26.088Z</time>
      </trkpt>
      <trkpt lat="47.01785" lon="-1.71751">
        <ele>32.2</ele>
        <time>2021-05-15T03:17:29.707Z</time>
      </trkpt>
      <trkpt lat="47.01789" lon="-1.71737">
        <ele>32.3</ele>
        <time>2021-05-15T03:17:31.144Z</time>
      </trkpt>
      <trkpt lat="47.01794" lon="-1.71721">
        <ele>32.5</ele>
        <time>2021-05-15T03:17:32.811Z</time>
      </trkpt>
      <trkpt lat="47.01799" lon="-1.71706">
        <ele>32.6</ele>
        <time>2021-05-15T03:17:34.392Z</time>
      </trkpt>
      <trkpt lat="47.01804" lon="-1.7169">
        <ele>32.7</ele>
        <time>2021-05-15T03:17:36.058Z</time>
      </trkpt>
      <trkpt lat="47.01808" lon="-1.71675">
        <ele>32.8</ele>
        <time>2021-05-15T03:17:39.707Z</time>
      </trkpt>
      <trkpt lat="47.01814" lon="-1.71657">
        <ele>32.9</ele>
        <time>2021-05-15T03:17:41.604Z</time>
      </trkpt>
      <trkpt lat="47.01822" lon="-1.7164">
        <ele>33</ele>
        <time>2021-05-15T03:17:43.560Z</time>
      </trkpt>
      <trkpt lat="47.0183" lon="-1.71623">
        <ele>33.1</ele>
        <time>2021-05-15T03:17:44.649Z</time>
      </trkpt>
      <trkpt lat="47.01838" lon="-1.71607">
        <ele>33.2</ele>
        <time>2021-05-15T03:17:46.528Z</time>
      </trkpt>
      <trkpt lat="47.01845" lon="-1.71593">
        <ele>33.2</ele>
        <time>2021-05-15T03:17:47.444Z</time>
      </trkpt>
      <trkpt lat="47.01853" lon="-1.71578">
        <ele>33</ele>
        <time>2021-05-15T03:17:49.247Z</time>
      </trkpt>
      <trkpt lat="47.01862" lon="-1.71565">
        <ele>32.3</ele>
        <time>2021-05-15T03:17:50.224Z</time>
      </trkpt>
      <trkpt lat="47.01871" lon="-1.71551">
        <ele>31.8</ele>
        <time>2021-05-15T03:17:54.071Z</time>
      </trkpt>
      <trkpt lat="47.01879" lon="-1.71537">
        <ele>31.3</ele>
        <time>2021-05-15T03:17:55.035Z</time>
      </trkpt>
      <trkpt lat="47.01888" lon="-1.71523">
        <ele>30.9</ele>
        <time>2021-05-15T03:17:56.050Z</time>
      </trkpt>
      <trkpt lat="47.01897" lon="-1.7151">
        <ele>30.5</ele>
        <time>2021-05-15T03:17:57.804Z</time>
      </trkpt>
      <trkpt lat="47.01906" lon="-1.71496">
        <ele>30.1</ele>
        <time>2021-05-15T03:17:58.819Z</time>
      </trkpt>
      <trkpt lat="47.01915" lon="-1.71482">
        <ele>29.6</ele>
        <time>2021-05-15T03:18:00.641Z</time>
      </trkpt>
      <trkpt lat="47.01924" lon="-1.71468">
        <ele>29.3</ele>
        <time>2021-05-15T03:18:02.463Z</time>
      </trkpt>
      <trkpt lat="47.01933" lon="-1.71454">
        <ele>29</ele>
        <time>2021-05-15T03:18:03.478Z</time>
      </trkpt>
      <trkpt lat="47.01942" lon="-1.71441">
        <ele>28.8</ele>
        <time>2021-05-15T03:18:05.232Z</time>
      </trkpt>
      <trkpt lat="47.01951" lon="-1.71427">
        <ele>28.6</ele>
        <time>2021-05-15T03:18:07.054Z</time>
      </trkpt>
      <trkpt lat="47.0196" lon="-1.71413">
        <ele>28.5</ele>
        <time>2021-05-15T03:18:08.876Z</time>
      </trkpt>
      <trkpt lat="47.01969" lon="-1.714">
        <ele>28.8</ele>
        <time>2021-05-15T03:18:10.630Z</time>
      </trkpt>
      <trkpt lat="47.01978" lon="-1.71386">
        <ele>29</ele>
        <time>2021-05-15T03:18:12.452Z</time>
      </trkpt>
      <trkpt lat="47.01987" lon="-1.71374">
        <ele>29.3</ele>
        <time>2021-05-15T03:18:14.142Z</time>
      </trkpt>
      <trkpt lat="47.01996" lon="-1.71363">
        <ele>29.6</ele>
        <time>2021-05-15T03:18:15.048Z</time>
      </trkpt>
      <trkpt lat="47.02006" lon="-1.71352">
        <ele>29.8</ele>
        <time>2021-05-15T03:18:16.784Z</time>
      </trkpt>
      <trkpt lat="47.02016" lon="-1.71341">
        <ele>29.9</ele>
        <time>2021-05-15T03:18:18.520Z</time>
      </trkpt>
      <trkpt lat="47.02026" lon="-1.7133">
        <ele>30</ele>
        <time>2021-05-15T03:18:20.256Z</time>
      </trkpt>
      <trkpt lat="47.02036" lon="-1.71319">
        <ele>30.1</ele>
        <time>2021-05-15T03:18:21.992Z</time>
      </trkpt>
      <trkpt lat="47.02046" lon="-1.71305">
        <ele>30.2</ele>
        <time>2021-05-15T03:18:25.924Z</time>
      </trkpt>
      <trkpt lat="47.02053" lon="-1.71292">
        <ele>30.3</ele>
        <time>2021-05-15T03:18:27.493Z</time>
      </trkpt>
      <trkpt lat="47.0206" lon="-1.71276">
        <ele>30.5</ele>
        <time>2021-05-15T03:18:29.293Z</time>
      </trkpt>
      <trkpt lat="47.02068" lon="-1.71259">
        <ele>30.7</ele>
        <time>2021-05-15T03:18:30.382Z</time>
      </trkpt>
      <trkpt lat="47.02075" lon="-1.71244">
        <ele>30.8</ele>
        <time>2021-05-15T03:18:32.103Z</time>
      </trkpt>
      <trkpt lat="47.02083" lon="-1.71229">
        <ele>30.7</ele>
        <time>2021-05-15T03:18:35.935Z</time>
      </trkpt>
      <trkpt lat="47.0209" lon="-1.71213">
        <ele>30.6</ele>
        <time>2021-05-15T03:18:36.938Z</time>
      </trkpt>
      <trkpt lat="47.02098" lon="-1.71196">
        <ele>30.6</ele>
        <time>2021-05-15T03:18:38.893Z</time>
      </trkpt>
      <trkpt lat="47.02105" lon="-1.7118">
        <ele>30.6</ele>
        <time>2021-05-15T03:18:40.693Z</time>
      </trkpt>
      <trkpt lat="47.0211" lon="-1.71163">
        <ele>30.6</ele>
        <time>2021-05-15T03:18:42.446Z</time>
      </trkpt>
      <trkpt lat="47.02116" lon="-1.71146">
        <ele>30.3</ele>
        <time>2021-05-15T03:18:44.259Z</time>
      </trkpt>
      <trkpt lat="47.02121" lon="-1.71129">
        <ele>30</ele>
        <time>2021-05-15T03:18:48.050Z</time>
      </trkpt>
      <trkpt lat="47.02126" lon="-1.71113">
        <ele>29.7</ele>
        <time>2021-05-15T03:18:49.716Z</time>
      </trkpt>
      <trkpt lat="47.02133" lon="-1.71097">
        <ele>29.5</ele>
        <time>2021-05-15T03:18:51.516Z</time>
      </trkpt>
      <trkpt lat="47.0214" lon="-1.71082">
        <ele>29.3</ele>
        <time>2021-05-15T03:18:53.237Z</time>
      </trkpt>
      <trkpt lat="47.02148" lon="-1.71066">
        <ele>29.3</ele>
        <time>2021-05-15T03:18:55.116Z</time>
      </trkpt>
      <trkpt lat="47.02156" lon="-1.7105">
        <ele>29.3</ele>
        <time>2021-05-15T03:18:56.995Z</time>
      </trkpt>
      <trkpt lat="47.02163" lon="-1.71036">
        <ele>29.3</ele>
        <time>2021-05-15T03:18:57.910Z</time>
      </trkpt>
      <trkpt lat="47.02171" lon="-1.71021">
        <ele>29.3</ele>
        <time>2021-05-15T03:18:59.713Z</time>
      </trkpt>
      <trkpt lat="47.02178" lon="-1.71006">
        <ele>29.1</ele>
        <time>2021-05-15T03:19:00.672Z</time>
      </trkpt>
      <trkpt lat="47.02186" lon="-1.70991">
        <ele>28.8</ele>
        <time>2021-05-15T03:19:02.475Z</time>
      </trkpt>
      <trkpt lat="47.02194" lon="-1.70977">
        <ele>28.4</ele>
        <time>2021-05-15T03:19:04.205Z</time>
      </trkpt>
      <trkpt lat="47.02202" lon="-1.70964">
        <ele>28.1</ele>
        <time>2021-05-15T03:19:05.863Z</time>
      </trkpt>
      <trkpt lat="47.02209" lon="-1.70949">
        <ele>27.8</ele>
        <time>2021-05-15T03:19:09.630Z</time>
      </trkpt>
      <trkpt lat="47.02216" lon="-1.70936">
        <ele>27.5</ele>
        <time>2021-05-15T03:19:11.199Z</time>
      </trkpt>
      <trkpt lat="47.02224" lon="-1.70922">
        <ele>27.1</ele>
        <time>2021-05-15T03:19:12.162Z</time>
      </trkpt>
      <trkpt lat="47.02234" lon="-1.70908">
        <ele>27.1</ele>
        <time>2021-05-15T03:19:14.082Z</time>
      </trkpt>
      <trkpt lat="47.02242" lon="-1.70894">
        <ele>27.2</ele>
        <time>2021-05-15T03:19:15.811Z</time>
      </trkpt>
      <trkpt lat="47.02251" lon="-1.70881">
        <ele>27.4</ele>
        <time>2021-05-15T03:19:19.604Z</time>
      </trkpt>
      <trkpt lat="47.02259" lon="-1.70867">
        <ele>27.6</ele>
        <time>2021-05-15T03:19:21.333Z</time>
      </trkpt>
      <trkpt lat="47.02268" lon="-1.70853">
        <ele>27.8</ele>
        <time>2021-05-15T03:19:23.155Z</time>
      </trkpt>
      <trkpt lat="47.02278" lon="-1.70839">
        <ele>28</ele>
        <time>2021-05-15T03:19:25.075Z</time>
      </trkpt>
      <trkpt lat="47.02288" lon="-1.70823">
        <ele>27.9</ele>
        <time>2021-05-15T03:19:27.130Z</time>
      </trkpt>
      <trkpt lat="47.02298" lon="-1.70809">
        <ele>27.7</ele>
        <time>2021-05-15T03:19:28.199Z</time>
      </trkpt>
      <trkpt lat="47.02307" lon="-1.70795">
        <ele>27.5</ele>
        <time>2021-05-15T03:19:30.021Z</time>
      </trkpt>
      <trkpt lat="47.02316" lon="-1.70782">
        <ele>27.4</ele>
        <time>2021-05-15T03:19:30.999Z</time>
      </trkpt>
      <trkpt lat="47.02325" lon="-1.70768">
        <ele>27.2</ele>
        <time>2021-05-15T03:19:32.821Z</time>
      </trkpt>
      <trkpt lat="47.02334" lon="-1.70755">
        <ele>27.1</ele>
        <time>2021-05-15T03:19:34.575Z</time>
      </trkpt>
      <trkpt lat="47.02343" lon="-1.70742">
        <ele>27.1</ele>
        <time>2021-05-15T03:19:36.329Z</time>
      </trkpt>
      <trkpt lat="47.02351" lon="-1.70728">
        <ele>27.2</ele>
        <time>2021-05-15T03:19:37.292Z</time>
      </trkpt>
      <trkpt lat="47.0236" lon="-1.70715">
        <ele>27.2</ele>
        <time>2021-05-15T03:19:39.047Z</time>
      </trkpt>
      <trkpt lat="47.02369" lon="-1.70702">
        <ele>27.2</ele>
        <time>2021-05-15T03:19:40.801Z</time>
      </trkpt>
      <trkpt lat="47.02378" lon="-1.70689">
        <ele>27.1</ele>
        <time>2021-05-15T03:19:42.555Z</time>
      </trkpt>
      <trkpt lat="47.02387" lon="-1.70676">
        <ele>27.1</ele>
        <time>2021-05-15T03:19:44.309Z</time>
      </trkpt>
      <trkpt lat="47.02396" lon="-1.70662">
        <ele>27</ele>
        <time>2021-05-15T03:19:46.131Z</time>
      </trkpt>
      <trkpt lat="47.02405" lon="-1.70648">
        <ele>27</ele>
        <time>2021-05-15T03:19:47.953Z</time>
      </trkpt>
      <trkpt lat="47.02414" lon="-1.70634">
        <ele>27</ele>
        <time>2021-05-15T03:19:51.800Z</time>
      </trkpt>
      <trkpt lat="47.02422" lon="-1.70621">
        <ele>27.1</ele>
        <time>2021-05-15T03:19:53.458Z</time>
      </trkpt>
      <trkpt lat="47.02429" lon="-1.70607">
        <ele>27.4</ele>
        <time>2021-05-15T03:19:57.171Z</time>
      </trkpt>
      <trkpt lat="47.02437" lon="-1.70594">
        <ele>27.7</ele>
        <time>2021-05-15T03:19:58.829Z</time>
      </trkpt>
      <trkpt lat="47.02446" lon="-1.70582">
        <ele>28</ele>
        <time>2021-05-15T03:20:00.518Z</time>
      </trkpt>
      <trkpt lat="47.02455" lon="-1.70569">
        <ele>28.2</ele>
        <time>2021-05-15T03:20:02.272Z</time>
      </trkpt>
      <trkpt lat="47.02465" lon="-1.70556">
        <ele>28.4</ele>
        <time>2021-05-15T03:20:04.128Z</time>
      </trkpt>
      <trkpt lat="47.02476" lon="-1.70545">
        <ele>28.7</ele>
        <time>2021-05-15T03:20:05.977Z</time>
      </trkpt>
      <trkpt lat="47.02487" lon="-1.70534">
        <ele>28.9</ele>
        <time>2021-05-15T03:20:07.007Z</time>
      </trkpt>
      <trkpt lat="47.02498" lon="-1.70524">
        <ele>29.2</ele>
        <time>2021-05-15T03:20:10.833Z</time>
      </trkpt>
      <trkpt lat="47.02509" lon="-1.70515">
        <ele>29.1</ele>
        <time>2021-05-15T03:20:11.808Z</time>
      </trkpt>
      <trkpt lat="47.0252" lon="-1.70505">
        <ele>28.8</ele>
        <time>2021-05-15T03:20:13.605Z</time>
      </trkpt>
      <trkpt lat="47.02532" lon="-1.70494">
        <ele>28.6</ele>
        <time>2021-05-15T03:20:15.570Z</time>
      </trkpt>
      <trkpt lat="47.02542" lon="-1.70485">
        <ele>28.4</ele>
        <time>2021-05-15T03:20:17.200Z</time>
      </trkpt>
      <trkpt lat="47.02553" lon="-1.70474">
        <ele>28.3</ele>
        <time>2021-05-15T03:20:19.048Z</time>
      </trkpt>
      <trkpt lat="47.02564" lon="-1.70465">
        <ele>28.1</ele>
        <time>2021-05-15T03:20:22.837Z</time>
      </trkpt>
      <trkpt lat="47.02574" lon="-1.70455">
        <ele>28.1</ele>
        <time>2021-05-15T03:20:24.518Z</time>
      </trkpt>
      <trkpt lat="47.02584" lon="-1.70445">
        <ele>28</ele>
        <time>2021-05-15T03:20:26.198Z</time>
      </trkpt>
      <trkpt lat="47.02595" lon="-1.70437">
        <ele>28</ele>
        <time>2021-05-15T03:20:27.903Z</time>
      </trkpt>
      <trkpt lat="47.02605" lon="-1.70427">
        <ele>28</ele>
        <time>2021-05-15T03:20:29.584Z</time>
      </trkpt>
      <trkpt lat="47.02615" lon="-1.70417">
        <ele>28</ele>
        <time>2021-05-15T03:20:31.265Z</time>
      </trkpt>
      <trkpt lat="47.02625" lon="-1.70407">
        <ele>28.1</ele>
        <time>2021-05-15T03:20:32.946Z</time>
      </trkpt>
      <trkpt lat="47.02635" lon="-1.70396">
        <ele>28.2</ele>
        <time>2021-05-15T03:20:34.682Z</time>
      </trkpt>
      <trkpt lat="47.02644" lon="-1.70385">
        <ele>28.4</ele>
        <time>2021-05-15T03:20:36.309Z</time>
      </trkpt>
      <trkpt lat="47.02652" lon="-1.70374">
        <ele>28.5</ele>
        <time>2021-05-15T03:20:39.956Z</time>
      </trkpt>
      <trkpt lat="47.0266" lon="-1.70362">
        <ele>28.7</ele>
        <time>2021-05-15T03:20:41.545Z</time>
      </trkpt>
      <trkpt lat="47.02668" lon="-1.7035">
        <ele>28.9</ele>
        <time>2021-05-15T03:20:43.134Z</time>
      </trkpt>
      <trkpt lat="47.02667" lon="-1.70336">
        <ele>29</ele>
        <time>2021-05-15T03:20:43.876Z</time>
      </trkpt>
      <trkpt lat="47.02657" lon="-1.70326">
        <ele>28.9</ele>
        <time>2021-05-15T03:20:45.557Z</time>
      </trkpt>
      <trkpt lat="47.02645" lon="-1.70319">
        <ele>28.8</ele>
        <time>2021-05-15T03:20:47.351Z</time>
      </trkpt>
      <trkpt lat="47.02634" lon="-1.70312">
        <ele>28.7</ele>
        <time>2021-05-15T03:20:49.016Z</time>
      </trkpt>
      <trkpt lat="47.02622" lon="-1.70305">
        <ele>28.7</ele>
        <time>2021-05-15T03:20:52.839Z</time>
      </trkpt>
      <trkpt lat="47.0261" lon="-1.70298">
        <ele>28.6</ele>
        <time>2021-05-15T03:20:54.633Z</time>
      </trkpt>
      <trkpt lat="47.02597" lon="-1.70292">
        <ele>28.5</ele>
        <time>2021-05-15T03:20:56.525Z</time>
      </trkpt>
      <trkpt lat="47.02584" lon="-1.70287">
        <ele>28.4</ele>
        <time>2021-05-15T03:20:58.392Z</time>
      </trkpt>
      <trkpt lat="47.02572" lon="-1.70282">
        <ele>28.5</ele>
        <time>2021-05-15T03:21:00.124Z</time>
      </trkpt>
      <trkpt lat="47.02559" lon="-1.7028">
        <ele>28.5</ele>
        <time>2021-05-15T03:21:01.940Z</time>
      </trkpt>
      <trkpt lat="47.02546" lon="-1.70278">
        <ele>28.6</ele>
        <time>2021-05-15T03:21:03.755Z</time>
      </trkpt>
      <trkpt lat="47.02533" lon="-1.70274">
        <ele>28.7</ele>
        <time>2021-05-15T03:21:05.600Z</time>
      </trkpt>
      <trkpt lat="47.0252" lon="-1.70266">
        <ele>28.8</ele>
        <time>2021-05-15T03:21:06.691Z</time>
      </trkpt>
      <trkpt lat="47.02509" lon="-1.70253">
        <ele>28.9</ele>
        <time>2021-05-15T03:21:08.652Z</time>
      </trkpt>
      <trkpt lat="47.025" lon="-1.70238">
        <ele>28.9</ele>
        <time>2021-05-15T03:21:10.544Z</time>
      </trkpt>
      <trkpt lat="47.02491" lon="-1.70222">
        <ele>28.5</ele>
        <time>2021-05-15T03:21:12.508Z</time>
      </trkpt>
      <trkpt lat="47.02482" lon="-1.70206">
        <ele>28.1</ele>
        <time>2021-05-15T03:21:14.472Z</time>
      </trkpt>
      <trkpt lat="47.02475" lon="-1.70189">
        <ele>27.7</ele>
        <time>2021-05-15T03:21:16.352Z</time>
      </trkpt>
      <trkpt lat="47.02467" lon="-1.70173">
        <ele>27.3</ele>
        <time>2021-05-15T03:21:18.231Z</time>
      </trkpt>
      <trkpt lat="47.0246" lon="-1.70157">
        <ele>27</ele>
        <time>2021-05-15T03:21:20.031Z</time>
      </trkpt>
      <trkpt lat="47.02453" lon="-1.70142">
        <ele>26.9</ele>
        <time>2021-05-15T03:21:20.989Z</time>
      </trkpt>
      <trkpt lat="47.02446" lon="-1.70126">
        <ele>26.8</ele>
        <time>2021-05-15T03:21:24.818Z</time>
      </trkpt>
      <trkpt lat="47.02441" lon="-1.70109">
        <ele>26.9</ele>
        <time>2021-05-15T03:21:25.795Z</time>
      </trkpt>
      <trkpt lat="47.02437" lon="-1.70091">
        <ele>27</ele>
        <time>2021-05-15T03:21:29.617Z</time>
      </trkpt>
      <trkpt lat="47.02435" lon="-1.70072">
        <ele>27</ele>
        <time>2021-05-15T03:21:30.631Z</time>
      </trkpt>
      <trkpt lat="47.02434" lon="-1.70053">
        <ele>27.1</ele>
        <time>2021-05-15T03:21:32.435Z</time>
      </trkpt>
      <trkpt lat="47.02432" lon="-1.70034">
        <ele>27.1</ele>
        <time>2021-05-15T03:21:36.280Z</time>
      </trkpt>
      <trkpt lat="47.0243" lon="-1.70016">
        <ele>27.1</ele>
        <time>2021-05-15T03:21:38.007Z</time>
      </trkpt>
      <trkpt lat="47.02428" lon="-1.69998">
        <ele>27.2</ele>
        <time>2021-05-15T03:21:39.734Z</time>
      </trkpt>
      <trkpt lat="47.02425" lon="-1.69979">
        <ele>27.4</ele>
        <time>2021-05-15T03:21:43.601Z</time>
      </trkpt>
      <trkpt lat="47.02423" lon="-1.69961">
        <ele>27.5</ele>
        <time>2021-05-15T03:21:45.328Z</time>
      </trkpt>
      <trkpt lat="47.02422" lon="-1.69943">
        <ele>27.7</ele>
        <time>2021-05-15T03:21:47.038Z</time>
      </trkpt>
      <trkpt lat="47.0242" lon="-1.69924">
        <ele>28</ele>
        <time>2021-05-15T03:21:50.883Z</time>
      </trkpt>
      <trkpt lat="47.02418" lon="-1.69905">
        <ele>28.3</ele>
        <time>2021-05-15T03:21:52.703Z</time>
      </trkpt>
      <trkpt lat="47.02415" lon="-1.69887">
        <ele>28.7</ele>
        <time>2021-05-15T03:21:54.457Z</time>
      </trkpt>
      <trkpt lat="47.02412" lon="-1.69869">
        <ele>29.2</ele>
        <time>2021-05-15T03:21:58.249Z</time>
      </trkpt>
      <trkpt lat="47.02407" lon="-1.69852">
        <ele>29.5</ele>
        <time>2021-05-15T03:22:00.002Z</time>
      </trkpt>
      <trkpt lat="47.02401" lon="-1.69835">
        <ele>29.8</ele>
        <time>2021-05-15T03:22:01.815Z</time>
      </trkpt>
      <trkpt lat="47.02394" lon="-1.69819">
        <ele>29.7</ele>
        <time>2021-05-15T03:22:02.818Z</time>
      </trkpt>
      <trkpt lat="47.02386" lon="-1.69805">
        <ele>29.6</ele>
        <time>2021-05-15T03:22:04.547Z</time>
      </trkpt>
      <trkpt lat="47.02379" lon="-1.69792">
        <ele>29.5</ele>
        <time>2021-05-15T03:22:06.115Z</time>
      </trkpt>
      <trkpt lat="47.0237" lon="-1.69778">
        <ele>29.4</ele>
        <time>2021-05-15T03:22:07.937Z</time>
      </trkpt>
      <trkpt lat="47.02363" lon="-1.69765">
        <ele>29.4</ele>
        <time>2021-05-15T03:22:09.506Z</time>
      </trkpt>
      <trkpt lat="47.02355" lon="-1.69751">
        <ele>29.3</ele>
        <time>2021-05-15T03:22:13.279Z</time>
      </trkpt>
      <trkpt lat="47.02348" lon="-1.69737">
        <ele>29.1</ele>
        <time>2021-05-15T03:22:14.923Z</time>
      </trkpt>
      <trkpt lat="47.0234" lon="-1.69725">
        <ele>29.1</ele>
        <time>2021-05-15T03:22:16.512Z</time>
      </trkpt>
      <trkpt lat="47.02332" lon="-1.69711">
        <ele>29</ele>
        <time>2021-05-15T03:22:18.241Z</time>
      </trkpt>
      <trkpt lat="47.02325" lon="-1.69698">
        <ele>29.2</ele>
        <time>2021-05-15T03:22:21.911Z</time>
      </trkpt>
      <trkpt lat="47.02317" lon="-1.69684">
        <ele>29.4</ele>
        <time>2021-05-15T03:22:25.684Z</time>
      </trkpt>
      <trkpt lat="47.02309" lon="-1.69671">
        <ele>29.6</ele>
        <time>2021-05-15T03:22:27.342Z</time>
      </trkpt>
      <trkpt lat="47.02302" lon="-1.69657">
        <ele>29.9</ele>
        <time>2021-05-15T03:22:28.986Z</time>
      </trkpt>
      <trkpt lat="47.02294" lon="-1.69643">
        <ele>30.2</ele>
        <time>2021-05-15T03:22:30.715Z</time>
      </trkpt>
      <trkpt lat="47.02286" lon="-1.69631">
        <ele>30.5</ele>
        <time>2021-05-15T03:22:31.601Z</time>
      </trkpt>
      <trkpt lat="47.02279" lon="-1.69617">
        <ele>30.7</ele>
        <time>2021-05-15T03:22:33.244Z</time>
      </trkpt>
      <trkpt lat="47.02271" lon="-1.69603">
        <ele>30.9</ele>
        <time>2021-05-15T03:22:34.974Z</time>
      </trkpt>
      <trkpt lat="47.02265" lon="-1.69588">
        <ele>31</ele>
        <time>2021-05-15T03:22:36.620Z</time>
      </trkpt>
      <trkpt lat="47.02258" lon="-1.69573">
        <ele>31</ele>
        <time>2021-05-15T03:22:38.341Z</time>
      </trkpt>
      <trkpt lat="47.02253" lon="-1.69558">
        <ele>31</ele>
        <time>2021-05-15T03:22:39.922Z</time>
      </trkpt>
      <trkpt lat="47.02248" lon="-1.69542">
        <ele>31</ele>
        <time>2021-05-15T03:22:43.650Z</time>
      </trkpt>
      <trkpt lat="47.02243" lon="-1.69525">
        <ele>31.1</ele>
        <time>2021-05-15T03:22:45.403Z</time>
      </trkpt>
      <trkpt lat="47.02238" lon="-1.69508">
        <ele>31</ele>
        <time>2021-05-15T03:22:49.194Z</time>
      </trkpt>
      <trkpt lat="47.02234" lon="-1.69492">
        <ele>30.9</ele>
        <time>2021-05-15T03:22:50.808Z</time>
      </trkpt>
      <trkpt lat="47.0223" lon="-1.69474">
        <ele>30.6</ele>
        <time>2021-05-15T03:22:54.630Z</time>
      </trkpt>
      <trkpt lat="47.02227" lon="-1.69456">
        <ele>30.3</ele>
        <time>2021-05-15T03:22:56.385Z</time>
      </trkpt>
      <trkpt lat="47.02224" lon="-1.6944">
        <ele>30.1</ele>
        <time>2021-05-15T03:22:57.956Z</time>
      </trkpt>
      <trkpt lat="47.02221" lon="-1.69423">
        <ele>29.8</ele>
        <time>2021-05-15T03:22:58.882Z</time>
      </trkpt>
      <trkpt lat="47.02218" lon="-1.69405">
        <ele>29.7</ele>
        <time>2021-05-15T03:23:00.637Z</time>
      </trkpt>
      <trkpt lat="47.02216" lon="-1.69387">
        <ele>29.8</ele>
        <time>2021-05-15T03:23:01.599Z</time>
      </trkpt>
      <trkpt lat="47.02215" lon="-1.69369">
        <ele>29.9</ele>
        <time>2021-05-15T03:23:03.308Z</time>
      </trkpt>
      <trkpt lat="47.02215" lon="-1.69351">
        <ele>30</ele>
        <time>2021-05-15T03:23:05.013Z</time>
      </trkpt>
      <trkpt lat="47.02216" lon="-1.69334">
        <ele>30.2</ele>
        <time>2021-05-15T03:23:06.628Z</time>
      </trkpt>
      <trkpt lat="47.02219" lon="-1.69316">
        <ele>30.5</ele>
        <time>2021-05-15T03:23:08.382Z</time>
      </trkpt>
      <trkpt lat="47.02222" lon="-1.69298">
        <ele>30.9</ele>
        <time>2021-05-15T03:23:10.137Z</time>
      </trkpt>
      <trkpt lat="47.02225" lon="-1.69281">
        <ele>31.2</ele>
        <time>2021-05-15T03:23:11.799Z</time>
      </trkpt>
      <trkpt lat="47.02227" lon="-1.69264">
        <ele>31.5</ele>
        <time>2021-05-15T03:23:13.433Z</time>
      </trkpt>
      <trkpt lat="47.02229" lon="-1.69246">
        <ele>31.7</ele>
        <time>2021-05-15T03:23:15.159Z</time>
      </trkpt>
      <trkpt lat="47.02227" lon="-1.69228">
        <ele>31.7</ele>
        <time>2021-05-15T03:23:16.121Z</time>
      </trkpt>
      <trkpt lat="47.02226" lon="-1.6921">
        <ele>31.7</ele>
        <time>2021-05-15T03:23:19.880Z</time>
      </trkpt>
      <trkpt lat="47.02222" lon="-1.69193">
        <ele>31.7</ele>
        <time>2021-05-15T03:23:21.583Z</time>
      </trkpt>
      <trkpt lat="47.02219" lon="-1.69176">
        <ele>31.6</ele>
        <time>2021-05-15T03:23:23.245Z</time>
      </trkpt>
      <trkpt lat="47.02215" lon="-1.6916">
        <ele>31.6</ele>
        <time>2021-05-15T03:23:24.859Z</time>
      </trkpt>
      <trkpt lat="47.02211" lon="-1.69143">
        <ele>31.5</ele>
        <time>2021-05-15T03:23:26.562Z</time>
      </trkpt>
      <trkpt lat="47.02208" lon="-1.69126">
        <ele>31.5</ele>
        <time>2021-05-15T03:23:30.287Z</time>
      </trkpt>
      <trkpt lat="47.02203" lon="-1.6911">
        <ele>31.5</ele>
        <time>2021-05-15T03:23:31.954Z</time>
      </trkpt>
      <trkpt lat="47.02198" lon="-1.69095">
        <ele>31.6</ele>
        <time>2021-05-15T03:23:33.534Z</time>
      </trkpt>
      <trkpt lat="47.02193" lon="-1.69078">
        <ele>31.7</ele>
        <time>2021-05-15T03:23:35.287Z</time>
      </trkpt>
      <trkpt lat="47.02189" lon="-1.69061">
        <ele>31.8</ele>
        <time>2021-05-15T03:23:36.990Z</time>
      </trkpt>
      <trkpt lat="47.02188" lon="-1.69044">
        <ele>31.9</ele>
        <time>2021-05-15T03:23:38.606Z</time>
      </trkpt>
      <trkpt lat="47.02187" lon="-1.69027">
        <ele>31.9</ele>
        <time>2021-05-15T03:23:40.221Z</time>
      </trkpt>
      <trkpt lat="47.02188" lon="-1.69009">
        <ele>32</ele>
        <time>2021-05-15T03:23:41.931Z</time>
      </trkpt>
      <trkpt lat="47.02188" lon="-1.68992">
        <ele>32</ele>
        <time>2021-05-15T03:23:45.623Z</time>
      </trkpt>
      <trkpt lat="47.02188" lon="-1.68974">
        <ele>32.1</ele>
        <time>2021-05-15T03:23:47.327Z</time>
      </trkpt>
      <trkpt lat="47.02189" lon="-1.68956">
        <ele>32.1</ele>
        <time>2021-05-15T03:23:49.037Z</time>
      </trkpt>
      <trkpt lat="47.0219" lon="-1.6894">
        <ele>32.2</ele>
        <time>2021-05-15T03:23:50.558Z</time>
      </trkpt>
      <trkpt lat="47.0219" lon="-1.68923">
        <ele>32.3</ele>
        <time>2021-05-15T03:23:52.168Z</time>
      </trkpt>
      <trkpt lat="47.02191" lon="-1.68906">
        <ele>32.5</ele>
        <time>2021-05-15T03:23:53.783Z</time>
      </trkpt>
      <trkpt lat="47.02193" lon="-1.68889">
        <ele>32.9</ele>
        <time>2021-05-15T03:23:55.417Z</time>
      </trkpt>
      <trkpt lat="47.02194" lon="-1.68873">
        <ele>33.2</ele>
        <time>2021-05-15T03:23:56.938Z</time>
      </trkpt>
      <trkpt lat="47.02195" lon="-1.68857">
        <ele>33.5</ele>
        <time>2021-05-15T03:23:58.459Z</time>
      </trkpt>
      <trkpt lat="47.02196" lon="-1.68841">
        <ele>33.8</ele>
        <time>2021-05-15T03:23:59.980Z</time>
      </trkpt>
      <trkpt lat="47.02198" lon="-1.68826">
        <ele>34.2</ele>
        <time>2021-05-15T03:24:03.601Z</time>
      </trkpt>
      <trkpt lat="47.02198" lon="-1.68813">
        <ele>34.4</ele>
        <time>2021-05-15T03:24:04.832Z</time>
      </trkpt>
      <trkpt lat="47.02198" lon="-1.68799">
        <ele>34.7</ele>
        <time>2021-05-15T03:24:09.945Z</time>
      </trkpt>
      <trkpt lat="47.022" lon="-1.68782">
        <ele>35.1</ele>
        <time>2021-05-15T03:24:13.651Z</time>
      </trkpt>
      <trkpt lat="47.02206" lon="-1.68771">
        <ele>35.5</ele>
        <time>2021-05-15T03:24:14.985Z</time>
      </trkpt>
      <trkpt lat="47.02212" lon="-1.6876">
        <ele>35.8</ele>
        <time>2021-05-15T03:24:16.319Z</time>
      </trkpt>
      <trkpt lat="47.02219" lon="-1.68748">
        <ele>36.3</ele>
        <time>2021-05-15T03:24:17.814Z</time>
      </trkpt>
      <trkpt lat="47.02225" lon="-1.68736">
        <ele>36.9</ele>
        <time>2021-05-15T03:24:21.428Z</time>
      </trkpt>
      <trkpt lat="47.02232" lon="-1.68723">
        <ele>37.5</ele>
        <time>2021-05-15T03:24:22.996Z</time>
      </trkpt>
      <trkpt lat="47.02239" lon="-1.68711">
        <ele>38.1</ele>
        <time>2021-05-15T03:24:26.632Z</time>
      </trkpt>
      <trkpt lat="47.02246" lon="-1.687">
        <ele>38.7</ele>
        <time>2021-05-15T03:24:27.426Z</time>
      </trkpt>
      <trkpt lat="47.02252" lon="-1.68689">
        <ele>39.3</ele>
        <time>2021-05-15T03:24:31.040Z</time>
      </trkpt>
      <trkpt lat="47.0226" lon="-1.68674">
        <ele>40.1</ele>
        <time>2021-05-15T03:24:32.843Z</time>
      </trkpt>
      <trkpt lat="47.02266" lon="-1.68663">
        <ele>40.6</ele>
        <time>2021-05-15T03:24:34.177Z</time>
      </trkpt>
      <trkpt lat="47.02274" lon="-1.68648">
        <ele>41</ele>
        <time>2021-05-15T03:24:38.008Z</time>
      </trkpt>
      <trkpt lat="47.0228" lon="-1.68637">
        <ele>41.3</ele>
        <time>2021-05-15T03:24:39.342Z</time>
      </trkpt>
      <trkpt lat="47.02286" lon="-1.68626">
        <ele>41.6</ele>
        <time>2021-05-15T03:24:40.676Z</time>
      </trkpt>
      <trkpt lat="47.02295" lon="-1.68611">
        <ele>41.9</ele>
        <time>2021-05-15T03:24:44.583Z</time>
      </trkpt>
      <trkpt lat="47.023" lon="-1.686">
        <ele>42.1</ele>
        <time>2021-05-15T03:24:48.227Z</time>
      </trkpt>
      <trkpt lat="47.02306" lon="-1.6859">
        <ele>42.3</ele>
        <time>2021-05-15T03:24:49.488Z</time>
      </trkpt>
      <trkpt lat="47.02315" lon="-1.68574">
        <ele>42.9</ele>
        <time>2021-05-15T03:24:53.462Z</time>
      </trkpt>
      <trkpt lat="47.0232" lon="-1.68564">
        <ele>43.3</ele>
        <time>2021-05-15T03:24:54.636Z</time>
      </trkpt>
      <trkpt lat="47.02326" lon="-1.68554">
        <ele>43.8</ele>
        <time>2021-05-15T03:24:55.897Z</time>
      </trkpt>
      <trkpt lat="47.02332" lon="-1.68543">
        <ele>44.4</ele>
        <time>2021-05-15T03:24:57.231Z</time>
      </trkpt>
      <trkpt lat="47.02338" lon="-1.68532">
        <ele>44.9</ele>
        <time>2021-05-15T03:25:00.844Z</time>
      </trkpt>
      <trkpt lat="47.02343" lon="-1.68522">
        <ele>45.4</ele>
        <time>2021-05-15T03:25:02.018Z</time>
      </trkpt>
      <trkpt lat="47.02349" lon="-1.68511">
        <ele>45.8</ele>
        <time>2021-05-15T03:25:03.352Z</time>
      </trkpt>
      <trkpt lat="47.02355" lon="-1.685">
        <ele>46.3</ele>
        <time>2021-05-15T03:25:04.686Z</time>
      </trkpt>
      <trkpt lat="47.0236" lon="-1.68489">
        <ele>46.4</ele>
        <time>2021-05-15T03:25:08.330Z</time>
      </trkpt>
      <trkpt lat="47.02366" lon="-1.68478">
        <ele>46.6</ele>
        <time>2021-05-15T03:25:09.664Z</time>
      </trkpt>
      <trkpt lat="47.02371" lon="-1.68466">
        <ele>46.7</ele>
        <time>2021-05-15T03:25:10.995Z</time>
      </trkpt>
      <trkpt lat="47.02376" lon="-1.68454">
        <ele>46.8</ele>
        <time>2021-05-15T03:25:12.327Z</time>
      </trkpt>
      <trkpt lat="47.02383" lon="-1.68436">
        <ele>46.9</ele>
        <time>2021-05-15T03:25:14.289Z</time>
      </trkpt>
      <trkpt lat="47.02387" lon="-1.68423">
        <ele>47</ele>
        <time>2021-05-15T03:25:15.639Z</time>
      </trkpt>
      <trkpt lat="47.02392" lon="-1.6841">
        <ele>46.9</ele>
        <time>2021-05-15T03:25:17.052Z</time>
      </trkpt>
      <trkpt lat="47.02397" lon="-1.68396">
        <ele>46.8</ele>
        <time>2021-05-15T03:25:18.549Z</time>
      </trkpt>
      <trkpt lat="47.02402" lon="-1.68383">
        <ele>46.6</ele>
        <time>2021-05-15T03:25:19.962Z</time>
      </trkpt>
      <trkpt lat="47.02406" lon="-1.6837">
        <ele>46.4</ele>
        <time>2021-05-15T03:25:21.312Z</time>
      </trkpt>
      <trkpt lat="47.02411" lon="-1.68357">
        <ele>46.3</ele>
        <time>2021-05-15T03:25:22.725Z</time>
      </trkpt>
      <trkpt lat="47.02415" lon="-1.68344">
        <ele>46.1</ele>
        <time>2021-05-15T03:25:24.075Z</time>
      </trkpt>
      <trkpt lat="47.02421" lon="-1.6833">
        <ele>46</ele>
        <time>2021-05-15T03:25:25.641Z</time>
      </trkpt>
      <trkpt lat="47.02426" lon="-1.68317">
        <ele>46</ele>
        <time>2021-05-15T03:25:27.054Z</time>
      </trkpt>
      <trkpt lat="47.02431" lon="-1.68302">
        <ele>46.1</ele>
        <time>2021-05-15T03:25:28.635Z</time>
      </trkpt>
      <trkpt lat="47.02436" lon="-1.68288">
        <ele>46.1</ele>
        <time>2021-05-15T03:25:30.131Z</time>
      </trkpt>
      <trkpt lat="47.02442" lon="-1.68273">
        <ele>46.2</ele>
        <time>2021-05-15T03:25:31.049Z</time>
      </trkpt>
      <trkpt lat="47.02447" lon="-1.68258">
        <ele>46.3</ele>
        <time>2021-05-15T03:25:32.629Z</time>
      </trkpt>
      <trkpt lat="47.02453" lon="-1.68243">
        <ele>46.4</ele>
        <time>2021-05-15T03:25:34.276Z</time>
      </trkpt>
      <trkpt lat="47.02459" lon="-1.68228">
        <ele>46.4</ele>
        <time>2021-05-15T03:25:35.922Z</time>
      </trkpt>
      <trkpt lat="47.02465" lon="-1.68211">
        <ele>46.3</ele>
        <time>2021-05-15T03:25:37.735Z</time>
      </trkpt>
      <trkpt lat="47.02471" lon="-1.68195">
        <ele>46.2</ele>
        <time>2021-05-15T03:25:39.464Z</time>
      </trkpt>
      <trkpt lat="47.02477" lon="-1.68179">
        <ele>46.1</ele>
        <time>2021-05-15T03:25:40.427Z</time>
      </trkpt>
      <trkpt lat="47.02483" lon="-1.68163">
        <ele>45.9</ele>
        <time>2021-05-15T03:25:42.156Z</time>
      </trkpt>
      <trkpt lat="47.02489" lon="-1.68146">
        <ele>45.5</ele>
        <time>2021-05-15T03:25:43.968Z</time>
      </trkpt>
      <trkpt lat="47.02495" lon="-1.6813">
        <ele>45.1</ele>
        <time>2021-05-15T03:25:45.697Z</time>
      </trkpt>
      <trkpt lat="47.02501" lon="-1.68113">
        <ele>44.7</ele>
        <time>2021-05-15T03:25:47.509Z</time>
      </trkpt>
      <trkpt lat="47.02507" lon="-1.68097">
        <ele>44.3</ele>
        <time>2021-05-15T03:25:49.238Z</time>
      </trkpt>
      <trkpt lat="47.02513" lon="-1.68081">
        <ele>44</ele>
        <time>2021-05-15T03:25:50.967Z</time>
      </trkpt>
      <trkpt lat="47.02519" lon="-1.68066">
        <ele>44</ele>
        <time>2021-05-15T03:25:52.613Z</time>
      </trkpt>
      <trkpt lat="47.02524" lon="-1.6805">
        <ele>43.9</ele>
        <time>2021-05-15T03:25:54.280Z</time>
      </trkpt>
      <trkpt lat="47.0253" lon="-1.68035">
        <ele>43.8</ele>
        <time>2021-05-15T03:25:55.926Z</time>
      </trkpt>
      <trkpt lat="47.02536" lon="-1.68019">
        <ele>43.7</ele>
        <time>2021-05-15T03:25:57.655Z</time>
      </trkpt>
      <trkpt lat="47.02542" lon="-1.68002">
        <ele>43.5</ele>
        <time>2021-05-15T03:25:59.467Z</time>
      </trkpt>
      <trkpt lat="47.02548" lon="-1.67987">
        <ele>43.4</ele>
        <time>2021-05-15T03:26:01.114Z</time>
      </trkpt>
      <trkpt lat="47.02554" lon="-1.67971">
        <ele>43.4</ele>
        <time>2021-05-15T03:26:02.843Z</time>
      </trkpt>
      <trkpt lat="47.0256" lon="-1.67955">
        <ele>43.3</ele>
        <time>2021-05-15T03:26:04.571Z</time>
      </trkpt>
      <trkpt lat="47.02566" lon="-1.67938">
        <ele>43.2</ele>
        <time>2021-05-15T03:26:06.384Z</time>
      </trkpt>
      <trkpt lat="47.02572" lon="-1.67922">
        <ele>43.1</ele>
        <time>2021-05-15T03:26:08.113Z</time>
      </trkpt>
      <trkpt lat="47.02578" lon="-1.67906">
        <ele>43.2</ele>
        <time>2021-05-15T03:26:09.841Z</time>
      </trkpt>
      <trkpt lat="47.02584" lon="-1.6789">
        <ele>43.3</ele>
        <time>2021-05-15T03:26:11.570Z</time>
      </trkpt>
      <trkpt lat="47.0259" lon="-1.67874">
        <ele>43.5</ele>
        <time>2021-05-15T03:26:13.299Z</time>
      </trkpt>
      <trkpt lat="47.02596" lon="-1.67857">
        <ele>43.7</ele>
        <time>2021-05-15T03:26:15.111Z</time>
      </trkpt>
      <trkpt lat="47.02602" lon="-1.67841">
        <ele>43.7</ele>
        <time>2021-05-15T03:26:16.840Z</time>
      </trkpt>
      <trkpt lat="47.02608" lon="-1.67825">
        <ele>43.7</ele>
        <time>2021-05-15T03:26:18.569Z</time>
      </trkpt>
      <trkpt lat="47.02614" lon="-1.67808">
        <ele>43.6</ele>
        <time>2021-05-15T03:26:20.381Z</time>
      </trkpt>
      <trkpt lat="47.02621" lon="-1.67792">
        <ele>43.5</ele>
        <time>2021-05-15T03:26:22.181Z</time>
      </trkpt>
      <trkpt lat="47.02627" lon="-1.67775">
        <ele>43.5</ele>
        <time>2021-05-15T03:26:23.993Z</time>
      </trkpt>
      <trkpt lat="47.02632" lon="-1.6776">
        <ele>43.4</ele>
        <time>2021-05-15T03:26:25.574Z</time>
      </trkpt>
      <trkpt lat="47.02638" lon="-1.67744">
        <ele>43.3</ele>
        <time>2021-05-15T03:26:27.303Z</time>
      </trkpt>
      <trkpt lat="47.02643" lon="-1.67728">
        <ele>43</ele>
        <time>2021-05-15T03:26:28.969Z</time>
      </trkpt>
      <trkpt lat="47.02649" lon="-1.67713">
        <ele>42.8</ele>
        <time>2021-05-15T03:26:30.616Z</time>
      </trkpt>
      <trkpt lat="47.02655" lon="-1.67697">
        <ele>42.5</ele>
        <time>2021-05-15T03:26:32.345Z</time>
      </trkpt>
      <trkpt lat="47.02661" lon="-1.67681">
        <ele>42.2</ele>
        <time>2021-05-15T03:26:34.073Z</time>
      </trkpt>
      <trkpt lat="47.02667" lon="-1.67666">
        <ele>42</ele>
        <time>2021-05-15T03:26:35.720Z</time>
      </trkpt>
      <trkpt lat="47.02673" lon="-1.6765">
        <ele>42.2</ele>
        <time>2021-05-15T03:26:37.449Z</time>
      </trkpt>
      <trkpt lat="47.02678" lon="-1.67634">
        <ele>42.4</ele>
        <time>2021-05-15T03:26:39.115Z</time>
      </trkpt>
      <trkpt lat="47.02684" lon="-1.67618">
        <ele>42.7</ele>
        <time>2021-05-15T03:26:40.844Z</time>
      </trkpt>
      <trkpt lat="47.0269" lon="-1.67602">
        <ele>43</ele>
        <time>2021-05-15T03:26:42.572Z</time>
      </trkpt>
      <trkpt lat="47.02697" lon="-1.67586">
        <ele>43.3</ele>
        <time>2021-05-15T03:26:44.372Z</time>
      </trkpt>
      <trkpt lat="47.02702" lon="-1.6757">
        <ele>43.4</ele>
        <time>2021-05-15T03:26:48.100Z</time>
      </trkpt>
      <trkpt lat="47.02708" lon="-1.67553">
        <ele>43.3</ele>
        <time>2021-05-15T03:26:49.110Z</time>
      </trkpt>
      <trkpt lat="47.02714" lon="-1.67536">
        <ele>43.2</ele>
        <time>2021-05-15T03:26:50.922Z</time>
      </trkpt>
      <trkpt lat="47.0272" lon="-1.67519">
        <ele>43.1</ele>
        <time>2021-05-15T03:26:52.735Z</time>
      </trkpt>
      <trkpt lat="47.02727" lon="-1.67504">
        <ele>43</ele>
        <time>2021-05-15T03:26:54.456Z</time>
      </trkpt>
      <trkpt lat="47.02733" lon="-1.67487">
        <ele>42.7</ele>
        <time>2021-05-15T03:26:56.268Z</time>
      </trkpt>
      <trkpt lat="47.02739" lon="-1.67471">
        <ele>42.3</ele>
        <time>2021-05-15T03:26:57.231Z</time>
      </trkpt>
      <trkpt lat="47.02745" lon="-1.67454">
        <ele>41.9</ele>
        <time>2021-05-15T03:26:59.043Z</time>
      </trkpt>
      <trkpt lat="47.02751" lon="-1.67436">
        <ele>41.5</ele>
        <time>2021-05-15T03:27:00.940Z</time>
      </trkpt>
      <trkpt lat="47.02758" lon="-1.67419">
        <ele>41.1</ele>
        <time>2021-05-15T03:27:02.820Z</time>
      </trkpt>
      <trkpt lat="47.02764" lon="-1.67402">
        <ele>41.1</ele>
        <time>2021-05-15T03:27:04.633Z</time>
      </trkpt>
      <trkpt lat="47.02771" lon="-1.67384">
        <ele>41.2</ele>
        <time>2021-05-15T03:27:06.595Z</time>
      </trkpt>
      <trkpt lat="47.02778" lon="-1.67366">
        <ele>41.1</ele>
        <time>2021-05-15T03:27:08.556Z</time>
      </trkpt>
      <trkpt lat="47.02784" lon="-1.67349">
        <ele>41.1</ele>
        <time>2021-05-15T03:27:10.369Z</time>
      </trkpt>
      <trkpt lat="47.0279" lon="-1.67332">
        <ele>41</ele>
        <time>2021-05-15T03:27:11.378Z</time>
      </trkpt>
      <trkpt lat="47.02796" lon="-1.67315">
        <ele>40.7</ele>
        <time>2021-05-15T03:27:13.191Z</time>
      </trkpt>
      <trkpt lat="47.02802" lon="-1.67298">
        <ele>40.3</ele>
        <time>2021-05-15T03:27:14.200Z</time>
      </trkpt>
      <trkpt lat="47.02809" lon="-1.67281">
        <ele>39.9</ele>
        <time>2021-05-15T03:27:15.248Z</time>
      </trkpt>
      <trkpt lat="47.02815" lon="-1.67264">
        <ele>39.5</ele>
        <time>2021-05-15T03:27:19.087Z</time>
      </trkpt>
      <trkpt lat="47.02821" lon="-1.67247">
        <ele>39.1</ele>
        <time>2021-05-15T03:27:20.096Z</time>
      </trkpt>
      <trkpt lat="47.02828" lon="-1.67229">
        <ele>38.6</ele>
        <time>2021-05-15T03:27:21.189Z</time>
      </trkpt>
      <trkpt lat="47.02834" lon="-1.67212">
        <ele>38.1</ele>
        <time>2021-05-15T03:27:23.002Z</time>
      </trkpt>
      <trkpt lat="47.02841" lon="-1.67195">
        <ele>37.9</ele>
        <time>2021-05-15T03:27:24.882Z</time>
      </trkpt>
      <trkpt lat="47.02847" lon="-1.67178">
        <ele>37.6</ele>
        <time>2021-05-15T03:27:26.694Z</time>
      </trkpt>
      <trkpt lat="47.02853" lon="-1.6716">
        <ele>37.5</ele>
        <time>2021-05-15T03:27:28.591Z</time>
      </trkpt>
      <trkpt lat="47.0286" lon="-1.67143">
        <ele>37.7</ele>
        <time>2021-05-15T03:27:30.471Z</time>
      </trkpt>
      <trkpt lat="47.02867" lon="-1.67126">
        <ele>37.7</ele>
        <time>2021-05-15T03:27:32.351Z</time>
      </trkpt>
      <trkpt lat="47.02874" lon="-1.67108">
        <ele>37.6</ele>
        <time>2021-05-15T03:27:34.313Z</time>
      </trkpt>
      <trkpt lat="47.0288" lon="-1.67091">
        <ele>37.5</ele>
        <time>2021-05-15T03:27:36.125Z</time>
      </trkpt>
      <trkpt lat="47.02886" lon="-1.67074">
        <ele>37.5</ele>
        <time>2021-05-15T03:27:37.937Z</time>
      </trkpt>
      <trkpt lat="47.02892" lon="-1.67057">
        <ele>37.6</ele>
        <time>2021-05-15T03:27:39.750Z</time>
      </trkpt>
      <trkpt lat="47.02898" lon="-1.67041">
        <ele>37.6</ele>
        <time>2021-05-15T03:27:41.478Z</time>
      </trkpt>
      <trkpt lat="47.02904" lon="-1.67025">
        <ele>37.5</ele>
        <time>2021-05-15T03:27:43.207Z</time>
      </trkpt>
      <trkpt lat="47.0291" lon="-1.67008">
        <ele>37.3</ele>
        <time>2021-05-15T03:27:45.019Z</time>
      </trkpt>
      <trkpt lat="47.02916" lon="-1.66992">
        <ele>37.1</ele>
        <time>2021-05-15T03:27:46.748Z</time>
      </trkpt>
      <trkpt lat="47.02922" lon="-1.66976">
        <ele>37.1</ele>
        <time>2021-05-15T03:27:47.711Z</time>
      </trkpt>
      <trkpt lat="47.02928" lon="-1.66959">
        <ele>37</ele>
        <time>2021-05-15T03:27:49.524Z</time>
      </trkpt>
      <trkpt lat="47.02934" lon="-1.66942">
        <ele>36.8</ele>
        <time>2021-05-15T03:27:51.336Z</time>
      </trkpt>
      <trkpt lat="47.0294" lon="-1.66926">
        <ele>36.6</ele>
        <time>2021-05-15T03:27:53.064Z</time>
      </trkpt>
      <trkpt lat="47.02946" lon="-1.6691">
        <ele>36.3</ele>
        <time>2021-05-15T03:27:54.793Z</time>
      </trkpt>
      <trkpt lat="47.02952" lon="-1.66893">
        <ele>36.2</ele>
        <time>2021-05-15T03:27:56.605Z</time>
      </trkpt>
      <trkpt lat="47.02959" lon="-1.66876">
        <ele>35.9</ele>
        <time>2021-05-15T03:27:57.653Z</time>
      </trkpt>
      <trkpt lat="47.02965" lon="-1.66859">
        <ele>35.8</ele>
        <time>2021-05-15T03:27:59.465Z</time>
      </trkpt>
      <trkpt lat="47.02971" lon="-1.66842">
        <ele>35.6</ele>
        <time>2021-05-15T03:28:01.277Z</time>
      </trkpt>
      <trkpt lat="47.02977" lon="-1.66825">
        <ele>35.6</ele>
        <time>2021-05-15T03:28:02.287Z</time>
      </trkpt>
      <trkpt lat="47.02983" lon="-1.66809">
        <ele>35.8</ele>
        <time>2021-05-15T03:28:04.016Z</time>
      </trkpt>
      <trkpt lat="47.02989" lon="-1.66793">
        <ele>36</ele>
        <time>2021-05-15T03:28:05.744Z</time>
      </trkpt>
      <trkpt lat="47.02995" lon="-1.66777">
        <ele>36.2</ele>
        <time>2021-05-15T03:28:07.473Z</time>
      </trkpt>
      <trkpt lat="47.03001" lon="-1.66761">
        <ele>36.6</ele>
        <time>2021-05-15T03:28:09.202Z</time>
      </trkpt>
      <trkpt lat="47.03006" lon="-1.66745">
        <ele>37</ele>
        <time>2021-05-15T03:28:10.868Z</time>
      </trkpt>
      <trkpt lat="47.03012" lon="-1.6673">
        <ele>37.1</ele>
        <time>2021-05-15T03:28:12.515Z</time>
      </trkpt>
      <trkpt lat="47.03018" lon="-1.66714">
        <ele>37.1</ele>
        <time>2021-05-15T03:28:14.243Z</time>
      </trkpt>
      <trkpt lat="47.03023" lon="-1.66698">
        <ele>36.9</ele>
        <time>2021-05-15T03:28:15.909Z</time>
      </trkpt>
      <trkpt lat="47.0303" lon="-1.66681">
        <ele>36.6</ele>
        <time>2021-05-15T03:28:17.790Z</time>
      </trkpt>
      <trkpt lat="47.03036" lon="-1.66663">
        <ele>36.1</ele>
        <time>2021-05-15T03:28:18.846Z</time>
      </trkpt>
      <trkpt lat="47.03043" lon="-1.66645">
        <ele>35.2</ele>
        <time>2021-05-15T03:28:19.939Z</time>
      </trkpt>
      <trkpt lat="47.03049" lon="-1.66628">
        <ele>34.3</ele>
        <time>2021-05-15T03:28:21.751Z</time>
      </trkpt>
      <trkpt lat="47.03056" lon="-1.66609">
        <ele>33.2</ele>
        <time>2021-05-15T03:28:22.891Z</time>
      </trkpt>
      <trkpt lat="47.03062" lon="-1.6659">
        <ele>32.3</ele>
        <time>2021-05-15T03:28:24.873Z</time>
      </trkpt>
      <trkpt lat="47.03069" lon="-1.66572">
        <ele>31.4</ele>
        <time>2021-05-15T03:28:25.966Z</time>
      </trkpt>
      <trkpt lat="47.03076" lon="-1.66553">
        <ele>30.7</ele>
        <time>2021-05-15T03:28:28.010Z</time>
      </trkpt>
      <trkpt lat="47.03084" lon="-1.66533">
        <ele>29.8</ele>
        <time>2021-05-15T03:28:29.160Z</time>
      </trkpt>
      <trkpt lat="47.03091" lon="-1.66514">
        <ele>29.1</ele>
        <time>2021-05-15T03:28:31.205Z</time>
      </trkpt>
      <trkpt lat="47.03099" lon="-1.66494">
        <ele>28.5</ele>
        <time>2021-05-15T03:28:32.355Z</time>
      </trkpt>
      <trkpt lat="47.03108" lon="-1.66477">
        <ele>27.9</ele>
        <time>2021-05-15T03:28:34.393Z</time>
      </trkpt>
      <trkpt lat="47.03119" lon="-1.6646">
        <ele>27.2</ele>
        <time>2021-05-15T03:28:35.561Z</time>
      </trkpt>
      <trkpt lat="47.03131" lon="-1.66444">
        <ele>26.5</ele>
        <time>2021-05-15T03:28:36.756Z</time>
      </trkpt>
      <trkpt lat="47.03142" lon="-1.66428">
        <ele>25.9</ele>
        <time>2021-05-15T03:28:38.907Z</time>
      </trkpt>
      <trkpt lat="47.03154" lon="-1.66411">
        <ele>25.2</ele>
        <time>2021-05-15T03:28:40.198Z</time>
      </trkpt>
      <trkpt lat="47.03165" lon="-1.66393">
        <ele>24.8</ele>
        <time>2021-05-15T03:28:42.486Z</time>
      </trkpt>
      <trkpt lat="47.03175" lon="-1.66374">
        <ele>24.4</ele>
        <time>2021-05-15T03:28:43.697Z</time>
      </trkpt>
      <trkpt lat="47.03186" lon="-1.66355">
        <ele>24.2</ele>
        <time>2021-05-15T03:28:46.057Z</time>
      </trkpt>
      <trkpt lat="47.03196" lon="-1.66335">
        <ele>24</ele>
        <time>2021-05-15T03:28:48.405Z</time>
      </trkpt>
      <trkpt lat="47.03205" lon="-1.66314">
        <ele>23.8</ele>
        <time>2021-05-15T03:28:49.676Z</time>
      </trkpt>
      <trkpt lat="47.03214" lon="-1.66292">
        <ele>23.5</ele>
        <time>2021-05-15T03:28:52.105Z</time>
      </trkpt>
      <trkpt lat="47.03224" lon="-1.66271">
        <ele>23.3</ele>
        <time>2021-05-15T03:28:53.437Z</time>
      </trkpt>
      <trkpt lat="47.03232" lon="-1.66249">
        <ele>23</ele>
        <time>2021-05-15T03:28:55.798Z</time>
      </trkpt>
      <trkpt lat="47.03241" lon="-1.66228">
        <ele>22.3</ele>
        <time>2021-05-15T03:28:57.068Z</time>
      </trkpt>
      <trkpt lat="47.03249" lon="-1.66207">
        <ele>21.5</ele>
        <time>2021-05-15T03:28:59.346Z</time>
      </trkpt>
      <trkpt lat="47.03258" lon="-1.66187">
        <ele>20.8</ele>
        <time>2021-05-15T03:29:01.614Z</time>
      </trkpt>
      <trkpt lat="47.03266" lon="-1.66166">
        <ele>20.4</ele>
        <time>2021-05-15T03:29:02.829Z</time>
      </trkpt>
      <trkpt lat="47.03274" lon="-1.66147">
        <ele>20.3</ele>
        <time>2021-05-15T03:29:04.943Z</time>
      </trkpt>
      <trkpt lat="47.03283" lon="-1.66128">
        <ele>20.1</ele>
        <time>2021-05-15T03:29:07.133Z</time>
      </trkpt>
      <trkpt lat="47.03295" lon="-1.66115">
        <ele>20.1</ele>
        <time>2021-05-15T03:29:09.205Z</time>
      </trkpt>
      <trkpt lat="47.03309" lon="-1.66105">
        <ele>20.2</ele>
        <time>2021-05-15T03:29:11.367Z</time>
      </trkpt>
      <trkpt lat="47.03323" lon="-1.66102">
        <ele>20.3</ele>
        <time>2021-05-15T03:29:12.462Z</time>
      </trkpt>
      <trkpt lat="47.03336" lon="-1.66105">
        <ele>20.5</ele>
        <time>2021-05-15T03:29:14.290Z</time>
      </trkpt>
      <trkpt lat="47.03349" lon="-1.66112">
        <ele>20.6</ele>
        <time>2021-05-15T03:29:15.361Z</time>
      </trkpt>
      <trkpt lat="47.03361" lon="-1.6612">
        <ele>20.6</ele>
        <time>2021-05-15T03:29:17.192Z</time>
      </trkpt>
      <trkpt lat="47.03374" lon="-1.66122">
        <ele>20.5</ele>
        <time>2021-05-15T03:29:19.007Z</time>
      </trkpt>
      <trkpt lat="47.03385" lon="-1.66111">
        <ele>20.3</ele>
        <time>2021-05-15T03:29:20.037Z</time>
      </trkpt>
      <trkpt lat="47.03388" lon="-1.66092">
        <ele>20.1</ele>
        <time>2021-05-15T03:29:21.883Z</time>
      </trkpt>
      <trkpt lat="47.03385" lon="-1.66073">
        <ele>20</ele>
        <time>2021-05-15T03:29:23.729Z</time>
      </trkpt>
      <trkpt lat="47.03385" lon="-1.66055">
        <ele>19.9</ele>
        <time>2021-05-15T03:29:27.484Z</time>
      </trkpt>
      <trkpt lat="47.03391" lon="-1.66037">
        <ele>19.8</ele>
        <time>2021-05-15T03:29:29.380Z</time>
      </trkpt>
      <trkpt lat="47.03398" lon="-1.66018">
        <ele>19.8</ele>
        <time>2021-05-15T03:29:31.425Z</time>
      </trkpt>
      <trkpt lat="47.034" lon="-1.65997">
        <ele>19.8</ele>
        <time>2021-05-15T03:29:33.432Z</time>
      </trkpt>
      <trkpt lat="47.034" lon="-1.65976">
        <ele>19.5</ele>
        <time>2021-05-15T03:29:37.428Z</time>
      </trkpt>
      <trkpt lat="47.03399" lon="-1.65956">
        <ele>19.1</ele>
        <time>2021-05-15T03:29:39.326Z</time>
      </trkpt>
      <trkpt lat="47.03398" lon="-1.65937">
        <ele>18.9</ele>
        <time>2021-05-15T03:29:43.158Z</time>
      </trkpt>
      <trkpt lat="47.03396" lon="-1.65918">
        <ele>18.5</ele>
        <time>2021-05-15T03:29:44.978Z</time>
      </trkpt>
      <trkpt lat="47.03392" lon="-1.659">
        <ele>18.1</ele>
        <time>2021-05-15T03:29:48.800Z</time>
      </trkpt>
      <trkpt lat="47.03387" lon="-1.65882">
        <ele>17.6</ele>
        <time>2021-05-15T03:29:50.640Z</time>
      </trkpt>
      <trkpt lat="47.03381" lon="-1.65865">
        <ele>17</ele>
        <time>2021-05-15T03:29:54.478Z</time>
      </trkpt>
      <trkpt lat="47.03374" lon="-1.65849">
        <ele>16.3</ele>
        <time>2021-05-15T03:29:56.278Z</time>
      </trkpt>
      <trkpt lat="47.03366" lon="-1.65834">
        <ele>15.6</ele>
        <time>2021-05-15T03:29:58.081Z</time>
      </trkpt>
      <trkpt lat="47.03359" lon="-1.65819">
        <ele>15.4</ele>
        <time>2021-05-15T03:30:01.848Z</time>
      </trkpt>
      <trkpt lat="47.03351" lon="-1.65804">
        <ele>15.3</ele>
        <time>2021-05-15T03:30:03.650Z</time>
      </trkpt>
      <trkpt lat="47.03344" lon="-1.65789">
        <ele>15.4</ele>
        <time>2021-05-15T03:30:05.371Z</time>
      </trkpt>
      <trkpt lat="47.03337" lon="-1.65773">
        <ele>15.5</ele>
        <time>2021-05-15T03:30:07.171Z</time>
      </trkpt>
      <trkpt lat="47.03329" lon="-1.65756">
        <ele>16</ele>
        <time>2021-05-15T03:30:09.126Z</time>
      </trkpt>
      <trkpt lat="47.03322" lon="-1.65737">
        <ele>16.4</ele>
        <time>2021-05-15T03:30:10.265Z</time>
      </trkpt>
      <trkpt lat="47.03317" lon="-1.65717">
        <ele>16.7</ele>
        <time>2021-05-15T03:30:12.282Z</time>
      </trkpt>
      <trkpt lat="47.03314" lon="-1.65696">
        <ele>17</ele>
        <time>2021-05-15T03:30:14.313Z</time>
      </trkpt>
      <trkpt lat="47.03312" lon="-1.65676">
        <ele>17.2</ele>
        <time>2021-05-15T03:30:15.379Z</time>
      </trkpt>
      <trkpt lat="47.03312" lon="-1.65655">
        <ele>17.2</ele>
        <time>2021-05-15T03:30:17.367Z</time>
      </trkpt>
      <trkpt lat="47.03313" lon="-1.65633">
        <ele>17</ele>
        <time>2021-05-15T03:30:19.454Z</time>
      </trkpt>
      <trkpt lat="47.03313" lon="-1.65612">
        <ele>16.9</ele>
        <time>2021-05-15T03:30:21.442Z</time>
      </trkpt>
      <trkpt lat="47.03309" lon="-1.65593">
        <ele>16.9</ele>
        <time>2021-05-15T03:30:22.490Z</time>
      </trkpt>
      <trkpt lat="47.03309" lon="-1.65572">
        <ele>17.1</ele>
        <time>2021-05-15T03:30:23.598Z</time>
      </trkpt>
      <trkpt lat="47.03318" lon="-1.65555">
        <ele>17</ele>
        <time>2021-05-15T03:30:25.636Z</time>
      </trkpt>
      <trkpt lat="47.03331" lon="-1.65547">
        <ele>16.5</ele>
        <time>2021-05-15T03:30:26.726Z</time>
      </trkpt>
      <trkpt lat="47.03344" lon="-1.65546">
        <ele>16.1</ele>
        <time>2021-05-15T03:30:28.534Z</time>
      </trkpt>
      <trkpt lat="47.03356" lon="-1.65539">
        <ele>15.7</ele>
        <time>2021-05-15T03:30:30.328Z</time>
      </trkpt>
      <trkpt lat="47.03368" lon="-1.65529">
        <ele>15.4</ele>
        <time>2021-05-15T03:30:32.244Z</time>
      </trkpt>
      <trkpt lat="47.03379" lon="-1.65519">
        <ele>15.1</ele>
        <time>2021-05-15T03:30:33.246Z</time>
      </trkpt>
      <trkpt lat="47.03392" lon="-1.65513">
        <ele>14.7</ele>
        <time>2021-05-15T03:30:34.300Z</time>
      </trkpt>
      <trkpt lat="47.03406" lon="-1.6551">
        <ele>14.3</ele>
        <time>2021-05-15T03:30:35.395Z</time>
      </trkpt>
      <trkpt lat="47.03421" lon="-1.65507">
        <ele>13.8</ele>
        <time>2021-05-15T03:30:37.497Z</time>
      </trkpt>
      <trkpt lat="47.03435" lon="-1.65502">
        <ele>13.5</ele>
        <time>2021-05-15T03:30:38.612Z</time>
      </trkpt>
      <trkpt lat="47.03447" lon="-1.65492">
        <ele>13.3</ele>
        <time>2021-05-15T03:30:40.529Z</time>
      </trkpt>
      <trkpt lat="47.03457" lon="-1.65479">
        <ele>13.1</ele>
        <time>2021-05-15T03:30:41.563Z</time>
      </trkpt>
      <trkpt lat="47.03468" lon="-1.65467">
        <ele>13.1</ele>
        <time>2021-05-15T03:30:43.466Z</time>
      </trkpt>
      <trkpt lat="47.03479" lon="-1.65454">
        <ele>13.2</ele>
        <time>2021-05-15T03:30:44.559Z</time>
      </trkpt>
      <trkpt lat="47.03486" lon="-1.65437">
        <ele>13.5</ele>
        <time>2021-05-15T03:30:46.439Z</time>
      </trkpt>
      <trkpt lat="47.03493" lon="-1.6542">
        <ele>13.8</ele>
        <time>2021-05-15T03:30:50.336Z</time>
      </trkpt>
      <trkpt lat="47.03499" lon="-1.65403">
        <ele>14</ele>
        <time>2021-05-15T03:30:51.346Z</time>
      </trkpt>
      <trkpt lat="47.03506" lon="-1.65385">
        <ele>13.7</ele>
        <time>2021-05-15T03:30:53.307Z</time>
      </trkpt>
      <trkpt lat="47.03512" lon="-1.65366">
        <ele>13.3</ele>
        <time>2021-05-15T03:30:57.298Z</time>
      </trkpt>
      <trkpt lat="47.03519" lon="-1.65348">
        <ele>12.9</ele>
        <time>2021-05-15T03:30:59.259Z</time>
      </trkpt>
      <trkpt lat="47.03526" lon="-1.6533">
        <ele>12.4</ele>
        <time>2021-05-15T03:31:01.221Z</time>
      </trkpt>
      <trkpt lat="47.03532" lon="-1.65313">
        <ele>11.9</ele>
        <time>2021-05-15T03:31:03.033Z</time>
      </trkpt>
      <trkpt lat="47.03539" lon="-1.65294">
        <ele>11.4</ele>
        <time>2021-05-15T03:31:05.078Z</time>
      </trkpt>
      <trkpt lat="47.03546" lon="-1.65276">
        <ele>11</ele>
        <time>2021-05-15T03:31:09.049Z</time>
      </trkpt>
      <trkpt lat="47.03553" lon="-1.65257">
        <ele>10.7</ele>
        <time>2021-05-15T03:31:10.188Z</time>
      </trkpt>
      <trkpt lat="47.0356" lon="-1.65239">
        <ele>10.6</ele>
        <time>2021-05-15T03:31:12.149Z</time>
      </trkpt>
      <trkpt lat="47.03566" lon="-1.6522">
        <ele>10.6</ele>
        <time>2021-05-15T03:31:14.131Z</time>
      </trkpt>
      <trkpt lat="47.03573" lon="-1.65202">
        <ele>10.7</ele>
        <time>2021-05-15T03:31:15.224Z</time>
      </trkpt>
      <trkpt lat="47.0358" lon="-1.65184">
        <ele>10.8</ele>
        <time>2021-05-15T03:31:17.186Z</time>
      </trkpt>
      <trkpt lat="47.03587" lon="-1.65165">
        <ele>10.9</ele>
        <time>2021-05-15T03:31:19.230Z</time>
      </trkpt>
      <trkpt lat="47.03594" lon="-1.65144">
        <ele>10.4</ele>
        <time>2021-05-15T03:31:20.394Z</time>
      </trkpt>
      <trkpt lat="47.03602" lon="-1.65124">
        <ele>9.9</ele>
        <time>2021-05-15T03:31:21.544Z</time>
      </trkpt>
      <trkpt lat="47.03609" lon="-1.65104">
        <ele>9.4</ele>
        <time>2021-05-15T03:31:22.642Z</time>
      </trkpt>
      <trkpt lat="47.03616" lon="-1.65085">
        <ele>8.9</ele>
        <time>2021-05-15T03:31:24.686Z</time>
      </trkpt>
      <trkpt lat="47.03624" lon="-1.65065">
        <ele>8.4</ele>
        <time>2021-05-15T03:31:26.881Z</time>
      </trkpt>
      <trkpt lat="47.03631" lon="-1.65044">
        <ele>8.1</ele>
        <time>2021-05-15T03:31:28.045Z</time>
      </trkpt>
      <trkpt lat="47.03639" lon="-1.65024">
        <ele>8</ele>
        <time>2021-05-15T03:31:30.240Z</time>
      </trkpt>
      <trkpt lat="47.03646" lon="-1.65003">
        <ele>8</ele>
        <time>2021-05-15T03:31:31.404Z</time>
      </trkpt>
      <trkpt lat="47.03653" lon="-1.64983">
        <ele>8</ele>
        <time>2021-05-15T03:31:33.532Z</time>
      </trkpt>
      <trkpt lat="47.03658" lon="-1.64962">
        <ele>8</ele>
        <time>2021-05-15T03:31:35.637Z</time>
      </trkpt>
      <trkpt lat="47.03665" lon="-1.64942">
        <ele>8</ele>
        <time>2021-05-15T03:31:36.735Z</time>
      </trkpt>
      <trkpt lat="47.03674" lon="-1.64924">
        <ele>8</ele>
        <time>2021-05-15T03:31:38.848Z</time>
      </trkpt>
      <trkpt lat="47.03682" lon="-1.64906">
        <ele>8.1</ele>
        <time>2021-05-15T03:31:40.882Z</time>
      </trkpt>
      <trkpt lat="47.0369" lon="-1.64886">
        <ele>8.2</ele>
        <time>2021-05-15T03:31:43.077Z</time>
      </trkpt>
      <trkpt lat="47.03697" lon="-1.64865">
        <ele>8.2</ele>
        <time>2021-05-15T03:31:45.290Z</time>
      </trkpt>
      <trkpt lat="47.03704" lon="-1.64846">
        <ele>8.1</ele>
        <time>2021-05-15T03:31:47.334Z</time>
      </trkpt>
      <trkpt lat="47.03711" lon="-1.64826">
        <ele>7.8</ele>
        <time>2021-05-15T03:31:48.432Z</time>
      </trkpt>
      <trkpt lat="47.03718" lon="-1.64808">
        <ele>7.5</ele>
        <time>2021-05-15T03:31:50.394Z</time>
      </trkpt>
      <trkpt lat="47.03725" lon="-1.64789">
        <ele>7.1</ele>
        <time>2021-05-15T03:31:52.438Z</time>
      </trkpt>
      <trkpt lat="47.0373" lon="-1.6477">
        <ele>6.7</ele>
        <time>2021-05-15T03:31:54.366Z</time>
      </trkpt>
      <trkpt lat="47.03731" lon="-1.64749">
        <ele>6.5</ele>
        <time>2021-05-15T03:31:58.366Z</time>
      </trkpt>
      <trkpt lat="47.03733" lon="-1.64729">
        <ele>6.3</ele>
        <time>2021-05-15T03:32:00.279Z</time>
      </trkpt>
      <trkpt lat="47.0374" lon="-1.64713">
        <ele>6.1</ele>
        <time>2021-05-15T03:32:01.282Z</time>
      </trkpt>
      <trkpt lat="47.03743" lon="-1.64692">
        <ele>6.1</ele>
        <time>2021-05-15T03:32:03.313Z</time>
      </trkpt>
      <trkpt lat="47.03745" lon="-1.6467">
        <ele>6</ele>
        <time>2021-05-15T03:32:05.414Z</time>
      </trkpt>
      <trkpt lat="47.03747" lon="-1.64648">
        <ele>5.8</ele>
        <time>2021-05-15T03:32:07.514Z</time>
      </trkpt>
      <trkpt lat="47.03748" lon="-1.64626">
        <ele>5.5</ele>
        <time>2021-05-15T03:32:09.601Z</time>
      </trkpt>
      <trkpt lat="47.0375" lon="-1.64604">
        <ele>5.2</ele>
        <time>2021-05-15T03:32:11.702Z</time>
      </trkpt>
      <trkpt lat="47.03752" lon="-1.64582">
        <ele>5</ele>
        <time>2021-05-15T03:32:13.803Z</time>
      </trkpt>
      <trkpt lat="47.03754" lon="-1.6456">
        <ele>5.3</ele>
        <time>2021-05-15T03:32:15.904Z</time>
      </trkpt>
      <trkpt lat="47.03756" lon="-1.64538">
        <ele>5.5</ele>
        <time>2021-05-15T03:32:18.004Z</time>
      </trkpt>
      <trkpt lat="47.03757" lon="-1.64516">
        <ele>5.7</ele>
        <time>2021-05-15T03:32:20.091Z</time>
      </trkpt>
      <trkpt lat="47.03758" lon="-1.64494">
        <ele>5.9</ele>
        <time>2021-05-15T03:32:22.178Z</time>
      </trkpt>
      <trkpt lat="47.03757" lon="-1.64472">
        <ele>5.9</ele>
        <time>2021-05-15T03:32:24.265Z</time>
      </trkpt>
      <trkpt lat="47.03756" lon="-1.64451">
        <ele>5.9</ele>
        <time>2021-05-15T03:32:28.265Z</time>
      </trkpt>
      <trkpt lat="47.03754" lon="-1.6443">
        <ele>6</ele>
        <time>2021-05-15T03:32:30.272Z</time>
      </trkpt>
      <trkpt lat="47.03749" lon="-1.6441">
        <ele>5.8</ele>
        <time>2021-05-15T03:32:32.289Z</time>
      </trkpt>
      <trkpt lat="47.03743" lon="-1.6439">
        <ele>5.3</ele>
        <time>2021-05-15T03:32:33.441Z</time>
      </trkpt>
      <trkpt lat="47.03737" lon="-1.64371">
        <ele>4.9</ele>
        <time>2021-05-15T03:32:35.423Z</time>
      </trkpt>
      <trkpt lat="47.03729" lon="-1.64353">
        <ele>4.6</ele>
        <time>2021-05-15T03:32:39.464Z</time>
      </trkpt>
      <trkpt lat="47.03721" lon="-1.64336">
        <ele>4.4</ele>
        <time>2021-05-15T03:32:43.429Z</time>
      </trkpt>
      <trkpt lat="47.03712" lon="-1.64319">
        <ele>4.7</ele>
        <time>2021-05-15T03:32:45.466Z</time>
      </trkpt>
      <trkpt lat="47.03704" lon="-1.64303">
        <ele>5.1</ele>
        <time>2021-05-15T03:32:49.362Z</time>
      </trkpt>
      <trkpt lat="47.03696" lon="-1.64287">
        <ele>5.4</ele>
        <time>2021-05-15T03:32:51.240Z</time>
      </trkpt>
      <trkpt lat="47.03689" lon="-1.64271">
        <ele>5.7</ele>
        <time>2021-05-15T03:32:55.068Z</time>
      </trkpt>
      <trkpt lat="47.03681" lon="-1.64257">
        <ele>5.9</ele>
        <time>2021-05-15T03:32:58.841Z</time>
      </trkpt>
      <trkpt lat="47.03674" lon="-1.64241">
        <ele>6.1</ele>
        <time>2021-05-15T03:32:59.844Z</time>
      </trkpt>
      <trkpt lat="47.03667" lon="-1.64226">
        <ele>6.3</ele>
        <time>2021-05-15T03:33:01.565Z</time>
      </trkpt>
      <trkpt lat="47.03658" lon="-1.64213">
        <ele>6.6</ele>
        <time>2021-05-15T03:33:03.319Z</time>
      </trkpt>
      <trkpt lat="47.03651" lon="-1.642">
        <ele>6.9</ele>
        <time>2021-05-15T03:33:06.988Z</time>
      </trkpt>
      <trkpt lat="47.03644" lon="-1.64182">
        <ele>7.1</ele>
        <time>2021-05-15T03:33:08.081Z</time>
      </trkpt>
      <trkpt lat="47.03637" lon="-1.64165">
        <ele>7.3</ele>
        <time>2021-05-15T03:33:09.961Z</time>
      </trkpt>
      <trkpt lat="47.03636" lon="-1.64145">
        <ele>7.3</ele>
        <time>2021-05-15T03:33:11.859Z</time>
      </trkpt>
      <trkpt lat="47.03647" lon="-1.64134">
        <ele>7.1</ele>
        <time>2021-05-15T03:33:12.889Z</time>
      </trkpt>
      <trkpt lat="47.03661" lon="-1.64127">
        <ele>7</ele>
        <time>2021-05-15T03:33:14.943Z</time>
      </trkpt>
      <trkpt lat="47.03675" lon="-1.64123">
        <ele>7</ele>
        <time>2021-05-15T03:33:16.046Z</time>
      </trkpt>
      <trkpt lat="47.03689" lon="-1.64119">
        <ele>6.9</ele>
        <time>2021-05-15T03:33:18.027Z</time>
      </trkpt>
      <trkpt lat="47.03703" lon="-1.64116">
        <ele>6.8</ele>
        <time>2021-05-15T03:33:19.992Z</time>
      </trkpt>
      <trkpt lat="47.03717" lon="-1.64113">
        <ele>6.8</ele>
        <time>2021-05-15T03:33:21.957Z</time>
      </trkpt>
      <trkpt lat="47.0373" lon="-1.64109">
        <ele>6.8</ele>
        <time>2021-05-15T03:33:22.985Z</time>
      </trkpt>
      <trkpt lat="47.03744" lon="-1.64106">
        <ele>6.7</ele>
        <time>2021-05-15T03:33:24.950Z</time>
      </trkpt>
      <trkpt lat="47.03758" lon="-1.64104">
        <ele>6.7</ele>
        <time>2021-05-15T03:33:26.038Z</time>
      </trkpt>
      <trkpt lat="47.03771" lon="-1.641">
        <ele>6.7</ele>
        <time>2021-05-15T03:33:29.904Z</time>
      </trkpt>
      <trkpt lat="47.03785" lon="-1.64097">
        <ele>6.8</ele>
        <time>2021-05-15T03:33:31.869Z</time>
      </trkpt>
      <trkpt lat="47.03798" lon="-1.64094">
        <ele>6.8</ele>
        <time>2021-05-15T03:33:33.697Z</time>
      </trkpt>
      <trkpt lat="47.03818" lon="-1.6409">
        <ele>6.9</ele>
        <time>2021-05-15T03:33:35.341Z</time>
      </trkpt>
      <trkpt lat="47.03831" lon="-1.64088">
        <ele>6.9</ele>
        <time>2021-05-15T03:33:39.183Z</time>
      </trkpt>
      <trkpt lat="47.03843" lon="-1.64084">
        <ele>6.8</ele>
        <time>2021-05-15T03:33:40.892Z</time>
      </trkpt>
      <trkpt lat="47.03857" lon="-1.64085">
        <ele>6.4</ele>
        <time>2021-05-15T03:33:41.976Z</time>
      </trkpt>
      <trkpt lat="47.03869" lon="-1.64092">
        <ele>6</ele>
        <time>2021-05-15T03:33:45.799Z</time>
      </trkpt>
      <trkpt lat="47.03882" lon="-1.64097">
        <ele>5.6</ele>
        <time>2021-05-15T03:33:47.666Z</time>
      </trkpt>
      <trkpt lat="47.03895" lon="-1.64102">
        <ele>5.2</ele>
        <time>2021-05-15T03:33:49.532Z</time>
      </trkpt>
      <trkpt lat="47.03907" lon="-1.6411">
        <ele>4.9</ele>
        <time>2021-05-15T03:33:51.363Z</time>
      </trkpt>
      <trkpt lat="47.03925" lon="-1.64122">
        <ele>4.5</ele>
        <time>2021-05-15T03:33:54.109Z</time>
      </trkpt>
      <trkpt lat="47.03938" lon="-1.64129">
        <ele>4.3</ele>
        <time>2021-05-15T03:33:56.032Z</time>
      </trkpt>
      <trkpt lat="47.0395" lon="-1.64136">
        <ele>4.1</ele>
        <time>2021-05-15T03:33:57.031Z</time>
      </trkpt>
      <trkpt lat="47.03963" lon="-1.6414">
        <ele>3.9</ele>
        <time>2021-05-15T03:34:00.897Z</time>
      </trkpt>
      <trkpt lat="47.03984" lon="-1.64139">
        <ele>3.8</ele>
        <time>2021-05-15T03:34:03.815Z</time>
      </trkpt>
      <trkpt lat="47.03996" lon="-1.64134">
        <ele>3.8</ele>
        <time>2021-05-15T03:34:10.497Z</time>
      </trkpt>
      <trkpt lat="47.04009" lon="-1.64127">
        <ele>4</ele>
        <time>2021-05-15T03:34:12.421Z</time>
      </trkpt>
      <trkpt lat="47.0402" lon="-1.64121">
        <ele>4.1</ele>
        <time>2021-05-15T03:34:13.329Z</time>
      </trkpt>
      <trkpt lat="47.04033" lon="-1.64115">
        <ele>4.2</ele>
        <time>2021-05-15T03:34:14.383Z</time>
      </trkpt>
      <trkpt lat="47.04053" lon="-1.64105">
        <ele>4.5</ele>
        <time>2021-05-15T03:34:16.138Z</time>
      </trkpt>
      <trkpt lat="47.04067" lon="-1.64099">
        <ele>4.6</ele>
        <time>2021-05-15T03:34:18.164Z</time>
      </trkpt>
      <trkpt lat="47.04081" lon="-1.64093">
        <ele>4.8</ele>
        <time>2021-05-15T03:34:19.292Z</time>
      </trkpt>
      <trkpt lat="47.04103" lon="-1.64084">
        <ele>4.5</ele>
        <time>2021-05-15T03:34:22.464Z</time>
      </trkpt>
      <trkpt lat="47.04116" lon="-1.64078">
        <ele>4.2</ele>
        <time>2021-05-15T03:34:24.357Z</time>
      </trkpt>
      <trkpt lat="47.04138" lon="-1.64068">
        <ele>3.7</ele>
        <time>2021-05-15T03:34:27.555Z</time>
      </trkpt>
      <trkpt lat="47.04151" lon="-1.64061">
        <ele>3.5</ele>
        <time>2021-05-15T03:34:29.479Z</time>
      </trkpt>
      <trkpt lat="47.04164" lon="-1.64056">
        <ele>3.4</ele>
        <time>2021-05-15T03:34:30.518Z</time>
      </trkpt>
      <trkpt lat="47.04177" lon="-1.6405">
        <ele>3.4</ele>
        <time>2021-05-15T03:34:32.411Z</time>
      </trkpt>
      <trkpt lat="47.0419" lon="-1.64044">
        <ele>3.6</ele>
        <time>2021-05-15T03:34:34.304Z</time>
      </trkpt>
      <trkpt lat="47.04209" lon="-1.64036">
        <ele>3.9</ele>
        <time>2021-05-15T03:34:39.122Z</time>
      </trkpt>
      <trkpt lat="47.04229" lon="-1.64027">
        <ele>4.4</ele>
        <time>2021-05-15T03:34:40.853Z</time>
      </trkpt>
      <trkpt lat="47.04248" lon="-1.64019">
        <ele>5.1</ele>
        <time>2021-05-15T03:34:43.598Z</time>
      </trkpt>
      <trkpt lat="47.04261" lon="-1.64013">
        <ele>5.3</ele>
        <time>2021-05-15T03:34:45.491Z</time>
      </trkpt>
      <trkpt lat="47.04273" lon="-1.64007">
        <ele>5.5</ele>
        <time>2021-05-15T03:34:47.251Z</time>
      </trkpt>
      <trkpt lat="47.04285" lon="-1.64002">
        <ele>5.5</ele>
        <time>2021-05-15T03:34:51.027Z</time>
      </trkpt>
      <trkpt lat="47.04297" lon="-1.63997">
        <ele>5.4</ele>
        <time>2021-05-15T03:34:52.759Z</time>
      </trkpt>
      <trkpt lat="47.04309" lon="-1.63992">
        <ele>5.3</ele>
        <time>2021-05-15T03:34:54.492Z</time>
      </trkpt>
      <trkpt lat="47.04328" lon="-1.63983">
        <ele>5.1</ele>
        <time>2021-05-15T03:34:57.264Z</time>
      </trkpt>
      <trkpt lat="47.04341" lon="-1.63977">
        <ele>5</ele>
        <time>2021-05-15T03:34:59.157Z</time>
      </trkpt>
      <trkpt lat="47.04353" lon="-1.63971">
        <ele>4.9</ele>
        <time>2021-05-15T03:35:00.918Z</time>
      </trkpt>
      <trkpt lat="47.04366" lon="-1.63966">
        <ele>4.9</ele>
        <time>2021-05-15T03:35:02.784Z</time>
      </trkpt>
      <trkpt lat="47.04378" lon="-1.63961">
        <ele>5</ele>
        <time>2021-05-15T03:35:04.517Z</time>
      </trkpt>
      <trkpt lat="47.0439" lon="-1.63956">
        <ele>5</ele>
        <time>2021-05-15T03:35:06.249Z</time>
      </trkpt>
      <trkpt lat="47.04403" lon="-1.63949">
        <ele>5.2</ele>
        <time>2021-05-15T03:35:08.172Z</time>
      </trkpt>
      <trkpt lat="47.04416" lon="-1.63943">
        <ele>5.4</ele>
        <time>2021-05-15T03:35:10.065Z</time>
      </trkpt>
      <trkpt lat="47.04429" lon="-1.63938">
        <ele>5.2</ele>
        <time>2021-05-15T03:35:11.105Z</time>
      </trkpt>
      <trkpt lat="47.04441" lon="-1.63932">
        <ele>5.1</ele>
        <time>2021-05-15T03:35:12.865Z</time>
      </trkpt>
      <trkpt lat="47.04459" lon="-1.63922">
        <ele>4.9</ele>
        <time>2021-05-15T03:35:15.538Z</time>
      </trkpt>
      <trkpt lat="47.0447" lon="-1.63911">
        <ele>4.7</ele>
        <time>2021-05-15T03:35:17.387Z</time>
      </trkpt>
      <trkpt lat="47.04483" lon="-1.63907">
        <ele>4.4</ele>
        <time>2021-05-15T03:35:21.253Z</time>
      </trkpt>
      <trkpt lat="47.04495" lon="-1.63904">
        <ele>4.2</ele>
        <time>2021-05-15T03:35:22.195Z</time>
      </trkpt>
      <trkpt lat="47.04507" lon="-1.63896">
        <ele>4.2</ele>
        <time>2021-05-15T03:35:24.025Z</time>
      </trkpt>
      <trkpt lat="47.04526" lon="-1.63884">
        <ele>4.1</ele>
        <time>2021-05-15T03:35:26.898Z</time>
      </trkpt>
      <trkpt lat="47.04538" lon="-1.63877">
        <ele>4</ele>
        <time>2021-05-15T03:35:28.692Z</time>
      </trkpt>
      <trkpt lat="47.0455" lon="-1.63869">
        <ele>4</ele>
        <time>2021-05-15T03:35:30.522Z</time>
      </trkpt>
      <trkpt lat="47.04563" lon="-1.63861">
        <ele>3.9</ele>
        <time>2021-05-15T03:35:32.480Z</time>
      </trkpt>
      <trkpt lat="47.04575" lon="-1.63854">
        <ele>3.9</ele>
        <time>2021-05-15T03:35:34.273Z</time>
      </trkpt>
      <trkpt lat="47.04587" lon="-1.63848">
        <ele>3.9</ele>
        <time>2021-05-15T03:35:38.070Z</time>
      </trkpt>
      <trkpt lat="47.04599" lon="-1.63844">
        <ele>4.1</ele>
        <time>2021-05-15T03:35:39.779Z</time>
      </trkpt>
      <trkpt lat="47.04611" lon="-1.63841">
        <ele>4.3</ele>
        <time>2021-05-15T03:35:41.470Z</time>
      </trkpt>
      <trkpt lat="47.04622" lon="-1.63839">
        <ele>4.4</ele>
        <time>2021-05-15T03:35:43.009Z</time>
      </trkpt>
      <trkpt lat="47.04633" lon="-1.63838">
        <ele>4.6</ele>
        <time>2021-05-15T03:35:46.660Z</time>
      </trkpt>
      <trkpt lat="47.04644" lon="-1.63836">
        <ele>4.7</ele>
        <time>2021-05-15T03:35:48.199Z</time>
      </trkpt>
      <trkpt lat="47.04655" lon="-1.63831">
        <ele>4.9</ele>
        <time>2021-05-15T03:35:51.886Z</time>
      </trkpt>
      <trkpt lat="47.04665" lon="-1.63824">
        <ele>5</ele>
        <time>2021-05-15T03:35:53.424Z</time>
      </trkpt>
      <trkpt lat="47.04675" lon="-1.63818">
        <ele>5.1</ele>
        <time>2021-05-15T03:35:54.925Z</time>
      </trkpt>
      <trkpt lat="47.04686" lon="-1.63812">
        <ele>5.2</ele>
        <time>2021-05-15T03:35:58.629Z</time>
      </trkpt>
      <trkpt lat="47.04696" lon="-1.63807">
        <ele>5.2</ele>
        <time>2021-05-15T03:36:00.096Z</time>
      </trkpt>
      <trkpt lat="47.04707" lon="-1.63803">
        <ele>5.3</ele>
        <time>2021-05-15T03:36:03.769Z</time>
      </trkpt>
      <trkpt lat="47.04718" lon="-1.63797">
        <ele>5.3</ele>
        <time>2021-05-15T03:36:05.398Z</time>
      </trkpt>
      <trkpt lat="47.0473" lon="-1.63796">
        <ele>5.4</ele>
        <time>2021-05-15T03:36:07.068Z</time>
      </trkpt>
      <trkpt lat="47.04742" lon="-1.63798">
        <ele>5.5</ele>
        <time>2021-05-15T03:36:10.803Z</time>
      </trkpt>
      <trkpt lat="47.0476" lon="-1.63792">
        <ele>5.6</ele>
        <time>2021-05-15T03:36:13.367Z</time>
      </trkpt>
      <trkpt lat="47.04772" lon="-1.63787">
        <ele>5.7</ele>
        <time>2021-05-15T03:36:17.142Z</time>
      </trkpt>
      <trkpt lat="47.04784" lon="-1.63783">
        <ele>5.8</ele>
        <time>2021-05-15T03:36:18.851Z</time>
      </trkpt>
      <trkpt lat="47.04795" lon="-1.6378">
        <ele>5.9</ele>
        <time>2021-05-15T03:36:22.513Z</time>
      </trkpt>
      <trkpt lat="47.04806" lon="-1.63777">
        <ele>6</ele>
        <time>2021-05-15T03:36:24.067Z</time>
      </trkpt>
      <trkpt lat="47.04817" lon="-1.63775">
        <ele>6.1</ele>
        <time>2021-05-15T03:36:25.606Z</time>
      </trkpt>
      <trkpt lat="47.04828" lon="-1.63773">
        <ele>6.2</ele>
        <time>2021-05-15T03:36:27.146Z</time>
      </trkpt>
      <trkpt lat="47.04839" lon="-1.63771">
        <ele>6.2</ele>
        <time>2021-05-15T03:36:28.685Z</time>
      </trkpt>
      <trkpt lat="47.04851" lon="-1.63769">
        <ele>6</ele>
        <time>2021-05-15T03:36:30.362Z</time>
      </trkpt>
      <trkpt lat="47.04862" lon="-1.63767">
        <ele>5.8</ele>
        <time>2021-05-15T03:36:31.902Z</time>
      </trkpt>
      <trkpt lat="47.04874" lon="-1.63764">
        <ele>5.6</ele>
        <time>2021-05-15T03:36:33.592Z</time>
      </trkpt>
      <trkpt lat="47.04886" lon="-1.63762">
        <ele>5.4</ele>
        <time>2021-05-15T03:36:35.269Z</time>
      </trkpt>
      <trkpt lat="47.04899" lon="-1.6376">
        <ele>5.2</ele>
        <time>2021-05-15T03:36:36.281Z</time>
      </trkpt>
      <trkpt lat="47.04912" lon="-1.63757">
        <ele>5.1</ele>
        <time>2021-05-15T03:36:38.108Z</time>
      </trkpt>
      <trkpt lat="47.04924" lon="-1.63752">
        <ele>5</ele>
        <time>2021-05-15T03:36:39.841Z</time>
      </trkpt>
      <trkpt lat="47.04936" lon="-1.63744">
        <ele>5</ele>
        <time>2021-05-15T03:36:41.671Z</time>
      </trkpt>
      <trkpt lat="47.04945" lon="-1.63729">
        <ele>4.9</ele>
        <time>2021-05-15T03:36:43.563Z</time>
      </trkpt>
      <trkpt lat="47.04948" lon="-1.63711">
        <ele>4.8</ele>
        <time>2021-05-15T03:36:44.540Z</time>
      </trkpt>
      <trkpt lat="47.04949" lon="-1.63692">
        <ele>4.7</ele>
        <time>2021-05-15T03:36:46.343Z</time>
      </trkpt>
      <trkpt lat="47.04948" lon="-1.63673">
        <ele>4.7</ele>
        <time>2021-05-15T03:36:48.146Z</time>
      </trkpt>
      <trkpt lat="47.04947" lon="-1.63653">
        <ele>4.7</ele>
        <time>2021-05-15T03:36:49.204Z</time>
      </trkpt>
      <trkpt lat="47.04949" lon="-1.63633">
        <ele>4.8</ele>
        <time>2021-05-15T03:36:51.116Z</time>
      </trkpt>
      <trkpt lat="47.04954" lon="-1.63612">
        <ele>4.8</ele>
        <time>2021-05-15T03:36:52.196Z</time>
      </trkpt>
      <trkpt lat="47.04962" lon="-1.63594">
        <ele>4.9</ele>
        <time>2021-05-15T03:36:54.230Z</time>
      </trkpt>
      <trkpt lat="47.04972" lon="-1.63577">
        <ele>4.9</ele>
        <time>2021-05-15T03:36:55.326Z</time>
      </trkpt>
      <trkpt lat="47.04985" lon="-1.63564">
        <ele>4.9</ele>
        <time>2021-05-15T03:36:57.511Z</time>
      </trkpt>
      <trkpt lat="47.04998" lon="-1.63554">
        <ele>5</ele>
        <time>2021-05-15T03:36:59.549Z</time>
      </trkpt>
      <trkpt lat="47.05012" lon="-1.63547">
        <ele>5.1</ele>
        <time>2021-05-15T03:37:01.603Z</time>
      </trkpt>
      <trkpt lat="47.05025" lon="-1.63541">
        <ele>5.1</ele>
        <time>2021-05-15T03:37:02.657Z</time>
      </trkpt>
      <trkpt lat="47.05039" lon="-1.63536">
        <ele>5.2</ele>
        <time>2021-05-15T03:37:04.659Z</time>
      </trkpt>
      <trkpt lat="47.05052" lon="-1.63531">
        <ele>5.2</ele>
        <time>2021-05-15T03:37:06.525Z</time>
      </trkpt>
      <trkpt lat="47.05065" lon="-1.63526">
        <ele>5.2</ele>
        <time>2021-05-15T03:37:08.391Z</time>
      </trkpt>
      <trkpt lat="47.05078" lon="-1.63521">
        <ele>5.2</ele>
        <time>2021-05-15T03:37:10.258Z</time>
      </trkpt>
      <trkpt lat="47.05091" lon="-1.63516">
        <ele>5.1</ele>
        <time>2021-05-15T03:37:12.124Z</time>
      </trkpt>
      <trkpt lat="47.05103" lon="-1.63511">
        <ele>4.9</ele>
        <time>2021-05-15T03:37:13.857Z</time>
      </trkpt>
      <trkpt lat="47.05116" lon="-1.63506">
        <ele>4.7</ele>
        <time>2021-05-15T03:37:15.723Z</time>
      </trkpt>
      <trkpt lat="47.0513" lon="-1.63501">
        <ele>4.4</ele>
        <time>2021-05-15T03:37:17.724Z</time>
      </trkpt>
      <trkpt lat="47.05143" lon="-1.63496">
        <ele>4.3</ele>
        <time>2021-05-15T03:37:19.590Z</time>
      </trkpt>
      <trkpt lat="47.05156" lon="-1.6349">
        <ele>4.1</ele>
        <time>2021-05-15T03:37:21.483Z</time>
      </trkpt>
      <trkpt lat="47.05169" lon="-1.63485">
        <ele>4</ele>
        <time>2021-05-15T03:37:23.350Z</time>
      </trkpt>
      <trkpt lat="47.05182" lon="-1.63479">
        <ele>4</ele>
        <time>2021-05-15T03:37:25.242Z</time>
      </trkpt>
      <trkpt lat="47.05196" lon="-1.63474">
        <ele>4.1</ele>
        <time>2021-05-15T03:37:27.243Z</time>
      </trkpt>
      <trkpt lat="47.05209" lon="-1.63469">
        <ele>4.2</ele>
        <time>2021-05-15T03:37:29.110Z</time>
      </trkpt>
      <trkpt lat="47.05223" lon="-1.63465">
        <ele>4.3</ele>
        <time>2021-05-15T03:37:31.090Z</time>
      </trkpt>
      <trkpt lat="47.05236" lon="-1.63461">
        <ele>4.4</ele>
        <time>2021-05-15T03:37:32.935Z</time>
      </trkpt>
      <trkpt lat="47.05249" lon="-1.63457">
        <ele>4.5</ele>
        <time>2021-05-15T03:37:34.780Z</time>
      </trkpt>
      <trkpt lat="47.05261" lon="-1.63454">
        <ele>4.4</ele>
        <time>2021-05-15T03:37:38.525Z</time>
      </trkpt>
      <trkpt lat="47.05274" lon="-1.63451">
        <ele>4.2</ele>
        <time>2021-05-15T03:37:40.352Z</time>
      </trkpt>
      <trkpt lat="47.05286" lon="-1.63448">
        <ele>4.1</ele>
        <time>2021-05-15T03:37:42.043Z</time>
      </trkpt>
      <trkpt lat="47.05299" lon="-1.63446">
        <ele>3.9</ele>
        <time>2021-05-15T03:37:43.054Z</time>
      </trkpt>
      <trkpt lat="47.05311" lon="-1.63446">
        <ele>3.7</ele>
        <time>2021-05-15T03:37:44.721Z</time>
      </trkpt>
      <trkpt lat="47.05324" lon="-1.63444">
        <ele>3.5</ele>
        <time>2021-05-15T03:37:46.536Z</time>
      </trkpt>
      <trkpt lat="47.05336" lon="-1.63444">
        <ele>3.3</ele>
        <time>2021-05-15T03:37:48.203Z</time>
      </trkpt>
      <trkpt lat="47.05348" lon="-1.63442">
        <ele>3.4</ele>
        <time>2021-05-15T03:37:49.880Z</time>
      </trkpt>
      <trkpt lat="47.0536" lon="-1.63437">
        <ele>3.5</ele>
        <time>2021-05-15T03:37:51.613Z</time>
      </trkpt>
      <trkpt lat="47.05371" lon="-1.6343">
        <ele>3.5</ele>
        <time>2021-05-15T03:37:53.278Z</time>
      </trkpt>
      <trkpt lat="47.05384" lon="-1.63428">
        <ele>3.7</ele>
        <time>2021-05-15T03:37:55.093Z</time>
      </trkpt>
      <trkpt lat="47.05397" lon="-1.63432">
        <ele>3.8</ele>
        <time>2021-05-15T03:37:56.938Z</time>
      </trkpt>
      <trkpt lat="47.05411" lon="-1.63431">
        <ele>3.9</ele>
        <time>2021-05-15T03:37:58.884Z</time>
      </trkpt>
      <trkpt lat="47.05424" lon="-1.63428">
        <ele>4</ele>
        <time>2021-05-15T03:38:02.736Z</time>
      </trkpt>
      <trkpt lat="47.05436" lon="-1.63425">
        <ele>4</ele>
        <time>2021-05-15T03:38:04.426Z</time>
      </trkpt>
      <trkpt lat="47.05449" lon="-1.63423">
        <ele>4</ele>
        <time>2021-05-15T03:38:05.438Z</time>
      </trkpt>
      <trkpt lat="47.05462" lon="-1.63421">
        <ele>4</ele>
        <time>2021-05-15T03:38:07.253Z</time>
      </trkpt>
      <trkpt lat="47.05475" lon="-1.63418">
        <ele>4</ele>
        <time>2021-05-15T03:38:09.081Z</time>
      </trkpt>
      <trkpt lat="47.05488" lon="-1.63416">
        <ele>4</ele>
        <time>2021-05-15T03:38:10.896Z</time>
      </trkpt>
      <trkpt lat="47.05502" lon="-1.63415">
        <ele>4</ele>
        <time>2021-05-15T03:38:12.843Z</time>
      </trkpt>
      <trkpt lat="47.05516" lon="-1.63413">
        <ele>4</ele>
        <time>2021-05-15T03:38:14.796Z</time>
      </trkpt>
      <trkpt lat="47.05529" lon="-1.63409">
        <ele>4</ele>
        <time>2021-05-15T03:38:16.641Z</time>
      </trkpt>
      <trkpt lat="47.05542" lon="-1.63405">
        <ele>4.1</ele>
        <time>2021-05-15T03:38:18.486Z</time>
      </trkpt>
      <trkpt lat="47.05555" lon="-1.63401">
        <ele>4.1</ele>
        <time>2021-05-15T03:38:20.330Z</time>
      </trkpt>
      <trkpt lat="47.05568" lon="-1.63395">
        <ele>4.2</ele>
        <time>2021-05-15T03:38:22.223Z</time>
      </trkpt>
      <trkpt lat="47.0558" lon="-1.6339">
        <ele>4.3</ele>
        <time>2021-05-15T03:38:25.998Z</time>
      </trkpt>
      <trkpt lat="47.05593" lon="-1.63384">
        <ele>4.2</ele>
        <time>2021-05-15T03:38:27.891Z</time>
      </trkpt>
      <trkpt lat="47.05605" lon="-1.63378">
        <ele>4.1</ele>
        <time>2021-05-15T03:38:29.652Z</time>
      </trkpt>
      <trkpt lat="47.05617" lon="-1.63372">
        <ele>3.9</ele>
        <time>2021-05-15T03:38:31.412Z</time>
      </trkpt>
      <trkpt lat="47.0563" lon="-1.63366">
        <ele>3.7</ele>
        <time>2021-05-15T03:38:32.467Z</time>
      </trkpt>
      <trkpt lat="47.05642" lon="-1.63361">
        <ele>3.5</ele>
        <time>2021-05-15T03:38:34.199Z</time>
      </trkpt>
      <trkpt lat="47.05653" lon="-1.63356">
        <ele>3.3</ele>
        <time>2021-05-15T03:38:37.885Z</time>
      </trkpt>
      <trkpt lat="47.05665" lon="-1.6335">
        <ele>3</ele>
        <time>2021-05-15T03:38:39.646Z</time>
      </trkpt>
      <trkpt lat="47.05677" lon="-1.63345">
        <ele>2.9</ele>
        <time>2021-05-15T03:38:41.378Z</time>
      </trkpt>
      <trkpt lat="47.05689" lon="-1.63339">
        <ele>2.8</ele>
        <time>2021-05-15T03:38:43.139Z</time>
      </trkpt>
      <trkpt lat="47.05702" lon="-1.63333">
        <ele>2.6</ele>
        <time>2021-05-15T03:38:44.193Z</time>
      </trkpt>
      <trkpt lat="47.05715" lon="-1.63327">
        <ele>2.5</ele>
        <time>2021-05-15T03:38:46.086Z</time>
      </trkpt>
      <trkpt lat="47.05727" lon="-1.63322">
        <ele>2.4</ele>
        <time>2021-05-15T03:38:49.861Z</time>
      </trkpt>
      <trkpt lat="47.0574" lon="-1.63316">
        <ele>2.4</ele>
        <time>2021-05-15T03:38:51.754Z</time>
      </trkpt>
      <trkpt lat="47.05752" lon="-1.6331">
        <ele>2.3</ele>
        <time>2021-05-15T03:38:53.515Z</time>
      </trkpt>
      <trkpt lat="47.05765" lon="-1.63305">
        <ele>2.5</ele>
        <time>2021-05-15T03:38:55.381Z</time>
      </trkpt>
      <trkpt lat="47.05778" lon="-1.63299">
        <ele>2.7</ele>
        <time>2021-05-15T03:38:57.274Z</time>
      </trkpt>
      <trkpt lat="47.05791" lon="-1.63292">
        <ele>3</ele>
        <time>2021-05-15T03:38:59.197Z</time>
      </trkpt>
      <trkpt lat="47.05803" lon="-1.63286">
        <ele>3.2</ele>
        <time>2021-05-15T03:39:00.957Z</time>
      </trkpt>
      <trkpt lat="47.05815" lon="-1.6328">
        <ele>3.4</ele>
        <time>2021-05-15T03:39:02.718Z</time>
      </trkpt>
      <trkpt lat="47.05827" lon="-1.63274">
        <ele>3.6</ele>
        <time>2021-05-15T03:39:04.479Z</time>
      </trkpt>
      <trkpt lat="47.0584" lon="-1.63268">
        <ele>3.8</ele>
        <time>2021-05-15T03:39:06.371Z</time>
      </trkpt>
      <trkpt lat="47.05853" lon="-1.63262">
        <ele>3.9</ele>
        <time>2021-05-15T03:39:08.264Z</time>
      </trkpt>
      <trkpt lat="47.05865" lon="-1.63256">
        <ele>4</ele>
        <time>2021-05-15T03:39:10.024Z</time>
      </trkpt>
      <trkpt lat="47.05878" lon="-1.6325">
        <ele>4</ele>
        <time>2021-05-15T03:39:11.917Z</time>
      </trkpt>
      <trkpt lat="47.05891" lon="-1.63244">
        <ele>4.1</ele>
        <time>2021-05-15T03:39:13.809Z</time>
      </trkpt>
      <trkpt lat="47.05904" lon="-1.63238">
        <ele>4.2</ele>
        <time>2021-05-15T03:39:15.702Z</time>
      </trkpt>
      <trkpt lat="47.05916" lon="-1.63233">
        <ele>4.2</ele>
        <time>2021-05-15T03:39:17.434Z</time>
      </trkpt>
      <trkpt lat="47.05928" lon="-1.63227">
        <ele>4.2</ele>
        <time>2021-05-15T03:39:19.195Z</time>
      </trkpt>
      <trkpt lat="47.05941" lon="-1.63221">
        <ele>4.2</ele>
        <time>2021-05-15T03:39:21.088Z</time>
      </trkpt>
      <trkpt lat="47.05953" lon="-1.63215">
        <ele>4.2</ele>
        <time>2021-05-15T03:39:22.848Z</time>
      </trkpt>
      <trkpt lat="47.05966" lon="-1.63209">
        <ele>4.2</ele>
        <time>2021-05-15T03:39:24.741Z</time>
      </trkpt>
      <trkpt lat="47.05978" lon="-1.63203">
        <ele>4.1</ele>
        <time>2021-05-15T03:39:26.501Z</time>
      </trkpt>
      <trkpt lat="47.05991" lon="-1.63197">
        <ele>4.1</ele>
        <time>2021-05-15T03:39:28.394Z</time>
      </trkpt>
      <trkpt lat="47.06003" lon="-1.63191">
        <ele>4</ele>
        <time>2021-05-15T03:39:30.155Z</time>
      </trkpt>
      <trkpt lat="47.06015" lon="-1.63186">
        <ele>3.9</ele>
        <time>2021-05-15T03:39:31.887Z</time>
      </trkpt>
      <trkpt lat="47.06027" lon="-1.63183">
        <ele>3.8</ele>
        <time>2021-05-15T03:39:33.578Z</time>
      </trkpt>
      <trkpt lat="47.06038" lon="-1.63179">
        <ele>3.7</ele>
        <time>2021-05-15T03:39:35.151Z</time>
      </trkpt>
      <trkpt lat="47.0605" lon="-1.63175">
        <ele>3.5</ele>
        <time>2021-05-15T03:39:36.860Z</time>
      </trkpt>
      <trkpt lat="47.06056" lon="-1.63189">
        <ele>3.7</ele>
        <time>2021-05-15T03:39:38.425Z</time>
      </trkpt>
      <trkpt lat="47.06054" lon="-1.63208">
        <ele>4</ele>
        <time>2021-05-15T03:39:40.244Z</time>
      </trkpt>
      <trkpt lat="47.06051" lon="-1.63227">
        <ele>4.3</ele>
        <time>2021-05-15T03:39:42.089Z</time>
      </trkpt>
      <trkpt lat="47.06048" lon="-1.63246">
        <ele>4.5</ele>
        <time>2021-05-15T03:39:43.935Z</time>
      </trkpt>
      <trkpt lat="47.06045" lon="-1.63265">
        <ele>4.4</ele>
        <time>2021-05-15T03:39:47.801Z</time>
      </trkpt>
      <trkpt lat="47.06043" lon="-1.63284">
        <ele>4.3</ele>
        <time>2021-05-15T03:39:48.815Z</time>
      </trkpt>
      <trkpt lat="47.06041" lon="-1.63302">
        <ele>4.2</ele>
        <time>2021-05-15T03:39:50.540Z</time>
      </trkpt>
      <trkpt lat="47.06047" lon="-1.63318">
        <ele>4.1</ele>
        <time>2021-05-15T03:39:54.312Z</time>
      </trkpt>
      <trkpt lat="47.06059" lon="-1.63325">
        <ele>4.1</ele>
        <time>2021-05-15T03:39:55.311Z</time>
      </trkpt>
      <trkpt lat="47.06071" lon="-1.63328">
        <ele>4.1</ele>
        <time>2021-05-15T03:39:57.002Z</time>
      </trkpt>
      <trkpt lat="47.06082" lon="-1.63333">
        <ele>4</ele>
        <time>2021-05-15T03:39:58.601Z</time>
      </trkpt>
      <trkpt lat="47.06094" lon="-1.63337">
        <ele>4</ele>
        <time>2021-05-15T03:40:00.310Z</time>
      </trkpt>
      <trkpt lat="47.06105" lon="-1.63342">
        <ele>4.1</ele>
        <time>2021-05-15T03:40:01.909Z</time>
      </trkpt>
      <trkpt lat="47.06116" lon="-1.63346">
        <ele>4.2</ele>
        <time>2021-05-15T03:40:03.483Z</time>
      </trkpt>
      <trkpt lat="47.06128" lon="-1.6335">
        <ele>4.3</ele>
        <time>2021-05-15T03:40:05.192Z</time>
      </trkpt>
      <trkpt lat="47.0614" lon="-1.63354">
        <ele>4.4</ele>
        <time>2021-05-15T03:40:06.901Z</time>
      </trkpt>
      <trkpt lat="47.06152" lon="-1.63359">
        <ele>4.6</ele>
        <time>2021-05-15T03:40:08.634Z</time>
      </trkpt>
      <trkpt lat="47.06163" lon="-1.63364">
        <ele>4.7</ele>
        <time>2021-05-15T03:40:10.233Z</time>
      </trkpt>
      <trkpt lat="47.06175" lon="-1.63368">
        <ele>4.9</ele>
        <time>2021-05-15T03:40:11.942Z</time>
      </trkpt>
      <trkpt lat="47.06186" lon="-1.63373">
        <ele>5.1</ele>
        <time>2021-05-15T03:40:12.833Z</time>
      </trkpt>
      <trkpt lat="47.06198" lon="-1.63378">
        <ele>5.2</ele>
        <time>2021-05-15T03:40:16.608Z</time>
      </trkpt>
      <trkpt lat="47.0621" lon="-1.63382">
        <ele>5.3</ele>
        <time>2021-05-15T03:40:18.317Z</time>
      </trkpt>
      <trkpt lat="47.06222" lon="-1.63387">
        <ele>5.3</ele>
        <time>2021-05-15T03:40:20.050Z</time>
      </trkpt>
      <trkpt lat="47.06234" lon="-1.63392">
        <ele>5.3</ele>
        <time>2021-05-15T03:40:21.782Z</time>
      </trkpt>
      <trkpt lat="47.06246" lon="-1.63396">
        <ele>5.3</ele>
        <time>2021-05-15T03:40:23.491Z</time>
      </trkpt>
      <trkpt lat="47.06257" lon="-1.634">
        <ele>5.3</ele>
        <time>2021-05-15T03:40:25.065Z</time>
      </trkpt>
      <trkpt lat="47.06269" lon="-1.63405">
        <ele>5.3</ele>
        <time>2021-05-15T03:40:26.797Z</time>
      </trkpt>
      <trkpt lat="47.0628" lon="-1.6341">
        <ele>5.4</ele>
        <time>2021-05-15T03:40:28.397Z</time>
      </trkpt>
      <trkpt lat="47.06292" lon="-1.63414">
        <ele>5.5</ele>
        <time>2021-05-15T03:40:30.106Z</time>
      </trkpt>
      <trkpt lat="47.06303" lon="-1.6342">
        <ele>5.6</ele>
        <time>2021-05-15T03:40:31.735Z</time>
      </trkpt>
      <trkpt lat="47.06315" lon="-1.63425">
        <ele>5.7</ele>
        <time>2021-05-15T03:40:33.468Z</time>
      </trkpt>
      <trkpt lat="47.06326" lon="-1.63432">
        <ele>5.7</ele>
        <time>2021-05-15T03:40:35.133Z</time>
      </trkpt>
      <trkpt lat="47.06336" lon="-1.63442">
        <ele>5.6</ele>
        <time>2021-05-15T03:40:36.813Z</time>
      </trkpt>
      <trkpt lat="47.06345" lon="-1.63453">
        <ele>5.3</ele>
        <time>2021-05-15T03:40:38.440Z</time>
      </trkpt>
      <trkpt lat="47.06354" lon="-1.63464">
        <ele>5.1</ele>
        <time>2021-05-15T03:40:40.066Z</time>
      </trkpt>
      <trkpt lat="47.06362" lon="-1.63476">
        <ele>4.8</ele>
        <time>2021-05-15T03:40:43.746Z</time>
      </trkpt>
      <trkpt lat="47.06369" lon="-1.6349">
        <ele>4.6</ele>
        <time>2021-05-15T03:40:44.661Z</time>
      </trkpt>
      <trkpt lat="47.06375" lon="-1.63505">
        <ele>4.4</ele>
        <time>2021-05-15T03:40:46.307Z</time>
      </trkpt>
      <trkpt lat="47.06383" lon="-1.63519">
        <ele>4.2</ele>
        <time>2021-05-15T03:40:48.036Z</time>
      </trkpt>
      <trkpt lat="47.06392" lon="-1.63528">
        <ele>4</ele>
        <time>2021-05-15T03:40:49.548Z</time>
      </trkpt>
      <trkpt lat="47.06402" lon="-1.63537">
        <ele>3.7</ele>
        <time>2021-05-15T03:40:51.177Z</time>
      </trkpt>
      <trkpt lat="47.06412" lon="-1.63545">
        <ele>3.5</ele>
        <time>2021-05-15T03:40:52.759Z</time>
      </trkpt>
      <trkpt lat="47.06422" lon="-1.63554">
        <ele>3.4</ele>
        <time>2021-05-15T03:40:54.388Z</time>
      </trkpt>
      <trkpt lat="47.06432" lon="-1.63563">
        <ele>3.4</ele>
        <time>2021-05-15T03:40:56.017Z</time>
      </trkpt>
      <trkpt lat="47.06443" lon="-1.63571">
        <ele>3.4</ele>
        <time>2021-05-15T03:40:56.967Z</time>
      </trkpt>
      <trkpt lat="47.06453" lon="-1.6358">
        <ele>3.5</ele>
        <time>2021-05-15T03:40:58.596Z</time>
      </trkpt>
      <trkpt lat="47.06463" lon="-1.63589">
        <ele>3.5</ele>
        <time>2021-05-15T03:41:00.225Z</time>
      </trkpt>
      <trkpt lat="47.06473" lon="-1.63598">
        <ele>3.6</ele>
        <time>2021-05-15T03:41:01.854Z</time>
      </trkpt>
      <trkpt lat="47.06483" lon="-1.63606">
        <ele>3.6</ele>
        <time>2021-05-15T03:41:03.435Z</time>
      </trkpt>
      <trkpt lat="47.06493" lon="-1.63613">
        <ele>3.6</ele>
        <time>2021-05-15T03:41:04.974Z</time>
      </trkpt>
      <trkpt lat="47.06504" lon="-1.63621">
        <ele>3.6</ele>
        <time>2021-05-15T03:41:06.679Z</time>
      </trkpt>
      <trkpt lat="47.06515" lon="-1.63629">
        <ele>3.6</ele>
        <time>2021-05-15T03:41:08.384Z</time>
      </trkpt>
      <trkpt lat="47.06526" lon="-1.63637">
        <ele>3.6</ele>
        <time>2021-05-15T03:41:10.089Z</time>
      </trkpt>
      <trkpt lat="47.06537" lon="-1.63645">
        <ele>3.6</ele>
        <time>2021-05-15T03:41:11.793Z</time>
      </trkpt>
      <trkpt lat="47.06548" lon="-1.63653">
        <ele>3.6</ele>
        <time>2021-05-15T03:41:13.498Z</time>
      </trkpt>
      <trkpt lat="47.06559" lon="-1.63661">
        <ele>3.7</ele>
        <time>2021-05-15T03:41:15.203Z</time>
      </trkpt>
      <trkpt lat="47.0657" lon="-1.63669">
        <ele>3.8</ele>
        <time>2021-05-15T03:41:16.908Z</time>
      </trkpt>
      <trkpt lat="47.0658" lon="-1.63679">
        <ele>3.8</ele>
        <time>2021-05-15T03:41:18.588Z</time>
      </trkpt>
      <trkpt lat="47.06589" lon="-1.6369">
        <ele>3.7</ele>
        <time>2021-05-15T03:41:20.215Z</time>
      </trkpt>
      <trkpt lat="47.06598" lon="-1.63701">
        <ele>3.6</ele>
        <time>2021-05-15T03:41:21.841Z</time>
      </trkpt>
      <trkpt lat="47.06607" lon="-1.63712">
        <ele>3.5</ele>
        <time>2021-05-15T03:41:23.468Z</time>
      </trkpt>
      <trkpt lat="47.06616" lon="-1.63724">
        <ele>3.3</ele>
        <time>2021-05-15T03:41:25.156Z</time>
      </trkpt>
      <trkpt lat="47.06625" lon="-1.63735">
        <ele>3.2</ele>
        <time>2021-05-15T03:41:26.783Z</time>
      </trkpt>
      <trkpt lat="47.06634" lon="-1.63747">
        <ele>3</ele>
        <time>2021-05-15T03:41:28.471Z</time>
      </trkpt>
      <trkpt lat="47.06644" lon="-1.63759">
        <ele>3</ele>
        <time>2021-05-15T03:41:30.265Z</time>
      </trkpt>
      <trkpt lat="47.06653" lon="-1.6377">
        <ele>3</ele>
        <time>2021-05-15T03:41:31.891Z</time>
      </trkpt>
      <trkpt lat="47.06663" lon="-1.63782">
        <ele>3</ele>
        <time>2021-05-15T03:41:32.890Z</time>
      </trkpt>
      <trkpt lat="47.06673" lon="-1.63794">
        <ele>2.9</ele>
        <time>2021-05-15T03:41:34.684Z</time>
      </trkpt>
      <trkpt lat="47.06682" lon="-1.63806">
        <ele>2.8</ele>
        <time>2021-05-15T03:41:36.373Z</time>
      </trkpt>
      <trkpt lat="47.06692" lon="-1.63818">
        <ele>2.7</ele>
        <time>2021-05-15T03:41:38.166Z</time>
      </trkpt>
      <trkpt lat="47.06702" lon="-1.6383">
        <ele>2.6</ele>
        <time>2021-05-15T03:41:39.960Z</time>
      </trkpt>
      <trkpt lat="47.06713" lon="-1.63837">
        <ele>2.4</ele>
        <time>2021-05-15T03:41:41.625Z</time>
      </trkpt>
      <trkpt lat="47.06726" lon="-1.63835">
        <ele>2.3</ele>
        <time>2021-05-15T03:41:43.440Z</time>
      </trkpt>
      <trkpt lat="47.06738" lon="-1.63825">
        <ele>2.1</ele>
        <time>2021-05-15T03:41:44.508Z</time>
      </trkpt>
      <trkpt lat="47.06749" lon="-1.63813">
        <ele>2</ele>
        <time>2021-05-15T03:41:46.411Z</time>
      </trkpt>
      <trkpt lat="47.0676" lon="-1.63801">
        <ele>2.1</ele>
        <time>2021-05-15T03:41:47.472Z</time>
      </trkpt>
      <trkpt lat="47.06771" lon="-1.6379">
        <ele>2.3</ele>
        <time>2021-05-15T03:41:49.320Z</time>
      </trkpt>
      <trkpt lat="47.06782" lon="-1.6378">
        <ele>2.4</ele>
        <time>2021-05-15T03:41:51.117Z</time>
      </trkpt>
      <trkpt lat="47.06793" lon="-1.63769">
        <ele>2.5</ele>
        <time>2021-05-15T03:41:52.965Z</time>
      </trkpt>
      <trkpt lat="47.06804" lon="-1.63759">
        <ele>2.6</ele>
        <time>2021-05-15T03:41:54.762Z</time>
      </trkpt>
      <trkpt lat="47.06815" lon="-1.63749">
        <ele>2.8</ele>
        <time>2021-05-15T03:41:56.559Z</time>
      </trkpt>
      <trkpt lat="47.06826" lon="-1.63738">
        <ele>2.8</ele>
        <time>2021-05-15T03:41:58.408Z</time>
      </trkpt>
      <trkpt lat="47.06835" lon="-1.63725">
        <ele>2.7</ele>
        <time>2021-05-15T03:42:00.161Z</time>
      </trkpt>
      <trkpt lat="47.06843" lon="-1.6371">
        <ele>2.5</ele>
        <time>2021-05-15T03:42:01.963Z</time>
      </trkpt>
      <trkpt lat="47.06847" lon="-1.63693">
        <ele>2.3</ele>
        <time>2021-05-15T03:42:03.664Z</time>
      </trkpt>
      <trkpt lat="47.0685" lon="-1.63675">
        <ele>2.1</ele>
        <time>2021-05-15T03:42:05.417Z</time>
      </trkpt>
      <trkpt lat="47.06853" lon="-1.63656">
        <ele>2.1</ele>
        <time>2021-05-15T03:42:07.262Z</time>
      </trkpt>
      <trkpt lat="47.06854" lon="-1.63637">
        <ele>2.4</ele>
        <time>2021-05-15T03:42:11.093Z</time>
      </trkpt>
      <trkpt lat="47.06856" lon="-1.63618">
        <ele>2.6</ele>
        <time>2021-05-15T03:42:12.912Z</time>
      </trkpt>
      <trkpt lat="47.06857" lon="-1.63599">
        <ele>2.8</ele>
        <time>2021-05-15T03:42:14.715Z</time>
      </trkpt>
      <trkpt lat="47.06858" lon="-1.63579">
        <ele>3</ele>
        <time>2021-05-15T03:42:16.611Z</time>
      </trkpt>
      <trkpt lat="47.0686" lon="-1.63561">
        <ele>3</ele>
        <time>2021-05-15T03:42:18.337Z</time>
      </trkpt>
      <trkpt lat="47.06863" lon="-1.63542">
        <ele>3</ele>
        <time>2021-05-15T03:42:22.203Z</time>
      </trkpt>
      <trkpt lat="47.06867" lon="-1.63524">
        <ele>3</ele>
        <time>2021-05-15T03:42:23.994Z</time>
      </trkpt>
      <trkpt lat="47.06872" lon="-1.63507">
        <ele>3</ele>
        <time>2021-05-15T03:42:25.746Z</time>
      </trkpt>
      <trkpt lat="47.06879" lon="-1.6349">
        <ele>3.1</ele>
        <time>2021-05-15T03:42:27.625Z</time>
      </trkpt>
      <trkpt lat="47.06887" lon="-1.63476">
        <ele>3.2</ele>
        <time>2021-05-15T03:42:29.353Z</time>
      </trkpt>
      <trkpt lat="47.06897" lon="-1.63464">
        <ele>3.3</ele>
        <time>2021-05-15T03:42:31.147Z</time>
      </trkpt>
      <trkpt lat="47.06908" lon="-1.63455">
        <ele>3.5</ele>
        <time>2021-05-15T03:42:32.896Z</time>
      </trkpt>
      <trkpt lat="47.06919" lon="-1.63448">
        <ele>3.7</ele>
        <time>2021-05-15T03:42:36.623Z</time>
      </trkpt>
      <trkpt lat="47.0693" lon="-1.63441">
        <ele>3.9</ele>
        <time>2021-05-15T03:42:38.288Z</time>
      </trkpt>
      <trkpt lat="47.06942" lon="-1.63434">
        <ele>4.1</ele>
        <time>2021-05-15T03:42:40.082Z</time>
      </trkpt>
      <trkpt lat="47.06954" lon="-1.63426">
        <ele>4.3</ele>
        <time>2021-05-15T03:42:41.101Z</time>
      </trkpt>
      <trkpt lat="47.06966" lon="-1.63416">
        <ele>4.6</ele>
        <time>2021-05-15T03:42:43.018Z</time>
      </trkpt>
      <trkpt lat="47.06976" lon="-1.63406">
        <ele>4.7</ele>
        <time>2021-05-15T03:42:44.698Z</time>
      </trkpt>
      <trkpt lat="47.06986" lon="-1.63396">
        <ele>4.8</ele>
        <time>2021-05-15T03:42:46.378Z</time>
      </trkpt>
      <trkpt lat="47.06996" lon="-1.63386">
        <ele>5</ele>
        <time>2021-05-15T03:42:48.059Z</time>
      </trkpt>
      <trkpt lat="47.07006" lon="-1.63375">
        <ele>4.9</ele>
        <time>2021-05-15T03:42:49.794Z</time>
      </trkpt>
      <trkpt lat="47.07016" lon="-1.63365">
        <ele>4.7</ele>
        <time>2021-05-15T03:42:51.474Z</time>
      </trkpt>
      <trkpt lat="47.07026" lon="-1.63356">
        <ele>4.5</ele>
        <time>2021-05-15T03:42:53.103Z</time>
      </trkpt>
      <trkpt lat="47.07036" lon="-1.63345">
        <ele>4.2</ele>
        <time>2021-05-15T03:42:54.839Z</time>
      </trkpt>
      <trkpt lat="47.07046" lon="-1.63335">
        <ele>3.9</ele>
        <time>2021-05-15T03:42:56.519Z</time>
      </trkpt>
      <trkpt lat="47.07055" lon="-1.63323">
        <ele>3.8</ele>
        <time>2021-05-15T03:42:58.208Z</time>
      </trkpt>
      <trkpt lat="47.07063" lon="-1.6331">
        <ele>3.7</ele>
        <time>2021-05-15T03:42:59.131Z</time>
      </trkpt>
      <trkpt lat="47.0707" lon="-1.63293">
        <ele>3.7</ele>
        <time>2021-05-15T03:43:01.010Z</time>
      </trkpt>
      <trkpt lat="47.07077" lon="-1.63276">
        <ele>3.8</ele>
        <time>2021-05-15T03:43:02.889Z</time>
      </trkpt>
      <trkpt lat="47.07082" lon="-1.63258">
        <ele>3.9</ele>
        <time>2021-05-15T03:43:04.728Z</time>
      </trkpt>
      <trkpt lat="47.07086" lon="-1.6324">
        <ele>4</ele>
        <time>2021-05-15T03:43:06.519Z</time>
      </trkpt>
      <trkpt lat="47.07088" lon="-1.63222">
        <ele>4</ele>
        <time>2021-05-15T03:43:07.480Z</time>
      </trkpt>
      <trkpt lat="47.0709" lon="-1.63204">
        <ele>4</ele>
        <time>2021-05-15T03:43:09.205Z</time>
      </trkpt>
      <trkpt lat="47.07093" lon="-1.63186">
        <ele>4.1</ele>
        <time>2021-05-15T03:43:12.996Z</time>
      </trkpt>
      <trkpt lat="47.07097" lon="-1.63169">
        <ele>4.2</ele>
        <time>2021-05-15T03:43:14.697Z</time>
      </trkpt>
      <trkpt lat="47.07106" lon="-1.63156">
        <ele>4.4</ele>
        <time>2021-05-15T03:43:18.489Z</time>
      </trkpt>
      <trkpt lat="47.07116" lon="-1.63146">
        <ele>4.5</ele>
        <time>2021-05-15T03:43:22.227Z</time>
      </trkpt>
      <trkpt lat="47.07127" lon="-1.63136">
        <ele>4.7</ele>
        <time>2021-05-15T03:43:24.024Z</time>
      </trkpt>
      <trkpt lat="47.07139" lon="-1.63127">
        <ele>4.8</ele>
        <time>2021-05-15T03:43:25.895Z</time>
      </trkpt>
      <trkpt lat="47.07151" lon="-1.63122">
        <ele>4.9</ele>
        <time>2021-05-15T03:43:29.670Z</time>
      </trkpt>
      <trkpt lat="47.07163" lon="-1.6312">
        <ele>5</ele>
        <time>2021-05-15T03:43:31.348Z</time>
      </trkpt>
      <trkpt lat="47.07176" lon="-1.6312">
        <ele>5.2</ele>
        <time>2021-05-15T03:43:35.181Z</time>
      </trkpt>
      <trkpt lat="47.07188" lon="-1.63121">
        <ele>5.4</ele>
        <time>2021-05-15T03:43:36.850Z</time>
      </trkpt>
      <trkpt lat="47.07201" lon="-1.63125">
        <ele>5.6</ele>
        <time>2021-05-15T03:43:40.716Z</time>
      </trkpt>
      <trkpt lat="47.07213" lon="-1.63134">
        <ele>5.8</ele>
        <time>2021-05-15T03:43:44.605Z</time>
      </trkpt>
      <trkpt lat="47.07224" lon="-1.63142">
        <ele>5.9</ele>
        <time>2021-05-15T03:43:45.555Z</time>
      </trkpt>
      <trkpt lat="47.07236" lon="-1.63151">
        <ele>6</ele>
        <time>2021-05-15T03:43:49.444Z</time>
      </trkpt>
      <trkpt lat="47.07248" lon="-1.63161">
        <ele>6</ele>
        <time>2021-05-15T03:43:51.361Z</time>
      </trkpt>
      <trkpt lat="47.07259" lon="-1.6317">
        <ele>5.9</ele>
        <time>2021-05-15T03:43:53.110Z</time>
      </trkpt>
      <trkpt lat="47.07269" lon="-1.6318">
        <ele>5.7</ele>
        <time>2021-05-15T03:43:54.790Z</time>
      </trkpt>
      <trkpt lat="47.07279" lon="-1.63192">
        <ele>5.5</ele>
        <time>2021-05-15T03:43:56.583Z</time>
      </trkpt>
      <trkpt lat="47.07287" lon="-1.63206">
        <ele>5.3</ele>
        <time>2021-05-15T03:43:58.312Z</time>
      </trkpt>
      <trkpt lat="47.07296" lon="-1.6322">
        <ele>5.1</ele>
        <time>2021-05-15T03:44:00.133Z</time>
      </trkpt>
      <trkpt lat="47.07304" lon="-1.63232">
        <ele>4.9</ele>
        <time>2021-05-15T03:44:01.721Z</time>
      </trkpt>
      <trkpt lat="47.07312" lon="-1.63245">
        <ele>4.8</ele>
        <time>2021-05-15T03:44:03.379Z</time>
      </trkpt>
      <trkpt lat="47.0732" lon="-1.63257">
        <ele>4.9</ele>
        <time>2021-05-15T03:44:04.967Z</time>
      </trkpt>
      <trkpt lat="47.0733" lon="-1.63266">
        <ele>5.1</ele>
        <time>2021-05-15T03:44:06.596Z</time>
      </trkpt>
      <trkpt lat="47.0734" lon="-1.63275">
        <ele>5.4</ele>
        <time>2021-05-15T03:44:08.225Z</time>
      </trkpt>
      <trkpt lat="47.07351" lon="-1.63284">
        <ele>5.5</ele>
        <time>2021-05-15T03:44:09.974Z</time>
      </trkpt>
      <trkpt lat="47.07362" lon="-1.63293">
        <ele>5.7</ele>
        <time>2021-05-15T03:44:11.722Z</time>
      </trkpt>
      <trkpt lat="47.07373" lon="-1.63301">
        <ele>5.8</ele>
        <time>2021-05-15T03:44:13.427Z</time>
      </trkpt>
      <trkpt lat="47.07383" lon="-1.63309">
        <ele>5.9</ele>
        <time>2021-05-15T03:44:15.009Z</time>
      </trkpt>
      <trkpt lat="47.07394" lon="-1.63316">
        <ele>5.9</ele>
        <time>2021-05-15T03:44:16.674Z</time>
      </trkpt>
      <trkpt lat="47.07404" lon="-1.63324">
        <ele>6</ele>
        <time>2021-05-15T03:44:17.555Z</time>
      </trkpt>
      <trkpt lat="47.07415" lon="-1.63331">
        <ele>6</ele>
        <time>2021-05-15T03:44:19.220Z</time>
      </trkpt>
      <trkpt lat="47.07426" lon="-1.63338">
        <ele>5.8</ele>
        <time>2021-05-15T03:44:20.885Z</time>
      </trkpt>
      <trkpt lat="47.07437" lon="-1.63345">
        <ele>5.6</ele>
        <time>2021-05-15T03:44:21.813Z</time>
      </trkpt>
      <trkpt lat="47.07448" lon="-1.63352">
        <ele>5.4</ele>
        <time>2021-05-15T03:44:23.478Z</time>
      </trkpt>
      <trkpt lat="47.0746" lon="-1.6336">
        <ele>5.2</ele>
        <time>2021-05-15T03:44:25.308Z</time>
      </trkpt>
      <trkpt lat="47.0747" lon="-1.63366">
        <ele>5.1</ele>
        <time>2021-05-15T03:44:26.808Z</time>
      </trkpt>
      <trkpt lat="47.07481" lon="-1.63373">
        <ele>4.9</ele>
        <time>2021-05-15T03:44:28.473Z</time>
      </trkpt>
      <trkpt lat="47.07492" lon="-1.6338">
        <ele>4.8</ele>
        <time>2021-05-15T03:44:30.138Z</time>
      </trkpt>
      <trkpt lat="47.07503" lon="-1.63387">
        <ele>4.7</ele>
        <time>2021-05-15T03:44:31.803Z</time>
      </trkpt>
      <trkpt lat="47.07515" lon="-1.63394">
        <ele>4.4</ele>
        <time>2021-05-15T03:44:33.596Z</time>
      </trkpt>
      <trkpt lat="47.07526" lon="-1.63401">
        <ele>4.3</ele>
        <time>2021-05-15T03:44:35.261Z</time>
      </trkpt>
      <trkpt lat="47.07537" lon="-1.63408">
        <ele>4.1</ele>
        <time>2021-05-15T03:44:36.926Z</time>
      </trkpt>
      <trkpt lat="47.07549" lon="-1.63414">
        <ele>4</ele>
        <time>2021-05-15T03:44:38.687Z</time>
      </trkpt>
      <trkpt lat="47.0756" lon="-1.6342">
        <ele>4</ele>
        <time>2021-05-15T03:44:40.317Z</time>
      </trkpt>
      <trkpt lat="47.07571" lon="-1.63425">
        <ele>4.1</ele>
        <time>2021-05-15T03:44:41.916Z</time>
      </trkpt>
      <trkpt lat="47.07583" lon="-1.6343">
        <ele>4.2</ele>
        <time>2021-05-15T03:44:43.648Z</time>
      </trkpt>
      <trkpt lat="47.07596" lon="-1.63432">
        <ele>3.9</ele>
        <time>2021-05-15T03:44:45.464Z</time>
      </trkpt>
      <trkpt lat="47.07608" lon="-1.6343">
        <ele>3.6</ele>
        <time>2021-05-15T03:44:47.141Z</time>
      </trkpt>
      <trkpt lat="47.07621" lon="-1.63427">
        <ele>3.3</ele>
        <time>2021-05-15T03:44:48.159Z</time>
      </trkpt>
      <trkpt lat="47.07633" lon="-1.63424">
        <ele>2.9</ele>
        <time>2021-05-15T03:44:49.850Z</time>
      </trkpt>
      <trkpt lat="47.07645" lon="-1.6342">
        <ele>2.6</ele>
        <time>2021-05-15T03:44:51.559Z</time>
      </trkpt>
      <trkpt lat="47.07657" lon="-1.63416">
        <ele>2.2</ele>
        <time>2021-05-15T03:44:52.511Z</time>
      </trkpt>
      <trkpt lat="47.07669" lon="-1.63412">
        <ele>2.2</ele>
        <time>2021-05-15T03:44:54.220Z</time>
      </trkpt>
      <trkpt lat="47.07681" lon="-1.63409">
        <ele>2.7</ele>
        <time>2021-05-15T03:44:55.910Z</time>
      </trkpt>
      <trkpt lat="47.07692" lon="-1.63405">
        <ele>3.1</ele>
        <time>2021-05-15T03:44:57.484Z</time>
      </trkpt>
      <trkpt lat="47.07703" lon="-1.63398">
        <ele>3.7</ele>
        <time>2021-05-15T03:44:59.149Z</time>
      </trkpt>
      <trkpt lat="47.07712" lon="-1.63388">
        <ele>4.1</ele>
        <time>2021-05-15T03:45:00.717Z</time>
      </trkpt>
      <trkpt lat="47.07722" lon="-1.63377">
        <ele>4.6</ele>
        <time>2021-05-15T03:45:02.452Z</time>
      </trkpt>
      <trkpt lat="47.07731" lon="-1.63367">
        <ele>5</ele>
        <time>2021-05-15T03:45:04.019Z</time>
      </trkpt>
      <trkpt lat="47.0774" lon="-1.63356">
        <ele>5.5</ele>
        <time>2021-05-15T03:45:05.645Z</time>
      </trkpt>
      <trkpt lat="47.0775" lon="-1.63344">
        <ele>5.9</ele>
        <time>2021-05-15T03:45:07.439Z</time>
      </trkpt>
      <trkpt lat="47.07758" lon="-1.63333">
        <ele>6.2</ele>
        <time>2021-05-15T03:45:08.961Z</time>
      </trkpt>
      <trkpt lat="47.07767" lon="-1.63322">
        <ele>6.3</ele>
        <time>2021-05-15T03:45:10.587Z</time>
      </trkpt>
      <trkpt lat="47.07777" lon="-1.63311">
        <ele>6.4</ele>
        <time>2021-05-15T03:45:12.323Z</time>
      </trkpt>
      <trkpt lat="47.07787" lon="-1.63299">
        <ele>6.5</ele>
        <time>2021-05-15T03:45:14.116Z</time>
      </trkpt>
      <trkpt lat="47.07797" lon="-1.63287">
        <ele>6.6</ele>
        <time>2021-05-15T03:45:15.910Z</time>
      </trkpt>
      <trkpt lat="47.07806" lon="-1.63276">
        <ele>6.7</ele>
        <time>2021-05-15T03:45:17.536Z</time>
      </trkpt>
      <trkpt lat="47.07815" lon="-1.63265">
        <ele>6.7</ele>
        <time>2021-05-15T03:45:19.162Z</time>
      </trkpt>
      <trkpt lat="47.07823" lon="-1.63252">
        <ele>6.8</ele>
        <time>2021-05-15T03:45:20.819Z</time>
      </trkpt>
      <trkpt lat="47.07828" lon="-1.63236">
        <ele>6.6</ele>
        <time>2021-05-15T03:45:21.747Z</time>
      </trkpt>
      <trkpt lat="47.07827" lon="-1.63217">
        <ele>6.1</ele>
        <time>2021-05-15T03:45:23.549Z</time>
      </trkpt>
      <trkpt lat="47.07822" lon="-1.63201">
        <ele>5.7</ele>
        <time>2021-05-15T03:45:25.214Z</time>
      </trkpt>
      <trkpt lat="47.07816" lon="-1.63186">
        <ele>5.4</ele>
        <time>2021-05-15T03:45:26.860Z</time>
      </trkpt>
      <trkpt lat="47.07808" lon="-1.63171">
        <ele>5.1</ele>
        <time>2021-05-15T03:45:30.690Z</time>
      </trkpt>
      <trkpt lat="47.07802" lon="-1.63157">
        <ele>5</ele>
        <time>2021-05-15T03:45:32.254Z</time>
      </trkpt>
      <trkpt lat="47.07797" lon="-1.63143">
        <ele>5.1</ele>
        <time>2021-05-15T03:45:33.749Z</time>
      </trkpt>
      <trkpt lat="47.07798" lon="-1.63128">
        <ele>5.2</ele>
        <time>2021-05-15T03:45:37.366Z</time>
      </trkpt>
      <trkpt lat="47.07808" lon="-1.63123">
        <ele>5.2</ele>
        <time>2021-05-15T03:45:38.833Z</time>
      </trkpt>
      <trkpt lat="47.07821" lon="-1.63123">
        <ele>5.1</ele>
        <time>2021-05-15T03:45:42.666Z</time>
      </trkpt>
      <trkpt lat="47.07834" lon="-1.63123">
        <ele>5</ele>
        <time>2021-05-15T03:45:44.471Z</time>
      </trkpt>
      <trkpt lat="47.07848" lon="-1.63122">
        <ele>5</ele>
        <time>2021-05-15T03:45:46.418Z</time>
      </trkpt>
      <trkpt lat="47.07861" lon="-1.63121">
        <ele>5</ele>
        <time>2021-05-15T03:45:48.226Z</time>
      </trkpt>
      <trkpt lat="47.07874" lon="-1.6312">
        <ele>5</ele>
        <time>2021-05-15T03:45:50.034Z</time>
      </trkpt>
      <trkpt lat="47.07886" lon="-1.63118">
        <ele>5</ele>
        <time>2021-05-15T03:45:51.711Z</time>
      </trkpt>
      <trkpt lat="47.07898" lon="-1.63118">
        <ele>5</ele>
        <time>2021-05-15T03:45:53.378Z</time>
      </trkpt>
      <trkpt lat="47.0791" lon="-1.63117">
        <ele>5</ele>
        <time>2021-05-15T03:45:57.108Z</time>
      </trkpt>
      <trkpt lat="47.07921" lon="-1.63115">
        <ele>5.1</ele>
        <time>2021-05-15T03:45:57.966Z</time>
      </trkpt>
      <trkpt lat="47.07932" lon="-1.63114">
        <ele>5.2</ele>
        <time>2021-05-15T03:46:01.616Z</time>
      </trkpt>
      <trkpt lat="47.07943" lon="-1.63113">
        <ele>5.3</ele>
        <time>2021-05-15T03:46:05.267Z</time>
      </trkpt>
      <trkpt lat="47.07956" lon="-1.63112">
        <ele>5.5</ele>
        <time>2021-05-15T03:46:07.075Z</time>
      </trkpt>
      <trkpt lat="47.07968" lon="-1.63111">
        <ele>5.6</ele>
        <time>2021-05-15T03:46:08.744Z</time>
      </trkpt>
      <trkpt lat="47.07979" lon="-1.6311">
        <ele>5.7</ele>
        <time>2021-05-15T03:46:10.275Z</time>
      </trkpt>
      <trkpt lat="47.07991" lon="-1.63109">
        <ele>5.9</ele>
        <time>2021-05-15T03:46:11.944Z</time>
      </trkpt>
      <trkpt lat="47.08003" lon="-1.63108">
        <ele>5.9</ele>
        <time>2021-05-15T03:46:13.613Z</time>
      </trkpt>
      <trkpt lat="47.08015" lon="-1.63106">
        <ele>5.7</ele>
        <time>2021-05-15T03:46:15.291Z</time>
      </trkpt>
      <trkpt lat="47.08027" lon="-1.63105">
        <ele>5.4</ele>
        <time>2021-05-15T03:46:16.960Z</time>
      </trkpt>
      <trkpt lat="47.08039" lon="-1.63104">
        <ele>5.2</ele>
        <time>2021-05-15T03:46:18.629Z</time>
      </trkpt>
      <trkpt lat="47.0805" lon="-1.63103">
        <ele>4.9</ele>
        <time>2021-05-15T03:46:19.482Z</time>
      </trkpt>
      <trkpt lat="47.08063" lon="-1.63102">
        <ele>4.7</ele>
        <time>2021-05-15T03:46:20.489Z</time>
      </trkpt>
      <trkpt lat="47.08074" lon="-1.63101">
        <ele>4.4</ele>
        <time>2021-05-15T03:46:22.020Z</time>
      </trkpt>
      <trkpt lat="47.08087" lon="-1.631">
        <ele>4.2</ele>
        <time>2021-05-15T03:46:23.828Z</time>
      </trkpt>
      <trkpt lat="47.08099" lon="-1.63099">
        <ele>4.2</ele>
        <time>2021-05-15T03:46:24.758Z</time>
      </trkpt>
      <trkpt lat="47.08112" lon="-1.63098">
        <ele>4.1</ele>
        <time>2021-05-15T03:46:26.566Z</time>
      </trkpt>
      <trkpt lat="47.08125" lon="-1.63096">
        <ele>4.1</ele>
        <time>2021-05-15T03:46:28.381Z</time>
      </trkpt>
      <trkpt lat="47.08137" lon="-1.63095">
        <ele>4</ele>
        <time>2021-05-15T03:46:30.050Z</time>
      </trkpt>
      <trkpt lat="47.08149" lon="-1.63094">
        <ele>4</ele>
        <time>2021-05-15T03:46:31.719Z</time>
      </trkpt>
      <trkpt lat="47.08161" lon="-1.63093">
        <ele>4</ele>
        <time>2021-05-15T03:46:32.650Z</time>
      </trkpt>
      <trkpt lat="47.08174" lon="-1.63091">
        <ele>4</ele>
        <time>2021-05-15T03:46:34.465Z</time>
      </trkpt>
      <trkpt lat="47.08186" lon="-1.6309">
        <ele>4</ele>
        <time>2021-05-15T03:46:38.195Z</time>
      </trkpt>
      <trkpt lat="47.08198" lon="-1.63089">
        <ele>4</ele>
        <time>2021-05-15T03:46:39.125Z</time>
      </trkpt>
      <trkpt lat="47.08211" lon="-1.63088">
        <ele>4</ele>
        <time>2021-05-15T03:46:40.933Z</time>
      </trkpt>
      <trkpt lat="47.08223" lon="-1.63087">
        <ele>4</ele>
        <time>2021-05-15T03:46:42.602Z</time>
      </trkpt>
      <trkpt lat="47.08236" lon="-1.63086">
        <ele>4</ele>
        <time>2021-05-15T03:46:43.610Z</time>
      </trkpt>
      <trkpt lat="47.08248" lon="-1.63085">
        <ele>4</ele>
        <time>2021-05-15T03:46:47.340Z</time>
      </trkpt>
      <trkpt lat="47.0826" lon="-1.63084">
        <ele>4</ele>
        <time>2021-05-15T03:46:48.270Z</time>
      </trkpt>
      <trkpt lat="47.08273" lon="-1.63083">
        <ele>4</ele>
        <time>2021-05-15T03:46:52.105Z</time>
      </trkpt>
      <trkpt lat="47.08285" lon="-1.63083">
        <ele>4</ele>
        <time>2021-05-15T03:46:53.771Z</time>
      </trkpt>
      <trkpt lat="47.08297" lon="-1.63081">
        <ele>4</ele>
        <time>2021-05-15T03:46:57.507Z</time>
      </trkpt>
      <trkpt lat="47.0831" lon="-1.63079">
        <ele>4.1</ele>
        <time>2021-05-15T03:46:59.322Z</time>
      </trkpt>
      <trkpt lat="47.08322" lon="-1.63078">
        <ele>4.1</ele>
        <time>2021-05-15T03:47:00.252Z</time>
      </trkpt>
      <trkpt lat="47.08335" lon="-1.63077">
        <ele>4.2</ele>
        <time>2021-05-15T03:47:01.260Z</time>
      </trkpt>
      <trkpt lat="47.08348" lon="-1.63077">
        <ele>4.8</ele>
        <time>2021-05-15T03:47:03.065Z</time>
      </trkpt>
      <trkpt lat="47.08361" lon="-1.63076">
        <ele>5.4</ele>
        <time>2021-05-15T03:47:04.873Z</time>
      </trkpt>
      <trkpt lat="47.08373" lon="-1.63073">
        <ele>6</ele>
        <time>2021-05-15T03:47:08.618Z</time>
      </trkpt>
      <trkpt lat="47.08385" lon="-1.63071">
        <ele>6.5</ele>
        <time>2021-05-15T03:47:10.295Z</time>
      </trkpt>
      <trkpt lat="47.08397" lon="-1.63066">
        <ele>7</ele>
        <time>2021-05-15T03:47:12.028Z</time>
      </trkpt>
      <trkpt lat="47.08408" lon="-1.63057">
        <ele>7.4</ele>
        <time>2021-05-15T03:47:15.816Z</time>
      </trkpt>
      <trkpt lat="47.08418" lon="-1.63046">
        <ele>7.6</ele>
        <time>2021-05-15T03:47:19.593Z</time>
      </trkpt>
      <trkpt lat="47.08428" lon="-1.63033">
        <ele>7.6</ele>
        <time>2021-05-15T03:47:20.626Z</time>
      </trkpt>
      <trkpt lat="47.08437" lon="-1.63019">
        <ele>7.7</ele>
        <time>2021-05-15T03:47:22.447Z</time>
      </trkpt>
      <trkpt lat="47.08445" lon="-1.63006">
        <ele>7.7</ele>
        <time>2021-05-15T03:47:23.370Z</time>
      </trkpt>
      <trkpt lat="47.08454" lon="-1.62992">
        <ele>7.9</ele>
        <time>2021-05-15T03:47:25.191Z</time>
      </trkpt>
      <trkpt lat="47.08463" lon="-1.62977">
        <ele>8</ele>
        <time>2021-05-15T03:47:27.082Z</time>
      </trkpt>
      <trkpt lat="47.08471" lon="-1.62963">
        <ele>8</ele>
        <time>2021-05-15T03:47:28.045Z</time>
      </trkpt>
      <trkpt lat="47.0848" lon="-1.62949">
        <ele>8.1</ele>
        <time>2021-05-15T03:47:31.891Z</time>
      </trkpt>
      <trkpt lat="47.08488" lon="-1.62935">
        <ele>8</ele>
        <time>2021-05-15T03:47:32.854Z</time>
      </trkpt>
      <trkpt lat="47.08496" lon="-1.62921">
        <ele>8</ele>
        <time>2021-05-15T03:47:34.582Z</time>
      </trkpt>
      <trkpt lat="47.08504" lon="-1.62907">
        <ele>7.8</ele>
        <time>2021-05-15T03:47:36.310Z</time>
      </trkpt>
      <trkpt lat="47.08513" lon="-1.62893">
        <ele>7.6</ele>
        <time>2021-05-15T03:47:38.131Z</time>
      </trkpt>
      <trkpt lat="47.08522" lon="-1.62879">
        <ele>7.5</ele>
        <time>2021-05-15T03:47:39.145Z</time>
      </trkpt>
      <trkpt lat="47.08531" lon="-1.62866">
        <ele>7.4</ele>
        <time>2021-05-15T03:47:40.899Z</time>
      </trkpt>
      <trkpt lat="47.08539" lon="-1.62852">
        <ele>7.3</ele>
        <time>2021-05-15T03:47:44.671Z</time>
      </trkpt>
      <trkpt lat="47.08547" lon="-1.6284">
        <ele>7.2</ele>
        <time>2021-05-15T03:47:46.259Z</time>
      </trkpt>
      <trkpt lat="47.08557" lon="-1.6283">
        <ele>7.4</ele>
        <time>2021-05-15T03:47:49.997Z</time>
      </trkpt>
      <trkpt lat="47.08568" lon="-1.62821">
        <ele>7.6</ele>
        <time>2021-05-15T03:47:50.971Z</time>
      </trkpt>
      <trkpt lat="47.08577" lon="-1.62811">
        <ele>7.6</ele>
        <time>2021-05-15T03:47:52.538Z</time>
      </trkpt>
      <trkpt lat="47.0858" lon="-1.62796">
        <ele>7.5</ele>
        <time>2021-05-15T03:47:54.017Z</time>
      </trkpt>
      <trkpt lat="47.08579" lon="-1.62778">
        <ele>7.3</ele>
        <time>2021-05-15T03:47:55.725Z</time>
      </trkpt>
      <trkpt lat="47.08579" lon="-1.62761">
        <ele>7.2</ele>
        <time>2021-05-15T03:47:59.416Z</time>
      </trkpt>
      <trkpt lat="47.0858" lon="-1.62743">
        <ele>7</ele>
        <time>2021-05-15T03:48:01.123Z</time>
      </trkpt>
      <trkpt lat="47.0858" lon="-1.62725">
        <ele>7</ele>
        <time>2021-05-15T03:48:02.826Z</time>
      </trkpt>
      <trkpt lat="47.0858" lon="-1.62708">
        <ele>7</ele>
        <time>2021-05-15T03:48:04.433Z</time>
      </trkpt>
      <trkpt lat="47.08581" lon="-1.6269">
        <ele>7</ele>
        <time>2021-05-15T03:48:06.141Z</time>
      </trkpt>
      <trkpt lat="47.08582" lon="-1.62672">
        <ele>7</ele>
        <time>2021-05-15T03:48:07.849Z</time>
      </trkpt>
      <trkpt lat="47.08583" lon="-1.62654">
        <ele>6.7</ele>
        <time>2021-05-15T03:48:11.606Z</time>
      </trkpt>
      <trkpt lat="47.08583" lon="-1.62636">
        <ele>6.3</ele>
        <time>2021-05-15T03:48:13.308Z</time>
      </trkpt>
      <trkpt lat="47.08584" lon="-1.62617">
        <ele>5.8</ele>
        <time>2021-05-15T03:48:14.312Z</time>
      </trkpt>
      <trkpt lat="47.08584" lon="-1.62599">
        <ele>5.4</ele>
        <time>2021-05-15T03:48:16.014Z</time>
      </trkpt>
      <trkpt lat="47.08585" lon="-1.62582">
        <ele>5</ele>
        <time>2021-05-15T03:48:19.709Z</time>
      </trkpt>
      <trkpt lat="47.08585" lon="-1.62564">
        <ele>4.8</ele>
        <time>2021-05-15T03:48:21.411Z</time>
      </trkpt>
      <trkpt lat="47.08586" lon="-1.62547">
        <ele>4.6</ele>
        <time>2021-05-15T03:48:23.025Z</time>
      </trkpt>
      <trkpt lat="47.08587" lon="-1.62529">
        <ele>4.3</ele>
        <time>2021-05-15T03:48:26.782Z</time>
      </trkpt>
      <trkpt lat="47.08588" lon="-1.62511">
        <ele>4.1</ele>
        <time>2021-05-15T03:48:28.490Z</time>
      </trkpt>
      <trkpt lat="47.08589" lon="-1.62492">
        <ele>4</ele>
        <time>2021-05-15T03:48:30.292Z</time>
      </trkpt>
      <trkpt lat="47.08589" lon="-1.62473">
        <ele>4.3</ele>
        <time>2021-05-15T03:48:32.089Z</time>
      </trkpt>
      <trkpt lat="47.0859" lon="-1.62455">
        <ele>4.5</ele>
        <time>2021-05-15T03:48:33.040Z</time>
      </trkpt>
      <trkpt lat="47.08592" lon="-1.62437">
        <ele>4.7</ele>
        <time>2021-05-15T03:48:36.810Z</time>
      </trkpt>
      <trkpt lat="47.08592" lon="-1.62419">
        <ele>4.9</ele>
        <time>2021-05-15T03:48:38.512Z</time>
      </trkpt>
      <trkpt lat="47.08593" lon="-1.62401">
        <ele>4.9</ele>
        <time>2021-05-15T03:48:40.220Z</time>
      </trkpt>
      <trkpt lat="47.08594" lon="-1.62383">
        <ele>4.9</ele>
        <time>2021-05-15T03:48:41.928Z</time>
      </trkpt>
      <trkpt lat="47.08596" lon="-1.62365">
        <ele>4.9</ele>
        <time>2021-05-15T03:48:43.652Z</time>
      </trkpt>
      <trkpt lat="47.08604" lon="-1.62352">
        <ele>4.9</ele>
        <time>2021-05-15T03:48:45.309Z</time>
      </trkpt>
      <trkpt lat="47.08617" lon="-1.62345">
        <ele>4.9</ele>
        <time>2021-05-15T03:48:47.232Z</time>
      </trkpt>
      <trkpt lat="47.0863" lon="-1.62339">
        <ele>5</ele>
        <time>2021-05-15T03:48:48.287Z</time>
      </trkpt>
      <trkpt lat="47.08642" lon="-1.62334">
        <ele>5</ele>
        <time>2021-05-15T03:48:50.019Z</time>
      </trkpt>
      <trkpt lat="47.08654" lon="-1.62329">
        <ele>5</ele>
        <time>2021-05-15T03:48:51.751Z</time>
      </trkpt>
      <trkpt lat="47.08667" lon="-1.62323">
        <ele>5</ele>
        <time>2021-05-15T03:48:53.644Z</time>
      </trkpt>
      <trkpt lat="47.08679" lon="-1.62318">
        <ele>5</ele>
        <time>2021-05-15T03:48:55.376Z</time>
      </trkpt>
      <trkpt lat="47.08692" lon="-1.62313">
        <ele>4.9</ele>
        <time>2021-05-15T03:48:57.242Z</time>
      </trkpt>
      <trkpt lat="47.08704" lon="-1.62308">
        <ele>4.9</ele>
        <time>2021-05-15T03:48:58.975Z</time>
      </trkpt>
      <trkpt lat="47.08715" lon="-1.62303">
        <ele>4.8</ele>
        <time>2021-05-15T03:49:00.574Z</time>
      </trkpt>
      <trkpt lat="47.08727" lon="-1.62297">
        <ele>4.7</ele>
        <time>2021-05-15T03:49:01.555Z</time>
      </trkpt>
      <trkpt lat="47.0874" lon="-1.62292">
        <ele>4.6</ele>
        <time>2021-05-15T03:49:03.421Z</time>
      </trkpt>
      <trkpt lat="47.08751" lon="-1.62288">
        <ele>4.5</ele>
        <time>2021-05-15T03:49:07.093Z</time>
      </trkpt>
      <trkpt lat="47.08762" lon="-1.62283">
        <ele>4.6</ele>
        <time>2021-05-15T03:49:08.692Z</time>
      </trkpt>
      <trkpt lat="47.08773" lon="-1.62278">
        <ele>4.7</ele>
        <time>2021-05-15T03:49:10.292Z</time>
      </trkpt>
      <trkpt lat="47.08784" lon="-1.62275">
        <ele>4.9</ele>
        <time>2021-05-15T03:49:13.953Z</time>
      </trkpt>
      <trkpt lat="47.08796" lon="-1.6227">
        <ele>5.1</ele>
        <time>2021-05-15T03:49:14.918Z</time>
      </trkpt>
      <trkpt lat="47.08808" lon="-1.62264">
        <ele>5.3</ele>
        <time>2021-05-15T03:49:16.679Z</time>
      </trkpt>
      <trkpt lat="47.0882" lon="-1.62259">
        <ele>5.6</ele>
        <time>2021-05-15T03:49:18.411Z</time>
      </trkpt>
      <trkpt lat="47.08832" lon="-1.62254">
        <ele>5.9</ele>
        <time>2021-05-15T03:49:20.144Z</time>
      </trkpt>
      <trkpt lat="47.08844" lon="-1.62249">
        <ele>5.9</ele>
        <time>2021-05-15T03:49:21.876Z</time>
      </trkpt>
      <trkpt lat="47.08856" lon="-1.62244">
        <ele>5.8</ele>
        <time>2021-05-15T03:49:23.608Z</time>
      </trkpt>
      <trkpt lat="47.08868" lon="-1.62238">
        <ele>5.7</ele>
        <time>2021-05-15T03:49:25.369Z</time>
      </trkpt>
      <trkpt lat="47.0888" lon="-1.62233">
        <ele>5.7</ele>
        <time>2021-05-15T03:49:26.334Z</time>
      </trkpt>
      <trkpt lat="47.08892" lon="-1.62228">
        <ele>5.7</ele>
        <time>2021-05-15T03:49:30.109Z</time>
      </trkpt>
      <trkpt lat="47.08904" lon="-1.62223">
        <ele>5.7</ele>
        <time>2021-05-15T03:49:31.842Z</time>
      </trkpt>
      <trkpt lat="47.08917" lon="-1.62218">
        <ele>5.8</ele>
        <time>2021-05-15T03:49:32.882Z</time>
      </trkpt>
      <trkpt lat="47.08928" lon="-1.62214">
        <ele>6</ele>
        <time>2021-05-15T03:49:34.455Z</time>
      </trkpt>
      <trkpt lat="47.0894" lon="-1.62209">
        <ele>6.3</ele>
        <time>2021-05-15T03:49:36.188Z</time>
      </trkpt>
      <trkpt lat="47.08951" lon="-1.62204">
        <ele>6.5</ele>
        <time>2021-05-15T03:49:37.787Z</time>
      </trkpt>
      <trkpt lat="47.08962" lon="-1.622">
        <ele>6.6</ele>
        <time>2021-05-15T03:49:39.361Z</time>
      </trkpt>
      <trkpt lat="47.08973" lon="-1.62195">
        <ele>6.8</ele>
        <time>2021-05-15T03:49:43.047Z</time>
      </trkpt>
      <trkpt lat="47.08985" lon="-1.62191">
        <ele>6.9</ele>
        <time>2021-05-15T03:49:44.756Z</time>
      </trkpt>
      <trkpt lat="47.08996" lon="-1.62186">
        <ele>7</ele>
        <time>2021-05-15T03:49:46.355Z</time>
      </trkpt>
      <trkpt lat="47.09008" lon="-1.62181">
        <ele>7.1</ele>
        <time>2021-05-15T03:49:48.087Z</time>
      </trkpt>
      <trkpt lat="47.09019" lon="-1.62176">
        <ele>7.2</ele>
        <time>2021-05-15T03:49:49.686Z</time>
      </trkpt>
      <trkpt lat="47.0903" lon="-1.62171">
        <ele>7.3</ele>
        <time>2021-05-15T03:49:51.286Z</time>
      </trkpt>
      <trkpt lat="47.09042" lon="-1.62166">
        <ele>7.5</ele>
        <time>2021-05-15T03:49:53.018Z</time>
      </trkpt>
      <trkpt lat="47.09053" lon="-1.62161">
        <ele>7.6</ele>
        <time>2021-05-15T03:49:54.617Z</time>
      </trkpt>
      <trkpt lat="47.09065" lon="-1.62157">
        <ele>7.7</ele>
        <time>2021-05-15T03:49:56.326Z</time>
      </trkpt>
      <trkpt lat="47.09077" lon="-1.62152">
        <ele>7.7</ele>
        <time>2021-05-15T03:49:58.058Z</time>
      </trkpt>
      <trkpt lat="47.09088" lon="-1.62148">
        <ele>7.7</ele>
        <time>2021-05-15T03:49:59.632Z</time>
      </trkpt>
      <trkpt lat="47.091" lon="-1.62143">
        <ele>7.3</ele>
        <time>2021-05-15T03:50:00.597Z</time>
      </trkpt>
      <trkpt lat="47.09112" lon="-1.62137">
        <ele>7</ele>
        <time>2021-05-15T03:50:02.358Z</time>
      </trkpt>
      <trkpt lat="47.09124" lon="-1.62132">
        <ele>6.6</ele>
        <time>2021-05-15T03:50:04.090Z</time>
      </trkpt>
      <trkpt lat="47.09135" lon="-1.62128">
        <ele>6.3</ele>
        <time>2021-05-15T03:50:05.664Z</time>
      </trkpt>
      <trkpt lat="47.09147" lon="-1.62123">
        <ele>5.9</ele>
        <time>2021-05-15T03:50:07.396Z</time>
      </trkpt>
      <trkpt lat="47.09158" lon="-1.62118">
        <ele>5.6</ele>
        <time>2021-05-15T03:50:08.995Z</time>
      </trkpt>
      <trkpt lat="47.09169" lon="-1.62113">
        <ele>5.4</ele>
        <time>2021-05-15T03:50:10.595Z</time>
      </trkpt>
      <trkpt lat="47.0918" lon="-1.62105">
        <ele>5.3</ele>
        <time>2021-05-15T03:50:12.299Z</time>
      </trkpt>
      <trkpt lat="47.09183" lon="-1.6209">
        <ele>5.1</ele>
        <time>2021-05-15T03:50:15.929Z</time>
      </trkpt>
      <trkpt lat="47.09178" lon="-1.62074">
        <ele>5</ele>
        <time>2021-05-15T03:50:17.594Z</time>
      </trkpt>
      <trkpt lat="47.09171" lon="-1.6206">
        <ele>5</ele>
        <time>2021-05-15T03:50:21.307Z</time>
      </trkpt>
      <trkpt lat="47.09165" lon="-1.62044">
        <ele>5</ele>
        <time>2021-05-15T03:50:23.034Z</time>
      </trkpt>
      <trkpt lat="47.09159" lon="-1.62028">
        <ele>5.2</ele>
        <time>2021-05-15T03:50:24.761Z</time>
      </trkpt>
      <trkpt lat="47.09153" lon="-1.62013">
        <ele>5.3</ele>
        <time>2021-05-15T03:50:28.475Z</time>
      </trkpt>
      <trkpt lat="47.09148" lon="-1.61997">
        <ele>5.5</ele>
        <time>2021-05-15T03:50:30.140Z</time>
      </trkpt>
      <trkpt lat="47.09142" lon="-1.61981">
        <ele>5.7</ele>
        <time>2021-05-15T03:50:31.867Z</time>
      </trkpt>
      <trkpt lat="47.09137" lon="-1.61964">
        <ele>5.8</ele>
        <time>2021-05-15T03:50:33.618Z</time>
      </trkpt>
      <trkpt lat="47.09131" lon="-1.61949">
        <ele>5.9</ele>
        <time>2021-05-15T03:50:35.263Z</time>
      </trkpt>
      <trkpt lat="47.09125" lon="-1.61935">
        <ele>6</ele>
        <time>2021-05-15T03:50:36.827Z</time>
      </trkpt>
      <trkpt lat="47.09119" lon="-1.61919">
        <ele>6</ele>
        <time>2021-05-15T03:50:38.554Z</time>
      </trkpt>
      <trkpt lat="47.09113" lon="-1.61903">
        <ele>6.1</ele>
        <time>2021-05-15T03:50:42.326Z</time>
      </trkpt>
      <trkpt lat="47.09107" lon="-1.61887">
        <ele>6.2</ele>
        <time>2021-05-15T03:50:44.053Z</time>
      </trkpt>
      <trkpt lat="47.09101" lon="-1.61871">
        <ele>6.2</ele>
        <time>2021-05-15T03:50:45.780Z</time>
      </trkpt>
      <trkpt lat="47.09095" lon="-1.61854">
        <ele>6.2</ele>
        <time>2021-05-15T03:50:47.591Z</time>
      </trkpt>
      <trkpt lat="47.09089" lon="-1.61837">
        <ele>6.1</ele>
        <time>2021-05-15T03:50:49.401Z</time>
      </trkpt>
      <trkpt lat="47.09083" lon="-1.6182">
        <ele>6.2</ele>
        <time>2021-05-15T03:50:51.212Z</time>
      </trkpt>
      <trkpt lat="47.09078" lon="-1.61804">
        <ele>6.4</ele>
        <time>2021-05-15T03:50:54.939Z</time>
      </trkpt>
      <trkpt lat="47.09072" lon="-1.61788">
        <ele>6.6</ele>
        <time>2021-05-15T03:50:56.666Z</time>
      </trkpt>
      <trkpt lat="47.09066" lon="-1.61772">
        <ele>6.8</ele>
        <time>2021-05-15T03:50:58.393Z</time>
      </trkpt>
      <trkpt lat="47.0906" lon="-1.61755">
        <ele>7</ele>
        <time>2021-05-15T03:50:59.402Z</time>
      </trkpt>
      <trkpt lat="47.09054" lon="-1.6174">
        <ele>7</ele>
        <time>2021-05-15T03:51:01.047Z</time>
      </trkpt>
      <trkpt lat="47.09049" lon="-1.61724">
        <ele>6.9</ele>
        <time>2021-05-15T03:51:04.774Z</time>
      </trkpt>
      <trkpt lat="47.09043" lon="-1.61707">
        <ele>7</ele>
        <time>2021-05-15T03:51:05.783Z</time>
      </trkpt>
      <trkpt lat="47.09037" lon="-1.61691">
        <ele>7.1</ele>
        <time>2021-05-15T03:51:07.510Z</time>
      </trkpt>
      <trkpt lat="47.09032" lon="-1.61675">
        <ele>7.2</ele>
        <time>2021-05-15T03:51:09.175Z</time>
      </trkpt>
      <trkpt lat="47.09026" lon="-1.61658">
        <ele>7.4</ele>
        <time>2021-05-15T03:51:10.985Z</time>
      </trkpt>
      <trkpt lat="47.0902" lon="-1.61642">
        <ele>7.7</ele>
        <time>2021-05-15T03:51:12.713Z</time>
      </trkpt>
      <trkpt lat="47.09014" lon="-1.61627">
        <ele>7.8</ele>
        <time>2021-05-15T03:51:14.358Z</time>
      </trkpt>
      <trkpt lat="47.09008" lon="-1.61611">
        <ele>7.9</ele>
        <time>2021-05-15T03:51:16.085Z</time>
      </trkpt>
      <trkpt lat="47.09002" lon="-1.61596">
        <ele>8</ele>
        <time>2021-05-15T03:51:17.730Z</time>
      </trkpt>
      <trkpt lat="47.09" lon="-1.6158">
        <ele>8</ele>
        <time>2021-05-15T03:51:19.268Z</time>
      </trkpt>
      <trkpt lat="47.09011" lon="-1.61572">
        <ele>8.1</ele>
        <time>2021-05-15T03:51:20.973Z</time>
      </trkpt>
      <trkpt lat="47.09023" lon="-1.61566">
        <ele>8.2</ele>
        <time>2021-05-15T03:51:22.733Z</time>
      </trkpt>
      <trkpt lat="47.09034" lon="-1.61559">
        <ele>8.3</ele>
        <time>2021-05-15T03:51:24.398Z</time>
      </trkpt>
      <trkpt lat="47.09045" lon="-1.61553">
        <ele>8.4</ele>
        <time>2021-05-15T03:51:28.103Z</time>
      </trkpt>
      <trkpt lat="47.09057" lon="-1.61547">
        <ele>8.4</ele>
        <time>2021-05-15T03:51:29.863Z</time>
      </trkpt>
      <trkpt lat="47.09068" lon="-1.61541">
        <ele>8.5</ele>
        <time>2021-05-15T03:51:31.493Z</time>
      </trkpt>
      <trkpt lat="47.0908" lon="-1.61535">
        <ele>8.6</ele>
        <time>2021-05-15T03:51:33.253Z</time>
      </trkpt>
      <trkpt lat="47.09091" lon="-1.61528">
        <ele>8.8</ele>
        <time>2021-05-15T03:51:34.918Z</time>
      </trkpt>
      <trkpt lat="47.09103" lon="-1.61522">
        <ele>9</ele>
        <time>2021-05-15T03:51:36.679Z</time>
      </trkpt>
      <trkpt lat="47.09114" lon="-1.61516">
        <ele>9.2</ele>
        <time>2021-05-15T03:51:38.308Z</time>
      </trkpt>
      <trkpt lat="47.09124" lon="-1.6151">
        <ele>9.4</ele>
        <time>2021-05-15T03:51:39.808Z</time>
      </trkpt>
      <trkpt lat="47.09135" lon="-1.61504">
        <ele>9.6</ele>
        <time>2021-05-15T03:51:41.438Z</time>
      </trkpt>
      <trkpt lat="47.09145" lon="-1.61498">
        <ele>9.7</ele>
        <time>2021-05-15T03:51:42.938Z</time>
      </trkpt>
      <trkpt lat="47.09156" lon="-1.61491">
        <ele>9.8</ele>
        <time>2021-05-15T03:51:44.603Z</time>
      </trkpt>
      <trkpt lat="47.09167" lon="-1.61485">
        <ele>9.8</ele>
        <time>2021-05-15T03:51:46.233Z</time>
      </trkpt>
      <trkpt lat="47.09178" lon="-1.61478">
        <ele>9.7</ele>
        <time>2021-05-15T03:51:47.898Z</time>
      </trkpt>
      <trkpt lat="47.09189" lon="-1.61472">
        <ele>9.7</ele>
        <time>2021-05-15T03:51:49.527Z</time>
      </trkpt>
      <trkpt lat="47.092" lon="-1.61466">
        <ele>9.6</ele>
        <time>2021-05-15T03:51:51.157Z</time>
      </trkpt>
      <trkpt lat="47.09211" lon="-1.61459">
        <ele>9.5</ele>
        <time>2021-05-15T03:51:52.822Z</time>
      </trkpt>
      <trkpt lat="47.09222" lon="-1.61453">
        <ele>9.4</ele>
        <time>2021-05-15T03:51:54.451Z</time>
      </trkpt>
      <trkpt lat="47.09233" lon="-1.61446">
        <ele>9.4</ele>
        <time>2021-05-15T03:51:56.116Z</time>
      </trkpt>
      <trkpt lat="47.09244" lon="-1.61439">
        <ele>9.3</ele>
        <time>2021-05-15T03:51:57.781Z</time>
      </trkpt>
      <trkpt lat="47.09255" lon="-1.61433">
        <ele>9.1</ele>
        <time>2021-05-15T03:51:59.411Z</time>
      </trkpt>
      <trkpt lat="47.09266" lon="-1.61428">
        <ele>8.9</ele>
        <time>2021-05-15T03:52:03.097Z</time>
      </trkpt>
      <trkpt lat="47.09276" lon="-1.61421">
        <ele>8.7</ele>
        <time>2021-05-15T03:52:04.635Z</time>
      </trkpt>
      <trkpt lat="47.09283" lon="-1.61409">
        <ele>8.7</ele>
        <time>2021-05-15T03:52:06.130Z</time>
      </trkpt>
      <trkpt lat="47.09281" lon="-1.61393">
        <ele>8.9</ele>
        <time>2021-05-15T03:52:07.668Z</time>
      </trkpt>
      <trkpt lat="47.09278" lon="-1.61376">
        <ele>9.2</ele>
        <time>2021-05-15T03:52:08.593Z</time>
      </trkpt>
      <trkpt lat="47.09275" lon="-1.61359">
        <ele>9.4</ele>
        <time>2021-05-15T03:52:10.253Z</time>
      </trkpt>
      <trkpt lat="47.09272" lon="-1.61341">
        <ele>9.6</ele>
        <time>2021-05-15T03:52:12.006Z</time>
      </trkpt>
      <trkpt lat="47.09269" lon="-1.61324">
        <ele>9.8</ele>
        <time>2021-05-15T03:52:13.666Z</time>
      </trkpt>
      <trkpt lat="47.09266" lon="-1.61306">
        <ele>9.9</ele>
        <time>2021-05-15T03:52:15.418Z</time>
      </trkpt>
      <trkpt lat="47.09262" lon="-1.6129">
        <ele>9.9</ele>
        <time>2021-05-15T03:52:17.030Z</time>
      </trkpt>
      <trkpt lat="47.09259" lon="-1.61273">
        <ele>10</ele>
        <time>2021-05-15T03:52:20.754Z</time>
      </trkpt>
      <trkpt lat="47.09254" lon="-1.61257">
        <ele>10</ele>
        <time>2021-05-15T03:52:22.419Z</time>
      </trkpt>
      <trkpt lat="47.0925" lon="-1.61241">
        <ele>10</ele>
        <time>2021-05-15T03:52:24.030Z</time>
      </trkpt>
      <trkpt lat="47.09246" lon="-1.61225">
        <ele>10</ele>
        <time>2021-05-15T03:52:25.642Z</time>
      </trkpt>
      <trkpt lat="47.09242" lon="-1.61211">
        <ele>10</ele>
        <time>2021-05-15T03:52:29.260Z</time>
      </trkpt>
      <trkpt lat="47.09237" lon="-1.61195">
        <ele>10</ele>
        <time>2021-05-15T03:52:30.188Z</time>
      </trkpt>
      <trkpt lat="47.0924" lon="-1.61182">
        <ele>10</ele>
        <time>2021-05-15T03:52:31.486Z</time>
      </trkpt>
      <trkpt lat="47.0925" lon="-1.61184">
        <ele>10</ele>
        <time>2021-05-15T03:52:32.887Z</time>
      </trkpt>
      <trkpt lat="47.0926" lon="-1.61183">
        <ele>10</ele>
        <time>2021-05-15T03:52:34.279Z</time>
      </trkpt>
      <trkpt lat="47.09272" lon="-1.61186">
        <ele>10</ele>
        <time>2021-05-15T03:52:35.970Z</time>
      </trkpt>
      <trkpt lat="47.09285" lon="-1.61189">
        <ele>10</ele>
        <time>2021-05-15T03:52:36.988Z</time>
      </trkpt>
      <trkpt lat="47.09298" lon="-1.61192">
        <ele>10</ele>
        <time>2021-05-15T03:52:38.816Z</time>
      </trkpt>
      <trkpt lat="47.09311" lon="-1.61195">
        <ele>10</ele>
        <time>2021-05-15T03:52:39.834Z</time>
      </trkpt>
      <trkpt lat="47.09324" lon="-1.61198">
        <ele>10</ele>
        <time>2021-05-15T03:52:41.661Z</time>
      </trkpt>
      <trkpt lat="47.09336" lon="-1.61201">
        <ele>9.9</ele>
        <time>2021-05-15T03:52:45.406Z</time>
      </trkpt>
      <trkpt lat="47.09348" lon="-1.61204">
        <ele>9.6</ele>
        <time>2021-05-15T03:52:47.097Z</time>
      </trkpt>
      <trkpt lat="47.0936" lon="-1.61207">
        <ele>9.4</ele>
        <time>2021-05-15T03:52:48.787Z</time>
      </trkpt>
      <trkpt lat="47.09372" lon="-1.61213">
        <ele>9.1</ele>
        <time>2021-05-15T03:52:50.548Z</time>
      </trkpt>
      <trkpt lat="47.09384" lon="-1.61219">
        <ele>8.8</ele>
        <time>2021-05-15T03:52:52.308Z</time>
      </trkpt>
      <trkpt lat="47.09396" lon="-1.61225">
        <ele>8.5</ele>
        <time>2021-05-15T03:52:53.289Z</time>
      </trkpt>
      <trkpt lat="47.09408" lon="-1.6123">
        <ele>8.2</ele>
        <time>2021-05-15T03:52:57.065Z</time>
      </trkpt>
      <trkpt lat="47.0942" lon="-1.6123">
        <ele>7.9</ele>
        <time>2021-05-15T03:52:57.993Z</time>
      </trkpt>
      <trkpt lat="47.09432" lon="-1.6122">
        <ele>7.8</ele>
        <time>2021-05-15T03:52:59.909Z</time>
      </trkpt>
      <trkpt lat="47.09442" lon="-1.61208">
        <ele>7.7</ele>
        <time>2021-05-15T03:53:01.703Z</time>
      </trkpt>
      <trkpt lat="47.09452" lon="-1.61196">
        <ele>7.7</ele>
        <time>2021-05-15T03:53:03.496Z</time>
      </trkpt>
      <trkpt lat="47.09462" lon="-1.61184">
        <ele>7.8</ele>
        <time>2021-05-15T03:53:04.495Z</time>
      </trkpt>
      <trkpt lat="47.09473" lon="-1.61174">
        <ele>7.9</ele>
        <time>2021-05-15T03:53:06.292Z</time>
      </trkpt>
      <trkpt lat="47.09483" lon="-1.61162">
        <ele>7.9</ele>
        <time>2021-05-15T03:53:08.085Z</time>
      </trkpt>
      <trkpt lat="47.09493" lon="-1.61152">
        <ele>7.8</ele>
        <time>2021-05-15T03:53:09.765Z</time>
      </trkpt>
      <trkpt lat="47.09506" lon="-1.61145">
        <ele>7.5</ele>
        <time>2021-05-15T03:53:11.688Z</time>
      </trkpt>
      <trkpt lat="47.09518" lon="-1.6114">
        <ele>7.1</ele>
        <time>2021-05-15T03:53:13.420Z</time>
      </trkpt>
      <trkpt lat="47.0953" lon="-1.61136">
        <ele>6.7</ele>
        <time>2021-05-15T03:53:15.129Z</time>
      </trkpt>
      <trkpt lat="47.09542" lon="-1.61134">
        <ele>6.3</ele>
        <time>2021-05-15T03:53:16.807Z</time>
      </trkpt>
      <trkpt lat="47.09555" lon="-1.61133">
        <ele>5.9</ele>
        <time>2021-05-15T03:53:20.642Z</time>
      </trkpt>
      <trkpt lat="47.09567" lon="-1.61131">
        <ele>5.5</ele>
        <time>2021-05-15T03:53:22.319Z</time>
      </trkpt>
      <trkpt lat="47.0958" lon="-1.61129">
        <ele>5.1</ele>
        <time>2021-05-15T03:53:23.330Z</time>
      </trkpt>
      <trkpt lat="47.09594" lon="-1.61128">
        <ele>4.8</ele>
        <time>2021-05-15T03:53:24.415Z</time>
      </trkpt>
      <trkpt lat="47.09606" lon="-1.61126">
        <ele>4.6</ele>
        <time>2021-05-15T03:53:26.092Z</time>
      </trkpt>
      <trkpt lat="47.09619" lon="-1.61124">
        <ele>4.4</ele>
        <time>2021-05-15T03:53:27.908Z</time>
      </trkpt>
      <trkpt lat="47.09632" lon="-1.61122">
        <ele>4.1</ele>
        <time>2021-05-15T03:53:29.723Z</time>
      </trkpt>
      <trkpt lat="47.09645" lon="-1.61121">
        <ele>3.9</ele>
        <time>2021-05-15T03:53:30.730Z</time>
      </trkpt>
      <trkpt lat="47.09658" lon="-1.6112">
        <ele>3.6</ele>
        <time>2021-05-15T03:53:32.538Z</time>
      </trkpt>
      <trkpt lat="47.0967" lon="-1.61118">
        <ele>3.4</ele>
        <time>2021-05-15T03:53:34.215Z</time>
      </trkpt>
      <trkpt lat="47.09683" lon="-1.61117">
        <ele>3.2</ele>
        <time>2021-05-15T03:53:36.023Z</time>
      </trkpt>
      <trkpt lat="47.09696" lon="-1.61115">
        <ele>3</ele>
        <time>2021-05-15T03:53:37.035Z</time>
      </trkpt>
      <trkpt lat="47.0971" lon="-1.61114">
        <ele>2.8</ele>
        <time>2021-05-15T03:53:38.981Z</time>
      </trkpt>
      <trkpt lat="47.09723" lon="-1.61112">
        <ele>2.7</ele>
        <time>2021-05-15T03:53:40.797Z</time>
      </trkpt>
      <trkpt lat="47.09736" lon="-1.6111">
        <ele>2.5</ele>
        <time>2021-05-15T03:53:42.612Z</time>
      </trkpt>
      <trkpt lat="47.09749" lon="-1.61108">
        <ele>2.3</ele>
        <time>2021-05-15T03:53:44.427Z</time>
      </trkpt>
      <trkpt lat="47.09761" lon="-1.61107">
        <ele>2.6</ele>
        <time>2021-05-15T03:53:46.096Z</time>
      </trkpt>
      <trkpt lat="47.09774" lon="-1.61105">
        <ele>3</ele>
        <time>2021-05-15T03:53:47.912Z</time>
      </trkpt>
      <trkpt lat="47.09786" lon="-1.61103">
        <ele>3.4</ele>
        <time>2021-05-15T03:53:51.647Z</time>
      </trkpt>
      <trkpt lat="47.09799" lon="-1.61098">
        <ele>3.8</ele>
        <time>2021-05-15T03:53:53.514Z</time>
      </trkpt>
      <trkpt lat="47.09811" lon="-1.61092">
        <ele>4.2</ele>
        <time>2021-05-15T03:53:55.274Z</time>
      </trkpt>
      <trkpt lat="47.09823" lon="-1.61084">
        <ele>4.6</ele>
        <time>2021-05-15T03:53:57.104Z</time>
      </trkpt>
      <trkpt lat="47.09834" lon="-1.61075">
        <ele>5.1</ele>
        <time>2021-05-15T03:53:58.853Z</time>
      </trkpt>
      <trkpt lat="47.09843" lon="-1.61065">
        <ele>5.4</ele>
        <time>2021-05-15T03:53:59.726Z</time>
      </trkpt>
      <trkpt lat="47.09852" lon="-1.61053">
        <ele>5.7</ele>
        <time>2021-05-15T03:54:01.414Z</time>
      </trkpt>
      <trkpt lat="47.0986" lon="-1.6104">
        <ele>6</ele>
        <time>2021-05-15T03:54:03.071Z</time>
      </trkpt>
      <trkpt lat="47.09867" lon="-1.61026">
        <ele>6.2</ele>
        <time>2021-05-15T03:54:06.783Z</time>
      </trkpt>
      <trkpt lat="47.09874" lon="-1.61012">
        <ele>6.4</ele>
        <time>2021-05-15T03:54:08.426Z</time>
      </trkpt>
      <trkpt lat="47.09881" lon="-1.60996">
        <ele>6.6</ele>
        <time>2021-05-15T03:54:10.224Z</time>
      </trkpt>
      <trkpt lat="47.09887" lon="-1.60981">
        <ele>6.8</ele>
        <time>2021-05-15T03:54:11.869Z</time>
      </trkpt>
      <trkpt lat="47.09893" lon="-1.60965">
        <ele>7</ele>
        <time>2021-05-15T03:54:13.596Z</time>
      </trkpt>
      <trkpt lat="47.09899" lon="-1.6095">
        <ele>7.3</ele>
        <time>2021-05-15T03:54:15.240Z</time>
      </trkpt>
      <trkpt lat="47.09905" lon="-1.60934">
        <ele>7.5</ele>
        <time>2021-05-15T03:54:19.012Z</time>
      </trkpt>
      <trkpt lat="47.09911" lon="-1.60919">
        <ele>7.8</ele>
        <time>2021-05-15T03:54:20.657Z</time>
      </trkpt>
      <trkpt lat="47.09917" lon="-1.60904">
        <ele>8</ele>
        <time>2021-05-15T03:54:22.301Z</time>
      </trkpt>
      <trkpt lat="47.09923" lon="-1.60889">
        <ele>7.9</ele>
        <time>2021-05-15T03:54:23.946Z</time>
      </trkpt>
      <trkpt lat="47.09929" lon="-1.60874">
        <ele>7.9</ele>
        <time>2021-05-15T03:54:25.591Z</time>
      </trkpt>
      <trkpt lat="47.09935" lon="-1.60859">
        <ele>7.8</ele>
        <time>2021-05-15T03:54:29.305Z</time>
      </trkpt>
      <trkpt lat="47.09941" lon="-1.60844">
        <ele>7.7</ele>
        <time>2021-05-15T03:54:30.950Z</time>
      </trkpt>
      <trkpt lat="47.09946" lon="-1.60828">
        <ele>7.7</ele>
        <time>2021-05-15T03:54:32.614Z</time>
      </trkpt>
      <trkpt lat="47.09951" lon="-1.60812">
        <ele>7.7</ele>
        <time>2021-05-15T03:54:36.341Z</time>
      </trkpt>
      <trkpt lat="47.09956" lon="-1.60797">
        <ele>7.7</ele>
        <time>2021-05-15T03:54:37.920Z</time>
      </trkpt>
      <trkpt lat="47.09961" lon="-1.60781">
        <ele>7.8</ele>
        <time>2021-05-15T03:54:39.585Z</time>
      </trkpt>
      <trkpt lat="47.09965" lon="-1.60765">
        <ele>7.9</ele>
        <time>2021-05-15T03:54:41.196Z</time>
      </trkpt>
      <trkpt lat="47.09971" lon="-1.6075">
        <ele>8</ele>
        <time>2021-05-15T03:54:42.841Z</time>
      </trkpt>
      <trkpt lat="47.09975" lon="-1.60734">
        <ele>7.9</ele>
        <time>2021-05-15T03:54:44.452Z</time>
      </trkpt>
      <trkpt lat="47.0998" lon="-1.60718">
        <ele>7.9</ele>
        <time>2021-05-15T03:54:46.117Z</time>
      </trkpt>
      <trkpt lat="47.09984" lon="-1.60703">
        <ele>7.9</ele>
        <time>2021-05-15T03:54:47.640Z</time>
      </trkpt>
      <trkpt lat="47.09989" lon="-1.60687">
        <ele>7.9</ele>
        <time>2021-05-15T03:54:49.304Z</time>
      </trkpt>
      <trkpt lat="47.09994" lon="-1.60671">
        <ele>7.9</ele>
        <time>2021-05-15T03:54:50.968Z</time>
      </trkpt>
      <trkpt lat="47.09999" lon="-1.60654">
        <ele>8.3</ele>
        <time>2021-05-15T03:54:52.719Z</time>
      </trkpt>
      <trkpt lat="47.10003" lon="-1.60638">
        <ele>8.7</ele>
        <time>2021-05-15T03:54:53.617Z</time>
      </trkpt>
      <trkpt lat="47.10008" lon="-1.60622">
        <ele>9</ele>
        <time>2021-05-15T03:54:55.281Z</time>
      </trkpt>
      <trkpt lat="47.10013" lon="-1.60606">
        <ele>9.2</ele>
        <time>2021-05-15T03:54:56.946Z</time>
      </trkpt>
      <trkpt lat="47.10018" lon="-1.6059">
        <ele>9.4</ele>
        <time>2021-05-15T03:54:58.610Z</time>
      </trkpt>
      <trkpt lat="47.10023" lon="-1.60574">
        <ele>9.3</ele>
        <time>2021-05-15T03:55:00.275Z</time>
      </trkpt>
      <trkpt lat="47.10027" lon="-1.60557">
        <ele>9</ele>
        <time>2021-05-15T03:55:01.975Z</time>
      </trkpt>
      <trkpt lat="47.10032" lon="-1.60541">
        <ele>8.7</ele>
        <time>2021-05-15T03:55:03.639Z</time>
      </trkpt>
      <trkpt lat="47.10037" lon="-1.60524">
        <ele>8.4</ele>
        <time>2021-05-15T03:55:05.390Z</time>
      </trkpt>
      <trkpt lat="47.10042" lon="-1.60507">
        <ele>8.1</ele>
        <time>2021-05-15T03:55:07.141Z</time>
      </trkpt>
      <trkpt lat="47.10046" lon="-1.6049">
        <ele>8.1</ele>
        <time>2021-05-15T03:55:10.893Z</time>
      </trkpt>
      <trkpt lat="47.1005" lon="-1.60473">
        <ele>8.4</ele>
        <time>2021-05-15T03:55:12.593Z</time>
      </trkpt>
      <trkpt lat="47.10053" lon="-1.60455">
        <ele>8.8</ele>
        <time>2021-05-15T03:55:14.345Z</time>
      </trkpt>
      <trkpt lat="47.10056" lon="-1.60437">
        <ele>9.2</ele>
        <time>2021-05-15T03:55:16.097Z</time>
      </trkpt>
      <trkpt lat="47.10059" lon="-1.60419">
        <ele>9.6</ele>
        <time>2021-05-15T03:55:17.849Z</time>
      </trkpt>
      <trkpt lat="47.10061" lon="-1.60401">
        <ele>9.4</ele>
        <time>2021-05-15T03:55:19.573Z</time>
      </trkpt>
      <trkpt lat="47.10063" lon="-1.60383">
        <ele>8.9</ele>
        <time>2021-05-15T03:55:21.298Z</time>
      </trkpt>
      <trkpt lat="47.10065" lon="-1.60365">
        <ele>8.5</ele>
        <time>2021-05-15T03:55:23.022Z</time>
      </trkpt>
      <trkpt lat="47.10067" lon="-1.60346">
        <ele>8.1</ele>
        <time>2021-05-15T03:55:26.865Z</time>
      </trkpt>
      <trkpt lat="47.10068" lon="-1.60329">
        <ele>7.8</ele>
        <time>2021-05-15T03:55:28.478Z</time>
      </trkpt>
      <trkpt lat="47.1007" lon="-1.60311">
        <ele>7.8</ele>
        <time>2021-05-15T03:55:30.202Z</time>
      </trkpt>
      <trkpt lat="47.10071" lon="-1.60294">
        <ele>7.8</ele>
        <time>2021-05-15T03:55:31.815Z</time>
      </trkpt>
      <trkpt lat="47.10073" lon="-1.60277">
        <ele>7.8</ele>
        <time>2021-05-15T03:55:33.446Z</time>
      </trkpt>
      <trkpt lat="47.10075" lon="-1.60258">
        <ele>7.8</ele>
        <time>2021-05-15T03:55:35.264Z</time>
      </trkpt>
      <trkpt lat="47.10076" lon="-1.6024">
        <ele>7.7</ele>
        <time>2021-05-15T03:55:36.971Z</time>
      </trkpt>
      <trkpt lat="47.10077" lon="-1.60223">
        <ele>7.5</ele>
        <time>2021-05-15T03:55:38.584Z</time>
      </trkpt>
      <trkpt lat="47.10078" lon="-1.60205">
        <ele>7.4</ele>
        <time>2021-05-15T03:55:39.536Z</time>
      </trkpt>
      <trkpt lat="47.10079" lon="-1.60188">
        <ele>7.2</ele>
        <time>2021-05-15T03:55:43.230Z</time>
      </trkpt>
      <trkpt lat="47.10078" lon="-1.6017">
        <ele>7</ele>
        <time>2021-05-15T03:55:44.937Z</time>
      </trkpt>
      <trkpt lat="47.10075" lon="-1.60153">
        <ele>6.9</ele>
        <time>2021-05-15T03:55:46.598Z</time>
      </trkpt>
      <trkpt lat="47.10071" lon="-1.60135">
        <ele>6.8</ele>
        <time>2021-05-15T03:55:48.388Z</time>
      </trkpt>
      <trkpt lat="47.10074" lon="-1.60116">
        <ele>6.8</ele>
        <time>2021-05-15T03:55:50.232Z</time>
      </trkpt>
      <trkpt lat="47.10084" lon="-1.60103">
        <ele>7</ele>
        <time>2021-05-15T03:55:52.086Z</time>
      </trkpt>
      <trkpt lat="47.10096" lon="-1.60096">
        <ele>7</ele>
        <time>2021-05-15T03:55:53.879Z</time>
      </trkpt>
      <trkpt lat="47.10106" lon="-1.60088">
        <ele>7</ele>
        <time>2021-05-15T03:55:55.461Z</time>
      </trkpt>
      <trkpt lat="47.10115" lon="-1.60075">
        <ele>7</ele>
        <time>2021-05-15T03:55:59.252Z</time>
      </trkpt>
      <trkpt lat="47.10123" lon="-1.60062">
        <ele>7</ele>
        <time>2021-05-15T03:56:00.908Z</time>
      </trkpt>
      <trkpt lat="47.1013" lon="-1.60049">
        <ele>7</ele>
        <time>2021-05-15T03:56:06.953Z</time>
      </trkpt>
      <trkpt lat="47.10134" lon="-1.60037">
        <ele>7</ele>
        <time>2021-05-15T03:56:10.590Z</time>
      </trkpt>
      <trkpt lat="47.10139" lon="-1.60024">
        <ele>7</ele>
        <time>2021-05-15T03:56:11.376Z</time>
      </trkpt>
      <trkpt lat="47.10147" lon="-1.60012">
        <ele>7</ele>
        <time>2021-05-15T03:56:12.964Z</time>
      </trkpt>
      <trkpt lat="47.10156" lon="-1.59998">
        <ele>7</ele>
        <time>2021-05-15T03:56:13.979Z</time>
      </trkpt>
      <trkpt lat="47.10164" lon="-1.59984">
        <ele>7</ele>
        <time>2021-05-15T03:56:15.707Z</time>
      </trkpt>
      <trkpt lat="47.10173" lon="-1.5997">
        <ele>6.9</ele>
        <time>2021-05-15T03:56:16.721Z</time>
      </trkpt>
      <trkpt lat="47.10181" lon="-1.59956">
        <ele>6.8</ele>
        <time>2021-05-15T03:56:20.493Z</time>
      </trkpt>
      <trkpt lat="47.1019" lon="-1.59943">
        <ele>6.7</ele>
        <time>2021-05-15T03:56:22.246Z</time>
      </trkpt>
      <trkpt lat="47.10198" lon="-1.59929">
        <ele>6.6</ele>
        <time>2021-05-15T03:56:23.209Z</time>
      </trkpt>
      <trkpt lat="47.10207" lon="-1.59915">
        <ele>6.5</ele>
        <time>2021-05-15T03:56:27.054Z</time>
      </trkpt>
      <trkpt lat="47.10214" lon="-1.59901">
        <ele>6.5</ele>
        <time>2021-05-15T03:56:28.696Z</time>
      </trkpt>
      <trkpt lat="47.10223" lon="-1.59887">
        <ele>6.6</ele>
        <time>2021-05-15T03:56:32.542Z</time>
      </trkpt>
      <trkpt lat="47.10231" lon="-1.59874">
        <ele>6.6</ele>
        <time>2021-05-15T03:56:34.199Z</time>
      </trkpt>
      <trkpt lat="47.10238" lon="-1.5986">
        <ele>6.7</ele>
        <time>2021-05-15T03:56:37.911Z</time>
      </trkpt>
      <trkpt lat="47.10247" lon="-1.59847">
        <ele>6.8</ele>
        <time>2021-05-15T03:56:41.702Z</time>
      </trkpt>
      <trkpt lat="47.10255" lon="-1.59834">
        <ele>7.1</ele>
        <time>2021-05-15T03:56:43.359Z</time>
      </trkpt>
      <trkpt lat="47.10264" lon="-1.59821">
        <ele>7.3</ele>
        <time>2021-05-15T03:56:44.335Z</time>
      </trkpt>
      <trkpt lat="47.10272" lon="-1.59808">
        <ele>7.5</ele>
        <time>2021-05-15T03:56:45.258Z</time>
      </trkpt>
      <trkpt lat="47.1028" lon="-1.59796">
        <ele>7.6</ele>
        <time>2021-05-15T03:56:46.846Z</time>
      </trkpt>
      <trkpt lat="47.10287" lon="-1.59784">
        <ele>7.8</ele>
        <time>2021-05-15T03:56:48.340Z</time>
      </trkpt>
      <trkpt lat="47.10295" lon="-1.59771">
        <ele>7.9</ele>
        <time>2021-05-15T03:56:49.997Z</time>
      </trkpt>
      <trkpt lat="47.10302" lon="-1.59758">
        <ele>8</ele>
        <time>2021-05-15T03:56:50.870Z</time>
      </trkpt>
      <trkpt lat="47.1031" lon="-1.59744">
        <ele>8.1</ele>
        <time>2021-05-15T03:56:54.642Z</time>
      </trkpt>
      <trkpt lat="47.10317" lon="-1.59731">
        <ele>8.4</ele>
        <time>2021-05-15T03:56:58.311Z</time>
      </trkpt>
      <trkpt lat="47.10324" lon="-1.59718">
        <ele>8.7</ele>
        <time>2021-05-15T03:57:01.979Z</time>
      </trkpt>
      <trkpt lat="47.10332" lon="-1.59705">
        <ele>9.1</ele>
        <time>2021-05-15T03:57:05.701Z</time>
      </trkpt>
      <trkpt lat="47.1034" lon="-1.59692">
        <ele>9.3</ele>
        <time>2021-05-15T03:57:09.423Z</time>
      </trkpt>
      <trkpt lat="47.10348" lon="-1.59679">
        <ele>9.6</ele>
        <time>2021-05-15T03:57:11.079Z</time>
      </trkpt>
      <trkpt lat="47.10356" lon="-1.59667">
        <ele>9.7</ele>
        <time>2021-05-15T03:57:12.667Z</time>
      </trkpt>
      <trkpt lat="47.10364" lon="-1.59654">
        <ele>9.7</ele>
        <time>2021-05-15T03:57:14.324Z</time>
      </trkpt>
      <trkpt lat="47.10372" lon="-1.59642">
        <ele>9.7</ele>
        <time>2021-05-15T03:57:15.912Z</time>
      </trkpt>
      <trkpt lat="47.10379" lon="-1.59629">
        <ele>9.7</ele>
        <time>2021-05-15T03:57:16.785Z</time>
      </trkpt>
      <trkpt lat="47.10386" lon="-1.59616">
        <ele>9.8</ele>
        <time>2021-05-15T03:57:20.453Z</time>
      </trkpt>
      <trkpt lat="47.10394" lon="-1.59602">
        <ele>9.8</ele>
        <time>2021-05-15T03:57:22.181Z</time>
      </trkpt>
      <trkpt lat="47.10401" lon="-1.59589">
        <ele>9.9</ele>
        <time>2021-05-15T03:57:25.850Z</time>
      </trkpt>
      <trkpt lat="47.10409" lon="-1.59576">
        <ele>10</ele>
        <time>2021-05-15T03:57:26.773Z</time>
      </trkpt>
      <trkpt lat="47.10418" lon="-1.59564">
        <ele>10</ele>
        <time>2021-05-15T03:57:27.713Z</time>
      </trkpt>
      <trkpt lat="47.10425" lon="-1.59551">
        <ele>9.8</ele>
        <time>2021-05-15T03:57:28.586Z</time>
      </trkpt>
      <trkpt lat="47.10433" lon="-1.59538">
        <ele>9.7</ele>
        <time>2021-05-15T03:57:29.509Z</time>
      </trkpt>
      <trkpt lat="47.1044" lon="-1.59526">
        <ele>9.6</ele>
        <time>2021-05-15T03:57:31.003Z</time>
      </trkpt>
      <trkpt lat="47.10448" lon="-1.59515">
        <ele>9.6</ele>
        <time>2021-05-15T03:57:32.525Z</time>
      </trkpt>
      <trkpt lat="47.10456" lon="-1.59502">
        <ele>9.5</ele>
        <time>2021-05-15T03:57:33.448Z</time>
      </trkpt>
      <trkpt lat="47.10463" lon="-1.59488">
        <ele>9.5</ele>
        <time>2021-05-15T03:57:34.363Z</time>
      </trkpt>
      <trkpt lat="47.1047" lon="-1.59475">
        <ele>9.6</ele>
        <time>2021-05-15T03:57:35.930Z</time>
      </trkpt>
      <trkpt lat="47.10478" lon="-1.59462">
        <ele>9.6</ele>
        <time>2021-05-15T03:57:37.586Z</time>
      </trkpt>
      <trkpt lat="47.10485" lon="-1.59449">
        <ele>9.7</ele>
        <time>2021-05-15T03:57:39.153Z</time>
      </trkpt>
      <trkpt lat="47.10493" lon="-1.59437">
        <ele>9.8</ele>
        <time>2021-05-15T03:57:40.741Z</time>
      </trkpt>
      <trkpt lat="47.105" lon="-1.59424">
        <ele>9.9</ele>
        <time>2021-05-15T03:57:42.308Z</time>
      </trkpt>
      <trkpt lat="47.10507" lon="-1.59412">
        <ele>10.1</ele>
        <time>2021-05-15T03:57:43.802Z</time>
      </trkpt>
      <trkpt lat="47.10515" lon="-1.59399">
        <ele>10.4</ele>
        <time>2021-05-15T03:57:45.459Z</time>
      </trkpt>
      <trkpt lat="47.10522" lon="-1.59387">
        <ele>10.6</ele>
        <time>2021-05-15T03:57:46.953Z</time>
      </trkpt>
      <trkpt lat="47.1053" lon="-1.59374">
        <ele>10.9</ele>
        <time>2021-05-15T03:57:48.609Z</time>
      </trkpt>
      <trkpt lat="47.10537" lon="-1.59362">
        <ele>11.1</ele>
        <time>2021-05-15T03:57:50.103Z</time>
      </trkpt>
      <trkpt lat="47.10544" lon="-1.5935">
        <ele>11.3</ele>
        <time>2021-05-15T03:57:51.597Z</time>
      </trkpt>
      <trkpt lat="47.10552" lon="-1.59336">
        <ele>11.6</ele>
        <time>2021-05-15T03:57:53.325Z</time>
      </trkpt>
      <trkpt lat="47.10559" lon="-1.59323">
        <ele>12</ele>
        <time>2021-05-15T03:57:56.994Z</time>
      </trkpt>
      <trkpt lat="47.10566" lon="-1.5931">
        <ele>12.4</ele>
        <time>2021-05-15T03:57:58.561Z</time>
      </trkpt>
      <trkpt lat="47.10573" lon="-1.59298">
        <ele>12.7</ele>
        <time>2021-05-15T03:58:00.055Z</time>
      </trkpt>
      <trkpt lat="47.1058" lon="-1.59287">
        <ele>13.1</ele>
        <time>2021-05-15T03:58:01.478Z</time>
      </trkpt>
      <trkpt lat="47.10589" lon="-1.59276">
        <ele>13.4</ele>
        <time>2021-05-15T03:58:05.180Z</time>
      </trkpt>
      <trkpt lat="47.10599" lon="-1.59265">
        <ele>13.6</ele>
        <time>2021-05-15T03:58:06.915Z</time>
      </trkpt>
      <trkpt lat="47.10606" lon="-1.59249">
        <ele>14</ele>
        <time>2021-05-15T03:58:08.713Z</time>
      </trkpt>
      <trkpt lat="47.10614" lon="-1.59233">
        <ele>14.2</ele>
        <time>2021-05-15T03:58:10.590Z</time>
      </trkpt>
      <trkpt lat="47.10623" lon="-1.59219">
        <ele>14.4</ele>
        <time>2021-05-15T03:58:12.410Z</time>
      </trkpt>
      <trkpt lat="47.10631" lon="-1.59206">
        <ele>14.5</ele>
        <time>2021-05-15T03:58:16.132Z</time>
      </trkpt>
      <trkpt lat="47.10639" lon="-1.59191">
        <ele>14.7</ele>
        <time>2021-05-15T03:58:17.933Z</time>
      </trkpt>
      <trkpt lat="47.10646" lon="-1.59176">
        <ele>14.9</ele>
        <time>2021-05-15T03:58:19.652Z</time>
      </trkpt>
      <trkpt lat="47.10653" lon="-1.59161">
        <ele>15.1</ele>
        <time>2021-05-15T03:58:23.418Z</time>
      </trkpt>
      <trkpt lat="47.1066" lon="-1.59146">
        <ele>15.3</ele>
        <time>2021-05-15T03:58:25.137Z</time>
      </trkpt>
      <trkpt lat="47.10666" lon="-1.5913">
        <ele>15.4</ele>
        <time>2021-05-15T03:58:28.908Z</time>
      </trkpt>
      <trkpt lat="47.10672" lon="-1.59115">
        <ele>15.6</ele>
        <time>2021-05-15T03:58:30.553Z</time>
      </trkpt>
      <trkpt lat="47.10677" lon="-1.59099">
        <ele>15.7</ele>
        <time>2021-05-15T03:58:34.280Z</time>
      </trkpt>
      <trkpt lat="47.10683" lon="-1.59083">
        <ele>15.8</ele>
        <time>2021-05-15T03:58:36.007Z</time>
      </trkpt>
      <trkpt lat="47.10688" lon="-1.59068">
        <ele>16.1</ele>
        <time>2021-05-15T03:58:37.585Z</time>
      </trkpt>
      <trkpt lat="47.10693" lon="-1.59052">
        <ele>16.3</ele>
        <time>2021-05-15T03:58:41.312Z</time>
      </trkpt>
      <trkpt lat="47.10699" lon="-1.59037">
        <ele>16.5</ele>
        <time>2021-05-15T03:58:42.957Z</time>
      </trkpt>
      <trkpt lat="47.10704" lon="-1.59023">
        <ele>16.7</ele>
        <time>2021-05-15T03:58:44.451Z</time>
      </trkpt>
      <trkpt lat="47.1071" lon="-1.59008">
        <ele>16.8</ele>
        <time>2021-05-15T03:58:46.096Z</time>
      </trkpt>
      <trkpt lat="47.10716" lon="-1.58993">
        <ele>16.9</ele>
        <time>2021-05-15T03:58:47.741Z</time>
      </trkpt>
      <trkpt lat="47.10722" lon="-1.58979">
        <ele>16.8</ele>
        <time>2021-05-15T03:58:49.304Z</time>
      </trkpt>
      <trkpt lat="47.10728" lon="-1.58964">
        <ele>16.8</ele>
        <time>2021-05-15T03:58:53.018Z</time>
      </trkpt>
      <trkpt lat="47.10734" lon="-1.58948">
        <ele>16.9</ele>
        <time>2021-05-15T03:58:54.745Z</time>
      </trkpt>
      <trkpt lat="47.10739" lon="-1.58932">
        <ele>17</ele>
        <time>2021-05-15T03:58:56.409Z</time>
      </trkpt>
      <trkpt lat="47.10746" lon="-1.58918">
        <ele>17</ele>
        <time>2021-05-15T03:58:57.324Z</time>
      </trkpt>
      <trkpt lat="47.10754" lon="-1.58904">
        <ele>16.9</ele>
        <time>2021-05-15T03:58:59.052Z</time>
      </trkpt>
      <trkpt lat="47.10762" lon="-1.5889">
        <ele>16.7</ele>
        <time>2021-05-15T03:59:00.015Z</time>
      </trkpt>
      <trkpt lat="47.10771" lon="-1.58878">
        <ele>16.4</ele>
        <time>2021-05-15T03:59:01.703Z</time>
      </trkpt>
      <trkpt lat="47.10779" lon="-1.58865">
        <ele>16.1</ele>
        <time>2021-05-15T03:59:03.359Z</time>
      </trkpt>
      <trkpt lat="47.10787" lon="-1.58851">
        <ele>15.8</ele>
        <time>2021-05-15T03:59:05.087Z</time>
      </trkpt>
      <trkpt lat="47.10795" lon="-1.58838">
        <ele>15.4</ele>
        <time>2021-05-15T03:59:06.010Z</time>
      </trkpt>
      <trkpt lat="47.10803" lon="-1.58825">
        <ele>15.1</ele>
        <time>2021-05-15T03:59:07.667Z</time>
      </trkpt>
      <trkpt lat="47.10811" lon="-1.58812">
        <ele>14.9</ele>
        <time>2021-05-15T03:59:09.323Z</time>
      </trkpt>
      <trkpt lat="47.1082" lon="-1.58799">
        <ele>14.8</ele>
        <time>2021-05-15T03:59:11.076Z</time>
      </trkpt>
      <trkpt lat="47.10828" lon="-1.58785">
        <ele>14.7</ele>
        <time>2021-05-15T03:59:12.039Z</time>
      </trkpt>
      <trkpt lat="47.10837" lon="-1.58772">
        <ele>14.7</ele>
        <time>2021-05-15T03:59:13.792Z</time>
      </trkpt>
      <trkpt lat="47.10846" lon="-1.58759">
        <ele>14.7</ele>
        <time>2021-05-15T03:59:15.545Z</time>
      </trkpt>
      <trkpt lat="47.10855" lon="-1.58746">
        <ele>14.7</ele>
        <time>2021-05-15T03:59:17.297Z</time>
      </trkpt>
      <trkpt lat="47.10864" lon="-1.58733">
        <ele>14.5</ele>
        <time>2021-05-15T03:59:18.274Z</time>
      </trkpt>
      <trkpt lat="47.10873" lon="-1.5872">
        <ele>14.3</ele>
        <time>2021-05-15T03:59:20.027Z</time>
      </trkpt>
      <trkpt lat="47.10882" lon="-1.58706">
        <ele>14.2</ele>
        <time>2021-05-15T03:59:21.847Z</time>
      </trkpt>
      <trkpt lat="47.1089" lon="-1.58692">
        <ele>14.1</ele>
        <time>2021-05-15T03:59:22.810Z</time>
      </trkpt>
      <trkpt lat="47.109" lon="-1.58677">
        <ele>14</ele>
        <time>2021-05-15T03:59:24.794Z</time>
      </trkpt>
      <trkpt lat="47.1091" lon="-1.58663">
        <ele>14</ele>
        <time>2021-05-15T03:59:26.713Z</time>
      </trkpt>
      <trkpt lat="47.1092" lon="-1.5865">
        <ele>13.7</ele>
        <time>2021-05-15T03:59:27.746Z</time>
      </trkpt>
      <trkpt lat="47.1093" lon="-1.58634">
        <ele>13.3</ele>
        <time>2021-05-15T03:59:29.799Z</time>
      </trkpt>
      <trkpt lat="47.1094" lon="-1.58619">
        <ele>12.9</ele>
        <time>2021-05-15T03:59:30.905Z</time>
      </trkpt>
      <trkpt lat="47.10951" lon="-1.58604">
        <ele>12.4</ele>
        <time>2021-05-15T03:59:32.989Z</time>
      </trkpt>
      <trkpt lat="47.10962" lon="-1.58589">
        <ele>12</ele>
        <time>2021-05-15T03:59:35.073Z</time>
      </trkpt>
      <trkpt lat="47.10972" lon="-1.58573">
        <ele>11.7</ele>
        <time>2021-05-15T03:59:36.217Z</time>
      </trkpt>
      <trkpt lat="47.10982" lon="-1.58558">
        <ele>11.5</ele>
        <time>2021-05-15T03:59:38.202Z</time>
      </trkpt>
      <trkpt lat="47.10992" lon="-1.58542">
        <ele>11.2</ele>
        <time>2021-05-15T03:59:39.346Z</time>
      </trkpt>
      <trkpt lat="47.11002" lon="-1.58527">
        <ele>10.9</ele>
        <time>2021-05-15T03:59:41.331Z</time>
      </trkpt>
      <trkpt lat="47.11013" lon="-1.58512">
        <ele>10.4</ele>
        <time>2021-05-15T03:59:43.415Z</time>
      </trkpt>
      <trkpt lat="47.11023" lon="-1.58497">
        <ele>9.9</ele>
        <time>2021-05-15T03:59:44.521Z</time>
      </trkpt>
      <trkpt lat="47.11032" lon="-1.58482">
        <ele>9.3</ele>
        <time>2021-05-15T03:59:48.427Z</time>
      </trkpt>
      <trkpt lat="47.11042" lon="-1.58466">
        <ele>8.8</ele>
        <time>2021-05-15T03:59:50.480Z</time>
      </trkpt>
      <trkpt lat="47.11051" lon="-1.58451">
        <ele>8.3</ele>
        <time>2021-05-15T03:59:52.370Z</time>
      </trkpt>
      <trkpt lat="47.11061" lon="-1.58436">
        <ele>7.9</ele>
        <time>2021-05-15T03:59:54.355Z</time>
      </trkpt>
      <trkpt lat="47.11071" lon="-1.58422">
        <ele>7.5</ele>
        <time>2021-05-15T03:59:56.273Z</time>
      </trkpt>
      <trkpt lat="47.1108" lon="-1.58407">
        <ele>7.3</ele>
        <time>2021-05-15T03:59:58.163Z</time>
      </trkpt>
      <trkpt lat="47.1109" lon="-1.58394">
        <ele>7.6</ele>
        <time>2021-05-15T04:00:00.017Z</time>
      </trkpt>
      <trkpt lat="47.11099" lon="-1.58379">
        <ele>7.9</ele>
        <time>2021-05-15T04:00:01.908Z</time>
      </trkpt>
      <trkpt lat="47.11108" lon="-1.58365">
        <ele>8.2</ele>
        <time>2021-05-15T04:00:03.728Z</time>
      </trkpt>
      <trkpt lat="47.11117" lon="-1.5835">
        <ele>8.4</ele>
        <time>2021-05-15T04:00:05.618Z</time>
      </trkpt>
      <trkpt lat="47.11127" lon="-1.58337">
        <ele>8.4</ele>
        <time>2021-05-15T04:00:07.472Z</time>
      </trkpt>
      <trkpt lat="47.11136" lon="-1.58322">
        <ele>8.3</ele>
        <time>2021-05-15T04:00:09.362Z</time>
      </trkpt>
      <trkpt lat="47.11146" lon="-1.58308">
        <ele>8</ele>
        <time>2021-05-15T04:00:11.281Z</time>
      </trkpt>
      <trkpt lat="47.11155" lon="-1.58293">
        <ele>7.7</ele>
        <time>2021-05-15T04:00:13.171Z</time>
      </trkpt>
      <trkpt lat="47.11165" lon="-1.58279">
        <ele>7.4</ele>
        <time>2021-05-15T04:00:15.089Z</time>
      </trkpt>
      <trkpt lat="47.11174" lon="-1.58264">
        <ele>7</ele>
        <time>2021-05-15T04:00:16.142Z</time>
      </trkpt>
      <trkpt lat="47.11183" lon="-1.58251">
        <ele>6.6</ele>
        <time>2021-05-15T04:00:17.895Z</time>
      </trkpt>
      <trkpt lat="47.11192" lon="-1.58237">
        <ele>6.3</ele>
        <time>2021-05-15T04:00:19.715Z</time>
      </trkpt>
      <trkpt lat="47.11202" lon="-1.58223">
        <ele>6</ele>
        <time>2021-05-15T04:00:21.633Z</time>
      </trkpt>
      <trkpt lat="47.11212" lon="-1.5821">
        <ele>5.7</ele>
        <time>2021-05-15T04:00:23.488Z</time>
      </trkpt>
      <trkpt lat="47.11222" lon="-1.58197">
        <ele>5.5</ele>
        <time>2021-05-15T04:00:24.521Z</time>
      </trkpt>
      <trkpt lat="47.11232" lon="-1.58185">
        <ele>5.3</ele>
        <time>2021-05-15T04:00:26.314Z</time>
      </trkpt>
      <trkpt lat="47.11243" lon="-1.58173">
        <ele>5.1</ele>
        <time>2021-05-15T04:00:28.217Z</time>
      </trkpt>
      <trkpt lat="47.11254" lon="-1.58161">
        <ele>5.2</ele>
        <time>2021-05-15T04:00:30.119Z</time>
      </trkpt>
      <trkpt lat="47.11265" lon="-1.58151">
        <ele>5.4</ele>
        <time>2021-05-15T04:00:31.916Z</time>
      </trkpt>
      <trkpt lat="47.11277" lon="-1.58141">
        <ele>5.5</ele>
        <time>2021-05-15T04:00:33.832Z</time>
      </trkpt>
      <trkpt lat="47.11288" lon="-1.58131">
        <ele>5.6</ele>
        <time>2021-05-15T04:00:34.832Z</time>
      </trkpt>
      <trkpt lat="47.113" lon="-1.58122">
        <ele>5.6</ele>
        <time>2021-05-15T04:00:36.704Z</time>
      </trkpt>
      <trkpt lat="47.11313" lon="-1.58113">
        <ele>5.6</ele>
        <time>2021-05-15T04:00:38.699Z</time>
      </trkpt>
      <trkpt lat="47.11325" lon="-1.58105">
        <ele>5.5</ele>
        <time>2021-05-15T04:00:40.529Z</time>
      </trkpt>
      <trkpt lat="47.11338" lon="-1.58097">
        <ele>5.5</ele>
        <time>2021-05-15T04:00:42.487Z</time>
      </trkpt>
      <trkpt lat="47.1135" lon="-1.58089">
        <ele>5.8</ele>
        <time>2021-05-15T04:00:44.317Z</time>
      </trkpt>
      <trkpt lat="47.11363" lon="-1.58081">
        <ele>6.1</ele>
        <time>2021-05-15T04:00:46.274Z</time>
      </trkpt>
      <trkpt lat="47.11375" lon="-1.58073">
        <ele>6.4</ele>
        <time>2021-05-15T04:00:48.104Z</time>
      </trkpt>
      <trkpt lat="47.11388" lon="-1.58065">
        <ele>6.7</ele>
        <time>2021-05-15T04:00:50.062Z</time>
      </trkpt>
      <trkpt lat="47.11401" lon="-1.58057">
        <ele>6.9</ele>
        <time>2021-05-15T04:00:52.019Z</time>
      </trkpt>
      <trkpt lat="47.11413" lon="-1.58049">
        <ele>7.2</ele>
        <time>2021-05-15T04:00:53.849Z</time>
      </trkpt>
      <trkpt lat="47.11426" lon="-1.58041">
        <ele>7.4</ele>
        <time>2021-05-15T04:00:57.816Z</time>
      </trkpt>
      <trkpt lat="47.11439" lon="-1.58035">
        <ele>7.3</ele>
        <time>2021-05-15T04:00:59.709Z</time>
      </trkpt>
      <trkpt lat="47.11452" lon="-1.5803">
        <ele>7.1</ele>
        <time>2021-05-15T04:01:00.749Z</time>
      </trkpt>
      <trkpt lat="47.11466" lon="-1.58026">
        <ele>6.8</ele>
        <time>2021-05-15T04:01:02.729Z</time>
      </trkpt>
      <trkpt lat="47.1148" lon="-1.58023">
        <ele>6.5</ele>
        <time>2021-05-15T04:01:04.694Z</time>
      </trkpt>
      <trkpt lat="47.11493" lon="-1.5802">
        <ele>6.2</ele>
        <time>2021-05-15T04:01:06.522Z</time>
      </trkpt>
      <trkpt lat="47.11506" lon="-1.58018">
        <ele>6</ele>
        <time>2021-05-15T04:01:10.363Z</time>
      </trkpt>
      <trkpt lat="47.11519" lon="-1.58017">
        <ele>6</ele>
        <time>2021-05-15T04:01:14.198Z</time>
      </trkpt>
      <trkpt lat="47.11532" lon="-1.58017">
        <ele>6</ele>
        <time>2021-05-15T04:01:18.031Z</time>
      </trkpt>
      <trkpt lat="47.11544" lon="-1.58018">
        <ele>6</ele>
        <time>2021-05-15T04:01:19.701Z</time>
      </trkpt>
      <trkpt lat="47.11557" lon="-1.58019">
        <ele>6</ele>
        <time>2021-05-15T04:01:21.509Z</time>
      </trkpt>
      <trkpt lat="47.1157" lon="-1.5802">
        <ele>6</ele>
        <time>2021-05-15T04:01:23.316Z</time>
      </trkpt>
      <trkpt lat="47.11583" lon="-1.58021">
        <ele>6</ele>
        <time>2021-05-15T04:01:27.152Z</time>
      </trkpt>
      <trkpt lat="47.11596" lon="-1.58022">
        <ele>6.1</ele>
        <time>2021-05-15T04:01:28.960Z</time>
      </trkpt>
      <trkpt lat="47.11609" lon="-1.58024">
        <ele>6.2</ele>
        <time>2021-05-15T04:01:30.775Z</time>
      </trkpt>
      <trkpt lat="47.11621" lon="-1.58027">
        <ele>6.3</ele>
        <time>2021-05-15T04:01:32.465Z</time>
      </trkpt>
      <trkpt lat="47.11632" lon="-1.58024">
        <ele>6.4</ele>
        <time>2021-05-15T04:01:33.331Z</time>
      </trkpt>
      <trkpt lat="47.11645" lon="-1.58022">
        <ele>6.5</ele>
        <time>2021-05-15T04:01:35.146Z</time>
      </trkpt>
      <trkpt lat="47.11657" lon="-1.58025">
        <ele>6.6</ele>
        <time>2021-05-15T04:01:36.088Z</time>
      </trkpt>
      <trkpt lat="47.11669" lon="-1.58027">
        <ele>6.7</ele>
        <time>2021-05-15T04:01:37.765Z</time>
      </trkpt>
      <trkpt lat="47.11682" lon="-1.58027">
        <ele>6.6</ele>
        <time>2021-05-15T04:01:39.571Z</time>
      </trkpt>
      <trkpt lat="47.11694" lon="-1.58028">
        <ele>6.6</ele>
        <time>2021-05-15T04:01:41.240Z</time>
      </trkpt>
      <trkpt lat="47.11707" lon="-1.58029">
        <ele>6.5</ele>
        <time>2021-05-15T04:01:43.048Z</time>
      </trkpt>
      <trkpt lat="47.11719" lon="-1.5803">
        <ele>6.5</ele>
        <time>2021-05-15T04:01:44.717Z</time>
      </trkpt>
      <trkpt lat="47.11732" lon="-1.58032">
        <ele>6.4</ele>
        <time>2021-05-15T04:01:46.533Z</time>
      </trkpt>
      <trkpt lat="47.11745" lon="-1.58034">
        <ele>6.4</ele>
        <time>2021-05-15T04:01:50.374Z</time>
      </trkpt>
      <trkpt lat="47.11758" lon="-1.58036">
        <ele>6.7</ele>
        <time>2021-05-15T04:01:52.189Z</time>
      </trkpt>
      <trkpt lat="47.11771" lon="-1.58039">
        <ele>7.2</ele>
        <time>2021-05-15T04:01:54.017Z</time>
      </trkpt>
      <trkpt lat="47.11783" lon="-1.58042">
        <ele>7.7</ele>
        <time>2021-05-15T04:01:55.707Z</time>
      </trkpt>
      <trkpt lat="47.11796" lon="-1.58045">
        <ele>8.2</ele>
        <time>2021-05-15T04:01:57.535Z</time>
      </trkpt>
      <trkpt lat="47.11809" lon="-1.58048">
        <ele>8.6</ele>
        <time>2021-05-15T04:01:59.362Z</time>
      </trkpt>
      <trkpt lat="47.11822" lon="-1.58051">
        <ele>9</ele>
        <time>2021-05-15T04:02:01.190Z</time>
      </trkpt>
      <trkpt lat="47.11835" lon="-1.58054">
        <ele>9.4</ele>
        <time>2021-05-15T04:02:05.042Z</time>
      </trkpt>
      <trkpt lat="47.11847" lon="-1.58057">
        <ele>9.7</ele>
        <time>2021-05-15T04:02:06.732Z</time>
      </trkpt>
      <trkpt lat="47.11859" lon="-1.58061">
        <ele>10</ele>
        <time>2021-05-15T04:02:08.441Z</time>
      </trkpt>
      <trkpt lat="47.11872" lon="-1.58064">
        <ele>10.4</ele>
        <time>2021-05-15T04:02:10.269Z</time>
      </trkpt>
      <trkpt lat="47.11884" lon="-1.58067">
        <ele>10.8</ele>
        <time>2021-05-15T04:02:11.959Z</time>
      </trkpt>
      <trkpt lat="47.11896" lon="-1.5807">
        <ele>11.2</ele>
        <time>2021-05-15T04:02:13.650Z</time>
      </trkpt>
      <trkpt lat="47.11909" lon="-1.58073">
        <ele>11.6</ele>
        <time>2021-05-15T04:02:15.477Z</time>
      </trkpt>
      <trkpt lat="47.11921" lon="-1.58076">
        <ele>12</ele>
        <time>2021-05-15T04:02:19.222Z</time>
      </trkpt>
      <trkpt lat="47.11934" lon="-1.58079">
        <ele>12.2</ele>
        <time>2021-05-15T04:02:21.050Z</time>
      </trkpt>
      <trkpt lat="47.11946" lon="-1.58082">
        <ele>12.3</ele>
        <time>2021-05-15T04:02:24.795Z</time>
      </trkpt>
      <trkpt lat="47.11958" lon="-1.58085">
        <ele>12.5</ele>
        <time>2021-05-15T04:02:26.485Z</time>
      </trkpt>
      <trkpt lat="47.1197" lon="-1.58087">
        <ele>12.6</ele>
        <time>2021-05-15T04:02:28.162Z</time>
      </trkpt>
      <trkpt lat="47.11981" lon="-1.58091">
        <ele>12.7</ele>
        <time>2021-05-15T04:02:31.834Z</time>
      </trkpt>
      <trkpt lat="47.11992" lon="-1.58095">
        <ele>12.9</ele>
        <time>2021-05-15T04:02:33.408Z</time>
      </trkpt>
      <trkpt lat="47.12003" lon="-1.58098">
        <ele>13</ele>
        <time>2021-05-15T04:02:34.962Z</time>
      </trkpt>
      <trkpt lat="47.12014" lon="-1.58096">
        <ele>12.8</ele>
        <time>2021-05-15T04:02:36.501Z</time>
      </trkpt>
      <trkpt lat="47.12024" lon="-1.58097">
        <ele>12.7</ele>
        <time>2021-05-15T04:02:37.893Z</time>
      </trkpt>
      <trkpt lat="47.12032" lon="-1.58109">
        <ele>12.6</ele>
        <time>2021-05-15T04:02:41.573Z</time>
      </trkpt>
      <trkpt lat="47.12042" lon="-1.58117">
        <ele>12.5</ele>
        <time>2021-05-15T04:02:42.454Z</time>
      </trkpt>
      <trkpt lat="47.12054" lon="-1.58124">
        <ele>12.4</ele>
        <time>2021-05-15T04:02:43.453Z</time>
      </trkpt>
      <trkpt lat="47.12065" lon="-1.58131">
        <ele>12.2</ele>
        <time>2021-05-15T04:02:44.380Z</time>
      </trkpt>
      <trkpt lat="47.12077" lon="-1.58138">
        <ele>12.1</ele>
        <time>2021-05-15T04:02:46.173Z</time>
      </trkpt>
      <trkpt lat="47.12089" lon="-1.58146">
        <ele>11.7</ele>
        <time>2021-05-15T04:02:48.003Z</time>
      </trkpt>
      <trkpt lat="47.121" lon="-1.58153">
        <ele>11.2</ele>
        <time>2021-05-15T04:02:49.668Z</time>
      </trkpt>
      <trkpt lat="47.12113" lon="-1.58162">
        <ele>10.6</ele>
        <time>2021-05-15T04:02:51.664Z</time>
      </trkpt>
      <trkpt lat="47.12124" lon="-1.58171">
        <ele>10</ele>
        <time>2021-05-15T04:02:53.412Z</time>
      </trkpt>
      <trkpt lat="47.12135" lon="-1.58183">
        <ele>9.5</ele>
        <time>2021-05-15T04:02:55.315Z</time>
      </trkpt>
      <trkpt lat="47.12148" lon="-1.58195">
        <ele>8.9</ele>
        <time>2021-05-15T04:02:56.416Z</time>
      </trkpt>
      <trkpt lat="47.1216" lon="-1.58207">
        <ele>8.3</ele>
        <time>2021-05-15T04:02:57.539Z</time>
      </trkpt>
      <trkpt lat="47.12172" lon="-1.58219">
        <ele>7.8</ele>
        <time>2021-05-15T04:02:59.555Z</time>
      </trkpt>
      <trkpt lat="47.12184" lon="-1.5823">
        <ele>7.4</ele>
        <time>2021-05-15T04:03:01.519Z</time>
      </trkpt>
      <trkpt lat="47.12195" lon="-1.58241">
        <ele>7</ele>
        <time>2021-05-15T04:03:03.367Z</time>
      </trkpt>
      <trkpt lat="47.12206" lon="-1.58252">
        <ele>6.6</ele>
        <time>2021-05-15T04:03:05.215Z</time>
      </trkpt>
      <trkpt lat="47.12218" lon="-1.58264">
        <ele>6</ele>
        <time>2021-05-15T04:03:07.230Z</time>
      </trkpt>
      <trkpt lat="47.1223" lon="-1.58276">
        <ele>5.6</ele>
        <time>2021-05-15T04:03:09.246Z</time>
      </trkpt>
      <trkpt lat="47.12242" lon="-1.58287">
        <ele>5.2</ele>
        <time>2021-05-15T04:03:10.341Z</time>
      </trkpt>
      <trkpt lat="47.12254" lon="-1.58299">
        <ele>5.1</ele>
        <time>2021-05-15T04:03:12.356Z</time>
      </trkpt>
      <trkpt lat="47.12266" lon="-1.5831">
        <ele>5.6</ele>
        <time>2021-05-15T04:03:14.320Z</time>
      </trkpt>
      <trkpt lat="47.12278" lon="-1.58322">
        <ele>6</ele>
        <time>2021-05-15T04:03:15.444Z</time>
      </trkpt>
      <trkpt lat="47.12289" lon="-1.58333">
        <ele>6.4</ele>
        <time>2021-05-15T04:03:17.291Z</time>
      </trkpt>
      <trkpt lat="47.12299" lon="-1.58345">
        <ele>6.8</ele>
        <time>2021-05-15T04:03:21.114Z</time>
      </trkpt>
      <trkpt lat="47.12302" lon="-1.58364">
        <ele>6.9</ele>
        <time>2021-05-15T04:03:22.957Z</time>
      </trkpt>
      <trkpt lat="47.12303" lon="-1.58383">
        <ele>6.9</ele>
        <time>2021-05-15T04:03:24.758Z</time>
      </trkpt>
      <trkpt lat="47.12307" lon="-1.584">
        <ele>7.1</ele>
        <time>2021-05-15T04:03:26.458Z</time>
      </trkpt>
      <trkpt lat="47.12314" lon="-1.58416">
        <ele>7.3</ele>
        <time>2021-05-15T04:03:30.285Z</time>
      </trkpt>
      <trkpt lat="47.12324" lon="-1.5843">
        <ele>7.5</ele>
        <time>2021-05-15T04:03:34.216Z</time>
      </trkpt>
      <trkpt lat="47.12332" lon="-1.58446">
        <ele>7.6</ele>
        <time>2021-05-15T04:03:38.109Z</time>
      </trkpt>
      <trkpt lat="47.12334" lon="-1.58438">
        <ele>7.8</ele>
        <time>2021-05-15T04:03:38.558Z</time>
      </trkpt>
      <trkpt lat="47.12334" lon="-1.58438">
        <ele>7.8</ele>
        <time>2021-05-15T04:03:38.558Z</time>
      </trkpt>
      <trkpt lat="47.12345" lon="-1.5844">
        <ele>8.2</ele>
        <time>2021-05-15T04:03:41.376Z</time>
      </trkpt>
      <trkpt lat="47.12359" lon="-1.58437">
        <ele>8.8</ele>
        <time>2021-05-15T04:03:44.707Z</time>
      </trkpt>
      <trkpt lat="47.12372" lon="-1.58434">
        <ele>9.4</ele>
        <time>2021-05-15T04:03:47.603Z</time>
      </trkpt>
      <trkpt lat="47.12383" lon="-1.58431">
        <ele>9.8</ele>
        <time>2021-05-15T04:03:51.385Z</time>
      </trkpt>
      <trkpt lat="47.12394" lon="-1.58427">
        <ele>10.2</ele>
        <time>2021-05-15T04:03:57.455Z</time>
      </trkpt>
      <trkpt lat="47.12406" lon="-1.5842">
        <ele>10.6</ele>
        <time>2021-05-15T04:04:04.055Z</time>
      </trkpt>
      <trkpt lat="47.12417" lon="-1.58411">
        <ele>11</ele>
        <time>2021-05-15T04:04:06.231Z</time>
      </trkpt>
      <trkpt lat="47.12426" lon="-1.58403">
        <ele>11.4</ele>
        <time>2021-05-15T04:04:07.259Z</time>
      </trkpt>
      <trkpt lat="47.12435" lon="-1.58395">
        <ele>11.9</ele>
        <time>2021-05-15T04:04:08.746Z</time>
      </trkpt>
      <trkpt lat="47.12446" lon="-1.58383">
        <ele>12.4</ele>
        <time>2021-05-15T04:04:09.987Z</time>
      </trkpt>
      <trkpt lat="47.12457" lon="-1.58373">
        <ele>12.9</ele>
        <time>2021-05-15T04:04:10.988Z</time>
      </trkpt>
      <trkpt lat="47.12467" lon="-1.58363">
        <ele>13.4</ele>
        <time>2021-05-15T04:04:11.923Z</time>
      </trkpt>
      <trkpt lat="47.12478" lon="-1.58354">
        <ele>13.9</ele>
        <time>2021-05-15T04:04:14.838Z</time>
      </trkpt>
      <trkpt lat="47.12487" lon="-1.58348">
        <ele>14.4</ele>
        <time>2021-05-15T04:04:15.932Z</time>
      </trkpt>
      <trkpt lat="47.12496" lon="-1.5834">
        <ele>14.8</ele>
        <time>2021-05-15T04:04:21.567Z</time>
      </trkpt>
      <trkpt lat="47.12507" lon="-1.5833">
        <ele>14.9</ele>
        <time>2021-05-15T04:04:26.446Z</time>
      </trkpt>
      <trkpt lat="47.12515" lon="-1.58319">
        <ele>14.7</ele>
        <time>2021-05-15T04:04:27.293Z</time>
      </trkpt>
      <trkpt lat="47.12523" lon="-1.58312">
        <ele>14.5</ele>
        <time>2021-05-15T04:04:28.712Z</time>
      </trkpt>
      <trkpt lat="47.12536" lon="-1.58303">
        <ele>14.3</ele>
        <time>2021-05-15T04:04:32.302Z</time>
      </trkpt>
      <trkpt lat="47.12544" lon="-1.58297">
        <ele>14.1</ele>
        <time>2021-05-15T04:04:33.576Z</time>
      </trkpt>
      <trkpt lat="47.12553" lon="-1.58291">
        <ele>14</ele>
        <time>2021-05-15T04:04:34.347Z</time>
      </trkpt>
      <trkpt lat="47.12561" lon="-1.58284">
        <ele>13.8</ele>
        <time>2021-05-15T04:04:39.334Z</time>
      </trkpt>
      <trkpt lat="47.12571" lon="-1.58276">
        <ele>13.6</ele>
        <time>2021-05-15T04:04:43.754Z</time>
      </trkpt>
      <trkpt lat="47.12581" lon="-1.58267">
        <ele>13.4</ele>
        <time>2021-05-15T04:04:46.690Z</time>
      </trkpt>
      <trkpt lat="47.1259" lon="-1.58258">
        <ele>13.3</ele>
        <time>2021-05-15T04:04:48.008Z</time>
      </trkpt>
      <trkpt lat="47.12598" lon="-1.5825">
        <ele>13.2</ele>
        <time>2021-05-15T04:04:49.885Z</time>
      </trkpt>
      <trkpt lat="47.12607" lon="-1.58241">
        <ele>13.1</ele>
        <time>2021-05-15T04:04:51.316Z</time>
      </trkpt>
      <trkpt lat="47.12616" lon="-1.58233">
        <ele>13.1</ele>
        <time>2021-05-15T04:04:52.130Z</time>
      </trkpt>
      <trkpt lat="47.12624" lon="-1.58227">
        <ele>13.1</ele>
        <time>2021-05-15T04:04:52.895Z</time>
      </trkpt>
      <trkpt lat="47.12635" lon="-1.58218">
        <ele>13.1</ele>
        <time>2021-05-15T04:04:53.869Z</time>
      </trkpt>
      <trkpt lat="47.12645" lon="-1.5821">
        <ele>13.1</ele>
        <time>2021-05-15T04:04:54.989Z</time>
      </trkpt>
      <trkpt lat="47.12654" lon="-1.582">
        <ele>13.2</ele>
        <time>2021-05-15T04:04:56.494Z</time>
      </trkpt>
      <trkpt lat="47.12662" lon="-1.58191">
        <ele>13.2</ele>
        <time>2021-05-15T04:04:57.400Z</time>
      </trkpt>
      <trkpt lat="47.12671" lon="-1.58183">
        <ele>13.2</ele>
        <time>2021-05-15T04:04:58.471Z</time>
      </trkpt>
      <trkpt lat="47.12681" lon="-1.58176">
        <ele>13.1</ele>
        <time>2021-05-15T04:05:01.984Z</time>
      </trkpt>
      <trkpt lat="47.12691" lon="-1.58167">
        <ele>13</ele>
        <time>2021-05-15T04:05:04.436Z</time>
      </trkpt>
      <trkpt lat="47.127" lon="-1.58158">
        <ele>12.8</ele>
        <time>2021-05-15T04:05:06.869Z</time>
      </trkpt>
      <trkpt lat="47.12707" lon="-1.58149">
        <ele>12.6</ele>
        <time>2021-05-15T04:05:08.200Z</time>
      </trkpt>
      <trkpt lat="47.12717" lon="-1.58139">
        <ele>12.3</ele>
        <time>2021-05-15T04:05:09.136Z</time>
      </trkpt>
      <trkpt lat="47.12727" lon="-1.58129">
        <ele>12.1</ele>
        <time>2021-05-15T04:05:10.337Z</time>
      </trkpt>
      <trkpt lat="47.12738" lon="-1.5812">
        <ele>11.9</ele>
        <time>2021-05-15T04:05:13.183Z</time>
      </trkpt>
      <trkpt lat="47.12746" lon="-1.58111">
        <ele>11.7</ele>
        <time>2021-05-15T04:05:15.592Z</time>
      </trkpt>
      <trkpt lat="47.12753" lon="-1.58099">
        <ele>11.4</ele>
        <time>2021-05-15T04:05:17.304Z</time>
      </trkpt>
      <trkpt lat="47.12763" lon="-1.58094">
        <ele>11.4</ele>
        <time>2021-05-15T04:05:19.795Z</time>
      </trkpt>
      <trkpt lat="47.12774" lon="-1.58086">
        <ele>11.3</ele>
        <time>2021-05-15T04:05:21.698Z</time>
      </trkpt>
      <trkpt lat="47.12784" lon="-1.58076">
        <ele>11.4</ele>
        <time>2021-05-15T04:05:23.732Z</time>
      </trkpt>
      <trkpt lat="47.12796" lon="-1.58065">
        <ele>11.4</ele>
        <time>2021-05-15T04:05:27.643Z</time>
      </trkpt>
      <trkpt lat="47.12807" lon="-1.58055">
        <ele>11.5</ele>
        <time>2021-05-15T04:05:31.541Z</time>
      </trkpt>
      <trkpt lat="47.12815" lon="-1.58047">
        <ele>11.4</ele>
        <time>2021-05-15T04:05:32.545Z</time>
      </trkpt>
      <trkpt lat="47.12826" lon="-1.58041">
        <ele>11.4</ele>
        <time>2021-05-15T04:05:33.453Z</time>
      </trkpt>
      <trkpt lat="47.12838" lon="-1.58031">
        <ele>11.3</ele>
        <time>2021-05-15T04:05:34.639Z</time>
      </trkpt>
      <trkpt lat="47.12848" lon="-1.58021">
        <ele>11</ele>
        <time>2021-05-15T04:05:35.653Z</time>
      </trkpt>
      <trkpt lat="47.12859" lon="-1.58009">
        <ele>10.8</ele>
        <time>2021-05-15T04:05:39.087Z</time>
      </trkpt>
      <trkpt lat="47.12869" lon="-1.57998">
        <ele>10.5</ele>
        <time>2021-05-15T04:05:40.664Z</time>
      </trkpt>
      <trkpt lat="47.12879" lon="-1.57988">
        <ele>10.2</ele>
        <time>2021-05-15T04:05:41.897Z</time>
      </trkpt>
      <trkpt lat="47.12889" lon="-1.57978">
        <ele>9.9</ele>
        <time>2021-05-15T04:05:42.934Z</time>
      </trkpt>
      <trkpt lat="47.12897" lon="-1.57971">
        <ele>9.7</ele>
        <time>2021-05-15T04:05:43.808Z</time>
      </trkpt>
      <trkpt lat="47.12908" lon="-1.5796">
        <ele>9.5</ele>
        <time>2021-05-15T04:05:47.544Z</time>
      </trkpt>
      <trkpt lat="47.12917" lon="-1.57952">
        <ele>9.4</ele>
        <time>2021-05-15T04:05:49.295Z</time>
      </trkpt>
      <trkpt lat="47.1293" lon="-1.57949">
        <ele>9.2</ele>
        <time>2021-05-15T04:05:52.290Z</time>
      </trkpt>
      <trkpt lat="47.12943" lon="-1.57946">
        <ele>9</ele>
        <time>2021-05-15T04:05:53.473Z</time>
      </trkpt>
      <trkpt lat="47.12956" lon="-1.57949">
        <ele>8.9</ele>
        <time>2021-05-15T04:05:54.486Z</time>
      </trkpt>
      <trkpt lat="47.12967" lon="-1.57959">
        <ele>8.9</ele>
        <time>2021-05-15T04:05:55.486Z</time>
      </trkpt>
      <trkpt lat="47.1298" lon="-1.57964">
        <ele>8.8</ele>
        <time>2021-05-15T04:05:56.487Z</time>
      </trkpt>
      <trkpt lat="47.12992" lon="-1.57968">
        <ele>8.7</ele>
        <time>2021-05-15T04:05:57.482Z</time>
      </trkpt>
      <trkpt lat="47.13006" lon="-1.57972">
        <ele>8.6</ele>
        <time>2021-05-15T04:05:59.015Z</time>
      </trkpt>
      <trkpt lat="47.13019" lon="-1.57976">
        <ele>8.5</ele>
        <time>2021-05-15T04:06:01.861Z</time>
      </trkpt>
      <trkpt lat="47.13031" lon="-1.57981">
        <ele>8.4</ele>
        <time>2021-05-15T04:06:03.421Z</time>
      </trkpt>
      <trkpt lat="47.13043" lon="-1.57984">
        <ele>8.3</ele>
        <time>2021-05-15T04:06:04.362Z</time>
      </trkpt>
      <trkpt lat="47.13054" lon="-1.5799">
        <ele>8.2</ele>
        <time>2021-05-15T04:06:05.270Z</time>
      </trkpt>
      <trkpt lat="47.13065" lon="-1.57994">
        <ele>8.1</ele>
        <time>2021-05-15T04:06:06.110Z</time>
      </trkpt>
      <trkpt lat="47.13078" lon="-1.57999">
        <ele>8.1</ele>
        <time>2021-05-15T04:06:07.150Z</time>
      </trkpt>
      <trkpt lat="47.13091" lon="-1.58003">
        <ele>8</ele>
        <time>2021-05-15T04:06:08.178Z</time>
      </trkpt>
      <trkpt lat="47.13104" lon="-1.58006">
        <ele>8.1</ele>
        <time>2021-05-15T04:06:09.295Z</time>
      </trkpt>
      <trkpt lat="47.13116" lon="-1.58009">
        <ele>8.1</ele>
        <time>2021-05-15T04:06:10.828Z</time>
      </trkpt>
      <trkpt lat="47.13127" lon="-1.58011">
        <ele>8.1</ele>
        <time>2021-05-15T04:06:12.709Z</time>
      </trkpt>
      <trkpt lat="47.13139" lon="-1.58013">
        <ele>8.1</ele>
        <time>2021-05-15T04:06:15.198Z</time>
      </trkpt>
      <trkpt lat="47.13151" lon="-1.58014">
        <ele>8</ele>
        <time>2021-05-15T04:06:17.599Z</time>
      </trkpt>
      <trkpt lat="47.13162" lon="-1.58014">
        <ele>8</ele>
        <time>2021-05-15T04:06:18.780Z</time>
      </trkpt>
      <trkpt lat="47.13176" lon="-1.58016">
        <ele>8</ele>
        <time>2021-05-15T04:06:19.968Z</time>
      </trkpt>
      <trkpt lat="47.1319" lon="-1.58017">
        <ele>8.1</ele>
        <time>2021-05-15T04:06:21.027Z</time>
      </trkpt>
      <trkpt lat="47.13203" lon="-1.58018">
        <ele>8.2</ele>
        <time>2021-05-15T04:06:22.835Z</time>
      </trkpt>
      <trkpt lat="47.13217" lon="-1.58019">
        <ele>8.3</ele>
        <time>2021-05-15T04:06:25.317Z</time>
      </trkpt>
      <trkpt lat="47.13229" lon="-1.58019">
        <ele>8.3</ele>
        <time>2021-05-15T04:06:26.465Z</time>
      </trkpt>
      <trkpt lat="47.13244" lon="-1.58019">
        <ele>8.4</ele>
        <time>2021-05-15T04:06:28.466Z</time>
      </trkpt>
      <trkpt lat="47.13257" lon="-1.58017">
        <ele>8.5</ele>
        <time>2021-05-15T04:06:30.806Z</time>
      </trkpt>
      <trkpt lat="47.13267" lon="-1.58015">
        <ele>8.7</ele>
        <time>2021-05-15T04:06:33.767Z</time>
      </trkpt>
      <trkpt lat="47.13278" lon="-1.58011">
        <ele>8.8</ele>
        <time>2021-05-15T04:06:36.731Z</time>
      </trkpt>
      <trkpt lat="47.13291" lon="-1.58006">
        <ele>9</ele>
        <time>2021-05-15T04:06:37.770Z</time>
      </trkpt>
      <trkpt lat="47.13302" lon="-1.58002">
        <ele>9.3</ele>
        <time>2021-05-15T04:06:38.647Z</time>
      </trkpt>
      <trkpt lat="47.13315" lon="-1.57998">
        <ele>9.6</ele>
        <time>2021-05-15T04:06:39.693Z</time>
      </trkpt>
      <trkpt lat="47.13324" lon="-1.57995">
        <ele>9.8</ele>
        <time>2021-05-15T04:06:42.219Z</time>
      </trkpt>
      <trkpt lat="47.13337" lon="-1.57991">
        <ele>10.2</ele>
        <time>2021-05-15T04:06:48.498Z</time>
      </trkpt>
      <trkpt lat="47.13347" lon="-1.57991">
        <ele>10.4</ele>
        <time>2021-05-15T04:06:53.855Z</time>
      </trkpt>
      <trkpt lat="47.13358" lon="-1.57993">
        <ele>10.7</ele>
        <time>2021-05-15T04:06:58.294Z</time>
      </trkpt>
      <trkpt lat="47.13368" lon="-1.57997">
        <ele>10.9</ele>
        <time>2021-05-15T04:07:02.085Z</time>
      </trkpt>
      <trkpt lat="47.13382" lon="-1.58007">
        <ele>11.1</ele>
        <time>2021-05-15T04:07:06.087Z</time>
      </trkpt>
      <trkpt lat="47.13392" lon="-1.58015">
        <ele>11.4</ele>
        <time>2021-05-15T04:07:08.630Z</time>
      </trkpt>
      <trkpt lat="47.13401" lon="-1.58024">
        <ele>11.6</ele>
        <time>2021-05-15T04:07:10.167Z</time>
      </trkpt>
      <trkpt lat="47.1341" lon="-1.58031">
        <ele>11.8</ele>
        <time>2021-05-15T04:07:15.622Z</time>
      </trkpt>
      <trkpt lat="47.13419" lon="-1.5804">
        <ele>12.1</ele>
        <time>2021-05-15T04:07:21.453Z</time>
      </trkpt>
      <trkpt lat="47.13428" lon="-1.58047">
        <ele>12.3</ele>
        <time>2021-05-15T04:07:23.693Z</time>
      </trkpt>
      <trkpt lat="47.1344" lon="-1.58057">
        <ele>12.8</ele>
        <time>2021-05-15T04:07:24.760Z</time>
      </trkpt>
      <trkpt lat="47.13448" lon="-1.58066">
        <ele>13</ele>
        <time>2021-05-15T04:07:25.492Z</time>
      </trkpt>
      <trkpt lat="47.13457" lon="-1.58073">
        <ele>13.4</ele>
        <time>2021-05-15T04:07:28.290Z</time>
      </trkpt>
      <trkpt lat="47.13467" lon="-1.58082">
        <ele>13.8</ele>
        <time>2021-05-15T04:07:30.027Z</time>
      </trkpt>
      <trkpt lat="47.13475" lon="-1.58089">
        <ele>14.1</ele>
        <time>2021-05-15T04:07:31.999Z</time>
      </trkpt>
      <trkpt lat="47.13484" lon="-1.58096">
        <ele>14.5</ele>
        <time>2021-05-15T04:07:33.867Z</time>
      </trkpt>
      <trkpt lat="47.13494" lon="-1.58104">
        <ele>15</ele>
        <time>2021-05-15T04:07:35.649Z</time>
      </trkpt>
      <trkpt lat="47.13502" lon="-1.58111">
        <ele>15.3</ele>
        <time>2021-05-15T04:07:37.966Z</time>
      </trkpt>
      <trkpt lat="47.13511" lon="-1.58119">
        <ele>15.5</ele>
        <time>2021-05-15T04:07:39.309Z</time>
      </trkpt>
      <trkpt lat="47.1352" lon="-1.58124">
        <ele>15.7</ele>
        <time>2021-05-15T04:07:40.368Z</time>
      </trkpt>
      <trkpt lat="47.1353" lon="-1.58129">
        <ele>15.9</ele>
        <time>2021-05-15T04:07:41.185Z</time>
      </trkpt>
      <trkpt lat="47.13544" lon="-1.58135">
        <ele>16.3</ele>
        <time>2021-05-15T04:07:42.313Z</time>
      </trkpt>
      <trkpt lat="47.13556" lon="-1.58137">
        <ele>16.5</ele>
        <time>2021-05-15T04:07:44.327Z</time>
      </trkpt>
      <trkpt lat="47.13566" lon="-1.58139">
        <ele>16.7</ele>
        <time>2021-05-15T04:07:46.161Z</time>
      </trkpt>
      <trkpt lat="47.13576" lon="-1.5814">
        <ele>16.9</ele>
        <time>2021-05-15T04:07:48.355Z</time>
      </trkpt>
      <trkpt lat="47.13588" lon="-1.58141">
        <ele>17</ele>
        <time>2021-05-15T04:07:49.208Z</time>
      </trkpt>
      <trkpt lat="47.13597" lon="-1.58143">
        <ele>17</ele>
        <time>2021-05-15T04:07:50.324Z</time>
      </trkpt>
      <trkpt lat="47.13608" lon="-1.58143">
        <ele>16.8</ele>
        <time>2021-05-15T04:07:51.613Z</time>
      </trkpt>
      <trkpt lat="47.13617" lon="-1.58143">
        <ele>16.7</ele>
        <time>2021-05-15T04:07:52.309Z</time>
      </trkpt>
      <trkpt lat="47.13629" lon="-1.58144">
        <ele>16.5</ele>
        <time>2021-05-15T04:07:54.473Z</time>
      </trkpt>
      <trkpt lat="47.13641" lon="-1.58144">
        <ele>16.4</ele>
        <time>2021-05-15T04:07:55.651Z</time>
      </trkpt>
      <trkpt lat="47.13651" lon="-1.58143">
        <ele>16.2</ele>
        <time>2021-05-15T04:07:57.619Z</time>
      </trkpt>
      <trkpt lat="47.13661" lon="-1.58144">
        <ele>16.1</ele>
        <time>2021-05-15T04:07:59.011Z</time>
      </trkpt>
      <trkpt lat="47.13671" lon="-1.58145">
        <ele>16</ele>
        <time>2021-05-15T04:08:02.658Z</time>
      </trkpt>
      <trkpt lat="47.13682" lon="-1.58147">
        <ele>16</ele>
        <time>2021-05-15T04:08:06.498Z</time>
      </trkpt>
      <trkpt lat="47.13694" lon="-1.58147">
        <ele>15.9</ele>
        <time>2021-05-15T04:08:10.476Z</time>
      </trkpt>
      <trkpt lat="47.13706" lon="-1.58145">
        <ele>15.9</ele>
        <time>2021-05-15T04:08:11.730Z</time>
      </trkpt>
      <trkpt lat="47.13718" lon="-1.58141">
        <ele>15.8</ele>
        <time>2021-05-15T04:08:13.951Z</time>
      </trkpt>
      <trkpt lat="47.13729" lon="-1.58135">
        <ele>15.7</ele>
        <time>2021-05-15T04:08:17.292Z</time>
      </trkpt>
      <trkpt lat="47.1374" lon="-1.58127">
        <ele>15.6</ele>
        <time>2021-05-15T04:08:20.250Z</time>
      </trkpt>
      <trkpt lat="47.1375" lon="-1.58116">
        <ele>15.4</ele>
        <time>2021-05-15T04:08:23.461Z</time>
      </trkpt>
      <trkpt lat="47.13758" lon="-1.58104">
        <ele>15</ele>
        <time>2021-05-15T04:08:26.421Z</time>
      </trkpt>
      <trkpt lat="47.13766" lon="-1.58093">
        <ele>14.7</ele>
        <time>2021-05-15T04:08:28.386Z</time>
      </trkpt>
      <trkpt lat="47.13774" lon="-1.58081">
        <ele>14.4</ele>
        <time>2021-05-15T04:08:30.498Z</time>
      </trkpt>
      <trkpt lat="47.13783" lon="-1.58068">
        <ele>14.3</ele>
        <time>2021-05-15T04:08:34.634Z</time>
      </trkpt>
      <trkpt lat="47.13791" lon="-1.58056">
        <ele>14.2</ele>
        <time>2021-05-15T04:08:37.576Z</time>
      </trkpt>
      <trkpt lat="47.138" lon="-1.58042">
        <ele>14.1</ele>
        <time>2021-05-15T04:08:39.374Z</time>
      </trkpt>
      <trkpt lat="47.13809" lon="-1.58031">
        <ele>14</ele>
        <time>2021-05-15T04:08:41.108Z</time>
      </trkpt>
      <trkpt lat="47.13817" lon="-1.5802">
        <ele>14</ele>
        <time>2021-05-15T04:08:42.214Z</time>
      </trkpt>
      <trkpt lat="47.13825" lon="-1.58008">
        <ele>14</ele>
        <time>2021-05-15T04:08:44.199Z</time>
      </trkpt>
      <trkpt lat="47.13835" lon="-1.57994">
        <ele>14.2</ele>
        <time>2021-05-15T04:08:45.463Z</time>
      </trkpt>
      <trkpt lat="47.13844" lon="-1.57982">
        <ele>14.7</ele>
        <time>2021-05-15T04:08:47.349Z</time>
      </trkpt>
      <trkpt lat="47.13852" lon="-1.5797">
        <ele>15.1</ele>
        <time>2021-05-15T04:08:48.183Z</time>
      </trkpt>
      <trkpt lat="47.13861" lon="-1.5796">
        <ele>15.3</ele>
        <time>2021-05-15T04:08:49.056Z</time>
      </trkpt>
      <trkpt lat="47.13869" lon="-1.57949">
        <ele>15.5</ele>
        <time>2021-05-15T04:08:49.903Z</time>
      </trkpt>
      <trkpt lat="47.13878" lon="-1.57937">
        <ele>15.6</ele>
        <time>2021-05-15T04:08:52.765Z</time>
      </trkpt>
      <trkpt lat="47.13886" lon="-1.57924">
        <ele>15.6</ele>
        <time>2021-05-15T04:08:56.241Z</time>
      </trkpt>
      <trkpt lat="47.13894" lon="-1.57911">
        <ele>15.5</ele>
        <time>2021-05-15T04:08:59.787Z</time>
      </trkpt>
      <trkpt lat="47.13902" lon="-1.579">
        <ele>15.2</ele>
        <time>2021-05-15T04:09:02.483Z</time>
      </trkpt>
      <trkpt lat="47.1391" lon="-1.5789">
        <ele>14.8</ele>
        <time>2021-05-15T04:09:03.267Z</time>
      </trkpt>
      <trkpt lat="47.13917" lon="-1.57881">
        <ele>14.6</ele>
        <time>2021-05-15T04:09:04.095Z</time>
      </trkpt>
      <trkpt lat="47.13925" lon="-1.5787">
        <ele>14.3</ele>
        <time>2021-05-15T04:09:05.058Z</time>
      </trkpt>
      <trkpt lat="47.13933" lon="-1.57858">
        <ele>14</ele>
        <time>2021-05-15T04:09:06.485Z</time>
      </trkpt>
      <trkpt lat="47.13942" lon="-1.57845">
        <ele>13.8</ele>
        <time>2021-05-15T04:09:07.765Z</time>
      </trkpt>
      <trkpt lat="47.13953" lon="-1.57831">
        <ele>13.5</ele>
        <time>2021-05-15T04:09:10.378Z</time>
      </trkpt>
      <trkpt lat="47.1396" lon="-1.5782">
        <ele>13.4</ele>
        <time>2021-05-15T04:09:11.760Z</time>
      </trkpt>
      <trkpt lat="47.1397" lon="-1.57807">
        <ele>13.3</ele>
        <time>2021-05-15T04:09:12.957Z</time>
      </trkpt>
      <trkpt lat="47.13977" lon="-1.57798">
        <ele>13.3</ele>
        <time>2021-05-15T04:09:14.694Z</time>
      </trkpt>
      <trkpt lat="47.13985" lon="-1.57786">
        <ele>13.4</ele>
        <time>2021-05-15T04:09:17.974Z</time>
      </trkpt>
      <trkpt lat="47.13993" lon="-1.57775">
        <ele>13.6</ele>
        <time>2021-05-15T04:09:19.590Z</time>
      </trkpt>
      <trkpt lat="47.14003" lon="-1.57763">
        <ele>13.9</ele>
        <time>2021-05-15T04:09:21.043Z</time>
      </trkpt>
      <trkpt lat="47.14012" lon="-1.57752">
        <ele>14</ele>
        <time>2021-05-15T04:09:22.918Z</time>
      </trkpt>
      <trkpt lat="47.1402" lon="-1.57741">
        <ele>14.2</ele>
        <time>2021-05-15T04:09:24.763Z</time>
      </trkpt>
      <trkpt lat="47.14028" lon="-1.57729">
        <ele>14.5</ele>
        <time>2021-05-15T04:09:26.690Z</time>
      </trkpt>
      <trkpt lat="47.14035" lon="-1.57718">
        <ele>14.8</ele>
        <time>2021-05-15T04:09:30.027Z</time>
      </trkpt>
      <trkpt lat="47.14042" lon="-1.57707">
        <ele>15</ele>
        <time>2021-05-15T04:09:31.621Z</time>
      </trkpt>
      <trkpt lat="47.1405" lon="-1.57695">
        <ele>15.3</ele>
        <time>2021-05-15T04:09:33.930Z</time>
      </trkpt>
      <trkpt lat="47.14058" lon="-1.57685">
        <ele>15.6</ele>
        <time>2021-05-15T04:09:36.331Z</time>
      </trkpt>
      <trkpt lat="47.14067" lon="-1.57672">
        <ele>15.9</ele>
        <time>2021-05-15T04:09:37.491Z</time>
      </trkpt>
      <trkpt lat="47.14073" lon="-1.57662">
        <ele>16</ele>
        <time>2021-05-15T04:09:38.192Z</time>
      </trkpt>
      <trkpt lat="47.14081" lon="-1.5765">
        <ele>16</ele>
        <time>2021-05-15T04:09:39.077Z</time>
      </trkpt>
      <trkpt lat="47.14087" lon="-1.57637">
        <ele>16</ele>
        <time>2021-05-15T04:09:39.904Z</time>
      </trkpt>
      <trkpt lat="47.14094" lon="-1.57622">
        <ele>15.9</ele>
        <time>2021-05-15T04:09:40.861Z</time>
      </trkpt>
      <trkpt lat="47.14099" lon="-1.57608">
        <ele>15.7</ele>
        <time>2021-05-15T04:09:41.698Z</time>
      </trkpt>
      <trkpt lat="47.14104" lon="-1.57594">
        <ele>15.6</ele>
        <time>2021-05-15T04:09:43.082Z</time>
      </trkpt>
      <trkpt lat="47.1411" lon="-1.5758">
        <ele>15.3</ele>
        <time>2021-05-15T04:09:44.377Z</time>
      </trkpt>
      <trkpt lat="47.14116" lon="-1.57565">
        <ele>14.6</ele>
        <time>2021-05-15T04:09:49.378Z</time>
      </trkpt>
      <trkpt lat="47.14122" lon="-1.57549">
        <ele>14</ele>
        <time>2021-05-15T04:09:53.251Z</time>
      </trkpt>
      <trkpt lat="47.14129" lon="-1.57533">
        <ele>13.4</ele>
        <time>2021-05-15T04:09:57.054Z</time>
      </trkpt>
      <trkpt lat="47.14136" lon="-1.57516">
        <ele>12.8</ele>
        <time>2021-05-15T04:10:00.511Z</time>
      </trkpt>
      <trkpt lat="47.14143" lon="-1.57501">
        <ele>12.3</ele>
        <time>2021-05-15T04:10:03.616Z</time>
      </trkpt>
      <trkpt lat="47.1415" lon="-1.57485">
        <ele>12.2</ele>
        <time>2021-05-15T04:10:05.426Z</time>
      </trkpt>
      <trkpt lat="47.14155" lon="-1.57469">
        <ele>12.1</ele>
        <time>2021-05-15T04:10:06.332Z</time>
      </trkpt>
      <trkpt lat="47.14161" lon="-1.57453">
        <ele>12.1</ele>
        <time>2021-05-15T04:10:07.293Z</time>
      </trkpt>
      <trkpt lat="47.14169" lon="-1.57436">
        <ele>12</ele>
        <time>2021-05-15T04:10:08.322Z</time>
      </trkpt>
      <trkpt lat="47.14177" lon="-1.57419">
        <ele>12</ele>
        <time>2021-05-15T04:10:09.746Z</time>
      </trkpt>
      <trkpt lat="47.14184" lon="-1.57403">
        <ele>12</ele>
        <time>2021-05-15T04:10:12.091Z</time>
      </trkpt>
      <trkpt lat="47.14191" lon="-1.57386">
        <ele>12.1</ele>
        <time>2021-05-15T04:10:13.747Z</time>
      </trkpt>
      <trkpt lat="47.14199" lon="-1.5737">
        <ele>12.2</ele>
        <time>2021-05-15T04:10:16.006Z</time>
      </trkpt>
      <trkpt lat="47.14206" lon="-1.57353">
        <ele>12.4</ele>
        <time>2021-05-15T04:10:18.382Z</time>
      </trkpt>
      <trkpt lat="47.14214" lon="-1.57336">
        <ele>12.5</ele>
        <time>2021-05-15T04:10:20.733Z</time>
      </trkpt>
      <trkpt lat="47.1422" lon="-1.57321">
        <ele>12.6</ele>
        <time>2021-05-15T04:10:22.771Z</time>
      </trkpt>
      <trkpt lat="47.14228" lon="-1.57307">
        <ele>12.7</ele>
        <time>2021-05-15T04:10:27.049Z</time>
      </trkpt>
      <trkpt lat="47.14235" lon="-1.57295">
        <ele>12.8</ele>
        <time>2021-05-15T04:10:30.028Z</time>
      </trkpt>
      <trkpt lat="47.14241" lon="-1.57282">
        <ele>12.9</ele>
        <time>2021-05-15T04:10:32.347Z</time>
      </trkpt>
      <trkpt lat="47.14249" lon="-1.57268">
        <ele>13</ele>
        <time>2021-05-15T04:10:34.464Z</time>
      </trkpt>
      <trkpt lat="47.14256" lon="-1.57254">
        <ele>13</ele>
        <time>2021-05-15T04:10:35.706Z</time>
      </trkpt>
      <trkpt lat="47.14264" lon="-1.57239">
        <ele>13</ele>
        <time>2021-05-15T04:10:36.757Z</time>
      </trkpt>
      <trkpt lat="47.1427" lon="-1.57226">
        <ele>13.1</ele>
        <time>2021-05-15T04:10:37.584Z</time>
      </trkpt>
      <trkpt lat="47.14277" lon="-1.57211">
        <ele>13.2</ele>
        <time>2021-05-15T04:10:38.541Z</time>
      </trkpt>
      <trkpt lat="47.14283" lon="-1.57198">
        <ele>13.2</ele>
        <time>2021-05-15T04:10:40.038Z</time>
      </trkpt>
      <trkpt lat="47.1429" lon="-1.57183">
        <ele>13.4</ele>
        <time>2021-05-15T04:10:43.613Z</time>
      </trkpt>
      <trkpt lat="47.14297" lon="-1.57167">
        <ele>13.6</ele>
        <time>2021-05-15T04:10:48.009Z</time>
      </trkpt>
      <trkpt lat="47.14304" lon="-1.57151">
        <ele>14</ele>
        <time>2021-05-15T04:10:51.434Z</time>
      </trkpt>
      <trkpt lat="47.1431" lon="-1.57136">
        <ele>14.4</ele>
        <time>2021-05-15T04:10:54.662Z</time>
      </trkpt>
      <trkpt lat="47.14313" lon="-1.57123">
        <ele>14.7</ele>
        <time>2021-05-15T04:10:56.426Z</time>
      </trkpt>
      <trkpt lat="47.14317" lon="-1.57107">
        <ele>15.1</ele>
        <time>2021-05-15T04:10:58.049Z</time>
      </trkpt>
      <trkpt lat="47.1432" lon="-1.5709">
        <ele>15.5</ele>
        <time>2021-05-15T04:10:59.817Z</time>
      </trkpt>
      <trkpt lat="47.14323" lon="-1.57073">
        <ele>15.6</ele>
        <time>2021-05-15T04:11:02.210Z</time>
      </trkpt>
      <trkpt lat="47.14326" lon="-1.57059">
        <ele>15.6</ele>
        <time>2021-05-15T04:11:04.843Z</time>
      </trkpt>
      <trkpt lat="47.14328" lon="-1.57044">
        <ele>15.4</ele>
        <time>2021-05-15T04:11:07.933Z</time>
      </trkpt>
      <trkpt lat="47.14329" lon="-1.57029">
        <ele>15.3</ele>
        <time>2021-05-15T04:11:10.004Z</time>
      </trkpt>
      <trkpt lat="47.14331" lon="-1.57013">
        <ele>15.1</ele>
        <time>2021-05-15T04:11:10.965Z</time>
      </trkpt>
      <trkpt lat="47.14333" lon="-1.56998">
        <ele>15</ele>
        <time>2021-05-15T04:11:12.019Z</time>
      </trkpt>
      <trkpt lat="47.14333" lon="-1.56984">
        <ele>15</ele>
        <time>2021-05-15T04:11:12.756Z</time>
      </trkpt>
      <trkpt lat="47.14334" lon="-1.56964">
        <ele>15</ele>
        <time>2021-05-15T04:11:13.811Z</time>
      </trkpt>
      <trkpt lat="47.14335" lon="-1.56946">
        <ele>15</ele>
        <time>2021-05-15T04:11:14.762Z</time>
      </trkpt>
      <trkpt lat="47.14337" lon="-1.56928">
        <ele>15.1</ele>
        <time>2021-05-15T04:11:16.996Z</time>
      </trkpt>
      <trkpt lat="47.14339" lon="-1.56913">
        <ele>15.1</ele>
        <time>2021-05-15T04:11:18.768Z</time>
      </trkpt>
      <trkpt lat="47.14341" lon="-1.56897">
        <ele>15.2</ele>
        <time>2021-05-15T04:11:21.531Z</time>
      </trkpt>
      <trkpt lat="47.14343" lon="-1.56879">
        <ele>15.4</ele>
        <time>2021-05-15T04:11:23.744Z</time>
      </trkpt>
      <trkpt lat="47.14347" lon="-1.56861">
        <ele>15.7</ele>
        <time>2021-05-15T04:11:24.876Z</time>
      </trkpt>
      <trkpt lat="47.1435" lon="-1.56847">
        <ele>15.9</ele>
        <time>2021-05-15T04:11:27.240Z</time>
      </trkpt>
      <trkpt lat="47.14353" lon="-1.56835">
        <ele>16.2</ele>
        <time>2021-05-15T04:11:29.185Z</time>
      </trkpt>
      <trkpt lat="47.14357" lon="-1.56822">
        <ele>16.6</ele>
        <time>2021-05-15T04:11:31.582Z</time>
      </trkpt>
      <trkpt lat="47.14361" lon="-1.56809">
        <ele>17.1</ele>
        <time>2021-05-15T04:11:34.137Z</time>
      </trkpt>
      <trkpt lat="47.14366" lon="-1.56797">
        <ele>17.5</ele>
        <time>2021-05-15T04:11:36.992Z</time>
      </trkpt>
      <trkpt lat="47.14372" lon="-1.56782">
        <ele>18</ele>
        <time>2021-05-15T04:11:38.367Z</time>
      </trkpt>
      <trkpt lat="47.14378" lon="-1.56768">
        <ele>18.4</ele>
        <time>2021-05-15T04:11:39.176Z</time>
      </trkpt>
      <trkpt lat="47.14385" lon="-1.56753">
        <ele>18.8</ele>
        <time>2021-05-15T04:11:42.642Z</time>
      </trkpt>
      <trkpt lat="47.14393" lon="-1.5674">
        <ele>19.1</ele>
        <time>2021-05-15T04:11:45.435Z</time>
      </trkpt>
      <trkpt lat="47.14399" lon="-1.56727">
        <ele>19.3</ele>
        <time>2021-05-15T04:11:47.723Z</time>
      </trkpt>
      <trkpt lat="47.14407" lon="-1.56712">
        <ele>19.4</ele>
        <time>2021-05-15T04:11:54.668Z</time>
      </trkpt>
      <trkpt lat="47.14414" lon="-1.56701">
        <ele>19.4</ele>
        <time>2021-05-15T04:11:57.436Z</time>
      </trkpt>
      <trkpt lat="47.14423" lon="-1.56687">
        <ele>19.4</ele>
        <time>2021-05-15T04:12:00.674Z</time>
      </trkpt>
      <trkpt lat="47.1443" lon="-1.56677">
        <ele>19.4</ele>
        <time>2021-05-15T04:12:03.182Z</time>
      </trkpt>
      <trkpt lat="47.14437" lon="-1.56664">
        <ele>19.5</ele>
        <time>2021-05-15T04:12:06.661Z</time>
      </trkpt>
      <trkpt lat="47.14444" lon="-1.56654">
        <ele>19.7</ele>
        <time>2021-05-15T04:12:08.389Z</time>
      </trkpt>
      <trkpt lat="47.14451" lon="-1.56643">
        <ele>19.8</ele>
        <time>2021-05-15T04:12:09.176Z</time>
      </trkpt>
      <trkpt lat="47.14462" lon="-1.56629">
        <ele>20.1</ele>
        <time>2021-05-15T04:12:11.686Z</time>
      </trkpt>
      <trkpt lat="47.14469" lon="-1.56619">
        <ele>20.3</ele>
        <time>2021-05-15T04:12:12.450Z</time>
      </trkpt>
      <trkpt lat="47.14477" lon="-1.56609">
        <ele>20.4</ele>
        <time>2021-05-15T04:12:13.455Z</time>
      </trkpt>
      <trkpt lat="47.14483" lon="-1.56599">
        <ele>20.6</ele>
        <time>2021-05-15T04:12:14.129Z</time>
      </trkpt>
      <trkpt lat="47.1449" lon="-1.5659">
        <ele>20.8</ele>
        <time>2021-05-15T04:12:14.848Z</time>
      </trkpt>
      <trkpt lat="47.14497" lon="-1.5658">
        <ele>20.9</ele>
        <time>2021-05-15T04:12:16.735Z</time>
      </trkpt>
      <trkpt lat="47.14504" lon="-1.5657">
        <ele>21</ele>
        <time>2021-05-15T04:12:19.394Z</time>
      </trkpt>
      <trkpt lat="47.14511" lon="-1.56559">
        <ele>20.9</ele>
        <time>2021-05-15T04:12:20.672Z</time>
      </trkpt>
      <trkpt lat="47.14519" lon="-1.56548">
        <ele>20.8</ele>
        <time>2021-05-15T04:12:22.032Z</time>
      </trkpt>
      <trkpt lat="47.14526" lon="-1.56539">
        <ele>20.7</ele>
        <time>2021-05-15T04:12:22.743Z</time>
      </trkpt>
      <trkpt lat="47.14533" lon="-1.56529">
        <ele>20.6</ele>
        <time>2021-05-15T04:12:23.890Z</time>
      </trkpt>
      <trkpt lat="47.1454" lon="-1.56518">
        <ele>20.5</ele>
        <time>2021-05-15T04:12:24.893Z</time>
      </trkpt>
      <trkpt lat="47.14549" lon="-1.56507">
        <ele>20.4</ele>
        <time>2021-05-15T04:12:26.702Z</time>
      </trkpt>
      <trkpt lat="47.14558" lon="-1.56493">
        <ele>20.2</ele>
        <time>2021-05-15T04:12:29.500Z</time>
      </trkpt>
      <trkpt lat="47.14567" lon="-1.56481">
        <ele>20</ele>
        <time>2021-05-15T04:12:31.226Z</time>
      </trkpt>
      <trkpt lat="47.14575" lon="-1.5647">
        <ele>19.7</ele>
        <time>2021-05-15T04:12:32.003Z</time>
      </trkpt>
      <trkpt lat="47.14582" lon="-1.56459">
        <ele>19.5</ele>
        <time>2021-05-15T04:12:35.125Z</time>
      </trkpt>
      <trkpt lat="47.14591" lon="-1.56447">
        <ele>19.6</ele>
        <time>2021-05-15T04:12:39.794Z</time>
      </trkpt>
      <trkpt lat="47.14598" lon="-1.56437">
        <ele>19.7</ele>
        <time>2021-05-15T04:12:40.526Z</time>
      </trkpt>
      <trkpt lat="47.14608" lon="-1.56424">
        <ele>19.9</ele>
        <time>2021-05-15T04:12:41.559Z</time>
      </trkpt>
      <trkpt lat="47.14616" lon="-1.56412">
        <ele>20.3</ele>
        <time>2021-05-15T04:12:42.443Z</time>
      </trkpt>
      <trkpt lat="47.14624" lon="-1.56401">
        <ele>20.7</ele>
        <time>2021-05-15T04:12:44.004Z</time>
      </trkpt>
      <trkpt lat="47.14632" lon="-1.56389">
        <ele>21.2</ele>
        <time>2021-05-15T04:12:45.591Z</time>
      </trkpt>
      <trkpt lat="47.1464" lon="-1.56377">
        <ele>21.7</ele>
        <time>2021-05-15T04:12:47.018Z</time>
      </trkpt>
      <trkpt lat="47.14647" lon="-1.56368">
        <ele>22</ele>
        <time>2021-05-15T04:12:47.821Z</time>
      </trkpt>
      <trkpt lat="47.14654" lon="-1.56358">
        <ele>22.4</ele>
        <time>2021-05-15T04:12:50.403Z</time>
      </trkpt>
      <trkpt lat="47.14662" lon="-1.56348">
        <ele>22.7</ele>
        <time>2021-05-15T04:12:56.027Z</time>
      </trkpt>
      <trkpt lat="47.14672" lon="-1.56338">
        <ele>22.9</ele>
        <time>2021-05-15T04:12:59.273Z</time>
      </trkpt>
      <trkpt lat="47.1468" lon="-1.5633">
        <ele>22.8</ele>
        <time>2021-05-15T04:13:00.255Z</time>
      </trkpt>
      <trkpt lat="47.1469" lon="-1.56322">
        <ele>22.7</ele>
        <time>2021-05-15T04:13:01.135Z</time>
      </trkpt>
      <trkpt lat="47.147" lon="-1.56314">
        <ele>22.6</ele>
        <time>2021-05-15T04:13:02.524Z</time>
      </trkpt>
      <trkpt lat="47.14709" lon="-1.56309">
        <ele>22.5</ele>
        <time>2021-05-15T04:13:05.337Z</time>
      </trkpt>
      <trkpt lat="47.14721" lon="-1.56301">
        <ele>22.5</ele>
        <time>2021-05-15T04:13:08.431Z</time>
      </trkpt>
      <trkpt lat="47.14731" lon="-1.56297">
        <ele>22.5</ele>
        <time>2021-05-15T04:13:09.233Z</time>
      </trkpt>
      <trkpt lat="47.14741" lon="-1.56292">
        <ele>22.5</ele>
        <time>2021-05-15T04:13:10.050Z</time>
      </trkpt>
      <trkpt lat="47.1475" lon="-1.56289">
        <ele>22.5</ele>
        <time>2021-05-15T04:13:10.764Z</time>
      </trkpt>
      <trkpt lat="47.14761" lon="-1.56285">
        <ele>22.4</ele>
        <time>2021-05-15T04:13:12.364Z</time>
      </trkpt>
      <trkpt lat="47.14772" lon="-1.5628">
        <ele>22.4</ele>
        <time>2021-05-15T04:13:13.404Z</time>
      </trkpt>
      <trkpt lat="47.14782" lon="-1.56275">
        <ele>22.3</ele>
        <time>2021-05-15T04:13:15.198Z</time>
      </trkpt>
      <trkpt lat="47.14794" lon="-1.5627">
        <ele>22.2</ele>
        <time>2021-05-15T04:13:19.266Z</time>
      </trkpt>
      <trkpt lat="47.14804" lon="-1.56265">
        <ele>22.2</ele>
        <time>2021-05-15T04:13:21.542Z</time>
      </trkpt>
      <trkpt lat="47.14814" lon="-1.5626">
        <ele>22.1</ele>
        <time>2021-05-15T04:13:23.281Z</time>
      </trkpt>
      <trkpt lat="47.14825" lon="-1.56255">
        <ele>22</ele>
        <time>2021-05-15T04:13:25.626Z</time>
      </trkpt>
      <trkpt lat="47.14835" lon="-1.5625">
        <ele>22</ele>
        <time>2021-05-15T04:13:27.072Z</time>
      </trkpt>
      <trkpt lat="47.14845" lon="-1.56243">
        <ele>22.2</ele>
        <time>2021-05-15T04:13:28.483Z</time>
      </trkpt>
      <trkpt lat="47.14854" lon="-1.56237">
        <ele>22.4</ele>
        <time>2021-05-15T04:13:30.460Z</time>
      </trkpt>
      <trkpt lat="47.14864" lon="-1.56229">
        <ele>22.6</ele>
        <time>2021-05-15T04:13:32.712Z</time>
      </trkpt>
      <trkpt lat="47.14874" lon="-1.5622">
        <ele>22.8</ele>
        <time>2021-05-15T04:13:34.366Z</time>
      </trkpt>
      <trkpt lat="47.14883" lon="-1.56211">
        <ele>23.1</ele>
        <time>2021-05-15T04:13:35.208Z</time>
      </trkpt>
      <trkpt lat="47.14892" lon="-1.56202">
        <ele>23.3</ele>
        <time>2021-05-15T04:13:36.843Z</time>
      </trkpt>
      <trkpt lat="47.14901" lon="-1.56191">
        <ele>23.5</ele>
        <time>2021-05-15T04:13:38.350Z</time>
      </trkpt>
      <trkpt lat="47.14909" lon="-1.56181">
        <ele>23.7</ele>
        <time>2021-05-15T04:13:42.040Z</time>
      </trkpt>
      <trkpt lat="47.14918" lon="-1.56172">
        <ele>23.9</ele>
        <time>2021-05-15T04:13:44.630Z</time>
      </trkpt>
      <trkpt lat="47.14926" lon="-1.56163">
        <ele>23.9</ele>
        <time>2021-05-15T04:13:50.026Z</time>
      </trkpt>
      <trkpt lat="47.14935" lon="-1.56153">
        <ele>24</ele>
        <time>2021-05-15T04:13:53.530Z</time>
      </trkpt>
      <trkpt lat="47.14944" lon="-1.56141">
        <ele>24.2</ele>
        <time>2021-05-15T04:13:57.033Z</time>
      </trkpt>
      <trkpt lat="47.14954" lon="-1.5613">
        <ele>24.4</ele>
        <time>2021-05-15T04:13:58.577Z</time>
      </trkpt>
      <trkpt lat="47.14962" lon="-1.5612">
        <ele>24.6</ele>
        <time>2021-05-15T04:13:59.389Z</time>
      </trkpt>
      <trkpt lat="47.1497" lon="-1.56111">
        <ele>24.9</ele>
        <time>2021-05-15T04:14:01.313Z</time>
      </trkpt>
      <trkpt lat="47.14978" lon="-1.56101">
        <ele>25.2</ele>
        <time>2021-05-15T04:14:05.451Z</time>
      </trkpt>
      <trkpt lat="47.14985" lon="-1.56092">
        <ele>25.5</ele>
        <time>2021-05-15T04:14:07.210Z</time>
      </trkpt>
      <trkpt lat="47.14993" lon="-1.56083">
        <ele>25.9</ele>
        <time>2021-05-15T04:14:09.348Z</time>
      </trkpt>
      <trkpt lat="47.15001" lon="-1.56076">
        <ele>26.1</ele>
        <time>2021-05-15T04:14:10.847Z</time>
      </trkpt>
      <trkpt lat="47.15011" lon="-1.56066">
        <ele>26.4</ele>
        <time>2021-05-15T04:14:14.277Z</time>
      </trkpt>
      <trkpt lat="47.1502" lon="-1.56056">
        <ele>26.7</ele>
        <time>2021-05-15T04:14:17.196Z</time>
      </trkpt>
      <trkpt lat="47.15028" lon="-1.56049">
        <ele>26.8</ele>
        <time>2021-05-15T04:14:21.180Z</time>
      </trkpt>
      <trkpt lat="47.15037" lon="-1.56041">
        <ele>26.9</ele>
        <time>2021-05-15T04:14:22.074Z</time>
      </trkpt>
      <trkpt lat="47.15048" lon="-1.56034">
        <ele>27.1</ele>
        <time>2021-05-15T04:14:23.002Z</time>
      </trkpt>
      <trkpt lat="47.15058" lon="-1.56028">
        <ele>27.1</ele>
        <time>2021-05-15T04:14:23.837Z</time>
      </trkpt>
      <trkpt lat="47.1507" lon="-1.56022">
        <ele>27.2</ele>
        <time>2021-05-15T04:14:25.986Z</time>
      </trkpt>
      <trkpt lat="47.15082" lon="-1.56018">
        <ele>27.2</ele>
        <time>2021-05-15T04:14:28.445Z</time>
      </trkpt>
      <trkpt lat="47.15096" lon="-1.56013">
        <ele>26.8</ele>
        <time>2021-05-15T04:14:33.717Z</time>
      </trkpt>
      <trkpt lat="47.15106" lon="-1.56009">
        <ele>26.5</ele>
        <time>2021-05-15T04:14:36.444Z</time>
      </trkpt>
      <trkpt lat="47.15115" lon="-1.56004">
        <ele>26.3</ele>
        <time>2021-05-15T04:14:38.477Z</time>
      </trkpt>
      <trkpt lat="47.15128" lon="-1.55999">
        <ele>25.9</ele>
        <time>2021-05-15T04:14:39.749Z</time>
      </trkpt>
      <trkpt lat="47.15139" lon="-1.55994">
        <ele>25.8</ele>
        <time>2021-05-15T04:14:40.640Z</time>
      </trkpt>
      <trkpt lat="47.15149" lon="-1.5599">
        <ele>25.6</ele>
        <time>2021-05-15T04:14:41.442Z</time>
      </trkpt>
      <trkpt lat="47.15161" lon="-1.55986">
        <ele>25.5</ele>
        <time>2021-05-15T04:14:43.450Z</time>
      </trkpt>
      <trkpt lat="47.15172" lon="-1.55982">
        <ele>25.6</ele>
        <time>2021-05-15T04:14:47.531Z</time>
      </trkpt>
      <trkpt lat="47.15183" lon="-1.55976">
        <ele>26</ele>
        <time>2021-05-15T04:14:49.901Z</time>
      </trkpt>
      <trkpt lat="47.15195" lon="-1.55971">
        <ele>26.4</ele>
        <time>2021-05-15T04:14:51.496Z</time>
      </trkpt>
      <trkpt lat="47.15206" lon="-1.55966">
        <ele>26.8</ele>
        <time>2021-05-15T04:14:52.698Z</time>
      </trkpt>
      <trkpt lat="47.15217" lon="-1.55961">
        <ele>27.1</ele>
        <time>2021-05-15T04:14:53.588Z</time>
      </trkpt>
      <trkpt lat="47.15227" lon="-1.55956">
        <ele>27.5</ele>
        <time>2021-05-15T04:14:54.406Z</time>
      </trkpt>
      <trkpt lat="47.15238" lon="-1.55952">
        <ele>27.9</ele>
        <time>2021-05-15T04:14:55.561Z</time>
      </trkpt>
      <trkpt lat="47.15249" lon="-1.55948">
        <ele>28.2</ele>
        <time>2021-05-15T04:14:58.600Z</time>
      </trkpt>
      <trkpt lat="47.15261" lon="-1.55942">
        <ele>28.4</ele>
        <time>2021-05-15T04:15:02.828Z</time>
      </trkpt>
      <trkpt lat="47.15271" lon="-1.55937">
        <ele>28.6</ele>
        <time>2021-05-15T04:15:07.134Z</time>
      </trkpt>
      <trkpt lat="47.15282" lon="-1.55932">
        <ele>28.7</ele>
        <time>2021-05-15T04:15:10.905Z</time>
      </trkpt>
      <trkpt lat="47.15294" lon="-1.55927">
        <ele>28.8</ele>
        <time>2021-05-15T04:15:12.717Z</time>
      </trkpt>
      <trkpt lat="47.15303" lon="-1.55922">
        <ele>28.9</ele>
        <time>2021-05-15T04:15:13.417Z</time>
      </trkpt>
      <trkpt lat="47.15314" lon="-1.55917">
        <ele>29</ele>
        <time>2021-05-15T04:15:15.068Z</time>
      </trkpt>
      <trkpt lat="47.15324" lon="-1.55912">
        <ele>29</ele>
        <time>2021-05-15T04:15:16.771Z</time>
      </trkpt>
      <trkpt lat="47.15334" lon="-1.55906">
        <ele>29</ele>
        <time>2021-05-15T04:15:18.675Z</time>
      </trkpt>
      <trkpt lat="47.15345" lon="-1.559">
        <ele>29.1</ele>
        <time>2021-05-15T04:15:20.357Z</time>
      </trkpt>
      <trkpt lat="47.15356" lon="-1.55894">
        <ele>29.2</ele>
        <time>2021-05-15T04:15:23.571Z</time>
      </trkpt>
      <trkpt lat="47.15365" lon="-1.5589">
        <ele>29.3</ele>
        <time>2021-05-15T04:15:27.542Z</time>
      </trkpt>
      <trkpt lat="47.15373" lon="-1.55886">
        <ele>29.3</ele>
        <time>2021-05-15T04:15:31.479Z</time>
      </trkpt>
      <trkpt lat="47.15387" lon="-1.5588">
        <ele>29.4</ele>
        <time>2021-05-15T04:15:35.661Z</time>
      </trkpt>
      <trkpt lat="47.15396" lon="-1.55878">
        <ele>29.4</ele>
        <time>2021-05-15T04:15:36.904Z</time>
      </trkpt>
      <trkpt lat="47.15405" lon="-1.55887">
        <ele>29.6</ele>
        <time>2021-05-15T04:15:37.746Z</time>
      </trkpt>
      <trkpt lat="47.15414" lon="-1.55899">
        <ele>29.8</ele>
        <time>2021-05-15T04:15:38.635Z</time>
      </trkpt>
      <trkpt lat="47.15426" lon="-1.5591">
        <ele>30</ele>
        <time>2021-05-15T04:15:39.729Z</time>
      </trkpt>
      <trkpt lat="47.15437" lon="-1.55919">
        <ele>30.2</ele>
        <time>2021-05-15T04:15:40.703Z</time>
      </trkpt>
      <trkpt lat="47.15447" lon="-1.55927">
        <ele>30.4</ele>
        <time>2021-05-15T04:15:41.584Z</time>
      </trkpt>
      <trkpt lat="47.15457" lon="-1.55934">
        <ele>30.5</ele>
        <time>2021-05-15T04:15:42.441Z</time>
      </trkpt>
      <trkpt lat="47.15467" lon="-1.55941">
        <ele>30.6</ele>
        <time>2021-05-15T04:15:43.308Z</time>
      </trkpt>
      <trkpt lat="47.15477" lon="-1.55949">
        <ele>30.7</ele>
        <time>2021-05-15T04:15:44.189Z</time>
      </trkpt>
      <trkpt lat="47.1549" lon="-1.5596">
        <ele>30.9</ele>
        <time>2021-05-15T04:15:48.319Z</time>
      </trkpt>
      <trkpt lat="47.15499" lon="-1.55969">
        <ele>31</ele>
        <time>2021-05-15T04:15:52.291Z</time>
      </trkpt>
      <trkpt lat="47.15508" lon="-1.55977">
        <ele>31.1</ele>
        <time>2021-05-15T04:15:56.742Z</time>
      </trkpt>
      <trkpt lat="47.15517" lon="-1.55984">
        <ele>31.2</ele>
        <time>2021-05-15T04:15:58.360Z</time>
      </trkpt>
      <trkpt lat="47.15528" lon="-1.55993">
        <ele>31.3</ele>
        <time>2021-05-15T04:16:00.776Z</time>
      </trkpt>
      <trkpt lat="47.1554" lon="-1.56003">
        <ele>31.5</ele>
        <time>2021-05-15T04:16:02.246Z</time>
      </trkpt>
      <trkpt lat="47.1555" lon="-1.5601">
        <ele>31.7</ele>
        <time>2021-05-15T04:16:04.071Z</time>
      </trkpt>
      <trkpt lat="47.15562" lon="-1.56019">
        <ele>32</ele>
        <time>2021-05-15T04:16:06.848Z</time>
      </trkpt>
      <trkpt lat="47.15574" lon="-1.56028">
        <ele>32.2</ele>
        <time>2021-05-15T04:16:10.179Z</time>
      </trkpt>
      <trkpt lat="47.15584" lon="-1.56037">
        <ele>32.4</ele>
        <time>2021-05-15T04:16:12.444Z</time>
      </trkpt>
      <trkpt lat="47.15587" lon="-1.56051">
        <ele>32.6</ele>
        <time>2021-05-15T04:16:13.290Z</time>
      </trkpt>
      <trkpt lat="47.15582" lon="-1.56072">
        <ele>32.8</ele>
        <time>2021-05-15T04:16:15.124Z</time>
      </trkpt>
      <trkpt lat="47.15578" lon="-1.56091">
        <ele>33</ele>
        <time>2021-05-15T04:16:16.185Z</time>
      </trkpt>
      <trkpt lat="47.15576" lon="-1.56108">
        <ele>33.2</ele>
        <time>2021-05-15T04:16:17.752Z</time>
      </trkpt>
      <trkpt lat="47.1558" lon="-1.56127">
        <ele>33.5</ele>
        <time>2021-05-15T04:16:21.693Z</time>
      </trkpt>
      <trkpt lat="47.15587" lon="-1.56142">
        <ele>33.6</ele>
        <time>2021-05-15T04:16:25.017Z</time>
      </trkpt>
      <trkpt lat="47.15594" lon="-1.56158">
        <ele>33.7</ele>
        <time>2021-05-15T04:16:31.469Z</time>
      </trkpt>
      <trkpt lat="47.15598" lon="-1.5617">
        <ele>33.6</ele>
        <time>2021-05-15T04:16:34.017Z</time>
      </trkpt>
      <trkpt lat="47.15604" lon="-1.56184">
        <ele>33.4</ele>
        <time>2021-05-15T04:16:34.888Z</time>
      </trkpt>
      <trkpt lat="47.15611" lon="-1.56202">
        <ele>33.2</ele>
        <time>2021-05-15T04:16:37.027Z</time>
      </trkpt>
      <trkpt lat="47.1562" lon="-1.56223">
        <ele>33</ele>
        <time>2021-05-15T04:16:38.522Z</time>
      </trkpt>
      <trkpt lat="47.15627" lon="-1.5624">
        <ele>33</ele>
        <time>2021-05-15T04:16:39.824Z</time>
      </trkpt>
      <trkpt lat="47.15635" lon="-1.56257">
        <ele>32.8</ele>
        <time>2021-05-15T04:16:41.156Z</time>
      </trkpt>
      <trkpt lat="47.15642" lon="-1.56274">
        <ele>32.4</ele>
        <time>2021-05-15T04:16:42.301Z</time>
      </trkpt>
      <trkpt lat="47.15649" lon="-1.56289">
        <ele>32.1</ele>
        <time>2021-05-15T04:16:44.575Z</time>
      </trkpt>
      <trkpt lat="47.15658" lon="-1.563">
        <ele>31.8</ele>
        <time>2021-05-15T04:16:46.656Z</time>
      </trkpt>
      <trkpt lat="47.15669" lon="-1.56309">
        <ele>31.6</ele>
        <time>2021-05-15T04:16:47.599Z</time>
      </trkpt>
      <trkpt lat="47.15678" lon="-1.56316">
        <ele>31.4</ele>
        <time>2021-05-15T04:16:48.387Z</time>
      </trkpt>
      <trkpt lat="47.15685" lon="-1.56329">
        <ele>31.1</ele>
        <time>2021-05-15T04:16:49.593Z</time>
      </trkpt>
      <trkpt lat="47.1569" lon="-1.56349">
        <ele>30.9</ele>
        <time>2021-05-15T04:16:55.374Z</time>
      </trkpt>
      <trkpt lat="47.15693" lon="-1.56369">
        <ele>30.7</ele>
        <time>2021-05-15T04:16:59.115Z</time>
      </trkpt>
      <trkpt lat="47.15697" lon="-1.56389">
        <ele>30.5</ele>
        <time>2021-05-15T04:17:01.481Z</time>
      </trkpt>
      <trkpt lat="47.15704" lon="-1.56407">
        <ele>30.2</ele>
        <time>2021-05-15T04:17:04.978Z</time>
      </trkpt>
      <trkpt lat="47.15713" lon="-1.56421">
        <ele>29.9</ele>
        <time>2021-05-15T04:17:06.756Z</time>
      </trkpt>
      <trkpt lat="47.15723" lon="-1.56433">
        <ele>29.7</ele>
        <time>2021-05-15T04:17:07.755Z</time>
      </trkpt>
      <trkpt lat="47.15733" lon="-1.56449">
        <ele>29.6</ele>
        <time>2021-05-15T04:17:09.786Z</time>
      </trkpt>
      <trkpt lat="47.15739" lon="-1.56466">
        <ele>29.6</ele>
        <time>2021-05-15T04:17:11.006Z</time>
      </trkpt>
      <trkpt lat="47.15744" lon="-1.56484">
        <ele>29.8</ele>
        <time>2021-05-15T04:17:12.066Z</time>
      </trkpt>
      <trkpt lat="47.15744" lon="-1.56504">
        <ele>30</ele>
        <time>2021-05-15T04:17:13.183Z</time>
      </trkpt>
      <trkpt lat="47.15743" lon="-1.56524">
        <ele>30.2</ele>
        <time>2021-05-15T04:17:14.238Z</time>
      </trkpt>
      <trkpt lat="47.15739" lon="-1.56543">
        <ele>30.3</ele>
        <time>2021-05-15T04:17:15.285Z</time>
      </trkpt>
      <trkpt lat="47.15734" lon="-1.56562">
        <ele>30.4</ele>
        <time>2021-05-15T04:17:16.357Z</time>
      </trkpt>
      <trkpt lat="47.15728" lon="-1.56583">
        <ele>30.5</ele>
        <time>2021-05-15T04:17:17.555Z</time>
      </trkpt>
      <trkpt lat="47.15723" lon="-1.56603">
        <ele>30.3</ele>
        <time>2021-05-15T04:17:19.876Z</time>
      </trkpt>
      <trkpt lat="47.15717" lon="-1.56622">
        <ele>30.1</ele>
        <time>2021-05-15T04:17:23.551Z</time>
      </trkpt>
      <trkpt lat="47.15711" lon="-1.56643">
        <ele>30</ele>
        <time>2021-05-15T04:17:26.657Z</time>
      </trkpt>
      <trkpt lat="47.15705" lon="-1.56664">
        <ele>30</ele>
        <time>2021-05-15T04:17:28.651Z</time>
      </trkpt>
      <trkpt lat="47.15701" lon="-1.56683">
        <ele>29.8</ele>
        <time>2021-05-15T04:17:32.237Z</time>
      </trkpt>
      <trkpt lat="47.15698" lon="-1.56703">
        <ele>29.6</ele>
        <time>2021-05-15T04:17:39.697Z</time>
      </trkpt>
      <trkpt lat="47.15698" lon="-1.56725">
        <ele>29.3</ele>
        <time>2021-05-15T04:17:43.184Z</time>
      </trkpt>
      <trkpt lat="47.157" lon="-1.56747">
        <ele>29</ele>
        <time>2021-05-15T04:17:45.866Z</time>
      </trkpt>
      <trkpt lat="47.15702" lon="-1.56771">
        <ele>28.4</ele>
        <time>2021-05-15T04:17:48.284Z</time>
      </trkpt>
      <trkpt lat="47.15706" lon="-1.56794">
        <ele>27.7</ele>
        <time>2021-05-15T04:17:50.405Z</time>
      </trkpt>
      <trkpt lat="47.15709" lon="-1.56817">
        <ele>27</ele>
        <time>2021-05-15T04:17:52.796Z</time>
      </trkpt>
      <trkpt lat="47.15713" lon="-1.5684">
        <ele>26.4</ele>
        <time>2021-05-15T04:17:54.532Z</time>
      </trkpt>
      <trkpt lat="47.15717" lon="-1.56864">
        <ele>26</ele>
        <time>2021-05-15T04:17:56.333Z</time>
      </trkpt>
      <trkpt lat="47.1572" lon="-1.56884">
        <ele>25.8</ele>
        <time>2021-05-15T04:17:58.611Z</time>
      </trkpt>
      <trkpt lat="47.15726" lon="-1.56907">
        <ele>25.4</ele>
        <time>2021-05-15T04:18:01.146Z</time>
      </trkpt>
      <trkpt lat="47.15735" lon="-1.56928">
        <ele>25.4</ele>
        <time>2021-05-15T04:18:03.369Z</time>
      </trkpt>
      <trkpt lat="47.15744" lon="-1.56948">
        <ele>25.7</ele>
        <time>2021-05-15T04:18:05.439Z</time>
      </trkpt>
      <trkpt lat="47.15753" lon="-1.56966">
        <ele>26.2</ele>
        <time>2021-05-15T04:18:06.731Z</time>
      </trkpt>
      <trkpt lat="47.15762" lon="-1.56986">
        <ele>26.9</ele>
        <time>2021-05-15T04:18:08.094Z</time>
      </trkpt>
      <trkpt lat="47.15772" lon="-1.57004">
        <ele>27.7</ele>
        <time>2021-05-15T04:18:10.055Z</time>
      </trkpt>
      <trkpt lat="47.1578" lon="-1.57021">
        <ele>28.5</ele>
        <time>2021-05-15T04:18:11.651Z</time>
      </trkpt>
      <trkpt lat="47.15789" lon="-1.57039">
        <ele>29.5</ele>
        <time>2021-05-15T04:18:14.227Z</time>
      </trkpt>
      <trkpt lat="47.15798" lon="-1.57055">
        <ele>30.6</ele>
        <time>2021-05-15T04:18:16.031Z</time>
      </trkpt>
      <trkpt lat="47.15807" lon="-1.57071">
        <ele>31.8</ele>
        <time>2021-05-15T04:18:20.325Z</time>
      </trkpt>
      <trkpt lat="47.15815" lon="-1.57084">
        <ele>32.9</ele>
        <time>2021-05-15T04:18:22.742Z</time>
      </trkpt>
      <trkpt lat="47.15824" lon="-1.57102">
        <ele>33</ele>
        <time>2021-05-15T04:18:24.677Z</time>
      </trkpt>
      <trkpt lat="47.15832" lon="-1.57118">
        <ele>33.1</ele>
        <time>2021-05-15T04:18:27.768Z</time>
      </trkpt>
      <trkpt lat="47.1584" lon="-1.57133">
        <ele>33.3</ele>
        <time>2021-05-15T04:18:30.303Z</time>
      </trkpt>
      <trkpt lat="47.15848" lon="-1.57149">
        <ele>33.5</ele>
        <time>2021-05-15T04:18:33.029Z</time>
      </trkpt>
      <trkpt lat="47.15855" lon="-1.57165">
        <ele>33.8</ele>
        <time>2021-05-15T04:18:35.873Z</time>
      </trkpt>
      <trkpt lat="47.15864" lon="-1.57182">
        <ele>34.1</ele>
        <time>2021-05-15T04:18:37.987Z</time>
      </trkpt>
      <trkpt lat="47.15871" lon="-1.57197">
        <ele>34.1</ele>
        <time>2021-05-15T04:18:39.212Z</time>
      </trkpt>
      <trkpt lat="47.1588" lon="-1.57212">
        <ele>34.2</ele>
        <time>2021-05-15T04:18:40.433Z</time>
      </trkpt>
      <trkpt lat="47.15886" lon="-1.57225">
        <ele>34.1</ele>
        <time>2021-05-15T04:18:41.260Z</time>
      </trkpt>
      <trkpt lat="47.15895" lon="-1.57242">
        <ele>34</ele>
        <time>2021-05-15T04:18:43.416Z</time>
      </trkpt>
      <trkpt lat="47.15901" lon="-1.57254">
        <ele>33.9</ele>
        <time>2021-05-15T04:18:48.155Z</time>
      </trkpt>
      <trkpt lat="47.15909" lon="-1.57269">
        <ele>33.7</ele>
        <time>2021-05-15T04:18:50.547Z</time>
      </trkpt>
      <trkpt lat="47.15916" lon="-1.57282">
        <ele>33.4</ele>
        <time>2021-05-15T04:18:51.347Z</time>
      </trkpt>
      <trkpt lat="47.15926" lon="-1.57297">
        <ele>32.8</ele>
        <time>2021-05-15T04:18:52.372Z</time>
      </trkpt>
      <trkpt lat="47.15934" lon="-1.5731">
        <ele>32.3</ele>
        <time>2021-05-15T04:18:53.343Z</time>
      </trkpt>
      <trkpt lat="47.15942" lon="-1.57322">
        <ele>31.8</ele>
        <time>2021-05-15T04:18:57.138Z</time>
      </trkpt>
      <trkpt lat="47.15952" lon="-1.57336">
        <ele>31.4</ele>
        <time>2021-05-15T04:19:03.295Z</time>
      </trkpt>
      <trkpt lat="47.15961" lon="-1.57347">
        <ele>31.6</ele>
        <time>2021-05-15T04:19:06.465Z</time>
      </trkpt>
      <trkpt lat="47.1597" lon="-1.57356">
        <ele>31.7</ele>
        <time>2021-05-15T04:19:07.481Z</time>
      </trkpt>
      <trkpt lat="47.1598" lon="-1.57366">
        <ele>31.9</ele>
        <time>2021-05-15T04:19:08.725Z</time>
      </trkpt>
      <trkpt lat="47.15991" lon="-1.57372">
        <ele>31.9</ele>
        <time>2021-05-15T04:19:09.703Z</time>
      </trkpt>
      <trkpt lat="47.16005" lon="-1.57378">
        <ele>32</ele>
        <time>2021-05-15T04:19:10.831Z</time>
      </trkpt>
      <trkpt lat="47.16017" lon="-1.57381">
        <ele>31.9</ele>
        <time>2021-05-15T04:19:11.773Z</time>
      </trkpt>
      <trkpt lat="47.16028" lon="-1.57384">
        <ele>31.9</ele>
        <time>2021-05-15T04:19:12.639Z</time>
      </trkpt>
      <trkpt lat="47.1604" lon="-1.57387">
        <ele>31.8</ele>
        <time>2021-05-15T04:19:13.581Z</time>
      </trkpt>
      <trkpt lat="47.16053" lon="-1.57389">
        <ele>31.8</ele>
        <time>2021-05-15T04:19:14.744Z</time>
      </trkpt>
      <trkpt lat="47.16066" lon="-1.57389">
        <ele>31.7</ele>
        <time>2021-05-15T04:19:16.063Z</time>
      </trkpt>
      <trkpt lat="47.16081" lon="-1.57388">
        <ele>31.7</ele>
        <time>2021-05-15T04:19:18.187Z</time>
      </trkpt>
      <trkpt lat="47.16093" lon="-1.57386">
        <ele>31.5</ele>
        <time>2021-05-15T04:19:19.611Z</time>
      </trkpt>
      <trkpt lat="47.16106" lon="-1.57383">
        <ele>31.2</ele>
        <time>2021-05-15T04:19:20.794Z</time>
      </trkpt>
      <trkpt lat="47.16119" lon="-1.57378">
        <ele>30.9</ele>
        <time>2021-05-15T04:19:24.656Z</time>
      </trkpt>
      <trkpt lat="47.16131" lon="-1.57372">
        <ele>30.6</ele>
        <time>2021-05-15T04:19:27.578Z</time>
      </trkpt>
      <trkpt lat="47.16143" lon="-1.57368">
        <ele>30.3</ele>
        <time>2021-05-15T04:19:29.485Z</time>
      </trkpt>
      <trkpt lat="47.16154" lon="-1.57365">
        <ele>30</ele>
        <time>2021-05-15T04:19:32.219Z</time>
      </trkpt>
      <trkpt lat="47.16164" lon="-1.57369">
        <ele>29.9</ele>
        <time>2021-05-15T04:19:35.404Z</time>
      </trkpt>
      <trkpt lat="47.16168" lon="-1.57389">
        <ele>30.3</ele>
        <time>2021-05-15T04:19:40.233Z</time>
      </trkpt>
      <trkpt lat="47.1617" lon="-1.57409">
        <ele>30.8</ele>
        <time>2021-05-15T04:19:43.967Z</time>
      </trkpt>
      <trkpt lat="47.16172" lon="-1.57429">
        <ele>31.2</ele>
        <time>2021-05-15T04:19:48.224Z</time>
      </trkpt>
      <trkpt lat="47.16173" lon="-1.57449">
        <ele>31.4</ele>
        <time>2021-05-15T04:19:50.330Z</time>
      </trkpt>
      <trkpt lat="47.16173" lon="-1.57466">
        <ele>31.6</ele>
        <time>2021-05-15T04:19:52.601Z</time>
      </trkpt>
      <trkpt lat="47.16173" lon="-1.57485">
        <ele>31.9</ele>
        <time>2021-05-15T04:19:54.608Z</time>
      </trkpt>
      <trkpt lat="47.16173" lon="-1.57504">
        <ele>32.1</ele>
        <time>2021-05-15T04:19:58.012Z</time>
      </trkpt>
      <trkpt lat="47.16172" lon="-1.57525">
        <ele>32.4</ele>
        <time>2021-05-15T04:20:00.638Z</time>
      </trkpt>
      <trkpt lat="47.16174" lon="-1.57544">
        <ele>32.6</ele>
        <time>2021-05-15T04:20:02.590Z</time>
      </trkpt>
      <trkpt lat="47.16179" lon="-1.57565">
        <ele>32.9</ele>
        <time>2021-05-15T04:20:05.922Z</time>
      </trkpt>
      <trkpt lat="47.16186" lon="-1.57584">
        <ele>33.2</ele>
        <time>2021-05-15T04:20:10.476Z</time>
      </trkpt>
      <trkpt lat="47.16193" lon="-1.57601">
        <ele>33.2</ele>
        <time>2021-05-15T04:20:14.303Z</time>
      </trkpt>
      <trkpt lat="47.16201" lon="-1.57615">
        <ele>33.2</ele>
        <time>2021-05-15T04:20:17.799Z</time>
      </trkpt>
      <trkpt lat="47.1621" lon="-1.57629">
        <ele>33.3</ele>
        <time>2021-05-15T04:20:21.174Z</time>
      </trkpt>
      <trkpt lat="47.16219" lon="-1.57642">
        <ele>33.4</ele>
        <time>2021-05-15T04:20:23.989Z</time>
      </trkpt>
      <trkpt lat="47.16229" lon="-1.57653">
        <ele>33.5</ele>
        <time>2021-05-15T04:20:25.922Z</time>
      </trkpt>
      <trkpt lat="47.1624" lon="-1.57666">
        <ele>33.8</ele>
        <time>2021-05-15T04:20:28.124Z</time>
      </trkpt>
      <trkpt lat="47.16251" lon="-1.57677">
        <ele>34</ele>
        <time>2021-05-15T04:20:30.153Z</time>
      </trkpt>
      <trkpt lat="47.16261" lon="-1.57685">
        <ele>34.1</ele>
        <time>2021-05-15T04:20:31.169Z</time>
      </trkpt>
      <trkpt lat="47.16273" lon="-1.57697">
        <ele>34.3</ele>
        <time>2021-05-15T04:20:32.917Z</time>
      </trkpt>
      <trkpt lat="47.16285" lon="-1.57708">
        <ele>34.4</ele>
        <time>2021-05-15T04:20:33.926Z</time>
      </trkpt>
      <trkpt lat="47.16294" lon="-1.57719">
        <ele>34.5</ele>
        <time>2021-05-15T04:20:34.831Z</time>
      </trkpt>
      <trkpt lat="47.16302" lon="-1.5773">
        <ele>34.6</ele>
        <time>2021-05-15T04:20:36.885Z</time>
      </trkpt>
      <trkpt lat="47.16311" lon="-1.57744">
        <ele>34.7</ele>
        <time>2021-05-15T04:20:40.207Z</time>
      </trkpt>
      <trkpt lat="47.16321" lon="-1.57758">
        <ele>34.8</ele>
        <time>2021-05-15T04:20:42.218Z</time>
      </trkpt>
      <trkpt lat="47.1633" lon="-1.57771">
        <ele>34.7</ele>
        <time>2021-05-15T04:20:43.701Z</time>
      </trkpt>
      <trkpt lat="47.16339" lon="-1.57786">
        <ele>34.5</ele>
        <time>2021-05-15T04:20:45.452Z</time>
      </trkpt>
      <trkpt lat="47.16347" lon="-1.57799">
        <ele>34.3</ele>
        <time>2021-05-15T04:20:46.374Z</time>
      </trkpt>
      <trkpt lat="47.16357" lon="-1.57813">
        <ele>34.2</ele>
        <time>2021-05-15T04:20:48.344Z</time>
      </trkpt>
      <trkpt lat="47.16366" lon="-1.57825">
        <ele>34.1</ele>
        <time>2021-05-15T04:20:50.443Z</time>
      </trkpt>
      <trkpt lat="47.16378" lon="-1.57835">
        <ele>34</ele>
        <time>2021-05-15T04:20:53.310Z</time>
      </trkpt>
      <trkpt lat="47.16389" lon="-1.57845">
        <ele>33.9</ele>
        <time>2021-05-15T04:20:56.440Z</time>
      </trkpt>
      <trkpt lat="47.16401" lon="-1.57855">
        <ele>33.7</ele>
        <time>2021-05-15T04:20:57.659Z</time>
      </trkpt>
      <trkpt lat="47.16412" lon="-1.57862">
        <ele>33.7</ele>
        <time>2021-05-15T04:20:58.586Z</time>
      </trkpt>
      <trkpt lat="47.16424" lon="-1.57871">
        <ele>33.5</ele>
        <time>2021-05-15T04:20:59.628Z</time>
      </trkpt>
      <trkpt lat="47.16435" lon="-1.57878">
        <ele>33.5</ele>
        <time>2021-05-15T04:21:00.523Z</time>
      </trkpt>
      <trkpt lat="47.16446" lon="-1.57886">
        <ele>33.5</ele>
        <time>2021-05-15T04:21:01.944Z</time>
      </trkpt>
      <trkpt lat="47.16455" lon="-1.57892">
        <ele>33.5</ele>
        <time>2021-05-15T04:21:03.186Z</time>
      </trkpt>
      <trkpt lat="47.16466" lon="-1.57901">
        <ele>33.6</ele>
        <time>2021-05-15T04:21:04.797Z</time>
      </trkpt>
      <trkpt lat="47.16478" lon="-1.57912">
        <ele>33.7</ele>
        <time>2021-05-15T04:21:08.902Z</time>
      </trkpt>
      <trkpt lat="47.16488" lon="-1.57921">
        <ele>33.8</ele>
        <time>2021-05-15T04:21:11.772Z</time>
      </trkpt>
      <trkpt lat="47.165" lon="-1.57932">
        <ele>33.8</ele>
        <time>2021-05-15T04:21:14.028Z</time>
      </trkpt>
      <trkpt lat="47.16511" lon="-1.57944">
        <ele>33.8</ele>
        <time>2021-05-15T04:21:15.942Z</time>
      </trkpt>
      <trkpt lat="47.16522" lon="-1.57956">
        <ele>33.7</ele>
        <time>2021-05-15T04:21:17.910Z</time>
      </trkpt>
      <trkpt lat="47.16531" lon="-1.57965">
        <ele>33.6</ele>
        <time>2021-05-15T04:21:18.996Z</time>
      </trkpt>
      <trkpt lat="47.16542" lon="-1.57976">
        <ele>33.4</ele>
        <time>2021-05-15T04:21:20.354Z</time>
      </trkpt>
      <trkpt lat="47.16553" lon="-1.57986">
        <ele>33.3</ele>
        <time>2021-05-15T04:21:21.867Z</time>
      </trkpt>
      <trkpt lat="47.16564" lon="-1.57997">
        <ele>33.1</ele>
        <time>2021-05-15T04:21:22.896Z</time>
      </trkpt>
      <trkpt lat="47.16573" lon="-1.58008">
        <ele>32.8</ele>
        <time>2021-05-15T04:21:23.801Z</time>
      </trkpt>
      <trkpt lat="47.16583" lon="-1.58016">
        <ele>32.6</ele>
        <time>2021-05-15T04:21:24.684Z</time>
      </trkpt>
      <trkpt lat="47.16594" lon="-1.58025">
        <ele>32.4</ele>
        <time>2021-05-15T04:21:25.949Z</time>
      </trkpt>
      <trkpt lat="47.16604" lon="-1.58031">
        <ele>32.3</ele>
        <time>2021-05-15T04:21:26.854Z</time>
      </trkpt>
      <trkpt lat="47.16615" lon="-1.58037">
        <ele>32.1</ele>
        <time>2021-05-15T04:21:28.008Z</time>
      </trkpt>
      <trkpt lat="47.16626" lon="-1.58044">
        <ele>31.9</ele>
        <time>2021-05-15T04:21:30.985Z</time>
      </trkpt>
      <trkpt lat="47.16635" lon="-1.58054">
        <ele>31.7</ele>
        <time>2021-05-15T04:21:32.408Z</time>
      </trkpt>
      <trkpt lat="47.16641" lon="-1.58066">
        <ele>31.4</ele>
        <time>2021-05-15T04:21:33.320Z</time>
      </trkpt>
      <trkpt lat="47.1665" lon="-1.5808">
        <ele>31.1</ele>
        <time>2021-05-15T04:21:34.886Z</time>
      </trkpt>
      <trkpt lat="47.16658" lon="-1.58095">
        <ele>31.1</ele>
        <time>2021-05-15T04:21:37.072Z</time>
      </trkpt>
      <trkpt lat="47.16668" lon="-1.58109">
        <ele>31.3</ele>
        <time>2021-05-15T04:21:38.354Z</time>
      </trkpt>
      <trkpt lat="47.16679" lon="-1.5812">
        <ele>31.6</ele>
        <time>2021-05-15T04:21:40.240Z</time>
      </trkpt>
      <trkpt lat="47.1669" lon="-1.58131">
        <ele>31.8</ele>
        <time>2021-05-15T04:21:43.149Z</time>
      </trkpt>
      <trkpt lat="47.16701" lon="-1.58141">
        <ele>31.9</ele>
        <time>2021-05-15T04:21:48.270Z</time>
      </trkpt>
      <trkpt lat="47.16712" lon="-1.58151">
        <ele>32</ele>
        <time>2021-05-15T04:21:50.704Z</time>
      </trkpt>
      <trkpt lat="47.16724" lon="-1.58163">
        <ele>32</ele>
        <time>2021-05-15T04:21:53.447Z</time>
      </trkpt>
      <trkpt lat="47.16735" lon="-1.58173">
        <ele>32</ele>
        <time>2021-05-15T04:21:55.727Z</time>
      </trkpt>
      <trkpt lat="47.16745" lon="-1.58183">
        <ele>32</ele>
        <time>2021-05-15T04:21:58.498Z</time>
      </trkpt>
      <trkpt lat="47.16756" lon="-1.58193">
        <ele>32</ele>
        <time>2021-05-15T04:22:00.590Z</time>
      </trkpt>
      <trkpt lat="47.16766" lon="-1.58202">
        <ele>31.9</ele>
        <time>2021-05-15T04:22:02.831Z</time>
      </trkpt>
      <trkpt lat="47.16777" lon="-1.58214">
        <ele>31.9</ele>
        <time>2021-05-15T04:22:04.596Z</time>
      </trkpt>
      <trkpt lat="47.16786" lon="-1.58224">
        <ele>31.9</ele>
        <time>2021-05-15T04:22:06.063Z</time>
      </trkpt>
      <trkpt lat="47.16797" lon="-1.58236">
        <ele>31.9</ele>
        <time>2021-05-15T04:22:07.041Z</time>
      </trkpt>
      <trkpt lat="47.16807" lon="-1.58246">
        <ele>32</ele>
        <time>2021-05-15T04:22:10.120Z</time>
      </trkpt>
      <trkpt lat="47.16816" lon="-1.58254">
        <ele>32</ele>
        <time>2021-05-15T04:22:13.025Z</time>
      </trkpt>
      <trkpt lat="47.16827" lon="-1.58265">
        <ele>32.2</ele>
        <time>2021-05-15T04:22:15.702Z</time>
      </trkpt>
      <trkpt lat="47.16839" lon="-1.58275">
        <ele>32.2</ele>
        <time>2021-05-15T04:22:17.945Z</time>
      </trkpt>
      <trkpt lat="47.1685" lon="-1.58285">
        <ele>32.1</ele>
        <time>2021-05-15T04:22:19.585Z</time>
      </trkpt>
      <trkpt lat="47.16861" lon="-1.58296">
        <ele>32</ele>
        <time>2021-05-15T04:22:20.614Z</time>
      </trkpt>
      <trkpt lat="47.16872" lon="-1.58308">
        <ele>31.9</ele>
        <time>2021-05-15T04:22:22.880Z</time>
      </trkpt>
      <trkpt lat="47.16883" lon="-1.58318">
        <ele>31.7</ele>
        <time>2021-05-15T04:22:24.259Z</time>
      </trkpt>
      <trkpt lat="47.16894" lon="-1.58329">
        <ele>31.5</ele>
        <time>2021-05-15T04:22:25.211Z</time>
      </trkpt>
      <trkpt lat="47.16904" lon="-1.58341">
        <ele>31.3</ele>
        <time>2021-05-15T04:22:26.209Z</time>
      </trkpt>
      <trkpt lat="47.16914" lon="-1.58352">
        <ele>31.1</ele>
        <time>2021-05-15T04:22:27.176Z</time>
      </trkpt>
      <trkpt lat="47.16925" lon="-1.58364">
        <ele>31</ele>
        <time>2021-05-15T04:22:28.564Z</time>
      </trkpt>
      <trkpt lat="47.16935" lon="-1.58375">
        <ele>30.9</ele>
        <time>2021-05-15T04:22:29.461Z</time>
      </trkpt>
      <trkpt lat="47.16946" lon="-1.58386">
        <ele>30.8</ele>
        <time>2021-05-15T04:22:30.490Z</time>
      </trkpt>
      <trkpt lat="47.16957" lon="-1.58397">
        <ele>30.6</ele>
        <time>2021-05-15T04:22:31.519Z</time>
      </trkpt>
      <trkpt lat="47.16969" lon="-1.58405">
        <ele>30.5</ele>
        <time>2021-05-15T04:22:33.611Z</time>
      </trkpt>
      <trkpt lat="47.1698" lon="-1.58408">
        <ele>30.3</ele>
        <time>2021-05-15T04:22:34.647Z</time>
      </trkpt>
      <trkpt lat="47.1699" lon="-1.58417">
        <ele>30.1</ele>
        <time>2021-05-15T04:22:37.220Z</time>
      </trkpt>
      <trkpt lat="47.17001" lon="-1.58414">
        <ele>30</ele>
        <time>2021-05-15T04:22:39.214Z</time>
      </trkpt>
      <trkpt lat="47.17011" lon="-1.58409">
        <ele>30.1</ele>
        <time>2021-05-15T04:22:41.751Z</time>
      </trkpt>
      <trkpt lat="47.1702" lon="-1.58405">
        <ele>30.1</ele>
        <time>2021-05-15T04:22:43.546Z</time>
      </trkpt>
      <trkpt lat="47.1703" lon="-1.584">
        <ele>30.2</ele>
        <time>2021-05-15T04:22:46.907Z</time>
      </trkpt>
      <trkpt lat="47.17042" lon="-1.58397">
        <ele>30.2</ele>
        <time>2021-05-15T04:22:49.275Z</time>
      </trkpt>
      <trkpt lat="47.1705" lon="-1.58407">
        <ele>30.1</ele>
        <time>2021-05-15T04:22:50.857Z</time>
      </trkpt>
      <trkpt lat="47.17057" lon="-1.58429">
        <ele>29.8</ele>
        <time>2021-05-15T04:22:53.129Z</time>
      </trkpt>
      <trkpt lat="47.17062" lon="-1.5845">
        <ele>29.5</ele>
        <time>2021-05-15T04:22:55.296Z</time>
      </trkpt>
      <trkpt lat="47.17071" lon="-1.58464">
        <ele>29.3</ele>
        <time>2021-05-15T04:22:57.252Z</time>
      </trkpt>
      <trkpt lat="47.1708" lon="-1.58474">
        <ele>29.3</ele>
        <time>2021-05-15T04:22:59.889Z</time>
      </trkpt>
      <trkpt lat="47.1709" lon="-1.5848">
        <ele>29.3</ele>
        <time>2021-05-15T04:23:02.250Z</time>
      </trkpt>
      <trkpt lat="47.17102" lon="-1.58477">
        <ele>29.3</ele>
        <time>2021-05-15T04:23:03.192Z</time>
      </trkpt>
      <trkpt lat="47.17115" lon="-1.58473">
        <ele>29.4</ele>
        <time>2021-05-15T04:23:04.669Z</time>
      </trkpt>
      <trkpt lat="47.17129" lon="-1.58471">
        <ele>29.5</ele>
        <time>2021-05-15T04:23:07.310Z</time>
      </trkpt>
      <trkpt lat="47.17143" lon="-1.58471">
        <ele>29.6</ele>
        <time>2021-05-15T04:23:09.514Z</time>
      </trkpt>
      <trkpt lat="47.17156" lon="-1.58472">
        <ele>29.6</ele>
        <time>2021-05-15T04:23:10.680Z</time>
      </trkpt>
      <trkpt lat="47.17166" lon="-1.58474">
        <ele>29.6</ele>
        <time>2021-05-15T04:23:11.468Z</time>
      </trkpt>
      <trkpt lat="47.1718" lon="-1.58475">
        <ele>29.6</ele>
        <time>2021-05-15T04:23:12.944Z</time>
      </trkpt>
      <trkpt lat="47.17194" lon="-1.58476">
        <ele>29.7</ele>
        <time>2021-05-15T04:23:15.027Z</time>
      </trkpt>
      <trkpt lat="47.17206" lon="-1.58477">
        <ele>29.7</ele>
        <time>2021-05-15T04:23:15.879Z</time>
      </trkpt>
      <trkpt lat="47.17219" lon="-1.58479">
        <ele>29.7</ele>
        <time>2021-05-15T04:23:16.994Z</time>
      </trkpt>
      <trkpt lat="47.17231" lon="-1.58482">
        <ele>29.6</ele>
        <time>2021-05-15T04:23:18.272Z</time>
      </trkpt>
      <trkpt lat="47.17245" lon="-1.58484">
        <ele>29.6</ele>
        <time>2021-05-15T04:23:19.460Z</time>
      </trkpt>
      <trkpt lat="47.17258" lon="-1.58487">
        <ele>29.5</ele>
        <time>2021-05-15T04:23:20.799Z</time>
      </trkpt>
      <trkpt lat="47.1727" lon="-1.5849">
        <ele>29.5</ele>
        <time>2021-05-15T04:23:24.218Z</time>
      </trkpt>
      <trkpt lat="47.17283" lon="-1.58493">
        <ele>29.5</ele>
        <time>2021-05-15T04:23:27.584Z</time>
      </trkpt>
      <trkpt lat="47.17296" lon="-1.58496">
        <ele>29.6</ele>
        <time>2021-05-15T04:23:31.197Z</time>
      </trkpt>
      <trkpt lat="47.1731" lon="-1.58498">
        <ele>29.7</ele>
        <time>2021-05-15T04:23:34.039Z</time>
      </trkpt>
      <trkpt lat="47.17323" lon="-1.585">
        <ele>29.9</ele>
        <time>2021-05-15T04:23:35.542Z</time>
      </trkpt>
      <trkpt lat="47.17335" lon="-1.58502">
        <ele>29.9</ele>
        <time>2021-05-15T04:23:36.740Z</time>
      </trkpt>
      <trkpt lat="47.17346" lon="-1.58503">
        <ele>29.8</ele>
        <time>2021-05-15T04:23:37.546Z</time>
      </trkpt>
      <trkpt lat="47.17358" lon="-1.58505">
        <ele>29.6</ele>
        <time>2021-05-15T04:23:38.481Z</time>
      </trkpt>
      <trkpt lat="47.17371" lon="-1.58505">
        <ele>29.5</ele>
        <time>2021-05-15T04:23:39.487Z</time>
      </trkpt>
      <trkpt lat="47.17384" lon="-1.58506">
        <ele>29.3</ele>
        <time>2021-05-15T04:23:40.471Z</time>
      </trkpt>
      <trkpt lat="47.17396" lon="-1.58509">
        <ele>29.2</ele>
        <time>2021-05-15T04:23:45.390Z</time>
      </trkpt>
      <trkpt lat="47.17409" lon="-1.58511">
        <ele>29.1</ele>
        <time>2021-05-15T04:23:49.232Z</time>
      </trkpt>
      <trkpt lat="47.1742" lon="-1.58513">
        <ele>28.9</ele>
        <time>2021-05-15T04:23:50.644Z</time>
      </trkpt>
      <trkpt lat="47.17432" lon="-1.58515">
        <ele>28.7</ele>
        <time>2021-05-15T04:23:52.038Z</time>
      </trkpt>
      <trkpt lat="47.17446" lon="-1.58517">
        <ele>28.4</ele>
        <time>2021-05-15T04:23:53.234Z</time>
      </trkpt>
      <trkpt lat="47.17459" lon="-1.58521">
        <ele>28.1</ele>
        <time>2021-05-15T04:23:54.321Z</time>
      </trkpt>
      <trkpt lat="47.17472" lon="-1.58525">
        <ele>27.9</ele>
        <time>2021-05-15T04:23:55.772Z</time>
      </trkpt>
      <trkpt lat="47.17486" lon="-1.58529">
        <ele>27.6</ele>
        <time>2021-05-15T04:23:57.318Z</time>
      </trkpt>
      <trkpt lat="47.17496" lon="-1.58533">
        <ele>27.5</ele>
        <time>2021-05-15T04:23:58.677Z</time>
      </trkpt>
      <trkpt lat="47.17507" lon="-1.58538">
        <ele>27.4</ele>
        <time>2021-05-15T04:24:00.755Z</time>
      </trkpt>
      <trkpt lat="47.1752" lon="-1.58543">
        <ele>27.3</ele>
        <time>2021-05-15T04:24:02.743Z</time>
      </trkpt>
      <trkpt lat="47.17533" lon="-1.58551">
        <ele>27.1</ele>
        <time>2021-05-15T04:24:04.739Z</time>
      </trkpt>
      <trkpt lat="47.17546" lon="-1.58558">
        <ele>26.9</ele>
        <time>2021-05-15T04:24:08.429Z</time>
      </trkpt>
      <trkpt lat="47.17558" lon="-1.58565">
        <ele>26.7</ele>
        <time>2021-05-15T04:24:11.478Z</time>
      </trkpt>
      <trkpt lat="47.17569" lon="-1.58572">
        <ele>26.4</ele>
        <time>2021-05-15T04:24:14.984Z</time>
      </trkpt>
      <trkpt lat="47.17581" lon="-1.58577">
        <ele>26.1</ele>
        <time>2021-05-15T04:24:17.516Z</time>
      </trkpt>
      <trkpt lat="47.17594" lon="-1.58584">
        <ele>26.1</ele>
        <time>2021-05-15T04:24:20.228Z</time>
      </trkpt>
      <trkpt lat="47.17607" lon="-1.58592">
        <ele>26.4</ele>
        <time>2021-05-15T04:24:23.073Z</time>
      </trkpt>
      <trkpt lat="47.17618" lon="-1.58599">
        <ele>26.5</ele>
        <time>2021-05-15T04:24:24.737Z</time>
      </trkpt>
      <trkpt lat="47.17629" lon="-1.58605">
        <ele>26.7</ele>
        <time>2021-05-15T04:24:25.645Z</time>
      </trkpt>
      <trkpt lat="47.17641" lon="-1.58611">
        <ele>26.8</ele>
        <time>2021-05-15T04:24:26.626Z</time>
      </trkpt>
      <trkpt lat="47.17654" lon="-1.58618">
        <ele>26.9</ele>
        <time>2021-05-15T04:24:27.697Z</time>
      </trkpt>
      <trkpt lat="47.17665" lon="-1.58624">
        <ele>27</ele>
        <time>2021-05-15T04:24:31.174Z</time>
      </trkpt>
      <trkpt lat="47.17676" lon="-1.5863">
        <ele>26.9</ele>
        <time>2021-05-15T04:24:35.999Z</time>
      </trkpt>
      <trkpt lat="47.17689" lon="-1.58634">
        <ele>26.7</ele>
        <time>2021-05-15T04:24:37.101Z</time>
      </trkpt>
      <trkpt lat="47.17701" lon="-1.58635">
        <ele>26.6</ele>
        <time>2021-05-15T04:24:38.161Z</time>
      </trkpt>
      <trkpt lat="47.17711" lon="-1.58634">
        <ele>26.5</ele>
        <time>2021-05-15T04:24:39.553Z</time>
      </trkpt>
      <trkpt lat="47.17723" lon="-1.58634">
        <ele>26.3</ele>
        <time>2021-05-15T04:24:41.419Z</time>
      </trkpt>
      <trkpt lat="47.17734" lon="-1.58632">
        <ele>26.2</ele>
        <time>2021-05-15T04:24:42.531Z</time>
      </trkpt>
      <trkpt lat="47.17746" lon="-1.5863">
        <ele>26</ele>
        <time>2021-05-15T04:24:43.884Z</time>
      </trkpt>
      <trkpt lat="47.17759" lon="-1.58624">
        <ele>25.8</ele>
        <time>2021-05-15T04:24:46.763Z</time>
      </trkpt>
      <trkpt lat="47.17769" lon="-1.5863">
        <ele>25.7</ele>
        <time>2021-05-15T04:24:47.692Z</time>
      </trkpt>
      <trkpt lat="47.17776" lon="-1.58649">
        <ele>25.6</ele>
        <time>2021-05-15T04:24:49.539Z</time>
      </trkpt>
      <trkpt lat="47.17785" lon="-1.58664">
        <ele>25.6</ele>
        <time>2021-05-15T04:24:51.722Z</time>
      </trkpt>
      <trkpt lat="47.17796" lon="-1.58679">
        <ele>25.6</ele>
        <time>2021-05-15T04:24:53.602Z</time>
      </trkpt>
      <trkpt lat="47.17806" lon="-1.58691">
        <ele>25.6</ele>
        <time>2021-05-15T04:24:54.646Z</time>
      </trkpt>
      <trkpt lat="47.17816" lon="-1.58703">
        <ele>25.6</ele>
        <time>2021-05-15T04:24:57.586Z</time>
      </trkpt>
      <trkpt lat="47.17823" lon="-1.58714">
        <ele>25.7</ele>
        <time>2021-05-15T04:25:00.683Z</time>
      </trkpt>
      <trkpt lat="47.17833" lon="-1.58728">
        <ele>25.7</ele>
        <time>2021-05-15T04:25:03.000Z</time>
      </trkpt>
      <trkpt lat="47.17842" lon="-1.58741">
        <ele>25.8</ele>
        <time>2021-05-15T04:25:04.483Z</time>
      </trkpt>
      <trkpt lat="47.17852" lon="-1.58754">
        <ele>25.7</ele>
        <time>2021-05-15T04:25:06.199Z</time>
      </trkpt>
      <trkpt lat="47.17862" lon="-1.58769">
        <ele>25.5</ele>
        <time>2021-05-15T04:25:07.840Z</time>
      </trkpt>
      <trkpt lat="47.17872" lon="-1.58782">
        <ele>25.3</ele>
        <time>2021-05-15T04:25:08.861Z</time>
      </trkpt>
      <trkpt lat="47.17884" lon="-1.58796">
        <ele>25.2</ele>
        <time>2021-05-15T04:25:10.575Z</time>
      </trkpt>
      <trkpt lat="47.17895" lon="-1.58808">
        <ele>25.1</ele>
        <time>2021-05-15T04:25:11.757Z</time>
      </trkpt>
      <trkpt lat="47.17905" lon="-1.58819">
        <ele>25</ele>
        <time>2021-05-15T04:25:12.660Z</time>
      </trkpt>
      <trkpt lat="47.17916" lon="-1.58828">
        <ele>25</ele>
        <time>2021-05-15T04:25:13.634Z</time>
      </trkpt>
      <trkpt lat="47.17929" lon="-1.58839">
        <ele>24.7</ele>
        <time>2021-05-15T04:25:14.784Z</time>
      </trkpt>
      <trkpt lat="47.17943" lon="-1.58849">
        <ele>24.3</ele>
        <time>2021-05-15T04:25:17.678Z</time>
      </trkpt>
      <trkpt lat="47.17951" lon="-1.58856">
        <ele>24.1</ele>
        <time>2021-05-15T04:25:18.823Z</time>
      </trkpt>
      <trkpt lat="47.17962" lon="-1.58864">
        <ele>23.9</ele>
        <time>2021-05-15T04:25:21.896Z</time>
      </trkpt>
      <trkpt lat="47.17972" lon="-1.58871">
        <ele>23.8</ele>
        <time>2021-05-15T04:25:24.482Z</time>
      </trkpt>
      <trkpt lat="47.17983" lon="-1.58878">
        <ele>23.7</ele>
        <time>2021-05-15T04:25:25.809Z</time>
      </trkpt>
      <trkpt lat="47.17993" lon="-1.5889">
        <ele>23.7</ele>
        <time>2021-05-15T04:25:27.023Z</time>
      </trkpt>
      <trkpt lat="47.18003" lon="-1.58902">
        <ele>23.8</ele>
        <time>2021-05-15T04:25:28.938Z</time>
      </trkpt>
      <trkpt lat="47.18015" lon="-1.58915">
        <ele>23.8</ele>
        <time>2021-05-15T04:25:33.412Z</time>
      </trkpt>
      <trkpt lat="47.18027" lon="-1.58925">
        <ele>23.6</ele>
        <time>2021-05-15T04:25:39.364Z</time>
      </trkpt>
      <trkpt lat="47.18038" lon="-1.58933">
        <ele>23.5</ele>
        <time>2021-05-15T04:25:42.560Z</time>
      </trkpt>
      <trkpt lat="47.18049" lon="-1.58941">
        <ele>23.5</ele>
        <time>2021-05-15T04:25:45.311Z</time>
      </trkpt>
      <trkpt lat="47.1806" lon="-1.5895">
        <ele>23.5</ele>
        <time>2021-05-15T04:25:46.565Z</time>
      </trkpt>
      <trkpt lat="47.18064" lon="-1.58969">
        <ele>23.6</ele>
        <time>2021-05-15T04:25:48.062Z</time>
      </trkpt>
      <trkpt lat="47.18063" lon="-1.58988">
        <ele>23.7</ele>
        <time>2021-05-15T04:25:50.700Z</time>
      </trkpt>
      <trkpt lat="47.18064" lon="-1.59007">
        <ele>23.7</ele>
        <time>2021-05-15T04:25:54.806Z</time>
      </trkpt>
      <trkpt lat="47.18066" lon="-1.59028">
        <ele>23.5</ele>
        <time>2021-05-15T04:25:56.860Z</time>
      </trkpt>
      <trkpt lat="47.18069" lon="-1.59052">
        <ele>23.3</ele>
        <time>2021-05-15T04:25:59.005Z</time>
      </trkpt>
      <trkpt lat="47.18072" lon="-1.59073">
        <ele>23.1</ele>
        <time>2021-05-15T04:26:00.366Z</time>
      </trkpt>
      <trkpt lat="47.18075" lon="-1.59092">
        <ele>23.1</ele>
        <time>2021-05-15T04:26:01.616Z</time>
      </trkpt>
      <trkpt lat="47.18078" lon="-1.5911">
        <ele>23.3</ele>
        <time>2021-05-15T04:26:03.111Z</time>
      </trkpt>
      <trkpt lat="47.18081" lon="-1.59127">
        <ele>23.5</ele>
        <time>2021-05-15T04:26:05.801Z</time>
      </trkpt>
      <trkpt lat="47.18084" lon="-1.59144">
        <ele>23.7</ele>
        <time>2021-05-15T04:26:08.275Z</time>
      </trkpt>
      <trkpt lat="47.18086" lon="-1.59163">
        <ele>23.9</ele>
        <time>2021-05-15T04:26:10.954Z</time>
      </trkpt>
      <trkpt lat="47.18089" lon="-1.59179">
        <ele>23.9</ele>
        <time>2021-05-15T04:26:12.722Z</time>
      </trkpt>
      <trkpt lat="47.18089" lon="-1.59201">
        <ele>23.9</ele>
        <time>2021-05-15T04:26:13.879Z</time>
      </trkpt>
      <trkpt lat="47.18081" lon="-1.59212">
        <ele>24</ele>
        <time>2021-05-15T04:26:14.726Z</time>
      </trkpt>
      <trkpt lat="47.18077" lon="-1.59228">
        <ele>23.9</ele>
        <time>2021-05-15T04:26:15.623Z</time>
      </trkpt>
      <trkpt lat="47.18075" lon="-1.59249">
        <ele>23.9</ele>
        <time>2021-05-15T04:26:16.738Z</time>
      </trkpt>
      <trkpt lat="47.18072" lon="-1.5927">
        <ele>23.7</ele>
        <time>2021-05-15T04:26:17.866Z</time>
      </trkpt>
      <trkpt lat="47.18069" lon="-1.59291">
        <ele>23.4</ele>
        <time>2021-05-15T04:26:18.995Z</time>
      </trkpt>
      <trkpt lat="47.18066" lon="-1.59307">
        <ele>23.3</ele>
        <time>2021-05-15T04:26:19.868Z</time>
      </trkpt>
      <trkpt lat="47.18063" lon="-1.59325">
        <ele>23.1</ele>
        <time>2021-05-15T04:26:21.202Z</time>
      </trkpt>
      <trkpt lat="47.1806" lon="-1.59343">
        <ele>22.9</ele>
        <time>2021-05-15T04:26:23.104Z</time>
      </trkpt>
      <trkpt lat="47.18057" lon="-1.5936">
        <ele>22.9</ele>
        <time>2021-05-15T04:26:24.885Z</time>
      </trkpt>
      <trkpt lat="47.18054" lon="-1.59374">
        <ele>22.9</ele>
        <time>2021-05-15T04:26:30.229Z</time>
      </trkpt>
      <trkpt lat="47.18053" lon="-1.59392">
        <ele>22.8</ele>
        <time>2021-05-15T04:26:36.805Z</time>
      </trkpt>
      <trkpt lat="47.18057" lon="-1.59405">
        <ele>22.7</ele>
        <time>2021-05-15T04:26:42.001Z</time>
      </trkpt>
      <trkpt lat="47.18064" lon="-1.59417">
        <ele>22.5</ele>
        <time>2021-05-15T04:26:47.758Z</time>
      </trkpt>
      <trkpt lat="47.1806" lon="-1.59433">
        <ele>22.5</ele>
        <time>2021-05-15T04:26:52.019Z</time>
      </trkpt>
      <trkpt lat="47.18053" lon="-1.59445">
        <ele>22.6</ele>
        <time>2021-05-15T04:26:53.451Z</time>
      </trkpt>
      <trkpt lat="47.18043" lon="-1.59461">
        <ele>22.7</ele>
        <time>2021-05-15T04:26:56.594Z</time>
      </trkpt>
      <trkpt lat="47.18036" lon="-1.59479">
        <ele>22.7</ele>
        <time>2021-05-15T04:27:00.561Z</time>
      </trkpt>
      <trkpt lat="47.18031" lon="-1.59498">
        <ele>22.6</ele>
        <time>2021-05-15T04:27:02.778Z</time>
      </trkpt>
      <trkpt lat="47.18025" lon="-1.59517">
        <ele>22.4</ele>
        <time>2021-05-15T04:27:03.949Z</time>
      </trkpt>
      <trkpt lat="47.18021" lon="-1.59539">
        <ele>22.2</ele>
        <time>2021-05-15T04:27:05.147Z</time>
      </trkpt>
      <trkpt lat="47.18016" lon="-1.59558">
        <ele>22</ele>
        <time>2021-05-15T04:27:06.544Z</time>
      </trkpt>
      <trkpt lat="47.1801" lon="-1.5958">
        <ele>21.8</ele>
        <time>2021-05-15T04:27:08.531Z</time>
      </trkpt>
      <trkpt lat="47.18006" lon="-1.59601">
        <ele>21.3</ele>
        <time>2021-05-15T04:27:09.756Z</time>
      </trkpt>
      <trkpt lat="47.18001" lon="-1.59619">
        <ele>20.7</ele>
        <time>2021-05-15T04:27:13.259Z</time>
      </trkpt>
      <trkpt lat="47.17995" lon="-1.59638">
        <ele>20</ele>
        <time>2021-05-15T04:27:17.310Z</time>
      </trkpt>
      <trkpt lat="47.17989" lon="-1.59659">
        <ele>19.3</ele>
        <time>2021-05-15T04:27:18.983Z</time>
      </trkpt>
      <trkpt lat="47.17984" lon="-1.5968">
        <ele>18.5</ele>
        <time>2021-05-15T04:27:20.607Z</time>
      </trkpt>
      <trkpt lat="47.17979" lon="-1.59704">
        <ele>17.7</ele>
        <time>2021-05-15T04:27:22.108Z</time>
      </trkpt>
      <trkpt lat="47.17974" lon="-1.59725">
        <ele>16.9</ele>
        <time>2021-05-15T04:27:23.509Z</time>
      </trkpt>
      <trkpt lat="47.17969" lon="-1.59742">
        <ele>16.3</ele>
        <time>2021-05-15T04:27:24.867Z</time>
      </trkpt>
      <trkpt lat="47.17964" lon="-1.59762">
        <ele>15.3</ele>
        <time>2021-05-15T04:27:26.704Z</time>
      </trkpt>
      <trkpt lat="47.17957" lon="-1.59788">
        <ele>14</ele>
        <time>2021-05-15T04:27:28.153Z</time>
      </trkpt>
      <trkpt lat="47.17953" lon="-1.598">
        <ele>13.4</ele>
        <time>2021-05-15T04:27:28.955Z</time>
      </trkpt>
      <trkpt lat="47.17948" lon="-1.59823">
        <ele>12.4</ele>
        <time>2021-05-15T04:27:30.766Z</time>
      </trkpt>
      <trkpt lat="47.17945" lon="-1.59839">
        <ele>12</ele>
        <time>2021-05-15T04:27:31.713Z</time>
      </trkpt>
      <trkpt lat="47.17942" lon="-1.59855">
        <ele>12.1</ele>
        <time>2021-05-15T04:27:32.830Z</time>
      </trkpt>
      <trkpt lat="47.17939" lon="-1.59869">
        <ele>12.1</ele>
        <time>2021-05-15T04:27:33.691Z</time>
      </trkpt>
      <trkpt lat="47.17935" lon="-1.59886">
        <ele>12.1</ele>
        <time>2021-05-15T04:27:34.768Z</time>
      </trkpt>
      <trkpt lat="47.17933" lon="-1.59902">
        <ele>12.1</ele>
        <time>2021-05-15T04:27:35.761Z</time>
      </trkpt>
      <trkpt lat="47.17928" lon="-1.59927">
        <ele>11.5</ele>
        <time>2021-05-15T04:27:37.131Z</time>
      </trkpt>
      <trkpt lat="47.17924" lon="-1.5994">
        <ele>10.9</ele>
        <time>2021-05-15T04:27:37.882Z</time>
      </trkpt>
      <trkpt lat="47.1791" lon="-1.59949">
        <ele>10.3</ele>
        <time>2021-05-15T04:27:39.064Z</time>
      </trkpt>
      <trkpt lat="47.17901" lon="-1.59949">
        <ele>10</ele>
        <time>2021-05-15T04:27:39.713Z</time>
      </trkpt>
      <trkpt lat="47.17886" lon="-1.59958">
        <ele>9.3</ele>
        <time>2021-05-15T04:27:41.078Z</time>
      </trkpt>
      <trkpt lat="47.17878" lon="-1.59969">
        <ele>8.8</ele>
        <time>2021-05-15T04:27:42.184Z</time>
      </trkpt>
      <trkpt lat="47.17872" lon="-1.59979">
        <ele>8.5</ele>
        <time>2021-05-15T04:27:44.162Z</time>
      </trkpt>
      <trkpt lat="47.17866" lon="-1.59991">
        <ele>8.2</ele>
        <time>2021-05-15T04:27:46.142Z</time>
      </trkpt>
      <trkpt lat="47.17859" lon="-1.60003">
        <ele>7.9</ele>
        <time>2021-05-15T04:27:48.694Z</time>
      </trkpt>
      <trkpt lat="47.17853" lon="-1.60014">
        <ele>7.8</ele>
        <time>2021-05-15T04:27:49.909Z</time>
      </trkpt>
      <trkpt lat="47.17847" lon="-1.60025">
        <ele>7.6</ele>
        <time>2021-05-15T04:27:51.636Z</time>
      </trkpt>
      <trkpt lat="47.17841" lon="-1.60035">
        <ele>7.5</ele>
        <time>2021-05-15T04:27:53.915Z</time>
      </trkpt>
      <trkpt lat="47.17835" lon="-1.60045">
        <ele>7.4</ele>
        <time>2021-05-15T04:27:55.577Z</time>
      </trkpt>
      <trkpt lat="47.17829" lon="-1.60056">
        <ele>7.6</ele>
        <time>2021-05-15T04:27:57.148Z</time>
      </trkpt>
      <trkpt lat="47.17822" lon="-1.60066">
        <ele>8</ele>
        <time>2021-05-15T04:27:58.941Z</time>
      </trkpt>
      <trkpt lat="47.17812" lon="-1.60083">
        <ele>8.8</ele>
        <time>2021-05-15T04:28:02.418Z</time>
      </trkpt>
      <trkpt lat="47.17802" lon="-1.60102">
        <ele>9.9</ele>
        <time>2021-05-15T04:28:07.196Z</time>
      </trkpt>
      <trkpt lat="47.17796" lon="-1.60113">
        <ele>10.7</ele>
        <time>2021-05-15T04:28:09.894Z</time>
      </trkpt>
      <trkpt lat="47.1779" lon="-1.60123">
        <ele>11.4</ele>
        <time>2021-05-15T04:28:13.077Z</time>
      </trkpt>
      <trkpt lat="47.1778" lon="-1.6014">
        <ele>12.6</ele>
        <time>2021-05-15T04:28:19.320Z</time>
      </trkpt>
      <trkpt lat="47.1777" lon="-1.60158">
        <ele>13.9</ele>
        <time>2021-05-15T04:28:21.636Z</time>
      </trkpt>
      <trkpt lat="47.17761" lon="-1.60176">
        <ele>15.1</ele>
        <time>2021-05-15T04:28:24.394Z</time>
      </trkpt>
      <trkpt lat="47.17752" lon="-1.60197">
        <ele>16.2</ele>
        <time>2021-05-15T04:28:26.308Z</time>
      </trkpt>
      <trkpt lat="47.17746" lon="-1.60218">
        <ele>16.8</ele>
        <time>2021-05-15T04:28:27.589Z</time>
      </trkpt>
      <trkpt lat="47.17741" lon="-1.60242">
        <ele>17.3</ele>
        <time>2021-05-15T04:28:28.889Z</time>
      </trkpt>
      <trkpt lat="47.17737" lon="-1.60261">
        <ele>17.7</ele>
        <time>2021-05-15T04:28:30.019Z</time>
      </trkpt>
      <trkpt lat="47.17729" lon="-1.60279">
        <ele>18.3</ele>
        <time>2021-05-15T04:28:31.857Z</time>
      </trkpt>
      <trkpt lat="47.1772" lon="-1.60296">
        <ele>18.8</ele>
        <time>2021-05-15T04:28:36.137Z</time>
      </trkpt>
      <trkpt lat="47.1771" lon="-1.60311">
        <ele>19.3</ele>
        <time>2021-05-15T04:28:41.640Z</time>
      </trkpt>
      <trkpt lat="47.17699" lon="-1.60327">
        <ele>19.8</ele>
        <time>2021-05-15T04:28:46.397Z</time>
      </trkpt>
      <trkpt lat="47.17689" lon="-1.6034">
        <ele>20</ele>
        <time>2021-05-15T04:28:48.976Z</time>
      </trkpt>
      <trkpt lat="47.17678" lon="-1.60356">
        <ele>19.8</ele>
        <time>2021-05-15T04:28:50.826Z</time>
      </trkpt>
      <trkpt lat="47.17668" lon="-1.6037">
        <ele>19.6</ele>
        <time>2021-05-15T04:28:52.310Z</time>
      </trkpt>
      <trkpt lat="47.17657" lon="-1.60384">
        <ele>19.3</ele>
        <time>2021-05-15T04:28:54.126Z</time>
      </trkpt>
      <trkpt lat="47.17648" lon="-1.60397">
        <ele>19</ele>
        <time>2021-05-15T04:28:56.498Z</time>
      </trkpt>
      <trkpt lat="47.17637" lon="-1.60414">
        <ele>18.8</ele>
        <time>2021-05-15T04:28:59.820Z</time>
      </trkpt>
      <trkpt lat="47.17626" lon="-1.60431">
        <ele>18.5</ele>
        <time>2021-05-15T04:29:02.762Z</time>
      </trkpt>
      <trkpt lat="47.17614" lon="-1.6045">
        <ele>18.1</ele>
        <time>2021-05-15T04:29:05.128Z</time>
      </trkpt>
      <trkpt lat="47.17603" lon="-1.60467">
        <ele>17.7</ele>
        <time>2021-05-15T04:29:07.681Z</time>
      </trkpt>
      <trkpt lat="47.17592" lon="-1.60483">
        <ele>17.4</ele>
        <time>2021-05-15T04:29:09.054Z</time>
      </trkpt>
      <trkpt lat="47.17581" lon="-1.60501">
        <ele>17.1</ele>
        <time>2021-05-15T04:29:12.080Z</time>
      </trkpt>
      <trkpt lat="47.17569" lon="-1.6052">
        <ele>17.1</ele>
        <time>2021-05-15T04:29:16.916Z</time>
      </trkpt>
      <trkpt lat="47.17558" lon="-1.60537">
        <ele>16.9</ele>
        <time>2021-05-15T04:29:20.075Z</time>
      </trkpt>
      <trkpt lat="47.17548" lon="-1.60554">
        <ele>16.6</ele>
        <time>2021-05-15T04:29:22.662Z</time>
      </trkpt>
      <trkpt lat="47.17538" lon="-1.60569">
        <ele>16.2</ele>
        <time>2021-05-15T04:29:24.584Z</time>
      </trkpt>
      <trkpt lat="47.17528" lon="-1.60585">
        <ele>15.6</ele>
        <time>2021-05-15T04:29:28.111Z</time>
      </trkpt>
      <trkpt lat="47.17518" lon="-1.60604">
        <ele>15.4</ele>
        <time>2021-05-15T04:29:31.975Z</time>
      </trkpt>
      <trkpt lat="47.17507" lon="-1.60622">
        <ele>15.4</ele>
        <time>2021-05-15T04:29:33.625Z</time>
      </trkpt>
      <trkpt lat="47.17497" lon="-1.60639">
        <ele>15.5</ele>
        <time>2021-05-15T04:29:34.919Z</time>
      </trkpt>
      <trkpt lat="47.17486" lon="-1.60658">
        <ele>15.9</ele>
        <time>2021-05-15T04:29:36.932Z</time>
      </trkpt>
      <trkpt lat="47.17474" lon="-1.60675">
        <ele>16.5</ele>
        <time>2021-05-15T04:29:38.518Z</time>
      </trkpt>
      <trkpt lat="47.17462" lon="-1.60694">
        <ele>16.9</ele>
        <time>2021-05-15T04:29:40.055Z</time>
      </trkpt>
      <trkpt lat="47.1745" lon="-1.60714">
        <ele>16.9</ele>
        <time>2021-05-15T04:29:41.458Z</time>
      </trkpt>
      <trkpt lat="47.17444" lon="-1.60724">
        <ele>16.7</ele>
        <time>2021-05-15T04:29:42.160Z</time>
      </trkpt>
      <trkpt lat="47.17438" lon="-1.60735">
        <ele>16.5</ele>
        <time>2021-05-15T04:29:42.902Z</time>
      </trkpt>
      <trkpt lat="47.17432" lon="-1.60745">
        <ele>16.2</ele>
        <time>2021-05-15T04:29:43.603Z</time>
      </trkpt>
      <trkpt lat="47.17425" lon="-1.60757">
        <ele>15.5</ele>
        <time>2021-05-15T04:29:44.435Z</time>
      </trkpt>
      <trkpt lat="47.17418" lon="-1.60779">
        <ele>13.9</ele>
        <time>2021-05-15T04:29:45.713Z</time>
      </trkpt>
      <trkpt lat="47.17414" lon="-1.60792">
        <ele>13</ele>
        <time>2021-05-15T04:29:46.438Z</time>
      </trkpt>
      <trkpt lat="47.1741" lon="-1.60805">
        <ele>12.2</ele>
        <time>2021-05-15T04:29:47.266Z</time>
      </trkpt>
      <trkpt lat="47.17406" lon="-1.60817">
        <ele>11.4</ele>
        <time>2021-05-15T04:29:47.969Z</time>
      </trkpt>
      <trkpt lat="47.17402" lon="-1.60832">
        <ele>10.4</ele>
        <time>2021-05-15T04:29:48.767Z</time>
      </trkpt>
      <trkpt lat="47.17399" lon="-1.60847">
        <ele>9.8</ele>
        <time>2021-05-15T04:29:49.610Z</time>
      </trkpt>
      <trkpt lat="47.17396" lon="-1.60862">
        <ele>9.1</ele>
        <time>2021-05-15T04:29:50.396Z</time>
      </trkpt>
      <trkpt lat="47.17395" lon="-1.60878">
        <ele>8.4</ele>
        <time>2021-05-15T04:29:51.241Z</time>
      </trkpt>
      <trkpt lat="47.17395" lon="-1.60904">
        <ele>7.1</ele>
        <time>2021-05-15T04:29:52.609Z</time>
      </trkpt>
      <trkpt lat="47.17396" lon="-1.60932">
        <ele>5.9</ele>
        <time>2021-05-15T04:29:54.557Z</time>
      </trkpt>
      <trkpt lat="47.17397" lon="-1.60948">
        <ele>5.3</ele>
        <time>2021-05-15T04:29:55.617Z</time>
      </trkpt>
      <trkpt lat="47.17401" lon="-1.60961">
        <ele>4.8</ele>
        <time>2021-05-15T04:29:56.686Z</time>
      </trkpt>
      <trkpt lat="47.17404" lon="-1.60974">
        <ele>4.2</ele>
        <time>2021-05-15T04:29:57.582Z</time>
      </trkpt>
      <trkpt lat="47.17412" lon="-1.60996">
        <ele>3.3</ele>
        <time>2021-05-15T04:29:58.894Z</time>
      </trkpt>
      <trkpt lat="47.1742" lon="-1.61016">
        <ele>3.8</ele>
        <time>2021-05-15T04:30:07.344Z</time>
      </trkpt>
      <trkpt lat="47.17425" lon="-1.61036">
        <ele>4.8</ele>
        <time>2021-05-15T04:30:08.465Z</time>
      </trkpt>
      <trkpt lat="47.17427" lon="-1.61056">
        <ele>5.8</ele>
        <time>2021-05-15T04:30:13.449Z</time>
      </trkpt>
      <trkpt lat="47.17433" lon="-1.61073">
        <ele>6.6</ele>
        <time>2021-05-15T04:30:16.886Z</time>
      </trkpt>
      <trkpt lat="47.1744" lon="-1.61093">
        <ele>7.1</ele>
        <time>2021-05-15T04:30:19.349Z</time>
      </trkpt>
      <trkpt lat="47.17445" lon="-1.61108">
        <ele>7.3</ele>
        <time>2021-05-15T04:30:21.705Z</time>
      </trkpt>
      <trkpt lat="47.17452" lon="-1.61126">
        <ele>7.5</ele>
        <time>2021-05-15T04:30:25.996Z</time>
      </trkpt>
      <trkpt lat="47.17459" lon="-1.61145">
        <ele>7.7</ele>
        <time>2021-05-15T04:30:30.576Z</time>
      </trkpt>
      <trkpt lat="47.17467" lon="-1.61164">
        <ele>8</ele>
        <time>2021-05-15T04:30:34.922Z</time>
      </trkpt>
      <trkpt lat="47.17474" lon="-1.61182">
        <ele>8.5</ele>
        <time>2021-05-15T04:30:38.911Z</time>
      </trkpt>
      <trkpt lat="47.17483" lon="-1.612">
        <ele>9.3</ele>
        <time>2021-05-15T04:30:40.569Z</time>
      </trkpt>
      <trkpt lat="47.1749" lon="-1.61216">
        <ele>10.1</ele>
        <time>2021-05-15T04:30:42.445Z</time>
      </trkpt>
      <trkpt lat="47.17496" lon="-1.61232">
        <ele>11</ele>
        <time>2021-05-15T04:30:46.142Z</time>
      </trkpt>
      <trkpt lat="47.17503" lon="-1.61251">
        <ele>11.9</ele>
        <time>2021-05-15T04:30:49.502Z</time>
      </trkpt>
      <trkpt lat="47.17511" lon="-1.61266">
        <ele>12.2</ele>
        <time>2021-05-15T04:30:52.874Z</time>
      </trkpt>
      <trkpt lat="47.17521" lon="-1.61282">
        <ele>12.4</ele>
        <time>2021-05-15T04:30:55.559Z</time>
      </trkpt>
      <trkpt lat="47.17532" lon="-1.61292">
        <ele>12.4</ele>
        <time>2021-05-15T04:30:56.591Z</time>
      </trkpt>
      <trkpt lat="47.17546" lon="-1.61302">
        <ele>12.2</ele>
        <time>2021-05-15T04:30:57.750Z</time>
      </trkpt>
      <trkpt lat="47.17557" lon="-1.6131">
        <ele>12.1</ele>
        <time>2021-05-15T04:30:59.506Z</time>
      </trkpt>
      <trkpt lat="47.17561" lon="-1.61329">
        <ele>12.6</ele>
        <time>2021-05-15T04:31:02.058Z</time>
      </trkpt>
      <trkpt lat="47.17556" lon="-1.61348">
        <ele>13.1</ele>
        <time>2021-05-15T04:31:06.325Z</time>
      </trkpt>
      <trkpt lat="47.17544" lon="-1.61362">
        <ele>13.6</ele>
        <time>2021-05-15T04:31:08.517Z</time>
      </trkpt>
      <trkpt lat="47.17533" lon="-1.6138">
        <ele>14</ele>
        <time>2021-05-15T04:31:10.608Z</time>
      </trkpt>
      <trkpt lat="47.17524" lon="-1.61401">
        <ele>14.4</ele>
        <time>2021-05-15T04:31:13.253Z</time>
      </trkpt>
      <trkpt lat="47.1752" lon="-1.61414">
        <ele>14.5</ele>
        <time>2021-05-15T04:31:15.061Z</time>
      </trkpt>
      <trkpt lat="47.17518" lon="-1.61427">
        <ele>14.8</ele>
        <time>2021-05-15T04:31:17.241Z</time>
      </trkpt>
      <trkpt lat="47.17515" lon="-1.61447">
        <ele>15.4</ele>
        <time>2021-05-15T04:31:20.550Z</time>
      </trkpt>
      <trkpt lat="47.17508" lon="-1.61462">
        <ele>15.9</ele>
        <time>2021-05-15T04:31:24.793Z</time>
      </trkpt>
      <trkpt lat="47.17495" lon="-1.61474">
        <ele>16.6</ele>
        <time>2021-05-15T04:31:28.310Z</time>
      </trkpt>
      <trkpt lat="47.17482" lon="-1.61479">
        <ele>17.2</ele>
        <time>2021-05-15T04:31:29.350Z</time>
      </trkpt>
      <trkpt lat="47.1747" lon="-1.61484">
        <ele>17.8</ele>
        <time>2021-05-15T04:31:30.315Z</time>
      </trkpt>
      <trkpt lat="47.17456" lon="-1.6149">
        <ele>18.4</ele>
        <time>2021-05-15T04:31:31.879Z</time>
      </trkpt>
      <trkpt lat="47.17442" lon="-1.61497">
        <ele>19</ele>
        <time>2021-05-15T04:31:35.763Z</time>
      </trkpt>
      <trkpt lat="47.17433" lon="-1.61502">
        <ele>19.5</ele>
        <time>2021-05-15T04:31:38.082Z</time>
      </trkpt>
      <trkpt lat="47.17422" lon="-1.61509">
        <ele>20</ele>
        <time>2021-05-15T04:31:39.163Z</time>
      </trkpt>
      <trkpt lat="47.17414" lon="-1.61516">
        <ele>20.5</ele>
        <time>2021-05-15T04:31:39.884Z</time>
      </trkpt>
      <trkpt lat="47.17402" lon="-1.61525">
        <ele>21</ele>
        <time>2021-05-15T04:31:40.865Z</time>
      </trkpt>
      <trkpt lat="47.17394" lon="-1.61533">
        <ele>21.4</ele>
        <time>2021-05-15T04:31:41.613Z</time>
      </trkpt>
      <trkpt lat="47.17384" lon="-1.61542">
        <ele>21.8</ele>
        <time>2021-05-15T04:31:42.520Z</time>
      </trkpt>
      <trkpt lat="47.17374" lon="-1.61553">
        <ele>22.2</ele>
        <time>2021-05-15T04:31:43.487Z</time>
      </trkpt>
      <trkpt lat="47.17364" lon="-1.61562">
        <ele>22.4</ele>
        <time>2021-05-15T04:31:45.550Z</time>
      </trkpt>
      <trkpt lat="47.17355" lon="-1.61573">
        <ele>22.7</ele>
        <time>2021-05-15T04:31:50.723Z</time>
      </trkpt>
      <trkpt lat="47.17347" lon="-1.61582">
        <ele>22.8</ele>
        <time>2021-05-15T04:31:52.831Z</time>
      </trkpt>
      <trkpt lat="47.17337" lon="-1.61593">
        <ele>22.9</ele>
        <time>2021-05-15T04:31:56.271Z</time>
      </trkpt>
      <trkpt lat="47.17328" lon="-1.61605">
        <ele>22.7</ele>
        <time>2021-05-15T04:31:57.314Z</time>
      </trkpt>
      <trkpt lat="47.17319" lon="-1.61616">
        <ele>22.5</ele>
        <time>2021-05-15T04:31:58.233Z</time>
      </trkpt>
      <trkpt lat="47.17311" lon="-1.61628">
        <ele>22.3</ele>
        <time>2021-05-15T04:32:00.779Z</time>
      </trkpt>
      <trkpt lat="47.17301" lon="-1.61642">
        <ele>22.2</ele>
        <time>2021-05-15T04:32:05.983Z</time>
      </trkpt>
      <trkpt lat="47.17293" lon="-1.61655">
        <ele>22.1</ele>
        <time>2021-05-15T04:32:07.497Z</time>
      </trkpt>
      <trkpt lat="47.17286" lon="-1.61668">
        <ele>22</ele>
        <time>2021-05-15T04:32:09.186Z</time>
      </trkpt>
      <trkpt lat="47.17279" lon="-1.61681">
        <ele>22</ele>
        <time>2021-05-15T04:32:11.654Z</time>
      </trkpt>
      <trkpt lat="47.17272" lon="-1.61694">
        <ele>22</ele>
        <time>2021-05-15T04:32:14.435Z</time>
      </trkpt>
      <trkpt lat="47.17265" lon="-1.61708">
        <ele>22</ele>
        <time>2021-05-15T04:32:16.954Z</time>
      </trkpt>
      <trkpt lat="47.17256" lon="-1.61725">
        <ele>22</ele>
        <time>2021-05-15T04:32:18.491Z</time>
      </trkpt>
      <trkpt lat="47.17248" lon="-1.61741">
        <ele>22</ele>
        <time>2021-05-15T04:32:20.053Z</time>
      </trkpt>
      <trkpt lat="47.17244" lon="-1.61756">
        <ele>21.9</ele>
        <time>2021-05-15T04:32:21.051Z</time>
      </trkpt>
      <trkpt lat="47.17242" lon="-1.61775">
        <ele>21.9</ele>
        <time>2021-05-15T04:32:22.628Z</time>
      </trkpt>
      <trkpt lat="47.17235" lon="-1.61791">
        <ele>21.7</ele>
        <time>2021-05-15T04:32:24.972Z</time>
      </trkpt>
      <trkpt lat="47.17226" lon="-1.618">
        <ele>21.5</ele>
        <time>2021-05-15T04:32:28.141Z</time>
      </trkpt>
      <trkpt lat="47.17216" lon="-1.61809">
        <ele>21.3</ele>
        <time>2021-05-15T04:32:31.844Z</time>
      </trkpt>
      <trkpt lat="47.17204" lon="-1.61817">
        <ele>21</ele>
        <time>2021-05-15T04:32:35.380Z</time>
      </trkpt>
      <trkpt lat="47.17194" lon="-1.61826">
        <ele>20.7</ele>
        <time>2021-05-15T04:32:37.748Z</time>
      </trkpt>
      <trkpt lat="47.17182" lon="-1.61837">
        <ele>20.3</ele>
        <time>2021-05-15T04:32:40.894Z</time>
      </trkpt>
      <trkpt lat="47.1717" lon="-1.61848">
        <ele>20.1</ele>
        <time>2021-05-15T04:32:44.763Z</time>
      </trkpt>
      <trkpt lat="47.1716" lon="-1.61858">
        <ele>20.1</ele>
        <time>2021-05-15T04:32:48.008Z</time>
      </trkpt>
      <trkpt lat="47.17149" lon="-1.61867">
        <ele>20.2</ele>
        <time>2021-05-15T04:32:50.331Z</time>
      </trkpt>
      <trkpt lat="47.17136" lon="-1.61878">
        <ele>20.4</ele>
        <time>2021-05-15T04:32:51.824Z</time>
      </trkpt>
      <trkpt lat="47.17127" lon="-1.61887">
        <ele>20.5</ele>
        <time>2021-05-15T04:32:52.822Z</time>
      </trkpt>
      <trkpt lat="47.17116" lon="-1.61897">
        <ele>20.6</ele>
        <time>2021-05-15T04:32:54.949Z</time>
      </trkpt>
      <trkpt lat="47.17106" lon="-1.61907">
        <ele>20.7</ele>
        <time>2021-05-15T04:32:56.265Z</time>
      </trkpt>
      <trkpt lat="47.17094" lon="-1.61919">
        <ele>20.8</ele>
        <time>2021-05-15T04:32:58.571Z</time>
      </trkpt>
      <trkpt lat="47.17084" lon="-1.61928">
        <ele>20.9</ele>
        <time>2021-05-15T04:33:00.266Z</time>
      </trkpt>
      <trkpt lat="47.17072" lon="-1.61939">
        <ele>20.7</ele>
        <time>2021-05-15T04:33:01.462Z</time>
      </trkpt>
      <trkpt lat="47.17061" lon="-1.61949">
        <ele>20.6</ele>
        <time>2021-05-15T04:33:02.463Z</time>
      </trkpt>
      <trkpt lat="47.17049" lon="-1.61962">
        <ele>20.5</ele>
        <time>2021-05-15T04:33:03.608Z</time>
      </trkpt>
      <trkpt lat="47.1704" lon="-1.61974">
        <ele>20.5</ele>
        <time>2021-05-15T04:33:04.737Z</time>
      </trkpt>
      <trkpt lat="47.17032" lon="-1.61986">
        <ele>20.6</ele>
        <time>2021-05-15T04:33:07.591Z</time>
      </trkpt>
      <trkpt lat="47.17023" lon="-1.62">
        <ele>20.7</ele>
        <time>2021-05-15T04:33:09.608Z</time>
      </trkpt>
      <trkpt lat="47.17013" lon="-1.62015">
        <ele>20.8</ele>
        <time>2021-05-15T04:33:12.977Z</time>
      </trkpt>
      <trkpt lat="47.17004" lon="-1.6203">
        <ele>20.9</ele>
        <time>2021-05-15T04:33:16.692Z</time>
      </trkpt>
      <trkpt lat="47.16996" lon="-1.62043">
        <ele>21</ele>
        <time>2021-05-15T04:33:18.843Z</time>
      </trkpt>
      <trkpt lat="47.16986" lon="-1.6206">
        <ele>21</ele>
        <time>2021-05-15T04:33:20.352Z</time>
      </trkpt>
      <trkpt lat="47.16979" lon="-1.62074">
        <ele>21</ele>
        <time>2021-05-15T04:33:21.656Z</time>
      </trkpt>
      <trkpt lat="47.1697" lon="-1.62091">
        <ele>21</ele>
        <time>2021-05-15T04:33:25.291Z</time>
      </trkpt>
      <trkpt lat="47.16963" lon="-1.62106">
        <ele>21</ele>
        <time>2021-05-15T04:33:26.549Z</time>
      </trkpt>
      <trkpt lat="47.16955" lon="-1.62121">
        <ele>21</ele>
        <time>2021-05-15T04:33:27.982Z</time>
      </trkpt>
      <trkpt lat="47.16947" lon="-1.62138">
        <ele>21.2</ele>
        <time>2021-05-15T04:33:30.646Z</time>
      </trkpt>
      <trkpt lat="47.1694" lon="-1.62153">
        <ele>21.4</ele>
        <time>2021-05-15T04:33:32.595Z</time>
      </trkpt>
      <trkpt lat="47.16931" lon="-1.6217">
        <ele>21.6</ele>
        <time>2021-05-15T04:33:33.664Z</time>
      </trkpt>
      <trkpt lat="47.16923" lon="-1.62187">
        <ele>21.6</ele>
        <time>2021-05-15T04:33:34.752Z</time>
      </trkpt>
      <trkpt lat="47.16916" lon="-1.62203">
        <ele>21.6</ele>
        <time>2021-05-15T04:33:36.222Z</time>
      </trkpt>
      <trkpt lat="47.16908" lon="-1.62217">
        <ele>21.5</ele>
        <time>2021-05-15T04:33:40.500Z</time>
      </trkpt>
      <trkpt lat="47.16899" lon="-1.62231">
        <ele>21.4</ele>
        <time>2021-05-15T04:33:43.002Z</time>
      </trkpt>
      <trkpt lat="47.16889" lon="-1.62244">
        <ele>21.4</ele>
        <time>2021-05-15T04:33:44.683Z</time>
      </trkpt>
      <trkpt lat="47.16879" lon="-1.62256">
        <ele>21.4</ele>
        <time>2021-05-15T04:33:46.252Z</time>
      </trkpt>
      <trkpt lat="47.16869" lon="-1.62268">
        <ele>21.4</ele>
        <time>2021-05-15T04:33:48.138Z</time>
      </trkpt>
      <trkpt lat="47.16859" lon="-1.6228">
        <ele>21.3</ele>
        <time>2021-05-15T04:33:52.268Z</time>
      </trkpt>
      <trkpt lat="47.16849" lon="-1.62292">
        <ele>21.3</ele>
        <time>2021-05-15T04:33:55.508Z</time>
      </trkpt>
      <trkpt lat="47.16839" lon="-1.62303">
        <ele>21.3</ele>
        <time>2021-05-15T04:33:59.665Z</time>
      </trkpt>
      <trkpt lat="47.16827" lon="-1.62316">
        <ele>21.1</ele>
        <time>2021-05-15T04:34:01.870Z</time>
      </trkpt>
      <trkpt lat="47.16818" lon="-1.62324">
        <ele>20.9</ele>
        <time>2021-05-15T04:34:02.684Z</time>
      </trkpt>
      <trkpt lat="47.16807" lon="-1.62333">
        <ele>20.7</ele>
        <time>2021-05-15T04:34:03.658Z</time>
      </trkpt>
      <trkpt lat="47.16794" lon="-1.62342">
        <ele>20.4</ele>
        <time>2021-05-15T04:34:04.770Z</time>
      </trkpt>
      <trkpt lat="47.16781" lon="-1.62349">
        <ele>20.2</ele>
        <time>2021-05-15T04:34:06.324Z</time>
      </trkpt>
      <trkpt lat="47.16768" lon="-1.62357">
        <ele>19.9</ele>
        <time>2021-05-15T04:34:07.670Z</time>
      </trkpt>
      <trkpt lat="47.16755" lon="-1.62366">
        <ele>19.7</ele>
        <time>2021-05-15T04:34:08.794Z</time>
      </trkpt>
      <trkpt lat="47.16744" lon="-1.62379">
        <ele>19.4</ele>
        <time>2021-05-15T04:34:09.885Z</time>
      </trkpt>
      <trkpt lat="47.16736" lon="-1.62396">
        <ele>19.1</ele>
        <time>2021-05-15T04:34:10.973Z</time>
      </trkpt>
      <trkpt lat="47.16731" lon="-1.62415">
        <ele>18.8</ele>
        <time>2021-05-15T04:34:12.045Z</time>
      </trkpt>
      <trkpt lat="47.16727" lon="-1.62434">
        <ele>18.9</ele>
        <time>2021-05-15T04:34:13.161Z</time>
      </trkpt>
      <trkpt lat="47.16724" lon="-1.62451">
        <ele>19</ele>
        <time>2021-05-15T04:34:14.085Z</time>
      </trkpt>
      <trkpt lat="47.1672" lon="-1.62468">
        <ele>19</ele>
        <time>2021-05-15T04:34:15.628Z</time>
      </trkpt>
      <trkpt lat="47.16715" lon="-1.62487">
        <ele>19.1</ele>
        <time>2021-05-15T04:34:19.004Z</time>
      </trkpt>
      <trkpt lat="47.16719" lon="-1.62501">
        <ele>19.3</ele>
        <time>2021-05-15T04:34:24.535Z</time>
      </trkpt>
      <trkpt lat="47.16729" lon="-1.62507">
        <ele>19.6</ele>
        <time>2021-05-15T04:34:30.312Z</time>
      </trkpt>
      <trkpt lat="47.16741" lon="-1.62512">
        <ele>19.9</ele>
        <time>2021-05-15T04:34:34.296Z</time>
      </trkpt>
      <trkpt lat="47.16754" lon="-1.62517">
        <ele>20.2</ele>
        <time>2021-05-15T04:34:38.471Z</time>
      </trkpt>
      <trkpt lat="47.16766" lon="-1.62523">
        <ele>20.4</ele>
        <time>2021-05-15T04:34:42.317Z</time>
      </trkpt>
      <trkpt lat="47.16777" lon="-1.62531">
        <ele>20.5</ele>
        <time>2021-05-15T04:34:44.624Z</time>
      </trkpt>
      <trkpt lat="47.16787" lon="-1.62538">
        <ele>20.5</ele>
        <time>2021-05-15T04:34:46.583Z</time>
      </trkpt>
      <trkpt lat="47.16796" lon="-1.62544">
        <ele>20.5</ele>
        <time>2021-05-15T04:34:47.704Z</time>
      </trkpt>
      <trkpt lat="47.16809" lon="-1.62551">
        <ele>20.5</ele>
        <time>2021-05-15T04:34:48.928Z</time>
      </trkpt>
      <trkpt lat="47.16819" lon="-1.62559">
        <ele>20.4</ele>
        <time>2021-05-15T04:34:51.154Z</time>
      </trkpt>
      <trkpt lat="47.16831" lon="-1.62571">
        <ele>20.2</ele>
        <time>2021-05-15T04:34:56.649Z</time>
      </trkpt>
      <trkpt lat="47.16833" lon="-1.62589">
        <ele>20.1</ele>
        <time>2021-05-15T04:35:00.228Z</time>
      </trkpt>
      <trkpt lat="47.16823" lon="-1.62604">
        <ele>20.4</ele>
        <time>2021-05-15T04:35:02.438Z</time>
      </trkpt>
      <trkpt lat="47.16814" lon="-1.62616">
        <ele>20.6</ele>
        <time>2021-05-15T04:35:03.988Z</time>
      </trkpt>
      <trkpt lat="47.16805" lon="-1.62631">
        <ele>20.9</ele>
        <time>2021-05-15T04:35:05.985Z</time>
      </trkpt>
      <trkpt lat="47.16796" lon="-1.62644">
        <ele>21.2</ele>
        <time>2021-05-15T04:35:07.874Z</time>
      </trkpt>
      <trkpt lat="47.16789" lon="-1.62656">
        <ele>21.4</ele>
        <time>2021-05-15T04:35:09.205Z</time>
      </trkpt>
      <trkpt lat="47.1678" lon="-1.62662">
        <ele>21.6</ele>
        <time>2021-05-15T04:35:09.970Z</time>
      </trkpt>
    </trkseg>
  </trk>
</gpx>